<?xml version="1.0" encoding="UTF-8"?>
<gpx version="1.1" creator="https://www.youtrack.es" xsi:schemaLocation="http://www.topografix.com/GPX/1/1 http://www.topografix.com/GPX/1/1/gpx.xsd http://www.garmin.com/xmlschemas/GpxExtensions/v3 http://www.garmin.com/xmlschemas/GpxExtensionsv3.xsd http://www.garmin.com/xmlschemas/TrackPointExtension/v1 http://www.garmin.com/xmlschemas/TrackPointExtensionv1.xsd" xmlns:gpxtpx="http://www.garmin.com/xmlschemas/TrackPointExtension/v1" xmlns:gpxx="http://www.garmin.com/xmlschemas/GpxExtensions/v3" xmlns:xsi="http://www.w3.org/2001/XMLSchema-instance">
  <metadata>
    <link href="https://www.youtrack.es">
      <text>YouTrack.es</text>
    </link>
    <time>2026-05-09T02:54:40Z</time>
  </metadata>
  <trk>
    <src>https://www.youtrack.es</src>
    <link href="https://www.youtrack.es/ruta/399-8-picos">
      <text>YouTrack.es</text>
    </link>
    <trkseg>
      <trkpt lat="39.98836833" lon="-0.437895">
        <ele>737.0</ele>
        <time>2017-05-27T06:32:58.192Z</time>
      </trkpt>
      <trkpt lat="39.98836833" lon="-0.437895">
        <ele>737.0</ele>
        <time>2017-05-27T06:32:59.163Z</time>
      </trkpt>
      <trkpt lat="39.98839167" lon="-0.43792333">
        <ele>734.0</ele>
        <time>2017-05-27T06:33:00.180Z</time>
      </trkpt>
      <trkpt lat="39.98839333" lon="-0.43793833">
        <ele>736.0</ele>
        <time>2017-05-27T06:33:01.191Z</time>
      </trkpt>
      <trkpt lat="39.98839333" lon="-0.43793833">
        <ele>736.0</ele>
        <time>2017-05-27T06:33:02.177Z</time>
      </trkpt>
      <trkpt lat="39.98837833" lon="-0.43794167">
        <ele>736.0</ele>
        <time>2017-05-27T06:33:03.160Z</time>
      </trkpt>
      <trkpt lat="39.98837833" lon="-0.43794167">
        <ele>736.0</ele>
        <time>2017-05-27T06:33:04.174Z</time>
      </trkpt>
      <trkpt lat="39.98835667" lon="-0.43793333">
        <ele>736.0</ele>
        <time>2017-05-27T06:33:05.171Z</time>
      </trkpt>
      <trkpt lat="39.98835667" lon="-0.43793333">
        <ele>736.0</ele>
        <time>2017-05-27T06:33:06.163Z</time>
      </trkpt>
      <trkpt lat="39.98834167" lon="-0.43791167">
        <ele>736.0</ele>
        <time>2017-05-27T06:33:07.160Z</time>
      </trkpt>
      <trkpt lat="39.98834167" lon="-0.43791167">
        <ele>736.0</ele>
        <time>2017-05-27T06:33:08.181Z</time>
      </trkpt>
      <trkpt lat="39.98834333" lon="-0.43788167">
        <ele>736.0</ele>
        <time>2017-05-27T06:33:09.161Z</time>
      </trkpt>
      <trkpt lat="39.98834333" lon="-0.43788167">
        <ele>736.0</ele>
        <time>2017-05-27T06:33:10.188Z</time>
      </trkpt>
      <trkpt lat="39.98835333" lon="-0.437855">
        <ele>736.0</ele>
        <time>2017-05-27T06:33:11.181Z</time>
      </trkpt>
      <trkpt lat="39.98835167" lon="-0.43784333">
        <ele>736.0</ele>
        <time>2017-05-27T06:33:12.160Z</time>
      </trkpt>
      <trkpt lat="39.98835167" lon="-0.43784333">
        <ele>736.0</ele>
        <time>2017-05-27T06:33:13.159Z</time>
      </trkpt>
      <trkpt lat="39.98836167" lon="-0.43783">
        <ele>736.0</ele>
        <time>2017-05-27T06:33:14.171Z</time>
      </trkpt>
      <trkpt lat="39.98836" lon="-0.43783">
        <ele>736.0</ele>
        <time>2017-05-27T06:33:15.178Z</time>
      </trkpt>
      <trkpt lat="39.98836" lon="-0.43783">
        <ele>736.0</ele>
        <time>2017-05-27T06:33:16.185Z</time>
      </trkpt>
      <trkpt lat="39.98836167" lon="-0.43783167">
        <ele>736.0</ele>
        <time>2017-05-27T06:33:17.159Z</time>
      </trkpt>
      <trkpt lat="39.98836167" lon="-0.43783167">
        <ele>736.0</ele>
        <time>2017-05-27T06:33:18.166Z</time>
      </trkpt>
      <trkpt lat="39.98836167" lon="-0.43783167">
        <ele>736.0</ele>
        <time>2017-05-27T06:33:19.182Z</time>
      </trkpt>
      <trkpt lat="39.98836167" lon="-0.43783167">
        <ele>736.0</ele>
        <time>2017-05-27T06:33:20.192Z</time>
      </trkpt>
      <trkpt lat="39.98836167" lon="-0.43783167">
        <ele>736.0</ele>
        <time>2017-05-27T06:33:21.179Z</time>
      </trkpt>
      <trkpt lat="39.98836167" lon="-0.43783167">
        <ele>736.0</ele>
        <time>2017-05-27T06:33:22.184Z</time>
      </trkpt>
      <trkpt lat="39.98836167" lon="-0.43783167">
        <ele>736.0</ele>
        <time>2017-05-27T06:33:23.176Z</time>
      </trkpt>
      <trkpt lat="39.98836167" lon="-0.43783167">
        <ele>736.0</ele>
        <time>2017-05-27T06:33:24.173Z</time>
      </trkpt>
      <trkpt lat="39.98836167" lon="-0.43783167">
        <ele>736.0</ele>
        <time>2017-05-27T06:33:25.180Z</time>
      </trkpt>
      <trkpt lat="39.98836167" lon="-0.43783167">
        <ele>736.0</ele>
        <time>2017-05-27T06:33:26.186Z</time>
      </trkpt>
      <trkpt lat="39.98836167" lon="-0.43783167">
        <ele>736.0</ele>
        <time>2017-05-27T06:33:27.193Z</time>
      </trkpt>
      <trkpt lat="39.98836167" lon="-0.43783167">
        <ele>736.0</ele>
        <time>2017-05-27T06:33:28.188Z</time>
      </trkpt>
      <trkpt lat="39.98836167" lon="-0.43783167">
        <ele>736.0</ele>
        <time>2017-05-27T06:33:29.161Z</time>
      </trkpt>
      <trkpt lat="39.98836167" lon="-0.43791">
        <ele>738.0</ele>
        <time>2017-05-27T06:33:30.194Z</time>
      </trkpt>
      <trkpt lat="39.98836167" lon="-0.43791">
        <ele>738.0</ele>
        <time>2017-05-27T06:33:31.190Z</time>
      </trkpt>
      <trkpt lat="39.98839833" lon="-0.43793167">
        <ele>738.0</ele>
        <time>2017-05-27T06:33:32.174Z</time>
      </trkpt>
      <trkpt lat="39.98839833" lon="-0.43793167">
        <ele>738.0</ele>
        <time>2017-05-27T06:33:33.180Z</time>
      </trkpt>
      <trkpt lat="39.98842833" lon="-0.43793667">
        <ele>738.0</ele>
        <time>2017-05-27T06:33:34.193Z</time>
      </trkpt>
      <trkpt lat="39.98843333" lon="-0.43793667">
        <ele>738.0</ele>
        <time>2017-05-27T06:33:35.166Z</time>
      </trkpt>
      <trkpt lat="39.98843333" lon="-0.43793667">
        <ele>738.0</ele>
        <time>2017-05-27T06:33:36.189Z</time>
      </trkpt>
      <trkpt lat="39.98844667" lon="-0.437945">
        <ele>738.0</ele>
        <time>2017-05-27T06:33:37.158Z</time>
      </trkpt>
      <trkpt lat="39.98845833" lon="-0.43795333">
        <ele>738.0</ele>
        <time>2017-05-27T06:33:38.161Z</time>
      </trkpt>
      <trkpt lat="39.98845833" lon="-0.43795333">
        <ele>738.0</ele>
        <time>2017-05-27T06:33:39.182Z</time>
      </trkpt>
      <trkpt lat="39.988475" lon="-0.43797333">
        <ele>738.0</ele>
        <time>2017-05-27T06:33:40.194Z</time>
      </trkpt>
      <trkpt lat="39.988475" lon="-0.43797333">
        <ele>738.0</ele>
        <time>2017-05-27T06:33:41.164Z</time>
      </trkpt>
      <trkpt lat="39.98847167" lon="-0.43800833">
        <ele>738.0</ele>
        <time>2017-05-27T06:33:42.174Z</time>
      </trkpt>
      <trkpt lat="39.988455" lon="-0.43801167">
        <ele>738.0</ele>
        <time>2017-05-27T06:33:43.190Z</time>
      </trkpt>
      <trkpt lat="39.98843667" lon="-0.43799833">
        <ele>738.0</ele>
        <time>2017-05-27T06:33:44.159Z</time>
      </trkpt>
      <trkpt lat="39.98843667" lon="-0.43799833">
        <ele>738.0</ele>
        <time>2017-05-27T06:33:45.184Z</time>
      </trkpt>
      <trkpt lat="39.988395" lon="-0.43793667">
        <ele>738.0</ele>
        <time>2017-05-27T06:33:46.192Z</time>
      </trkpt>
      <trkpt lat="39.988395" lon="-0.43793667">
        <ele>738.0</ele>
        <time>2017-05-27T06:33:47.168Z</time>
      </trkpt>
      <trkpt lat="39.98834333" lon="-0.43790667">
        <ele>738.0</ele>
        <time>2017-05-27T06:33:48.193Z</time>
      </trkpt>
      <trkpt lat="39.98834333" lon="-0.43790667">
        <ele>738.0</ele>
        <time>2017-05-27T06:33:49.162Z</time>
      </trkpt>
      <trkpt lat="39.98830667" lon="-0.43796167">
        <ele>737.0</ele>
        <time>2017-05-27T06:33:50.191Z</time>
      </trkpt>
      <trkpt lat="39.98830667" lon="-0.43796167">
        <ele>737.0</ele>
        <time>2017-05-27T06:33:51.165Z</time>
      </trkpt>
      <trkpt lat="39.98832" lon="-0.43805">
        <ele>737.0</ele>
        <time>2017-05-27T06:33:52.179Z</time>
      </trkpt>
      <trkpt lat="39.98832" lon="-0.43805">
        <ele>737.0</ele>
        <time>2017-05-27T06:33:53.193Z</time>
      </trkpt>
      <trkpt lat="39.98834167" lon="-0.43813667">
        <ele>737.0</ele>
        <time>2017-05-27T06:33:54.162Z</time>
      </trkpt>
      <trkpt lat="39.98834167" lon="-0.43813667">
        <ele>737.0</ele>
        <time>2017-05-27T06:33:55.170Z</time>
      </trkpt>
      <trkpt lat="39.988365" lon="-0.43821667">
        <ele>737.0</ele>
        <time>2017-05-27T06:33:56.187Z</time>
      </trkpt>
      <trkpt lat="39.988365" lon="-0.43821667">
        <ele>737.0</ele>
        <time>2017-05-27T06:33:57.186Z</time>
      </trkpt>
      <trkpt lat="39.98838333" lon="-0.43829">
        <ele>738.0</ele>
        <time>2017-05-27T06:33:58.157Z</time>
      </trkpt>
      <trkpt lat="39.98839167" lon="-0.43831833">
        <ele>738.0</ele>
        <time>2017-05-27T06:33:59.187Z</time>
      </trkpt>
      <trkpt lat="39.98839167" lon="-0.43831833">
        <ele>738.0</ele>
        <time>2017-05-27T06:34:00.160Z</time>
      </trkpt>
      <trkpt lat="39.98841167" lon="-0.43836667">
        <ele>738.0</ele>
        <time>2017-05-27T06:34:01.174Z</time>
      </trkpt>
      <trkpt lat="39.98842333" lon="-0.43838833">
        <ele>737.0</ele>
        <time>2017-05-27T06:34:02.189Z</time>
      </trkpt>
      <trkpt lat="39.98842333" lon="-0.43838833">
        <ele>737.0</ele>
        <time>2017-05-27T06:34:03.165Z</time>
      </trkpt>
      <trkpt lat="39.98845" lon="-0.438435">
        <ele>737.0</ele>
        <time>2017-05-27T06:34:04.174Z</time>
      </trkpt>
      <trkpt lat="39.988465" lon="-0.43845833">
        <ele>737.0</ele>
        <time>2017-05-27T06:34:05.193Z</time>
      </trkpt>
      <trkpt lat="39.988465" lon="-0.43845833">
        <ele>737.0</ele>
        <time>2017-05-27T06:34:06.166Z</time>
      </trkpt>
      <trkpt lat="39.98850167" lon="-0.43851">
        <ele>737.0</ele>
        <time>2017-05-27T06:34:07.177Z</time>
      </trkpt>
      <trkpt lat="39.98852167" lon="-0.43854833">
        <ele>737.0</ele>
        <time>2017-05-27T06:34:08.177Z</time>
      </trkpt>
      <trkpt lat="39.98852167" lon="-0.43854833">
        <ele>737.0</ele>
        <time>2017-05-27T06:34:09.189Z</time>
      </trkpt>
      <trkpt lat="39.98856833" lon="-0.43864167">
        <ele>736.0</ele>
        <time>2017-05-27T06:34:10.162Z</time>
      </trkpt>
      <trkpt lat="39.98856833" lon="-0.43864167">
        <ele>736.0</ele>
        <time>2017-05-27T06:34:11.172Z</time>
      </trkpt>
      <trkpt lat="39.98861833" lon="-0.43876">
        <ele>736.0</ele>
        <time>2017-05-27T06:34:12.190Z</time>
      </trkpt>
      <trkpt lat="39.98864333" lon="-0.43882833">
        <ele>736.0</ele>
        <time>2017-05-27T06:34:13.179Z</time>
      </trkpt>
      <trkpt lat="39.98864333" lon="-0.43882833">
        <ele>736.0</ele>
        <time>2017-05-27T06:34:14.185Z</time>
      </trkpt>
      <trkpt lat="39.988705" lon="-0.43897333">
        <ele>736.0</ele>
        <time>2017-05-27T06:34:15.197Z</time>
      </trkpt>
      <trkpt lat="39.988705" lon="-0.43897333">
        <ele>736.0</ele>
        <time>2017-05-27T06:34:16.156Z</time>
      </trkpt>
      <trkpt lat="39.98879" lon="-0.43911833">
        <ele>735.0</ele>
        <time>2017-05-27T06:34:17.196Z</time>
      </trkpt>
      <trkpt lat="39.98879" lon="-0.43911833">
        <ele>735.0</ele>
        <time>2017-05-27T06:34:18.183Z</time>
      </trkpt>
      <trkpt lat="39.98887167" lon="-0.43928333">
        <ele>735.0</ele>
        <time>2017-05-27T06:34:19.196Z</time>
      </trkpt>
      <trkpt lat="39.98890167" lon="-0.439365">
        <ele>735.0</ele>
        <time>2017-05-27T06:34:20.188Z</time>
      </trkpt>
      <trkpt lat="39.98890167" lon="-0.439365">
        <ele>735.0</ele>
        <time>2017-05-27T06:34:21.167Z</time>
      </trkpt>
      <trkpt lat="39.98894" lon="-0.43954">
        <ele>734.0</ele>
        <time>2017-05-27T06:34:22.177Z</time>
      </trkpt>
      <trkpt lat="39.98892333" lon="-0.43962167">
        <ele>734.0</ele>
        <time>2017-05-27T06:34:23.162Z</time>
      </trkpt>
      <trkpt lat="39.98892333" lon="-0.43962167">
        <ele>734.0</ele>
        <time>2017-05-27T06:34:24.193Z</time>
      </trkpt>
      <trkpt lat="39.98887833" lon="-0.439765">
        <ele>733.0</ele>
        <time>2017-05-27T06:34:25.165Z</time>
      </trkpt>
      <trkpt lat="39.98887833" lon="-0.43984167">
        <ele>732.0</ele>
        <time>2017-05-27T06:34:26.174Z</time>
      </trkpt>
      <trkpt lat="39.98887833" lon="-0.43984167">
        <ele>732.0</ele>
        <time>2017-05-27T06:34:27.156Z</time>
      </trkpt>
      <trkpt lat="39.988965" lon="-0.43997167">
        <ele>732.0</ele>
        <time>2017-05-27T06:34:28.173Z</time>
      </trkpt>
      <trkpt lat="39.98902833" lon="-0.439995">
        <ele>732.0</ele>
        <time>2017-05-27T06:34:29.174Z</time>
      </trkpt>
      <trkpt lat="39.98902833" lon="-0.439995">
        <ele>732.0</ele>
        <time>2017-05-27T06:34:30.184Z</time>
      </trkpt>
      <trkpt lat="39.989155" lon="-0.44000167">
        <ele>731.0</ele>
        <time>2017-05-27T06:34:31.156Z</time>
      </trkpt>
      <trkpt lat="39.989155" lon="-0.44000167">
        <ele>731.0</ele>
        <time>2017-05-27T06:34:32.171Z</time>
      </trkpt>
      <trkpt lat="39.98927333" lon="-0.43998167">
        <ele>731.0</ele>
        <time>2017-05-27T06:34:33.184Z</time>
      </trkpt>
      <trkpt lat="39.98932833" lon="-0.43997">
        <ele>731.0</ele>
        <time>2017-05-27T06:34:34.197Z</time>
      </trkpt>
      <trkpt lat="39.98932833" lon="-0.43997">
        <ele>731.0</ele>
        <time>2017-05-27T06:34:35.164Z</time>
      </trkpt>
      <trkpt lat="39.98941667" lon="-0.43993333">
        <ele>732.0</ele>
        <time>2017-05-27T06:34:36.177Z</time>
      </trkpt>
      <trkpt lat="39.98945333" lon="-0.439915">
        <ele>732.0</ele>
        <time>2017-05-27T06:34:37.193Z</time>
      </trkpt>
      <trkpt lat="39.98945333" lon="-0.439915">
        <ele>732.0</ele>
        <time>2017-05-27T06:34:38.163Z</time>
      </trkpt>
      <trkpt lat="39.98952167" lon="-0.43989833">
        <ele>732.0</ele>
        <time>2017-05-27T06:34:39.164Z</time>
      </trkpt>
      <trkpt lat="39.98952167" lon="-0.43989833">
        <ele>732.0</ele>
        <time>2017-05-27T06:34:40.175Z</time>
      </trkpt>
      <trkpt lat="39.989585" lon="-0.43987667">
        <ele>732.0</ele>
        <time>2017-05-27T06:34:41.187Z</time>
      </trkpt>
      <trkpt lat="39.989585" lon="-0.43987667">
        <ele>732.0</ele>
        <time>2017-05-27T06:34:42.157Z</time>
      </trkpt>
      <trkpt lat="39.98965333" lon="-0.43986167">
        <ele>732.0</ele>
        <time>2017-05-27T06:34:43.178Z</time>
      </trkpt>
      <trkpt lat="39.98965333" lon="-0.43986167">
        <ele>732.0</ele>
        <time>2017-05-27T06:34:44.186Z</time>
      </trkpt>
      <trkpt lat="39.98972333" lon="-0.43986333">
        <ele>732.0</ele>
        <time>2017-05-27T06:34:45.170Z</time>
      </trkpt>
      <trkpt lat="39.989755" lon="-0.43986667">
        <ele>732.0</ele>
        <time>2017-05-27T06:34:46.175Z</time>
      </trkpt>
      <trkpt lat="39.98978833" lon="-0.43987167">
        <ele>732.0</ele>
        <time>2017-05-27T06:34:47.174Z</time>
      </trkpt>
      <trkpt lat="39.98978833" lon="-0.43987167">
        <ele>732.0</ele>
        <time>2017-05-27T06:34:48.156Z</time>
      </trkpt>
      <trkpt lat="39.98985333" lon="-0.43988833">
        <ele>733.0</ele>
        <time>2017-05-27T06:34:49.170Z</time>
      </trkpt>
      <trkpt lat="39.989885" lon="-0.43990333">
        <ele>733.0</ele>
        <time>2017-05-27T06:34:50.194Z</time>
      </trkpt>
      <trkpt lat="39.989885" lon="-0.43990333">
        <ele>733.0</ele>
        <time>2017-05-27T06:34:51.172Z</time>
      </trkpt>
      <trkpt lat="39.98994833" lon="-0.43993167">
        <ele>734.0</ele>
        <time>2017-05-27T06:34:52.181Z</time>
      </trkpt>
      <trkpt lat="39.98994833" lon="-0.43993167">
        <ele>734.0</ele>
        <time>2017-05-27T06:34:53.192Z</time>
      </trkpt>
      <trkpt lat="39.99000833" lon="-0.43996">
        <ele>734.0</ele>
        <time>2017-05-27T06:34:54.164Z</time>
      </trkpt>
      <trkpt lat="39.99000833" lon="-0.43996">
        <ele>734.0</ele>
        <time>2017-05-27T06:34:55.191Z</time>
      </trkpt>
      <trkpt lat="39.99007" lon="-0.43999333">
        <ele>734.0</ele>
        <time>2017-05-27T06:34:56.165Z</time>
      </trkpt>
      <trkpt lat="39.99007" lon="-0.43999333">
        <ele>734.0</ele>
        <time>2017-05-27T06:34:57.171Z</time>
      </trkpt>
      <trkpt lat="39.99013167" lon="-0.44003167">
        <ele>735.0</ele>
        <time>2017-05-27T06:34:58.180Z</time>
      </trkpt>
      <trkpt lat="39.99016" lon="-0.44005167">
        <ele>735.0</ele>
        <time>2017-05-27T06:34:59.173Z</time>
      </trkpt>
      <trkpt lat="39.990185" lon="-0.44007">
        <ele>735.0</ele>
        <time>2017-05-27T06:35:00.157Z</time>
      </trkpt>
      <trkpt lat="39.990185" lon="-0.44007">
        <ele>735.0</ele>
        <time>2017-05-27T06:35:01.159Z</time>
      </trkpt>
      <trkpt lat="39.99023833" lon="-0.44011">
        <ele>736.0</ele>
        <time>2017-05-27T06:35:02.176Z</time>
      </trkpt>
      <trkpt lat="39.99023833" lon="-0.44011">
        <ele>736.0</ele>
        <time>2017-05-27T06:35:03.196Z</time>
      </trkpt>
      <trkpt lat="39.99028667" lon="-0.440175">
        <ele>736.0</ele>
        <time>2017-05-27T06:35:04.179Z</time>
      </trkpt>
      <trkpt lat="39.99030667" lon="-0.44021">
        <ele>737.0</ele>
        <time>2017-05-27T06:35:05.181Z</time>
      </trkpt>
      <trkpt lat="39.99030667" lon="-0.44021">
        <ele>737.0</ele>
        <time>2017-05-27T06:35:06.190Z</time>
      </trkpt>
      <trkpt lat="39.99035333" lon="-0.44028333">
        <ele>737.0</ele>
        <time>2017-05-27T06:35:07.158Z</time>
      </trkpt>
      <trkpt lat="39.99037167" lon="-0.44032333">
        <ele>738.0</ele>
        <time>2017-05-27T06:35:08.187Z</time>
      </trkpt>
      <trkpt lat="39.99037167" lon="-0.44032333">
        <ele>738.0</ele>
        <time>2017-05-27T06:35:09.177Z</time>
      </trkpt>
      <trkpt lat="39.99039833" lon="-0.44041667">
        <ele>738.0</ele>
        <time>2017-05-27T06:35:10.195Z</time>
      </trkpt>
      <trkpt lat="39.99040833" lon="-0.440465">
        <ele>739.0</ele>
        <time>2017-05-27T06:35:11.192Z</time>
      </trkpt>
      <trkpt lat="39.99041667" lon="-0.440515">
        <ele>739.0</ele>
        <time>2017-05-27T06:35:12.191Z</time>
      </trkpt>
      <trkpt lat="39.99041667" lon="-0.440515">
        <ele>739.0</ele>
        <time>2017-05-27T06:35:13.184Z</time>
      </trkpt>
      <trkpt lat="39.99042667" lon="-0.44061667">
        <ele>739.0</ele>
        <time>2017-05-27T06:35:14.159Z</time>
      </trkpt>
      <trkpt lat="39.99042667" lon="-0.44061667">
        <ele>739.0</ele>
        <time>2017-05-27T06:35:15.172Z</time>
      </trkpt>
      <trkpt lat="39.99043333" lon="-0.44072333">
        <ele>740.0</ele>
        <time>2017-05-27T06:35:16.193Z</time>
      </trkpt>
      <trkpt lat="39.99043333" lon="-0.44072333">
        <ele>740.0</ele>
        <time>2017-05-27T06:35:17.158Z</time>
      </trkpt>
      <trkpt lat="39.99043333" lon="-0.44083667">
        <ele>740.0</ele>
        <time>2017-05-27T06:35:18.180Z</time>
      </trkpt>
      <trkpt lat="39.99043333" lon="-0.44083667">
        <ele>740.0</ele>
        <time>2017-05-27T06:35:19.195Z</time>
      </trkpt>
      <trkpt lat="39.99043833" lon="-0.44095">
        <ele>740.0</ele>
        <time>2017-05-27T06:35:20.173Z</time>
      </trkpt>
      <trkpt lat="39.99044333" lon="-0.44100833">
        <ele>740.0</ele>
        <time>2017-05-27T06:35:21.158Z</time>
      </trkpt>
      <trkpt lat="39.99044333" lon="-0.44100833">
        <ele>740.0</ele>
        <time>2017-05-27T06:35:22.183Z</time>
      </trkpt>
      <trkpt lat="39.99045833" lon="-0.44112167">
        <ele>740.0</ele>
        <time>2017-05-27T06:35:23.194Z</time>
      </trkpt>
      <trkpt lat="39.99045833" lon="-0.44112167">
        <ele>740.0</ele>
        <time>2017-05-27T06:35:24.162Z</time>
      </trkpt>
      <trkpt lat="39.99048167" lon="-0.44123167">
        <ele>739.0</ele>
        <time>2017-05-27T06:35:25.232Z</time>
      </trkpt>
      <trkpt lat="39.99049333" lon="-0.441285">
        <ele>739.0</ele>
        <time>2017-05-27T06:35:26.166Z</time>
      </trkpt>
      <trkpt lat="39.99049333" lon="-0.441285">
        <ele>739.0</ele>
        <time>2017-05-27T06:35:27.162Z</time>
      </trkpt>
      <trkpt lat="39.99051833" lon="-0.44139">
        <ele>739.0</ele>
        <time>2017-05-27T06:35:28.171Z</time>
      </trkpt>
      <trkpt lat="39.99053167" lon="-0.44144167">
        <ele>739.0</ele>
        <time>2017-05-27T06:35:29.190Z</time>
      </trkpt>
      <trkpt lat="39.99053167" lon="-0.44144167">
        <ele>739.0</ele>
        <time>2017-05-27T06:35:30.172Z</time>
      </trkpt>
      <trkpt lat="39.99056333" lon="-0.44154167">
        <ele>739.0</ele>
        <time>2017-05-27T06:35:31.187Z</time>
      </trkpt>
      <trkpt lat="39.99056333" lon="-0.44154167">
        <ele>739.0</ele>
        <time>2017-05-27T06:35:32.196Z</time>
      </trkpt>
      <trkpt lat="39.99058667" lon="-0.441645">
        <ele>738.0</ele>
        <time>2017-05-27T06:35:33.179Z</time>
      </trkpt>
      <trkpt lat="39.99059333" lon="-0.44170167">
        <ele>738.0</ele>
        <time>2017-05-27T06:35:34.168Z</time>
      </trkpt>
      <trkpt lat="39.99059333" lon="-0.44170167">
        <ele>738.0</ele>
        <time>2017-05-27T06:35:35.194Z</time>
      </trkpt>
      <trkpt lat="39.9906" lon="-0.44181333">
        <ele>738.0</ele>
        <time>2017-05-27T06:35:36.163Z</time>
      </trkpt>
      <trkpt lat="39.99060333" lon="-0.44187333">
        <ele>738.0</ele>
        <time>2017-05-27T06:35:37.185Z</time>
      </trkpt>
      <trkpt lat="39.99060333" lon="-0.44187333">
        <ele>738.0</ele>
        <time>2017-05-27T06:35:38.159Z</time>
      </trkpt>
      <trkpt lat="39.99060667" lon="-0.442">
        <ele>738.0</ele>
        <time>2017-05-27T06:35:39.160Z</time>
      </trkpt>
      <trkpt lat="39.99060667" lon="-0.442">
        <ele>738.0</ele>
        <time>2017-05-27T06:35:40.183Z</time>
      </trkpt>
      <trkpt lat="39.99058333" lon="-0.44212167">
        <ele>738.0</ele>
        <time>2017-05-27T06:35:41.193Z</time>
      </trkpt>
      <trkpt lat="39.99058333" lon="-0.44212167">
        <ele>738.0</ele>
        <time>2017-05-27T06:35:42.184Z</time>
      </trkpt>
      <trkpt lat="39.99055" lon="-0.44223833">
        <ele>737.0</ele>
        <time>2017-05-27T06:35:43.194Z</time>
      </trkpt>
      <trkpt lat="39.99052667" lon="-0.44229667">
        <ele>737.0</ele>
        <time>2017-05-27T06:35:44.174Z</time>
      </trkpt>
      <trkpt lat="39.99052667" lon="-0.44229667">
        <ele>737.0</ele>
        <time>2017-05-27T06:35:45.158Z</time>
      </trkpt>
      <trkpt lat="39.99046333" lon="-0.442395">
        <ele>737.0</ele>
        <time>2017-05-27T06:35:46.189Z</time>
      </trkpt>
      <trkpt lat="39.99046333" lon="-0.442395">
        <ele>737.0</ele>
        <time>2017-05-27T06:35:47.171Z</time>
      </trkpt>
      <trkpt lat="39.99038833" lon="-0.44248667">
        <ele>736.0</ele>
        <time>2017-05-27T06:35:48.190Z</time>
      </trkpt>
      <trkpt lat="39.99038833" lon="-0.44248667">
        <ele>736.0</ele>
        <time>2017-05-27T06:35:49.159Z</time>
      </trkpt>
      <trkpt lat="39.99031333" lon="-0.44257833">
        <ele>736.0</ele>
        <time>2017-05-27T06:35:50.174Z</time>
      </trkpt>
      <trkpt lat="39.99031333" lon="-0.44257833">
        <ele>736.0</ele>
        <time>2017-05-27T06:35:51.180Z</time>
      </trkpt>
      <trkpt lat="39.99023667" lon="-0.44266667">
        <ele>735.0</ele>
        <time>2017-05-27T06:35:52.189Z</time>
      </trkpt>
      <trkpt lat="39.99019833" lon="-0.44271167">
        <ele>735.0</ele>
        <time>2017-05-27T06:35:53.181Z</time>
      </trkpt>
      <trkpt lat="39.99019833" lon="-0.44271167">
        <ele>735.0</ele>
        <time>2017-05-27T06:35:54.194Z</time>
      </trkpt>
      <trkpt lat="39.99011833" lon="-0.44279333">
        <ele>735.0</ele>
        <time>2017-05-27T06:35:55.169Z</time>
      </trkpt>
      <trkpt lat="39.99008" lon="-0.44283333">
        <ele>735.0</ele>
        <time>2017-05-27T06:35:56.160Z</time>
      </trkpt>
      <trkpt lat="39.99008" lon="-0.44283333">
        <ele>735.0</ele>
        <time>2017-05-27T06:35:57.172Z</time>
      </trkpt>
      <trkpt lat="39.99001167" lon="-0.44291833">
        <ele>735.0</ele>
        <time>2017-05-27T06:35:58.185Z</time>
      </trkpt>
      <trkpt lat="39.99001167" lon="-0.44291833">
        <ele>735.0</ele>
        <time>2017-05-27T06:35:59.157Z</time>
      </trkpt>
      <trkpt lat="39.98994667" lon="-0.44300167">
        <ele>735.0</ele>
        <time>2017-05-27T06:36:00.187Z</time>
      </trkpt>
      <trkpt lat="39.98994667" lon="-0.44300167">
        <ele>735.0</ele>
        <time>2017-05-27T06:36:01.187Z</time>
      </trkpt>
      <trkpt lat="39.989895" lon="-0.443065">
        <ele>734.0</ele>
        <time>2017-05-27T06:36:02.159Z</time>
      </trkpt>
      <trkpt lat="39.98987" lon="-0.44309">
        <ele>734.0</ele>
        <time>2017-05-27T06:36:03.189Z</time>
      </trkpt>
      <trkpt lat="39.98987" lon="-0.44309">
        <ele>734.0</ele>
        <time>2017-05-27T06:36:04.168Z</time>
      </trkpt>
      <trkpt lat="39.989815" lon="-0.44316333">
        <ele>734.0</ele>
        <time>2017-05-27T06:36:05.180Z</time>
      </trkpt>
      <trkpt lat="39.989815" lon="-0.44316333">
        <ele>734.0</ele>
        <time>2017-05-27T06:36:06.192Z</time>
      </trkpt>
      <trkpt lat="39.98976833" lon="-0.44325167">
        <ele>734.0</ele>
        <time>2017-05-27T06:36:07.163Z</time>
      </trkpt>
      <trkpt lat="39.98975167" lon="-0.44330167">
        <ele>733.0</ele>
        <time>2017-05-27T06:36:08.156Z</time>
      </trkpt>
      <trkpt lat="39.98975167" lon="-0.44330167">
        <ele>733.0</ele>
        <time>2017-05-27T06:36:09.185Z</time>
      </trkpt>
      <trkpt lat="39.98972" lon="-0.44339">
        <ele>733.0</ele>
        <time>2017-05-27T06:36:10.159Z</time>
      </trkpt>
      <trkpt lat="39.98972" lon="-0.44339">
        <ele>733.0</ele>
        <time>2017-05-27T06:36:11.172Z</time>
      </trkpt>
      <trkpt lat="39.98967833" lon="-0.443475">
        <ele>733.0</ele>
        <time>2017-05-27T06:36:12.157Z</time>
      </trkpt>
      <trkpt lat="39.98967833" lon="-0.443475">
        <ele>733.0</ele>
        <time>2017-05-27T06:36:13.174Z</time>
      </trkpt>
      <trkpt lat="39.98962167" lon="-0.44355">
        <ele>732.0</ele>
        <time>2017-05-27T06:36:14.196Z</time>
      </trkpt>
      <trkpt lat="39.98962167" lon="-0.44355">
        <ele>732.0</ele>
        <time>2017-05-27T06:36:15.181Z</time>
      </trkpt>
      <trkpt lat="39.98955833" lon="-0.44361833">
        <ele>732.0</ele>
        <time>2017-05-27T06:36:16.192Z</time>
      </trkpt>
      <trkpt lat="39.98952667" lon="-0.44365167">
        <ele>732.0</ele>
        <time>2017-05-27T06:36:17.189Z</time>
      </trkpt>
      <trkpt lat="39.989495" lon="-0.44369">
        <ele>732.0</ele>
        <time>2017-05-27T06:36:18.158Z</time>
      </trkpt>
      <trkpt lat="39.989495" lon="-0.44369">
        <ele>732.0</ele>
        <time>2017-05-27T06:36:19.168Z</time>
      </trkpt>
      <trkpt lat="39.989435" lon="-0.44376167">
        <ele>731.0</ele>
        <time>2017-05-27T06:36:20.189Z</time>
      </trkpt>
      <trkpt lat="39.9894" lon="-0.44379667">
        <ele>731.0</ele>
        <time>2017-05-27T06:36:21.191Z</time>
      </trkpt>
      <trkpt lat="39.9894" lon="-0.44379667">
        <ele>731.0</ele>
        <time>2017-05-27T06:36:22.161Z</time>
      </trkpt>
      <trkpt lat="39.98932667" lon="-0.44388">
        <ele>730.0</ele>
        <time>2017-05-27T06:36:23.162Z</time>
      </trkpt>
      <trkpt lat="39.98932667" lon="-0.44388">
        <ele>730.0</ele>
        <time>2017-05-27T06:36:24.161Z</time>
      </trkpt>
      <trkpt lat="39.98925833" lon="-0.44396833">
        <ele>730.0</ele>
        <time>2017-05-27T06:36:25.171Z</time>
      </trkpt>
      <trkpt lat="39.98925833" lon="-0.44396833">
        <ele>730.0</ele>
        <time>2017-05-27T06:36:26.161Z</time>
      </trkpt>
      <trkpt lat="39.989225" lon="-0.44407667">
        <ele>729.0</ele>
        <time>2017-05-27T06:36:27.161Z</time>
      </trkpt>
      <trkpt lat="39.98921833" lon="-0.444135">
        <ele>729.0</ele>
        <time>2017-05-27T06:36:28.171Z</time>
      </trkpt>
      <trkpt lat="39.989215" lon="-0.444195">
        <ele>729.0</ele>
        <time>2017-05-27T06:36:29.189Z</time>
      </trkpt>
      <trkpt lat="39.989215" lon="-0.444195">
        <ele>729.0</ele>
        <time>2017-05-27T06:36:30.160Z</time>
      </trkpt>
      <trkpt lat="39.98921667" lon="-0.44431">
        <ele>729.0</ele>
        <time>2017-05-27T06:36:31.194Z</time>
      </trkpt>
      <trkpt lat="39.989235" lon="-0.44435167">
        <ele>729.0</ele>
        <time>2017-05-27T06:36:32.192Z</time>
      </trkpt>
      <trkpt lat="39.989235" lon="-0.44435167">
        <ele>729.0</ele>
        <time>2017-05-27T06:36:33.165Z</time>
      </trkpt>
      <trkpt lat="39.98928" lon="-0.44442167">
        <ele>729.0</ele>
        <time>2017-05-27T06:36:34.195Z</time>
      </trkpt>
      <trkpt lat="39.98930333" lon="-0.44445167">
        <ele>730.0</ele>
        <time>2017-05-27T06:36:35.173Z</time>
      </trkpt>
      <trkpt lat="39.98930333" lon="-0.44445167">
        <ele>730.0</ele>
        <time>2017-05-27T06:36:36.182Z</time>
      </trkpt>
      <trkpt lat="39.98935" lon="-0.44451">
        <ele>730.0</ele>
        <time>2017-05-27T06:36:37.193Z</time>
      </trkpt>
      <trkpt lat="39.98937" lon="-0.44454333">
        <ele>730.0</ele>
        <time>2017-05-27T06:36:38.189Z</time>
      </trkpt>
      <trkpt lat="39.98939333" lon="-0.444575">
        <ele>730.0</ele>
        <time>2017-05-27T06:36:39.183Z</time>
      </trkpt>
      <trkpt lat="39.98939333" lon="-0.444575">
        <ele>730.0</ele>
        <time>2017-05-27T06:36:40.156Z</time>
      </trkpt>
      <trkpt lat="39.98944333" lon="-0.44462333">
        <ele>731.0</ele>
        <time>2017-05-27T06:36:41.179Z</time>
      </trkpt>
      <trkpt lat="39.98946833" lon="-0.44464333">
        <ele>731.0</ele>
        <time>2017-05-27T06:36:42.176Z</time>
      </trkpt>
      <trkpt lat="39.98949333" lon="-0.44466667">
        <ele>731.0</ele>
        <time>2017-05-27T06:36:43.189Z</time>
      </trkpt>
      <trkpt lat="39.98949333" lon="-0.44466667">
        <ele>731.0</ele>
        <time>2017-05-27T06:36:44.161Z</time>
      </trkpt>
      <trkpt lat="39.98954333" lon="-0.44471667">
        <ele>732.0</ele>
        <time>2017-05-27T06:36:45.174Z</time>
      </trkpt>
      <trkpt lat="39.98957" lon="-0.44473833">
        <ele>732.0</ele>
        <time>2017-05-27T06:36:46.186Z</time>
      </trkpt>
      <trkpt lat="39.989595" lon="-0.44475833">
        <ele>732.0</ele>
        <time>2017-05-27T06:36:47.157Z</time>
      </trkpt>
      <trkpt lat="39.989595" lon="-0.44475833">
        <ele>732.0</ele>
        <time>2017-05-27T06:36:48.172Z</time>
      </trkpt>
      <trkpt lat="39.98964333" lon="-0.444805">
        <ele>732.0</ele>
        <time>2017-05-27T06:36:49.174Z</time>
      </trkpt>
      <trkpt lat="39.98964333" lon="-0.444805">
        <ele>732.0</ele>
        <time>2017-05-27T06:36:50.195Z</time>
      </trkpt>
      <trkpt lat="39.98968667" lon="-0.44485667">
        <ele>732.0</ele>
        <time>2017-05-27T06:36:51.171Z</time>
      </trkpt>
      <trkpt lat="39.989705" lon="-0.44488667">
        <ele>733.0</ele>
        <time>2017-05-27T06:36:52.187Z</time>
      </trkpt>
      <trkpt lat="39.98972" lon="-0.44491833">
        <ele>733.0</ele>
        <time>2017-05-27T06:36:53.161Z</time>
      </trkpt>
      <trkpt lat="39.98972" lon="-0.44491833">
        <ele>733.0</ele>
        <time>2017-05-27T06:36:54.171Z</time>
      </trkpt>
      <trkpt lat="39.98975167" lon="-0.44499">
        <ele>733.0</ele>
        <time>2017-05-27T06:36:55.200Z</time>
      </trkpt>
      <trkpt lat="39.98975167" lon="-0.44499">
        <ele>733.0</ele>
        <time>2017-05-27T06:36:56.164Z</time>
      </trkpt>
      <trkpt lat="39.98977833" lon="-0.44506667">
        <ele>734.0</ele>
        <time>2017-05-27T06:36:57.183Z</time>
      </trkpt>
      <trkpt lat="39.98979" lon="-0.44510667">
        <ele>734.0</ele>
        <time>2017-05-27T06:36:58.191Z</time>
      </trkpt>
      <trkpt lat="39.98979" lon="-0.44510667">
        <ele>734.0</ele>
        <time>2017-05-27T06:36:59.158Z</time>
      </trkpt>
      <trkpt lat="39.989805" lon="-0.445195">
        <ele>735.0</ele>
        <time>2017-05-27T06:37:00.182Z</time>
      </trkpt>
      <trkpt lat="39.989805" lon="-0.445195">
        <ele>735.0</ele>
        <time>2017-05-27T06:37:01.195Z</time>
      </trkpt>
      <trkpt lat="39.98981667" lon="-0.44529667">
        <ele>736.0</ele>
        <time>2017-05-27T06:37:02.177Z</time>
      </trkpt>
      <trkpt lat="39.98981667" lon="-0.44529667">
        <ele>736.0</ele>
        <time>2017-05-27T06:37:03.192Z</time>
      </trkpt>
      <trkpt lat="39.98983167" lon="-0.44538833">
        <ele>736.0</ele>
        <time>2017-05-27T06:37:04.161Z</time>
      </trkpt>
      <trkpt lat="39.98984" lon="-0.44543">
        <ele>737.0</ele>
        <time>2017-05-27T06:37:05.174Z</time>
      </trkpt>
      <trkpt lat="39.98984" lon="-0.44543">
        <ele>737.0</ele>
        <time>2017-05-27T06:37:06.190Z</time>
      </trkpt>
      <trkpt lat="39.98985667" lon="-0.44551667">
        <ele>737.0</ele>
        <time>2017-05-27T06:37:07.181Z</time>
      </trkpt>
      <trkpt lat="39.98985667" lon="-0.44551667">
        <ele>737.0</ele>
        <time>2017-05-27T06:37:08.161Z</time>
      </trkpt>
      <trkpt lat="39.98987667" lon="-0.44560167">
        <ele>738.0</ele>
        <time>2017-05-27T06:37:09.169Z</time>
      </trkpt>
      <trkpt lat="39.98987667" lon="-0.44560167">
        <ele>738.0</ele>
        <time>2017-05-27T06:37:10.190Z</time>
      </trkpt>
      <trkpt lat="39.98989667" lon="-0.44568333">
        <ele>738.0</ele>
        <time>2017-05-27T06:37:11.184Z</time>
      </trkpt>
      <trkpt lat="39.98989667" lon="-0.44568333">
        <ele>738.0</ele>
        <time>2017-05-27T06:37:12.195Z</time>
      </trkpt>
      <trkpt lat="39.989925" lon="-0.44575667">
        <ele>739.0</ele>
        <time>2017-05-27T06:37:13.161Z</time>
      </trkpt>
      <trkpt lat="39.989925" lon="-0.44575667">
        <ele>739.0</ele>
        <time>2017-05-27T06:37:14.171Z</time>
      </trkpt>
      <trkpt lat="39.98996" lon="-0.44582333">
        <ele>739.0</ele>
        <time>2017-05-27T06:37:15.185Z</time>
      </trkpt>
      <trkpt lat="39.98996" lon="-0.44582333">
        <ele>739.0</ele>
        <time>2017-05-27T06:37:16.189Z</time>
      </trkpt>
      <trkpt lat="39.99000167" lon="-0.44588">
        <ele>740.0</ele>
        <time>2017-05-27T06:37:17.161Z</time>
      </trkpt>
      <trkpt lat="39.99001833" lon="-0.44590833">
        <ele>740.0</ele>
        <time>2017-05-27T06:37:18.158Z</time>
      </trkpt>
      <trkpt lat="39.99001833" lon="-0.44590833">
        <ele>740.0</ele>
        <time>2017-05-27T06:37:19.194Z</time>
      </trkpt>
      <trkpt lat="39.990045" lon="-0.44597667">
        <ele>740.0</ele>
        <time>2017-05-27T06:37:20.170Z</time>
      </trkpt>
      <trkpt lat="39.990045" lon="-0.44597667">
        <ele>740.0</ele>
        <time>2017-05-27T06:37:21.190Z</time>
      </trkpt>
      <trkpt lat="39.99008833" lon="-0.446035">
        <ele>741.0</ele>
        <time>2017-05-27T06:37:22.172Z</time>
      </trkpt>
      <trkpt lat="39.99010667" lon="-0.44607">
        <ele>741.0</ele>
        <time>2017-05-27T06:37:23.163Z</time>
      </trkpt>
      <trkpt lat="39.99010667" lon="-0.44607">
        <ele>741.0</ele>
        <time>2017-05-27T06:37:24.173Z</time>
      </trkpt>
      <trkpt lat="39.99014" lon="-0.44613667">
        <ele>742.0</ele>
        <time>2017-05-27T06:37:25.181Z</time>
      </trkpt>
      <trkpt lat="39.99014" lon="-0.44613667">
        <ele>742.0</ele>
        <time>2017-05-27T06:37:26.189Z</time>
      </trkpt>
      <trkpt lat="39.99017333" lon="-0.4462">
        <ele>742.0</ele>
        <time>2017-05-27T06:37:27.198Z</time>
      </trkpt>
      <trkpt lat="39.99017333" lon="-0.4462">
        <ele>742.0</ele>
        <time>2017-05-27T06:37:28.173Z</time>
      </trkpt>
      <trkpt lat="39.99020333" lon="-0.44626333">
        <ele>743.0</ele>
        <time>2017-05-27T06:37:29.184Z</time>
      </trkpt>
      <trkpt lat="39.99020333" lon="-0.44626333">
        <ele>743.0</ele>
        <time>2017-05-27T06:37:30.191Z</time>
      </trkpt>
      <trkpt lat="39.99023333" lon="-0.44633167">
        <ele>744.0</ele>
        <time>2017-05-27T06:37:31.169Z</time>
      </trkpt>
      <trkpt lat="39.99023333" lon="-0.44633167">
        <ele>744.0</ele>
        <time>2017-05-27T06:37:32.163Z</time>
      </trkpt>
      <trkpt lat="39.990255" lon="-0.446405">
        <ele>744.0</ele>
        <time>2017-05-27T06:37:33.173Z</time>
      </trkpt>
      <trkpt lat="39.990265" lon="-0.446445">
        <ele>744.0</ele>
        <time>2017-05-27T06:37:34.157Z</time>
      </trkpt>
      <trkpt lat="39.990265" lon="-0.446445">
        <ele>744.0</ele>
        <time>2017-05-27T06:37:35.192Z</time>
      </trkpt>
      <trkpt lat="39.990285" lon="-0.44651667">
        <ele>745.0</ele>
        <time>2017-05-27T06:37:36.189Z</time>
      </trkpt>
      <trkpt lat="39.990285" lon="-0.44651667">
        <ele>745.0</ele>
        <time>2017-05-27T06:37:37.173Z</time>
      </trkpt>
      <trkpt lat="39.99031333" lon="-0.44658667">
        <ele>745.0</ele>
        <time>2017-05-27T06:37:38.188Z</time>
      </trkpt>
      <trkpt lat="39.99032667" lon="-0.446625">
        <ele>746.0</ele>
        <time>2017-05-27T06:37:39.167Z</time>
      </trkpt>
      <trkpt lat="39.99032667" lon="-0.446625">
        <ele>746.0</ele>
        <time>2017-05-27T06:37:40.187Z</time>
      </trkpt>
      <trkpt lat="39.99034667" lon="-0.446705">
        <ele>746.0</ele>
        <time>2017-05-27T06:37:41.170Z</time>
      </trkpt>
      <trkpt lat="39.99034667" lon="-0.446705">
        <ele>746.0</ele>
        <time>2017-05-27T06:37:42.159Z</time>
      </trkpt>
      <trkpt lat="39.99037167" lon="-0.44679">
        <ele>747.0</ele>
        <time>2017-05-27T06:37:43.165Z</time>
      </trkpt>
      <trkpt lat="39.99037167" lon="-0.44679">
        <ele>747.0</ele>
        <time>2017-05-27T06:37:44.194Z</time>
      </trkpt>
      <trkpt lat="39.99039833" lon="-0.446875">
        <ele>748.0</ele>
        <time>2017-05-27T06:37:45.188Z</time>
      </trkpt>
      <trkpt lat="39.99040667" lon="-0.446915">
        <ele>748.0</ele>
        <time>2017-05-27T06:37:46.183Z</time>
      </trkpt>
      <trkpt lat="39.99040667" lon="-0.446915">
        <ele>748.0</ele>
        <time>2017-05-27T06:37:47.188Z</time>
      </trkpt>
      <trkpt lat="39.99041667" lon="-0.446995">
        <ele>750.0</ele>
        <time>2017-05-27T06:37:48.163Z</time>
      </trkpt>
      <trkpt lat="39.99042167" lon="-0.447035">
        <ele>751.0</ele>
        <time>2017-05-27T06:37:49.176Z</time>
      </trkpt>
      <trkpt lat="39.99042167" lon="-0.447035">
        <ele>751.0</ele>
        <time>2017-05-27T06:37:50.192Z</time>
      </trkpt>
      <trkpt lat="39.99042833" lon="-0.447115">
        <ele>752.0</ele>
        <time>2017-05-27T06:37:51.161Z</time>
      </trkpt>
      <trkpt lat="39.99042833" lon="-0.447115">
        <ele>752.0</ele>
        <time>2017-05-27T06:37:52.171Z</time>
      </trkpt>
      <trkpt lat="39.99043" lon="-0.44720167">
        <ele>753.0</ele>
        <time>2017-05-27T06:37:53.157Z</time>
      </trkpt>
      <trkpt lat="39.99042833" lon="-0.44724667">
        <ele>753.0</ele>
        <time>2017-05-27T06:37:54.162Z</time>
      </trkpt>
      <trkpt lat="39.99042833" lon="-0.44724667">
        <ele>753.0</ele>
        <time>2017-05-27T06:37:55.173Z</time>
      </trkpt>
      <trkpt lat="39.990425" lon="-0.447335">
        <ele>754.0</ele>
        <time>2017-05-27T06:37:56.183Z</time>
      </trkpt>
      <trkpt lat="39.990425" lon="-0.447335">
        <ele>754.0</ele>
        <time>2017-05-27T06:37:57.185Z</time>
      </trkpt>
      <trkpt lat="39.99042333" lon="-0.447425">
        <ele>755.0</ele>
        <time>2017-05-27T06:37:58.199Z</time>
      </trkpt>
      <trkpt lat="39.99042333" lon="-0.447425">
        <ele>755.0</ele>
        <time>2017-05-27T06:37:59.181Z</time>
      </trkpt>
      <trkpt lat="39.99041667" lon="-0.44751">
        <ele>755.0</ele>
        <time>2017-05-27T06:38:00.190Z</time>
      </trkpt>
      <trkpt lat="39.99041667" lon="-0.44751">
        <ele>755.0</ele>
        <time>2017-05-27T06:38:01.162Z</time>
      </trkpt>
      <trkpt lat="39.99041167" lon="-0.44759667">
        <ele>756.0</ele>
        <time>2017-05-27T06:38:02.172Z</time>
      </trkpt>
      <trkpt lat="39.99039667" lon="-0.44764167">
        <ele>756.0</ele>
        <time>2017-05-27T06:38:03.167Z</time>
      </trkpt>
      <trkpt lat="39.99039667" lon="-0.44764167">
        <ele>756.0</ele>
        <time>2017-05-27T06:38:04.174Z</time>
      </trkpt>
      <trkpt lat="39.99038667" lon="-0.447725">
        <ele>756.0</ele>
        <time>2017-05-27T06:38:05.156Z</time>
      </trkpt>
      <trkpt lat="39.99038167" lon="-0.44776333">
        <ele>757.0</ele>
        <time>2017-05-27T06:38:06.175Z</time>
      </trkpt>
      <trkpt lat="39.99038167" lon="-0.44776333">
        <ele>757.0</ele>
        <time>2017-05-27T06:38:07.191Z</time>
      </trkpt>
      <trkpt lat="39.99037167" lon="-0.44784">
        <ele>757.0</ele>
        <time>2017-05-27T06:38:08.180Z</time>
      </trkpt>
      <trkpt lat="39.99037167" lon="-0.44784">
        <ele>757.0</ele>
        <time>2017-05-27T06:38:09.174Z</time>
      </trkpt>
      <trkpt lat="39.99036333" lon="-0.44792167">
        <ele>757.0</ele>
        <time>2017-05-27T06:38:10.189Z</time>
      </trkpt>
      <trkpt lat="39.99035667" lon="-0.44796667">
        <ele>757.0</ele>
        <time>2017-05-27T06:38:11.166Z</time>
      </trkpt>
      <trkpt lat="39.99035667" lon="-0.44796667">
        <ele>757.0</ele>
        <time>2017-05-27T06:38:12.184Z</time>
      </trkpt>
      <trkpt lat="39.99034" lon="-0.44805333">
        <ele>758.0</ele>
        <time>2017-05-27T06:38:13.172Z</time>
      </trkpt>
      <trkpt lat="39.99033667" lon="-0.44810167">
        <ele>758.0</ele>
        <time>2017-05-27T06:38:14.193Z</time>
      </trkpt>
      <trkpt lat="39.99033667" lon="-0.44810167">
        <ele>758.0</ele>
        <time>2017-05-27T06:38:15.169Z</time>
      </trkpt>
      <trkpt lat="39.99033167" lon="-0.44819667">
        <ele>758.0</ele>
        <time>2017-05-27T06:38:16.178Z</time>
      </trkpt>
      <trkpt lat="39.99033167" lon="-0.44819667">
        <ele>758.0</ele>
        <time>2017-05-27T06:38:17.191Z</time>
      </trkpt>
      <trkpt lat="39.99031333" lon="-0.44828333">
        <ele>758.0</ele>
        <time>2017-05-27T06:38:18.163Z</time>
      </trkpt>
      <trkpt lat="39.99031333" lon="-0.44828333">
        <ele>758.0</ele>
        <time>2017-05-27T06:38:19.161Z</time>
      </trkpt>
      <trkpt lat="39.99029" lon="-0.44836833">
        <ele>758.0</ele>
        <time>2017-05-27T06:38:20.171Z</time>
      </trkpt>
      <trkpt lat="39.99029" lon="-0.44836833">
        <ele>758.0</ele>
        <time>2017-05-27T06:38:21.159Z</time>
      </trkpt>
      <trkpt lat="39.990265" lon="-0.44845667">
        <ele>759.0</ele>
        <time>2017-05-27T06:38:22.198Z</time>
      </trkpt>
      <trkpt lat="39.99025167" lon="-0.4485">
        <ele>759.0</ele>
        <time>2017-05-27T06:38:23.179Z</time>
      </trkpt>
      <trkpt lat="39.99025167" lon="-0.4485">
        <ele>759.0</ele>
        <time>2017-05-27T06:38:24.193Z</time>
      </trkpt>
      <trkpt lat="39.99022833" lon="-0.44858667">
        <ele>760.0</ele>
        <time>2017-05-27T06:38:25.163Z</time>
      </trkpt>
      <trkpt lat="39.99021833" lon="-0.44862833">
        <ele>760.0</ele>
        <time>2017-05-27T06:38:26.169Z</time>
      </trkpt>
      <trkpt lat="39.99021" lon="-0.44867">
        <ele>760.0</ele>
        <time>2017-05-27T06:38:27.156Z</time>
      </trkpt>
      <trkpt lat="39.99021" lon="-0.44867">
        <ele>760.0</ele>
        <time>2017-05-27T06:38:28.172Z</time>
      </trkpt>
      <trkpt lat="39.990195" lon="-0.44876167">
        <ele>761.0</ele>
        <time>2017-05-27T06:38:29.162Z</time>
      </trkpt>
      <trkpt lat="39.990195" lon="-0.44876167">
        <ele>761.0</ele>
        <time>2017-05-27T06:38:30.182Z</time>
      </trkpt>
      <trkpt lat="39.99018" lon="-0.44884833">
        <ele>762.0</ele>
        <time>2017-05-27T06:38:31.193Z</time>
      </trkpt>
      <trkpt lat="39.99018" lon="-0.44884833">
        <ele>762.0</ele>
        <time>2017-05-27T06:38:32.172Z</time>
      </trkpt>
      <trkpt lat="39.990155" lon="-0.44893167">
        <ele>762.0</ele>
        <time>2017-05-27T06:38:33.189Z</time>
      </trkpt>
      <trkpt lat="39.99013833" lon="-0.448965">
        <ele>762.0</ele>
        <time>2017-05-27T06:38:34.188Z</time>
      </trkpt>
      <trkpt lat="39.99013833" lon="-0.448965">
        <ele>762.0</ele>
        <time>2017-05-27T06:38:35.166Z</time>
      </trkpt>
      <trkpt lat="39.99011" lon="-0.44903333">
        <ele>763.0</ele>
        <time>2017-05-27T06:38:36.182Z</time>
      </trkpt>
      <trkpt lat="39.99011" lon="-0.44903333">
        <ele>763.0</ele>
        <time>2017-05-27T06:38:37.187Z</time>
      </trkpt>
      <trkpt lat="39.99008833" lon="-0.44912">
        <ele>763.0</ele>
        <time>2017-05-27T06:38:38.159Z</time>
      </trkpt>
      <trkpt lat="39.99008833" lon="-0.44912">
        <ele>763.0</ele>
        <time>2017-05-27T06:38:39.174Z</time>
      </trkpt>
      <trkpt lat="39.99006667" lon="-0.44921667">
        <ele>764.0</ele>
        <time>2017-05-27T06:38:40.169Z</time>
      </trkpt>
      <trkpt lat="39.99005833" lon="-0.44926167">
        <ele>764.0</ele>
        <time>2017-05-27T06:38:41.188Z</time>
      </trkpt>
      <trkpt lat="39.99005833" lon="-0.44926167">
        <ele>764.0</ele>
        <time>2017-05-27T06:38:42.169Z</time>
      </trkpt>
      <trkpt lat="39.99006167" lon="-0.44934833">
        <ele>764.0</ele>
        <time>2017-05-27T06:38:43.179Z</time>
      </trkpt>
      <trkpt lat="39.99007167" lon="-0.44938833">
        <ele>765.0</ele>
        <time>2017-05-27T06:38:44.157Z</time>
      </trkpt>
      <trkpt lat="39.99007167" lon="-0.44938833">
        <ele>765.0</ele>
        <time>2017-05-27T06:38:45.178Z</time>
      </trkpt>
      <trkpt lat="39.99010333" lon="-0.44946167">
        <ele>765.0</ele>
        <time>2017-05-27T06:38:46.192Z</time>
      </trkpt>
      <trkpt lat="39.99012667" lon="-0.44949">
        <ele>765.0</ele>
        <time>2017-05-27T06:38:47.169Z</time>
      </trkpt>
      <trkpt lat="39.99012667" lon="-0.44949">
        <ele>765.0</ele>
        <time>2017-05-27T06:38:48.160Z</time>
      </trkpt>
      <trkpt lat="39.99017333" lon="-0.44954833">
        <ele>765.0</ele>
        <time>2017-05-27T06:38:49.174Z</time>
      </trkpt>
      <trkpt lat="39.99017333" lon="-0.44954833">
        <ele>765.0</ele>
        <time>2017-05-27T06:38:50.191Z</time>
      </trkpt>
      <trkpt lat="39.99022" lon="-0.44961">
        <ele>766.0</ele>
        <time>2017-05-27T06:38:51.162Z</time>
      </trkpt>
      <trkpt lat="39.99024167" lon="-0.44964167">
        <ele>766.0</ele>
        <time>2017-05-27T06:38:52.182Z</time>
      </trkpt>
      <trkpt lat="39.99024167" lon="-0.44964167">
        <ele>766.0</ele>
        <time>2017-05-27T06:38:53.185Z</time>
      </trkpt>
      <trkpt lat="39.99028" lon="-0.44969667">
        <ele>767.0</ele>
        <time>2017-05-27T06:38:54.195Z</time>
      </trkpt>
      <trkpt lat="39.99028" lon="-0.44969667">
        <ele>767.0</ele>
        <time>2017-05-27T06:38:55.186Z</time>
      </trkpt>
      <trkpt lat="39.990315" lon="-0.44975333">
        <ele>767.0</ele>
        <time>2017-05-27T06:38:56.156Z</time>
      </trkpt>
      <trkpt lat="39.990315" lon="-0.44975333">
        <ele>767.0</ele>
        <time>2017-05-27T06:38:57.189Z</time>
      </trkpt>
      <trkpt lat="39.99034833" lon="-0.44981667">
        <ele>767.0</ele>
        <time>2017-05-27T06:38:58.162Z</time>
      </trkpt>
      <trkpt lat="39.99034833" lon="-0.44981667">
        <ele>767.0</ele>
        <time>2017-05-27T06:38:59.185Z</time>
      </trkpt>
      <trkpt lat="39.99037333" lon="-0.44988167">
        <ele>768.0</ele>
        <time>2017-05-27T06:39:00.156Z</time>
      </trkpt>
      <trkpt lat="39.99037333" lon="-0.44988167">
        <ele>768.0</ele>
        <time>2017-05-27T06:39:01.168Z</time>
      </trkpt>
      <trkpt lat="39.99040333" lon="-0.44995">
        <ele>768.0</ele>
        <time>2017-05-27T06:39:02.178Z</time>
      </trkpt>
      <trkpt lat="39.990415" lon="-0.44998333">
        <ele>768.0</ele>
        <time>2017-05-27T06:39:03.184Z</time>
      </trkpt>
      <trkpt lat="39.990415" lon="-0.44998333">
        <ele>768.0</ele>
        <time>2017-05-27T06:39:04.191Z</time>
      </trkpt>
      <trkpt lat="39.99043833" lon="-0.45003667">
        <ele>769.0</ele>
        <time>2017-05-27T06:39:05.161Z</time>
      </trkpt>
      <trkpt lat="39.99043833" lon="-0.45003667">
        <ele>769.0</ele>
        <time>2017-05-27T06:39:06.184Z</time>
      </trkpt>
      <trkpt lat="39.99045167" lon="-0.45010667">
        <ele>770.0</ele>
        <time>2017-05-27T06:39:07.173Z</time>
      </trkpt>
      <trkpt lat="39.99045667" lon="-0.450145">
        <ele>770.0</ele>
        <time>2017-05-27T06:39:08.187Z</time>
      </trkpt>
      <trkpt lat="39.99045667" lon="-0.450145">
        <ele>770.0</ele>
        <time>2017-05-27T06:39:09.177Z</time>
      </trkpt>
      <trkpt lat="39.99047" lon="-0.450205">
        <ele>771.0</ele>
        <time>2017-05-27T06:39:10.189Z</time>
      </trkpt>
      <trkpt lat="39.99047" lon="-0.450205">
        <ele>771.0</ele>
        <time>2017-05-27T06:39:11.157Z</time>
      </trkpt>
      <trkpt lat="39.990485" lon="-0.450265">
        <ele>772.0</ele>
        <time>2017-05-27T06:39:12.174Z</time>
      </trkpt>
      <trkpt lat="39.990485" lon="-0.450265">
        <ele>772.0</ele>
        <time>2017-05-27T06:39:13.156Z</time>
      </trkpt>
      <trkpt lat="39.990505" lon="-0.45032">
        <ele>772.0</ele>
        <time>2017-05-27T06:39:14.170Z</time>
      </trkpt>
      <trkpt lat="39.990505" lon="-0.45032">
        <ele>772.0</ele>
        <time>2017-05-27T06:39:15.189Z</time>
      </trkpt>
      <trkpt lat="39.99052" lon="-0.45038167">
        <ele>773.0</ele>
        <time>2017-05-27T06:39:16.195Z</time>
      </trkpt>
      <trkpt lat="39.99052" lon="-0.45038167">
        <ele>773.0</ele>
        <time>2017-05-27T06:39:17.195Z</time>
      </trkpt>
      <trkpt lat="39.99053" lon="-0.45044167">
        <ele>773.0</ele>
        <time>2017-05-27T06:39:18.170Z</time>
      </trkpt>
      <trkpt lat="39.99053667" lon="-0.45047167">
        <ele>773.0</ele>
        <time>2017-05-27T06:39:19.195Z</time>
      </trkpt>
      <trkpt lat="39.99053667" lon="-0.45047167">
        <ele>773.0</ele>
        <time>2017-05-27T06:39:20.189Z</time>
      </trkpt>
      <trkpt lat="39.99055" lon="-0.45052167">
        <ele>774.0</ele>
        <time>2017-05-27T06:39:21.196Z</time>
      </trkpt>
      <trkpt lat="39.99055" lon="-0.45052167">
        <ele>774.0</ele>
        <time>2017-05-27T06:39:22.164Z</time>
      </trkpt>
      <trkpt lat="39.99056667" lon="-0.45058167">
        <ele>774.0</ele>
        <time>2017-05-27T06:39:23.173Z</time>
      </trkpt>
      <trkpt lat="39.99056667" lon="-0.45058167">
        <ele>774.0</ele>
        <time>2017-05-27T06:39:24.157Z</time>
      </trkpt>
      <trkpt lat="39.99058" lon="-0.45063667">
        <ele>774.0</ele>
        <time>2017-05-27T06:39:25.161Z</time>
      </trkpt>
      <trkpt lat="39.990585" lon="-0.45066667">
        <ele>774.0</ele>
        <time>2017-05-27T06:39:26.183Z</time>
      </trkpt>
      <trkpt lat="39.990585" lon="-0.45066667">
        <ele>774.0</ele>
        <time>2017-05-27T06:39:27.192Z</time>
      </trkpt>
      <trkpt lat="39.99059333" lon="-0.45073333">
        <ele>775.0</ele>
        <time>2017-05-27T06:39:28.163Z</time>
      </trkpt>
      <trkpt lat="39.99059333" lon="-0.45073333">
        <ele>775.0</ele>
        <time>2017-05-27T06:39:29.156Z</time>
      </trkpt>
      <trkpt lat="39.99059833" lon="-0.450795">
        <ele>775.0</ele>
        <time>2017-05-27T06:39:30.171Z</time>
      </trkpt>
      <trkpt lat="39.99059833" lon="-0.450795">
        <ele>775.0</ele>
        <time>2017-05-27T06:39:31.181Z</time>
      </trkpt>
      <trkpt lat="39.99060167" lon="-0.45086167">
        <ele>776.0</ele>
        <time>2017-05-27T06:39:32.193Z</time>
      </trkpt>
      <trkpt lat="39.99060167" lon="-0.45086167">
        <ele>776.0</ele>
        <time>2017-05-27T06:39:33.162Z</time>
      </trkpt>
      <trkpt lat="39.9906" lon="-0.45092667">
        <ele>776.0</ele>
        <time>2017-05-27T06:39:34.158Z</time>
      </trkpt>
      <trkpt lat="39.9906" lon="-0.45092667">
        <ele>776.0</ele>
        <time>2017-05-27T06:39:35.158Z</time>
      </trkpt>
      <trkpt lat="39.99059833" lon="-0.45098833">
        <ele>777.0</ele>
        <time>2017-05-27T06:39:36.165Z</time>
      </trkpt>
      <trkpt lat="39.99059833" lon="-0.45098833">
        <ele>777.0</ele>
        <time>2017-05-27T06:39:37.190Z</time>
      </trkpt>
      <trkpt lat="39.99060167" lon="-0.45105">
        <ele>777.0</ele>
        <time>2017-05-27T06:39:38.189Z</time>
      </trkpt>
      <trkpt lat="39.99060167" lon="-0.45105">
        <ele>777.0</ele>
        <time>2017-05-27T06:39:39.186Z</time>
      </trkpt>
      <trkpt lat="39.99059833" lon="-0.45111">
        <ele>778.0</ele>
        <time>2017-05-27T06:39:40.194Z</time>
      </trkpt>
      <trkpt lat="39.99059833" lon="-0.45114167">
        <ele>778.0</ele>
        <time>2017-05-27T06:39:41.173Z</time>
      </trkpt>
      <trkpt lat="39.99059833" lon="-0.45114167">
        <ele>778.0</ele>
        <time>2017-05-27T06:39:42.182Z</time>
      </trkpt>
      <trkpt lat="39.9906" lon="-0.451205">
        <ele>778.0</ele>
        <time>2017-05-27T06:39:43.179Z</time>
      </trkpt>
      <trkpt lat="39.9906" lon="-0.451235">
        <ele>779.0</ele>
        <time>2017-05-27T06:39:44.169Z</time>
      </trkpt>
      <trkpt lat="39.99060167" lon="-0.451265">
        <ele>779.0</ele>
        <time>2017-05-27T06:39:45.163Z</time>
      </trkpt>
      <trkpt lat="39.99060167" lon="-0.451265">
        <ele>779.0</ele>
        <time>2017-05-27T06:39:46.156Z</time>
      </trkpt>
      <trkpt lat="39.99060333" lon="-0.45132833">
        <ele>779.0</ele>
        <time>2017-05-27T06:39:47.169Z</time>
      </trkpt>
      <trkpt lat="39.99060333" lon="-0.45132833">
        <ele>779.0</ele>
        <time>2017-05-27T06:39:48.184Z</time>
      </trkpt>
      <trkpt lat="39.99060333" lon="-0.45138833">
        <ele>780.0</ele>
        <time>2017-05-27T06:39:49.159Z</time>
      </trkpt>
      <trkpt lat="39.99060333" lon="-0.45138833">
        <ele>780.0</ele>
        <time>2017-05-27T06:39:50.194Z</time>
      </trkpt>
      <trkpt lat="39.99060333" lon="-0.45144667">
        <ele>780.0</ele>
        <time>2017-05-27T06:39:51.162Z</time>
      </trkpt>
      <trkpt lat="39.99060333" lon="-0.451475">
        <ele>780.0</ele>
        <time>2017-05-27T06:39:52.180Z</time>
      </trkpt>
      <trkpt lat="39.99060333" lon="-0.451475">
        <ele>780.0</ele>
        <time>2017-05-27T06:39:53.182Z</time>
      </trkpt>
      <trkpt lat="39.9906" lon="-0.45152833">
        <ele>780.0</ele>
        <time>2017-05-27T06:39:54.158Z</time>
      </trkpt>
      <trkpt lat="39.9906" lon="-0.45152833">
        <ele>780.0</ele>
        <time>2017-05-27T06:39:55.175Z</time>
      </trkpt>
      <trkpt lat="39.99059167" lon="-0.45157833">
        <ele>780.0</ele>
        <time>2017-05-27T06:39:56.196Z</time>
      </trkpt>
      <trkpt lat="39.99059167" lon="-0.45157833">
        <ele>780.0</ele>
        <time>2017-05-27T06:39:57.185Z</time>
      </trkpt>
      <trkpt lat="39.99059" lon="-0.451635">
        <ele>780.0</ele>
        <time>2017-05-27T06:39:58.159Z</time>
      </trkpt>
      <trkpt lat="39.99059" lon="-0.45166167">
        <ele>780.0</ele>
        <time>2017-05-27T06:39:59.189Z</time>
      </trkpt>
      <trkpt lat="39.99059" lon="-0.45166167">
        <ele>780.0</ele>
        <time>2017-05-27T06:40:00.162Z</time>
      </trkpt>
      <trkpt lat="39.99058833" lon="-0.45171667">
        <ele>780.0</ele>
        <time>2017-05-27T06:40:01.180Z</time>
      </trkpt>
      <trkpt lat="39.99058833" lon="-0.45171667">
        <ele>780.0</ele>
        <time>2017-05-27T06:40:02.193Z</time>
      </trkpt>
      <trkpt lat="39.99059333" lon="-0.45176833">
        <ele>781.0</ele>
        <time>2017-05-27T06:40:03.181Z</time>
      </trkpt>
      <trkpt lat="39.99059833" lon="-0.45179833">
        <ele>781.0</ele>
        <time>2017-05-27T06:40:04.167Z</time>
      </trkpt>
      <trkpt lat="39.99060333" lon="-0.451825">
        <ele>781.0</ele>
        <time>2017-05-27T06:40:05.172Z</time>
      </trkpt>
      <trkpt lat="39.99060333" lon="-0.451825">
        <ele>781.0</ele>
        <time>2017-05-27T06:40:06.158Z</time>
      </trkpt>
      <trkpt lat="39.99062" lon="-0.45187667">
        <ele>781.0</ele>
        <time>2017-05-27T06:40:07.170Z</time>
      </trkpt>
      <trkpt lat="39.99063167" lon="-0.45190333">
        <ele>781.0</ele>
        <time>2017-05-27T06:40:08.173Z</time>
      </trkpt>
      <trkpt lat="39.99063167" lon="-0.45190333">
        <ele>781.0</ele>
        <time>2017-05-27T06:40:09.189Z</time>
      </trkpt>
      <trkpt lat="39.99063833" lon="-0.45197">
        <ele>781.0</ele>
        <time>2017-05-27T06:40:10.175Z</time>
      </trkpt>
      <trkpt lat="39.99063833" lon="-0.45197">
        <ele>781.0</ele>
        <time>2017-05-27T06:40:11.189Z</time>
      </trkpt>
      <trkpt lat="39.99065333" lon="-0.45202333">
        <ele>781.0</ele>
        <time>2017-05-27T06:40:12.261Z</time>
      </trkpt>
      <trkpt lat="39.99065333" lon="-0.45202333">
        <ele>781.0</ele>
        <time>2017-05-27T06:40:13.182Z</time>
      </trkpt>
      <trkpt lat="39.99067833" lon="-0.45205833">
        <ele>782.0</ele>
        <time>2017-05-27T06:40:14.171Z</time>
      </trkpt>
      <trkpt lat="39.99067833" lon="-0.45205833">
        <ele>782.0</ele>
        <time>2017-05-27T06:40:15.156Z</time>
      </trkpt>
      <trkpt lat="39.99070833" lon="-0.45208833">
        <ele>782.0</ele>
        <time>2017-05-27T06:40:16.168Z</time>
      </trkpt>
      <trkpt lat="39.99070833" lon="-0.45208833">
        <ele>782.0</ele>
        <time>2017-05-27T06:40:17.192Z</time>
      </trkpt>
      <trkpt lat="39.99073833" lon="-0.45212333">
        <ele>782.0</ele>
        <time>2017-05-27T06:40:18.171Z</time>
      </trkpt>
      <trkpt lat="39.99075333" lon="-0.45214333">
        <ele>782.0</ele>
        <time>2017-05-27T06:40:19.167Z</time>
      </trkpt>
      <trkpt lat="39.99075333" lon="-0.45214333">
        <ele>782.0</ele>
        <time>2017-05-27T06:40:20.190Z</time>
      </trkpt>
      <trkpt lat="39.99078333" lon="-0.452185">
        <ele>782.0</ele>
        <time>2017-05-27T06:40:21.189Z</time>
      </trkpt>
      <trkpt lat="39.99078333" lon="-0.452185">
        <ele>782.0</ele>
        <time>2017-05-27T06:40:22.190Z</time>
      </trkpt>
      <trkpt lat="39.99081167" lon="-0.45222667">
        <ele>783.0</ele>
        <time>2017-05-27T06:40:23.175Z</time>
      </trkpt>
      <trkpt lat="39.99081167" lon="-0.45222667">
        <ele>783.0</ele>
        <time>2017-05-27T06:40:24.174Z</time>
      </trkpt>
      <trkpt lat="39.99083667" lon="-0.45227167">
        <ele>783.0</ele>
        <time>2017-05-27T06:40:25.195Z</time>
      </trkpt>
      <trkpt lat="39.99083667" lon="-0.45227167">
        <ele>783.0</ele>
        <time>2017-05-27T06:40:26.195Z</time>
      </trkpt>
      <trkpt lat="39.99086167" lon="-0.45232167">
        <ele>783.0</ele>
        <time>2017-05-27T06:40:27.166Z</time>
      </trkpt>
      <trkpt lat="39.99087333" lon="-0.45234833">
        <ele>784.0</ele>
        <time>2017-05-27T06:40:28.186Z</time>
      </trkpt>
      <trkpt lat="39.99088333" lon="-0.45237667">
        <ele>784.0</ele>
        <time>2017-05-27T06:40:29.169Z</time>
      </trkpt>
      <trkpt lat="39.99088333" lon="-0.45237667">
        <ele>784.0</ele>
        <time>2017-05-27T06:40:30.189Z</time>
      </trkpt>
      <trkpt lat="39.99088333" lon="-0.45237667">
        <ele>784.0</ele>
        <time>2017-05-27T06:40:31.161Z</time>
      </trkpt>
      <trkpt lat="39.99090167" lon="-0.452435">
        <ele>784.0</ele>
        <time>2017-05-27T06:40:32.191Z</time>
      </trkpt>
      <trkpt lat="39.99092" lon="-0.45249">
        <ele>785.0</ele>
        <time>2017-05-27T06:40:33.165Z</time>
      </trkpt>
      <trkpt lat="39.99092" lon="-0.45249">
        <ele>785.0</ele>
        <time>2017-05-27T06:40:34.185Z</time>
      </trkpt>
      <trkpt lat="39.99093333" lon="-0.45255167">
        <ele>786.0</ele>
        <time>2017-05-27T06:40:35.160Z</time>
      </trkpt>
      <trkpt lat="39.99093833" lon="-0.45258167">
        <ele>786.0</ele>
        <time>2017-05-27T06:40:36.174Z</time>
      </trkpt>
      <trkpt lat="39.99093833" lon="-0.45258167">
        <ele>786.0</ele>
        <time>2017-05-27T06:40:37.192Z</time>
      </trkpt>
      <trkpt lat="39.99094" lon="-0.45263667">
        <ele>787.0</ele>
        <time>2017-05-27T06:40:38.162Z</time>
      </trkpt>
      <trkpt lat="39.99094" lon="-0.45263667">
        <ele>787.0</ele>
        <time>2017-05-27T06:40:39.192Z</time>
      </trkpt>
      <trkpt lat="39.99094" lon="-0.45269333">
        <ele>787.0</ele>
        <time>2017-05-27T06:40:40.172Z</time>
      </trkpt>
      <trkpt lat="39.99094" lon="-0.45269333">
        <ele>787.0</ele>
        <time>2017-05-27T06:40:41.161Z</time>
      </trkpt>
      <trkpt lat="39.99093833" lon="-0.45276">
        <ele>788.0</ele>
        <time>2017-05-27T06:40:42.171Z</time>
      </trkpt>
      <trkpt lat="39.99093833" lon="-0.45276">
        <ele>788.0</ele>
        <time>2017-05-27T06:40:43.181Z</time>
      </trkpt>
      <trkpt lat="39.99094" lon="-0.45282167">
        <ele>789.0</ele>
        <time>2017-05-27T06:40:44.195Z</time>
      </trkpt>
      <trkpt lat="39.99094" lon="-0.45282167">
        <ele>789.0</ele>
        <time>2017-05-27T06:40:45.186Z</time>
      </trkpt>
      <trkpt lat="39.99094167" lon="-0.45288167">
        <ele>790.0</ele>
        <time>2017-05-27T06:40:46.184Z</time>
      </trkpt>
      <trkpt lat="39.99094" lon="-0.45291333">
        <ele>790.0</ele>
        <time>2017-05-27T06:40:47.162Z</time>
      </trkpt>
      <trkpt lat="39.99094" lon="-0.45291333">
        <ele>790.0</ele>
        <time>2017-05-27T06:40:48.179Z</time>
      </trkpt>
      <trkpt lat="39.99094" lon="-0.45297333">
        <ele>791.0</ele>
        <time>2017-05-27T06:40:49.194Z</time>
      </trkpt>
      <trkpt lat="39.99094" lon="-0.45297333">
        <ele>791.0</ele>
        <time>2017-05-27T06:40:50.162Z</time>
      </trkpt>
      <trkpt lat="39.99094167" lon="-0.453035">
        <ele>792.0</ele>
        <time>2017-05-27T06:40:51.169Z</time>
      </trkpt>
      <trkpt lat="39.99094167" lon="-0.453035">
        <ele>792.0</ele>
        <time>2017-05-27T06:40:52.191Z</time>
      </trkpt>
      <trkpt lat="39.99094" lon="-0.45309833">
        <ele>792.0</ele>
        <time>2017-05-27T06:40:53.161Z</time>
      </trkpt>
      <trkpt lat="39.99094" lon="-0.45309833">
        <ele>792.0</ele>
        <time>2017-05-27T06:40:54.160Z</time>
      </trkpt>
      <trkpt lat="39.99094" lon="-0.453165">
        <ele>792.0</ele>
        <time>2017-05-27T06:40:55.199Z</time>
      </trkpt>
      <trkpt lat="39.99094" lon="-0.453165">
        <ele>792.0</ele>
        <time>2017-05-27T06:40:56.184Z</time>
      </trkpt>
      <trkpt lat="39.99093833" lon="-0.45323">
        <ele>793.0</ele>
        <time>2017-05-27T06:40:57.193Z</time>
      </trkpt>
      <trkpt lat="39.99093833" lon="-0.45323">
        <ele>793.0</ele>
        <time>2017-05-27T06:40:58.186Z</time>
      </trkpt>
      <trkpt lat="39.990935" lon="-0.45329167">
        <ele>793.0</ele>
        <time>2017-05-27T06:40:59.174Z</time>
      </trkpt>
      <trkpt lat="39.990935" lon="-0.45329167">
        <ele>793.0</ele>
        <time>2017-05-27T06:41:00.178Z</time>
      </trkpt>
      <trkpt lat="39.990935" lon="-0.45335667">
        <ele>793.0</ele>
        <time>2017-05-27T06:41:01.158Z</time>
      </trkpt>
      <trkpt lat="39.99093333" lon="-0.45338667">
        <ele>794.0</ele>
        <time>2017-05-27T06:41:02.181Z</time>
      </trkpt>
      <trkpt lat="39.99093333" lon="-0.45338667">
        <ele>794.0</ele>
        <time>2017-05-27T06:41:03.181Z</time>
      </trkpt>
      <trkpt lat="39.99093333" lon="-0.45344833">
        <ele>794.0</ele>
        <time>2017-05-27T06:41:04.169Z</time>
      </trkpt>
      <trkpt lat="39.99093333" lon="-0.45347833">
        <ele>794.0</ele>
        <time>2017-05-27T06:41:05.195Z</time>
      </trkpt>
      <trkpt lat="39.99093333" lon="-0.45347833">
        <ele>794.0</ele>
        <time>2017-05-27T06:41:06.175Z</time>
      </trkpt>
      <trkpt lat="39.99092833" lon="-0.453535">
        <ele>794.0</ele>
        <time>2017-05-27T06:41:07.189Z</time>
      </trkpt>
      <trkpt lat="39.99092833" lon="-0.453535">
        <ele>794.0</ele>
        <time>2017-05-27T06:41:08.159Z</time>
      </trkpt>
      <trkpt lat="39.99092167" lon="-0.45359167">
        <ele>794.0</ele>
        <time>2017-05-27T06:41:09.173Z</time>
      </trkpt>
      <trkpt lat="39.99091833" lon="-0.45362">
        <ele>794.0</ele>
        <time>2017-05-27T06:41:10.189Z</time>
      </trkpt>
      <trkpt lat="39.99091833" lon="-0.45362">
        <ele>794.0</ele>
        <time>2017-05-27T06:41:11.160Z</time>
      </trkpt>
      <trkpt lat="39.99092167" lon="-0.45367667">
        <ele>795.0</ele>
        <time>2017-05-27T06:41:12.191Z</time>
      </trkpt>
      <trkpt lat="39.99092167" lon="-0.45367667">
        <ele>795.0</ele>
        <time>2017-05-27T06:41:13.156Z</time>
      </trkpt>
      <trkpt lat="39.99092333" lon="-0.45373333">
        <ele>795.0</ele>
        <time>2017-05-27T06:41:14.168Z</time>
      </trkpt>
      <trkpt lat="39.99092167" lon="-0.45376333">
        <ele>795.0</ele>
        <time>2017-05-27T06:41:15.161Z</time>
      </trkpt>
      <trkpt lat="39.99092167" lon="-0.45376333">
        <ele>795.0</ele>
        <time>2017-05-27T06:41:16.172Z</time>
      </trkpt>
      <trkpt lat="39.99091833" lon="-0.45382667">
        <ele>796.0</ele>
        <time>2017-05-27T06:41:17.158Z</time>
      </trkpt>
      <trkpt lat="39.99091833" lon="-0.45382667">
        <ele>796.0</ele>
        <time>2017-05-27T06:41:18.168Z</time>
      </trkpt>
      <trkpt lat="39.99090833" lon="-0.45388833">
        <ele>796.0</ele>
        <time>2017-05-27T06:41:19.175Z</time>
      </trkpt>
      <trkpt lat="39.9909" lon="-0.45391833">
        <ele>797.0</ele>
        <time>2017-05-27T06:41:20.174Z</time>
      </trkpt>
      <trkpt lat="39.9909" lon="-0.45391833">
        <ele>797.0</ele>
        <time>2017-05-27T06:41:21.193Z</time>
      </trkpt>
      <trkpt lat="39.99088833" lon="-0.45397667">
        <ele>797.0</ele>
        <time>2017-05-27T06:41:22.162Z</time>
      </trkpt>
      <trkpt lat="39.99088333" lon="-0.454005">
        <ele>798.0</ele>
        <time>2017-05-27T06:41:23.162Z</time>
      </trkpt>
      <trkpt lat="39.99088333" lon="-0.454005">
        <ele>798.0</ele>
        <time>2017-05-27T06:41:24.171Z</time>
      </trkpt>
      <trkpt lat="39.99087" lon="-0.45406">
        <ele>798.0</ele>
        <time>2017-05-27T06:41:25.193Z</time>
      </trkpt>
      <trkpt lat="39.99085833" lon="-0.454085">
        <ele>798.0</ele>
        <time>2017-05-27T06:41:26.169Z</time>
      </trkpt>
      <trkpt lat="39.99085833" lon="-0.454085">
        <ele>798.0</ele>
        <time>2017-05-27T06:41:27.191Z</time>
      </trkpt>
      <trkpt lat="39.99082667" lon="-0.45413167">
        <ele>799.0</ele>
        <time>2017-05-27T06:41:28.159Z</time>
      </trkpt>
      <trkpt lat="39.99082667" lon="-0.45413167">
        <ele>799.0</ele>
        <time>2017-05-27T06:41:29.174Z</time>
      </trkpt>
      <trkpt lat="39.99078667" lon="-0.45416667">
        <ele>799.0</ele>
        <time>2017-05-27T06:41:30.186Z</time>
      </trkpt>
      <trkpt lat="39.99078667" lon="-0.45416667">
        <ele>799.0</ele>
        <time>2017-05-27T06:41:31.172Z</time>
      </trkpt>
      <trkpt lat="39.990745" lon="-0.454185">
        <ele>799.0</ele>
        <time>2017-05-27T06:41:32.194Z</time>
      </trkpt>
      <trkpt lat="39.99072" lon="-0.45419167">
        <ele>800.0</ele>
        <time>2017-05-27T06:41:33.177Z</time>
      </trkpt>
      <trkpt lat="39.99072" lon="-0.45419167">
        <ele>800.0</ele>
        <time>2017-05-27T06:41:34.166Z</time>
      </trkpt>
      <trkpt lat="39.99067167" lon="-0.4542">
        <ele>800.0</ele>
        <time>2017-05-27T06:41:35.176Z</time>
      </trkpt>
      <trkpt lat="39.99064833" lon="-0.45420333">
        <ele>800.0</ele>
        <time>2017-05-27T06:41:36.194Z</time>
      </trkpt>
      <trkpt lat="39.99064833" lon="-0.45420333">
        <ele>800.0</ele>
        <time>2017-05-27T06:41:37.170Z</time>
      </trkpt>
      <trkpt lat="39.9906" lon="-0.4542">
        <ele>800.0</ele>
        <time>2017-05-27T06:41:38.165Z</time>
      </trkpt>
      <trkpt lat="39.990575" lon="-0.45419333">
        <ele>800.0</ele>
        <time>2017-05-27T06:41:39.160Z</time>
      </trkpt>
      <trkpt lat="39.990575" lon="-0.45419333">
        <ele>800.0</ele>
        <time>2017-05-27T06:41:40.171Z</time>
      </trkpt>
      <trkpt lat="39.99052833" lon="-0.45417167">
        <ele>801.0</ele>
        <time>2017-05-27T06:41:41.190Z</time>
      </trkpt>
      <trkpt lat="39.99052833" lon="-0.45417167">
        <ele>801.0</ele>
        <time>2017-05-27T06:41:42.169Z</time>
      </trkpt>
      <trkpt lat="39.99048167" lon="-0.45414667">
        <ele>801.0</ele>
        <time>2017-05-27T06:41:43.180Z</time>
      </trkpt>
      <trkpt lat="39.99045667" lon="-0.45413167">
        <ele>801.0</ele>
        <time>2017-05-27T06:41:44.158Z</time>
      </trkpt>
      <trkpt lat="39.99043333" lon="-0.45411167">
        <ele>801.0</ele>
        <time>2017-05-27T06:41:45.185Z</time>
      </trkpt>
      <trkpt lat="39.99043333" lon="-0.45411167">
        <ele>801.0</ele>
        <time>2017-05-27T06:41:46.193Z</time>
      </trkpt>
      <trkpt lat="39.99038667" lon="-0.45407167">
        <ele>802.0</ele>
        <time>2017-05-27T06:41:47.164Z</time>
      </trkpt>
      <trkpt lat="39.990365" lon="-0.45405167">
        <ele>802.0</ele>
        <time>2017-05-27T06:41:48.171Z</time>
      </trkpt>
      <trkpt lat="39.990365" lon="-0.45405167">
        <ele>802.0</ele>
        <time>2017-05-27T06:41:49.183Z</time>
      </trkpt>
      <trkpt lat="39.99031833" lon="-0.45401333">
        <ele>802.0</ele>
        <time>2017-05-27T06:41:50.158Z</time>
      </trkpt>
      <trkpt lat="39.99031833" lon="-0.45401333">
        <ele>802.0</ele>
        <time>2017-05-27T06:41:51.171Z</time>
      </trkpt>
      <trkpt lat="39.99027" lon="-0.45397333">
        <ele>803.0</ele>
        <time>2017-05-27T06:41:52.190Z</time>
      </trkpt>
      <trkpt lat="39.99024667" lon="-0.45395333">
        <ele>803.0</ele>
        <time>2017-05-27T06:41:53.191Z</time>
      </trkpt>
      <trkpt lat="39.99022333" lon="-0.453935">
        <ele>803.0</ele>
        <time>2017-05-27T06:41:54.166Z</time>
      </trkpt>
      <trkpt lat="39.99022333" lon="-0.453935">
        <ele>803.0</ele>
        <time>2017-05-27T06:41:55.165Z</time>
      </trkpt>
      <trkpt lat="39.99017833" lon="-0.45389333">
        <ele>804.0</ele>
        <time>2017-05-27T06:41:56.185Z</time>
      </trkpt>
      <trkpt lat="39.99017833" lon="-0.45389333">
        <ele>804.0</ele>
        <time>2017-05-27T06:41:57.163Z</time>
      </trkpt>
      <trkpt lat="39.99013167" lon="-0.453855">
        <ele>804.0</ele>
        <time>2017-05-27T06:41:58.179Z</time>
      </trkpt>
      <trkpt lat="39.99013167" lon="-0.453855">
        <ele>804.0</ele>
        <time>2017-05-27T06:41:59.172Z</time>
      </trkpt>
      <trkpt lat="39.99009333" lon="-0.45381167">
        <ele>804.0</ele>
        <time>2017-05-27T06:42:00.186Z</time>
      </trkpt>
      <trkpt lat="39.99009333" lon="-0.45381167">
        <ele>804.0</ele>
        <time>2017-05-27T06:42:01.193Z</time>
      </trkpt>
      <trkpt lat="39.990055" lon="-0.45377333">
        <ele>804.0</ele>
        <time>2017-05-27T06:42:02.176Z</time>
      </trkpt>
      <trkpt lat="39.99003333" lon="-0.453755">
        <ele>804.0</ele>
        <time>2017-05-27T06:42:03.180Z</time>
      </trkpt>
      <trkpt lat="39.99003333" lon="-0.453755">
        <ele>804.0</ele>
        <time>2017-05-27T06:42:04.173Z</time>
      </trkpt>
      <trkpt lat="39.98999" lon="-0.45372333">
        <ele>804.0</ele>
        <time>2017-05-27T06:42:05.189Z</time>
      </trkpt>
      <trkpt lat="39.98999" lon="-0.45372333">
        <ele>804.0</ele>
        <time>2017-05-27T06:42:06.167Z</time>
      </trkpt>
      <trkpt lat="39.989945" lon="-0.453695">
        <ele>804.0</ele>
        <time>2017-05-27T06:42:07.176Z</time>
      </trkpt>
      <trkpt lat="39.98992" lon="-0.45368333">
        <ele>804.0</ele>
        <time>2017-05-27T06:42:08.195Z</time>
      </trkpt>
      <trkpt lat="39.98989667" lon="-0.45367167">
        <ele>804.0</ele>
        <time>2017-05-27T06:42:09.161Z</time>
      </trkpt>
      <trkpt lat="39.98989667" lon="-0.45367167">
        <ele>804.0</ele>
        <time>2017-05-27T06:42:10.173Z</time>
      </trkpt>
      <trkpt lat="39.98985" lon="-0.45364833">
        <ele>804.0</ele>
        <time>2017-05-27T06:42:11.190Z</time>
      </trkpt>
      <trkpt lat="39.98985" lon="-0.45364833">
        <ele>804.0</ele>
        <time>2017-05-27T06:42:12.162Z</time>
      </trkpt>
      <trkpt lat="39.98981" lon="-0.45361833">
        <ele>804.0</ele>
        <time>2017-05-27T06:42:13.191Z</time>
      </trkpt>
      <trkpt lat="39.98979" lon="-0.453605">
        <ele>804.0</ele>
        <time>2017-05-27T06:42:14.186Z</time>
      </trkpt>
      <trkpt lat="39.98977" lon="-0.45359667">
        <ele>803.0</ele>
        <time>2017-05-27T06:42:15.177Z</time>
      </trkpt>
      <trkpt lat="39.98977" lon="-0.45359667">
        <ele>803.0</ele>
        <time>2017-05-27T06:42:16.186Z</time>
      </trkpt>
      <trkpt lat="39.98973167" lon="-0.45357667">
        <ele>803.0</ele>
        <time>2017-05-27T06:42:17.156Z</time>
      </trkpt>
      <trkpt lat="39.98973167" lon="-0.45357667">
        <ele>803.0</ele>
        <time>2017-05-27T06:42:18.188Z</time>
      </trkpt>
      <trkpt lat="39.98969333" lon="-0.45355">
        <ele>803.0</ele>
        <time>2017-05-27T06:42:19.161Z</time>
      </trkpt>
      <trkpt lat="39.98969333" lon="-0.45355">
        <ele>803.0</ele>
        <time>2017-05-27T06:42:20.171Z</time>
      </trkpt>
      <trkpt lat="39.98965" lon="-0.45353333">
        <ele>803.0</ele>
        <time>2017-05-27T06:42:21.193Z</time>
      </trkpt>
      <trkpt lat="39.98965" lon="-0.45353333">
        <ele>803.0</ele>
        <time>2017-05-27T06:42:22.185Z</time>
      </trkpt>
      <trkpt lat="39.98960667" lon="-0.45352667">
        <ele>803.0</ele>
        <time>2017-05-27T06:42:23.192Z</time>
      </trkpt>
      <trkpt lat="39.98960667" lon="-0.45352667">
        <ele>803.0</ele>
        <time>2017-05-27T06:42:24.169Z</time>
      </trkpt>
      <trkpt lat="39.98956833" lon="-0.45351">
        <ele>803.0</ele>
        <time>2017-05-27T06:42:25.185Z</time>
      </trkpt>
      <trkpt lat="39.98956833" lon="-0.45351">
        <ele>803.0</ele>
        <time>2017-05-27T06:42:26.193Z</time>
      </trkpt>
      <trkpt lat="39.98953" lon="-0.453495">
        <ele>804.0</ele>
        <time>2017-05-27T06:42:27.162Z</time>
      </trkpt>
      <trkpt lat="39.98951333" lon="-0.45348833">
        <ele>803.0</ele>
        <time>2017-05-27T06:42:28.158Z</time>
      </trkpt>
      <trkpt lat="39.98949167" lon="-0.45348167">
        <ele>804.0</ele>
        <time>2017-05-27T06:42:29.174Z</time>
      </trkpt>
      <trkpt lat="39.98949167" lon="-0.45348167">
        <ele>804.0</ele>
        <time>2017-05-27T06:42:30.192Z</time>
      </trkpt>
      <trkpt lat="39.98944667" lon="-0.45347">
        <ele>804.0</ele>
        <time>2017-05-27T06:42:31.159Z</time>
      </trkpt>
      <trkpt lat="39.98944667" lon="-0.45347">
        <ele>804.0</ele>
        <time>2017-05-27T06:42:32.172Z</time>
      </trkpt>
      <trkpt lat="39.98941167" lon="-0.45345833">
        <ele>804.0</ele>
        <time>2017-05-27T06:42:33.190Z</time>
      </trkpt>
      <trkpt lat="39.98941167" lon="-0.45345833">
        <ele>804.0</ele>
        <time>2017-05-27T06:42:34.185Z</time>
      </trkpt>
      <trkpt lat="39.98938" lon="-0.45344833">
        <ele>804.0</ele>
        <time>2017-05-27T06:42:35.159Z</time>
      </trkpt>
      <trkpt lat="39.98938" lon="-0.45344833">
        <ele>804.0</ele>
        <time>2017-05-27T06:42:36.170Z</time>
      </trkpt>
      <trkpt lat="39.98934" lon="-0.45343">
        <ele>805.0</ele>
        <time>2017-05-27T06:42:37.182Z</time>
      </trkpt>
      <trkpt lat="39.98934" lon="-0.45343">
        <ele>805.0</ele>
        <time>2017-05-27T06:42:38.193Z</time>
      </trkpt>
      <trkpt lat="39.98930167" lon="-0.45341333">
        <ele>805.0</ele>
        <time>2017-05-27T06:42:39.162Z</time>
      </trkpt>
      <trkpt lat="39.98930167" lon="-0.45341333">
        <ele>805.0</ele>
        <time>2017-05-27T06:42:40.156Z</time>
      </trkpt>
      <trkpt lat="39.98925833" lon="-0.453395">
        <ele>805.0</ele>
        <time>2017-05-27T06:42:41.172Z</time>
      </trkpt>
      <trkpt lat="39.98925833" lon="-0.453395">
        <ele>805.0</ele>
        <time>2017-05-27T06:42:42.192Z</time>
      </trkpt>
      <trkpt lat="39.98921833" lon="-0.45336667">
        <ele>805.0</ele>
        <time>2017-05-27T06:42:43.165Z</time>
      </trkpt>
      <trkpt lat="39.98920333" lon="-0.45335167">
        <ele>805.0</ele>
        <time>2017-05-27T06:42:44.158Z</time>
      </trkpt>
      <trkpt lat="39.98920333" lon="-0.45335167">
        <ele>805.0</ele>
        <time>2017-05-27T06:42:45.195Z</time>
      </trkpt>
      <trkpt lat="39.98917333" lon="-0.45331">
        <ele>806.0</ele>
        <time>2017-05-27T06:42:46.167Z</time>
      </trkpt>
      <trkpt lat="39.98917333" lon="-0.45331">
        <ele>806.0</ele>
        <time>2017-05-27T06:42:47.190Z</time>
      </trkpt>
      <trkpt lat="39.989135" lon="-0.45328833">
        <ele>805.0</ele>
        <time>2017-05-27T06:42:48.192Z</time>
      </trkpt>
      <trkpt lat="39.989135" lon="-0.45328833">
        <ele>805.0</ele>
        <time>2017-05-27T06:42:49.190Z</time>
      </trkpt>
      <trkpt lat="39.98909833" lon="-0.45326833">
        <ele>806.0</ele>
        <time>2017-05-27T06:42:50.165Z</time>
      </trkpt>
      <trkpt lat="39.98909833" lon="-0.45326833">
        <ele>806.0</ele>
        <time>2017-05-27T06:42:51.162Z</time>
      </trkpt>
      <trkpt lat="39.98905833" lon="-0.45325">
        <ele>806.0</ele>
        <time>2017-05-27T06:42:52.177Z</time>
      </trkpt>
      <trkpt lat="39.98905833" lon="-0.45325">
        <ele>806.0</ele>
        <time>2017-05-27T06:42:53.189Z</time>
      </trkpt>
      <trkpt lat="39.98902" lon="-0.45322333">
        <ele>806.0</ele>
        <time>2017-05-27T06:42:54.177Z</time>
      </trkpt>
      <trkpt lat="39.98902" lon="-0.45322333">
        <ele>806.0</ele>
        <time>2017-05-27T06:42:55.192Z</time>
      </trkpt>
      <trkpt lat="39.98898167" lon="-0.45320833">
        <ele>806.0</ele>
        <time>2017-05-27T06:42:56.180Z</time>
      </trkpt>
      <trkpt lat="39.98898167" lon="-0.45320833">
        <ele>806.0</ele>
        <time>2017-05-27T06:42:57.157Z</time>
      </trkpt>
      <trkpt lat="39.98894167" lon="-0.45320667">
        <ele>807.0</ele>
        <time>2017-05-27T06:42:58.166Z</time>
      </trkpt>
      <trkpt lat="39.98894167" lon="-0.45320667">
        <ele>807.0</ele>
        <time>2017-05-27T06:42:59.181Z</time>
      </trkpt>
      <trkpt lat="39.98890167" lon="-0.45321">
        <ele>808.0</ele>
        <time>2017-05-27T06:43:00.169Z</time>
      </trkpt>
      <trkpt lat="39.98888333" lon="-0.45322">
        <ele>808.0</ele>
        <time>2017-05-27T06:43:01.184Z</time>
      </trkpt>
      <trkpt lat="39.98888333" lon="-0.45322">
        <ele>808.0</ele>
        <time>2017-05-27T06:43:02.161Z</time>
      </trkpt>
      <trkpt lat="39.988845" lon="-0.45325167">
        <ele>808.0</ele>
        <time>2017-05-27T06:43:03.170Z</time>
      </trkpt>
      <trkpt lat="39.988845" lon="-0.45325167">
        <ele>808.0</ele>
        <time>2017-05-27T06:43:04.185Z</time>
      </trkpt>
      <trkpt lat="39.98881333" lon="-0.45329">
        <ele>809.0</ele>
        <time>2017-05-27T06:43:05.174Z</time>
      </trkpt>
      <trkpt lat="39.9888" lon="-0.45331">
        <ele>809.0</ele>
        <time>2017-05-27T06:43:06.186Z</time>
      </trkpt>
      <trkpt lat="39.9888" lon="-0.45331">
        <ele>809.0</ele>
        <time>2017-05-27T06:43:07.169Z</time>
      </trkpt>
      <trkpt lat="39.98877333" lon="-0.453355">
        <ele>810.0</ele>
        <time>2017-05-27T06:43:08.192Z</time>
      </trkpt>
      <trkpt lat="39.98877333" lon="-0.453355">
        <ele>810.0</ele>
        <time>2017-05-27T06:43:09.164Z</time>
      </trkpt>
      <trkpt lat="39.98875" lon="-0.45341333">
        <ele>811.0</ele>
        <time>2017-05-27T06:43:10.174Z</time>
      </trkpt>
      <trkpt lat="39.98875" lon="-0.45341333">
        <ele>811.0</ele>
        <time>2017-05-27T06:43:11.191Z</time>
      </trkpt>
      <trkpt lat="39.98873" lon="-0.45346833">
        <ele>812.0</ele>
        <time>2017-05-27T06:43:12.159Z</time>
      </trkpt>
      <trkpt lat="39.98873" lon="-0.45346833">
        <ele>812.0</ele>
        <time>2017-05-27T06:43:13.185Z</time>
      </trkpt>
      <trkpt lat="39.988715" lon="-0.45352833">
        <ele>813.0</ele>
        <time>2017-05-27T06:43:14.194Z</time>
      </trkpt>
      <trkpt lat="39.988705" lon="-0.453555">
        <ele>813.0</ele>
        <time>2017-05-27T06:43:15.193Z</time>
      </trkpt>
      <trkpt lat="39.988705" lon="-0.453555">
        <ele>813.0</ele>
        <time>2017-05-27T06:43:16.183Z</time>
      </trkpt>
      <trkpt lat="39.98868" lon="-0.45360833">
        <ele>814.0</ele>
        <time>2017-05-27T06:43:17.160Z</time>
      </trkpt>
      <trkpt lat="39.98868" lon="-0.45360833">
        <ele>814.0</ele>
        <time>2017-05-27T06:43:18.178Z</time>
      </trkpt>
      <trkpt lat="39.988655" lon="-0.45365">
        <ele>815.0</ele>
        <time>2017-05-27T06:43:19.196Z</time>
      </trkpt>
      <trkpt lat="39.98864167" lon="-0.45366833">
        <ele>815.0</ele>
        <time>2017-05-27T06:43:20.156Z</time>
      </trkpt>
      <trkpt lat="39.98864167" lon="-0.45366833">
        <ele>815.0</ele>
        <time>2017-05-27T06:43:21.169Z</time>
      </trkpt>
      <trkpt lat="39.98861" lon="-0.45370333">
        <ele>815.0</ele>
        <time>2017-05-27T06:43:22.193Z</time>
      </trkpt>
      <trkpt lat="39.988595" lon="-0.45372167">
        <ele>816.0</ele>
        <time>2017-05-27T06:43:23.170Z</time>
      </trkpt>
      <trkpt lat="39.988595" lon="-0.45372167">
        <ele>816.0</ele>
        <time>2017-05-27T06:43:24.176Z</time>
      </trkpt>
      <trkpt lat="39.98856667" lon="-0.45376333">
        <ele>816.0</ele>
        <time>2017-05-27T06:43:25.197Z</time>
      </trkpt>
      <trkpt lat="39.98854833" lon="-0.45378333">
        <ele>817.0</ele>
        <time>2017-05-27T06:43:26.165Z</time>
      </trkpt>
      <trkpt lat="39.98854833" lon="-0.45378333">
        <ele>817.0</ele>
        <time>2017-05-27T06:43:27.185Z</time>
      </trkpt>
      <trkpt lat="39.98850667" lon="-0.45380833">
        <ele>818.0</ele>
        <time>2017-05-27T06:43:28.156Z</time>
      </trkpt>
      <trkpt lat="39.98848167" lon="-0.45381667">
        <ele>818.0</ele>
        <time>2017-05-27T06:43:29.171Z</time>
      </trkpt>
      <trkpt lat="39.98848167" lon="-0.45381667">
        <ele>818.0</ele>
        <time>2017-05-27T06:43:30.176Z</time>
      </trkpt>
      <trkpt lat="39.98843833" lon="-0.45383">
        <ele>818.0</ele>
        <time>2017-05-27T06:43:31.168Z</time>
      </trkpt>
      <trkpt lat="39.98843833" lon="-0.45383">
        <ele>818.0</ele>
        <time>2017-05-27T06:43:32.159Z</time>
      </trkpt>
      <trkpt lat="39.988395" lon="-0.45386167">
        <ele>818.0</ele>
        <time>2017-05-27T06:43:33.175Z</time>
      </trkpt>
      <trkpt lat="39.988395" lon="-0.45386167">
        <ele>818.0</ele>
        <time>2017-05-27T06:43:34.193Z</time>
      </trkpt>
      <trkpt lat="39.98834833" lon="-0.45388167">
        <ele>819.0</ele>
        <time>2017-05-27T06:43:35.186Z</time>
      </trkpt>
      <trkpt lat="39.98834833" lon="-0.45388167">
        <ele>819.0</ele>
        <time>2017-05-27T06:43:36.182Z</time>
      </trkpt>
      <trkpt lat="39.98829833" lon="-0.45389833">
        <ele>819.0</ele>
        <time>2017-05-27T06:43:37.192Z</time>
      </trkpt>
      <trkpt lat="39.98827" lon="-0.45390667">
        <ele>819.0</ele>
        <time>2017-05-27T06:43:38.173Z</time>
      </trkpt>
      <trkpt lat="39.98827" lon="-0.45390667">
        <ele>819.0</ele>
        <time>2017-05-27T06:43:39.166Z</time>
      </trkpt>
      <trkpt lat="39.98821333" lon="-0.45390833">
        <ele>819.0</ele>
        <time>2017-05-27T06:43:40.176Z</time>
      </trkpt>
      <trkpt lat="39.98821333" lon="-0.45390833">
        <ele>819.0</ele>
        <time>2017-05-27T06:43:41.162Z</time>
      </trkpt>
      <trkpt lat="39.98816" lon="-0.45391167">
        <ele>819.0</ele>
        <time>2017-05-27T06:43:42.177Z</time>
      </trkpt>
      <trkpt lat="39.98816" lon="-0.45391167">
        <ele>819.0</ele>
        <time>2017-05-27T06:43:43.165Z</time>
      </trkpt>
      <trkpt lat="39.98810167" lon="-0.45391">
        <ele>819.0</ele>
        <time>2017-05-27T06:43:44.172Z</time>
      </trkpt>
      <trkpt lat="39.98810167" lon="-0.45391">
        <ele>819.0</ele>
        <time>2017-05-27T06:43:45.191Z</time>
      </trkpt>
      <trkpt lat="39.98804333" lon="-0.45389833">
        <ele>819.0</ele>
        <time>2017-05-27T06:43:46.163Z</time>
      </trkpt>
      <trkpt lat="39.988015" lon="-0.45389333">
        <ele>819.0</ele>
        <time>2017-05-27T06:43:47.186Z</time>
      </trkpt>
      <trkpt lat="39.988015" lon="-0.45389333">
        <ele>819.0</ele>
        <time>2017-05-27T06:43:48.193Z</time>
      </trkpt>
      <trkpt lat="39.98795333" lon="-0.453885">
        <ele>819.0</ele>
        <time>2017-05-27T06:43:49.170Z</time>
      </trkpt>
      <trkpt lat="39.98792167" lon="-0.45388167">
        <ele>819.0</ele>
        <time>2017-05-27T06:43:50.199Z</time>
      </trkpt>
      <trkpt lat="39.98792167" lon="-0.45388167">
        <ele>819.0</ele>
        <time>2017-05-27T06:43:51.188Z</time>
      </trkpt>
      <trkpt lat="39.98786167" lon="-0.45387167">
        <ele>819.0</ele>
        <time>2017-05-27T06:43:52.160Z</time>
      </trkpt>
      <trkpt lat="39.98786167" lon="-0.45387167">
        <ele>819.0</ele>
        <time>2017-05-27T06:43:53.177Z</time>
      </trkpt>
      <trkpt lat="39.987805" lon="-0.45387167">
        <ele>819.0</ele>
        <time>2017-05-27T06:43:54.197Z</time>
      </trkpt>
      <trkpt lat="39.98777667" lon="-0.45387333">
        <ele>819.0</ele>
        <time>2017-05-27T06:43:55.175Z</time>
      </trkpt>
      <trkpt lat="39.98777667" lon="-0.45387333">
        <ele>819.0</ele>
        <time>2017-05-27T06:43:56.160Z</time>
      </trkpt>
      <trkpt lat="39.987725" lon="-0.45389333">
        <ele>819.0</ele>
        <time>2017-05-27T06:43:57.176Z</time>
      </trkpt>
      <trkpt lat="39.98769833" lon="-0.45390667">
        <ele>819.0</ele>
        <time>2017-05-27T06:43:58.175Z</time>
      </trkpt>
      <trkpt lat="39.987675" lon="-0.453925">
        <ele>819.0</ele>
        <time>2017-05-27T06:43:59.193Z</time>
      </trkpt>
      <trkpt lat="39.987675" lon="-0.453925">
        <ele>819.0</ele>
        <time>2017-05-27T06:44:00.159Z</time>
      </trkpt>
      <trkpt lat="39.98762167" lon="-0.45396333">
        <ele>819.0</ele>
        <time>2017-05-27T06:44:01.175Z</time>
      </trkpt>
      <trkpt lat="39.98762167" lon="-0.45396333">
        <ele>819.0</ele>
        <time>2017-05-27T06:44:02.187Z</time>
      </trkpt>
      <trkpt lat="39.987585" lon="-0.45402333">
        <ele>820.0</ele>
        <time>2017-05-27T06:44:03.168Z</time>
      </trkpt>
      <trkpt lat="39.987585" lon="-0.45402333">
        <ele>820.0</ele>
        <time>2017-05-27T06:44:04.185Z</time>
      </trkpt>
      <trkpt lat="39.98755833" lon="-0.45411167">
        <ele>820.0</ele>
        <time>2017-05-27T06:44:05.164Z</time>
      </trkpt>
      <trkpt lat="39.98755833" lon="-0.45411167">
        <ele>820.0</ele>
        <time>2017-05-27T06:44:06.194Z</time>
      </trkpt>
      <trkpt lat="39.98753667" lon="-0.454205">
        <ele>822.0</ele>
        <time>2017-05-27T06:44:07.179Z</time>
      </trkpt>
      <trkpt lat="39.987525" lon="-0.45424333">
        <ele>822.0</ele>
        <time>2017-05-27T06:44:08.189Z</time>
      </trkpt>
      <trkpt lat="39.987525" lon="-0.45424333">
        <ele>822.0</ele>
        <time>2017-05-27T06:44:09.182Z</time>
      </trkpt>
      <trkpt lat="39.98749667" lon="-0.45431667">
        <ele>823.0</ele>
        <time>2017-05-27T06:44:10.192Z</time>
      </trkpt>
      <trkpt lat="39.98748333" lon="-0.45435667">
        <ele>823.0</ele>
        <time>2017-05-27T06:44:11.179Z</time>
      </trkpt>
      <trkpt lat="39.98748333" lon="-0.45435667">
        <ele>823.0</ele>
        <time>2017-05-27T06:44:12.193Z</time>
      </trkpt>
      <trkpt lat="39.98745333" lon="-0.45442667">
        <ele>824.0</ele>
        <time>2017-05-27T06:44:13.182Z</time>
      </trkpt>
      <trkpt lat="39.98745333" lon="-0.45442667">
        <ele>824.0</ele>
        <time>2017-05-27T06:44:14.184Z</time>
      </trkpt>
      <trkpt lat="39.98742333" lon="-0.45449167">
        <ele>824.0</ele>
        <time>2017-05-27T06:44:15.156Z</time>
      </trkpt>
      <trkpt lat="39.98742333" lon="-0.45449167">
        <ele>824.0</ele>
        <time>2017-05-27T06:44:16.179Z</time>
      </trkpt>
      <trkpt lat="39.98738833" lon="-0.45455167">
        <ele>825.0</ele>
        <time>2017-05-27T06:44:17.192Z</time>
      </trkpt>
      <trkpt lat="39.98738833" lon="-0.45455167">
        <ele>825.0</ele>
        <time>2017-05-27T06:44:18.172Z</time>
      </trkpt>
      <trkpt lat="39.98735167" lon="-0.45460833">
        <ele>825.0</ele>
        <time>2017-05-27T06:44:19.191Z</time>
      </trkpt>
      <trkpt lat="39.98735167" lon="-0.45460833">
        <ele>825.0</ele>
        <time>2017-05-27T06:44:20.178Z</time>
      </trkpt>
      <trkpt lat="39.98730833" lon="-0.45466333">
        <ele>827.0</ele>
        <time>2017-05-27T06:44:21.193Z</time>
      </trkpt>
      <trkpt lat="39.98730833" lon="-0.45466333">
        <ele>827.0</ele>
        <time>2017-05-27T06:44:22.184Z</time>
      </trkpt>
      <trkpt lat="39.98726" lon="-0.45469833">
        <ele>827.0</ele>
        <time>2017-05-27T06:44:23.158Z</time>
      </trkpt>
      <trkpt lat="39.98726" lon="-0.45469833">
        <ele>827.0</ele>
        <time>2017-05-27T06:44:24.189Z</time>
      </trkpt>
      <trkpt lat="39.98720333" lon="-0.45471833">
        <ele>828.0</ele>
        <time>2017-05-27T06:44:25.157Z</time>
      </trkpt>
      <trkpt lat="39.98720333" lon="-0.45471833">
        <ele>828.0</ele>
        <time>2017-05-27T06:44:26.170Z</time>
      </trkpt>
      <trkpt lat="39.98714667" lon="-0.45472833">
        <ele>828.0</ele>
        <time>2017-05-27T06:44:27.194Z</time>
      </trkpt>
      <trkpt lat="39.98711667" lon="-0.45472333">
        <ele>828.0</ele>
        <time>2017-05-27T06:44:28.167Z</time>
      </trkpt>
      <trkpt lat="39.98711667" lon="-0.45472333">
        <ele>828.0</ele>
        <time>2017-05-27T06:44:29.187Z</time>
      </trkpt>
      <trkpt lat="39.98705833" lon="-0.45470667">
        <ele>828.0</ele>
        <time>2017-05-27T06:44:30.160Z</time>
      </trkpt>
      <trkpt lat="39.98703" lon="-0.45469">
        <ele>828.0</ele>
        <time>2017-05-27T06:44:31.187Z</time>
      </trkpt>
      <trkpt lat="39.98703" lon="-0.45469">
        <ele>828.0</ele>
        <time>2017-05-27T06:44:32.161Z</time>
      </trkpt>
      <trkpt lat="39.98697333" lon="-0.45466667">
        <ele>828.0</ele>
        <time>2017-05-27T06:44:33.177Z</time>
      </trkpt>
      <trkpt lat="39.98694833" lon="-0.45465667">
        <ele>828.0</ele>
        <time>2017-05-27T06:44:34.193Z</time>
      </trkpt>
      <trkpt lat="39.98692167" lon="-0.45465">
        <ele>828.0</ele>
        <time>2017-05-27T06:44:35.172Z</time>
      </trkpt>
      <trkpt lat="39.98692167" lon="-0.45465">
        <ele>828.0</ele>
        <time>2017-05-27T06:44:36.182Z</time>
      </trkpt>
      <trkpt lat="39.98687167" lon="-0.45465333">
        <ele>829.0</ele>
        <time>2017-05-27T06:44:37.173Z</time>
      </trkpt>
      <trkpt lat="39.98687167" lon="-0.45465333">
        <ele>829.0</ele>
        <time>2017-05-27T06:44:38.185Z</time>
      </trkpt>
      <trkpt lat="39.98682167" lon="-0.454665">
        <ele>830.0</ele>
        <time>2017-05-27T06:44:39.168Z</time>
      </trkpt>
      <trkpt lat="39.98679833" lon="-0.45467333">
        <ele>830.0</ele>
        <time>2017-05-27T06:44:40.191Z</time>
      </trkpt>
      <trkpt lat="39.98679833" lon="-0.45467333">
        <ele>830.0</ele>
        <time>2017-05-27T06:44:41.161Z</time>
      </trkpt>
      <trkpt lat="39.98675333" lon="-0.4547">
        <ele>831.0</ele>
        <time>2017-05-27T06:44:42.180Z</time>
      </trkpt>
      <trkpt lat="39.98673" lon="-0.454715">
        <ele>831.0</ele>
        <time>2017-05-27T06:44:43.192Z</time>
      </trkpt>
      <trkpt lat="39.98671167" lon="-0.454735">
        <ele>832.0</ele>
        <time>2017-05-27T06:44:44.182Z</time>
      </trkpt>
      <trkpt lat="39.98671167" lon="-0.454735">
        <ele>832.0</ele>
        <time>2017-05-27T06:44:45.161Z</time>
      </trkpt>
      <trkpt lat="39.98669167" lon="-0.45477833">
        <ele>832.0</ele>
        <time>2017-05-27T06:44:46.172Z</time>
      </trkpt>
      <trkpt lat="39.98669167" lon="-0.45477833">
        <ele>832.0</ele>
        <time>2017-05-27T06:44:47.159Z</time>
      </trkpt>
      <trkpt lat="39.98666667" lon="-0.45482667">
        <ele>833.0</ele>
        <time>2017-05-27T06:44:48.168Z</time>
      </trkpt>
      <trkpt lat="39.98666667" lon="-0.45482667">
        <ele>833.0</ele>
        <time>2017-05-27T06:44:49.177Z</time>
      </trkpt>
      <trkpt lat="39.98665" lon="-0.45488333">
        <ele>834.0</ele>
        <time>2017-05-27T06:44:50.162Z</time>
      </trkpt>
      <trkpt lat="39.98665" lon="-0.45488333">
        <ele>834.0</ele>
        <time>2017-05-27T06:44:51.176Z</time>
      </trkpt>
      <trkpt lat="39.98663333" lon="-0.45493167">
        <ele>834.0</ele>
        <time>2017-05-27T06:44:52.188Z</time>
      </trkpt>
      <trkpt lat="39.98662333" lon="-0.45496167">
        <ele>834.0</ele>
        <time>2017-05-27T06:44:53.161Z</time>
      </trkpt>
      <trkpt lat="39.98662333" lon="-0.45496167">
        <ele>834.0</ele>
        <time>2017-05-27T06:44:54.193Z</time>
      </trkpt>
      <trkpt lat="39.98661" lon="-0.45502">
        <ele>834.0</ele>
        <time>2017-05-27T06:44:55.174Z</time>
      </trkpt>
      <trkpt lat="39.98661" lon="-0.45502">
        <ele>834.0</ele>
        <time>2017-05-27T06:44:56.191Z</time>
      </trkpt>
      <trkpt lat="39.98659667" lon="-0.45508167">
        <ele>835.0</ele>
        <time>2017-05-27T06:44:57.158Z</time>
      </trkpt>
      <trkpt lat="39.98659" lon="-0.45511333">
        <ele>835.0</ele>
        <time>2017-05-27T06:44:58.183Z</time>
      </trkpt>
      <trkpt lat="39.98658333" lon="-0.455145">
        <ele>836.0</ele>
        <time>2017-05-27T06:44:59.163Z</time>
      </trkpt>
      <trkpt lat="39.98658333" lon="-0.455145">
        <ele>836.0</ele>
        <time>2017-05-27T06:45:00.177Z</time>
      </trkpt>
      <trkpt lat="39.98656833" lon="-0.45521">
        <ele>838.0</ele>
        <time>2017-05-27T06:45:01.159Z</time>
      </trkpt>
      <trkpt lat="39.98656333" lon="-0.45524167">
        <ele>838.0</ele>
        <time>2017-05-27T06:45:02.193Z</time>
      </trkpt>
      <trkpt lat="39.98656" lon="-0.45527">
        <ele>839.0</ele>
        <time>2017-05-27T06:45:03.169Z</time>
      </trkpt>
      <trkpt lat="39.98656" lon="-0.45527">
        <ele>839.0</ele>
        <time>2017-05-27T06:45:04.171Z</time>
      </trkpt>
      <trkpt lat="39.98656667" lon="-0.455335">
        <ele>840.0</ele>
        <time>2017-05-27T06:45:05.185Z</time>
      </trkpt>
      <trkpt lat="39.98656667" lon="-0.455335">
        <ele>840.0</ele>
        <time>2017-05-27T06:45:06.163Z</time>
      </trkpt>
      <trkpt lat="39.98657167" lon="-0.455395">
        <ele>841.0</ele>
        <time>2017-05-27T06:45:07.174Z</time>
      </trkpt>
      <trkpt lat="39.98658" lon="-0.455425">
        <ele>841.0</ele>
        <time>2017-05-27T06:45:08.170Z</time>
      </trkpt>
      <trkpt lat="39.98658" lon="-0.455425">
        <ele>841.0</ele>
        <time>2017-05-27T06:45:09.161Z</time>
      </trkpt>
      <trkpt lat="39.9866" lon="-0.45547833">
        <ele>843.0</ele>
        <time>2017-05-27T06:45:10.169Z</time>
      </trkpt>
      <trkpt lat="39.9866" lon="-0.45547833">
        <ele>843.0</ele>
        <time>2017-05-27T06:45:11.178Z</time>
      </trkpt>
      <trkpt lat="39.98662833" lon="-0.45553333">
        <ele>844.0</ele>
        <time>2017-05-27T06:45:12.174Z</time>
      </trkpt>
      <trkpt lat="39.98662833" lon="-0.45553333">
        <ele>844.0</ele>
        <time>2017-05-27T06:45:13.173Z</time>
      </trkpt>
      <trkpt lat="39.986655" lon="-0.455585">
        <ele>845.0</ele>
        <time>2017-05-27T06:45:14.157Z</time>
      </trkpt>
      <trkpt lat="39.98666667" lon="-0.455615">
        <ele>845.0</ele>
        <time>2017-05-27T06:45:15.194Z</time>
      </trkpt>
      <trkpt lat="39.98666667" lon="-0.455615">
        <ele>845.0</ele>
        <time>2017-05-27T06:45:16.165Z</time>
      </trkpt>
      <trkpt lat="39.98669" lon="-0.45566833">
        <ele>846.0</ele>
        <time>2017-05-27T06:45:17.177Z</time>
      </trkpt>
      <trkpt lat="39.986705" lon="-0.45569333">
        <ele>847.0</ele>
        <time>2017-05-27T06:45:18.156Z</time>
      </trkpt>
      <trkpt lat="39.986705" lon="-0.45569333">
        <ele>847.0</ele>
        <time>2017-05-27T06:45:19.169Z</time>
      </trkpt>
      <trkpt lat="39.98673667" lon="-0.45574">
        <ele>847.0</ele>
        <time>2017-05-27T06:45:20.181Z</time>
      </trkpt>
      <trkpt lat="39.98673667" lon="-0.45574">
        <ele>847.0</ele>
        <time>2017-05-27T06:45:21.163Z</time>
      </trkpt>
      <trkpt lat="39.986765" lon="-0.45579167">
        <ele>848.0</ele>
        <time>2017-05-27T06:45:22.170Z</time>
      </trkpt>
      <trkpt lat="39.98677667" lon="-0.455815">
        <ele>848.0</ele>
        <time>2017-05-27T06:45:23.171Z</time>
      </trkpt>
      <trkpt lat="39.98677667" lon="-0.455815">
        <ele>848.0</ele>
        <time>2017-05-27T06:45:24.176Z</time>
      </trkpt>
      <trkpt lat="39.9868" lon="-0.455865">
        <ele>849.0</ele>
        <time>2017-05-27T06:45:25.191Z</time>
      </trkpt>
      <trkpt lat="39.98681333" lon="-0.45589">
        <ele>849.0</ele>
        <time>2017-05-27T06:45:26.172Z</time>
      </trkpt>
      <trkpt lat="39.98681333" lon="-0.45589">
        <ele>849.0</ele>
        <time>2017-05-27T06:45:27.162Z</time>
      </trkpt>
      <trkpt lat="39.98684333" lon="-0.45593333">
        <ele>849.0</ele>
        <time>2017-05-27T06:45:28.171Z</time>
      </trkpt>
      <trkpt lat="39.986855" lon="-0.45595667">
        <ele>849.0</ele>
        <time>2017-05-27T06:45:29.171Z</time>
      </trkpt>
      <trkpt lat="39.986865" lon="-0.455985">
        <ele>849.0</ele>
        <time>2017-05-27T06:45:30.189Z</time>
      </trkpt>
      <trkpt lat="39.986865" lon="-0.455985">
        <ele>849.0</ele>
        <time>2017-05-27T06:45:31.161Z</time>
      </trkpt>
      <trkpt lat="39.98688833" lon="-0.45603667">
        <ele>849.0</ele>
        <time>2017-05-27T06:45:32.170Z</time>
      </trkpt>
      <trkpt lat="39.986895" lon="-0.45605667">
        <ele>850.0</ele>
        <time>2017-05-27T06:45:33.182Z</time>
      </trkpt>
      <trkpt lat="39.986895" lon="-0.45605667">
        <ele>850.0</ele>
        <time>2017-05-27T06:45:34.161Z</time>
      </trkpt>
      <trkpt lat="39.98692" lon="-0.45609833">
        <ele>850.0</ele>
        <time>2017-05-27T06:45:35.179Z</time>
      </trkpt>
      <trkpt lat="39.98692" lon="-0.45609833">
        <ele>850.0</ele>
        <time>2017-05-27T06:45:36.165Z</time>
      </trkpt>
      <trkpt lat="39.98695" lon="-0.45613833">
        <ele>850.0</ele>
        <time>2017-05-27T06:45:37.178Z</time>
      </trkpt>
      <trkpt lat="39.98695" lon="-0.45613833">
        <ele>850.0</ele>
        <time>2017-05-27T06:45:38.170Z</time>
      </trkpt>
      <trkpt lat="39.98698333" lon="-0.45618167">
        <ele>851.0</ele>
        <time>2017-05-27T06:45:39.181Z</time>
      </trkpt>
      <trkpt lat="39.98698333" lon="-0.45618167">
        <ele>851.0</ele>
        <time>2017-05-27T06:45:40.165Z</time>
      </trkpt>
      <trkpt lat="39.987015" lon="-0.45622167">
        <ele>851.0</ele>
        <time>2017-05-27T06:45:41.172Z</time>
      </trkpt>
      <trkpt lat="39.987015" lon="-0.45622167">
        <ele>851.0</ele>
        <time>2017-05-27T06:45:42.190Z</time>
      </trkpt>
      <trkpt lat="39.98705167" lon="-0.45626167">
        <ele>852.0</ele>
        <time>2017-05-27T06:45:43.195Z</time>
      </trkpt>
      <trkpt lat="39.98705167" lon="-0.45626167">
        <ele>852.0</ele>
        <time>2017-05-27T06:45:44.186Z</time>
      </trkpt>
      <trkpt lat="39.98708833" lon="-0.45629667">
        <ele>853.0</ele>
        <time>2017-05-27T06:45:45.161Z</time>
      </trkpt>
      <trkpt lat="39.98708833" lon="-0.45629667">
        <ele>853.0</ele>
        <time>2017-05-27T06:45:46.186Z</time>
      </trkpt>
      <trkpt lat="39.987135" lon="-0.45633">
        <ele>854.0</ele>
        <time>2017-05-27T06:45:47.159Z</time>
      </trkpt>
      <trkpt lat="39.987135" lon="-0.45633">
        <ele>854.0</ele>
        <time>2017-05-27T06:45:48.175Z</time>
      </trkpt>
      <trkpt lat="39.98718167" lon="-0.456355">
        <ele>856.0</ele>
        <time>2017-05-27T06:45:49.193Z</time>
      </trkpt>
      <trkpt lat="39.98718167" lon="-0.456355">
        <ele>856.0</ele>
        <time>2017-05-27T06:45:50.162Z</time>
      </trkpt>
      <trkpt lat="39.987225" lon="-0.45638">
        <ele>857.0</ele>
        <time>2017-05-27T06:45:51.172Z</time>
      </trkpt>
      <trkpt lat="39.98724833" lon="-0.45639">
        <ele>857.0</ele>
        <time>2017-05-27T06:45:52.194Z</time>
      </trkpt>
      <trkpt lat="39.98724833" lon="-0.45639">
        <ele>857.0</ele>
        <time>2017-05-27T06:45:53.185Z</time>
      </trkpt>
      <trkpt lat="39.98729333" lon="-0.45640833">
        <ele>859.0</ele>
        <time>2017-05-27T06:45:54.156Z</time>
      </trkpt>
      <trkpt lat="39.98729333" lon="-0.45640833">
        <ele>859.0</ele>
        <time>2017-05-27T06:45:55.188Z</time>
      </trkpt>
      <trkpt lat="39.98733667" lon="-0.45642833">
        <ele>860.0</ele>
        <time>2017-05-27T06:45:56.159Z</time>
      </trkpt>
      <trkpt lat="39.98733667" lon="-0.45642833">
        <ele>860.0</ele>
        <time>2017-05-27T06:45:57.171Z</time>
      </trkpt>
      <trkpt lat="39.98738167" lon="-0.45644667">
        <ele>861.0</ele>
        <time>2017-05-27T06:45:58.191Z</time>
      </trkpt>
      <trkpt lat="39.98740333" lon="-0.45645167">
        <ele>862.0</ele>
        <time>2017-05-27T06:45:59.159Z</time>
      </trkpt>
      <trkpt lat="39.98740333" lon="-0.45645167">
        <ele>862.0</ele>
        <time>2017-05-27T06:46:00.165Z</time>
      </trkpt>
      <trkpt lat="39.98744833" lon="-0.45646167">
        <ele>862.0</ele>
        <time>2017-05-27T06:46:01.179Z</time>
      </trkpt>
      <trkpt lat="39.98747" lon="-0.45646833">
        <ele>863.0</ele>
        <time>2017-05-27T06:46:02.183Z</time>
      </trkpt>
      <trkpt lat="39.98747" lon="-0.45646833">
        <ele>863.0</ele>
        <time>2017-05-27T06:46:03.191Z</time>
      </trkpt>
      <trkpt lat="39.987515" lon="-0.45648333">
        <ele>864.0</ele>
        <time>2017-05-27T06:46:04.163Z</time>
      </trkpt>
      <trkpt lat="39.987535" lon="-0.45649">
        <ele>864.0</ele>
        <time>2017-05-27T06:46:05.176Z</time>
      </trkpt>
      <trkpt lat="39.987535" lon="-0.45649">
        <ele>864.0</ele>
        <time>2017-05-27T06:46:06.184Z</time>
      </trkpt>
      <trkpt lat="39.987585" lon="-0.45651333">
        <ele>863.0</ele>
        <time>2017-05-27T06:46:07.163Z</time>
      </trkpt>
      <trkpt lat="39.987615" lon="-0.45652333">
        <ele>863.0</ele>
        <time>2017-05-27T06:46:08.195Z</time>
      </trkpt>
      <trkpt lat="39.98764333" lon="-0.456535">
        <ele>861.0</ele>
        <time>2017-05-27T06:46:09.176Z</time>
      </trkpt>
      <trkpt lat="39.98764333" lon="-0.456535">
        <ele>861.0</ele>
        <time>2017-05-27T06:46:10.166Z</time>
      </trkpt>
      <trkpt lat="39.98769667" lon="-0.45655833">
        <ele>860.0</ele>
        <time>2017-05-27T06:46:11.175Z</time>
      </trkpt>
      <trkpt lat="39.98769667" lon="-0.45655833">
        <ele>860.0</ele>
        <time>2017-05-27T06:46:12.167Z</time>
      </trkpt>
      <trkpt lat="39.987745" lon="-0.45658">
        <ele>859.0</ele>
        <time>2017-05-27T06:46:13.192Z</time>
      </trkpt>
      <trkpt lat="39.987745" lon="-0.45658">
        <ele>859.0</ele>
        <time>2017-05-27T06:46:14.186Z</time>
      </trkpt>
      <trkpt lat="39.98778833" lon="-0.45660833">
        <ele>858.0</ele>
        <time>2017-05-27T06:46:15.159Z</time>
      </trkpt>
      <trkpt lat="39.98780833" lon="-0.45662667">
        <ele>858.0</ele>
        <time>2017-05-27T06:46:16.159Z</time>
      </trkpt>
      <trkpt lat="39.98780833" lon="-0.45662667">
        <ele>858.0</ele>
        <time>2017-05-27T06:46:17.176Z</time>
      </trkpt>
      <trkpt lat="39.98784667" lon="-0.45666167">
        <ele>858.0</ele>
        <time>2017-05-27T06:46:18.159Z</time>
      </trkpt>
      <trkpt lat="39.98784667" lon="-0.45666167">
        <ele>858.0</ele>
        <time>2017-05-27T06:46:19.184Z</time>
      </trkpt>
      <trkpt lat="39.98788167" lon="-0.45670167">
        <ele>858.0</ele>
        <time>2017-05-27T06:46:20.164Z</time>
      </trkpt>
      <trkpt lat="39.98789667" lon="-0.45672333">
        <ele>859.0</ele>
        <time>2017-05-27T06:46:21.156Z</time>
      </trkpt>
      <trkpt lat="39.98789667" lon="-0.45672333">
        <ele>859.0</ele>
        <time>2017-05-27T06:46:22.158Z</time>
      </trkpt>
      <trkpt lat="39.98792333" lon="-0.45677333">
        <ele>859.0</ele>
        <time>2017-05-27T06:46:23.173Z</time>
      </trkpt>
      <trkpt lat="39.98792333" lon="-0.45677333">
        <ele>859.0</ele>
        <time>2017-05-27T06:46:24.189Z</time>
      </trkpt>
      <trkpt lat="39.98794333" lon="-0.45683">
        <ele>860.0</ele>
        <time>2017-05-27T06:46:25.156Z</time>
      </trkpt>
      <trkpt lat="39.98795167" lon="-0.45686">
        <ele>860.0</ele>
        <time>2017-05-27T06:46:26.192Z</time>
      </trkpt>
      <trkpt lat="39.98795167" lon="-0.45686">
        <ele>860.0</ele>
        <time>2017-05-27T06:46:27.184Z</time>
      </trkpt>
      <trkpt lat="39.98796167" lon="-0.45692">
        <ele>860.0</ele>
        <time>2017-05-27T06:46:28.164Z</time>
      </trkpt>
      <trkpt lat="39.98796167" lon="-0.45695">
        <ele>859.0</ele>
        <time>2017-05-27T06:46:29.185Z</time>
      </trkpt>
      <trkpt lat="39.98796167" lon="-0.45695">
        <ele>859.0</ele>
        <time>2017-05-27T06:46:30.194Z</time>
      </trkpt>
      <trkpt lat="39.98796333" lon="-0.45701">
        <ele>859.0</ele>
        <time>2017-05-27T06:46:31.170Z</time>
      </trkpt>
      <trkpt lat="39.98796333" lon="-0.45701">
        <ele>859.0</ele>
        <time>2017-05-27T06:46:32.165Z</time>
      </trkpt>
      <trkpt lat="39.98795833" lon="-0.45706833">
        <ele>859.0</ele>
        <time>2017-05-27T06:46:33.179Z</time>
      </trkpt>
      <trkpt lat="39.98795833" lon="-0.45706833">
        <ele>859.0</ele>
        <time>2017-05-27T06:46:34.171Z</time>
      </trkpt>
      <trkpt lat="39.98795167" lon="-0.457125">
        <ele>860.0</ele>
        <time>2017-05-27T06:46:35.192Z</time>
      </trkpt>
      <trkpt lat="39.98795167" lon="-0.457125">
        <ele>860.0</ele>
        <time>2017-05-27T06:46:36.168Z</time>
      </trkpt>
      <trkpt lat="39.98794833" lon="-0.457185">
        <ele>860.0</ele>
        <time>2017-05-27T06:46:37.193Z</time>
      </trkpt>
      <trkpt lat="39.98794833" lon="-0.457185">
        <ele>860.0</ele>
        <time>2017-05-27T06:46:38.192Z</time>
      </trkpt>
      <trkpt lat="39.98793833" lon="-0.45724333">
        <ele>861.0</ele>
        <time>2017-05-27T06:46:39.170Z</time>
      </trkpt>
      <trkpt lat="39.98793" lon="-0.45726833">
        <ele>861.0</ele>
        <time>2017-05-27T06:46:40.191Z</time>
      </trkpt>
      <trkpt lat="39.98793" lon="-0.45726833">
        <ele>861.0</ele>
        <time>2017-05-27T06:46:41.162Z</time>
      </trkpt>
      <trkpt lat="39.98791667" lon="-0.45731333">
        <ele>862.0</ele>
        <time>2017-05-27T06:46:42.173Z</time>
      </trkpt>
      <trkpt lat="39.98791667" lon="-0.45731333">
        <ele>862.0</ele>
        <time>2017-05-27T06:46:43.162Z</time>
      </trkpt>
      <trkpt lat="39.98789833" lon="-0.45736167">
        <ele>862.0</ele>
        <time>2017-05-27T06:46:44.181Z</time>
      </trkpt>
      <trkpt lat="39.98789833" lon="-0.45736167">
        <ele>862.0</ele>
        <time>2017-05-27T06:46:45.166Z</time>
      </trkpt>
      <trkpt lat="39.98787667" lon="-0.45741167">
        <ele>863.0</ele>
        <time>2017-05-27T06:46:46.177Z</time>
      </trkpt>
      <trkpt lat="39.98786833" lon="-0.457435">
        <ele>863.0</ele>
        <time>2017-05-27T06:46:47.167Z</time>
      </trkpt>
      <trkpt lat="39.98785833" lon="-0.45745667">
        <ele>863.0</ele>
        <time>2017-05-27T06:46:48.178Z</time>
      </trkpt>
      <trkpt lat="39.98785833" lon="-0.45745667">
        <ele>863.0</ele>
        <time>2017-05-27T06:46:49.169Z</time>
      </trkpt>
      <trkpt lat="39.98784167" lon="-0.457495">
        <ele>864.0</ele>
        <time>2017-05-27T06:46:50.188Z</time>
      </trkpt>
      <trkpt lat="39.98784167" lon="-0.457495">
        <ele>864.0</ele>
        <time>2017-05-27T06:46:51.160Z</time>
      </trkpt>
      <trkpt lat="39.98781167" lon="-0.45754333">
        <ele>864.0</ele>
        <time>2017-05-27T06:46:52.173Z</time>
      </trkpt>
      <trkpt lat="39.98779833" lon="-0.45757">
        <ele>864.0</ele>
        <time>2017-05-27T06:46:53.167Z</time>
      </trkpt>
      <trkpt lat="39.98779833" lon="-0.45757">
        <ele>864.0</ele>
        <time>2017-05-27T06:46:54.175Z</time>
      </trkpt>
      <trkpt lat="39.987775" lon="-0.45762">
        <ele>865.0</ele>
        <time>2017-05-27T06:46:55.188Z</time>
      </trkpt>
      <trkpt lat="39.987775" lon="-0.45762">
        <ele>865.0</ele>
        <time>2017-05-27T06:46:56.174Z</time>
      </trkpt>
      <trkpt lat="39.98775" lon="-0.45766667">
        <ele>865.0</ele>
        <time>2017-05-27T06:46:57.190Z</time>
      </trkpt>
      <trkpt lat="39.98773333" lon="-0.45768833">
        <ele>865.0</ele>
        <time>2017-05-27T06:46:58.173Z</time>
      </trkpt>
      <trkpt lat="39.98773333" lon="-0.45768833">
        <ele>865.0</ele>
        <time>2017-05-27T06:46:59.169Z</time>
      </trkpt>
      <trkpt lat="39.9877" lon="-0.45773167">
        <ele>865.0</ele>
        <time>2017-05-27T06:47:00.186Z</time>
      </trkpt>
      <trkpt lat="39.9877" lon="-0.45773167">
        <ele>865.0</ele>
        <time>2017-05-27T06:47:01.170Z</time>
      </trkpt>
      <trkpt lat="39.98767167" lon="-0.45777333">
        <ele>866.0</ele>
        <time>2017-05-27T06:47:02.184Z</time>
      </trkpt>
      <trkpt lat="39.98767167" lon="-0.45777333">
        <ele>866.0</ele>
        <time>2017-05-27T06:47:03.160Z</time>
      </trkpt>
      <trkpt lat="39.98763833" lon="-0.457815">
        <ele>866.0</ele>
        <time>2017-05-27T06:47:04.194Z</time>
      </trkpt>
      <trkpt lat="39.98762167" lon="-0.45783667">
        <ele>866.0</ele>
        <time>2017-05-27T06:47:05.176Z</time>
      </trkpt>
      <trkpt lat="39.98762167" lon="-0.45783667">
        <ele>866.0</ele>
        <time>2017-05-27T06:47:06.181Z</time>
      </trkpt>
      <trkpt lat="39.98759" lon="-0.45787333">
        <ele>867.0</ele>
        <time>2017-05-27T06:47:07.190Z</time>
      </trkpt>
      <trkpt lat="39.98759" lon="-0.45787333">
        <ele>867.0</ele>
        <time>2017-05-27T06:47:08.157Z</time>
      </trkpt>
      <trkpt lat="39.98755667" lon="-0.45790333">
        <ele>867.0</ele>
        <time>2017-05-27T06:47:09.181Z</time>
      </trkpt>
      <trkpt lat="39.98755667" lon="-0.45790333">
        <ele>867.0</ele>
        <time>2017-05-27T06:47:10.159Z</time>
      </trkpt>
      <trkpt lat="39.98752333" lon="-0.457935">
        <ele>867.0</ele>
        <time>2017-05-27T06:47:11.164Z</time>
      </trkpt>
      <trkpt lat="39.98752333" lon="-0.457935">
        <ele>867.0</ele>
        <time>2017-05-27T06:47:12.169Z</time>
      </trkpt>
      <trkpt lat="39.98749" lon="-0.45797167">
        <ele>867.0</ele>
        <time>2017-05-27T06:47:13.158Z</time>
      </trkpt>
      <trkpt lat="39.98749" lon="-0.45797167">
        <ele>867.0</ele>
        <time>2017-05-27T06:47:14.175Z</time>
      </trkpt>
      <trkpt lat="39.98746" lon="-0.45800833">
        <ele>868.0</ele>
        <time>2017-05-27T06:47:15.195Z</time>
      </trkpt>
      <trkpt lat="39.98746" lon="-0.45800833">
        <ele>868.0</ele>
        <time>2017-05-27T06:47:16.171Z</time>
      </trkpt>
      <trkpt lat="39.98742667" lon="-0.458045">
        <ele>868.0</ele>
        <time>2017-05-27T06:47:17.191Z</time>
      </trkpt>
      <trkpt lat="39.98742667" lon="-0.458045">
        <ele>868.0</ele>
        <time>2017-05-27T06:47:18.173Z</time>
      </trkpt>
      <trkpt lat="39.987395" lon="-0.45808333">
        <ele>868.0</ele>
        <time>2017-05-27T06:47:19.161Z</time>
      </trkpt>
      <trkpt lat="39.98737667" lon="-0.458105">
        <ele>868.0</ele>
        <time>2017-05-27T06:47:20.182Z</time>
      </trkpt>
      <trkpt lat="39.98737667" lon="-0.458105">
        <ele>868.0</ele>
        <time>2017-05-27T06:47:21.177Z</time>
      </trkpt>
      <trkpt lat="39.98734333" lon="-0.45814333">
        <ele>868.0</ele>
        <time>2017-05-27T06:47:22.156Z</time>
      </trkpt>
      <trkpt lat="39.98732833" lon="-0.45815833">
        <ele>869.0</ele>
        <time>2017-05-27T06:47:23.168Z</time>
      </trkpt>
      <trkpt lat="39.98732833" lon="-0.45815833">
        <ele>869.0</ele>
        <time>2017-05-27T06:47:24.176Z</time>
      </trkpt>
      <trkpt lat="39.98730167" lon="-0.45818167">
        <ele>869.0</ele>
        <time>2017-05-27T06:47:25.187Z</time>
      </trkpt>
      <trkpt lat="39.98728833" lon="-0.45819833">
        <ele>869.0</ele>
        <time>2017-05-27T06:47:26.156Z</time>
      </trkpt>
      <trkpt lat="39.98728833" lon="-0.45819833">
        <ele>869.0</ele>
        <time>2017-05-27T06:47:27.159Z</time>
      </trkpt>
      <trkpt lat="39.98725667" lon="-0.45823167">
        <ele>870.0</ele>
        <time>2017-05-27T06:47:28.167Z</time>
      </trkpt>
      <trkpt lat="39.98724167" lon="-0.45825">
        <ele>870.0</ele>
        <time>2017-05-27T06:47:29.163Z</time>
      </trkpt>
      <trkpt lat="39.98724167" lon="-0.45825">
        <ele>870.0</ele>
        <time>2017-05-27T06:47:30.193Z</time>
      </trkpt>
      <trkpt lat="39.98721333" lon="-0.45828333">
        <ele>871.0</ele>
        <time>2017-05-27T06:47:31.160Z</time>
      </trkpt>
      <trkpt lat="39.98721333" lon="-0.45828333">
        <ele>871.0</ele>
        <time>2017-05-27T06:47:32.187Z</time>
      </trkpt>
      <trkpt lat="39.98718333" lon="-0.45831667">
        <ele>871.0</ele>
        <time>2017-05-27T06:47:33.158Z</time>
      </trkpt>
      <trkpt lat="39.98716833" lon="-0.45833">
        <ele>871.0</ele>
        <time>2017-05-27T06:47:34.195Z</time>
      </trkpt>
      <trkpt lat="39.98715167" lon="-0.45834667">
        <ele>872.0</ele>
        <time>2017-05-27T06:47:35.194Z</time>
      </trkpt>
      <trkpt lat="39.98715167" lon="-0.45834667">
        <ele>872.0</ele>
        <time>2017-05-27T06:47:36.159Z</time>
      </trkpt>
      <trkpt lat="39.98712167" lon="-0.45838167">
        <ele>872.0</ele>
        <time>2017-05-27T06:47:37.171Z</time>
      </trkpt>
      <trkpt lat="39.98710833" lon="-0.45839833">
        <ele>872.0</ele>
        <time>2017-05-27T06:47:38.164Z</time>
      </trkpt>
      <trkpt lat="39.98710833" lon="-0.45839833">
        <ele>872.0</ele>
        <time>2017-05-27T06:47:39.164Z</time>
      </trkpt>
      <trkpt lat="39.98707833" lon="-0.45843">
        <ele>873.0</ele>
        <time>2017-05-27T06:47:40.175Z</time>
      </trkpt>
      <trkpt lat="39.98706167" lon="-0.458445">
        <ele>874.0</ele>
        <time>2017-05-27T06:47:41.161Z</time>
      </trkpt>
      <trkpt lat="39.98706167" lon="-0.458445">
        <ele>874.0</ele>
        <time>2017-05-27T06:47:42.166Z</time>
      </trkpt>
      <trkpt lat="39.98702833" lon="-0.45847167">
        <ele>874.0</ele>
        <time>2017-05-27T06:47:43.182Z</time>
      </trkpt>
      <trkpt lat="39.98701" lon="-0.458485">
        <ele>874.0</ele>
        <time>2017-05-27T06:47:44.156Z</time>
      </trkpt>
      <trkpt lat="39.98701" lon="-0.458485">
        <ele>874.0</ele>
        <time>2017-05-27T06:47:45.158Z</time>
      </trkpt>
      <trkpt lat="39.98697667" lon="-0.45851167">
        <ele>875.0</ele>
        <time>2017-05-27T06:47:46.174Z</time>
      </trkpt>
      <trkpt lat="39.98696" lon="-0.45852667">
        <ele>875.0</ele>
        <time>2017-05-27T06:47:47.156Z</time>
      </trkpt>
      <trkpt lat="39.98696" lon="-0.45852667">
        <ele>875.0</ele>
        <time>2017-05-27T06:47:48.163Z</time>
      </trkpt>
      <trkpt lat="39.98693" lon="-0.45856">
        <ele>875.0</ele>
        <time>2017-05-27T06:47:49.172Z</time>
      </trkpt>
      <trkpt lat="39.98691333" lon="-0.45857">
        <ele>875.0</ele>
        <time>2017-05-27T06:47:50.197Z</time>
      </trkpt>
      <trkpt lat="39.98691333" lon="-0.45857">
        <ele>875.0</ele>
        <time>2017-05-27T06:47:51.183Z</time>
      </trkpt>
      <trkpt lat="39.98687833" lon="-0.45859667">
        <ele>876.0</ele>
        <time>2017-05-27T06:47:52.195Z</time>
      </trkpt>
      <trkpt lat="39.98686167" lon="-0.45860833">
        <ele>876.0</ele>
        <time>2017-05-27T06:47:53.178Z</time>
      </trkpt>
      <trkpt lat="39.98686167" lon="-0.45860833">
        <ele>876.0</ele>
        <time>2017-05-27T06:47:54.185Z</time>
      </trkpt>
      <trkpt lat="39.98683" lon="-0.458635">
        <ele>876.0</ele>
        <time>2017-05-27T06:47:55.159Z</time>
      </trkpt>
      <trkpt lat="39.98683" lon="-0.458635">
        <ele>876.0</ele>
        <time>2017-05-27T06:47:56.176Z</time>
      </trkpt>
      <trkpt lat="39.98679667" lon="-0.458655">
        <ele>876.0</ele>
        <time>2017-05-27T06:47:57.187Z</time>
      </trkpt>
      <trkpt lat="39.98679667" lon="-0.458655">
        <ele>876.0</ele>
        <time>2017-05-27T06:47:58.180Z</time>
      </trkpt>
      <trkpt lat="39.98676167" lon="-0.45866167">
        <ele>876.0</ele>
        <time>2017-05-27T06:47:59.195Z</time>
      </trkpt>
      <trkpt lat="39.98676167" lon="-0.45866167">
        <ele>876.0</ele>
        <time>2017-05-27T06:48:00.166Z</time>
      </trkpt>
      <trkpt lat="39.98672667" lon="-0.458675">
        <ele>877.0</ele>
        <time>2017-05-27T06:48:01.176Z</time>
      </trkpt>
      <trkpt lat="39.98670833" lon="-0.45868333">
        <ele>877.0</ele>
        <time>2017-05-27T06:48:02.164Z</time>
      </trkpt>
      <trkpt lat="39.98669167" lon="-0.45869333">
        <ele>877.0</ele>
        <time>2017-05-27T06:48:03.188Z</time>
      </trkpt>
      <trkpt lat="39.986675" lon="-0.45870167">
        <ele>877.0</ele>
        <time>2017-05-27T06:48:04.173Z</time>
      </trkpt>
      <trkpt lat="39.986675" lon="-0.45870167">
        <ele>877.0</ele>
        <time>2017-05-27T06:48:05.162Z</time>
      </trkpt>
      <trkpt lat="39.98664" lon="-0.45871167">
        <ele>877.0</ele>
        <time>2017-05-27T06:48:06.176Z</time>
      </trkpt>
      <trkpt lat="39.98664" lon="-0.45871167">
        <ele>877.0</ele>
        <time>2017-05-27T06:48:07.161Z</time>
      </trkpt>
      <trkpt lat="39.98660333" lon="-0.45871833">
        <ele>878.0</ele>
        <time>2017-05-27T06:48:08.185Z</time>
      </trkpt>
      <trkpt lat="39.98660333" lon="-0.45871833">
        <ele>878.0</ele>
        <time>2017-05-27T06:48:09.165Z</time>
      </trkpt>
      <trkpt lat="39.98656167" lon="-0.45872">
        <ele>878.0</ele>
        <time>2017-05-27T06:48:10.176Z</time>
      </trkpt>
      <trkpt lat="39.98656167" lon="-0.45872">
        <ele>878.0</ele>
        <time>2017-05-27T06:48:11.174Z</time>
      </trkpt>
      <trkpt lat="39.98652167" lon="-0.45871667">
        <ele>878.0</ele>
        <time>2017-05-27T06:48:12.189Z</time>
      </trkpt>
      <trkpt lat="39.98650167" lon="-0.45871333">
        <ele>879.0</ele>
        <time>2017-05-27T06:48:13.169Z</time>
      </trkpt>
      <trkpt lat="39.98648167" lon="-0.45871">
        <ele>879.0</ele>
        <time>2017-05-27T06:48:14.195Z</time>
      </trkpt>
      <trkpt lat="39.98648167" lon="-0.45871">
        <ele>879.0</ele>
        <time>2017-05-27T06:48:15.189Z</time>
      </trkpt>
      <trkpt lat="39.98644333" lon="-0.45869833">
        <ele>879.0</ele>
        <time>2017-05-27T06:48:16.160Z</time>
      </trkpt>
      <trkpt lat="39.986425" lon="-0.45869">
        <ele>879.0</ele>
        <time>2017-05-27T06:48:17.171Z</time>
      </trkpt>
      <trkpt lat="39.986425" lon="-0.45869">
        <ele>879.0</ele>
        <time>2017-05-27T06:48:18.194Z</time>
      </trkpt>
      <trkpt lat="39.98638667" lon="-0.458675">
        <ele>880.0</ele>
        <time>2017-05-27T06:48:19.159Z</time>
      </trkpt>
      <trkpt lat="39.98638667" lon="-0.458675">
        <ele>880.0</ele>
        <time>2017-05-27T06:48:20.192Z</time>
      </trkpt>
      <trkpt lat="39.98635" lon="-0.458645">
        <ele>880.0</ele>
        <time>2017-05-27T06:48:21.177Z</time>
      </trkpt>
      <trkpt lat="39.98635" lon="-0.458645">
        <ele>880.0</ele>
        <time>2017-05-27T06:48:22.191Z</time>
      </trkpt>
      <trkpt lat="39.98630833" lon="-0.45862167">
        <ele>880.0</ele>
        <time>2017-05-27T06:48:23.159Z</time>
      </trkpt>
      <trkpt lat="39.98630833" lon="-0.45862167">
        <ele>880.0</ele>
        <time>2017-05-27T06:48:24.175Z</time>
      </trkpt>
      <trkpt lat="39.98627167" lon="-0.45859333">
        <ele>881.0</ele>
        <time>2017-05-27T06:48:25.195Z</time>
      </trkpt>
      <trkpt lat="39.98627167" lon="-0.45859333">
        <ele>881.0</ele>
        <time>2017-05-27T06:48:26.163Z</time>
      </trkpt>
      <trkpt lat="39.98623667" lon="-0.45855667">
        <ele>881.0</ele>
        <time>2017-05-27T06:48:27.173Z</time>
      </trkpt>
      <trkpt lat="39.98621833" lon="-0.45853167">
        <ele>881.0</ele>
        <time>2017-05-27T06:48:28.169Z</time>
      </trkpt>
      <trkpt lat="39.98621833" lon="-0.45853167">
        <ele>881.0</ele>
        <time>2017-05-27T06:48:29.190Z</time>
      </trkpt>
      <trkpt lat="39.98617667" lon="-0.458505">
        <ele>881.0</ele>
        <time>2017-05-27T06:48:30.160Z</time>
      </trkpt>
      <trkpt lat="39.98617667" lon="-0.458505">
        <ele>881.0</ele>
        <time>2017-05-27T06:48:31.176Z</time>
      </trkpt>
      <trkpt lat="39.98613667" lon="-0.45848167">
        <ele>881.0</ele>
        <time>2017-05-27T06:48:32.185Z</time>
      </trkpt>
      <trkpt lat="39.98612" lon="-0.45846667">
        <ele>881.0</ele>
        <time>2017-05-27T06:48:33.159Z</time>
      </trkpt>
      <trkpt lat="39.98612" lon="-0.45846667">
        <ele>881.0</ele>
        <time>2017-05-27T06:48:34.185Z</time>
      </trkpt>
      <trkpt lat="39.98608167" lon="-0.45844167">
        <ele>881.0</ele>
        <time>2017-05-27T06:48:35.159Z</time>
      </trkpt>
      <trkpt lat="39.98608167" lon="-0.45844167">
        <ele>881.0</ele>
        <time>2017-05-27T06:48:36.186Z</time>
      </trkpt>
      <trkpt lat="39.98604333" lon="-0.45841167">
        <ele>881.0</ele>
        <time>2017-05-27T06:48:37.173Z</time>
      </trkpt>
      <trkpt lat="39.98602667" lon="-0.45840167">
        <ele>881.0</ele>
        <time>2017-05-27T06:48:38.167Z</time>
      </trkpt>
      <trkpt lat="39.98602667" lon="-0.45840167">
        <ele>881.0</ele>
        <time>2017-05-27T06:48:39.184Z</time>
      </trkpt>
      <trkpt lat="39.98599" lon="-0.458385">
        <ele>881.0</ele>
        <time>2017-05-27T06:48:40.171Z</time>
      </trkpt>
      <trkpt lat="39.98599" lon="-0.458385">
        <ele>881.0</ele>
        <time>2017-05-27T06:48:41.172Z</time>
      </trkpt>
      <trkpt lat="39.98595167" lon="-0.45836">
        <ele>881.0</ele>
        <time>2017-05-27T06:48:42.186Z</time>
      </trkpt>
      <trkpt lat="39.98595167" lon="-0.45836">
        <ele>881.0</ele>
        <time>2017-05-27T06:48:43.171Z</time>
      </trkpt>
      <trkpt lat="39.98591167" lon="-0.45834">
        <ele>881.0</ele>
        <time>2017-05-27T06:48:44.195Z</time>
      </trkpt>
      <trkpt lat="39.98591167" lon="-0.45834">
        <ele>881.0</ele>
        <time>2017-05-27T06:48:45.161Z</time>
      </trkpt>
      <trkpt lat="39.98587" lon="-0.45832">
        <ele>881.0</ele>
        <time>2017-05-27T06:48:46.183Z</time>
      </trkpt>
      <trkpt lat="39.98587" lon="-0.45832">
        <ele>881.0</ele>
        <time>2017-05-27T06:48:47.164Z</time>
      </trkpt>
      <trkpt lat="39.98582667" lon="-0.45831">
        <ele>881.0</ele>
        <time>2017-05-27T06:48:48.200Z</time>
      </trkpt>
      <trkpt lat="39.98582667" lon="-0.45831">
        <ele>881.0</ele>
        <time>2017-05-27T06:48:49.165Z</time>
      </trkpt>
      <trkpt lat="39.98578" lon="-0.458305">
        <ele>881.0</ele>
        <time>2017-05-27T06:48:50.180Z</time>
      </trkpt>
      <trkpt lat="39.98576" lon="-0.45830667">
        <ele>881.0</ele>
        <time>2017-05-27T06:48:51.174Z</time>
      </trkpt>
      <trkpt lat="39.98576" lon="-0.45830667">
        <ele>881.0</ele>
        <time>2017-05-27T06:48:52.190Z</time>
      </trkpt>
      <trkpt lat="39.98572" lon="-0.45832167">
        <ele>881.0</ele>
        <time>2017-05-27T06:48:53.164Z</time>
      </trkpt>
      <trkpt lat="39.98572" lon="-0.45832167">
        <ele>881.0</ele>
        <time>2017-05-27T06:48:54.157Z</time>
      </trkpt>
      <trkpt lat="39.98568167" lon="-0.45835">
        <ele>882.0</ele>
        <time>2017-05-27T06:48:55.171Z</time>
      </trkpt>
      <trkpt lat="39.98566667" lon="-0.45836667">
        <ele>882.0</ele>
        <time>2017-05-27T06:48:56.165Z</time>
      </trkpt>
      <trkpt lat="39.98566667" lon="-0.45836667">
        <ele>882.0</ele>
        <time>2017-05-27T06:48:57.186Z</time>
      </trkpt>
      <trkpt lat="39.98564333" lon="-0.458415">
        <ele>882.0</ele>
        <time>2017-05-27T06:48:58.158Z</time>
      </trkpt>
      <trkpt lat="39.98564333" lon="-0.458415">
        <ele>882.0</ele>
        <time>2017-05-27T06:48:59.176Z</time>
      </trkpt>
      <trkpt lat="39.98562667" lon="-0.45846167">
        <ele>882.0</ele>
        <time>2017-05-27T06:49:00.189Z</time>
      </trkpt>
      <trkpt lat="39.98562667" lon="-0.45846167">
        <ele>882.0</ele>
        <time>2017-05-27T06:49:01.175Z</time>
      </trkpt>
      <trkpt lat="39.98561333" lon="-0.45851333">
        <ele>883.0</ele>
        <time>2017-05-27T06:49:02.160Z</time>
      </trkpt>
      <trkpt lat="39.98560333" lon="-0.458545">
        <ele>883.0</ele>
        <time>2017-05-27T06:49:03.187Z</time>
      </trkpt>
      <trkpt lat="39.98560333" lon="-0.458545">
        <ele>883.0</ele>
        <time>2017-05-27T06:49:04.195Z</time>
      </trkpt>
      <trkpt lat="39.98558833" lon="-0.45860833">
        <ele>884.0</ele>
        <time>2017-05-27T06:49:05.163Z</time>
      </trkpt>
      <trkpt lat="39.98558833" lon="-0.45860833">
        <ele>884.0</ele>
        <time>2017-05-27T06:49:06.174Z</time>
      </trkpt>
      <trkpt lat="39.985585" lon="-0.45865833">
        <ele>885.0</ele>
        <time>2017-05-27T06:49:07.182Z</time>
      </trkpt>
      <trkpt lat="39.985585" lon="-0.45865833">
        <ele>885.0</ele>
        <time>2017-05-27T06:49:08.184Z</time>
      </trkpt>
      <trkpt lat="39.98557833" lon="-0.45871333">
        <ele>887.0</ele>
        <time>2017-05-27T06:49:09.174Z</time>
      </trkpt>
      <trkpt lat="39.98557167" lon="-0.45874333">
        <ele>887.0</ele>
        <time>2017-05-27T06:49:10.178Z</time>
      </trkpt>
      <trkpt lat="39.98557167" lon="-0.45874333">
        <ele>887.0</ele>
        <time>2017-05-27T06:49:11.163Z</time>
      </trkpt>
      <trkpt lat="39.98557167" lon="-0.45879833">
        <ele>888.0</ele>
        <time>2017-05-27T06:49:12.181Z</time>
      </trkpt>
      <trkpt lat="39.98557333" lon="-0.45883167">
        <ele>888.0</ele>
        <time>2017-05-27T06:49:13.191Z</time>
      </trkpt>
      <trkpt lat="39.98557333" lon="-0.45883167">
        <ele>888.0</ele>
        <time>2017-05-27T06:49:14.166Z</time>
      </trkpt>
      <trkpt lat="39.985575" lon="-0.45889333">
        <ele>889.0</ele>
        <time>2017-05-27T06:49:15.180Z</time>
      </trkpt>
      <trkpt lat="39.98557167" lon="-0.45892167">
        <ele>890.0</ele>
        <time>2017-05-27T06:49:16.179Z</time>
      </trkpt>
      <trkpt lat="39.98556833" lon="-0.45895167">
        <ele>890.0</ele>
        <time>2017-05-27T06:49:17.185Z</time>
      </trkpt>
      <trkpt lat="39.98556833" lon="-0.45895167">
        <ele>890.0</ele>
        <time>2017-05-27T06:49:18.159Z</time>
      </trkpt>
      <trkpt lat="39.985565" lon="-0.45901333">
        <ele>890.0</ele>
        <time>2017-05-27T06:49:19.167Z</time>
      </trkpt>
      <trkpt lat="39.98556833" lon="-0.45904167">
        <ele>891.0</ele>
        <time>2017-05-27T06:49:20.193Z</time>
      </trkpt>
      <trkpt lat="39.98556833" lon="-0.45904167">
        <ele>891.0</ele>
        <time>2017-05-27T06:49:21.182Z</time>
      </trkpt>
      <trkpt lat="39.98557" lon="-0.45910167">
        <ele>891.0</ele>
        <time>2017-05-27T06:49:22.158Z</time>
      </trkpt>
      <trkpt lat="39.98557" lon="-0.45913">
        <ele>891.0</ele>
        <time>2017-05-27T06:49:23.173Z</time>
      </trkpt>
      <trkpt lat="39.98557" lon="-0.45913">
        <ele>891.0</ele>
        <time>2017-05-27T06:49:24.179Z</time>
      </trkpt>
      <trkpt lat="39.98556167" lon="-0.459185">
        <ele>891.0</ele>
        <time>2017-05-27T06:49:25.159Z</time>
      </trkpt>
      <trkpt lat="39.98556167" lon="-0.459185">
        <ele>891.0</ele>
        <time>2017-05-27T06:49:26.187Z</time>
      </trkpt>
      <trkpt lat="39.98555833" lon="-0.45924333">
        <ele>892.0</ele>
        <time>2017-05-27T06:49:27.180Z</time>
      </trkpt>
      <trkpt lat="39.98555833" lon="-0.45924333">
        <ele>892.0</ele>
        <time>2017-05-27T06:49:28.166Z</time>
      </trkpt>
      <trkpt lat="39.98554833" lon="-0.4593">
        <ele>892.0</ele>
        <time>2017-05-27T06:49:29.180Z</time>
      </trkpt>
      <trkpt lat="39.98553333" lon="-0.459325">
        <ele>892.0</ele>
        <time>2017-05-27T06:49:30.194Z</time>
      </trkpt>
      <trkpt lat="39.98553333" lon="-0.459325">
        <ele>892.0</ele>
        <time>2017-05-27T06:49:31.165Z</time>
      </trkpt>
      <trkpt lat="39.98551167" lon="-0.45938">
        <ele>892.0</ele>
        <time>2017-05-27T06:49:32.173Z</time>
      </trkpt>
      <trkpt lat="39.98550333" lon="-0.45940667">
        <ele>892.0</ele>
        <time>2017-05-27T06:49:33.183Z</time>
      </trkpt>
      <trkpt lat="39.98550333" lon="-0.45940667">
        <ele>892.0</ele>
        <time>2017-05-27T06:49:34.157Z</time>
      </trkpt>
      <trkpt lat="39.98549" lon="-0.45946333">
        <ele>893.0</ele>
        <time>2017-05-27T06:49:35.164Z</time>
      </trkpt>
      <trkpt lat="39.98549" lon="-0.45946333">
        <ele>893.0</ele>
        <time>2017-05-27T06:49:36.173Z</time>
      </trkpt>
      <trkpt lat="39.985475" lon="-0.45952">
        <ele>893.0</ele>
        <time>2017-05-27T06:49:37.188Z</time>
      </trkpt>
      <trkpt lat="39.985475" lon="-0.45952">
        <ele>893.0</ele>
        <time>2017-05-27T06:49:38.195Z</time>
      </trkpt>
      <trkpt lat="39.98546167" lon="-0.45957667">
        <ele>893.0</ele>
        <time>2017-05-27T06:49:39.170Z</time>
      </trkpt>
      <trkpt lat="39.98545333" lon="-0.459605">
        <ele>894.0</ele>
        <time>2017-05-27T06:49:40.162Z</time>
      </trkpt>
      <trkpt lat="39.98545333" lon="-0.459605">
        <ele>894.0</ele>
        <time>2017-05-27T06:49:41.176Z</time>
      </trkpt>
      <trkpt lat="39.98543833" lon="-0.45966">
        <ele>894.0</ele>
        <time>2017-05-27T06:49:42.190Z</time>
      </trkpt>
      <trkpt lat="39.98543" lon="-0.45968833">
        <ele>894.0</ele>
        <time>2017-05-27T06:49:43.162Z</time>
      </trkpt>
      <trkpt lat="39.98543" lon="-0.45968833">
        <ele>894.0</ele>
        <time>2017-05-27T06:49:44.172Z</time>
      </trkpt>
      <trkpt lat="39.98541667" lon="-0.45974833">
        <ele>895.0</ele>
        <time>2017-05-27T06:49:45.188Z</time>
      </trkpt>
      <trkpt lat="39.98541667" lon="-0.45974833">
        <ele>895.0</ele>
        <time>2017-05-27T06:49:46.161Z</time>
      </trkpt>
      <trkpt lat="39.98540167" lon="-0.459805">
        <ele>895.0</ele>
        <time>2017-05-27T06:49:47.196Z</time>
      </trkpt>
      <trkpt lat="39.98540167" lon="-0.459805">
        <ele>895.0</ele>
        <time>2017-05-27T06:49:48.160Z</time>
      </trkpt>
      <trkpt lat="39.98539167" lon="-0.45986667">
        <ele>896.0</ele>
        <time>2017-05-27T06:49:49.173Z</time>
      </trkpt>
      <trkpt lat="39.98538833" lon="-0.45989667">
        <ele>897.0</ele>
        <time>2017-05-27T06:49:50.192Z</time>
      </trkpt>
      <trkpt lat="39.98538833" lon="-0.45989667">
        <ele>897.0</ele>
        <time>2017-05-27T06:49:51.164Z</time>
      </trkpt>
      <trkpt lat="39.98538333" lon="-0.45995667">
        <ele>897.0</ele>
        <time>2017-05-27T06:49:52.181Z</time>
      </trkpt>
      <trkpt lat="39.98538" lon="-0.45998667">
        <ele>898.0</ele>
        <time>2017-05-27T06:49:53.192Z</time>
      </trkpt>
      <trkpt lat="39.98538" lon="-0.45998667">
        <ele>898.0</ele>
        <time>2017-05-27T06:49:54.157Z</time>
      </trkpt>
      <trkpt lat="39.98538333" lon="-0.46005">
        <ele>898.0</ele>
        <time>2017-05-27T06:49:55.174Z</time>
      </trkpt>
      <trkpt lat="39.98538333" lon="-0.46005">
        <ele>898.0</ele>
        <time>2017-05-27T06:49:56.159Z</time>
      </trkpt>
      <trkpt lat="39.98538833" lon="-0.46011167">
        <ele>899.0</ele>
        <time>2017-05-27T06:49:57.195Z</time>
      </trkpt>
      <trkpt lat="39.98538833" lon="-0.46011167">
        <ele>899.0</ele>
        <time>2017-05-27T06:49:58.158Z</time>
      </trkpt>
      <trkpt lat="39.98539167" lon="-0.46017333">
        <ele>899.0</ele>
        <time>2017-05-27T06:49:59.169Z</time>
      </trkpt>
      <trkpt lat="39.98539167" lon="-0.46017333">
        <ele>899.0</ele>
        <time>2017-05-27T06:50:00.189Z</time>
      </trkpt>
      <trkpt lat="39.98540167" lon="-0.46023833">
        <ele>899.0</ele>
        <time>2017-05-27T06:50:01.194Z</time>
      </trkpt>
      <trkpt lat="39.98540167" lon="-0.46023833">
        <ele>899.0</ele>
        <time>2017-05-27T06:50:02.186Z</time>
      </trkpt>
      <trkpt lat="39.98540333" lon="-0.460305">
        <ele>900.0</ele>
        <time>2017-05-27T06:50:03.159Z</time>
      </trkpt>
      <trkpt lat="39.98540333" lon="-0.460305">
        <ele>900.0</ele>
        <time>2017-05-27T06:50:04.173Z</time>
      </trkpt>
      <trkpt lat="39.98541333" lon="-0.46036833">
        <ele>900.0</ele>
        <time>2017-05-27T06:50:05.191Z</time>
      </trkpt>
      <trkpt lat="39.98541333" lon="-0.46036833">
        <ele>900.0</ele>
        <time>2017-05-27T06:50:06.163Z</time>
      </trkpt>
      <trkpt lat="39.98542" lon="-0.46043">
        <ele>900.0</ele>
        <time>2017-05-27T06:50:07.159Z</time>
      </trkpt>
      <trkpt lat="39.98542" lon="-0.46043">
        <ele>900.0</ele>
        <time>2017-05-27T06:50:08.157Z</time>
      </trkpt>
      <trkpt lat="39.98544167" lon="-0.46048833">
        <ele>901.0</ele>
        <time>2017-05-27T06:50:09.165Z</time>
      </trkpt>
      <trkpt lat="39.98544167" lon="-0.46048833">
        <ele>901.0</ele>
        <time>2017-05-27T06:50:10.182Z</time>
      </trkpt>
      <trkpt lat="39.98545833" lon="-0.46055333">
        <ele>901.0</ele>
        <time>2017-05-27T06:50:11.190Z</time>
      </trkpt>
      <trkpt lat="39.98545833" lon="-0.46055333">
        <ele>901.0</ele>
        <time>2017-05-27T06:50:12.161Z</time>
      </trkpt>
      <trkpt lat="39.98547" lon="-0.46061833">
        <ele>901.0</ele>
        <time>2017-05-27T06:50:13.194Z</time>
      </trkpt>
      <trkpt lat="39.98547" lon="-0.46061833">
        <ele>901.0</ele>
        <time>2017-05-27T06:50:14.164Z</time>
      </trkpt>
      <trkpt lat="39.98548167" lon="-0.46067833">
        <ele>901.0</ele>
        <time>2017-05-27T06:50:15.179Z</time>
      </trkpt>
      <trkpt lat="39.98548167" lon="-0.46067833">
        <ele>901.0</ele>
        <time>2017-05-27T06:50:16.161Z</time>
      </trkpt>
      <trkpt lat="39.9855" lon="-0.460745">
        <ele>901.0</ele>
        <time>2017-05-27T06:50:17.173Z</time>
      </trkpt>
      <trkpt lat="39.9855" lon="-0.460745">
        <ele>901.0</ele>
        <time>2017-05-27T06:50:18.195Z</time>
      </trkpt>
      <trkpt lat="39.98551333" lon="-0.46081">
        <ele>902.0</ele>
        <time>2017-05-27T06:50:19.156Z</time>
      </trkpt>
      <trkpt lat="39.98551333" lon="-0.46081">
        <ele>902.0</ele>
        <time>2017-05-27T06:50:20.181Z</time>
      </trkpt>
      <trkpt lat="39.985525" lon="-0.460875">
        <ele>902.0</ele>
        <time>2017-05-27T06:50:21.189Z</time>
      </trkpt>
      <trkpt lat="39.985525" lon="-0.460875">
        <ele>902.0</ele>
        <time>2017-05-27T06:50:22.170Z</time>
      </trkpt>
      <trkpt lat="39.98553333" lon="-0.46094167">
        <ele>903.0</ele>
        <time>2017-05-27T06:50:23.158Z</time>
      </trkpt>
      <trkpt lat="39.98553333" lon="-0.46094167">
        <ele>903.0</ele>
        <time>2017-05-27T06:50:24.191Z</time>
      </trkpt>
      <trkpt lat="39.98554" lon="-0.46100833">
        <ele>903.0</ele>
        <time>2017-05-27T06:50:25.160Z</time>
      </trkpt>
      <trkpt lat="39.98553833" lon="-0.46104167">
        <ele>903.0</ele>
        <time>2017-05-27T06:50:26.182Z</time>
      </trkpt>
      <trkpt lat="39.98553833" lon="-0.46104167">
        <ele>903.0</ele>
        <time>2017-05-27T06:50:27.162Z</time>
      </trkpt>
      <trkpt lat="39.98554" lon="-0.46110667">
        <ele>904.0</ele>
        <time>2017-05-27T06:50:28.173Z</time>
      </trkpt>
      <trkpt lat="39.98554" lon="-0.46110667">
        <ele>904.0</ele>
        <time>2017-05-27T06:50:29.166Z</time>
      </trkpt>
      <trkpt lat="39.98553667" lon="-0.46117333">
        <ele>904.0</ele>
        <time>2017-05-27T06:50:30.179Z</time>
      </trkpt>
      <trkpt lat="39.98553667" lon="-0.46117333">
        <ele>904.0</ele>
        <time>2017-05-27T06:50:31.169Z</time>
      </trkpt>
      <trkpt lat="39.985525" lon="-0.46124">
        <ele>904.0</ele>
        <time>2017-05-27T06:50:32.182Z</time>
      </trkpt>
      <trkpt lat="39.98551833" lon="-0.46127167">
        <ele>904.0</ele>
        <time>2017-05-27T06:50:33.174Z</time>
      </trkpt>
      <trkpt lat="39.98551833" lon="-0.46127167">
        <ele>904.0</ele>
        <time>2017-05-27T06:50:34.184Z</time>
      </trkpt>
      <trkpt lat="39.985515" lon="-0.46133667">
        <ele>904.0</ele>
        <time>2017-05-27T06:50:35.156Z</time>
      </trkpt>
      <trkpt lat="39.985515" lon="-0.46133667">
        <ele>904.0</ele>
        <time>2017-05-27T06:50:36.167Z</time>
      </trkpt>
      <trkpt lat="39.98550667" lon="-0.461405">
        <ele>904.0</ele>
        <time>2017-05-27T06:50:37.186Z</time>
      </trkpt>
      <trkpt lat="39.9855" lon="-0.46143833">
        <ele>904.0</ele>
        <time>2017-05-27T06:50:38.169Z</time>
      </trkpt>
      <trkpt lat="39.9855" lon="-0.46143833">
        <ele>904.0</ele>
        <time>2017-05-27T06:50:39.183Z</time>
      </trkpt>
      <trkpt lat="39.98548667" lon="-0.46150667">
        <ele>905.0</ele>
        <time>2017-05-27T06:50:40.188Z</time>
      </trkpt>
      <trkpt lat="39.98548667" lon="-0.46150667">
        <ele>905.0</ele>
        <time>2017-05-27T06:50:41.185Z</time>
      </trkpt>
      <trkpt lat="39.98547333" lon="-0.46158">
        <ele>905.0</ele>
        <time>2017-05-27T06:50:42.181Z</time>
      </trkpt>
      <trkpt lat="39.98546667" lon="-0.461615">
        <ele>905.0</ele>
        <time>2017-05-27T06:50:43.171Z</time>
      </trkpt>
      <trkpt lat="39.98546667" lon="-0.461615">
        <ele>905.0</ele>
        <time>2017-05-27T06:50:44.156Z</time>
      </trkpt>
      <trkpt lat="39.98545333" lon="-0.46168167">
        <ele>905.0</ele>
        <time>2017-05-27T06:50:45.173Z</time>
      </trkpt>
      <trkpt lat="39.985445" lon="-0.461715">
        <ele>905.0</ele>
        <time>2017-05-27T06:50:46.172Z</time>
      </trkpt>
      <trkpt lat="39.98543667" lon="-0.46174833">
        <ele>905.0</ele>
        <time>2017-05-27T06:50:47.177Z</time>
      </trkpt>
      <trkpt lat="39.98543667" lon="-0.46174833">
        <ele>905.0</ele>
        <time>2017-05-27T06:50:48.186Z</time>
      </trkpt>
      <trkpt lat="39.98541333" lon="-0.46181">
        <ele>906.0</ele>
        <time>2017-05-27T06:50:49.178Z</time>
      </trkpt>
      <trkpt lat="39.98541333" lon="-0.46181">
        <ele>906.0</ele>
        <time>2017-05-27T06:50:50.160Z</time>
      </trkpt>
      <trkpt lat="39.985395" lon="-0.46187667">
        <ele>906.0</ele>
        <time>2017-05-27T06:50:51.174Z</time>
      </trkpt>
      <trkpt lat="39.985395" lon="-0.46187667">
        <ele>906.0</ele>
        <time>2017-05-27T06:50:52.194Z</time>
      </trkpt>
      <trkpt lat="39.98539167" lon="-0.46194333">
        <ele>905.0</ele>
        <time>2017-05-27T06:50:53.172Z</time>
      </trkpt>
      <trkpt lat="39.98539167" lon="-0.46194333">
        <ele>905.0</ele>
        <time>2017-05-27T06:50:54.187Z</time>
      </trkpt>
      <trkpt lat="39.985395" lon="-0.46201167">
        <ele>906.0</ele>
        <time>2017-05-27T06:50:55.176Z</time>
      </trkpt>
      <trkpt lat="39.985395" lon="-0.46201167">
        <ele>906.0</ele>
        <time>2017-05-27T06:50:56.171Z</time>
      </trkpt>
      <trkpt lat="39.98541333" lon="-0.46207333">
        <ele>906.0</ele>
        <time>2017-05-27T06:50:57.184Z</time>
      </trkpt>
      <trkpt lat="39.98543167" lon="-0.46209833">
        <ele>906.0</ele>
        <time>2017-05-27T06:50:58.179Z</time>
      </trkpt>
      <trkpt lat="39.98544667" lon="-0.46212167">
        <ele>906.0</ele>
        <time>2017-05-27T06:50:59.158Z</time>
      </trkpt>
      <trkpt lat="39.98544667" lon="-0.46212167">
        <ele>906.0</ele>
        <time>2017-05-27T06:51:00.165Z</time>
      </trkpt>
      <trkpt lat="39.98548333" lon="-0.462165">
        <ele>906.0</ele>
        <time>2017-05-27T06:51:01.180Z</time>
      </trkpt>
      <trkpt lat="39.98550333" lon="-0.46218667">
        <ele>906.0</ele>
        <time>2017-05-27T06:51:02.177Z</time>
      </trkpt>
      <trkpt lat="39.98550333" lon="-0.46218667">
        <ele>906.0</ele>
        <time>2017-05-27T06:51:03.167Z</time>
      </trkpt>
      <trkpt lat="39.985545" lon="-0.46221333">
        <ele>907.0</ele>
        <time>2017-05-27T06:51:04.176Z</time>
      </trkpt>
      <trkpt lat="39.985565" lon="-0.46223167">
        <ele>907.0</ele>
        <time>2017-05-27T06:51:05.190Z</time>
      </trkpt>
      <trkpt lat="39.985565" lon="-0.46223167">
        <ele>907.0</ele>
        <time>2017-05-27T06:51:06.195Z</time>
      </trkpt>
      <trkpt lat="39.98560667" lon="-0.46227167">
        <ele>907.0</ele>
        <time>2017-05-27T06:51:07.173Z</time>
      </trkpt>
      <trkpt lat="39.98560667" lon="-0.46227167">
        <ele>907.0</ele>
        <time>2017-05-27T06:51:08.194Z</time>
      </trkpt>
      <trkpt lat="39.98564333" lon="-0.46232167">
        <ele>908.0</ele>
        <time>2017-05-27T06:51:09.162Z</time>
      </trkpt>
      <trkpt lat="39.98564333" lon="-0.46232167">
        <ele>908.0</ele>
        <time>2017-05-27T06:51:10.161Z</time>
      </trkpt>
      <trkpt lat="39.98568167" lon="-0.46237">
        <ele>908.0</ele>
        <time>2017-05-27T06:51:11.171Z</time>
      </trkpt>
      <trkpt lat="39.98568167" lon="-0.46237">
        <ele>908.0</ele>
        <time>2017-05-27T06:51:12.174Z</time>
      </trkpt>
      <trkpt lat="39.98572333" lon="-0.46241833">
        <ele>909.0</ele>
        <time>2017-05-27T06:51:13.159Z</time>
      </trkpt>
      <trkpt lat="39.98572333" lon="-0.46241833">
        <ele>909.0</ele>
        <time>2017-05-27T06:51:14.156Z</time>
      </trkpt>
      <trkpt lat="39.98575667" lon="-0.46246833">
        <ele>909.0</ele>
        <time>2017-05-27T06:51:15.174Z</time>
      </trkpt>
      <trkpt lat="39.98575667" lon="-0.46246833">
        <ele>909.0</ele>
        <time>2017-05-27T06:51:16.187Z</time>
      </trkpt>
      <trkpt lat="39.98579167" lon="-0.46252333">
        <ele>909.0</ele>
        <time>2017-05-27T06:51:17.161Z</time>
      </trkpt>
      <trkpt lat="39.98580833" lon="-0.46255167">
        <ele>909.0</ele>
        <time>2017-05-27T06:51:18.195Z</time>
      </trkpt>
      <trkpt lat="39.98580833" lon="-0.46255167">
        <ele>909.0</ele>
        <time>2017-05-27T06:51:19.193Z</time>
      </trkpt>
      <trkpt lat="39.98584167" lon="-0.46261">
        <ele>910.0</ele>
        <time>2017-05-27T06:51:20.173Z</time>
      </trkpt>
      <trkpt lat="39.98585167" lon="-0.46263833">
        <ele>910.0</ele>
        <time>2017-05-27T06:51:21.176Z</time>
      </trkpt>
      <trkpt lat="39.98585167" lon="-0.46263833">
        <ele>910.0</ele>
        <time>2017-05-27T06:51:22.193Z</time>
      </trkpt>
      <trkpt lat="39.98587167" lon="-0.462695">
        <ele>910.0</ele>
        <time>2017-05-27T06:51:23.185Z</time>
      </trkpt>
      <trkpt lat="39.98587167" lon="-0.462695">
        <ele>910.0</ele>
        <time>2017-05-27T06:51:24.165Z</time>
      </trkpt>
      <trkpt lat="39.98589667" lon="-0.46275167">
        <ele>910.0</ele>
        <time>2017-05-27T06:51:25.187Z</time>
      </trkpt>
      <trkpt lat="39.98589667" lon="-0.46275167">
        <ele>910.0</ele>
        <time>2017-05-27T06:51:26.192Z</time>
      </trkpt>
      <trkpt lat="39.985925" lon="-0.46280667">
        <ele>910.0</ele>
        <time>2017-05-27T06:51:27.189Z</time>
      </trkpt>
      <trkpt lat="39.985935" lon="-0.46283667">
        <ele>910.0</ele>
        <time>2017-05-27T06:51:28.159Z</time>
      </trkpt>
      <trkpt lat="39.985945" lon="-0.46286667">
        <ele>911.0</ele>
        <time>2017-05-27T06:51:29.177Z</time>
      </trkpt>
      <trkpt lat="39.985945" lon="-0.46286667">
        <ele>911.0</ele>
        <time>2017-05-27T06:51:30.187Z</time>
      </trkpt>
      <trkpt lat="39.98596667" lon="-0.462925">
        <ele>911.0</ele>
        <time>2017-05-27T06:51:31.181Z</time>
      </trkpt>
      <trkpt lat="39.98596667" lon="-0.462925">
        <ele>911.0</ele>
        <time>2017-05-27T06:51:32.187Z</time>
      </trkpt>
      <trkpt lat="39.98598833" lon="-0.462985">
        <ele>911.0</ele>
        <time>2017-05-27T06:51:33.162Z</time>
      </trkpt>
      <trkpt lat="39.98598833" lon="-0.462985">
        <ele>911.0</ele>
        <time>2017-05-27T06:51:34.163Z</time>
      </trkpt>
      <trkpt lat="39.98599167" lon="-0.46303167">
        <ele>911.0</ele>
        <time>2017-05-27T06:51:35.174Z</time>
      </trkpt>
      <trkpt lat="39.98599167" lon="-0.46303167">
        <ele>911.0</ele>
        <time>2017-05-27T06:51:36.165Z</time>
      </trkpt>
      <trkpt lat="39.98600333" lon="-0.46309">
        <ele>912.0</ele>
        <time>2017-05-27T06:51:37.180Z</time>
      </trkpt>
      <trkpt lat="39.98600333" lon="-0.46309">
        <ele>912.0</ele>
        <time>2017-05-27T06:51:38.194Z</time>
      </trkpt>
      <trkpt lat="39.98602833" lon="-0.46314333">
        <ele>912.0</ele>
        <time>2017-05-27T06:51:39.167Z</time>
      </trkpt>
      <trkpt lat="39.98602833" lon="-0.46314333">
        <ele>912.0</ele>
        <time>2017-05-27T06:51:40.159Z</time>
      </trkpt>
      <trkpt lat="39.98605167" lon="-0.46319833">
        <ele>913.0</ele>
        <time>2017-05-27T06:51:41.170Z</time>
      </trkpt>
      <trkpt lat="39.98605167" lon="-0.46319833">
        <ele>913.0</ele>
        <time>2017-05-27T06:51:42.165Z</time>
      </trkpt>
      <trkpt lat="39.98607" lon="-0.46325667">
        <ele>913.0</ele>
        <time>2017-05-27T06:51:43.180Z</time>
      </trkpt>
      <trkpt lat="39.98607" lon="-0.46325667">
        <ele>913.0</ele>
        <time>2017-05-27T06:51:44.161Z</time>
      </trkpt>
      <trkpt lat="39.98609167" lon="-0.463315">
        <ele>914.0</ele>
        <time>2017-05-27T06:51:45.172Z</time>
      </trkpt>
      <trkpt lat="39.98610167" lon="-0.46334667">
        <ele>914.0</ele>
        <time>2017-05-27T06:51:46.194Z</time>
      </trkpt>
      <trkpt lat="39.98610167" lon="-0.46334667">
        <ele>914.0</ele>
        <time>2017-05-27T06:51:47.173Z</time>
      </trkpt>
      <trkpt lat="39.98612" lon="-0.46341">
        <ele>915.0</ele>
        <time>2017-05-27T06:51:48.196Z</time>
      </trkpt>
      <trkpt lat="39.98612" lon="-0.46341">
        <ele>915.0</ele>
        <time>2017-05-27T06:51:49.169Z</time>
      </trkpt>
      <trkpt lat="39.98613333" lon="-0.46347667">
        <ele>915.0</ele>
        <time>2017-05-27T06:51:50.189Z</time>
      </trkpt>
      <trkpt lat="39.98613667" lon="-0.46350833">
        <ele>915.0</ele>
        <time>2017-05-27T06:51:51.173Z</time>
      </trkpt>
      <trkpt lat="39.98613667" lon="-0.46350833">
        <ele>915.0</ele>
        <time>2017-05-27T06:51:52.182Z</time>
      </trkpt>
      <trkpt lat="39.986135" lon="-0.463575">
        <ele>915.0</ele>
        <time>2017-05-27T06:51:53.195Z</time>
      </trkpt>
      <trkpt lat="39.986135" lon="-0.463575">
        <ele>915.0</ele>
        <time>2017-05-27T06:51:54.171Z</time>
      </trkpt>
      <trkpt lat="39.986135" lon="-0.46364333">
        <ele>915.0</ele>
        <time>2017-05-27T06:51:55.184Z</time>
      </trkpt>
      <trkpt lat="39.986135" lon="-0.46364333">
        <ele>915.0</ele>
        <time>2017-05-27T06:51:56.163Z</time>
      </trkpt>
      <trkpt lat="39.98613667" lon="-0.463715">
        <ele>916.0</ele>
        <time>2017-05-27T06:51:57.175Z</time>
      </trkpt>
      <trkpt lat="39.98613667" lon="-0.46375167">
        <ele>916.0</ele>
        <time>2017-05-27T06:51:58.191Z</time>
      </trkpt>
      <trkpt lat="39.98613333" lon="-0.463785">
        <ele>916.0</ele>
        <time>2017-05-27T06:51:59.162Z</time>
      </trkpt>
      <trkpt lat="39.98613333" lon="-0.463785">
        <ele>916.0</ele>
        <time>2017-05-27T06:52:00.168Z</time>
      </trkpt>
      <trkpt lat="39.98612833" lon="-0.463845">
        <ele>916.0</ele>
        <time>2017-05-27T06:52:01.179Z</time>
      </trkpt>
      <trkpt lat="39.98612833" lon="-0.463845">
        <ele>916.0</ele>
        <time>2017-05-27T06:52:02.193Z</time>
      </trkpt>
      <trkpt lat="39.98613833" lon="-0.46390833">
        <ele>916.0</ele>
        <time>2017-05-27T06:52:03.193Z</time>
      </trkpt>
      <trkpt lat="39.98613833" lon="-0.46390833">
        <ele>916.0</ele>
        <time>2017-05-27T06:52:04.172Z</time>
      </trkpt>
      <trkpt lat="39.98614667" lon="-0.46397667">
        <ele>917.0</ele>
        <time>2017-05-27T06:52:05.184Z</time>
      </trkpt>
      <trkpt lat="39.98614667" lon="-0.46397667">
        <ele>917.0</ele>
        <time>2017-05-27T06:52:06.160Z</time>
      </trkpt>
      <trkpt lat="39.98617333" lon="-0.464035">
        <ele>917.0</ele>
        <time>2017-05-27T06:52:07.168Z</time>
      </trkpt>
      <trkpt lat="39.98617333" lon="-0.464035">
        <ele>917.0</ele>
        <time>2017-05-27T06:52:08.177Z</time>
      </trkpt>
      <trkpt lat="39.98620833" lon="-0.464085">
        <ele>917.0</ele>
        <time>2017-05-27T06:52:09.191Z</time>
      </trkpt>
      <trkpt lat="39.98620833" lon="-0.464085">
        <ele>917.0</ele>
        <time>2017-05-27T06:52:10.159Z</time>
      </trkpt>
      <trkpt lat="39.98626667" lon="-0.464115">
        <ele>917.0</ele>
        <time>2017-05-27T06:52:11.173Z</time>
      </trkpt>
      <trkpt lat="39.98626667" lon="-0.464115">
        <ele>917.0</ele>
        <time>2017-05-27T06:52:12.189Z</time>
      </trkpt>
      <trkpt lat="39.98632" lon="-0.464125">
        <ele>917.0</ele>
        <time>2017-05-27T06:52:13.180Z</time>
      </trkpt>
      <trkpt lat="39.98635167" lon="-0.46412333">
        <ele>918.0</ele>
        <time>2017-05-27T06:52:14.169Z</time>
      </trkpt>
      <trkpt lat="39.98635167" lon="-0.46412333">
        <ele>918.0</ele>
        <time>2017-05-27T06:52:15.183Z</time>
      </trkpt>
      <trkpt lat="39.98640833" lon="-0.46412">
        <ele>918.0</ele>
        <time>2017-05-27T06:52:16.195Z</time>
      </trkpt>
      <trkpt lat="39.986435" lon="-0.464115">
        <ele>918.0</ele>
        <time>2017-05-27T06:52:17.190Z</time>
      </trkpt>
      <trkpt lat="39.986435" lon="-0.464115">
        <ele>918.0</ele>
        <time>2017-05-27T06:52:18.195Z</time>
      </trkpt>
      <trkpt lat="39.98649" lon="-0.46409833">
        <ele>919.0</ele>
        <time>2017-05-27T06:52:19.184Z</time>
      </trkpt>
      <trkpt lat="39.98649" lon="-0.46409833">
        <ele>919.0</ele>
        <time>2017-05-27T06:52:20.185Z</time>
      </trkpt>
      <trkpt lat="39.98655" lon="-0.464075">
        <ele>919.0</ele>
        <time>2017-05-27T06:52:21.164Z</time>
      </trkpt>
      <trkpt lat="39.98655" lon="-0.464075">
        <ele>919.0</ele>
        <time>2017-05-27T06:52:22.162Z</time>
      </trkpt>
      <trkpt lat="39.98661167" lon="-0.464055">
        <ele>919.0</ele>
        <time>2017-05-27T06:52:23.171Z</time>
      </trkpt>
      <trkpt lat="39.98661167" lon="-0.464055">
        <ele>919.0</ele>
        <time>2017-05-27T06:52:24.190Z</time>
      </trkpt>
      <trkpt lat="39.98667333" lon="-0.46403">
        <ele>920.0</ele>
        <time>2017-05-27T06:52:25.167Z</time>
      </trkpt>
      <trkpt lat="39.98667333" lon="-0.46403">
        <ele>920.0</ele>
        <time>2017-05-27T06:52:26.194Z</time>
      </trkpt>
      <trkpt lat="39.98674" lon="-0.46401167">
        <ele>920.0</ele>
        <time>2017-05-27T06:52:27.166Z</time>
      </trkpt>
      <trkpt lat="39.986775" lon="-0.46400333">
        <ele>920.0</ele>
        <time>2017-05-27T06:52:28.173Z</time>
      </trkpt>
      <trkpt lat="39.98681" lon="-0.463995">
        <ele>920.0</ele>
        <time>2017-05-27T06:52:29.170Z</time>
      </trkpt>
      <trkpt lat="39.98681" lon="-0.463995">
        <ele>920.0</ele>
        <time>2017-05-27T06:52:30.175Z</time>
      </trkpt>
      <trkpt lat="39.98688" lon="-0.46396667">
        <ele>919.0</ele>
        <time>2017-05-27T06:52:31.189Z</time>
      </trkpt>
      <trkpt lat="39.98688" lon="-0.46396667">
        <ele>919.0</ele>
        <time>2017-05-27T06:52:32.175Z</time>
      </trkpt>
      <trkpt lat="39.98694667" lon="-0.46391667">
        <ele>919.0</ele>
        <time>2017-05-27T06:52:33.194Z</time>
      </trkpt>
      <trkpt lat="39.98694667" lon="-0.46391667">
        <ele>919.0</ele>
        <time>2017-05-27T06:52:34.165Z</time>
      </trkpt>
      <trkpt lat="39.98700333" lon="-0.46384167">
        <ele>919.0</ele>
        <time>2017-05-27T06:52:35.189Z</time>
      </trkpt>
      <trkpt lat="39.98700333" lon="-0.46384167">
        <ele>919.0</ele>
        <time>2017-05-27T06:52:36.172Z</time>
      </trkpt>
      <trkpt lat="39.987045" lon="-0.46375333">
        <ele>919.0</ele>
        <time>2017-05-27T06:52:37.186Z</time>
      </trkpt>
      <trkpt lat="39.987045" lon="-0.46375333">
        <ele>919.0</ele>
        <time>2017-05-27T06:52:38.156Z</time>
      </trkpt>
      <trkpt lat="39.98708833" lon="-0.46365667">
        <ele>919.0</ele>
        <time>2017-05-27T06:52:39.176Z</time>
      </trkpt>
      <trkpt lat="39.98708833" lon="-0.46365667">
        <ele>919.0</ele>
        <time>2017-05-27T06:52:40.163Z</time>
      </trkpt>
      <trkpt lat="39.98713667" lon="-0.46357">
        <ele>919.0</ele>
        <time>2017-05-27T06:52:41.177Z</time>
      </trkpt>
      <trkpt lat="39.987165" lon="-0.46353">
        <ele>919.0</ele>
        <time>2017-05-27T06:52:42.173Z</time>
      </trkpt>
      <trkpt lat="39.987165" lon="-0.46353">
        <ele>919.0</ele>
        <time>2017-05-27T06:52:43.171Z</time>
      </trkpt>
      <trkpt lat="39.98722333" lon="-0.46346">
        <ele>919.0</ele>
        <time>2017-05-27T06:52:44.182Z</time>
      </trkpt>
      <trkpt lat="39.987255" lon="-0.463435">
        <ele>919.0</ele>
        <time>2017-05-27T06:52:45.190Z</time>
      </trkpt>
      <trkpt lat="39.987255" lon="-0.463435">
        <ele>919.0</ele>
        <time>2017-05-27T06:52:46.170Z</time>
      </trkpt>
      <trkpt lat="39.98732333" lon="-0.46339833">
        <ele>919.0</ele>
        <time>2017-05-27T06:52:47.183Z</time>
      </trkpt>
      <trkpt lat="39.98732333" lon="-0.46339833">
        <ele>919.0</ele>
        <time>2017-05-27T06:52:48.156Z</time>
      </trkpt>
      <trkpt lat="39.98739167" lon="-0.46338667">
        <ele>919.0</ele>
        <time>2017-05-27T06:52:49.184Z</time>
      </trkpt>
      <trkpt lat="39.98742667" lon="-0.46338667">
        <ele>919.0</ele>
        <time>2017-05-27T06:52:50.178Z</time>
      </trkpt>
      <trkpt lat="39.98742667" lon="-0.46338667">
        <ele>919.0</ele>
        <time>2017-05-27T06:52:51.176Z</time>
      </trkpt>
      <trkpt lat="39.98748667" lon="-0.46340833">
        <ele>919.0</ele>
        <time>2017-05-27T06:52:52.195Z</time>
      </trkpt>
      <trkpt lat="39.98751167" lon="-0.46343">
        <ele>919.0</ele>
        <time>2017-05-27T06:52:53.182Z</time>
      </trkpt>
      <trkpt lat="39.98751167" lon="-0.46343">
        <ele>919.0</ele>
        <time>2017-05-27T06:52:54.188Z</time>
      </trkpt>
      <trkpt lat="39.98756" lon="-0.46348833">
        <ele>919.0</ele>
        <time>2017-05-27T06:52:55.160Z</time>
      </trkpt>
      <trkpt lat="39.98758" lon="-0.46351667">
        <ele>918.0</ele>
        <time>2017-05-27T06:52:56.186Z</time>
      </trkpt>
      <trkpt lat="39.98758" lon="-0.46351667">
        <ele>918.0</ele>
        <time>2017-05-27T06:52:57.190Z</time>
      </trkpt>
      <trkpt lat="39.98762333" lon="-0.463585">
        <ele>919.0</ele>
        <time>2017-05-27T06:52:58.173Z</time>
      </trkpt>
      <trkpt lat="39.98764" lon="-0.46361833">
        <ele>919.0</ele>
        <time>2017-05-27T06:52:59.193Z</time>
      </trkpt>
      <trkpt lat="39.98764" lon="-0.46361833">
        <ele>919.0</ele>
        <time>2017-05-27T06:53:00.159Z</time>
      </trkpt>
      <trkpt lat="39.98767667" lon="-0.46368667">
        <ele>918.0</ele>
        <time>2017-05-27T06:53:01.176Z</time>
      </trkpt>
      <trkpt lat="39.98769333" lon="-0.46372">
        <ele>918.0</ele>
        <time>2017-05-27T06:53:02.194Z</time>
      </trkpt>
      <trkpt lat="39.98769333" lon="-0.46372">
        <ele>918.0</ele>
        <time>2017-05-27T06:53:03.166Z</time>
      </trkpt>
      <trkpt lat="39.98772333" lon="-0.46379">
        <ele>918.0</ele>
        <time>2017-05-27T06:53:04.177Z</time>
      </trkpt>
      <trkpt lat="39.98773667" lon="-0.46382">
        <ele>919.0</ele>
        <time>2017-05-27T06:53:05.189Z</time>
      </trkpt>
      <trkpt lat="39.98773667" lon="-0.46382">
        <ele>919.0</ele>
        <time>2017-05-27T06:53:06.195Z</time>
      </trkpt>
      <trkpt lat="39.98777167" lon="-0.46388333">
        <ele>919.0</ele>
        <time>2017-05-27T06:53:07.171Z</time>
      </trkpt>
      <trkpt lat="39.98777167" lon="-0.46388333">
        <ele>919.0</ele>
        <time>2017-05-27T06:53:08.157Z</time>
      </trkpt>
      <trkpt lat="39.98779833" lon="-0.46395833">
        <ele>919.0</ele>
        <time>2017-05-27T06:53:09.185Z</time>
      </trkpt>
      <trkpt lat="39.98779833" lon="-0.46395833">
        <ele>919.0</ele>
        <time>2017-05-27T06:53:10.171Z</time>
      </trkpt>
      <trkpt lat="39.987825" lon="-0.46401667">
        <ele>919.0</ele>
        <time>2017-05-27T06:53:11.181Z</time>
      </trkpt>
      <trkpt lat="39.98784" lon="-0.46404167">
        <ele>920.0</ele>
        <time>2017-05-27T06:53:12.168Z</time>
      </trkpt>
      <trkpt lat="39.98784" lon="-0.46404167">
        <ele>920.0</ele>
        <time>2017-05-27T06:53:13.186Z</time>
      </trkpt>
      <trkpt lat="39.98787" lon="-0.464095">
        <ele>920.0</ele>
        <time>2017-05-27T06:53:14.174Z</time>
      </trkpt>
      <trkpt lat="39.98787" lon="-0.464095">
        <ele>920.0</ele>
        <time>2017-05-27T06:53:15.192Z</time>
      </trkpt>
      <trkpt lat="39.98789667" lon="-0.46414833">
        <ele>921.0</ele>
        <time>2017-05-27T06:53:16.168Z</time>
      </trkpt>
      <trkpt lat="39.98789667" lon="-0.46414833">
        <ele>921.0</ele>
        <time>2017-05-27T06:53:17.185Z</time>
      </trkpt>
      <trkpt lat="39.98793" lon="-0.4642">
        <ele>922.0</ele>
        <time>2017-05-27T06:53:18.156Z</time>
      </trkpt>
      <trkpt lat="39.98793" lon="-0.4642">
        <ele>922.0</ele>
        <time>2017-05-27T06:53:19.184Z</time>
      </trkpt>
      <trkpt lat="39.98796667" lon="-0.46425167">
        <ele>922.0</ele>
        <time>2017-05-27T06:53:20.161Z</time>
      </trkpt>
      <trkpt lat="39.98796667" lon="-0.46425167">
        <ele>922.0</ele>
        <time>2017-05-27T06:53:21.195Z</time>
      </trkpt>
      <trkpt lat="39.98800333" lon="-0.46429833">
        <ele>922.0</ele>
        <time>2017-05-27T06:53:22.175Z</time>
      </trkpt>
      <trkpt lat="39.98802167" lon="-0.46432">
        <ele>923.0</ele>
        <time>2017-05-27T06:53:23.165Z</time>
      </trkpt>
      <trkpt lat="39.98802167" lon="-0.46432">
        <ele>923.0</ele>
        <time>2017-05-27T06:53:24.171Z</time>
      </trkpt>
      <trkpt lat="39.98805333" lon="-0.46436">
        <ele>923.0</ele>
        <time>2017-05-27T06:53:25.185Z</time>
      </trkpt>
      <trkpt lat="39.98806833" lon="-0.46437833">
        <ele>923.0</ele>
        <time>2017-05-27T06:53:26.177Z</time>
      </trkpt>
      <trkpt lat="39.98806833" lon="-0.46437833">
        <ele>923.0</ele>
        <time>2017-05-27T06:53:27.160Z</time>
      </trkpt>
      <trkpt lat="39.98810667" lon="-0.46443167">
        <ele>924.0</ele>
        <time>2017-05-27T06:53:28.181Z</time>
      </trkpt>
      <trkpt lat="39.98812833" lon="-0.46446">
        <ele>924.0</ele>
        <time>2017-05-27T06:53:29.177Z</time>
      </trkpt>
      <trkpt lat="39.98812833" lon="-0.46446">
        <ele>924.0</ele>
        <time>2017-05-27T06:53:30.183Z</time>
      </trkpt>
      <trkpt lat="39.988165" lon="-0.46451833">
        <ele>925.0</ele>
        <time>2017-05-27T06:53:31.195Z</time>
      </trkpt>
      <trkpt lat="39.988165" lon="-0.46451833">
        <ele>925.0</ele>
        <time>2017-05-27T06:53:32.186Z</time>
      </trkpt>
      <trkpt lat="39.98819667" lon="-0.46457167">
        <ele>925.0</ele>
        <time>2017-05-27T06:53:33.164Z</time>
      </trkpt>
      <trkpt lat="39.98819667" lon="-0.46457167">
        <ele>925.0</ele>
        <time>2017-05-27T06:53:34.182Z</time>
      </trkpt>
      <trkpt lat="39.98822667" lon="-0.46462667">
        <ele>926.0</ele>
        <time>2017-05-27T06:53:35.193Z</time>
      </trkpt>
      <trkpt lat="39.98822667" lon="-0.46462667">
        <ele>926.0</ele>
        <time>2017-05-27T06:53:36.189Z</time>
      </trkpt>
      <trkpt lat="39.98825667" lon="-0.464685">
        <ele>927.0</ele>
        <time>2017-05-27T06:53:37.170Z</time>
      </trkpt>
      <trkpt lat="39.98826833" lon="-0.46471833">
        <ele>927.0</ele>
        <time>2017-05-27T06:53:38.159Z</time>
      </trkpt>
      <trkpt lat="39.98826833" lon="-0.46471833">
        <ele>927.0</ele>
        <time>2017-05-27T06:53:39.192Z</time>
      </trkpt>
      <trkpt lat="39.98827167" lon="-0.46480167">
        <ele>927.0</ele>
        <time>2017-05-27T06:53:40.164Z</time>
      </trkpt>
      <trkpt lat="39.98827" lon="-0.46484333">
        <ele>928.0</ele>
        <time>2017-05-27T06:53:41.157Z</time>
      </trkpt>
      <trkpt lat="39.98827" lon="-0.46484333">
        <ele>928.0</ele>
        <time>2017-05-27T06:53:42.163Z</time>
      </trkpt>
      <trkpt lat="39.98826833" lon="-0.46490833">
        <ele>928.0</ele>
        <time>2017-05-27T06:53:43.177Z</time>
      </trkpt>
      <trkpt lat="39.98827333" lon="-0.464935">
        <ele>929.0</ele>
        <time>2017-05-27T06:53:44.180Z</time>
      </trkpt>
      <trkpt lat="39.98827333" lon="-0.464935">
        <ele>929.0</ele>
        <time>2017-05-27T06:53:45.162Z</time>
      </trkpt>
      <trkpt lat="39.98826667" lon="-0.46498">
        <ele>929.0</ele>
        <time>2017-05-27T06:53:46.176Z</time>
      </trkpt>
      <trkpt lat="39.98826667" lon="-0.46498">
        <ele>929.0</ele>
        <time>2017-05-27T06:53:47.162Z</time>
      </trkpt>
      <trkpt lat="39.98824833" lon="-0.465015">
        <ele>929.0</ele>
        <time>2017-05-27T06:53:48.178Z</time>
      </trkpt>
      <trkpt lat="39.98824833" lon="-0.465015">
        <ele>929.0</ele>
        <time>2017-05-27T06:53:49.171Z</time>
      </trkpt>
      <trkpt lat="39.98823" lon="-0.46504833">
        <ele>928.0</ele>
        <time>2017-05-27T06:53:50.183Z</time>
      </trkpt>
      <trkpt lat="39.98823" lon="-0.46504833">
        <ele>928.0</ele>
        <time>2017-05-27T06:53:51.177Z</time>
      </trkpt>
      <trkpt lat="39.988205" lon="-0.46507167">
        <ele>928.0</ele>
        <time>2017-05-27T06:53:52.195Z</time>
      </trkpt>
      <trkpt lat="39.98819333" lon="-0.46506833">
        <ele>928.0</ele>
        <time>2017-05-27T06:53:53.187Z</time>
      </trkpt>
      <trkpt lat="39.98819333" lon="-0.46506833">
        <ele>928.0</ele>
        <time>2017-05-27T06:53:54.193Z</time>
      </trkpt>
      <trkpt lat="39.98818667" lon="-0.46503333">
        <ele>928.0</ele>
        <time>2017-05-27T06:53:55.166Z</time>
      </trkpt>
      <trkpt lat="39.98819833" lon="-0.465015">
        <ele>928.0</ele>
        <time>2017-05-27T06:53:56.182Z</time>
      </trkpt>
      <trkpt lat="39.98819833" lon="-0.465015">
        <ele>928.0</ele>
        <time>2017-05-27T06:53:57.188Z</time>
      </trkpt>
      <trkpt lat="39.98822" lon="-0.46498167">
        <ele>927.0</ele>
        <time>2017-05-27T06:53:58.174Z</time>
      </trkpt>
      <trkpt lat="39.98822" lon="-0.46498167">
        <ele>927.0</ele>
        <time>2017-05-27T06:53:59.162Z</time>
      </trkpt>
      <trkpt lat="39.98823833" lon="-0.46494">
        <ele>927.0</ele>
        <time>2017-05-27T06:54:00.176Z</time>
      </trkpt>
      <trkpt lat="39.98823833" lon="-0.46494">
        <ele>927.0</ele>
        <time>2017-05-27T06:54:01.161Z</time>
      </trkpt>
      <trkpt lat="39.988265" lon="-0.46491">
        <ele>927.0</ele>
        <time>2017-05-27T06:54:02.175Z</time>
      </trkpt>
      <trkpt lat="39.988265" lon="-0.46491">
        <ele>927.0</ele>
        <time>2017-05-27T06:54:03.158Z</time>
      </trkpt>
      <trkpt lat="39.98828833" lon="-0.46492667">
        <ele>927.0</ele>
        <time>2017-05-27T06:54:04.168Z</time>
      </trkpt>
      <trkpt lat="39.98828833" lon="-0.464945">
        <ele>927.0</ele>
        <time>2017-05-27T06:54:05.193Z</time>
      </trkpt>
      <trkpt lat="39.98828833" lon="-0.464945">
        <ele>927.0</ele>
        <time>2017-05-27T06:54:06.159Z</time>
      </trkpt>
      <trkpt lat="39.98827167" lon="-0.46497833">
        <ele>927.0</ele>
        <time>2017-05-27T06:54:07.189Z</time>
      </trkpt>
      <trkpt lat="39.98826" lon="-0.464995">
        <ele>927.0</ele>
        <time>2017-05-27T06:54:08.178Z</time>
      </trkpt>
      <trkpt lat="39.98826" lon="-0.464995">
        <ele>927.0</ele>
        <time>2017-05-27T06:54:09.166Z</time>
      </trkpt>
      <trkpt lat="39.98823333" lon="-0.46503167">
        <ele>927.0</ele>
        <time>2017-05-27T06:54:10.189Z</time>
      </trkpt>
      <trkpt lat="39.988215" lon="-0.46505333">
        <ele>927.0</ele>
        <time>2017-05-27T06:54:11.186Z</time>
      </trkpt>
      <trkpt lat="39.988215" lon="-0.46505333">
        <ele>927.0</ele>
        <time>2017-05-27T06:54:12.193Z</time>
      </trkpt>
      <trkpt lat="39.98817167" lon="-0.46509833">
        <ele>927.0</ele>
        <time>2017-05-27T06:54:13.173Z</time>
      </trkpt>
      <trkpt lat="39.98817167" lon="-0.46509833">
        <ele>927.0</ele>
        <time>2017-05-27T06:54:14.163Z</time>
      </trkpt>
      <trkpt lat="39.98811833" lon="-0.46514333">
        <ele>926.0</ele>
        <time>2017-05-27T06:54:15.184Z</time>
      </trkpt>
      <trkpt lat="39.98811833" lon="-0.46514333">
        <ele>926.0</ele>
        <time>2017-05-27T06:54:16.182Z</time>
      </trkpt>
      <trkpt lat="39.98804333" lon="-0.46517">
        <ele>925.0</ele>
        <time>2017-05-27T06:54:17.192Z</time>
      </trkpt>
      <trkpt lat="39.98804333" lon="-0.46517">
        <ele>925.0</ele>
        <time>2017-05-27T06:54:18.161Z</time>
      </trkpt>
      <trkpt lat="39.98796" lon="-0.46518667">
        <ele>925.0</ele>
        <time>2017-05-27T06:54:19.199Z</time>
      </trkpt>
      <trkpt lat="39.98796" lon="-0.46518667">
        <ele>925.0</ele>
        <time>2017-05-27T06:54:20.186Z</time>
      </trkpt>
      <trkpt lat="39.98787" lon="-0.46521833">
        <ele>924.0</ele>
        <time>2017-05-27T06:54:21.159Z</time>
      </trkpt>
      <trkpt lat="39.98787" lon="-0.46521833">
        <ele>924.0</ele>
        <time>2017-05-27T06:54:22.178Z</time>
      </trkpt>
      <trkpt lat="39.98777" lon="-0.46526167">
        <ele>924.0</ele>
        <time>2017-05-27T06:54:23.195Z</time>
      </trkpt>
      <trkpt lat="39.98777" lon="-0.46526167">
        <ele>924.0</ele>
        <time>2017-05-27T06:54:24.188Z</time>
      </trkpt>
      <trkpt lat="39.98767" lon="-0.46533">
        <ele>923.0</ele>
        <time>2017-05-27T06:54:25.157Z</time>
      </trkpt>
      <trkpt lat="39.98767" lon="-0.46533">
        <ele>923.0</ele>
        <time>2017-05-27T06:54:26.162Z</time>
      </trkpt>
      <trkpt lat="39.98758167" lon="-0.46543833">
        <ele>922.0</ele>
        <time>2017-05-27T06:54:27.172Z</time>
      </trkpt>
      <trkpt lat="39.98753833" lon="-0.46550167">
        <ele>922.0</ele>
        <time>2017-05-27T06:54:28.161Z</time>
      </trkpt>
      <trkpt lat="39.98753833" lon="-0.46550167">
        <ele>922.0</ele>
        <time>2017-05-27T06:54:29.192Z</time>
      </trkpt>
      <trkpt lat="39.98746" lon="-0.465645">
        <ele>921.0</ele>
        <time>2017-05-27T06:54:30.164Z</time>
      </trkpt>
      <trkpt lat="39.98746" lon="-0.465645">
        <ele>921.0</ele>
        <time>2017-05-27T06:54:31.186Z</time>
      </trkpt>
      <trkpt lat="39.98737333" lon="-0.46579833">
        <ele>921.0</ele>
        <time>2017-05-27T06:54:32.172Z</time>
      </trkpt>
      <trkpt lat="39.987325" lon="-0.465875">
        <ele>920.0</ele>
        <time>2017-05-27T06:54:33.188Z</time>
      </trkpt>
      <trkpt lat="39.98727333" lon="-0.46595">
        <ele>920.0</ele>
        <time>2017-05-27T06:54:34.187Z</time>
      </trkpt>
      <trkpt lat="39.98727333" lon="-0.46595">
        <ele>920.0</ele>
        <time>2017-05-27T06:54:35.166Z</time>
      </trkpt>
      <trkpt lat="39.98715167" lon="-0.46609667">
        <ele>919.0</ele>
        <time>2017-05-27T06:54:36.198Z</time>
      </trkpt>
      <trkpt lat="39.98715167" lon="-0.46609667">
        <ele>919.0</ele>
        <time>2017-05-27T06:54:37.185Z</time>
      </trkpt>
      <trkpt lat="39.98701667" lon="-0.46622667">
        <ele>918.0</ele>
        <time>2017-05-27T06:54:38.161Z</time>
      </trkpt>
      <trkpt lat="39.98701667" lon="-0.46622667">
        <ele>918.0</ele>
        <time>2017-05-27T06:54:39.177Z</time>
      </trkpt>
      <trkpt lat="39.98685667" lon="-0.46633333">
        <ele>918.0</ele>
        <time>2017-05-27T06:54:40.160Z</time>
      </trkpt>
      <trkpt lat="39.98676667" lon="-0.466365">
        <ele>917.0</ele>
        <time>2017-05-27T06:54:41.175Z</time>
      </trkpt>
      <trkpt lat="39.98676667" lon="-0.466365">
        <ele>917.0</ele>
        <time>2017-05-27T06:54:42.187Z</time>
      </trkpt>
      <trkpt lat="39.98656833" lon="-0.466395">
        <ele>916.0</ele>
        <time>2017-05-27T06:54:43.187Z</time>
      </trkpt>
      <trkpt lat="39.98656833" lon="-0.466395">
        <ele>916.0</ele>
        <time>2017-05-27T06:54:44.192Z</time>
      </trkpt>
      <trkpt lat="39.98638" lon="-0.46644833">
        <ele>914.0</ele>
        <time>2017-05-27T06:54:45.176Z</time>
      </trkpt>
      <trkpt lat="39.98630333" lon="-0.46650667">
        <ele>913.0</ele>
        <time>2017-05-27T06:54:46.165Z</time>
      </trkpt>
      <trkpt lat="39.98630333" lon="-0.46650667">
        <ele>913.0</ele>
        <time>2017-05-27T06:54:47.167Z</time>
      </trkpt>
      <trkpt lat="39.98624667" lon="-0.46670667">
        <ele>912.0</ele>
        <time>2017-05-27T06:54:48.179Z</time>
      </trkpt>
      <trkpt lat="39.98624667" lon="-0.46670667">
        <ele>912.0</ele>
        <time>2017-05-27T06:54:49.157Z</time>
      </trkpt>
      <trkpt lat="39.98628833" lon="-0.46694333">
        <ele>911.0</ele>
        <time>2017-05-27T06:54:50.174Z</time>
      </trkpt>
      <trkpt lat="39.98628833" lon="-0.46694333">
        <ele>911.0</ele>
        <time>2017-05-27T06:54:51.183Z</time>
      </trkpt>
      <trkpt lat="39.986315" lon="-0.46718">
        <ele>911.0</ele>
        <time>2017-05-27T06:54:52.168Z</time>
      </trkpt>
      <trkpt lat="39.98632167" lon="-0.467295">
        <ele>911.0</ele>
        <time>2017-05-27T06:54:53.156Z</time>
      </trkpt>
      <trkpt lat="39.98632167" lon="-0.467295">
        <ele>911.0</ele>
        <time>2017-05-27T06:54:54.167Z</time>
      </trkpt>
      <trkpt lat="39.98629" lon="-0.46751">
        <ele>910.0</ele>
        <time>2017-05-27T06:54:55.207Z</time>
      </trkpt>
      <trkpt lat="39.98629" lon="-0.46751">
        <ele>910.0</ele>
        <time>2017-05-27T06:54:56.162Z</time>
      </trkpt>
      <trkpt lat="39.98617833" lon="-0.46768667">
        <ele>909.0</ele>
        <time>2017-05-27T06:54:57.179Z</time>
      </trkpt>
      <trkpt lat="39.986095" lon="-0.46775333">
        <ele>909.0</ele>
        <time>2017-05-27T06:54:58.161Z</time>
      </trkpt>
      <trkpt lat="39.986095" lon="-0.46775333">
        <ele>909.0</ele>
        <time>2017-05-27T06:54:59.188Z</time>
      </trkpt>
      <trkpt lat="39.98590167" lon="-0.46781833">
        <ele>908.0</ele>
        <time>2017-05-27T06:55:00.184Z</time>
      </trkpt>
      <trkpt lat="39.98590167" lon="-0.46781833">
        <ele>908.0</ele>
        <time>2017-05-27T06:55:01.187Z</time>
      </trkpt>
      <trkpt lat="39.98570333" lon="-0.46787">
        <ele>906.0</ele>
        <time>2017-05-27T06:55:02.183Z</time>
      </trkpt>
      <trkpt lat="39.9856" lon="-0.46790667">
        <ele>906.0</ele>
        <time>2017-05-27T06:55:03.159Z</time>
      </trkpt>
      <trkpt lat="39.98549167" lon="-0.46794667">
        <ele>905.0</ele>
        <time>2017-05-27T06:55:04.184Z</time>
      </trkpt>
      <trkpt lat="39.98549167" lon="-0.46794667">
        <ele>905.0</ele>
        <time>2017-05-27T06:55:05.188Z</time>
      </trkpt>
      <trkpt lat="39.985275" lon="-0.46803">
        <ele>903.0</ele>
        <time>2017-05-27T06:55:06.169Z</time>
      </trkpt>
      <trkpt lat="39.985275" lon="-0.46803">
        <ele>903.0</ele>
        <time>2017-05-27T06:55:07.186Z</time>
      </trkpt>
      <trkpt lat="39.98505667" lon="-0.46814167">
        <ele>902.0</ele>
        <time>2017-05-27T06:55:08.158Z</time>
      </trkpt>
      <trkpt lat="39.98495167" lon="-0.46819667">
        <ele>901.0</ele>
        <time>2017-05-27T06:55:09.187Z</time>
      </trkpt>
      <trkpt lat="39.98495167" lon="-0.46819667">
        <ele>901.0</ele>
        <time>2017-05-27T06:55:10.193Z</time>
      </trkpt>
      <trkpt lat="39.98474167" lon="-0.46829167">
        <ele>899.0</ele>
        <time>2017-05-27T06:55:11.167Z</time>
      </trkpt>
      <trkpt lat="39.98474167" lon="-0.46829167">
        <ele>899.0</ele>
        <time>2017-05-27T06:55:12.189Z</time>
      </trkpt>
      <trkpt lat="39.98451833" lon="-0.46831">
        <ele>898.0</ele>
        <time>2017-05-27T06:55:13.189Z</time>
      </trkpt>
      <trkpt lat="39.98451833" lon="-0.46831">
        <ele>898.0</ele>
        <time>2017-05-27T06:55:14.186Z</time>
      </trkpt>
      <trkpt lat="39.98429833" lon="-0.46828667">
        <ele>896.0</ele>
        <time>2017-05-27T06:55:15.186Z</time>
      </trkpt>
      <trkpt lat="39.98429833" lon="-0.46828667">
        <ele>896.0</ele>
        <time>2017-05-27T06:55:16.162Z</time>
      </trkpt>
      <trkpt lat="39.98408167" lon="-0.46826833">
        <ele>896.0</ele>
        <time>2017-05-27T06:55:17.189Z</time>
      </trkpt>
      <trkpt lat="39.98408167" lon="-0.46826833">
        <ele>896.0</ele>
        <time>2017-05-27T06:55:18.157Z</time>
      </trkpt>
      <trkpt lat="39.98387167" lon="-0.46825167">
        <ele>895.0</ele>
        <time>2017-05-27T06:55:19.169Z</time>
      </trkpt>
      <trkpt lat="39.98387167" lon="-0.46825167">
        <ele>895.0</ele>
        <time>2017-05-27T06:55:20.194Z</time>
      </trkpt>
      <trkpt lat="39.98367167" lon="-0.46822833">
        <ele>894.0</ele>
        <time>2017-05-27T06:55:21.168Z</time>
      </trkpt>
      <trkpt lat="39.98367167" lon="-0.46822833">
        <ele>894.0</ele>
        <time>2017-05-27T06:55:22.193Z</time>
      </trkpt>
      <trkpt lat="39.98348667" lon="-0.468195">
        <ele>893.0</ele>
        <time>2017-05-27T06:55:23.172Z</time>
      </trkpt>
      <trkpt lat="39.98348667" lon="-0.468195">
        <ele>893.0</ele>
        <time>2017-05-27T06:55:24.171Z</time>
      </trkpt>
      <trkpt lat="39.98332167" lon="-0.46813167">
        <ele>893.0</ele>
        <time>2017-05-27T06:55:25.195Z</time>
      </trkpt>
      <trkpt lat="39.98325" lon="-0.46808667">
        <ele>893.0</ele>
        <time>2017-05-27T06:55:26.183Z</time>
      </trkpt>
      <trkpt lat="39.98325" lon="-0.46808667">
        <ele>893.0</ele>
        <time>2017-05-27T06:55:27.157Z</time>
      </trkpt>
      <trkpt lat="39.98312833" lon="-0.46798833">
        <ele>893.0</ele>
        <time>2017-05-27T06:55:28.178Z</time>
      </trkpt>
      <trkpt lat="39.983075" lon="-0.46794167">
        <ele>893.0</ele>
        <time>2017-05-27T06:55:29.170Z</time>
      </trkpt>
      <trkpt lat="39.983075" lon="-0.46794167">
        <ele>893.0</ele>
        <time>2017-05-27T06:55:30.176Z</time>
      </trkpt>
      <trkpt lat="39.98297833" lon="-0.46786667">
        <ele>893.0</ele>
        <time>2017-05-27T06:55:31.190Z</time>
      </trkpt>
      <trkpt lat="39.98297833" lon="-0.46786667">
        <ele>893.0</ele>
        <time>2017-05-27T06:55:32.165Z</time>
      </trkpt>
      <trkpt lat="39.98289833" lon="-0.46779">
        <ele>894.0</ele>
        <time>2017-05-27T06:55:33.205Z</time>
      </trkpt>
      <trkpt lat="39.98289833" lon="-0.46779">
        <ele>894.0</ele>
        <time>2017-05-27T06:55:34.161Z</time>
      </trkpt>
      <trkpt lat="39.982825" lon="-0.46772167">
        <ele>895.0</ele>
        <time>2017-05-27T06:55:35.178Z</time>
      </trkpt>
      <trkpt lat="39.98279167" lon="-0.46769167">
        <ele>895.0</ele>
        <time>2017-05-27T06:55:36.187Z</time>
      </trkpt>
      <trkpt lat="39.98279167" lon="-0.46769167">
        <ele>895.0</ele>
        <time>2017-05-27T06:55:37.170Z</time>
      </trkpt>
      <trkpt lat="39.98273" lon="-0.46762167">
        <ele>895.0</ele>
        <time>2017-05-27T06:55:38.176Z</time>
      </trkpt>
      <trkpt lat="39.98270667" lon="-0.467585">
        <ele>895.0</ele>
        <time>2017-05-27T06:55:39.162Z</time>
      </trkpt>
      <trkpt lat="39.98270667" lon="-0.467585">
        <ele>895.0</ele>
        <time>2017-05-27T06:55:40.194Z</time>
      </trkpt>
      <trkpt lat="39.98266167" lon="-0.46752">
        <ele>896.0</ele>
        <time>2017-05-27T06:55:41.178Z</time>
      </trkpt>
      <trkpt lat="39.98266167" lon="-0.46752">
        <ele>896.0</ele>
        <time>2017-05-27T06:55:42.192Z</time>
      </trkpt>
      <trkpt lat="39.98261167" lon="-0.46746667">
        <ele>896.0</ele>
        <time>2017-05-27T06:55:43.169Z</time>
      </trkpt>
      <trkpt lat="39.982585" lon="-0.46744167">
        <ele>896.0</ele>
        <time>2017-05-27T06:55:44.159Z</time>
      </trkpt>
      <trkpt lat="39.982585" lon="-0.46744167">
        <ele>896.0</ele>
        <time>2017-05-27T06:55:45.176Z</time>
      </trkpt>
      <trkpt lat="39.98253333" lon="-0.46739">
        <ele>897.0</ele>
        <time>2017-05-27T06:55:46.189Z</time>
      </trkpt>
      <trkpt lat="39.98253333" lon="-0.46739">
        <ele>897.0</ele>
        <time>2017-05-27T06:55:47.171Z</time>
      </trkpt>
      <trkpt lat="39.98248667" lon="-0.46733333">
        <ele>897.0</ele>
        <time>2017-05-27T06:55:48.185Z</time>
      </trkpt>
      <trkpt lat="39.98248667" lon="-0.46733333">
        <ele>897.0</ele>
        <time>2017-05-27T06:55:49.163Z</time>
      </trkpt>
      <trkpt lat="39.98244667" lon="-0.467285">
        <ele>897.0</ele>
        <time>2017-05-27T06:55:50.194Z</time>
      </trkpt>
      <trkpt lat="39.982425" lon="-0.46726">
        <ele>897.0</ele>
        <time>2017-05-27T06:55:51.175Z</time>
      </trkpt>
      <trkpt lat="39.982425" lon="-0.46726">
        <ele>897.0</ele>
        <time>2017-05-27T06:55:52.195Z</time>
      </trkpt>
      <trkpt lat="39.98237833" lon="-0.46721">
        <ele>898.0</ele>
        <time>2017-05-27T06:55:53.165Z</time>
      </trkpt>
      <trkpt lat="39.98235333" lon="-0.467185">
        <ele>898.0</ele>
        <time>2017-05-27T06:55:54.162Z</time>
      </trkpt>
      <trkpt lat="39.98233" lon="-0.46716">
        <ele>898.0</ele>
        <time>2017-05-27T06:55:55.181Z</time>
      </trkpt>
      <trkpt lat="39.98230833" lon="-0.46713333">
        <ele>898.0</ele>
        <time>2017-05-27T06:55:56.185Z</time>
      </trkpt>
      <trkpt lat="39.98230833" lon="-0.46713333">
        <ele>898.0</ele>
        <time>2017-05-27T06:55:57.177Z</time>
      </trkpt>
      <trkpt lat="39.98226333" lon="-0.46708667">
        <ele>898.0</ele>
        <time>2017-05-27T06:55:58.195Z</time>
      </trkpt>
      <trkpt lat="39.98226333" lon="-0.46708667">
        <ele>898.0</ele>
        <time>2017-05-27T06:55:59.207Z</time>
      </trkpt>
      <trkpt lat="39.98222333" lon="-0.46703333">
        <ele>899.0</ele>
        <time>2017-05-27T06:56:00.157Z</time>
      </trkpt>
      <trkpt lat="39.98222333" lon="-0.46703333">
        <ele>899.0</ele>
        <time>2017-05-27T06:56:01.175Z</time>
      </trkpt>
      <trkpt lat="39.98217667" lon="-0.46698667">
        <ele>899.0</ele>
        <time>2017-05-27T06:56:02.194Z</time>
      </trkpt>
      <trkpt lat="39.98217667" lon="-0.46698667">
        <ele>899.0</ele>
        <time>2017-05-27T06:56:03.172Z</time>
      </trkpt>
      <trkpt lat="39.98213" lon="-0.46695">
        <ele>900.0</ele>
        <time>2017-05-27T06:56:04.180Z</time>
      </trkpt>
      <trkpt lat="39.98210667" lon="-0.46692667">
        <ele>900.0</ele>
        <time>2017-05-27T06:56:05.156Z</time>
      </trkpt>
      <trkpt lat="39.98210667" lon="-0.46692667">
        <ele>900.0</ele>
        <time>2017-05-27T06:56:06.187Z</time>
      </trkpt>
      <trkpt lat="39.98206167" lon="-0.46688167">
        <ele>900.0</ele>
        <time>2017-05-27T06:56:07.159Z</time>
      </trkpt>
      <trkpt lat="39.98203833" lon="-0.46686333">
        <ele>900.0</ele>
        <time>2017-05-27T06:56:08.184Z</time>
      </trkpt>
      <trkpt lat="39.98203833" lon="-0.46686333">
        <ele>900.0</ele>
        <time>2017-05-27T06:56:09.192Z</time>
      </trkpt>
      <trkpt lat="39.98198833" lon="-0.46682333">
        <ele>901.0</ele>
        <time>2017-05-27T06:56:10.160Z</time>
      </trkpt>
      <trkpt lat="39.98196333" lon="-0.466805">
        <ele>901.0</ele>
        <time>2017-05-27T06:56:11.166Z</time>
      </trkpt>
      <trkpt lat="39.98196333" lon="-0.466805">
        <ele>901.0</ele>
        <time>2017-05-27T06:56:12.181Z</time>
      </trkpt>
      <trkpt lat="39.98190833" lon="-0.466765">
        <ele>901.0</ele>
        <time>2017-05-27T06:56:13.192Z</time>
      </trkpt>
      <trkpt lat="39.98190833" lon="-0.466765">
        <ele>901.0</ele>
        <time>2017-05-27T06:56:14.162Z</time>
      </trkpt>
      <trkpt lat="39.98185167" lon="-0.46673833">
        <ele>902.0</ele>
        <time>2017-05-27T06:56:15.194Z</time>
      </trkpt>
      <trkpt lat="39.98185167" lon="-0.46673833">
        <ele>902.0</ele>
        <time>2017-05-27T06:56:16.187Z</time>
      </trkpt>
      <trkpt lat="39.98179667" lon="-0.466715">
        <ele>902.0</ele>
        <time>2017-05-27T06:56:17.162Z</time>
      </trkpt>
      <trkpt lat="39.98177167" lon="-0.466705">
        <ele>902.0</ele>
        <time>2017-05-27T06:56:18.158Z</time>
      </trkpt>
      <trkpt lat="39.98177167" lon="-0.466705">
        <ele>902.0</ele>
        <time>2017-05-27T06:56:19.194Z</time>
      </trkpt>
      <trkpt lat="39.98172" lon="-0.46668">
        <ele>903.0</ele>
        <time>2017-05-27T06:56:20.179Z</time>
      </trkpt>
      <trkpt lat="39.98172" lon="-0.46668">
        <ele>903.0</ele>
        <time>2017-05-27T06:56:21.190Z</time>
      </trkpt>
      <trkpt lat="39.98167" lon="-0.466665">
        <ele>904.0</ele>
        <time>2017-05-27T06:56:22.169Z</time>
      </trkpt>
      <trkpt lat="39.98164667" lon="-0.466665">
        <ele>904.0</ele>
        <time>2017-05-27T06:56:23.173Z</time>
      </trkpt>
      <trkpt lat="39.98164667" lon="-0.466665">
        <ele>904.0</ele>
        <time>2017-05-27T06:56:24.158Z</time>
      </trkpt>
      <trkpt lat="39.98159833" lon="-0.46665833">
        <ele>904.0</ele>
        <time>2017-05-27T06:56:25.185Z</time>
      </trkpt>
      <trkpt lat="39.98159833" lon="-0.46665833">
        <ele>904.0</ele>
        <time>2017-05-27T06:56:26.172Z</time>
      </trkpt>
      <trkpt lat="39.981545" lon="-0.46664">
        <ele>905.0</ele>
        <time>2017-05-27T06:56:27.191Z</time>
      </trkpt>
      <trkpt lat="39.98152" lon="-0.46663167">
        <ele>905.0</ele>
        <time>2017-05-27T06:56:28.164Z</time>
      </trkpt>
      <trkpt lat="39.981495" lon="-0.466625">
        <ele>905.0</ele>
        <time>2017-05-27T06:56:29.177Z</time>
      </trkpt>
      <trkpt lat="39.981495" lon="-0.466625">
        <ele>905.0</ele>
        <time>2017-05-27T06:56:30.188Z</time>
      </trkpt>
      <trkpt lat="39.981445" lon="-0.46660833">
        <ele>906.0</ele>
        <time>2017-05-27T06:56:31.169Z</time>
      </trkpt>
      <trkpt lat="39.981445" lon="-0.46660833">
        <ele>906.0</ele>
        <time>2017-05-27T06:56:32.163Z</time>
      </trkpt>
      <trkpt lat="39.981395" lon="-0.46659333">
        <ele>906.0</ele>
        <time>2017-05-27T06:56:33.179Z</time>
      </trkpt>
      <trkpt lat="39.981395" lon="-0.46659333">
        <ele>906.0</ele>
        <time>2017-05-27T06:56:34.194Z</time>
      </trkpt>
      <trkpt lat="39.98134333" lon="-0.46658">
        <ele>906.0</ele>
        <time>2017-05-27T06:56:35.164Z</time>
      </trkpt>
      <trkpt lat="39.98134333" lon="-0.46658">
        <ele>906.0</ele>
        <time>2017-05-27T06:56:36.178Z</time>
      </trkpt>
      <trkpt lat="39.98129333" lon="-0.46656333">
        <ele>907.0</ele>
        <time>2017-05-27T06:56:37.189Z</time>
      </trkpt>
      <trkpt lat="39.98129333" lon="-0.46656333">
        <ele>907.0</ele>
        <time>2017-05-27T06:56:38.190Z</time>
      </trkpt>
      <trkpt lat="39.98124333" lon="-0.46654167">
        <ele>907.0</ele>
        <time>2017-05-27T06:56:39.158Z</time>
      </trkpt>
      <trkpt lat="39.98124333" lon="-0.46654167">
        <ele>907.0</ele>
        <time>2017-05-27T06:56:40.178Z</time>
      </trkpt>
      <trkpt lat="39.981195" lon="-0.466525">
        <ele>907.0</ele>
        <time>2017-05-27T06:56:41.193Z</time>
      </trkpt>
      <trkpt lat="39.981195" lon="-0.466525">
        <ele>907.0</ele>
        <time>2017-05-27T06:56:42.171Z</time>
      </trkpt>
      <trkpt lat="39.981145" lon="-0.46651833">
        <ele>908.0</ele>
        <time>2017-05-27T06:56:43.185Z</time>
      </trkpt>
      <trkpt lat="39.981145" lon="-0.46651833">
        <ele>908.0</ele>
        <time>2017-05-27T06:56:44.188Z</time>
      </trkpt>
      <trkpt lat="39.981095" lon="-0.46650167">
        <ele>908.0</ele>
        <time>2017-05-27T06:56:45.197Z</time>
      </trkpt>
      <trkpt lat="39.981095" lon="-0.46650167">
        <ele>908.0</ele>
        <time>2017-05-27T06:56:46.179Z</time>
      </trkpt>
      <trkpt lat="39.981045" lon="-0.46648667">
        <ele>909.0</ele>
        <time>2017-05-27T06:56:47.163Z</time>
      </trkpt>
      <trkpt lat="39.981045" lon="-0.46648667">
        <ele>909.0</ele>
        <time>2017-05-27T06:56:48.188Z</time>
      </trkpt>
      <trkpt lat="39.980995" lon="-0.466475">
        <ele>910.0</ele>
        <time>2017-05-27T06:56:49.174Z</time>
      </trkpt>
      <trkpt lat="39.980995" lon="-0.466475">
        <ele>910.0</ele>
        <time>2017-05-27T06:56:50.157Z</time>
      </trkpt>
      <trkpt lat="39.980945" lon="-0.46646333">
        <ele>910.0</ele>
        <time>2017-05-27T06:56:51.174Z</time>
      </trkpt>
      <trkpt lat="39.98092167" lon="-0.46645667">
        <ele>910.0</ele>
        <time>2017-05-27T06:56:52.181Z</time>
      </trkpt>
      <trkpt lat="39.98089667" lon="-0.46645167">
        <ele>910.0</ele>
        <time>2017-05-27T06:56:53.168Z</time>
      </trkpt>
      <trkpt lat="39.98089667" lon="-0.46645167">
        <ele>910.0</ele>
        <time>2017-05-27T06:56:54.173Z</time>
      </trkpt>
      <trkpt lat="39.980845" lon="-0.46644167">
        <ele>911.0</ele>
        <time>2017-05-27T06:56:55.156Z</time>
      </trkpt>
      <trkpt lat="39.980845" lon="-0.46644167">
        <ele>911.0</ele>
        <time>2017-05-27T06:56:56.178Z</time>
      </trkpt>
      <trkpt lat="39.980795" lon="-0.46642">
        <ele>911.0</ele>
        <time>2017-05-27T06:56:57.194Z</time>
      </trkpt>
      <trkpt lat="39.98076833" lon="-0.46641">
        <ele>912.0</ele>
        <time>2017-05-27T06:56:58.171Z</time>
      </trkpt>
      <trkpt lat="39.98074167" lon="-0.4664">
        <ele>912.0</ele>
        <time>2017-05-27T06:56:59.158Z</time>
      </trkpt>
      <trkpt lat="39.98074167" lon="-0.4664">
        <ele>912.0</ele>
        <time>2017-05-27T06:57:00.164Z</time>
      </trkpt>
      <trkpt lat="39.98068833" lon="-0.46638">
        <ele>912.0</ele>
        <time>2017-05-27T06:57:01.176Z</time>
      </trkpt>
      <trkpt lat="39.98066333" lon="-0.46637">
        <ele>912.0</ele>
        <time>2017-05-27T06:57:02.194Z</time>
      </trkpt>
      <trkpt lat="39.98066333" lon="-0.46637">
        <ele>912.0</ele>
        <time>2017-05-27T06:57:03.178Z</time>
      </trkpt>
      <trkpt lat="39.98061333" lon="-0.46634667">
        <ele>912.0</ele>
        <time>2017-05-27T06:57:04.189Z</time>
      </trkpt>
      <trkpt lat="39.98058833" lon="-0.46633667">
        <ele>912.0</ele>
        <time>2017-05-27T06:57:05.156Z</time>
      </trkpt>
      <trkpt lat="39.98058833" lon="-0.46633667">
        <ele>912.0</ele>
        <time>2017-05-27T06:57:06.162Z</time>
      </trkpt>
      <trkpt lat="39.98054" lon="-0.46631333">
        <ele>913.0</ele>
        <time>2017-05-27T06:57:07.178Z</time>
      </trkpt>
      <trkpt lat="39.980515" lon="-0.46630167">
        <ele>913.0</ele>
        <time>2017-05-27T06:57:08.177Z</time>
      </trkpt>
      <trkpt lat="39.980515" lon="-0.46630167">
        <ele>913.0</ele>
        <time>2017-05-27T06:57:09.177Z</time>
      </trkpt>
      <trkpt lat="39.98046833" lon="-0.46627667">
        <ele>913.0</ele>
        <time>2017-05-27T06:57:10.195Z</time>
      </trkpt>
      <trkpt lat="39.980445" lon="-0.46626333">
        <ele>913.0</ele>
        <time>2017-05-27T06:57:11.172Z</time>
      </trkpt>
      <trkpt lat="39.980445" lon="-0.46626333">
        <ele>913.0</ele>
        <time>2017-05-27T06:57:12.178Z</time>
      </trkpt>
      <trkpt lat="39.98039833" lon="-0.46623333">
        <ele>913.0</ele>
        <time>2017-05-27T06:57:13.163Z</time>
      </trkpt>
      <trkpt lat="39.98039833" lon="-0.46623333">
        <ele>913.0</ele>
        <time>2017-05-27T06:57:14.189Z</time>
      </trkpt>
      <trkpt lat="39.98035167" lon="-0.46620167">
        <ele>913.0</ele>
        <time>2017-05-27T06:57:15.181Z</time>
      </trkpt>
      <trkpt lat="39.98035167" lon="-0.46620167">
        <ele>913.0</ele>
        <time>2017-05-27T06:57:16.167Z</time>
      </trkpt>
      <trkpt lat="39.98030833" lon="-0.46616833">
        <ele>914.0</ele>
        <time>2017-05-27T06:57:17.179Z</time>
      </trkpt>
      <trkpt lat="39.98030833" lon="-0.46616833">
        <ele>914.0</ele>
        <time>2017-05-27T06:57:18.165Z</time>
      </trkpt>
      <trkpt lat="39.98025833" lon="-0.46614167">
        <ele>914.0</ele>
        <time>2017-05-27T06:57:19.173Z</time>
      </trkpt>
      <trkpt lat="39.98023167" lon="-0.46612833">
        <ele>914.0</ele>
        <time>2017-05-27T06:57:20.188Z</time>
      </trkpt>
      <trkpt lat="39.98023167" lon="-0.46612833">
        <ele>914.0</ele>
        <time>2017-05-27T06:57:21.173Z</time>
      </trkpt>
      <trkpt lat="39.98018167" lon="-0.4661">
        <ele>915.0</ele>
        <time>2017-05-27T06:57:22.189Z</time>
      </trkpt>
      <trkpt lat="39.98015667" lon="-0.46608667">
        <ele>915.0</ele>
        <time>2017-05-27T06:57:23.172Z</time>
      </trkpt>
      <trkpt lat="39.98015667" lon="-0.46608667">
        <ele>915.0</ele>
        <time>2017-05-27T06:57:24.178Z</time>
      </trkpt>
      <trkpt lat="39.980105" lon="-0.46606">
        <ele>915.0</ele>
        <time>2017-05-27T06:57:25.196Z</time>
      </trkpt>
      <trkpt lat="39.98007833" lon="-0.46604833">
        <ele>915.0</ele>
        <time>2017-05-27T06:57:26.189Z</time>
      </trkpt>
      <trkpt lat="39.98007833" lon="-0.46604833">
        <ele>915.0</ele>
        <time>2017-05-27T06:57:27.172Z</time>
      </trkpt>
      <trkpt lat="39.98002167" lon="-0.46602333">
        <ele>916.0</ele>
        <time>2017-05-27T06:57:28.180Z</time>
      </trkpt>
      <trkpt lat="39.98002167" lon="-0.46602333">
        <ele>916.0</ele>
        <time>2017-05-27T06:57:29.156Z</time>
      </trkpt>
      <trkpt lat="39.979965" lon="-0.46601167">
        <ele>916.0</ele>
        <time>2017-05-27T06:57:30.166Z</time>
      </trkpt>
      <trkpt lat="39.979965" lon="-0.46601167">
        <ele>916.0</ele>
        <time>2017-05-27T06:57:31.189Z</time>
      </trkpt>
      <trkpt lat="39.97990667" lon="-0.46601167">
        <ele>917.0</ele>
        <time>2017-05-27T06:57:32.161Z</time>
      </trkpt>
      <trkpt lat="39.97987667" lon="-0.46601667">
        <ele>917.0</ele>
        <time>2017-05-27T06:57:33.184Z</time>
      </trkpt>
      <trkpt lat="39.97987667" lon="-0.46601667">
        <ele>917.0</ele>
        <time>2017-05-27T06:57:34.185Z</time>
      </trkpt>
      <trkpt lat="39.97981833" lon="-0.466025">
        <ele>918.0</ele>
        <time>2017-05-27T06:57:35.168Z</time>
      </trkpt>
      <trkpt lat="39.97981833" lon="-0.466025">
        <ele>918.0</ele>
        <time>2017-05-27T06:57:36.173Z</time>
      </trkpt>
      <trkpt lat="39.97976167" lon="-0.466045">
        <ele>919.0</ele>
        <time>2017-05-27T06:57:37.184Z</time>
      </trkpt>
      <trkpt lat="39.979735" lon="-0.46605833">
        <ele>919.0</ele>
        <time>2017-05-27T06:57:38.177Z</time>
      </trkpt>
      <trkpt lat="39.979735" lon="-0.46605833">
        <ele>919.0</ele>
        <time>2017-05-27T06:57:39.178Z</time>
      </trkpt>
      <trkpt lat="39.97968167" lon="-0.466085">
        <ele>920.0</ele>
        <time>2017-05-27T06:57:40.160Z</time>
      </trkpt>
      <trkpt lat="39.97965667" lon="-0.4661">
        <ele>920.0</ele>
        <time>2017-05-27T06:57:41.193Z</time>
      </trkpt>
      <trkpt lat="39.97965667" lon="-0.4661">
        <ele>920.0</ele>
        <time>2017-05-27T06:57:42.158Z</time>
      </trkpt>
      <trkpt lat="39.979605" lon="-0.46612667">
        <ele>920.0</ele>
        <time>2017-05-27T06:57:43.170Z</time>
      </trkpt>
      <trkpt lat="39.979605" lon="-0.46612667">
        <ele>920.0</ele>
        <time>2017-05-27T06:57:44.195Z</time>
      </trkpt>
      <trkpt lat="39.979555" lon="-0.46615667">
        <ele>921.0</ele>
        <time>2017-05-27T06:57:45.166Z</time>
      </trkpt>
      <trkpt lat="39.979555" lon="-0.46615667">
        <ele>921.0</ele>
        <time>2017-05-27T06:57:46.193Z</time>
      </trkpt>
      <trkpt lat="39.97950667" lon="-0.46618667">
        <ele>922.0</ele>
        <time>2017-05-27T06:57:47.165Z</time>
      </trkpt>
      <trkpt lat="39.97950667" lon="-0.46618667">
        <ele>922.0</ele>
        <time>2017-05-27T06:57:48.191Z</time>
      </trkpt>
      <trkpt lat="39.97946" lon="-0.46621833">
        <ele>922.0</ele>
        <time>2017-05-27T06:57:49.160Z</time>
      </trkpt>
      <trkpt lat="39.97943667" lon="-0.46623333">
        <ele>922.0</ele>
        <time>2017-05-27T06:57:50.177Z</time>
      </trkpt>
      <trkpt lat="39.97943667" lon="-0.46623333">
        <ele>922.0</ele>
        <time>2017-05-27T06:57:51.187Z</time>
      </trkpt>
      <trkpt lat="39.97939167" lon="-0.466275">
        <ele>923.0</ele>
        <time>2017-05-27T06:57:52.163Z</time>
      </trkpt>
      <trkpt lat="39.97937" lon="-0.46629833">
        <ele>923.0</ele>
        <time>2017-05-27T06:57:53.157Z</time>
      </trkpt>
      <trkpt lat="39.97937" lon="-0.46629833">
        <ele>923.0</ele>
        <time>2017-05-27T06:57:54.163Z</time>
      </trkpt>
      <trkpt lat="39.97932833" lon="-0.46634833">
        <ele>923.0</ele>
        <time>2017-05-27T06:57:55.189Z</time>
      </trkpt>
      <trkpt lat="39.979305" lon="-0.466375">
        <ele>923.0</ele>
        <time>2017-05-27T06:57:56.167Z</time>
      </trkpt>
      <trkpt lat="39.979305" lon="-0.466375">
        <ele>923.0</ele>
        <time>2017-05-27T06:57:57.187Z</time>
      </trkpt>
      <trkpt lat="39.97926333" lon="-0.46642833">
        <ele>923.0</ele>
        <time>2017-05-27T06:57:58.156Z</time>
      </trkpt>
      <trkpt lat="39.97924167" lon="-0.46645667">
        <ele>923.0</ele>
        <time>2017-05-27T06:57:59.171Z</time>
      </trkpt>
      <trkpt lat="39.97924167" lon="-0.46645667">
        <ele>923.0</ele>
        <time>2017-05-27T06:58:00.177Z</time>
      </trkpt>
      <trkpt lat="39.97920333" lon="-0.46653">
        <ele>923.0</ele>
        <time>2017-05-27T06:58:01.190Z</time>
      </trkpt>
      <trkpt lat="39.97918167" lon="-0.46657167">
        <ele>923.0</ele>
        <time>2017-05-27T06:58:02.186Z</time>
      </trkpt>
      <trkpt lat="39.97918167" lon="-0.46657167">
        <ele>923.0</ele>
        <time>2017-05-27T06:58:03.195Z</time>
      </trkpt>
      <trkpt lat="39.97913667" lon="-0.46667">
        <ele>923.0</ele>
        <time>2017-05-27T06:58:04.170Z</time>
      </trkpt>
      <trkpt lat="39.97913667" lon="-0.46667">
        <ele>923.0</ele>
        <time>2017-05-27T06:58:05.166Z</time>
      </trkpt>
      <trkpt lat="39.97909" lon="-0.46679333">
        <ele>923.0</ele>
        <time>2017-05-27T06:58:06.184Z</time>
      </trkpt>
      <trkpt lat="39.97909" lon="-0.46679333">
        <ele>923.0</ele>
        <time>2017-05-27T06:58:07.165Z</time>
      </trkpt>
      <trkpt lat="39.97903667" lon="-0.46694">
        <ele>922.0</ele>
        <time>2017-05-27T06:58:08.179Z</time>
      </trkpt>
      <trkpt lat="39.97903667" lon="-0.46694">
        <ele>922.0</ele>
        <time>2017-05-27T06:58:09.169Z</time>
      </trkpt>
      <trkpt lat="39.97897333" lon="-0.46711">
        <ele>922.0</ele>
        <time>2017-05-27T06:58:10.178Z</time>
      </trkpt>
      <trkpt lat="39.97893833" lon="-0.467205">
        <ele>921.0</ele>
        <time>2017-05-27T06:58:11.170Z</time>
      </trkpt>
      <trkpt lat="39.97893833" lon="-0.467205">
        <ele>921.0</ele>
        <time>2017-05-27T06:58:12.175Z</time>
      </trkpt>
      <trkpt lat="39.978865" lon="-0.467415">
        <ele>920.0</ele>
        <time>2017-05-27T06:58:13.195Z</time>
      </trkpt>
      <trkpt lat="39.978825" lon="-0.46753">
        <ele>920.0</ele>
        <time>2017-05-27T06:58:14.167Z</time>
      </trkpt>
      <trkpt lat="39.978825" lon="-0.46753">
        <ele>920.0</ele>
        <time>2017-05-27T06:58:15.159Z</time>
      </trkpt>
      <trkpt lat="39.97873333" lon="-0.46777">
        <ele>918.0</ele>
        <time>2017-05-27T06:58:16.180Z</time>
      </trkpt>
      <trkpt lat="39.97867667" lon="-0.467885">
        <ele>917.0</ele>
        <time>2017-05-27T06:58:17.181Z</time>
      </trkpt>
      <trkpt lat="39.97867667" lon="-0.467885">
        <ele>917.0</ele>
        <time>2017-05-27T06:58:18.189Z</time>
      </trkpt>
      <trkpt lat="39.97851667" lon="-0.46808167">
        <ele>914.0</ele>
        <time>2017-05-27T06:58:19.158Z</time>
      </trkpt>
      <trkpt lat="39.978415" lon="-0.46815333">
        <ele>913.0</ele>
        <time>2017-05-27T06:58:20.197Z</time>
      </trkpt>
      <trkpt lat="39.978415" lon="-0.46815333">
        <ele>913.0</ele>
        <time>2017-05-27T06:58:21.182Z</time>
      </trkpt>
      <trkpt lat="39.97818" lon="-0.46823">
        <ele>912.0</ele>
        <time>2017-05-27T06:58:22.156Z</time>
      </trkpt>
      <trkpt lat="39.97805833" lon="-0.46821833">
        <ele>911.0</ele>
        <time>2017-05-27T06:58:23.181Z</time>
      </trkpt>
      <trkpt lat="39.97794167" lon="-0.46816167">
        <ele>911.0</ele>
        <time>2017-05-27T06:58:24.193Z</time>
      </trkpt>
      <trkpt lat="39.97794167" lon="-0.46816167">
        <ele>911.0</ele>
        <time>2017-05-27T06:58:25.169Z</time>
      </trkpt>
      <trkpt lat="39.97773" lon="-0.46800167">
        <ele>910.0</ele>
        <time>2017-05-27T06:58:26.191Z</time>
      </trkpt>
      <trkpt lat="39.97773" lon="-0.46800167">
        <ele>910.0</ele>
        <time>2017-05-27T06:58:27.188Z</time>
      </trkpt>
      <trkpt lat="39.97753667" lon="-0.467835">
        <ele>909.0</ele>
        <time>2017-05-27T06:58:28.169Z</time>
      </trkpt>
      <trkpt lat="39.97744333" lon="-0.46775833">
        <ele>909.0</ele>
        <time>2017-05-27T06:58:29.190Z</time>
      </trkpt>
      <trkpt lat="39.97744333" lon="-0.46775833">
        <ele>909.0</ele>
        <time>2017-05-27T06:58:30.157Z</time>
      </trkpt>
      <trkpt lat="39.97725167" lon="-0.46763833">
        <ele>909.0</ele>
        <time>2017-05-27T06:58:31.176Z</time>
      </trkpt>
      <trkpt lat="39.97725167" lon="-0.46763833">
        <ele>909.0</ele>
        <time>2017-05-27T06:58:32.184Z</time>
      </trkpt>
      <trkpt lat="39.977065" lon="-0.467545">
        <ele>909.0</ele>
        <time>2017-05-27T06:58:33.196Z</time>
      </trkpt>
      <trkpt lat="39.97697167" lon="-0.46750667">
        <ele>909.0</ele>
        <time>2017-05-27T06:58:34.168Z</time>
      </trkpt>
      <trkpt lat="39.97697167" lon="-0.46750667">
        <ele>909.0</ele>
        <time>2017-05-27T06:58:35.188Z</time>
      </trkpt>
      <trkpt lat="39.97678333" lon="-0.46745333">
        <ele>909.0</ele>
        <time>2017-05-27T06:58:36.159Z</time>
      </trkpt>
      <trkpt lat="39.97669167" lon="-0.46744833">
        <ele>909.0</ele>
        <time>2017-05-27T06:58:37.182Z</time>
      </trkpt>
      <trkpt lat="39.97669167" lon="-0.46744833">
        <ele>909.0</ele>
        <time>2017-05-27T06:58:38.165Z</time>
      </trkpt>
      <trkpt lat="39.97650833" lon="-0.46749333">
        <ele>909.0</ele>
        <time>2017-05-27T06:58:39.169Z</time>
      </trkpt>
      <trkpt lat="39.976425" lon="-0.46754667">
        <ele>909.0</ele>
        <time>2017-05-27T06:58:40.160Z</time>
      </trkpt>
      <trkpt lat="39.976425" lon="-0.46754667">
        <ele>909.0</ele>
        <time>2017-05-27T06:58:41.168Z</time>
      </trkpt>
      <trkpt lat="39.97627" lon="-0.46767833">
        <ele>909.0</ele>
        <time>2017-05-27T06:58:42.179Z</time>
      </trkpt>
      <trkpt lat="39.97627" lon="-0.46767833">
        <ele>909.0</ele>
        <time>2017-05-27T06:58:43.162Z</time>
      </trkpt>
      <trkpt lat="39.97611833" lon="-0.46781">
        <ele>908.0</ele>
        <time>2017-05-27T06:58:44.175Z</time>
      </trkpt>
      <trkpt lat="39.97611833" lon="-0.46781">
        <ele>908.0</ele>
        <time>2017-05-27T06:58:45.165Z</time>
      </trkpt>
      <trkpt lat="39.97597167" lon="-0.46795333">
        <ele>908.0</ele>
        <time>2017-05-27T06:58:46.172Z</time>
      </trkpt>
      <trkpt lat="39.9759" lon="-0.46803333">
        <ele>908.0</ele>
        <time>2017-05-27T06:58:47.169Z</time>
      </trkpt>
      <trkpt lat="39.9759" lon="-0.46803333">
        <ele>908.0</ele>
        <time>2017-05-27T06:58:48.175Z</time>
      </trkpt>
      <trkpt lat="39.975755" lon="-0.468205">
        <ele>907.0</ele>
        <time>2017-05-27T06:58:49.185Z</time>
      </trkpt>
      <trkpt lat="39.97568" lon="-0.46829667">
        <ele>906.0</ele>
        <time>2017-05-27T06:58:50.159Z</time>
      </trkpt>
      <trkpt lat="39.97568" lon="-0.46829667">
        <ele>906.0</ele>
        <time>2017-05-27T06:58:51.191Z</time>
      </trkpt>
      <trkpt lat="39.97551833" lon="-0.468475">
        <ele>905.0</ele>
        <time>2017-05-27T06:58:52.163Z</time>
      </trkpt>
      <trkpt lat="39.97543333" lon="-0.46856">
        <ele>905.0</ele>
        <time>2017-05-27T06:58:53.192Z</time>
      </trkpt>
      <trkpt lat="39.97534333" lon="-0.46863333">
        <ele>904.0</ele>
        <time>2017-05-27T06:58:54.158Z</time>
      </trkpt>
      <trkpt lat="39.97534333" lon="-0.46863333">
        <ele>904.0</ele>
        <time>2017-05-27T06:58:55.174Z</time>
      </trkpt>
      <trkpt lat="39.97513167" lon="-0.46867667">
        <ele>903.0</ele>
        <time>2017-05-27T06:58:56.162Z</time>
      </trkpt>
      <trkpt lat="39.97502333" lon="-0.46864833">
        <ele>902.0</ele>
        <time>2017-05-27T06:58:57.178Z</time>
      </trkpt>
      <trkpt lat="39.97502333" lon="-0.46864833">
        <ele>902.0</ele>
        <time>2017-05-27T06:58:58.168Z</time>
      </trkpt>
      <trkpt lat="39.97480333" lon="-0.46859">
        <ele>901.0</ele>
        <time>2017-05-27T06:58:59.184Z</time>
      </trkpt>
      <trkpt lat="39.97480333" lon="-0.46859">
        <ele>901.0</ele>
        <time>2017-05-27T06:59:00.169Z</time>
      </trkpt>
      <trkpt lat="39.97458167" lon="-0.46862833">
        <ele>900.0</ele>
        <time>2017-05-27T06:59:01.178Z</time>
      </trkpt>
      <trkpt lat="39.97458167" lon="-0.46862833">
        <ele>900.0</ele>
        <time>2017-05-27T06:59:02.170Z</time>
      </trkpt>
      <trkpt lat="39.97436667" lon="-0.46873167">
        <ele>899.0</ele>
        <time>2017-05-27T06:59:03.179Z</time>
      </trkpt>
      <trkpt lat="39.97425833" lon="-0.46878333">
        <ele>899.0</ele>
        <time>2017-05-27T06:59:04.165Z</time>
      </trkpt>
      <trkpt lat="39.97425833" lon="-0.46878333">
        <ele>899.0</ele>
        <time>2017-05-27T06:59:05.189Z</time>
      </trkpt>
      <trkpt lat="39.97403167" lon="-0.46887">
        <ele>897.0</ele>
        <time>2017-05-27T06:59:06.165Z</time>
      </trkpt>
      <trkpt lat="39.97403167" lon="-0.46887">
        <ele>897.0</ele>
        <time>2017-05-27T06:59:07.193Z</time>
      </trkpt>
      <trkpt lat="39.97378833" lon="-0.46888">
        <ele>895.0</ele>
        <time>2017-05-27T06:59:08.167Z</time>
      </trkpt>
      <trkpt lat="39.97366167" lon="-0.46885167">
        <ele>894.0</ele>
        <time>2017-05-27T06:59:09.173Z</time>
      </trkpt>
      <trkpt lat="39.97366167" lon="-0.46885167">
        <ele>894.0</ele>
        <time>2017-05-27T06:59:10.189Z</time>
      </trkpt>
      <trkpt lat="39.97340333" lon="-0.46878167">
        <ele>893.0</ele>
        <time>2017-05-27T06:59:11.162Z</time>
      </trkpt>
      <trkpt lat="39.97340333" lon="-0.46878167">
        <ele>893.0</ele>
        <time>2017-05-27T06:59:12.187Z</time>
      </trkpt>
      <trkpt lat="39.97315" lon="-0.46873">
        <ele>891.0</ele>
        <time>2017-05-27T06:59:13.176Z</time>
      </trkpt>
      <trkpt lat="39.97315" lon="-0.46873">
        <ele>891.0</ele>
        <time>2017-05-27T06:59:14.171Z</time>
      </trkpt>
      <trkpt lat="39.972895" lon="-0.468685">
        <ele>889.0</ele>
        <time>2017-05-27T06:59:15.189Z</time>
      </trkpt>
      <trkpt lat="39.97276667" lon="-0.468655">
        <ele>888.0</ele>
        <time>2017-05-27T06:59:16.185Z</time>
      </trkpt>
      <trkpt lat="39.972635" lon="-0.46862167">
        <ele>887.0</ele>
        <time>2017-05-27T06:59:17.171Z</time>
      </trkpt>
      <trkpt lat="39.972635" lon="-0.46862167">
        <ele>887.0</ele>
        <time>2017-05-27T06:59:18.177Z</time>
      </trkpt>
      <trkpt lat="39.97238333" lon="-0.46858">
        <ele>885.0</ele>
        <time>2017-05-27T06:59:19.158Z</time>
      </trkpt>
      <trkpt lat="39.97238333" lon="-0.46858">
        <ele>885.0</ele>
        <time>2017-05-27T06:59:20.179Z</time>
      </trkpt>
      <trkpt lat="39.97213333" lon="-0.46856667">
        <ele>883.0</ele>
        <time>2017-05-27T06:59:21.196Z</time>
      </trkpt>
      <trkpt lat="39.97213333" lon="-0.46856667">
        <ele>883.0</ele>
        <time>2017-05-27T06:59:22.169Z</time>
      </trkpt>
      <trkpt lat="39.97189167" lon="-0.468575">
        <ele>881.0</ele>
        <time>2017-05-27T06:59:23.181Z</time>
      </trkpt>
      <trkpt lat="39.97189167" lon="-0.468575">
        <ele>881.0</ele>
        <time>2017-05-27T06:59:24.169Z</time>
      </trkpt>
      <trkpt lat="39.97165333" lon="-0.4686">
        <ele>880.0</ele>
        <time>2017-05-27T06:59:25.196Z</time>
      </trkpt>
      <trkpt lat="39.97165333" lon="-0.4686">
        <ele>880.0</ele>
        <time>2017-05-27T06:59:26.195Z</time>
      </trkpt>
      <trkpt lat="39.97142" lon="-0.46868">
        <ele>878.0</ele>
        <time>2017-05-27T06:59:27.167Z</time>
      </trkpt>
      <trkpt lat="39.97130167" lon="-0.46872">
        <ele>877.0</ele>
        <time>2017-05-27T06:59:28.186Z</time>
      </trkpt>
      <trkpt lat="39.97119333" lon="-0.46875833">
        <ele>875.0</ele>
        <time>2017-05-27T06:59:29.175Z</time>
      </trkpt>
      <trkpt lat="39.97119333" lon="-0.46875833">
        <ele>875.0</ele>
        <time>2017-05-27T06:59:30.180Z</time>
      </trkpt>
      <trkpt lat="39.971" lon="-0.46879833">
        <ele>873.0</ele>
        <time>2017-05-27T06:59:31.165Z</time>
      </trkpt>
      <trkpt lat="39.971" lon="-0.46879833">
        <ele>873.0</ele>
        <time>2017-05-27T06:59:32.172Z</time>
      </trkpt>
      <trkpt lat="39.97088333" lon="-0.46871167">
        <ele>871.0</ele>
        <time>2017-05-27T06:59:33.184Z</time>
      </trkpt>
      <trkpt lat="39.97088333" lon="-0.46871167">
        <ele>871.0</ele>
        <time>2017-05-27T06:59:34.158Z</time>
      </trkpt>
      <trkpt lat="39.97090333" lon="-0.46854333">
        <ele>870.0</ele>
        <time>2017-05-27T06:59:35.170Z</time>
      </trkpt>
      <trkpt lat="39.97090333" lon="-0.46854333">
        <ele>870.0</ele>
        <time>2017-05-27T06:59:36.184Z</time>
      </trkpt>
      <trkpt lat="39.97100333" lon="-0.468415">
        <ele>870.0</ele>
        <time>2017-05-27T06:59:37.189Z</time>
      </trkpt>
      <trkpt lat="39.97100333" lon="-0.468415">
        <ele>870.0</ele>
        <time>2017-05-27T06:59:38.159Z</time>
      </trkpt>
      <trkpt lat="39.97114" lon="-0.46833333">
        <ele>870.0</ele>
        <time>2017-05-27T06:59:39.178Z</time>
      </trkpt>
      <trkpt lat="39.97121167" lon="-0.46830167">
        <ele>870.0</ele>
        <time>2017-05-27T06:59:40.177Z</time>
      </trkpt>
      <trkpt lat="39.97121167" lon="-0.46830167">
        <ele>870.0</ele>
        <time>2017-05-27T06:59:41.171Z</time>
      </trkpt>
      <trkpt lat="39.971365" lon="-0.468235">
        <ele>870.0</ele>
        <time>2017-05-27T06:59:42.185Z</time>
      </trkpt>
      <trkpt lat="39.971365" lon="-0.468235">
        <ele>870.0</ele>
        <time>2017-05-27T06:59:43.194Z</time>
      </trkpt>
      <trkpt lat="39.97152667" lon="-0.468175">
        <ele>869.0</ele>
        <time>2017-05-27T06:59:44.173Z</time>
      </trkpt>
      <trkpt lat="39.971615" lon="-0.46814667">
        <ele>869.0</ele>
        <time>2017-05-27T06:59:45.177Z</time>
      </trkpt>
      <trkpt lat="39.971615" lon="-0.46814667">
        <ele>869.0</ele>
        <time>2017-05-27T06:59:46.177Z</time>
      </trkpt>
      <trkpt lat="39.97179167" lon="-0.468105">
        <ele>868.0</ele>
        <time>2017-05-27T06:59:47.182Z</time>
      </trkpt>
      <trkpt lat="39.97179167" lon="-0.468105">
        <ele>868.0</ele>
        <time>2017-05-27T06:59:48.192Z</time>
      </trkpt>
      <trkpt lat="39.97197333" lon="-0.46807">
        <ele>867.0</ele>
        <time>2017-05-27T06:59:49.164Z</time>
      </trkpt>
      <trkpt lat="39.97197333" lon="-0.46807">
        <ele>867.0</ele>
        <time>2017-05-27T06:59:50.186Z</time>
      </trkpt>
      <trkpt lat="39.97215167" lon="-0.46803667">
        <ele>866.0</ele>
        <time>2017-05-27T06:59:51.195Z</time>
      </trkpt>
      <trkpt lat="39.97215167" lon="-0.46803667">
        <ele>866.0</ele>
        <time>2017-05-27T06:59:52.168Z</time>
      </trkpt>
      <trkpt lat="39.972335" lon="-0.46801">
        <ele>865.0</ele>
        <time>2017-05-27T06:59:53.171Z</time>
      </trkpt>
      <trkpt lat="39.972335" lon="-0.46801">
        <ele>865.0</ele>
        <time>2017-05-27T06:59:54.164Z</time>
      </trkpt>
      <trkpt lat="39.97253333" lon="-0.467965">
        <ele>864.0</ele>
        <time>2017-05-27T06:59:55.175Z</time>
      </trkpt>
      <trkpt lat="39.97253333" lon="-0.467965">
        <ele>864.0</ele>
        <time>2017-05-27T06:59:56.161Z</time>
      </trkpt>
      <trkpt lat="39.97273167" lon="-0.46787333">
        <ele>862.0</ele>
        <time>2017-05-27T06:59:57.168Z</time>
      </trkpt>
      <trkpt lat="39.97283" lon="-0.467815">
        <ele>861.0</ele>
        <time>2017-05-27T06:59:58.166Z</time>
      </trkpt>
      <trkpt lat="39.97292667" lon="-0.46775667">
        <ele>861.0</ele>
        <time>2017-05-27T06:59:59.161Z</time>
      </trkpt>
      <trkpt lat="39.97292667" lon="-0.46775667">
        <ele>861.0</ele>
        <time>2017-05-27T07:00:00.167Z</time>
      </trkpt>
      <trkpt lat="39.973125" lon="-0.46764833">
        <ele>859.0</ele>
        <time>2017-05-27T07:00:01.185Z</time>
      </trkpt>
      <trkpt lat="39.973125" lon="-0.46764833">
        <ele>859.0</ele>
        <time>2017-05-27T07:00:02.169Z</time>
      </trkpt>
      <trkpt lat="39.9733" lon="-0.46752833">
        <ele>858.0</ele>
        <time>2017-05-27T07:00:03.177Z</time>
      </trkpt>
      <trkpt lat="39.9733" lon="-0.46752833">
        <ele>858.0</ele>
        <time>2017-05-27T07:00:04.171Z</time>
      </trkpt>
      <trkpt lat="39.97342833" lon="-0.46738">
        <ele>856.0</ele>
        <time>2017-05-27T07:00:05.175Z</time>
      </trkpt>
      <trkpt lat="39.97342833" lon="-0.46738">
        <ele>856.0</ele>
        <time>2017-05-27T07:00:06.191Z</time>
      </trkpt>
      <trkpt lat="39.973435" lon="-0.46719">
        <ele>854.0</ele>
        <time>2017-05-27T07:00:07.198Z</time>
      </trkpt>
      <trkpt lat="39.973435" lon="-0.46719">
        <ele>854.0</ele>
        <time>2017-05-27T07:00:08.189Z</time>
      </trkpt>
      <trkpt lat="39.97332833" lon="-0.46708167">
        <ele>853.0</ele>
        <time>2017-05-27T07:00:09.164Z</time>
      </trkpt>
      <trkpt lat="39.97332833" lon="-0.46708167">
        <ele>853.0</ele>
        <time>2017-05-27T07:00:10.174Z</time>
      </trkpt>
      <trkpt lat="39.97320167" lon="-0.46709667">
        <ele>852.0</ele>
        <time>2017-05-27T07:00:11.185Z</time>
      </trkpt>
      <trkpt lat="39.97320167" lon="-0.46709667">
        <ele>852.0</ele>
        <time>2017-05-27T07:00:12.162Z</time>
      </trkpt>
      <trkpt lat="39.97307" lon="-0.467155">
        <ele>851.0</ele>
        <time>2017-05-27T07:00:13.199Z</time>
      </trkpt>
      <trkpt lat="39.973" lon="-0.467175">
        <ele>850.0</ele>
        <time>2017-05-27T07:00:14.183Z</time>
      </trkpt>
      <trkpt lat="39.97292667" lon="-0.46718667">
        <ele>849.0</ele>
        <time>2017-05-27T07:00:15.192Z</time>
      </trkpt>
      <trkpt lat="39.97292667" lon="-0.46718667">
        <ele>849.0</ele>
        <time>2017-05-27T07:00:16.189Z</time>
      </trkpt>
      <trkpt lat="39.97276333" lon="-0.46719333">
        <ele>848.0</ele>
        <time>2017-05-27T07:00:17.165Z</time>
      </trkpt>
      <trkpt lat="39.97276333" lon="-0.46719333">
        <ele>848.0</ele>
        <time>2017-05-27T07:00:18.183Z</time>
      </trkpt>
      <trkpt lat="39.97258833" lon="-0.467145">
        <ele>846.0</ele>
        <time>2017-05-27T07:00:19.196Z</time>
      </trkpt>
      <trkpt lat="39.97258833" lon="-0.467145">
        <ele>846.0</ele>
        <time>2017-05-27T07:00:20.165Z</time>
      </trkpt>
      <trkpt lat="39.97242167" lon="-0.46704667">
        <ele>845.0</ele>
        <time>2017-05-27T07:00:21.207Z</time>
      </trkpt>
      <trkpt lat="39.97242167" lon="-0.46704667">
        <ele>845.0</ele>
        <time>2017-05-27T07:00:22.195Z</time>
      </trkpt>
      <trkpt lat="39.97225833" lon="-0.46695">
        <ele>844.0</ele>
        <time>2017-05-27T07:00:23.176Z</time>
      </trkpt>
      <trkpt lat="39.97225833" lon="-0.46695">
        <ele>844.0</ele>
        <time>2017-05-27T07:00:24.164Z</time>
      </trkpt>
      <trkpt lat="39.97209" lon="-0.46686">
        <ele>842.0</ele>
        <time>2017-05-27T07:00:25.157Z</time>
      </trkpt>
      <trkpt lat="39.97200167" lon="-0.466845">
        <ele>841.0</ele>
        <time>2017-05-27T07:00:26.194Z</time>
      </trkpt>
      <trkpt lat="39.97200167" lon="-0.466845">
        <ele>841.0</ele>
        <time>2017-05-27T07:00:27.191Z</time>
      </trkpt>
      <trkpt lat="39.97180833" lon="-0.46686833">
        <ele>840.0</ele>
        <time>2017-05-27T07:00:28.167Z</time>
      </trkpt>
      <trkpt lat="39.971715" lon="-0.46689167">
        <ele>840.0</ele>
        <time>2017-05-27T07:00:29.191Z</time>
      </trkpt>
      <trkpt lat="39.971715" lon="-0.46689167">
        <ele>840.0</ele>
        <time>2017-05-27T07:00:30.157Z</time>
      </trkpt>
      <trkpt lat="39.97152667" lon="-0.46696167">
        <ele>839.0</ele>
        <time>2017-05-27T07:00:31.172Z</time>
      </trkpt>
      <trkpt lat="39.97152667" lon="-0.46696167">
        <ele>839.0</ele>
        <time>2017-05-27T07:00:32.173Z</time>
      </trkpt>
      <trkpt lat="39.97132833" lon="-0.46702667">
        <ele>837.0</ele>
        <time>2017-05-27T07:00:33.199Z</time>
      </trkpt>
      <trkpt lat="39.97122167" lon="-0.467045">
        <ele>837.0</ele>
        <time>2017-05-27T07:00:34.185Z</time>
      </trkpt>
      <trkpt lat="39.97111833" lon="-0.46706667">
        <ele>836.0</ele>
        <time>2017-05-27T07:00:35.167Z</time>
      </trkpt>
      <trkpt lat="39.97111833" lon="-0.46706667">
        <ele>836.0</ele>
        <time>2017-05-27T07:00:36.173Z</time>
      </trkpt>
      <trkpt lat="39.97091833" lon="-0.46710833">
        <ele>834.0</ele>
        <time>2017-05-27T07:00:37.182Z</time>
      </trkpt>
      <trkpt lat="39.97091833" lon="-0.46710833">
        <ele>834.0</ele>
        <time>2017-05-27T07:00:38.173Z</time>
      </trkpt>
      <trkpt lat="39.97072" lon="-0.46712833">
        <ele>833.0</ele>
        <time>2017-05-27T07:00:39.196Z</time>
      </trkpt>
      <trkpt lat="39.97072" lon="-0.46712833">
        <ele>833.0</ele>
        <time>2017-05-27T07:00:40.189Z</time>
      </trkpt>
      <trkpt lat="39.97052167" lon="-0.46712333">
        <ele>831.0</ele>
        <time>2017-05-27T07:00:41.157Z</time>
      </trkpt>
      <trkpt lat="39.97052167" lon="-0.46712333">
        <ele>831.0</ele>
        <time>2017-05-27T07:00:42.189Z</time>
      </trkpt>
      <trkpt lat="39.97031833" lon="-0.46709167">
        <ele>830.0</ele>
        <time>2017-05-27T07:00:43.169Z</time>
      </trkpt>
      <trkpt lat="39.97021" lon="-0.46705833">
        <ele>829.0</ele>
        <time>2017-05-27T07:00:44.170Z</time>
      </trkpt>
      <trkpt lat="39.97021" lon="-0.46705833">
        <ele>829.0</ele>
        <time>2017-05-27T07:00:45.190Z</time>
      </trkpt>
      <trkpt lat="39.97002" lon="-0.46699833">
        <ele>828.0</ele>
        <time>2017-05-27T07:00:46.162Z</time>
      </trkpt>
      <trkpt lat="39.969935" lon="-0.46698">
        <ele>827.0</ele>
        <time>2017-05-27T07:00:47.181Z</time>
      </trkpt>
      <trkpt lat="39.969935" lon="-0.46698">
        <ele>827.0</ele>
        <time>2017-05-27T07:00:48.190Z</time>
      </trkpt>
      <trkpt lat="39.96978" lon="-0.46699">
        <ele>825.0</ele>
        <time>2017-05-27T07:00:49.176Z</time>
      </trkpt>
      <trkpt lat="39.96978" lon="-0.46699">
        <ele>825.0</ele>
        <time>2017-05-27T07:00:50.189Z</time>
      </trkpt>
      <trkpt lat="39.969625" lon="-0.467075">
        <ele>824.0</ele>
        <time>2017-05-27T07:00:51.169Z</time>
      </trkpt>
      <trkpt lat="39.969625" lon="-0.467075">
        <ele>824.0</ele>
        <time>2017-05-27T07:00:52.168Z</time>
      </trkpt>
      <trkpt lat="39.96950667" lon="-0.46722167">
        <ele>823.0</ele>
        <time>2017-05-27T07:00:53.181Z</time>
      </trkpt>
      <trkpt lat="39.96950667" lon="-0.46722167">
        <ele>823.0</ele>
        <time>2017-05-27T07:00:54.179Z</time>
      </trkpt>
      <trkpt lat="39.96939333" lon="-0.46739667">
        <ele>821.0</ele>
        <time>2017-05-27T07:00:55.190Z</time>
      </trkpt>
      <trkpt lat="39.96939333" lon="-0.46739667">
        <ele>821.0</ele>
        <time>2017-05-27T07:00:56.187Z</time>
      </trkpt>
      <trkpt lat="39.96928667" lon="-0.46755167">
        <ele>820.0</ele>
        <time>2017-05-27T07:00:57.184Z</time>
      </trkpt>
      <trkpt lat="39.96924167" lon="-0.46760833">
        <ele>819.0</ele>
        <time>2017-05-27T07:00:58.185Z</time>
      </trkpt>
      <trkpt lat="39.96924167" lon="-0.46760833">
        <ele>819.0</ele>
        <time>2017-05-27T07:00:59.161Z</time>
      </trkpt>
      <trkpt lat="39.96915167" lon="-0.46768667">
        <ele>818.0</ele>
        <time>2017-05-27T07:01:00.175Z</time>
      </trkpt>
      <trkpt lat="39.96915167" lon="-0.46768667">
        <ele>818.0</ele>
        <time>2017-05-27T07:01:01.171Z</time>
      </trkpt>
      <trkpt lat="39.96906833" lon="-0.467755">
        <ele>816.0</ele>
        <time>2017-05-27T07:01:02.186Z</time>
      </trkpt>
      <trkpt lat="39.96906833" lon="-0.467755">
        <ele>816.0</ele>
        <time>2017-05-27T07:01:03.174Z</time>
      </trkpt>
      <trkpt lat="39.96898167" lon="-0.46775833">
        <ele>815.0</ele>
        <time>2017-05-27T07:01:04.193Z</time>
      </trkpt>
      <trkpt lat="39.96894833" lon="-0.46772667">
        <ele>815.0</ele>
        <time>2017-05-27T07:01:05.161Z</time>
      </trkpt>
      <trkpt lat="39.96894833" lon="-0.46772667">
        <ele>815.0</ele>
        <time>2017-05-27T07:01:06.167Z</time>
      </trkpt>
      <trkpt lat="39.968925" lon="-0.46765167">
        <ele>814.0</ele>
        <time>2017-05-27T07:01:07.184Z</time>
      </trkpt>
      <trkpt lat="39.96892" lon="-0.46762167">
        <ele>814.0</ele>
        <time>2017-05-27T07:01:08.188Z</time>
      </trkpt>
      <trkpt lat="39.96892" lon="-0.46762167">
        <ele>814.0</ele>
        <time>2017-05-27T07:01:09.167Z</time>
      </trkpt>
      <trkpt lat="39.96891667" lon="-0.46759667">
        <ele>813.0</ele>
        <time>2017-05-27T07:01:10.176Z</time>
      </trkpt>
      <trkpt lat="39.968915" lon="-0.46759167">
        <ele>813.0</ele>
        <time>2017-05-27T07:01:11.165Z</time>
      </trkpt>
      <trkpt lat="39.968915" lon="-0.46759167">
        <ele>813.0</ele>
        <time>2017-05-27T07:01:12.170Z</time>
      </trkpt>
      <trkpt lat="39.968955" lon="-0.46754333">
        <ele>813.0</ele>
        <time>2017-05-27T07:01:13.176Z</time>
      </trkpt>
      <trkpt lat="39.968955" lon="-0.46754333">
        <ele>813.0</ele>
        <time>2017-05-27T07:01:14.168Z</time>
      </trkpt>
      <trkpt lat="39.96895833" lon="-0.46754">
        <ele>813.0</ele>
        <time>2017-05-27T07:01:15.188Z</time>
      </trkpt>
      <trkpt lat="39.96895833" lon="-0.46754">
        <ele>813.0</ele>
        <time>2017-05-27T07:01:16.167Z</time>
      </trkpt>
      <trkpt lat="39.96895833" lon="-0.46754">
        <ele>813.0</ele>
        <time>2017-05-27T07:01:17.157Z</time>
      </trkpt>
      <trkpt lat="39.96895833" lon="-0.46754">
        <ele>813.0</ele>
        <time>2017-05-27T07:01:18.170Z</time>
      </trkpt>
      <trkpt lat="39.96894" lon="-0.467455">
        <ele>813.0</ele>
        <time>2017-05-27T07:01:19.196Z</time>
      </trkpt>
      <trkpt lat="39.96894" lon="-0.467455">
        <ele>813.0</ele>
        <time>2017-05-27T07:01:20.193Z</time>
      </trkpt>
      <trkpt lat="39.96891833" lon="-0.46739333">
        <ele>813.0</ele>
        <time>2017-05-27T07:01:21.195Z</time>
      </trkpt>
      <trkpt lat="39.96891833" lon="-0.46739333">
        <ele>813.0</ele>
        <time>2017-05-27T07:01:22.161Z</time>
      </trkpt>
      <trkpt lat="39.96890167" lon="-0.46732">
        <ele>813.0</ele>
        <time>2017-05-27T07:01:23.191Z</time>
      </trkpt>
      <trkpt lat="39.9689" lon="-0.46727667">
        <ele>813.0</ele>
        <time>2017-05-27T07:01:24.190Z</time>
      </trkpt>
      <trkpt lat="39.9689" lon="-0.46727667">
        <ele>813.0</ele>
        <time>2017-05-27T07:01:25.156Z</time>
      </trkpt>
      <trkpt lat="39.96890167" lon="-0.46717667">
        <ele>813.0</ele>
        <time>2017-05-27T07:01:26.187Z</time>
      </trkpt>
      <trkpt lat="39.96890167" lon="-0.46717667">
        <ele>813.0</ele>
        <time>2017-05-27T07:01:27.192Z</time>
      </trkpt>
      <trkpt lat="39.9689" lon="-0.46706333">
        <ele>812.0</ele>
        <time>2017-05-27T07:01:28.177Z</time>
      </trkpt>
      <trkpt lat="39.9689" lon="-0.46706333">
        <ele>812.0</ele>
        <time>2017-05-27T07:01:29.184Z</time>
      </trkpt>
      <trkpt lat="39.968895" lon="-0.46695167">
        <ele>812.0</ele>
        <time>2017-05-27T07:01:30.158Z</time>
      </trkpt>
      <trkpt lat="39.96889333" lon="-0.46689167">
        <ele>812.0</ele>
        <time>2017-05-27T07:01:31.164Z</time>
      </trkpt>
      <trkpt lat="39.96889333" lon="-0.46689167">
        <ele>812.0</ele>
        <time>2017-05-27T07:01:32.169Z</time>
      </trkpt>
      <trkpt lat="39.968885" lon="-0.46678167">
        <ele>812.0</ele>
        <time>2017-05-27T07:01:33.156Z</time>
      </trkpt>
      <trkpt lat="39.96888333" lon="-0.466725">
        <ele>811.0</ele>
        <time>2017-05-27T07:01:34.188Z</time>
      </trkpt>
      <trkpt lat="39.96888333" lon="-0.466725">
        <ele>811.0</ele>
        <time>2017-05-27T07:01:35.194Z</time>
      </trkpt>
      <trkpt lat="39.968875" lon="-0.46660667">
        <ele>811.0</ele>
        <time>2017-05-27T07:01:36.181Z</time>
      </trkpt>
      <trkpt lat="39.96887333" lon="-0.46654833">
        <ele>811.0</ele>
        <time>2017-05-27T07:01:37.187Z</time>
      </trkpt>
      <trkpt lat="39.96887333" lon="-0.46654833">
        <ele>811.0</ele>
        <time>2017-05-27T07:01:38.166Z</time>
      </trkpt>
      <trkpt lat="39.96886667" lon="-0.46643">
        <ele>811.0</ele>
        <time>2017-05-27T07:01:39.164Z</time>
      </trkpt>
      <trkpt lat="39.96886667" lon="-0.46643">
        <ele>811.0</ele>
        <time>2017-05-27T07:01:40.188Z</time>
      </trkpt>
      <trkpt lat="39.96885167" lon="-0.46630333">
        <ele>811.0</ele>
        <time>2017-05-27T07:01:41.181Z</time>
      </trkpt>
      <trkpt lat="39.96885167" lon="-0.46630333">
        <ele>811.0</ele>
        <time>2017-05-27T07:01:42.187Z</time>
      </trkpt>
      <trkpt lat="39.968865" lon="-0.46617">
        <ele>811.0</ele>
        <time>2017-05-27T07:01:43.180Z</time>
      </trkpt>
      <trkpt lat="39.968865" lon="-0.46617">
        <ele>811.0</ele>
        <time>2017-05-27T07:01:44.187Z</time>
      </trkpt>
      <trkpt lat="39.96888" lon="-0.46602667">
        <ele>811.0</ele>
        <time>2017-05-27T07:01:45.181Z</time>
      </trkpt>
      <trkpt lat="39.96888333" lon="-0.465945">
        <ele>811.0</ele>
        <time>2017-05-27T07:01:46.165Z</time>
      </trkpt>
      <trkpt lat="39.96888333" lon="-0.465945">
        <ele>811.0</ele>
        <time>2017-05-27T07:01:47.171Z</time>
      </trkpt>
      <trkpt lat="39.968905" lon="-0.46578">
        <ele>810.0</ele>
        <time>2017-05-27T07:01:48.159Z</time>
      </trkpt>
      <trkpt lat="39.96893333" lon="-0.46569667">
        <ele>810.0</ele>
        <time>2017-05-27T07:01:49.168Z</time>
      </trkpt>
      <trkpt lat="39.96893333" lon="-0.46569667">
        <ele>810.0</ele>
        <time>2017-05-27T07:01:50.175Z</time>
      </trkpt>
      <trkpt lat="39.96902833" lon="-0.46555">
        <ele>809.0</ele>
        <time>2017-05-27T07:01:51.182Z</time>
      </trkpt>
      <trkpt lat="39.96902833" lon="-0.46555">
        <ele>809.0</ele>
        <time>2017-05-27T07:01:52.188Z</time>
      </trkpt>
      <trkpt lat="39.96914167" lon="-0.46541333">
        <ele>809.0</ele>
        <time>2017-05-27T07:01:53.179Z</time>
      </trkpt>
      <trkpt lat="39.9692" lon="-0.46535">
        <ele>809.0</ele>
        <time>2017-05-27T07:01:54.164Z</time>
      </trkpt>
      <trkpt lat="39.9692" lon="-0.46535">
        <ele>809.0</ele>
        <time>2017-05-27T07:01:55.170Z</time>
      </trkpt>
      <trkpt lat="39.969315" lon="-0.46522">
        <ele>809.0</ele>
        <time>2017-05-27T07:01:56.157Z</time>
      </trkpt>
      <trkpt lat="39.969315" lon="-0.46522">
        <ele>809.0</ele>
        <time>2017-05-27T07:01:57.163Z</time>
      </trkpt>
      <trkpt lat="39.96939333" lon="-0.46506167">
        <ele>809.0</ele>
        <time>2017-05-27T07:01:58.195Z</time>
      </trkpt>
      <trkpt lat="39.96939333" lon="-0.46506167">
        <ele>809.0</ele>
        <time>2017-05-27T07:01:59.161Z</time>
      </trkpt>
      <trkpt lat="39.96940667" lon="-0.46488333">
        <ele>808.0</ele>
        <time>2017-05-27T07:02:00.163Z</time>
      </trkpt>
      <trkpt lat="39.96940667" lon="-0.46488333">
        <ele>808.0</ele>
        <time>2017-05-27T07:02:01.169Z</time>
      </trkpt>
      <trkpt lat="39.96937667" lon="-0.46471167">
        <ele>808.0</ele>
        <time>2017-05-27T07:02:02.164Z</time>
      </trkpt>
      <trkpt lat="39.96937667" lon="-0.46471167">
        <ele>808.0</ele>
        <time>2017-05-27T07:02:03.170Z</time>
      </trkpt>
      <trkpt lat="39.96929833" lon="-0.46456833">
        <ele>807.0</ele>
        <time>2017-05-27T07:02:04.193Z</time>
      </trkpt>
      <trkpt lat="39.96929833" lon="-0.46456833">
        <ele>807.0</ele>
        <time>2017-05-27T07:02:05.159Z</time>
      </trkpt>
      <trkpt lat="39.96916167" lon="-0.46449667">
        <ele>808.0</ele>
        <time>2017-05-27T07:02:06.189Z</time>
      </trkpt>
      <trkpt lat="39.969095" lon="-0.46445167">
        <ele>807.0</ele>
        <time>2017-05-27T07:02:07.156Z</time>
      </trkpt>
      <trkpt lat="39.96904" lon="-0.46438667">
        <ele>807.0</ele>
        <time>2017-05-27T07:02:08.159Z</time>
      </trkpt>
      <trkpt lat="39.96904" lon="-0.46438667">
        <ele>807.0</ele>
        <time>2017-05-27T07:02:09.165Z</time>
      </trkpt>
      <trkpt lat="39.96902167" lon="-0.46421667">
        <ele>806.0</ele>
        <time>2017-05-27T07:02:10.188Z</time>
      </trkpt>
      <trkpt lat="39.96902167" lon="-0.46421667">
        <ele>806.0</ele>
        <time>2017-05-27T07:02:11.194Z</time>
      </trkpt>
      <trkpt lat="39.96910667" lon="-0.46405333">
        <ele>805.0</ele>
        <time>2017-05-27T07:02:12.191Z</time>
      </trkpt>
      <trkpt lat="39.96910667" lon="-0.46405333">
        <ele>805.0</ele>
        <time>2017-05-27T07:02:13.163Z</time>
      </trkpt>
      <trkpt lat="39.96924667" lon="-0.46391333">
        <ele>803.0</ele>
        <time>2017-05-27T07:02:14.162Z</time>
      </trkpt>
      <trkpt lat="39.96924667" lon="-0.46391333">
        <ele>803.0</ele>
        <time>2017-05-27T07:02:15.174Z</time>
      </trkpt>
      <trkpt lat="39.96939833" lon="-0.46379333">
        <ele>801.0</ele>
        <time>2017-05-27T07:02:16.172Z</time>
      </trkpt>
      <trkpt lat="39.96939833" lon="-0.46379333">
        <ele>801.0</ele>
        <time>2017-05-27T07:02:17.185Z</time>
      </trkpt>
      <trkpt lat="39.96954667" lon="-0.46367333">
        <ele>800.0</ele>
        <time>2017-05-27T07:02:18.174Z</time>
      </trkpt>
      <trkpt lat="39.96954667" lon="-0.46367333">
        <ele>800.0</ele>
        <time>2017-05-27T07:02:19.187Z</time>
      </trkpt>
      <trkpt lat="39.96967833" lon="-0.46354667">
        <ele>798.0</ele>
        <time>2017-05-27T07:02:20.190Z</time>
      </trkpt>
      <trkpt lat="39.96967833" lon="-0.46354667">
        <ele>798.0</ele>
        <time>2017-05-27T07:02:21.160Z</time>
      </trkpt>
      <trkpt lat="39.96979667" lon="-0.46341">
        <ele>796.0</ele>
        <time>2017-05-27T07:02:22.194Z</time>
      </trkpt>
      <trkpt lat="39.96979667" lon="-0.46341">
        <ele>796.0</ele>
        <time>2017-05-27T07:02:23.161Z</time>
      </trkpt>
      <trkpt lat="39.96983667" lon="-0.46321">
        <ele>794.0</ele>
        <time>2017-05-27T07:02:24.185Z</time>
      </trkpt>
      <trkpt lat="39.96981" lon="-0.463105">
        <ele>793.0</ele>
        <time>2017-05-27T07:02:25.192Z</time>
      </trkpt>
      <trkpt lat="39.96981" lon="-0.463105">
        <ele>793.0</ele>
        <time>2017-05-27T07:02:26.162Z</time>
      </trkpt>
      <trkpt lat="39.96974167" lon="-0.46289333">
        <ele>790.0</ele>
        <time>2017-05-27T07:02:27.184Z</time>
      </trkpt>
      <trkpt lat="39.96974167" lon="-0.46289333">
        <ele>790.0</ele>
        <time>2017-05-27T07:02:28.156Z</time>
      </trkpt>
      <trkpt lat="39.96969167" lon="-0.46267167">
        <ele>788.0</ele>
        <time>2017-05-27T07:02:29.189Z</time>
      </trkpt>
      <trkpt lat="39.96965833" lon="-0.46257333">
        <ele>787.0</ele>
        <time>2017-05-27T07:02:30.189Z</time>
      </trkpt>
      <trkpt lat="39.96965833" lon="-0.46257333">
        <ele>787.0</ele>
        <time>2017-05-27T07:02:31.156Z</time>
      </trkpt>
      <trkpt lat="39.96956333" lon="-0.46242167">
        <ele>785.0</ele>
        <time>2017-05-27T07:02:32.194Z</time>
      </trkpt>
      <trkpt lat="39.96956333" lon="-0.46242167">
        <ele>785.0</ele>
        <time>2017-05-27T07:02:33.162Z</time>
      </trkpt>
      <trkpt lat="39.96947667" lon="-0.46227333">
        <ele>784.0</ele>
        <time>2017-05-27T07:02:34.159Z</time>
      </trkpt>
      <trkpt lat="39.96947667" lon="-0.46227333">
        <ele>784.0</ele>
        <time>2017-05-27T07:02:35.167Z</time>
      </trkpt>
      <trkpt lat="39.96946667" lon="-0.46208667">
        <ele>782.0</ele>
        <time>2017-05-27T07:02:36.194Z</time>
      </trkpt>
      <trkpt lat="39.96949167" lon="-0.461985">
        <ele>781.0</ele>
        <time>2017-05-27T07:02:37.164Z</time>
      </trkpt>
      <trkpt lat="39.96949167" lon="-0.461985">
        <ele>781.0</ele>
        <time>2017-05-27T07:02:38.172Z</time>
      </trkpt>
      <trkpt lat="39.96954667" lon="-0.461765">
        <ele>779.0</ele>
        <time>2017-05-27T07:02:39.178Z</time>
      </trkpt>
      <trkpt lat="39.96956167" lon="-0.46165">
        <ele>778.0</ele>
        <time>2017-05-27T07:02:40.164Z</time>
      </trkpt>
      <trkpt lat="39.96956167" lon="-0.46165">
        <ele>778.0</ele>
        <time>2017-05-27T07:02:41.172Z</time>
      </trkpt>
      <trkpt lat="39.96954333" lon="-0.46141833">
        <ele>777.0</ele>
        <time>2017-05-27T07:02:42.161Z</time>
      </trkpt>
      <trkpt lat="39.96952167" lon="-0.46130167">
        <ele>775.0</ele>
        <time>2017-05-27T07:02:43.169Z</time>
      </trkpt>
      <trkpt lat="39.96952167" lon="-0.46130167">
        <ele>775.0</ele>
        <time>2017-05-27T07:02:44.166Z</time>
      </trkpt>
      <trkpt lat="39.969515" lon="-0.46106667">
        <ele>774.0</ele>
        <time>2017-05-27T07:02:45.165Z</time>
      </trkpt>
      <trkpt lat="39.969515" lon="-0.46106667">
        <ele>774.0</ele>
        <time>2017-05-27T07:02:46.171Z</time>
      </trkpt>
      <trkpt lat="39.969545" lon="-0.46084667">
        <ele>772.0</ele>
        <time>2017-05-27T07:02:47.173Z</time>
      </trkpt>
      <trkpt lat="39.969545" lon="-0.46084667">
        <ele>772.0</ele>
        <time>2017-05-27T07:02:48.184Z</time>
      </trkpt>
      <trkpt lat="39.969545" lon="-0.46062167">
        <ele>769.0</ele>
        <time>2017-05-27T07:02:49.171Z</time>
      </trkpt>
      <trkpt lat="39.96953833" lon="-0.46051167">
        <ele>768.0</ele>
        <time>2017-05-27T07:02:50.184Z</time>
      </trkpt>
      <trkpt lat="39.96953833" lon="-0.46051167">
        <ele>768.0</ele>
        <time>2017-05-27T07:02:51.190Z</time>
      </trkpt>
      <trkpt lat="39.96952" lon="-0.460315">
        <ele>767.0</ele>
        <time>2017-05-27T07:02:52.185Z</time>
      </trkpt>
      <trkpt lat="39.96952" lon="-0.460315">
        <ele>767.0</ele>
        <time>2017-05-27T07:02:53.191Z</time>
      </trkpt>
      <trkpt lat="39.96945333" lon="-0.46019333">
        <ele>765.0</ele>
        <time>2017-05-27T07:02:54.180Z</time>
      </trkpt>
      <trkpt lat="39.96941167" lon="-0.46015167">
        <ele>764.0</ele>
        <time>2017-05-27T07:02:55.187Z</time>
      </trkpt>
      <trkpt lat="39.96941167" lon="-0.46015167">
        <ele>764.0</ele>
        <time>2017-05-27T07:02:56.194Z</time>
      </trkpt>
      <trkpt lat="39.96935" lon="-0.46004167">
        <ele>763.0</ele>
        <time>2017-05-27T07:02:57.174Z</time>
      </trkpt>
      <trkpt lat="39.96936" lon="-0.45997667">
        <ele>762.0</ele>
        <time>2017-05-27T07:02:58.160Z</time>
      </trkpt>
      <trkpt lat="39.96936" lon="-0.45997667">
        <ele>762.0</ele>
        <time>2017-05-27T07:02:59.167Z</time>
      </trkpt>
      <trkpt lat="39.96942667" lon="-0.45985667">
        <ele>761.0</ele>
        <time>2017-05-27T07:03:00.185Z</time>
      </trkpt>
      <trkpt lat="39.96942667" lon="-0.45985667">
        <ele>761.0</ele>
        <time>2017-05-27T07:03:01.195Z</time>
      </trkpt>
      <trkpt lat="39.96950667" lon="-0.45972833">
        <ele>760.0</ele>
        <time>2017-05-27T07:03:02.180Z</time>
      </trkpt>
      <trkpt lat="39.96950667" lon="-0.45972833">
        <ele>760.0</ele>
        <time>2017-05-27T07:03:03.186Z</time>
      </trkpt>
      <trkpt lat="39.96956833" lon="-0.45957833">
        <ele>759.0</ele>
        <time>2017-05-27T07:03:04.174Z</time>
      </trkpt>
      <trkpt lat="39.96960167" lon="-0.45950833">
        <ele>759.0</ele>
        <time>2017-05-27T07:03:05.172Z</time>
      </trkpt>
      <trkpt lat="39.96964" lon="-0.45944667">
        <ele>759.0</ele>
        <time>2017-05-27T07:03:06.192Z</time>
      </trkpt>
      <trkpt lat="39.96964" lon="-0.45944667">
        <ele>759.0</ele>
        <time>2017-05-27T07:03:07.158Z</time>
      </trkpt>
      <trkpt lat="39.96972833" lon="-0.45936167">
        <ele>758.0</ele>
        <time>2017-05-27T07:03:08.183Z</time>
      </trkpt>
      <trkpt lat="39.96972833" lon="-0.45936167">
        <ele>758.0</ele>
        <time>2017-05-27T07:03:09.191Z</time>
      </trkpt>
      <trkpt lat="39.96983167" lon="-0.45934833">
        <ele>757.0</ele>
        <time>2017-05-27T07:03:10.186Z</time>
      </trkpt>
      <trkpt lat="39.96983167" lon="-0.45934833">
        <ele>757.0</ele>
        <time>2017-05-27T07:03:11.193Z</time>
      </trkpt>
      <trkpt lat="39.96995333" lon="-0.459395">
        <ele>757.0</ele>
        <time>2017-05-27T07:03:12.181Z</time>
      </trkpt>
      <trkpt lat="39.96995333" lon="-0.459395">
        <ele>757.0</ele>
        <time>2017-05-27T07:03:13.166Z</time>
      </trkpt>
      <trkpt lat="39.970085" lon="-0.45944833">
        <ele>756.0</ele>
        <time>2017-05-27T07:03:14.186Z</time>
      </trkpt>
      <trkpt lat="39.97015333" lon="-0.45946">
        <ele>756.0</ele>
        <time>2017-05-27T07:03:15.161Z</time>
      </trkpt>
      <trkpt lat="39.970225" lon="-0.459455">
        <ele>754.0</ele>
        <time>2017-05-27T07:03:16.181Z</time>
      </trkpt>
      <trkpt lat="39.970225" lon="-0.459455">
        <ele>754.0</ele>
        <time>2017-05-27T07:03:17.189Z</time>
      </trkpt>
      <trkpt lat="39.970335" lon="-0.459365">
        <ele>752.0</ele>
        <time>2017-05-27T07:03:18.172Z</time>
      </trkpt>
      <trkpt lat="39.970335" lon="-0.459365">
        <ele>752.0</ele>
        <time>2017-05-27T07:03:19.179Z</time>
      </trkpt>
      <trkpt lat="39.970375" lon="-0.45921833">
        <ele>752.0</ele>
        <time>2017-05-27T07:03:20.172Z</time>
      </trkpt>
      <trkpt lat="39.970375" lon="-0.45921833">
        <ele>752.0</ele>
        <time>2017-05-27T07:03:21.181Z</time>
      </trkpt>
      <trkpt lat="39.97041333" lon="-0.45907">
        <ele>751.0</ele>
        <time>2017-05-27T07:03:22.184Z</time>
      </trkpt>
      <trkpt lat="39.97041333" lon="-0.45907">
        <ele>751.0</ele>
        <time>2017-05-27T07:03:23.193Z</time>
      </trkpt>
      <trkpt lat="39.97048833" lon="-0.45892167">
        <ele>749.0</ele>
        <time>2017-05-27T07:03:24.179Z</time>
      </trkpt>
      <trkpt lat="39.97053667" lon="-0.458845">
        <ele>748.0</ele>
        <time>2017-05-27T07:03:25.192Z</time>
      </trkpt>
      <trkpt lat="39.97053667" lon="-0.458845">
        <ele>748.0</ele>
        <time>2017-05-27T07:03:26.160Z</time>
      </trkpt>
      <trkpt lat="39.97064167" lon="-0.45868667">
        <ele>746.0</ele>
        <time>2017-05-27T07:03:27.174Z</time>
      </trkpt>
      <trkpt lat="39.97064167" lon="-0.45868667">
        <ele>746.0</ele>
        <time>2017-05-27T07:03:28.185Z</time>
      </trkpt>
      <trkpt lat="39.97074167" lon="-0.458535">
        <ele>744.0</ele>
        <time>2017-05-27T07:03:29.174Z</time>
      </trkpt>
      <trkpt lat="39.97074167" lon="-0.458535">
        <ele>744.0</ele>
        <time>2017-05-27T07:03:30.184Z</time>
      </trkpt>
      <trkpt lat="39.97085333" lon="-0.45843">
        <ele>742.0</ele>
        <time>2017-05-27T07:03:31.163Z</time>
      </trkpt>
      <trkpt lat="39.97085333" lon="-0.45843">
        <ele>742.0</ele>
        <time>2017-05-27T07:03:32.169Z</time>
      </trkpt>
      <trkpt lat="39.97097667" lon="-0.45843667">
        <ele>741.0</ele>
        <time>2017-05-27T07:03:33.170Z</time>
      </trkpt>
      <trkpt lat="39.97097667" lon="-0.45843667">
        <ele>741.0</ele>
        <time>2017-05-27T07:03:34.176Z</time>
      </trkpt>
      <trkpt lat="39.97108333" lon="-0.458515">
        <ele>740.0</ele>
        <time>2017-05-27T07:03:35.171Z</time>
      </trkpt>
      <trkpt lat="39.97113" lon="-0.45855667">
        <ele>739.0</ele>
        <time>2017-05-27T07:03:36.180Z</time>
      </trkpt>
      <trkpt lat="39.97113" lon="-0.45855667">
        <ele>739.0</ele>
        <time>2017-05-27T07:03:37.188Z</time>
      </trkpt>
      <trkpt lat="39.97120833" lon="-0.458615">
        <ele>737.0</ele>
        <time>2017-05-27T07:03:38.168Z</time>
      </trkpt>
      <trkpt lat="39.97120833" lon="-0.458615">
        <ele>737.0</ele>
        <time>2017-05-27T07:03:39.174Z</time>
      </trkpt>
      <trkpt lat="39.971285" lon="-0.45868">
        <ele>736.0</ele>
        <time>2017-05-27T07:03:40.164Z</time>
      </trkpt>
      <trkpt lat="39.971285" lon="-0.45868">
        <ele>736.0</ele>
        <time>2017-05-27T07:03:41.170Z</time>
      </trkpt>
      <trkpt lat="39.97135667" lon="-0.45864">
        <ele>734.0</ele>
        <time>2017-05-27T07:03:42.194Z</time>
      </trkpt>
      <trkpt lat="39.97137667" lon="-0.458575">
        <ele>734.0</ele>
        <time>2017-05-27T07:03:43.160Z</time>
      </trkpt>
      <trkpt lat="39.97137667" lon="-0.458575">
        <ele>734.0</ele>
        <time>2017-05-27T07:03:44.166Z</time>
      </trkpt>
      <trkpt lat="39.971365" lon="-0.45845">
        <ele>733.0</ele>
        <time>2017-05-27T07:03:45.174Z</time>
      </trkpt>
      <trkpt lat="39.97133833" lon="-0.45838833">
        <ele>733.0</ele>
        <time>2017-05-27T07:03:46.190Z</time>
      </trkpt>
      <trkpt lat="39.97133833" lon="-0.45838833">
        <ele>733.0</ele>
        <time>2017-05-27T07:03:47.156Z</time>
      </trkpt>
      <trkpt lat="39.971285" lon="-0.45826833">
        <ele>732.0</ele>
        <time>2017-05-27T07:03:48.174Z</time>
      </trkpt>
      <trkpt lat="39.971285" lon="-0.45826833">
        <ele>732.0</ele>
        <time>2017-05-27T07:03:49.181Z</time>
      </trkpt>
      <trkpt lat="39.971265" lon="-0.45813">
        <ele>731.0</ele>
        <time>2017-05-27T07:03:50.161Z</time>
      </trkpt>
      <trkpt lat="39.971265" lon="-0.45813">
        <ele>731.0</ele>
        <time>2017-05-27T07:03:51.167Z</time>
      </trkpt>
      <trkpt lat="39.97129833" lon="-0.45798333">
        <ele>730.0</ele>
        <time>2017-05-27T07:03:52.186Z</time>
      </trkpt>
      <trkpt lat="39.97129833" lon="-0.45798333">
        <ele>730.0</ele>
        <time>2017-05-27T07:03:53.191Z</time>
      </trkpt>
      <trkpt lat="39.97136333" lon="-0.45781167">
        <ele>729.0</ele>
        <time>2017-05-27T07:03:54.174Z</time>
      </trkpt>
      <trkpt lat="39.97140667" lon="-0.457735">
        <ele>729.0</ele>
        <time>2017-05-27T07:03:55.186Z</time>
      </trkpt>
      <trkpt lat="39.97140667" lon="-0.457735">
        <ele>729.0</ele>
        <time>2017-05-27T07:03:56.192Z</time>
      </trkpt>
      <trkpt lat="39.97151833" lon="-0.45761667">
        <ele>728.0</ele>
        <time>2017-05-27T07:03:57.166Z</time>
      </trkpt>
      <trkpt lat="39.97158" lon="-0.45757167">
        <ele>727.0</ele>
        <time>2017-05-27T07:03:58.178Z</time>
      </trkpt>
      <trkpt lat="39.97164667" lon="-0.45752833">
        <ele>727.0</ele>
        <time>2017-05-27T07:03:59.162Z</time>
      </trkpt>
      <trkpt lat="39.97164667" lon="-0.45752833">
        <ele>727.0</ele>
        <time>2017-05-27T07:04:00.168Z</time>
      </trkpt>
      <trkpt lat="39.97178" lon="-0.45746167">
        <ele>726.0</ele>
        <time>2017-05-27T07:04:01.157Z</time>
      </trkpt>
      <trkpt lat="39.97185" lon="-0.45742667">
        <ele>725.0</ele>
        <time>2017-05-27T07:04:02.180Z</time>
      </trkpt>
      <trkpt lat="39.97185" lon="-0.45742667">
        <ele>725.0</ele>
        <time>2017-05-27T07:04:03.187Z</time>
      </trkpt>
      <trkpt lat="39.971985" lon="-0.457355">
        <ele>725.0</ele>
        <time>2017-05-27T07:04:04.177Z</time>
      </trkpt>
      <trkpt lat="39.971985" lon="-0.457355">
        <ele>725.0</ele>
        <time>2017-05-27T07:04:05.185Z</time>
      </trkpt>
      <trkpt lat="39.97210333" lon="-0.45731333">
        <ele>724.0</ele>
        <time>2017-05-27T07:04:06.174Z</time>
      </trkpt>
      <trkpt lat="39.97215833" lon="-0.45729833">
        <ele>724.0</ele>
        <time>2017-05-27T07:04:07.187Z</time>
      </trkpt>
      <trkpt lat="39.97215833" lon="-0.45729833">
        <ele>724.0</ele>
        <time>2017-05-27T07:04:08.193Z</time>
      </trkpt>
      <trkpt lat="39.97226" lon="-0.45724">
        <ele>723.0</ele>
        <time>2017-05-27T07:04:09.168Z</time>
      </trkpt>
      <trkpt lat="39.97226" lon="-0.45724">
        <ele>723.0</ele>
        <time>2017-05-27T07:04:10.175Z</time>
      </trkpt>
      <trkpt lat="39.97235" lon="-0.45717">
        <ele>722.0</ele>
        <time>2017-05-27T07:04:11.178Z</time>
      </trkpt>
      <trkpt lat="39.97235" lon="-0.45717">
        <ele>722.0</ele>
        <time>2017-05-27T07:04:12.187Z</time>
      </trkpt>
      <trkpt lat="39.97247667" lon="-0.45716833">
        <ele>721.0</ele>
        <time>2017-05-27T07:04:13.167Z</time>
      </trkpt>
      <trkpt lat="39.97254333" lon="-0.45718333">
        <ele>720.0</ele>
        <time>2017-05-27T07:04:14.187Z</time>
      </trkpt>
      <trkpt lat="39.97254333" lon="-0.45718333">
        <ele>720.0</ele>
        <time>2017-05-27T07:04:15.194Z</time>
      </trkpt>
      <trkpt lat="39.97264667" lon="-0.45723167">
        <ele>720.0</ele>
        <time>2017-05-27T07:04:16.180Z</time>
      </trkpt>
      <trkpt lat="39.97264667" lon="-0.45723167">
        <ele>720.0</ele>
        <time>2017-05-27T07:04:17.186Z</time>
      </trkpt>
      <trkpt lat="39.97272" lon="-0.45728167">
        <ele>719.0</ele>
        <time>2017-05-27T07:04:18.165Z</time>
      </trkpt>
      <trkpt lat="39.97275167" lon="-0.45729167">
        <ele>719.0</ele>
        <time>2017-05-27T07:04:19.171Z</time>
      </trkpt>
      <trkpt lat="39.97275167" lon="-0.45729167">
        <ele>719.0</ele>
        <time>2017-05-27T07:04:20.178Z</time>
      </trkpt>
      <trkpt lat="39.97281" lon="-0.45727667">
        <ele>719.0</ele>
        <time>2017-05-27T07:04:21.171Z</time>
      </trkpt>
      <trkpt lat="39.97283" lon="-0.45725833">
        <ele>719.0</ele>
        <time>2017-05-27T07:04:22.174Z</time>
      </trkpt>
      <trkpt lat="39.97283" lon="-0.45725833">
        <ele>719.0</ele>
        <time>2017-05-27T07:04:23.181Z</time>
      </trkpt>
      <trkpt lat="39.97285833" lon="-0.45721167">
        <ele>720.0</ele>
        <time>2017-05-27T07:04:24.169Z</time>
      </trkpt>
      <trkpt lat="39.972865" lon="-0.45718167">
        <ele>720.0</ele>
        <time>2017-05-27T07:04:25.175Z</time>
      </trkpt>
      <trkpt lat="39.972865" lon="-0.45718167">
        <ele>720.0</ele>
        <time>2017-05-27T07:04:26.185Z</time>
      </trkpt>
      <trkpt lat="39.97285667" lon="-0.45711167">
        <ele>720.0</ele>
        <time>2017-05-27T07:04:27.176Z</time>
      </trkpt>
      <trkpt lat="39.97284833" lon="-0.45707167">
        <ele>720.0</ele>
        <time>2017-05-27T07:04:28.182Z</time>
      </trkpt>
      <trkpt lat="39.97284833" lon="-0.45707167">
        <ele>720.0</ele>
        <time>2017-05-27T07:04:29.188Z</time>
      </trkpt>
      <trkpt lat="39.97283167" lon="-0.45700167">
        <ele>721.0</ele>
        <time>2017-05-27T07:04:30.174Z</time>
      </trkpt>
      <trkpt lat="39.97283167" lon="-0.45700167">
        <ele>721.0</ele>
        <time>2017-05-27T07:04:31.185Z</time>
      </trkpt>
      <trkpt lat="39.97281833" lon="-0.45692667">
        <ele>721.0</ele>
        <time>2017-05-27T07:04:32.164Z</time>
      </trkpt>
      <trkpt lat="39.97281833" lon="-0.45692667">
        <ele>721.0</ele>
        <time>2017-05-27T07:04:33.171Z</time>
      </trkpt>
      <trkpt lat="39.9728" lon="-0.45685167">
        <ele>722.0</ele>
        <time>2017-05-27T07:04:34.192Z</time>
      </trkpt>
      <trkpt lat="39.9728" lon="-0.45685167">
        <ele>722.0</ele>
        <time>2017-05-27T07:04:35.167Z</time>
      </trkpt>
      <trkpt lat="39.97281333" lon="-0.45677667">
        <ele>723.0</ele>
        <time>2017-05-27T07:04:36.192Z</time>
      </trkpt>
      <trkpt lat="39.97281333" lon="-0.45677667">
        <ele>723.0</ele>
        <time>2017-05-27T07:04:37.158Z</time>
      </trkpt>
      <trkpt lat="39.972855" lon="-0.45671333">
        <ele>724.0</ele>
        <time>2017-05-27T07:04:38.183Z</time>
      </trkpt>
      <trkpt lat="39.972855" lon="-0.45671333">
        <ele>724.0</ele>
        <time>2017-05-27T07:04:39.189Z</time>
      </trkpt>
      <trkpt lat="39.9729" lon="-0.45665667">
        <ele>724.0</ele>
        <time>2017-05-27T07:04:40.182Z</time>
      </trkpt>
      <trkpt lat="39.97292" lon="-0.45663167">
        <ele>725.0</ele>
        <time>2017-05-27T07:04:41.170Z</time>
      </trkpt>
      <trkpt lat="39.97292" lon="-0.45663167">
        <ele>725.0</ele>
        <time>2017-05-27T07:04:42.176Z</time>
      </trkpt>
      <trkpt lat="39.972965" lon="-0.45658833">
        <ele>725.0</ele>
        <time>2017-05-27T07:04:43.161Z</time>
      </trkpt>
      <trkpt lat="39.972965" lon="-0.45658833">
        <ele>725.0</ele>
        <time>2017-05-27T07:04:44.167Z</time>
      </trkpt>
      <trkpt lat="39.97301833" lon="-0.45654667">
        <ele>726.0</ele>
        <time>2017-05-27T07:04:45.192Z</time>
      </trkpt>
      <trkpt lat="39.97301833" lon="-0.45654667">
        <ele>726.0</ele>
        <time>2017-05-27T07:04:46.159Z</time>
      </trkpt>
      <trkpt lat="39.97306667" lon="-0.4565">
        <ele>727.0</ele>
        <time>2017-05-27T07:04:47.171Z</time>
      </trkpt>
      <trkpt lat="39.97306667" lon="-0.4565">
        <ele>727.0</ele>
        <time>2017-05-27T07:04:48.185Z</time>
      </trkpt>
      <trkpt lat="39.97311167" lon="-0.45645667">
        <ele>728.0</ele>
        <time>2017-05-27T07:04:49.169Z</time>
      </trkpt>
      <trkpt lat="39.97311167" lon="-0.45645667">
        <ele>728.0</ele>
        <time>2017-05-27T07:04:50.176Z</time>
      </trkpt>
      <trkpt lat="39.97315833" lon="-0.456425">
        <ele>729.0</ele>
        <time>2017-05-27T07:04:51.161Z</time>
      </trkpt>
      <trkpt lat="39.97318" lon="-0.45640833">
        <ele>730.0</ele>
        <time>2017-05-27T07:04:52.187Z</time>
      </trkpt>
      <trkpt lat="39.97320167" lon="-0.45638667">
        <ele>730.0</ele>
        <time>2017-05-27T07:04:53.182Z</time>
      </trkpt>
      <trkpt lat="39.97320167" lon="-0.45638667">
        <ele>730.0</ele>
        <time>2017-05-27T07:04:54.189Z</time>
      </trkpt>
      <trkpt lat="39.973245" lon="-0.456345">
        <ele>731.0</ele>
        <time>2017-05-27T07:04:55.169Z</time>
      </trkpt>
      <trkpt lat="39.973245" lon="-0.456345">
        <ele>731.0</ele>
        <time>2017-05-27T07:04:56.176Z</time>
      </trkpt>
      <trkpt lat="39.97329" lon="-0.45629333">
        <ele>731.0</ele>
        <time>2017-05-27T07:04:57.164Z</time>
      </trkpt>
      <trkpt lat="39.97331" lon="-0.45626667">
        <ele>732.0</ele>
        <time>2017-05-27T07:04:58.159Z</time>
      </trkpt>
      <trkpt lat="39.97331" lon="-0.45626667">
        <ele>732.0</ele>
        <time>2017-05-27T07:04:59.165Z</time>
      </trkpt>
      <trkpt lat="39.973345" lon="-0.45620167">
        <ele>732.0</ele>
        <time>2017-05-27T07:05:00.189Z</time>
      </trkpt>
      <trkpt lat="39.97335833" lon="-0.456165">
        <ele>733.0</ele>
        <time>2017-05-27T07:05:01.156Z</time>
      </trkpt>
      <trkpt lat="39.97335833" lon="-0.456165">
        <ele>733.0</ele>
        <time>2017-05-27T07:05:02.168Z</time>
      </trkpt>
      <trkpt lat="39.97337167" lon="-0.45608333">
        <ele>734.0</ele>
        <time>2017-05-27T07:05:03.189Z</time>
      </trkpt>
      <trkpt lat="39.97337167" lon="-0.45608333">
        <ele>734.0</ele>
        <time>2017-05-27T07:05:04.195Z</time>
      </trkpt>
      <trkpt lat="39.97337667" lon="-0.455995">
        <ele>734.0</ele>
        <time>2017-05-27T07:05:05.186Z</time>
      </trkpt>
      <trkpt lat="39.97337667" lon="-0.455995">
        <ele>734.0</ele>
        <time>2017-05-27T07:05:06.192Z</time>
      </trkpt>
      <trkpt lat="39.973385" lon="-0.45591">
        <ele>735.0</ele>
        <time>2017-05-27T07:05:07.182Z</time>
      </trkpt>
      <trkpt lat="39.973385" lon="-0.45591">
        <ele>735.0</ele>
        <time>2017-05-27T07:05:08.189Z</time>
      </trkpt>
      <trkpt lat="39.973405" lon="-0.45583167">
        <ele>735.0</ele>
        <time>2017-05-27T07:05:09.191Z</time>
      </trkpt>
      <trkpt lat="39.973405" lon="-0.45583167">
        <ele>735.0</ele>
        <time>2017-05-27T07:05:10.158Z</time>
      </trkpt>
      <trkpt lat="39.973435" lon="-0.45575833">
        <ele>735.0</ele>
        <time>2017-05-27T07:05:11.174Z</time>
      </trkpt>
      <trkpt lat="39.973435" lon="-0.45575833">
        <ele>735.0</ele>
        <time>2017-05-27T07:05:12.183Z</time>
      </trkpt>
      <trkpt lat="39.97347167" lon="-0.45569">
        <ele>736.0</ele>
        <time>2017-05-27T07:05:13.186Z</time>
      </trkpt>
      <trkpt lat="39.97349333" lon="-0.45565833">
        <ele>736.0</ele>
        <time>2017-05-27T07:05:14.187Z</time>
      </trkpt>
      <trkpt lat="39.97349333" lon="-0.45565833">
        <ele>736.0</ele>
        <time>2017-05-27T07:05:15.193Z</time>
      </trkpt>
      <trkpt lat="39.97353833" lon="-0.455595">
        <ele>736.0</ele>
        <time>2017-05-27T07:05:16.180Z</time>
      </trkpt>
      <trkpt lat="39.97356167" lon="-0.45556333">
        <ele>736.0</ele>
        <time>2017-05-27T07:05:17.195Z</time>
      </trkpt>
      <trkpt lat="39.97356167" lon="-0.45556333">
        <ele>736.0</ele>
        <time>2017-05-27T07:05:18.164Z</time>
      </trkpt>
      <trkpt lat="39.97360833" lon="-0.455495">
        <ele>735.0</ele>
        <time>2017-05-27T07:05:19.158Z</time>
      </trkpt>
      <trkpt lat="39.97360833" lon="-0.455495">
        <ele>735.0</ele>
        <time>2017-05-27T07:05:20.165Z</time>
      </trkpt>
      <trkpt lat="39.97365167" lon="-0.45542">
        <ele>735.0</ele>
        <time>2017-05-27T07:05:21.165Z</time>
      </trkpt>
      <trkpt lat="39.97365167" lon="-0.45542">
        <ele>735.0</ele>
        <time>2017-05-27T07:05:22.172Z</time>
      </trkpt>
      <trkpt lat="39.97367" lon="-0.45532833">
        <ele>735.0</ele>
        <time>2017-05-27T07:05:23.163Z</time>
      </trkpt>
      <trkpt lat="39.97367" lon="-0.45532833">
        <ele>735.0</ele>
        <time>2017-05-27T07:05:24.169Z</time>
      </trkpt>
      <trkpt lat="39.97366333" lon="-0.45523">
        <ele>735.0</ele>
        <time>2017-05-27T07:05:25.171Z</time>
      </trkpt>
      <trkpt lat="39.973655" lon="-0.45518">
        <ele>735.0</ele>
        <time>2017-05-27T07:05:26.162Z</time>
      </trkpt>
      <trkpt lat="39.973655" lon="-0.45518">
        <ele>735.0</ele>
        <time>2017-05-27T07:05:27.168Z</time>
      </trkpt>
      <trkpt lat="39.97362667" lon="-0.45509">
        <ele>734.0</ele>
        <time>2017-05-27T07:05:28.158Z</time>
      </trkpt>
      <trkpt lat="39.97362667" lon="-0.45509">
        <ele>734.0</ele>
        <time>2017-05-27T07:05:29.164Z</time>
      </trkpt>
      <trkpt lat="39.97360167" lon="-0.45500167">
        <ele>735.0</ele>
        <time>2017-05-27T07:05:30.181Z</time>
      </trkpt>
      <trkpt lat="39.97359333" lon="-0.45495833">
        <ele>735.0</ele>
        <time>2017-05-27T07:05:31.195Z</time>
      </trkpt>
      <trkpt lat="39.97359333" lon="-0.45495833">
        <ele>735.0</ele>
        <time>2017-05-27T07:05:32.161Z</time>
      </trkpt>
      <trkpt lat="39.973585" lon="-0.45487333">
        <ele>735.0</ele>
        <time>2017-05-27T07:05:33.165Z</time>
      </trkpt>
      <trkpt lat="39.973585" lon="-0.45487333">
        <ele>735.0</ele>
        <time>2017-05-27T07:05:34.171Z</time>
      </trkpt>
      <trkpt lat="39.97358333" lon="-0.45478833">
        <ele>735.0</ele>
        <time>2017-05-27T07:05:35.169Z</time>
      </trkpt>
      <trkpt lat="39.97358333" lon="-0.45478833">
        <ele>735.0</ele>
        <time>2017-05-27T07:05:36.175Z</time>
      </trkpt>
      <trkpt lat="39.97358167" lon="-0.45470167">
        <ele>735.0</ele>
        <time>2017-05-27T07:05:37.177Z</time>
      </trkpt>
      <trkpt lat="39.97358167" lon="-0.45470167">
        <ele>735.0</ele>
        <time>2017-05-27T07:05:38.183Z</time>
      </trkpt>
      <trkpt lat="39.97358" lon="-0.454615">
        <ele>735.0</ele>
        <time>2017-05-27T07:05:39.179Z</time>
      </trkpt>
      <trkpt lat="39.97358" lon="-0.454615">
        <ele>735.0</ele>
        <time>2017-05-27T07:05:40.186Z</time>
      </trkpt>
      <trkpt lat="39.97359333" lon="-0.45453333">
        <ele>735.0</ele>
        <time>2017-05-27T07:05:41.166Z</time>
      </trkpt>
      <trkpt lat="39.97359333" lon="-0.45453333">
        <ele>735.0</ele>
        <time>2017-05-27T07:05:42.172Z</time>
      </trkpt>
      <trkpt lat="39.97361833" lon="-0.45446">
        <ele>736.0</ele>
        <time>2017-05-27T07:05:43.168Z</time>
      </trkpt>
      <trkpt lat="39.97361833" lon="-0.45446">
        <ele>736.0</ele>
        <time>2017-05-27T07:05:44.174Z</time>
      </trkpt>
      <trkpt lat="39.97364833" lon="-0.45439667">
        <ele>737.0</ele>
        <time>2017-05-27T07:05:45.166Z</time>
      </trkpt>
      <trkpt lat="39.97366333" lon="-0.454365">
        <ele>737.0</ele>
        <time>2017-05-27T07:05:46.195Z</time>
      </trkpt>
      <trkpt lat="39.97366333" lon="-0.454365">
        <ele>737.0</ele>
        <time>2017-05-27T07:05:47.160Z</time>
      </trkpt>
      <trkpt lat="39.97369" lon="-0.45430667">
        <ele>737.0</ele>
        <time>2017-05-27T07:05:48.164Z</time>
      </trkpt>
      <trkpt lat="39.97369" lon="-0.45430667">
        <ele>737.0</ele>
        <time>2017-05-27T07:05:49.170Z</time>
      </trkpt>
      <trkpt lat="39.97370333" lon="-0.45424167">
        <ele>738.0</ele>
        <time>2017-05-27T07:05:50.194Z</time>
      </trkpt>
      <trkpt lat="39.97370333" lon="-0.45424167">
        <ele>738.0</ele>
        <time>2017-05-27T07:05:51.162Z</time>
      </trkpt>
      <trkpt lat="39.97372" lon="-0.45418667">
        <ele>738.0</ele>
        <time>2017-05-27T07:05:52.188Z</time>
      </trkpt>
      <trkpt lat="39.97373" lon="-0.45415833">
        <ele>739.0</ele>
        <time>2017-05-27T07:05:53.180Z</time>
      </trkpt>
      <trkpt lat="39.97373" lon="-0.45415833">
        <ele>739.0</ele>
        <time>2017-05-27T07:05:54.186Z</time>
      </trkpt>
      <trkpt lat="39.97373833" lon="-0.45410833">
        <ele>739.0</ele>
        <time>2017-05-27T07:05:55.164Z</time>
      </trkpt>
      <trkpt lat="39.97373833" lon="-0.45410833">
        <ele>739.0</ele>
        <time>2017-05-27T07:05:56.171Z</time>
      </trkpt>
      <trkpt lat="39.97374" lon="-0.454055">
        <ele>740.0</ele>
        <time>2017-05-27T07:05:57.190Z</time>
      </trkpt>
      <trkpt lat="39.97374" lon="-0.454055">
        <ele>740.0</ele>
        <time>2017-05-27T07:05:58.156Z</time>
      </trkpt>
      <trkpt lat="39.973745" lon="-0.453995">
        <ele>740.0</ele>
        <time>2017-05-27T07:05:59.195Z</time>
      </trkpt>
      <trkpt lat="39.97374167" lon="-0.45397167">
        <ele>741.0</ele>
        <time>2017-05-27T07:06:00.180Z</time>
      </trkpt>
      <trkpt lat="39.97374167" lon="-0.45397167">
        <ele>741.0</ele>
        <time>2017-05-27T07:06:01.187Z</time>
      </trkpt>
      <trkpt lat="39.97374333" lon="-0.45391167">
        <ele>742.0</ele>
        <time>2017-05-27T07:06:02.183Z</time>
      </trkpt>
      <trkpt lat="39.97375" lon="-0.45388">
        <ele>742.0</ele>
        <time>2017-05-27T07:06:03.174Z</time>
      </trkpt>
      <trkpt lat="39.97375" lon="-0.45388">
        <ele>742.0</ele>
        <time>2017-05-27T07:06:04.186Z</time>
      </trkpt>
      <trkpt lat="39.973765" lon="-0.45382167">
        <ele>743.0</ele>
        <time>2017-05-27T07:06:05.169Z</time>
      </trkpt>
      <trkpt lat="39.973765" lon="-0.45382167">
        <ele>743.0</ele>
        <time>2017-05-27T07:06:06.179Z</time>
      </trkpt>
      <trkpt lat="39.973775" lon="-0.45376833">
        <ele>744.0</ele>
        <time>2017-05-27T07:06:07.186Z</time>
      </trkpt>
      <trkpt lat="39.973775" lon="-0.45376833">
        <ele>744.0</ele>
        <time>2017-05-27T07:06:08.192Z</time>
      </trkpt>
      <trkpt lat="39.973795" lon="-0.45372">
        <ele>745.0</ele>
        <time>2017-05-27T07:06:09.178Z</time>
      </trkpt>
      <trkpt lat="39.97380667" lon="-0.45369833">
        <ele>745.0</ele>
        <time>2017-05-27T07:06:10.163Z</time>
      </trkpt>
      <trkpt lat="39.97380667" lon="-0.45369833">
        <ele>745.0</ele>
        <time>2017-05-27T07:06:11.169Z</time>
      </trkpt>
      <trkpt lat="39.97382833" lon="-0.453655">
        <ele>746.0</ele>
        <time>2017-05-27T07:06:12.165Z</time>
      </trkpt>
      <trkpt lat="39.97382833" lon="-0.453655">
        <ele>746.0</ele>
        <time>2017-05-27T07:06:13.182Z</time>
      </trkpt>
      <trkpt lat="39.97385333" lon="-0.45362">
        <ele>747.0</ele>
        <time>2017-05-27T07:06:14.174Z</time>
      </trkpt>
      <trkpt lat="39.97386833" lon="-0.4536">
        <ele>747.0</ele>
        <time>2017-05-27T07:06:15.156Z</time>
      </trkpt>
      <trkpt lat="39.97386833" lon="-0.4536">
        <ele>747.0</ele>
        <time>2017-05-27T07:06:16.163Z</time>
      </trkpt>
      <trkpt lat="39.97389333" lon="-0.453555">
        <ele>748.0</ele>
        <time>2017-05-27T07:06:17.195Z</time>
      </trkpt>
      <trkpt lat="39.97390333" lon="-0.45353333">
        <ele>748.0</ele>
        <time>2017-05-27T07:06:18.177Z</time>
      </trkpt>
      <trkpt lat="39.973915" lon="-0.45351167">
        <ele>749.0</ele>
        <time>2017-05-27T07:06:19.192Z</time>
      </trkpt>
      <trkpt lat="39.973915" lon="-0.45351167">
        <ele>749.0</ele>
        <time>2017-05-27T07:06:20.158Z</time>
      </trkpt>
      <trkpt lat="39.973935" lon="-0.45346833">
        <ele>749.0</ele>
        <time>2017-05-27T07:06:21.181Z</time>
      </trkpt>
      <trkpt lat="39.973935" lon="-0.45346833">
        <ele>749.0</ele>
        <time>2017-05-27T07:06:22.157Z</time>
      </trkpt>
      <trkpt lat="39.97395333" lon="-0.45342833">
        <ele>750.0</ele>
        <time>2017-05-27T07:06:23.181Z</time>
      </trkpt>
      <trkpt lat="39.97395333" lon="-0.45342833">
        <ele>750.0</ele>
        <time>2017-05-27T07:06:24.187Z</time>
      </trkpt>
      <trkpt lat="39.97397" lon="-0.45339">
        <ele>750.0</ele>
        <time>2017-05-27T07:06:25.169Z</time>
      </trkpt>
      <trkpt lat="39.97397" lon="-0.45339">
        <ele>750.0</ele>
        <time>2017-05-27T07:06:26.174Z</time>
      </trkpt>
      <trkpt lat="39.973985" lon="-0.45334667">
        <ele>751.0</ele>
        <time>2017-05-27T07:06:27.160Z</time>
      </trkpt>
      <trkpt lat="39.973985" lon="-0.45334667">
        <ele>751.0</ele>
        <time>2017-05-27T07:06:28.166Z</time>
      </trkpt>
      <trkpt lat="39.97399167" lon="-0.45329333">
        <ele>752.0</ele>
        <time>2017-05-27T07:06:29.193Z</time>
      </trkpt>
      <trkpt lat="39.97399167" lon="-0.45329333">
        <ele>752.0</ele>
        <time>2017-05-27T07:06:30.159Z</time>
      </trkpt>
      <trkpt lat="39.97400333" lon="-0.45324167">
        <ele>752.0</ele>
        <time>2017-05-27T07:06:31.186Z</time>
      </trkpt>
      <trkpt lat="39.97400333" lon="-0.45324167">
        <ele>752.0</ele>
        <time>2017-05-27T07:06:32.158Z</time>
      </trkpt>
      <trkpt lat="39.97401" lon="-0.45319167">
        <ele>753.0</ele>
        <time>2017-05-27T07:06:33.178Z</time>
      </trkpt>
      <trkpt lat="39.97401167" lon="-0.45316333">
        <ele>753.0</ele>
        <time>2017-05-27T07:06:34.163Z</time>
      </trkpt>
      <trkpt lat="39.97401167" lon="-0.45316333">
        <ele>753.0</ele>
        <time>2017-05-27T07:06:35.169Z</time>
      </trkpt>
      <trkpt lat="39.97401333" lon="-0.45311167">
        <ele>753.0</ele>
        <time>2017-05-27T07:06:36.179Z</time>
      </trkpt>
      <trkpt lat="39.97401333" lon="-0.45311167">
        <ele>753.0</ele>
        <time>2017-05-27T07:06:37.167Z</time>
      </trkpt>
      <trkpt lat="39.97401167" lon="-0.45306">
        <ele>753.0</ele>
        <time>2017-05-27T07:06:38.191Z</time>
      </trkpt>
      <trkpt lat="39.97401167" lon="-0.45303333">
        <ele>754.0</ele>
        <time>2017-05-27T07:06:39.174Z</time>
      </trkpt>
      <trkpt lat="39.97401167" lon="-0.45303333">
        <ele>754.0</ele>
        <time>2017-05-27T07:06:40.183Z</time>
      </trkpt>
      <trkpt lat="39.97401333" lon="-0.45298">
        <ele>755.0</ele>
        <time>2017-05-27T07:06:41.167Z</time>
      </trkpt>
      <trkpt lat="39.97401333" lon="-0.45298">
        <ele>755.0</ele>
        <time>2017-05-27T07:06:42.173Z</time>
      </trkpt>
      <trkpt lat="39.97402167" lon="-0.45292833">
        <ele>755.0</ele>
        <time>2017-05-27T07:06:43.156Z</time>
      </trkpt>
      <trkpt lat="39.97402167" lon="-0.45292833">
        <ele>755.0</ele>
        <time>2017-05-27T07:06:44.162Z</time>
      </trkpt>
      <trkpt lat="39.97404333" lon="-0.45287333">
        <ele>756.0</ele>
        <time>2017-05-27T07:06:45.177Z</time>
      </trkpt>
      <trkpt lat="39.97404333" lon="-0.45287333">
        <ele>756.0</ele>
        <time>2017-05-27T07:06:46.184Z</time>
      </trkpt>
      <trkpt lat="39.974065" lon="-0.45282333">
        <ele>757.0</ele>
        <time>2017-05-27T07:06:47.156Z</time>
      </trkpt>
      <trkpt lat="39.97407833" lon="-0.45279833">
        <ele>758.0</ele>
        <time>2017-05-27T07:06:48.181Z</time>
      </trkpt>
      <trkpt lat="39.97407833" lon="-0.45279833">
        <ele>758.0</ele>
        <time>2017-05-27T07:06:49.188Z</time>
      </trkpt>
      <trkpt lat="39.9741" lon="-0.45275">
        <ele>758.0</ele>
        <time>2017-05-27T07:06:50.172Z</time>
      </trkpt>
      <trkpt lat="39.9741" lon="-0.45275">
        <ele>758.0</ele>
        <time>2017-05-27T07:06:51.185Z</time>
      </trkpt>
      <trkpt lat="39.97411833" lon="-0.452705">
        <ele>759.0</ele>
        <time>2017-05-27T07:06:52.175Z</time>
      </trkpt>
      <trkpt lat="39.97411833" lon="-0.452705">
        <ele>759.0</ele>
        <time>2017-05-27T07:06:53.181Z</time>
      </trkpt>
      <trkpt lat="39.97413667" lon="-0.45265667">
        <ele>759.0</ele>
        <time>2017-05-27T07:06:54.173Z</time>
      </trkpt>
      <trkpt lat="39.97413667" lon="-0.45265667">
        <ele>759.0</ele>
        <time>2017-05-27T07:06:55.180Z</time>
      </trkpt>
      <trkpt lat="39.97415" lon="-0.45260667">
        <ele>759.0</ele>
        <time>2017-05-27T07:06:56.188Z</time>
      </trkpt>
      <trkpt lat="39.97415" lon="-0.45260667">
        <ele>759.0</ele>
        <time>2017-05-27T07:06:57.194Z</time>
      </trkpt>
      <trkpt lat="39.97417" lon="-0.45255833">
        <ele>760.0</ele>
        <time>2017-05-27T07:06:58.179Z</time>
      </trkpt>
      <trkpt lat="39.97417" lon="-0.45255833">
        <ele>760.0</ele>
        <time>2017-05-27T07:06:59.187Z</time>
      </trkpt>
      <trkpt lat="39.9742" lon="-0.45252">
        <ele>760.0</ele>
        <time>2017-05-27T07:07:00.173Z</time>
      </trkpt>
      <trkpt lat="39.9742" lon="-0.45252">
        <ele>760.0</ele>
        <time>2017-05-27T07:07:01.179Z</time>
      </trkpt>
      <trkpt lat="39.974235" lon="-0.452485">
        <ele>760.0</ele>
        <time>2017-05-27T07:07:02.181Z</time>
      </trkpt>
      <trkpt lat="39.974235" lon="-0.452485">
        <ele>760.0</ele>
        <time>2017-05-27T07:07:03.164Z</time>
      </trkpt>
      <trkpt lat="39.97427333" lon="-0.452455">
        <ele>760.0</ele>
        <time>2017-05-27T07:07:04.165Z</time>
      </trkpt>
      <trkpt lat="39.97427333" lon="-0.452455">
        <ele>760.0</ele>
        <time>2017-05-27T07:07:05.170Z</time>
      </trkpt>
      <trkpt lat="39.97431167" lon="-0.45243">
        <ele>760.0</ele>
        <time>2017-05-27T07:07:06.163Z</time>
      </trkpt>
      <trkpt lat="39.97431167" lon="-0.45243">
        <ele>760.0</ele>
        <time>2017-05-27T07:07:07.169Z</time>
      </trkpt>
      <trkpt lat="39.97435333" lon="-0.452405">
        <ele>760.0</ele>
        <time>2017-05-27T07:07:08.174Z</time>
      </trkpt>
      <trkpt lat="39.97435333" lon="-0.452405">
        <ele>760.0</ele>
        <time>2017-05-27T07:07:09.182Z</time>
      </trkpt>
      <trkpt lat="39.97439667" lon="-0.452375">
        <ele>760.0</ele>
        <time>2017-05-27T07:07:10.165Z</time>
      </trkpt>
      <trkpt lat="39.97441667" lon="-0.45235833">
        <ele>760.0</ele>
        <time>2017-05-27T07:07:11.172Z</time>
      </trkpt>
      <trkpt lat="39.97441667" lon="-0.45235833">
        <ele>760.0</ele>
        <time>2017-05-27T07:07:12.178Z</time>
      </trkpt>
      <trkpt lat="39.97445" lon="-0.45231">
        <ele>760.0</ele>
        <time>2017-05-27T07:07:13.179Z</time>
      </trkpt>
      <trkpt lat="39.97446" lon="-0.45228">
        <ele>760.0</ele>
        <time>2017-05-27T07:07:14.170Z</time>
      </trkpt>
      <trkpt lat="39.97446" lon="-0.45228">
        <ele>760.0</ele>
        <time>2017-05-27T07:07:15.176Z</time>
      </trkpt>
      <trkpt lat="39.97446667" lon="-0.45221667">
        <ele>760.0</ele>
        <time>2017-05-27T07:07:16.194Z</time>
      </trkpt>
      <trkpt lat="39.97446667" lon="-0.45221667">
        <ele>760.0</ele>
        <time>2017-05-27T07:07:17.160Z</time>
      </trkpt>
      <trkpt lat="39.97446667" lon="-0.45216">
        <ele>760.0</ele>
        <time>2017-05-27T07:07:18.184Z</time>
      </trkpt>
      <trkpt lat="39.97446333" lon="-0.45213667">
        <ele>760.0</ele>
        <time>2017-05-27T07:07:19.191Z</time>
      </trkpt>
      <trkpt lat="39.97446333" lon="-0.45213667">
        <ele>760.0</ele>
        <time>2017-05-27T07:07:20.157Z</time>
      </trkpt>
      <trkpt lat="39.97444" lon="-0.45210667">
        <ele>760.0</ele>
        <time>2017-05-27T07:07:21.186Z</time>
      </trkpt>
      <trkpt lat="39.97444" lon="-0.45210667">
        <ele>760.0</ele>
        <time>2017-05-27T07:07:22.192Z</time>
      </trkpt>
      <trkpt lat="39.97441167" lon="-0.45208667">
        <ele>760.0</ele>
        <time>2017-05-27T07:07:23.174Z</time>
      </trkpt>
      <trkpt lat="39.97439667" lon="-0.45208333">
        <ele>760.0</ele>
        <time>2017-05-27T07:07:24.189Z</time>
      </trkpt>
      <trkpt lat="39.97438167" lon="-0.452075">
        <ele>760.0</ele>
        <time>2017-05-27T07:07:25.195Z</time>
      </trkpt>
      <trkpt lat="39.97438167" lon="-0.452075">
        <ele>760.0</ele>
        <time>2017-05-27T07:07:26.161Z</time>
      </trkpt>
      <trkpt lat="39.974355" lon="-0.452055">
        <ele>760.0</ele>
        <time>2017-05-27T07:07:27.179Z</time>
      </trkpt>
      <trkpt lat="39.974345" lon="-0.45204167">
        <ele>760.0</ele>
        <time>2017-05-27T07:07:28.160Z</time>
      </trkpt>
      <trkpt lat="39.974345" lon="-0.45204167">
        <ele>760.0</ele>
        <time>2017-05-27T07:07:29.167Z</time>
      </trkpt>
      <trkpt lat="39.97431833" lon="-0.452015">
        <ele>761.0</ele>
        <time>2017-05-27T07:07:30.156Z</time>
      </trkpt>
      <trkpt lat="39.974305" lon="-0.45200333">
        <ele>761.0</ele>
        <time>2017-05-27T07:07:31.162Z</time>
      </trkpt>
      <trkpt lat="39.974305" lon="-0.45200333">
        <ele>761.0</ele>
        <time>2017-05-27T07:07:32.168Z</time>
      </trkpt>
      <trkpt lat="39.97428167" lon="-0.45198167">
        <ele>761.0</ele>
        <time>2017-05-27T07:07:33.191Z</time>
      </trkpt>
      <trkpt lat="39.97427" lon="-0.45196167">
        <ele>762.0</ele>
        <time>2017-05-27T07:07:34.184Z</time>
      </trkpt>
      <trkpt lat="39.97427" lon="-0.45196167">
        <ele>762.0</ele>
        <time>2017-05-27T07:07:35.190Z</time>
      </trkpt>
      <trkpt lat="39.97425667" lon="-0.45191333">
        <ele>762.0</ele>
        <time>2017-05-27T07:07:36.170Z</time>
      </trkpt>
      <trkpt lat="39.97425167" lon="-0.45188667">
        <ele>762.0</ele>
        <time>2017-05-27T07:07:37.177Z</time>
      </trkpt>
      <trkpt lat="39.97425167" lon="-0.45188667">
        <ele>762.0</ele>
        <time>2017-05-27T07:07:38.185Z</time>
      </trkpt>
      <trkpt lat="39.974255" lon="-0.45184">
        <ele>763.0</ele>
        <time>2017-05-27T07:07:39.169Z</time>
      </trkpt>
      <trkpt lat="39.97425833" lon="-0.451815">
        <ele>763.0</ele>
        <time>2017-05-27T07:07:40.166Z</time>
      </trkpt>
      <trkpt lat="39.97425833" lon="-0.451815">
        <ele>763.0</ele>
        <time>2017-05-27T07:07:41.172Z</time>
      </trkpt>
      <trkpt lat="39.97428" lon="-0.45176667">
        <ele>763.0</ele>
        <time>2017-05-27T07:07:42.172Z</time>
      </trkpt>
      <trkpt lat="39.97428" lon="-0.45176667">
        <ele>763.0</ele>
        <time>2017-05-27T07:07:43.178Z</time>
      </trkpt>
      <trkpt lat="39.97431333" lon="-0.45171333">
        <ele>764.0</ele>
        <time>2017-05-27T07:07:44.157Z</time>
      </trkpt>
      <trkpt lat="39.97433167" lon="-0.45168667">
        <ele>764.0</ele>
        <time>2017-05-27T07:07:45.180Z</time>
      </trkpt>
      <trkpt lat="39.97433167" lon="-0.45168667">
        <ele>764.0</ele>
        <time>2017-05-27T07:07:46.187Z</time>
      </trkpt>
      <trkpt lat="39.97436" lon="-0.45163167">
        <ele>765.0</ele>
        <time>2017-05-27T07:07:47.177Z</time>
      </trkpt>
      <trkpt lat="39.97437333" lon="-0.45160667">
        <ele>765.0</ele>
        <time>2017-05-27T07:07:48.164Z</time>
      </trkpt>
      <trkpt lat="39.97437333" lon="-0.45160667">
        <ele>765.0</ele>
        <time>2017-05-27T07:07:49.170Z</time>
      </trkpt>
      <trkpt lat="39.97439" lon="-0.45155667">
        <ele>767.0</ele>
        <time>2017-05-27T07:07:50.193Z</time>
      </trkpt>
      <trkpt lat="39.97439" lon="-0.45155667">
        <ele>767.0</ele>
        <time>2017-05-27T07:07:51.158Z</time>
      </trkpt>
      <trkpt lat="39.97440833" lon="-0.45150833">
        <ele>768.0</ele>
        <time>2017-05-27T07:07:52.195Z</time>
      </trkpt>
      <trkpt lat="39.97440833" lon="-0.45150833">
        <ele>768.0</ele>
        <time>2017-05-27T07:07:53.161Z</time>
      </trkpt>
      <trkpt lat="39.97443333" lon="-0.451465">
        <ele>769.0</ele>
        <time>2017-05-27T07:07:54.180Z</time>
      </trkpt>
      <trkpt lat="39.97444833" lon="-0.451445">
        <ele>770.0</ele>
        <time>2017-05-27T07:07:55.189Z</time>
      </trkpt>
      <trkpt lat="39.97444833" lon="-0.451445">
        <ele>770.0</ele>
        <time>2017-05-27T07:07:56.194Z</time>
      </trkpt>
      <trkpt lat="39.97448333" lon="-0.45140833">
        <ele>770.0</ele>
        <time>2017-05-27T07:07:57.193Z</time>
      </trkpt>
      <trkpt lat="39.97448333" lon="-0.45140833">
        <ele>770.0</ele>
        <time>2017-05-27T07:07:58.159Z</time>
      </trkpt>
      <trkpt lat="39.97451" lon="-0.451365">
        <ele>770.0</ele>
        <time>2017-05-27T07:07:59.176Z</time>
      </trkpt>
      <trkpt lat="39.97452167" lon="-0.45134333">
        <ele>770.0</ele>
        <time>2017-05-27T07:08:00.161Z</time>
      </trkpt>
      <trkpt lat="39.97453" lon="-0.45132167">
        <ele>770.0</ele>
        <time>2017-05-27T07:08:01.167Z</time>
      </trkpt>
      <trkpt lat="39.97453" lon="-0.45132167">
        <ele>770.0</ele>
        <time>2017-05-27T07:08:02.173Z</time>
      </trkpt>
      <trkpt lat="39.97454833" lon="-0.45127667">
        <ele>770.0</ele>
        <time>2017-05-27T07:08:03.156Z</time>
      </trkpt>
      <trkpt lat="39.97454833" lon="-0.45127667">
        <ele>770.0</ele>
        <time>2017-05-27T07:08:04.162Z</time>
      </trkpt>
      <trkpt lat="39.974565" lon="-0.45123">
        <ele>770.0</ele>
        <time>2017-05-27T07:08:05.187Z</time>
      </trkpt>
      <trkpt lat="39.97457333" lon="-0.451205">
        <ele>770.0</ele>
        <time>2017-05-27T07:08:06.162Z</time>
      </trkpt>
      <trkpt lat="39.97457333" lon="-0.451205">
        <ele>770.0</ele>
        <time>2017-05-27T07:08:07.168Z</time>
      </trkpt>
      <trkpt lat="39.974585" lon="-0.451155">
        <ele>770.0</ele>
        <time>2017-05-27T07:08:08.192Z</time>
      </trkpt>
      <trkpt lat="39.97459" lon="-0.45112833">
        <ele>770.0</ele>
        <time>2017-05-27T07:08:09.172Z</time>
      </trkpt>
      <trkpt lat="39.97459" lon="-0.45112833">
        <ele>770.0</ele>
        <time>2017-05-27T07:08:10.178Z</time>
      </trkpt>
      <trkpt lat="39.97459833" lon="-0.45107667">
        <ele>771.0</ele>
        <time>2017-05-27T07:08:11.156Z</time>
      </trkpt>
      <trkpt lat="39.97460167" lon="-0.45105">
        <ele>771.0</ele>
        <time>2017-05-27T07:08:12.156Z</time>
      </trkpt>
      <trkpt lat="39.97460167" lon="-0.45105">
        <ele>771.0</ele>
        <time>2017-05-27T07:08:13.163Z</time>
      </trkpt>
      <trkpt lat="39.97461167" lon="-0.45099667">
        <ele>771.0</ele>
        <time>2017-05-27T07:08:14.193Z</time>
      </trkpt>
      <trkpt lat="39.97461167" lon="-0.45099667">
        <ele>771.0</ele>
        <time>2017-05-27T07:08:15.159Z</time>
      </trkpt>
      <trkpt lat="39.97462" lon="-0.45094333">
        <ele>771.0</ele>
        <time>2017-05-27T07:08:16.192Z</time>
      </trkpt>
      <trkpt lat="39.97462" lon="-0.45094333">
        <ele>771.0</ele>
        <time>2017-05-27T07:08:17.158Z</time>
      </trkpt>
      <trkpt lat="39.97463167" lon="-0.45089">
        <ele>772.0</ele>
        <time>2017-05-27T07:08:18.184Z</time>
      </trkpt>
      <trkpt lat="39.97463167" lon="-0.45089">
        <ele>772.0</ele>
        <time>2017-05-27T07:08:19.190Z</time>
      </trkpt>
      <trkpt lat="39.97464" lon="-0.45083833">
        <ele>772.0</ele>
        <time>2017-05-27T07:08:20.178Z</time>
      </trkpt>
      <trkpt lat="39.97464333" lon="-0.45081167">
        <ele>772.0</ele>
        <time>2017-05-27T07:08:21.160Z</time>
      </trkpt>
      <trkpt lat="39.97464833" lon="-0.45078333">
        <ele>772.0</ele>
        <time>2017-05-27T07:08:22.180Z</time>
      </trkpt>
      <trkpt lat="39.97465333" lon="-0.45075333">
        <ele>772.0</ele>
        <time>2017-05-27T07:08:23.171Z</time>
      </trkpt>
      <trkpt lat="39.97465333" lon="-0.45075333">
        <ele>772.0</ele>
        <time>2017-05-27T07:08:24.177Z</time>
      </trkpt>
      <trkpt lat="39.97466333" lon="-0.45069667">
        <ele>772.0</ele>
        <time>2017-05-27T07:08:25.186Z</time>
      </trkpt>
      <trkpt lat="39.974665" lon="-0.45067">
        <ele>773.0</ele>
        <time>2017-05-27T07:08:26.174Z</time>
      </trkpt>
      <trkpt lat="39.974665" lon="-0.45067">
        <ele>773.0</ele>
        <time>2017-05-27T07:08:27.180Z</time>
      </trkpt>
      <trkpt lat="39.97467167" lon="-0.45061167">
        <ele>773.0</ele>
        <time>2017-05-27T07:08:28.164Z</time>
      </trkpt>
      <trkpt lat="39.97467167" lon="-0.45061167">
        <ele>773.0</ele>
        <time>2017-05-27T07:08:29.170Z</time>
      </trkpt>
      <trkpt lat="39.97467833" lon="-0.45056">
        <ele>774.0</ele>
        <time>2017-05-27T07:08:30.193Z</time>
      </trkpt>
      <trkpt lat="39.97468" lon="-0.45053333">
        <ele>774.0</ele>
        <time>2017-05-27T07:08:31.159Z</time>
      </trkpt>
      <trkpt lat="39.97468" lon="-0.45053333">
        <ele>774.0</ele>
        <time>2017-05-27T07:08:32.165Z</time>
      </trkpt>
      <trkpt lat="39.97468333" lon="-0.450485">
        <ele>774.0</ele>
        <time>2017-05-27T07:08:33.167Z</time>
      </trkpt>
      <trkpt lat="39.974685" lon="-0.45046">
        <ele>774.0</ele>
        <time>2017-05-27T07:08:34.192Z</time>
      </trkpt>
      <trkpt lat="39.974685" lon="-0.45046">
        <ele>774.0</ele>
        <time>2017-05-27T07:08:35.158Z</time>
      </trkpt>
      <trkpt lat="39.97468667" lon="-0.450405">
        <ele>775.0</ele>
        <time>2017-05-27T07:08:36.176Z</time>
      </trkpt>
      <trkpt lat="39.97468667" lon="-0.45037833">
        <ele>775.0</ele>
        <time>2017-05-27T07:08:37.182Z</time>
      </trkpt>
      <trkpt lat="39.97468667" lon="-0.45037833">
        <ele>775.0</ele>
        <time>2017-05-27T07:08:38.188Z</time>
      </trkpt>
      <trkpt lat="39.97469" lon="-0.450325">
        <ele>775.0</ele>
        <time>2017-05-27T07:08:39.192Z</time>
      </trkpt>
      <trkpt lat="39.97469" lon="-0.450325">
        <ele>775.0</ele>
        <time>2017-05-27T07:08:40.158Z</time>
      </trkpt>
      <trkpt lat="39.974695" lon="-0.45027">
        <ele>775.0</ele>
        <time>2017-05-27T07:08:41.173Z</time>
      </trkpt>
      <trkpt lat="39.974695" lon="-0.45027">
        <ele>775.0</ele>
        <time>2017-05-27T07:08:42.178Z</time>
      </trkpt>
      <trkpt lat="39.9747" lon="-0.45021667">
        <ele>776.0</ele>
        <time>2017-05-27T07:08:43.184Z</time>
      </trkpt>
      <trkpt lat="39.9747" lon="-0.45021667">
        <ele>776.0</ele>
        <time>2017-05-27T07:08:44.190Z</time>
      </trkpt>
      <trkpt lat="39.97470833" lon="-0.45015833">
        <ele>776.0</ele>
        <time>2017-05-27T07:08:45.176Z</time>
      </trkpt>
      <trkpt lat="39.97471667" lon="-0.45012833">
        <ele>776.0</ele>
        <time>2017-05-27T07:08:46.170Z</time>
      </trkpt>
      <trkpt lat="39.97471667" lon="-0.45012833">
        <ele>776.0</ele>
        <time>2017-05-27T07:08:47.176Z</time>
      </trkpt>
      <trkpt lat="39.97473167" lon="-0.45007833">
        <ele>776.0</ele>
        <time>2017-05-27T07:08:48.166Z</time>
      </trkpt>
      <trkpt lat="39.97473167" lon="-0.45007833">
        <ele>776.0</ele>
        <time>2017-05-27T07:08:49.172Z</time>
      </trkpt>
      <trkpt lat="39.97475" lon="-0.45002833">
        <ele>776.0</ele>
        <time>2017-05-27T07:08:50.162Z</time>
      </trkpt>
      <trkpt lat="39.97475833" lon="-0.450005">
        <ele>776.0</ele>
        <time>2017-05-27T07:08:51.185Z</time>
      </trkpt>
      <trkpt lat="39.97475833" lon="-0.450005">
        <ele>776.0</ele>
        <time>2017-05-27T07:08:52.192Z</time>
      </trkpt>
      <trkpt lat="39.97478333" lon="-0.44996">
        <ele>776.0</ele>
        <time>2017-05-27T07:08:53.168Z</time>
      </trkpt>
      <trkpt lat="39.97479333" lon="-0.44993667">
        <ele>777.0</ele>
        <time>2017-05-27T07:08:54.193Z</time>
      </trkpt>
      <trkpt lat="39.97479333" lon="-0.44993667">
        <ele>777.0</ele>
        <time>2017-05-27T07:08:55.159Z</time>
      </trkpt>
      <trkpt lat="39.97482167" lon="-0.44989833">
        <ele>777.0</ele>
        <time>2017-05-27T07:08:56.164Z</time>
      </trkpt>
      <trkpt lat="39.97482167" lon="-0.44989833">
        <ele>777.0</ele>
        <time>2017-05-27T07:08:57.170Z</time>
      </trkpt>
      <trkpt lat="39.974845" lon="-0.449855">
        <ele>778.0</ele>
        <time>2017-05-27T07:08:58.179Z</time>
      </trkpt>
      <trkpt lat="39.97485833" lon="-0.44983333">
        <ele>778.0</ele>
        <time>2017-05-27T07:08:59.170Z</time>
      </trkpt>
      <trkpt lat="39.97485833" lon="-0.44983333">
        <ele>778.0</ele>
        <time>2017-05-27T07:09:00.176Z</time>
      </trkpt>
      <trkpt lat="39.974885" lon="-0.44978833">
        <ele>779.0</ele>
        <time>2017-05-27T07:09:01.195Z</time>
      </trkpt>
      <trkpt lat="39.974885" lon="-0.44978833">
        <ele>779.0</ele>
        <time>2017-05-27T07:09:02.161Z</time>
      </trkpt>
      <trkpt lat="39.97491333" lon="-0.44974167">
        <ele>779.0</ele>
        <time>2017-05-27T07:09:03.185Z</time>
      </trkpt>
      <trkpt lat="39.97491333" lon="-0.44974167">
        <ele>779.0</ele>
        <time>2017-05-27T07:09:04.195Z</time>
      </trkpt>
      <trkpt lat="39.97494" lon="-0.44969333">
        <ele>780.0</ele>
        <time>2017-05-27T07:09:05.190Z</time>
      </trkpt>
      <trkpt lat="39.97494" lon="-0.44969333">
        <ele>780.0</ele>
        <time>2017-05-27T07:09:06.196Z</time>
      </trkpt>
      <trkpt lat="39.97496333" lon="-0.449645">
        <ele>780.0</ele>
        <time>2017-05-27T07:09:07.180Z</time>
      </trkpt>
      <trkpt lat="39.97496333" lon="-0.449645">
        <ele>780.0</ele>
        <time>2017-05-27T07:09:08.186Z</time>
      </trkpt>
      <trkpt lat="39.974975" lon="-0.44958833">
        <ele>780.0</ele>
        <time>2017-05-27T07:09:09.170Z</time>
      </trkpt>
      <trkpt lat="39.974975" lon="-0.44958833">
        <ele>780.0</ele>
        <time>2017-05-27T07:09:10.176Z</time>
      </trkpt>
      <trkpt lat="39.97496667" lon="-0.44953333">
        <ele>780.0</ele>
        <time>2017-05-27T07:09:11.160Z</time>
      </trkpt>
      <trkpt lat="39.97496667" lon="-0.44953333">
        <ele>780.0</ele>
        <time>2017-05-27T07:09:12.166Z</time>
      </trkpt>
      <trkpt lat="39.974935" lon="-0.44949167">
        <ele>781.0</ele>
        <time>2017-05-27T07:09:13.175Z</time>
      </trkpt>
      <trkpt lat="39.974935" lon="-0.44949167">
        <ele>781.0</ele>
        <time>2017-05-27T07:09:14.187Z</time>
      </trkpt>
      <trkpt lat="39.97488833" lon="-0.44946167">
        <ele>781.0</ele>
        <time>2017-05-27T07:09:15.157Z</time>
      </trkpt>
      <trkpt lat="39.97488833" lon="-0.44946167">
        <ele>781.0</ele>
        <time>2017-05-27T07:09:16.163Z</time>
      </trkpt>
      <trkpt lat="39.97484" lon="-0.44942833">
        <ele>781.0</ele>
        <time>2017-05-27T07:09:17.180Z</time>
      </trkpt>
      <trkpt lat="39.97484" lon="-0.44942833">
        <ele>781.0</ele>
        <time>2017-05-27T07:09:18.187Z</time>
      </trkpt>
      <trkpt lat="39.97479" lon="-0.44939833">
        <ele>782.0</ele>
        <time>2017-05-27T07:09:19.179Z</time>
      </trkpt>
      <trkpt lat="39.97479" lon="-0.44939833">
        <ele>782.0</ele>
        <time>2017-05-27T07:09:20.185Z</time>
      </trkpt>
      <trkpt lat="39.97474" lon="-0.44936333">
        <ele>783.0</ele>
        <time>2017-05-27T07:09:21.174Z</time>
      </trkpt>
      <trkpt lat="39.97474" lon="-0.44936333">
        <ele>783.0</ele>
        <time>2017-05-27T07:09:22.181Z</time>
      </trkpt>
      <trkpt lat="39.974695" lon="-0.44931333">
        <ele>784.0</ele>
        <time>2017-05-27T07:09:23.176Z</time>
      </trkpt>
      <trkpt lat="39.974695" lon="-0.44931333">
        <ele>784.0</ele>
        <time>2017-05-27T07:09:24.183Z</time>
      </trkpt>
      <trkpt lat="39.97466333" lon="-0.44925">
        <ele>784.0</ele>
        <time>2017-05-27T07:09:25.178Z</time>
      </trkpt>
      <trkpt lat="39.97465333" lon="-0.44921667">
        <ele>785.0</ele>
        <time>2017-05-27T07:09:26.157Z</time>
      </trkpt>
      <trkpt lat="39.97465333" lon="-0.44921667">
        <ele>785.0</ele>
        <time>2017-05-27T07:09:27.163Z</time>
      </trkpt>
      <trkpt lat="39.97464833" lon="-0.44914167">
        <ele>785.0</ele>
        <time>2017-05-27T07:09:28.190Z</time>
      </trkpt>
      <trkpt lat="39.97464833" lon="-0.44914167">
        <ele>785.0</ele>
        <time>2017-05-27T07:09:29.156Z</time>
      </trkpt>
      <trkpt lat="39.97465333" lon="-0.44906833">
        <ele>785.0</ele>
        <time>2017-05-27T07:09:30.184Z</time>
      </trkpt>
      <trkpt lat="39.97465833" lon="-0.44903333">
        <ele>786.0</ele>
        <time>2017-05-27T07:09:31.190Z</time>
      </trkpt>
      <trkpt lat="39.97465833" lon="-0.44903333">
        <ele>786.0</ele>
        <time>2017-05-27T07:09:32.156Z</time>
      </trkpt>
      <trkpt lat="39.97466833" lon="-0.448965">
        <ele>786.0</ele>
        <time>2017-05-27T07:09:33.184Z</time>
      </trkpt>
      <trkpt lat="39.97466833" lon="-0.448965">
        <ele>786.0</ele>
        <time>2017-05-27T07:09:34.192Z</time>
      </trkpt>
      <trkpt lat="39.97468" lon="-0.44889167">
        <ele>786.0</ele>
        <time>2017-05-27T07:09:35.195Z</time>
      </trkpt>
      <trkpt lat="39.97468" lon="-0.44889167">
        <ele>786.0</ele>
        <time>2017-05-27T07:09:36.160Z</time>
      </trkpt>
      <trkpt lat="39.974695" lon="-0.44882167">
        <ele>786.0</ele>
        <time>2017-05-27T07:09:37.159Z</time>
      </trkpt>
      <trkpt lat="39.974695" lon="-0.44882167">
        <ele>786.0</ele>
        <time>2017-05-27T07:09:38.164Z</time>
      </trkpt>
      <trkpt lat="39.97470667" lon="-0.44875333">
        <ele>786.0</ele>
        <time>2017-05-27T07:09:39.192Z</time>
      </trkpt>
      <trkpt lat="39.974715" lon="-0.44871833">
        <ele>787.0</ele>
        <time>2017-05-27T07:09:40.184Z</time>
      </trkpt>
      <trkpt lat="39.974715" lon="-0.44871833">
        <ele>787.0</ele>
        <time>2017-05-27T07:09:41.190Z</time>
      </trkpt>
      <trkpt lat="39.97472667" lon="-0.44865667">
        <ele>787.0</ele>
        <time>2017-05-27T07:09:42.168Z</time>
      </trkpt>
      <trkpt lat="39.97473" lon="-0.448625">
        <ele>787.0</ele>
        <time>2017-05-27T07:09:43.174Z</time>
      </trkpt>
      <trkpt lat="39.97473" lon="-0.448625">
        <ele>787.0</ele>
        <time>2017-05-27T07:09:44.180Z</time>
      </trkpt>
      <trkpt lat="39.97473667" lon="-0.44856333">
        <ele>788.0</ele>
        <time>2017-05-27T07:09:45.180Z</time>
      </trkpt>
      <trkpt lat="39.97473667" lon="-0.44856333">
        <ele>788.0</ele>
        <time>2017-05-27T07:09:46.188Z</time>
      </trkpt>
      <trkpt lat="39.97474167" lon="-0.44850167">
        <ele>788.0</ele>
        <time>2017-05-27T07:09:47.168Z</time>
      </trkpt>
      <trkpt lat="39.97474167" lon="-0.44850167">
        <ele>788.0</ele>
        <time>2017-05-27T07:09:48.173Z</time>
      </trkpt>
      <trkpt lat="39.97474333" lon="-0.44844333">
        <ele>789.0</ele>
        <time>2017-05-27T07:09:49.163Z</time>
      </trkpt>
      <trkpt lat="39.97474333" lon="-0.44844333">
        <ele>789.0</ele>
        <time>2017-05-27T07:09:50.169Z</time>
      </trkpt>
      <trkpt lat="39.97474333" lon="-0.44838333">
        <ele>790.0</ele>
        <time>2017-05-27T07:09:51.156Z</time>
      </trkpt>
      <trkpt lat="39.97474333" lon="-0.44838333">
        <ele>790.0</ele>
        <time>2017-05-27T07:09:52.163Z</time>
      </trkpt>
      <trkpt lat="39.974745" lon="-0.44832667">
        <ele>791.0</ele>
        <time>2017-05-27T07:09:53.187Z</time>
      </trkpt>
      <trkpt lat="39.974745" lon="-0.44832667">
        <ele>791.0</ele>
        <time>2017-05-27T07:09:54.163Z</time>
      </trkpt>
      <trkpt lat="39.974745" lon="-0.44826833">
        <ele>791.0</ele>
        <time>2017-05-27T07:09:55.177Z</time>
      </trkpt>
      <trkpt lat="39.974745" lon="-0.44826833">
        <ele>791.0</ele>
        <time>2017-05-27T07:09:56.186Z</time>
      </trkpt>
      <trkpt lat="39.97473833" lon="-0.44821167">
        <ele>792.0</ele>
        <time>2017-05-27T07:09:57.168Z</time>
      </trkpt>
      <trkpt lat="39.97473833" lon="-0.44821167">
        <ele>792.0</ele>
        <time>2017-05-27T07:09:58.174Z</time>
      </trkpt>
      <trkpt lat="39.97473" lon="-0.44815833">
        <ele>792.0</ele>
        <time>2017-05-27T07:09:59.161Z</time>
      </trkpt>
      <trkpt lat="39.97473" lon="-0.44815833">
        <ele>792.0</ele>
        <time>2017-05-27T07:10:00.166Z</time>
      </trkpt>
      <trkpt lat="39.97470667" lon="-0.44810667">
        <ele>792.0</ele>
        <time>2017-05-27T07:10:01.189Z</time>
      </trkpt>
      <trkpt lat="39.97470667" lon="-0.44810667">
        <ele>792.0</ele>
        <time>2017-05-27T07:10:02.195Z</time>
      </trkpt>
      <trkpt lat="39.97467667" lon="-0.44807333">
        <ele>793.0</ele>
        <time>2017-05-27T07:10:03.179Z</time>
      </trkpt>
      <trkpt lat="39.97467667" lon="-0.44807333">
        <ele>793.0</ele>
        <time>2017-05-27T07:10:04.187Z</time>
      </trkpt>
      <trkpt lat="39.97463833" lon="-0.44805167">
        <ele>794.0</ele>
        <time>2017-05-27T07:10:05.172Z</time>
      </trkpt>
      <trkpt lat="39.97461667" lon="-0.44804167">
        <ele>794.0</ele>
        <time>2017-05-27T07:10:06.166Z</time>
      </trkpt>
      <trkpt lat="39.974595" lon="-0.44802833">
        <ele>794.0</ele>
        <time>2017-05-27T07:10:07.172Z</time>
      </trkpt>
      <trkpt lat="39.974595" lon="-0.44802833">
        <ele>794.0</ele>
        <time>2017-05-27T07:10:08.179Z</time>
      </trkpt>
      <trkpt lat="39.97455333" lon="-0.44799667">
        <ele>795.0</ele>
        <time>2017-05-27T07:10:09.170Z</time>
      </trkpt>
      <trkpt lat="39.97455333" lon="-0.44799667">
        <ele>795.0</ele>
        <time>2017-05-27T07:10:10.177Z</time>
      </trkpt>
      <trkpt lat="39.97451" lon="-0.44795167">
        <ele>795.0</ele>
        <time>2017-05-27T07:10:11.162Z</time>
      </trkpt>
      <trkpt lat="39.97451" lon="-0.44795167">
        <ele>795.0</ele>
        <time>2017-05-27T07:10:12.168Z</time>
      </trkpt>
      <trkpt lat="39.97447333" lon="-0.44791">
        <ele>796.0</ele>
        <time>2017-05-27T07:10:13.164Z</time>
      </trkpt>
      <trkpt lat="39.974455" lon="-0.44789167">
        <ele>796.0</ele>
        <time>2017-05-27T07:10:14.164Z</time>
      </trkpt>
      <trkpt lat="39.974455" lon="-0.44789167">
        <ele>796.0</ele>
        <time>2017-05-27T07:10:15.170Z</time>
      </trkpt>
      <trkpt lat="39.97442667" lon="-0.44784333">
        <ele>797.0</ele>
        <time>2017-05-27T07:10:16.191Z</time>
      </trkpt>
      <trkpt lat="39.97442667" lon="-0.44784333">
        <ele>797.0</ele>
        <time>2017-05-27T07:10:17.157Z</time>
      </trkpt>
      <trkpt lat="39.97440333" lon="-0.44779333">
        <ele>797.0</ele>
        <time>2017-05-27T07:10:18.189Z</time>
      </trkpt>
      <trkpt lat="39.97439667" lon="-0.44776667">
        <ele>797.0</ele>
        <time>2017-05-27T07:10:19.194Z</time>
      </trkpt>
      <trkpt lat="39.97439667" lon="-0.44776667">
        <ele>797.0</ele>
        <time>2017-05-27T07:10:20.160Z</time>
      </trkpt>
      <trkpt lat="39.97438833" lon="-0.44771167">
        <ele>797.0</ele>
        <time>2017-05-27T07:10:21.193Z</time>
      </trkpt>
      <trkpt lat="39.97438833" lon="-0.44771167">
        <ele>797.0</ele>
        <time>2017-05-27T07:10:22.159Z</time>
      </trkpt>
      <trkpt lat="39.97438333" lon="-0.44765167">
        <ele>798.0</ele>
        <time>2017-05-27T07:10:23.180Z</time>
      </trkpt>
      <trkpt lat="39.97438333" lon="-0.44765167">
        <ele>798.0</ele>
        <time>2017-05-27T07:10:24.189Z</time>
      </trkpt>
      <trkpt lat="39.97437667" lon="-0.44759667">
        <ele>798.0</ele>
        <time>2017-05-27T07:10:25.170Z</time>
      </trkpt>
      <trkpt lat="39.97437667" lon="-0.44759667">
        <ele>798.0</ele>
        <time>2017-05-27T07:10:26.177Z</time>
      </trkpt>
      <trkpt lat="39.974385" lon="-0.44754">
        <ele>798.0</ele>
        <time>2017-05-27T07:10:27.174Z</time>
      </trkpt>
      <trkpt lat="39.974385" lon="-0.44754">
        <ele>798.0</ele>
        <time>2017-05-27T07:10:28.185Z</time>
      </trkpt>
      <trkpt lat="39.974395" lon="-0.447475">
        <ele>798.0</ele>
        <time>2017-05-27T07:10:29.164Z</time>
      </trkpt>
      <trkpt lat="39.974395" lon="-0.447475">
        <ele>798.0</ele>
        <time>2017-05-27T07:10:30.170Z</time>
      </trkpt>
      <trkpt lat="39.97439833" lon="-0.44741">
        <ele>798.0</ele>
        <time>2017-05-27T07:10:31.156Z</time>
      </trkpt>
      <trkpt lat="39.97439833" lon="-0.44741">
        <ele>798.0</ele>
        <time>2017-05-27T07:10:32.163Z</time>
      </trkpt>
      <trkpt lat="39.97441" lon="-0.44735167">
        <ele>798.0</ele>
        <time>2017-05-27T07:10:33.186Z</time>
      </trkpt>
      <trkpt lat="39.97441" lon="-0.44735167">
        <ele>798.0</ele>
        <time>2017-05-27T07:10:34.192Z</time>
      </trkpt>
      <trkpt lat="39.97443167" lon="-0.44729167">
        <ele>798.0</ele>
        <time>2017-05-27T07:10:35.189Z</time>
      </trkpt>
      <trkpt lat="39.97444" lon="-0.44726333">
        <ele>799.0</ele>
        <time>2017-05-27T07:10:36.162Z</time>
      </trkpt>
      <trkpt lat="39.97445" lon="-0.44723333">
        <ele>799.0</ele>
        <time>2017-05-27T07:10:37.168Z</time>
      </trkpt>
      <trkpt lat="39.97445" lon="-0.44723333">
        <ele>799.0</ele>
        <time>2017-05-27T07:10:38.174Z</time>
      </trkpt>
      <trkpt lat="39.97446833" lon="-0.44717333">
        <ele>800.0</ele>
        <time>2017-05-27T07:10:39.186Z</time>
      </trkpt>
      <trkpt lat="39.97448" lon="-0.447145">
        <ele>800.0</ele>
        <time>2017-05-27T07:10:40.187Z</time>
      </trkpt>
      <trkpt lat="39.97448" lon="-0.447145">
        <ele>800.0</ele>
        <time>2017-05-27T07:10:41.193Z</time>
      </trkpt>
      <trkpt lat="39.974505" lon="-0.44709">
        <ele>800.0</ele>
        <time>2017-05-27T07:10:42.182Z</time>
      </trkpt>
      <trkpt lat="39.97451833" lon="-0.44706333">
        <ele>800.0</ele>
        <time>2017-05-27T07:10:43.189Z</time>
      </trkpt>
      <trkpt lat="39.97451833" lon="-0.44706333">
        <ele>800.0</ele>
        <time>2017-05-27T07:10:44.195Z</time>
      </trkpt>
      <trkpt lat="39.97454833" lon="-0.44700833">
        <ele>800.0</ele>
        <time>2017-05-27T07:10:45.187Z</time>
      </trkpt>
      <trkpt lat="39.97454833" lon="-0.44700833">
        <ele>800.0</ele>
        <time>2017-05-27T07:10:46.193Z</time>
      </trkpt>
      <trkpt lat="39.97458167" lon="-0.44695">
        <ele>800.0</ele>
        <time>2017-05-27T07:10:47.186Z</time>
      </trkpt>
      <trkpt lat="39.97458167" lon="-0.44695">
        <ele>800.0</ele>
        <time>2017-05-27T07:10:48.191Z</time>
      </trkpt>
      <trkpt lat="39.97461833" lon="-0.44689667">
        <ele>801.0</ele>
        <time>2017-05-27T07:10:49.174Z</time>
      </trkpt>
      <trkpt lat="39.97461833" lon="-0.44689667">
        <ele>801.0</ele>
        <time>2017-05-27T07:10:50.183Z</time>
      </trkpt>
      <trkpt lat="39.97465833" lon="-0.44685">
        <ele>801.0</ele>
        <time>2017-05-27T07:10:51.157Z</time>
      </trkpt>
      <trkpt lat="39.97467833" lon="-0.44682833">
        <ele>801.0</ele>
        <time>2017-05-27T07:10:52.174Z</time>
      </trkpt>
      <trkpt lat="39.97467833" lon="-0.44682833">
        <ele>801.0</ele>
        <time>2017-05-27T07:10:53.186Z</time>
      </trkpt>
      <trkpt lat="39.97472167" lon="-0.44678667">
        <ele>801.0</ele>
        <time>2017-05-27T07:10:54.190Z</time>
      </trkpt>
      <trkpt lat="39.97474167" lon="-0.446765">
        <ele>801.0</ele>
        <time>2017-05-27T07:10:55.156Z</time>
      </trkpt>
      <trkpt lat="39.97474167" lon="-0.446765">
        <ele>801.0</ele>
        <time>2017-05-27T07:10:56.162Z</time>
      </trkpt>
      <trkpt lat="39.974785" lon="-0.44672167">
        <ele>801.0</ele>
        <time>2017-05-27T07:10:57.192Z</time>
      </trkpt>
      <trkpt lat="39.974805" lon="-0.44669833">
        <ele>801.0</ele>
        <time>2017-05-27T07:10:58.184Z</time>
      </trkpt>
      <trkpt lat="39.974805" lon="-0.44669833">
        <ele>801.0</ele>
        <time>2017-05-27T07:10:59.190Z</time>
      </trkpt>
      <trkpt lat="39.97484333" lon="-0.44665167">
        <ele>801.0</ele>
        <time>2017-05-27T07:11:00.180Z</time>
      </trkpt>
      <trkpt lat="39.97486167" lon="-0.44662833">
        <ele>801.0</ele>
        <time>2017-05-27T07:11:01.190Z</time>
      </trkpt>
      <trkpt lat="39.97486167" lon="-0.44662833">
        <ele>801.0</ele>
        <time>2017-05-27T07:11:02.156Z</time>
      </trkpt>
      <trkpt lat="39.97489667" lon="-0.44658">
        <ele>802.0</ele>
        <time>2017-05-27T07:11:03.194Z</time>
      </trkpt>
      <trkpt lat="39.97489667" lon="-0.44658">
        <ele>802.0</ele>
        <time>2017-05-27T07:11:04.160Z</time>
      </trkpt>
      <trkpt lat="39.97492667" lon="-0.44653167">
        <ele>802.0</ele>
        <time>2017-05-27T07:11:05.181Z</time>
      </trkpt>
      <trkpt lat="39.97492667" lon="-0.44653167">
        <ele>802.0</ele>
        <time>2017-05-27T07:11:06.187Z</time>
      </trkpt>
      <trkpt lat="39.97494833" lon="-0.44647833">
        <ele>801.0</ele>
        <time>2017-05-27T07:11:07.178Z</time>
      </trkpt>
      <trkpt lat="39.97494833" lon="-0.44647833">
        <ele>801.0</ele>
        <time>2017-05-27T07:11:08.187Z</time>
      </trkpt>
      <trkpt lat="39.974955" lon="-0.446415">
        <ele>801.0</ele>
        <time>2017-05-27T07:11:09.178Z</time>
      </trkpt>
      <trkpt lat="39.97495" lon="-0.44638333">
        <ele>801.0</ele>
        <time>2017-05-27T07:11:10.156Z</time>
      </trkpt>
      <trkpt lat="39.97495" lon="-0.44638333">
        <ele>801.0</ele>
        <time>2017-05-27T07:11:11.163Z</time>
      </trkpt>
      <trkpt lat="39.97492833" lon="-0.44633333">
        <ele>801.0</ele>
        <time>2017-05-27T07:11:12.178Z</time>
      </trkpt>
      <trkpt lat="39.97492833" lon="-0.44633333">
        <ele>801.0</ele>
        <time>2017-05-27T07:11:13.157Z</time>
      </trkpt>
      <trkpt lat="39.97489833" lon="-0.4463">
        <ele>801.0</ele>
        <time>2017-05-27T07:11:14.187Z</time>
      </trkpt>
      <trkpt lat="39.97489833" lon="-0.4463">
        <ele>801.0</ele>
        <time>2017-05-27T07:11:15.193Z</time>
      </trkpt>
      <trkpt lat="39.97486" lon="-0.44626833">
        <ele>802.0</ele>
        <time>2017-05-27T07:11:16.167Z</time>
      </trkpt>
      <trkpt lat="39.97486" lon="-0.44626833">
        <ele>802.0</ele>
        <time>2017-05-27T07:11:17.173Z</time>
      </trkpt>
      <trkpt lat="39.974815" lon="-0.44623667">
        <ele>802.0</ele>
        <time>2017-05-27T07:11:18.156Z</time>
      </trkpt>
      <trkpt lat="39.97479333" lon="-0.44622167">
        <ele>802.0</ele>
        <time>2017-05-27T07:11:19.162Z</time>
      </trkpt>
      <trkpt lat="39.97479333" lon="-0.44622167">
        <ele>802.0</ele>
        <time>2017-05-27T07:11:20.168Z</time>
      </trkpt>
      <trkpt lat="39.97474667" lon="-0.44618167">
        <ele>802.0</ele>
        <time>2017-05-27T07:11:21.192Z</time>
      </trkpt>
      <trkpt lat="39.974725" lon="-0.446165">
        <ele>802.0</ele>
        <time>2017-05-27T07:11:22.181Z</time>
      </trkpt>
      <trkpt lat="39.974725" lon="-0.446165">
        <ele>802.0</ele>
        <time>2017-05-27T07:11:23.187Z</time>
      </trkpt>
      <trkpt lat="39.97467833" lon="-0.44613333">
        <ele>803.0</ele>
        <time>2017-05-27T07:11:24.183Z</time>
      </trkpt>
      <trkpt lat="39.97467833" lon="-0.44613333">
        <ele>803.0</ele>
        <time>2017-05-27T07:11:25.189Z</time>
      </trkpt>
      <trkpt lat="39.97463167" lon="-0.446105">
        <ele>803.0</ele>
        <time>2017-05-27T07:11:26.187Z</time>
      </trkpt>
      <trkpt lat="39.97463167" lon="-0.446105">
        <ele>803.0</ele>
        <time>2017-05-27T07:11:27.193Z</time>
      </trkpt>
      <trkpt lat="39.97458167" lon="-0.44608167">
        <ele>803.0</ele>
        <time>2017-05-27T07:11:28.174Z</time>
      </trkpt>
      <trkpt lat="39.97455667" lon="-0.446065">
        <ele>803.0</ele>
        <time>2017-05-27T07:11:29.167Z</time>
      </trkpt>
      <trkpt lat="39.97455667" lon="-0.446065">
        <ele>803.0</ele>
        <time>2017-05-27T07:11:30.173Z</time>
      </trkpt>
      <trkpt lat="39.97450833" lon="-0.44604667">
        <ele>803.0</ele>
        <time>2017-05-27T07:11:31.175Z</time>
      </trkpt>
      <trkpt lat="39.97450833" lon="-0.44604667">
        <ele>803.0</ele>
        <time>2017-05-27T07:11:32.188Z</time>
      </trkpt>
      <trkpt lat="39.97446" lon="-0.446035">
        <ele>803.0</ele>
        <time>2017-05-27T07:11:33.182Z</time>
      </trkpt>
      <trkpt lat="39.97443333" lon="-0.44603">
        <ele>803.0</ele>
        <time>2017-05-27T07:11:34.164Z</time>
      </trkpt>
      <trkpt lat="39.97443333" lon="-0.44603">
        <ele>803.0</ele>
        <time>2017-05-27T07:11:35.170Z</time>
      </trkpt>
      <trkpt lat="39.97438" lon="-0.44602167">
        <ele>804.0</ele>
        <time>2017-05-27T07:11:36.190Z</time>
      </trkpt>
      <trkpt lat="39.97438" lon="-0.44602167">
        <ele>804.0</ele>
        <time>2017-05-27T07:11:37.195Z</time>
      </trkpt>
      <trkpt lat="39.97433" lon="-0.44601333">
        <ele>805.0</ele>
        <time>2017-05-27T07:11:38.184Z</time>
      </trkpt>
      <trkpt lat="39.97433" lon="-0.44601333">
        <ele>805.0</ele>
        <time>2017-05-27T07:11:39.156Z</time>
      </trkpt>
      <trkpt lat="39.97428" lon="-0.44600667">
        <ele>805.0</ele>
        <time>2017-05-27T07:11:40.187Z</time>
      </trkpt>
      <trkpt lat="39.97428" lon="-0.44600667">
        <ele>805.0</ele>
        <time>2017-05-27T07:11:41.192Z</time>
      </trkpt>
      <trkpt lat="39.97423" lon="-0.44599833">
        <ele>806.0</ele>
        <time>2017-05-27T07:11:42.194Z</time>
      </trkpt>
      <trkpt lat="39.97420833" lon="-0.446">
        <ele>806.0</ele>
        <time>2017-05-27T07:11:43.159Z</time>
      </trkpt>
      <trkpt lat="39.97420833" lon="-0.446">
        <ele>806.0</ele>
        <time>2017-05-27T07:11:44.166Z</time>
      </trkpt>
      <trkpt lat="39.97416833" lon="-0.44599333">
        <ele>807.0</ele>
        <time>2017-05-27T07:11:45.160Z</time>
      </trkpt>
      <trkpt lat="39.97415" lon="-0.44597167">
        <ele>807.0</ele>
        <time>2017-05-27T07:11:46.183Z</time>
      </trkpt>
      <trkpt lat="39.97415" lon="-0.44597167">
        <ele>807.0</ele>
        <time>2017-05-27T07:11:47.189Z</time>
      </trkpt>
      <trkpt lat="39.97411833" lon="-0.445925">
        <ele>808.0</ele>
        <time>2017-05-27T07:11:48.178Z</time>
      </trkpt>
      <trkpt lat="39.97411833" lon="-0.445925">
        <ele>808.0</ele>
        <time>2017-05-27T07:11:49.187Z</time>
      </trkpt>
      <trkpt lat="39.97411" lon="-0.44586">
        <ele>808.0</ele>
        <time>2017-05-27T07:11:50.181Z</time>
      </trkpt>
      <trkpt lat="39.97411" lon="-0.44586">
        <ele>808.0</ele>
        <time>2017-05-27T07:11:51.191Z</time>
      </trkpt>
      <trkpt lat="39.97412167" lon="-0.44579333">
        <ele>809.0</ele>
        <time>2017-05-27T07:11:52.161Z</time>
      </trkpt>
      <trkpt lat="39.97412167" lon="-0.44579333">
        <ele>809.0</ele>
        <time>2017-05-27T07:11:53.167Z</time>
      </trkpt>
      <trkpt lat="39.97414833" lon="-0.44573167">
        <ele>809.0</ele>
        <time>2017-05-27T07:11:54.190Z</time>
      </trkpt>
      <trkpt lat="39.97416333" lon="-0.44570333">
        <ele>809.0</ele>
        <time>2017-05-27T07:11:55.156Z</time>
      </trkpt>
      <trkpt lat="39.97416333" lon="-0.44570333">
        <ele>809.0</ele>
        <time>2017-05-27T07:11:56.162Z</time>
      </trkpt>
      <trkpt lat="39.97419167" lon="-0.44564833">
        <ele>810.0</ele>
        <time>2017-05-27T07:11:57.185Z</time>
      </trkpt>
      <trkpt lat="39.97419167" lon="-0.44564833">
        <ele>810.0</ele>
        <time>2017-05-27T07:11:58.191Z</time>
      </trkpt>
      <trkpt lat="39.97422667" lon="-0.44560333">
        <ele>811.0</ele>
        <time>2017-05-27T07:11:59.164Z</time>
      </trkpt>
      <trkpt lat="39.97424833" lon="-0.44558333">
        <ele>811.0</ele>
        <time>2017-05-27T07:12:00.157Z</time>
      </trkpt>
      <trkpt lat="39.97426833" lon="-0.44556167">
        <ele>811.0</ele>
        <time>2017-05-27T07:12:01.163Z</time>
      </trkpt>
      <trkpt lat="39.97426833" lon="-0.44556167">
        <ele>811.0</ele>
        <time>2017-05-27T07:12:02.169Z</time>
      </trkpt>
      <trkpt lat="39.97430167" lon="-0.44551167">
        <ele>811.0</ele>
        <time>2017-05-27T07:12:03.162Z</time>
      </trkpt>
      <trkpt lat="39.97430167" lon="-0.44551167">
        <ele>811.0</ele>
        <time>2017-05-27T07:12:04.168Z</time>
      </trkpt>
      <trkpt lat="39.97433167" lon="-0.44546">
        <ele>812.0</ele>
        <time>2017-05-27T07:12:05.192Z</time>
      </trkpt>
      <trkpt lat="39.97433167" lon="-0.44546">
        <ele>812.0</ele>
        <time>2017-05-27T07:12:06.158Z</time>
      </trkpt>
      <trkpt lat="39.97436667" lon="-0.44540667">
        <ele>812.0</ele>
        <time>2017-05-27T07:12:07.178Z</time>
      </trkpt>
      <trkpt lat="39.97436667" lon="-0.44540667">
        <ele>812.0</ele>
        <time>2017-05-27T07:12:08.184Z</time>
      </trkpt>
      <trkpt lat="39.97440167" lon="-0.44535667">
        <ele>812.0</ele>
        <time>2017-05-27T07:12:09.160Z</time>
      </trkpt>
      <trkpt lat="39.97442167" lon="-0.44533">
        <ele>813.0</ele>
        <time>2017-05-27T07:12:10.157Z</time>
      </trkpt>
      <trkpt lat="39.97442167" lon="-0.44533">
        <ele>813.0</ele>
        <time>2017-05-27T07:12:11.163Z</time>
      </trkpt>
      <trkpt lat="39.97445333" lon="-0.445275">
        <ele>813.0</ele>
        <time>2017-05-27T07:12:12.189Z</time>
      </trkpt>
      <trkpt lat="39.97445333" lon="-0.445275">
        <ele>813.0</ele>
        <time>2017-05-27T07:12:13.169Z</time>
      </trkpt>
      <trkpt lat="39.97448167" lon="-0.44521833">
        <ele>813.0</ele>
        <time>2017-05-27T07:12:14.164Z</time>
      </trkpt>
      <trkpt lat="39.97448167" lon="-0.44521833">
        <ele>813.0</ele>
        <time>2017-05-27T07:12:15.170Z</time>
      </trkpt>
      <trkpt lat="39.974515" lon="-0.445165">
        <ele>814.0</ele>
        <time>2017-05-27T07:12:16.173Z</time>
      </trkpt>
      <trkpt lat="39.974515" lon="-0.445165">
        <ele>814.0</ele>
        <time>2017-05-27T07:12:17.180Z</time>
      </trkpt>
      <trkpt lat="39.974545" lon="-0.44510667">
        <ele>814.0</ele>
        <time>2017-05-27T07:12:18.166Z</time>
      </trkpt>
      <trkpt lat="39.97455833" lon="-0.44507667">
        <ele>814.0</ele>
        <time>2017-05-27T07:12:19.171Z</time>
      </trkpt>
      <trkpt lat="39.97455833" lon="-0.44507667">
        <ele>814.0</ele>
        <time>2017-05-27T07:12:20.178Z</time>
      </trkpt>
      <trkpt lat="39.97458333" lon="-0.445015">
        <ele>814.0</ele>
        <time>2017-05-27T07:12:21.187Z</time>
      </trkpt>
      <trkpt lat="39.97459167" lon="-0.444985">
        <ele>814.0</ele>
        <time>2017-05-27T07:12:22.178Z</time>
      </trkpt>
      <trkpt lat="39.97459167" lon="-0.444985">
        <ele>814.0</ele>
        <time>2017-05-27T07:12:23.186Z</time>
      </trkpt>
      <trkpt lat="39.97459667" lon="-0.44491667">
        <ele>815.0</ele>
        <time>2017-05-27T07:12:24.175Z</time>
      </trkpt>
      <trkpt lat="39.97459333" lon="-0.444885">
        <ele>815.0</ele>
        <time>2017-05-27T07:12:25.181Z</time>
      </trkpt>
      <trkpt lat="39.97459333" lon="-0.444885">
        <ele>815.0</ele>
        <time>2017-05-27T07:12:26.188Z</time>
      </trkpt>
      <trkpt lat="39.97458167" lon="-0.44481833">
        <ele>816.0</ele>
        <time>2017-05-27T07:12:27.171Z</time>
      </trkpt>
      <trkpt lat="39.97458167" lon="-0.44481833">
        <ele>816.0</ele>
        <time>2017-05-27T07:12:28.177Z</time>
      </trkpt>
      <trkpt lat="39.97455833" lon="-0.44475833">
        <ele>816.0</ele>
        <time>2017-05-27T07:12:29.158Z</time>
      </trkpt>
      <trkpt lat="39.97455833" lon="-0.44475833">
        <ele>816.0</ele>
        <time>2017-05-27T07:12:30.164Z</time>
      </trkpt>
      <trkpt lat="39.97453333" lon="-0.44470167">
        <ele>817.0</ele>
        <time>2017-05-27T07:12:31.182Z</time>
      </trkpt>
      <trkpt lat="39.97451833" lon="-0.44467">
        <ele>818.0</ele>
        <time>2017-05-27T07:12:32.166Z</time>
      </trkpt>
      <trkpt lat="39.97451833" lon="-0.44467">
        <ele>818.0</ele>
        <time>2017-05-27T07:12:33.172Z</time>
      </trkpt>
      <trkpt lat="39.97450333" lon="-0.44460833">
        <ele>818.0</ele>
        <time>2017-05-27T07:12:34.161Z</time>
      </trkpt>
      <trkpt lat="39.97449667" lon="-0.44457333">
        <ele>818.0</ele>
        <time>2017-05-27T07:12:35.173Z</time>
      </trkpt>
      <trkpt lat="39.97449333" lon="-0.44453833">
        <ele>819.0</ele>
        <time>2017-05-27T07:12:36.163Z</time>
      </trkpt>
      <trkpt lat="39.97449167" lon="-0.444505">
        <ele>819.0</ele>
        <time>2017-05-27T07:12:37.169Z</time>
      </trkpt>
      <trkpt lat="39.97449167" lon="-0.444505">
        <ele>819.0</ele>
        <time>2017-05-27T07:12:38.175Z</time>
      </trkpt>
      <trkpt lat="39.97449667" lon="-0.44443833">
        <ele>819.0</ele>
        <time>2017-05-27T07:12:39.178Z</time>
      </trkpt>
      <trkpt lat="39.97449667" lon="-0.44443833">
        <ele>819.0</ele>
        <time>2017-05-27T07:12:40.187Z</time>
      </trkpt>
      <trkpt lat="39.97451" lon="-0.44437667">
        <ele>820.0</ele>
        <time>2017-05-27T07:12:41.182Z</time>
      </trkpt>
      <trkpt lat="39.97451" lon="-0.44437667">
        <ele>820.0</ele>
        <time>2017-05-27T07:12:42.190Z</time>
      </trkpt>
      <trkpt lat="39.97453333" lon="-0.44431667">
        <ele>821.0</ele>
        <time>2017-05-27T07:12:43.184Z</time>
      </trkpt>
      <trkpt lat="39.97453333" lon="-0.44431667">
        <ele>821.0</ele>
        <time>2017-05-27T07:12:44.190Z</time>
      </trkpt>
      <trkpt lat="39.97456" lon="-0.44426167">
        <ele>821.0</ele>
        <time>2017-05-27T07:12:45.170Z</time>
      </trkpt>
      <trkpt lat="39.97457333" lon="-0.44423333">
        <ele>821.0</ele>
        <time>2017-05-27T07:12:46.195Z</time>
      </trkpt>
      <trkpt lat="39.97457333" lon="-0.44423333">
        <ele>821.0</ele>
        <time>2017-05-27T07:12:47.160Z</time>
      </trkpt>
      <trkpt lat="39.97459833" lon="-0.44417833">
        <ele>822.0</ele>
        <time>2017-05-27T07:12:48.166Z</time>
      </trkpt>
      <trkpt lat="39.97461333" lon="-0.44415167">
        <ele>822.0</ele>
        <time>2017-05-27T07:12:49.172Z</time>
      </trkpt>
      <trkpt lat="39.97461333" lon="-0.44415167">
        <ele>822.0</ele>
        <time>2017-05-27T07:12:50.178Z</time>
      </trkpt>
      <trkpt lat="39.97463833" lon="-0.44409667">
        <ele>823.0</ele>
        <time>2017-05-27T07:12:51.187Z</time>
      </trkpt>
      <trkpt lat="39.97465" lon="-0.44406833">
        <ele>823.0</ele>
        <time>2017-05-27T07:12:52.191Z</time>
      </trkpt>
      <trkpt lat="39.97465" lon="-0.44406833">
        <ele>823.0</ele>
        <time>2017-05-27T07:12:53.158Z</time>
      </trkpt>
      <trkpt lat="39.97467" lon="-0.44401333">
        <ele>823.0</ele>
        <time>2017-05-27T07:12:54.184Z</time>
      </trkpt>
      <trkpt lat="39.97468333" lon="-0.44398667">
        <ele>824.0</ele>
        <time>2017-05-27T07:12:55.190Z</time>
      </trkpt>
      <trkpt lat="39.97468333" lon="-0.44398667">
        <ele>824.0</ele>
        <time>2017-05-27T07:12:56.156Z</time>
      </trkpt>
      <trkpt lat="39.97470833" lon="-0.44393833">
        <ele>824.0</ele>
        <time>2017-05-27T07:12:57.181Z</time>
      </trkpt>
      <trkpt lat="39.97470833" lon="-0.44393833">
        <ele>824.0</ele>
        <time>2017-05-27T07:12:58.188Z</time>
      </trkpt>
      <trkpt lat="39.97473333" lon="-0.44388667">
        <ele>824.0</ele>
        <time>2017-05-27T07:12:59.180Z</time>
      </trkpt>
      <trkpt lat="39.97473333" lon="-0.44388667">
        <ele>824.0</ele>
        <time>2017-05-27T07:13:00.187Z</time>
      </trkpt>
      <trkpt lat="39.974755" lon="-0.443835">
        <ele>825.0</ele>
        <time>2017-05-27T07:13:01.182Z</time>
      </trkpt>
      <trkpt lat="39.974755" lon="-0.443835">
        <ele>825.0</ele>
        <time>2017-05-27T07:13:02.190Z</time>
      </trkpt>
      <trkpt lat="39.97477167" lon="-0.44378167">
        <ele>825.0</ele>
        <time>2017-05-27T07:13:03.186Z</time>
      </trkpt>
      <trkpt lat="39.97477167" lon="-0.44378167">
        <ele>825.0</ele>
        <time>2017-05-27T07:13:04.192Z</time>
      </trkpt>
      <trkpt lat="39.97477667" lon="-0.443725">
        <ele>825.0</ele>
        <time>2017-05-27T07:13:05.172Z</time>
      </trkpt>
      <trkpt lat="39.97477667" lon="-0.443725">
        <ele>825.0</ele>
        <time>2017-05-27T07:13:06.191Z</time>
      </trkpt>
      <trkpt lat="39.97476" lon="-0.443665">
        <ele>825.0</ele>
        <time>2017-05-27T07:13:07.183Z</time>
      </trkpt>
      <trkpt lat="39.97476" lon="-0.443665">
        <ele>825.0</ele>
        <time>2017-05-27T07:13:08.189Z</time>
      </trkpt>
      <trkpt lat="39.97472833" lon="-0.44361">
        <ele>826.0</ele>
        <time>2017-05-27T07:13:09.181Z</time>
      </trkpt>
      <trkpt lat="39.97472833" lon="-0.44361">
        <ele>826.0</ele>
        <time>2017-05-27T07:13:10.188Z</time>
      </trkpt>
      <trkpt lat="39.97468667" lon="-0.44356667">
        <ele>826.0</ele>
        <time>2017-05-27T07:13:11.157Z</time>
      </trkpt>
      <trkpt lat="39.97468667" lon="-0.44356667">
        <ele>826.0</ele>
        <time>2017-05-27T07:13:12.163Z</time>
      </trkpt>
      <trkpt lat="39.97463667" lon="-0.44352833">
        <ele>827.0</ele>
        <time>2017-05-27T07:13:13.164Z</time>
      </trkpt>
      <trkpt lat="39.97463667" lon="-0.44352833">
        <ele>827.0</ele>
        <time>2017-05-27T07:13:14.172Z</time>
      </trkpt>
      <trkpt lat="39.97458667" lon="-0.44348833">
        <ele>827.0</ele>
        <time>2017-05-27T07:13:15.156Z</time>
      </trkpt>
      <trkpt lat="39.97456167" lon="-0.44347">
        <ele>827.0</ele>
        <time>2017-05-27T07:13:16.194Z</time>
      </trkpt>
      <trkpt lat="39.97456167" lon="-0.44347">
        <ele>827.0</ele>
        <time>2017-05-27T07:13:17.160Z</time>
      </trkpt>
      <trkpt lat="39.97451167" lon="-0.44343667">
        <ele>828.0</ele>
        <time>2017-05-27T07:13:18.195Z</time>
      </trkpt>
      <trkpt lat="39.97448667" lon="-0.44342167">
        <ele>827.0</ele>
        <time>2017-05-27T07:13:19.162Z</time>
      </trkpt>
      <trkpt lat="39.97448667" lon="-0.44342167">
        <ele>827.0</ele>
        <time>2017-05-27T07:13:20.168Z</time>
      </trkpt>
      <trkpt lat="39.97443667" lon="-0.44339167">
        <ele>828.0</ele>
        <time>2017-05-27T07:13:21.161Z</time>
      </trkpt>
      <trkpt lat="39.97443667" lon="-0.44339167">
        <ele>828.0</ele>
        <time>2017-05-27T07:13:22.166Z</time>
      </trkpt>
      <trkpt lat="39.97438333" lon="-0.44337667">
        <ele>828.0</ele>
        <time>2017-05-27T07:13:23.174Z</time>
      </trkpt>
      <trkpt lat="39.97438333" lon="-0.44337667">
        <ele>828.0</ele>
        <time>2017-05-27T07:13:24.181Z</time>
      </trkpt>
      <trkpt lat="39.97433167" lon="-0.443365">
        <ele>828.0</ele>
        <time>2017-05-27T07:13:25.180Z</time>
      </trkpt>
      <trkpt lat="39.97433167" lon="-0.443365">
        <ele>828.0</ele>
        <time>2017-05-27T07:13:26.156Z</time>
      </trkpt>
      <trkpt lat="39.97427667" lon="-0.44334667">
        <ele>828.0</ele>
        <time>2017-05-27T07:13:27.165Z</time>
      </trkpt>
      <trkpt lat="39.97427667" lon="-0.44334667">
        <ele>828.0</ele>
        <time>2017-05-27T07:13:28.170Z</time>
      </trkpt>
      <trkpt lat="39.97421833" lon="-0.44332333">
        <ele>829.0</ele>
        <time>2017-05-27T07:13:29.158Z</time>
      </trkpt>
      <trkpt lat="39.97418833" lon="-0.443315">
        <ele>829.0</ele>
        <time>2017-05-27T07:13:30.164Z</time>
      </trkpt>
      <trkpt lat="39.97416" lon="-0.44330667">
        <ele>829.0</ele>
        <time>2017-05-27T07:13:31.170Z</time>
      </trkpt>
      <trkpt lat="39.97416" lon="-0.44330667">
        <ele>829.0</ele>
        <time>2017-05-27T07:13:32.177Z</time>
      </trkpt>
      <trkpt lat="39.97410833" lon="-0.44327333">
        <ele>829.0</ele>
        <time>2017-05-27T07:13:33.173Z</time>
      </trkpt>
      <trkpt lat="39.97410833" lon="-0.44327333">
        <ele>829.0</ele>
        <time>2017-05-27T07:13:34.179Z</time>
      </trkpt>
      <trkpt lat="39.974075" lon="-0.44321167">
        <ele>830.0</ele>
        <time>2017-05-27T07:13:35.177Z</time>
      </trkpt>
      <trkpt lat="39.974075" lon="-0.44321167">
        <ele>830.0</ele>
        <time>2017-05-27T07:13:36.184Z</time>
      </trkpt>
      <trkpt lat="39.97406333" lon="-0.44313833">
        <ele>830.0</ele>
        <time>2017-05-27T07:13:37.167Z</time>
      </trkpt>
      <trkpt lat="39.97406333" lon="-0.44313833">
        <ele>830.0</ele>
        <time>2017-05-27T07:13:38.172Z</time>
      </trkpt>
      <trkpt lat="39.97407333" lon="-0.44306667">
        <ele>831.0</ele>
        <time>2017-05-27T07:13:39.195Z</time>
      </trkpt>
      <trkpt lat="39.97408333" lon="-0.44303167">
        <ele>831.0</ele>
        <time>2017-05-27T07:13:40.159Z</time>
      </trkpt>
      <trkpt lat="39.97408333" lon="-0.44303167">
        <ele>831.0</ele>
        <time>2017-05-27T07:13:41.165Z</time>
      </trkpt>
      <trkpt lat="39.97411333" lon="-0.442965">
        <ele>832.0</ele>
        <time>2017-05-27T07:13:42.164Z</time>
      </trkpt>
      <trkpt lat="39.97413" lon="-0.44293333">
        <ele>832.0</ele>
        <time>2017-05-27T07:13:43.170Z</time>
      </trkpt>
      <trkpt lat="39.97413" lon="-0.44293333">
        <ele>832.0</ele>
        <time>2017-05-27T07:13:44.176Z</time>
      </trkpt>
      <trkpt lat="39.97416333" lon="-0.44287667">
        <ele>833.0</ele>
        <time>2017-05-27T07:13:45.178Z</time>
      </trkpt>
      <trkpt lat="39.97418" lon="-0.44284833">
        <ele>833.0</ele>
        <time>2017-05-27T07:13:46.189Z</time>
      </trkpt>
      <trkpt lat="39.97418" lon="-0.44284833">
        <ele>833.0</ele>
        <time>2017-05-27T07:13:47.194Z</time>
      </trkpt>
      <trkpt lat="39.97421333" lon="-0.44279333">
        <ele>834.0</ele>
        <time>2017-05-27T07:13:48.188Z</time>
      </trkpt>
      <trkpt lat="39.97421333" lon="-0.44279333">
        <ele>834.0</ele>
        <time>2017-05-27T07:13:49.194Z</time>
      </trkpt>
      <trkpt lat="39.974235" lon="-0.44273333">
        <ele>835.0</ele>
        <time>2017-05-27T07:13:50.189Z</time>
      </trkpt>
      <trkpt lat="39.974235" lon="-0.44273333">
        <ele>835.0</ele>
        <time>2017-05-27T07:13:51.195Z</time>
      </trkpt>
      <trkpt lat="39.974255" lon="-0.44267">
        <ele>835.0</ele>
        <time>2017-05-27T07:13:52.192Z</time>
      </trkpt>
      <trkpt lat="39.974255" lon="-0.44267">
        <ele>835.0</ele>
        <time>2017-05-27T07:13:53.158Z</time>
      </trkpt>
      <trkpt lat="39.97426833" lon="-0.44260333">
        <ele>835.0</ele>
        <time>2017-05-27T07:13:54.187Z</time>
      </trkpt>
      <trkpt lat="39.97427333" lon="-0.44257333">
        <ele>835.0</ele>
        <time>2017-05-27T07:13:55.194Z</time>
      </trkpt>
      <trkpt lat="39.97427333" lon="-0.44257333">
        <ele>835.0</ele>
        <time>2017-05-27T07:13:56.159Z</time>
      </trkpt>
      <trkpt lat="39.97429" lon="-0.44250667">
        <ele>836.0</ele>
        <time>2017-05-27T07:13:57.158Z</time>
      </trkpt>
      <trkpt lat="39.97429" lon="-0.44250667">
        <ele>836.0</ele>
        <time>2017-05-27T07:13:58.163Z</time>
      </trkpt>
      <trkpt lat="39.97430667" lon="-0.44244333">
        <ele>836.0</ele>
        <time>2017-05-27T07:13:59.191Z</time>
      </trkpt>
      <trkpt lat="39.97431333" lon="-0.44241333">
        <ele>836.0</ele>
        <time>2017-05-27T07:14:00.194Z</time>
      </trkpt>
      <trkpt lat="39.97432167" lon="-0.44238333">
        <ele>836.0</ele>
        <time>2017-05-27T07:14:01.160Z</time>
      </trkpt>
      <trkpt lat="39.97432167" lon="-0.44238333">
        <ele>836.0</ele>
        <time>2017-05-27T07:14:02.166Z</time>
      </trkpt>
      <trkpt lat="39.97434" lon="-0.44232">
        <ele>837.0</ele>
        <time>2017-05-27T07:14:03.161Z</time>
      </trkpt>
      <trkpt lat="39.97434833" lon="-0.44228833">
        <ele>837.0</ele>
        <time>2017-05-27T07:14:04.174Z</time>
      </trkpt>
      <trkpt lat="39.97434833" lon="-0.44228833">
        <ele>837.0</ele>
        <time>2017-05-27T07:14:05.182Z</time>
      </trkpt>
      <trkpt lat="39.97436833" lon="-0.44222333">
        <ele>837.0</ele>
        <time>2017-05-27T07:14:06.178Z</time>
      </trkpt>
      <trkpt lat="39.97437833" lon="-0.44219167">
        <ele>838.0</ele>
        <time>2017-05-27T07:14:07.190Z</time>
      </trkpt>
      <trkpt lat="39.97437833" lon="-0.44219167">
        <ele>838.0</ele>
        <time>2017-05-27T07:14:08.156Z</time>
      </trkpt>
      <trkpt lat="39.97440167" lon="-0.44213333">
        <ele>838.0</ele>
        <time>2017-05-27T07:14:09.195Z</time>
      </trkpt>
      <trkpt lat="39.97440167" lon="-0.44213333">
        <ele>838.0</ele>
        <time>2017-05-27T07:14:10.161Z</time>
      </trkpt>
      <trkpt lat="39.97442833" lon="-0.44207667">
        <ele>838.0</ele>
        <time>2017-05-27T07:14:11.193Z</time>
      </trkpt>
      <trkpt lat="39.97442833" lon="-0.44207667">
        <ele>838.0</ele>
        <time>2017-05-27T07:14:12.159Z</time>
      </trkpt>
      <trkpt lat="39.974455" lon="-0.44202667">
        <ele>839.0</ele>
        <time>2017-05-27T07:14:13.193Z</time>
      </trkpt>
      <trkpt lat="39.974455" lon="-0.44202667">
        <ele>839.0</ele>
        <time>2017-05-27T07:14:14.160Z</time>
      </trkpt>
      <trkpt lat="39.97447333" lon="-0.44197167">
        <ele>839.0</ele>
        <time>2017-05-27T07:14:15.164Z</time>
      </trkpt>
      <trkpt lat="39.97447333" lon="-0.44197167">
        <ele>839.0</ele>
        <time>2017-05-27T07:14:16.170Z</time>
      </trkpt>
      <trkpt lat="39.97448333" lon="-0.44191">
        <ele>840.0</ele>
        <time>2017-05-27T07:14:17.161Z</time>
      </trkpt>
      <trkpt lat="39.97448333" lon="-0.44191">
        <ele>840.0</ele>
        <time>2017-05-27T07:14:18.169Z</time>
      </trkpt>
      <trkpt lat="39.97447833" lon="-0.44185">
        <ele>840.0</ele>
        <time>2017-05-27T07:14:19.193Z</time>
      </trkpt>
      <trkpt lat="39.97447833" lon="-0.44185">
        <ele>840.0</ele>
        <time>2017-05-27T07:14:20.159Z</time>
      </trkpt>
      <trkpt lat="39.974455" lon="-0.44179667">
        <ele>840.0</ele>
        <time>2017-05-27T07:14:21.189Z</time>
      </trkpt>
      <trkpt lat="39.97443833" lon="-0.44177">
        <ele>841.0</ele>
        <time>2017-05-27T07:14:22.182Z</time>
      </trkpt>
      <trkpt lat="39.97442" lon="-0.44174667">
        <ele>841.0</ele>
        <time>2017-05-27T07:14:23.182Z</time>
      </trkpt>
      <trkpt lat="39.97442" lon="-0.44174667">
        <ele>841.0</ele>
        <time>2017-05-27T07:14:24.188Z</time>
      </trkpt>
      <trkpt lat="39.974375" lon="-0.44170667">
        <ele>841.0</ele>
        <time>2017-05-27T07:14:25.182Z</time>
      </trkpt>
      <trkpt lat="39.974375" lon="-0.44170667">
        <ele>841.0</ele>
        <time>2017-05-27T07:14:26.190Z</time>
      </trkpt>
      <trkpt lat="39.97433" lon="-0.44167667">
        <ele>842.0</ele>
        <time>2017-05-27T07:14:27.165Z</time>
      </trkpt>
      <trkpt lat="39.97430333" lon="-0.44166167">
        <ele>842.0</ele>
        <time>2017-05-27T07:14:28.174Z</time>
      </trkpt>
      <trkpt lat="39.97430333" lon="-0.44166167">
        <ele>842.0</ele>
        <time>2017-05-27T07:14:29.180Z</time>
      </trkpt>
      <trkpt lat="39.97424833" lon="-0.441635">
        <ele>842.0</ele>
        <time>2017-05-27T07:14:30.174Z</time>
      </trkpt>
      <trkpt lat="39.97422167" lon="-0.44162333">
        <ele>842.0</ele>
        <time>2017-05-27T07:14:31.180Z</time>
      </trkpt>
      <trkpt lat="39.97422167" lon="-0.44162333">
        <ele>842.0</ele>
        <time>2017-05-27T07:14:32.187Z</time>
      </trkpt>
      <trkpt lat="39.97417333" lon="-0.44160167">
        <ele>843.0</ele>
        <time>2017-05-27T07:14:33.179Z</time>
      </trkpt>
      <trkpt lat="39.97417333" lon="-0.44160167">
        <ele>843.0</ele>
        <time>2017-05-27T07:14:34.185Z</time>
      </trkpt>
      <trkpt lat="39.97412833" lon="-0.44156833">
        <ele>844.0</ele>
        <time>2017-05-27T07:14:35.174Z</time>
      </trkpt>
      <trkpt lat="39.97412833" lon="-0.44156833">
        <ele>844.0</ele>
        <time>2017-05-27T07:14:36.180Z</time>
      </trkpt>
      <trkpt lat="39.97408" lon="-0.44151833">
        <ele>845.0</ele>
        <time>2017-05-27T07:14:37.176Z</time>
      </trkpt>
      <trkpt lat="39.97408" lon="-0.44151833">
        <ele>845.0</ele>
        <time>2017-05-27T07:14:38.185Z</time>
      </trkpt>
      <trkpt lat="39.97404667" lon="-0.441445">
        <ele>845.0</ele>
        <time>2017-05-27T07:14:39.193Z</time>
      </trkpt>
      <trkpt lat="39.97404667" lon="-0.441445">
        <ele>845.0</ele>
        <time>2017-05-27T07:14:40.159Z</time>
      </trkpt>
      <trkpt lat="39.97401833" lon="-0.44137">
        <ele>845.0</ele>
        <time>2017-05-27T07:14:41.159Z</time>
      </trkpt>
      <trkpt lat="39.97401833" lon="-0.44137">
        <ele>845.0</ele>
        <time>2017-05-27T07:14:42.165Z</time>
      </trkpt>
      <trkpt lat="39.97400167" lon="-0.44129833">
        <ele>846.0</ele>
        <time>2017-05-27T07:14:43.161Z</time>
      </trkpt>
      <trkpt lat="39.97400167" lon="-0.44129833">
        <ele>846.0</ele>
        <time>2017-05-27T07:14:44.167Z</time>
      </trkpt>
      <trkpt lat="39.97400167" lon="-0.44122333">
        <ele>846.0</ele>
        <time>2017-05-27T07:14:45.165Z</time>
      </trkpt>
      <trkpt lat="39.97400167" lon="-0.44122333">
        <ele>846.0</ele>
        <time>2017-05-27T07:14:46.171Z</time>
      </trkpt>
      <trkpt lat="39.97401167" lon="-0.44115167">
        <ele>846.0</ele>
        <time>2017-05-27T07:14:47.192Z</time>
      </trkpt>
      <trkpt lat="39.97401167" lon="-0.44115167">
        <ele>846.0</ele>
        <time>2017-05-27T07:14:48.158Z</time>
      </trkpt>
      <trkpt lat="39.974025" lon="-0.441085">
        <ele>847.0</ele>
        <time>2017-05-27T07:14:49.185Z</time>
      </trkpt>
      <trkpt lat="39.974025" lon="-0.441085">
        <ele>847.0</ele>
        <time>2017-05-27T07:14:50.165Z</time>
      </trkpt>
      <trkpt lat="39.97403667" lon="-0.44102">
        <ele>847.0</ele>
        <time>2017-05-27T07:14:51.165Z</time>
      </trkpt>
      <trkpt lat="39.97403667" lon="-0.44102">
        <ele>847.0</ele>
        <time>2017-05-27T07:14:52.171Z</time>
      </trkpt>
      <trkpt lat="39.97405333" lon="-0.44095667">
        <ele>847.0</ele>
        <time>2017-05-27T07:14:53.190Z</time>
      </trkpt>
      <trkpt lat="39.97406" lon="-0.440925">
        <ele>848.0</ele>
        <time>2017-05-27T07:14:54.177Z</time>
      </trkpt>
      <trkpt lat="39.97407" lon="-0.44089167">
        <ele>848.0</ele>
        <time>2017-05-27T07:14:55.184Z</time>
      </trkpt>
      <trkpt lat="39.97407" lon="-0.44089167">
        <ele>848.0</ele>
        <time>2017-05-27T07:14:56.166Z</time>
      </trkpt>
      <trkpt lat="39.97409" lon="-0.44083">
        <ele>848.0</ele>
        <time>2017-05-27T07:14:57.184Z</time>
      </trkpt>
      <trkpt lat="39.97409" lon="-0.44083">
        <ele>848.0</ele>
        <time>2017-05-27T07:14:58.190Z</time>
      </trkpt>
      <trkpt lat="39.97411167" lon="-0.44077">
        <ele>849.0</ele>
        <time>2017-05-27T07:14:59.179Z</time>
      </trkpt>
      <trkpt lat="39.97411167" lon="-0.44077">
        <ele>849.0</ele>
        <time>2017-05-27T07:15:00.185Z</time>
      </trkpt>
      <trkpt lat="39.97413667" lon="-0.44071333">
        <ele>849.0</ele>
        <time>2017-05-27T07:15:01.187Z</time>
      </trkpt>
      <trkpt lat="39.97413667" lon="-0.44071333">
        <ele>849.0</ele>
        <time>2017-05-27T07:15:02.193Z</time>
      </trkpt>
      <trkpt lat="39.974165" lon="-0.44065833">
        <ele>849.0</ele>
        <time>2017-05-27T07:15:03.184Z</time>
      </trkpt>
      <trkpt lat="39.97418" lon="-0.44063167">
        <ele>850.0</ele>
        <time>2017-05-27T07:15:04.170Z</time>
      </trkpt>
      <trkpt lat="39.97418" lon="-0.44063167">
        <ele>850.0</ele>
        <time>2017-05-27T07:15:05.176Z</time>
      </trkpt>
      <trkpt lat="39.97420667" lon="-0.44057833">
        <ele>850.0</ele>
        <time>2017-05-27T07:15:06.174Z</time>
      </trkpt>
      <trkpt lat="39.97422" lon="-0.44055333">
        <ele>850.0</ele>
        <time>2017-05-27T07:15:07.192Z</time>
      </trkpt>
      <trkpt lat="39.97422" lon="-0.44055333">
        <ele>850.0</ele>
        <time>2017-05-27T07:15:08.158Z</time>
      </trkpt>
      <trkpt lat="39.97424" lon="-0.440495">
        <ele>850.0</ele>
        <time>2017-05-27T07:15:09.184Z</time>
      </trkpt>
      <trkpt lat="39.974245" lon="-0.440465">
        <ele>850.0</ele>
        <time>2017-05-27T07:15:10.174Z</time>
      </trkpt>
      <trkpt lat="39.974245" lon="-0.440465">
        <ele>850.0</ele>
        <time>2017-05-27T07:15:11.180Z</time>
      </trkpt>
      <trkpt lat="39.97424333" lon="-0.44040167">
        <ele>851.0</ele>
        <time>2017-05-27T07:15:12.181Z</time>
      </trkpt>
      <trkpt lat="39.97424333" lon="-0.44040167">
        <ele>851.0</ele>
        <time>2017-05-27T07:15:13.157Z</time>
      </trkpt>
      <trkpt lat="39.97422833" lon="-0.44034333">
        <ele>851.0</ele>
        <time>2017-05-27T07:15:14.190Z</time>
      </trkpt>
      <trkpt lat="39.97422833" lon="-0.44034333">
        <ele>851.0</ele>
        <time>2017-05-27T07:15:15.156Z</time>
      </trkpt>
      <trkpt lat="39.97420667" lon="-0.440285">
        <ele>851.0</ele>
        <time>2017-05-27T07:15:16.183Z</time>
      </trkpt>
      <trkpt lat="39.97420667" lon="-0.440285">
        <ele>851.0</ele>
        <time>2017-05-27T07:15:17.190Z</time>
      </trkpt>
      <trkpt lat="39.97418667" lon="-0.44022667">
        <ele>851.0</ele>
        <time>2017-05-27T07:15:18.194Z</time>
      </trkpt>
      <trkpt lat="39.974175" lon="-0.4402">
        <ele>851.0</ele>
        <time>2017-05-27T07:15:19.160Z</time>
      </trkpt>
      <trkpt lat="39.974175" lon="-0.4402">
        <ele>851.0</ele>
        <time>2017-05-27T07:15:20.166Z</time>
      </trkpt>
      <trkpt lat="39.97415167" lon="-0.44013833">
        <ele>852.0</ele>
        <time>2017-05-27T07:15:21.162Z</time>
      </trkpt>
      <trkpt lat="39.97414" lon="-0.44010833">
        <ele>852.0</ele>
        <time>2017-05-27T07:15:22.161Z</time>
      </trkpt>
      <trkpt lat="39.97414" lon="-0.44010833">
        <ele>852.0</ele>
        <time>2017-05-27T07:15:23.167Z</time>
      </trkpt>
      <trkpt lat="39.97412167" lon="-0.44004">
        <ele>852.0</ele>
        <time>2017-05-27T07:15:24.183Z</time>
      </trkpt>
      <trkpt lat="39.97411" lon="-0.44000667">
        <ele>852.0</ele>
        <time>2017-05-27T07:15:25.191Z</time>
      </trkpt>
      <trkpt lat="39.97411" lon="-0.44000667">
        <ele>852.0</ele>
        <time>2017-05-27T07:15:26.157Z</time>
      </trkpt>
      <trkpt lat="39.97407833" lon="-0.43994833">
        <ele>853.0</ele>
        <time>2017-05-27T07:15:27.156Z</time>
      </trkpt>
      <trkpt lat="39.97405833" lon="-0.439925">
        <ele>853.0</ele>
        <time>2017-05-27T07:15:28.195Z</time>
      </trkpt>
      <trkpt lat="39.97405833" lon="-0.439925">
        <ele>853.0</ele>
        <time>2017-05-27T07:15:29.160Z</time>
      </trkpt>
      <trkpt lat="39.974015" lon="-0.43988833">
        <ele>853.0</ele>
        <time>2017-05-27T07:15:30.158Z</time>
      </trkpt>
      <trkpt lat="39.97399" lon="-0.43988">
        <ele>853.0</ele>
        <time>2017-05-27T07:15:31.163Z</time>
      </trkpt>
      <trkpt lat="39.97396333" lon="-0.439875">
        <ele>853.0</ele>
        <time>2017-05-27T07:15:32.174Z</time>
      </trkpt>
      <trkpt lat="39.97396333" lon="-0.439875">
        <ele>853.0</ele>
        <time>2017-05-27T07:15:33.180Z</time>
      </trkpt>
      <trkpt lat="39.97391167" lon="-0.43987333">
        <ele>854.0</ele>
        <time>2017-05-27T07:15:34.182Z</time>
      </trkpt>
      <trkpt lat="39.97391167" lon="-0.43987333">
        <ele>854.0</ele>
        <time>2017-05-27T07:15:35.188Z</time>
      </trkpt>
      <trkpt lat="39.97386" lon="-0.43987167">
        <ele>854.0</ele>
        <time>2017-05-27T07:15:36.173Z</time>
      </trkpt>
      <trkpt lat="39.97386" lon="-0.43987167">
        <ele>854.0</ele>
        <time>2017-05-27T07:15:37.179Z</time>
      </trkpt>
      <trkpt lat="39.97380667" lon="-0.439875">
        <ele>855.0</ele>
        <time>2017-05-27T07:15:38.192Z</time>
      </trkpt>
      <trkpt lat="39.97378167" lon="-0.43987667">
        <ele>855.0</ele>
        <time>2017-05-27T07:15:39.186Z</time>
      </trkpt>
      <trkpt lat="39.97378167" lon="-0.43987667">
        <ele>855.0</ele>
        <time>2017-05-27T07:15:40.192Z</time>
      </trkpt>
      <trkpt lat="39.97372667" lon="-0.43986333">
        <ele>855.0</ele>
        <time>2017-05-27T07:15:41.184Z</time>
      </trkpt>
      <trkpt lat="39.97372667" lon="-0.43986333">
        <ele>855.0</ele>
        <time>2017-05-27T07:15:42.190Z</time>
      </trkpt>
      <trkpt lat="39.97367167" lon="-0.43985">
        <ele>855.0</ele>
        <time>2017-05-27T07:15:43.184Z</time>
      </trkpt>
      <trkpt lat="39.97367167" lon="-0.43985">
        <ele>855.0</ele>
        <time>2017-05-27T07:15:44.189Z</time>
      </trkpt>
      <trkpt lat="39.97361333" lon="-0.43983833">
        <ele>855.0</ele>
        <time>2017-05-27T07:15:45.180Z</time>
      </trkpt>
      <trkpt lat="39.97361333" lon="-0.43983833">
        <ele>855.0</ele>
        <time>2017-05-27T07:15:46.189Z</time>
      </trkpt>
      <trkpt lat="39.97355667" lon="-0.43983667">
        <ele>855.0</ele>
        <time>2017-05-27T07:15:47.177Z</time>
      </trkpt>
      <trkpt lat="39.97355667" lon="-0.43983667">
        <ele>855.0</ele>
        <time>2017-05-27T07:15:48.183Z</time>
      </trkpt>
      <trkpt lat="39.97350167" lon="-0.43982833">
        <ele>856.0</ele>
        <time>2017-05-27T07:15:49.192Z</time>
      </trkpt>
      <trkpt lat="39.97350167" lon="-0.43982833">
        <ele>856.0</ele>
        <time>2017-05-27T07:15:50.159Z</time>
      </trkpt>
      <trkpt lat="39.97344667" lon="-0.439815">
        <ele>856.0</ele>
        <time>2017-05-27T07:15:51.179Z</time>
      </trkpt>
      <trkpt lat="39.97344667" lon="-0.439815">
        <ele>856.0</ele>
        <time>2017-05-27T07:15:52.186Z</time>
      </trkpt>
      <trkpt lat="39.97339" lon="-0.4398">
        <ele>856.0</ele>
        <time>2017-05-27T07:15:53.176Z</time>
      </trkpt>
      <trkpt lat="39.97339" lon="-0.4398">
        <ele>856.0</ele>
        <time>2017-05-27T07:15:54.184Z</time>
      </trkpt>
      <trkpt lat="39.973335" lon="-0.43977667">
        <ele>856.0</ele>
        <time>2017-05-27T07:15:55.181Z</time>
      </trkpt>
      <trkpt lat="39.973335" lon="-0.43977667">
        <ele>856.0</ele>
        <time>2017-05-27T07:15:56.190Z</time>
      </trkpt>
      <trkpt lat="39.97328" lon="-0.43974833">
        <ele>857.0</ele>
        <time>2017-05-27T07:15:57.181Z</time>
      </trkpt>
      <trkpt lat="39.97325667" lon="-0.43972667">
        <ele>857.0</ele>
        <time>2017-05-27T07:15:58.182Z</time>
      </trkpt>
      <trkpt lat="39.97325667" lon="-0.43972667">
        <ele>857.0</ele>
        <time>2017-05-27T07:15:59.189Z</time>
      </trkpt>
      <trkpt lat="39.97321167" lon="-0.43967667">
        <ele>857.0</ele>
        <time>2017-05-27T07:16:00.194Z</time>
      </trkpt>
      <trkpt lat="39.97319167" lon="-0.43965">
        <ele>857.0</ele>
        <time>2017-05-27T07:16:01.160Z</time>
      </trkpt>
      <trkpt lat="39.97319167" lon="-0.43965">
        <ele>857.0</ele>
        <time>2017-05-27T07:16:02.166Z</time>
      </trkpt>
      <trkpt lat="39.97315667" lon="-0.43959167">
        <ele>857.0</ele>
        <time>2017-05-27T07:16:03.174Z</time>
      </trkpt>
      <trkpt lat="39.97315667" lon="-0.43959167">
        <ele>857.0</ele>
        <time>2017-05-27T07:16:04.188Z</time>
      </trkpt>
      <trkpt lat="39.97312" lon="-0.43953333">
        <ele>858.0</ele>
        <time>2017-05-27T07:16:05.164Z</time>
      </trkpt>
      <trkpt lat="39.9731" lon="-0.43950333">
        <ele>858.0</ele>
        <time>2017-05-27T07:16:06.162Z</time>
      </trkpt>
      <trkpt lat="39.9731" lon="-0.43950333">
        <ele>858.0</ele>
        <time>2017-05-27T07:16:07.168Z</time>
      </trkpt>
      <trkpt lat="39.973055" lon="-0.43945833">
        <ele>858.0</ele>
        <time>2017-05-27T07:16:08.163Z</time>
      </trkpt>
      <trkpt lat="39.973055" lon="-0.43945833">
        <ele>858.0</ele>
        <time>2017-05-27T07:16:09.169Z</time>
      </trkpt>
      <trkpt lat="39.97300667" lon="-0.43941833">
        <ele>859.0</ele>
        <time>2017-05-27T07:16:10.162Z</time>
      </trkpt>
      <trkpt lat="39.97300667" lon="-0.43941833">
        <ele>859.0</ele>
        <time>2017-05-27T07:16:11.168Z</time>
      </trkpt>
      <trkpt lat="39.97295333" lon="-0.43938667">
        <ele>859.0</ele>
        <time>2017-05-27T07:16:12.159Z</time>
      </trkpt>
      <trkpt lat="39.972925" lon="-0.439375">
        <ele>859.0</ele>
        <time>2017-05-27T07:16:13.177Z</time>
      </trkpt>
      <trkpt lat="39.972925" lon="-0.439375">
        <ele>859.0</ele>
        <time>2017-05-27T07:16:14.189Z</time>
      </trkpt>
      <trkpt lat="39.97286667" lon="-0.43936">
        <ele>860.0</ele>
        <time>2017-05-27T07:16:15.161Z</time>
      </trkpt>
      <trkpt lat="39.97286667" lon="-0.43936">
        <ele>860.0</ele>
        <time>2017-05-27T07:16:16.167Z</time>
      </trkpt>
      <trkpt lat="39.97280667" lon="-0.439345">
        <ele>861.0</ele>
        <time>2017-05-27T07:16:17.159Z</time>
      </trkpt>
      <trkpt lat="39.97277833" lon="-0.439335">
        <ele>861.0</ele>
        <time>2017-05-27T07:16:18.156Z</time>
      </trkpt>
      <trkpt lat="39.97275167" lon="-0.43931667">
        <ele>862.0</ele>
        <time>2017-05-27T07:16:19.162Z</time>
      </trkpt>
      <trkpt lat="39.97275167" lon="-0.43931667">
        <ele>862.0</ele>
        <time>2017-05-27T07:16:20.168Z</time>
      </trkpt>
      <trkpt lat="39.972705" lon="-0.43926333">
        <ele>862.0</ele>
        <time>2017-05-27T07:16:21.162Z</time>
      </trkpt>
      <trkpt lat="39.97268833" lon="-0.43922667">
        <ele>862.0</ele>
        <time>2017-05-27T07:16:22.190Z</time>
      </trkpt>
      <trkpt lat="39.97267667" lon="-0.43919">
        <ele>862.0</ele>
        <time>2017-05-27T07:16:23.184Z</time>
      </trkpt>
      <trkpt lat="39.97267667" lon="-0.43919">
        <ele>862.0</ele>
        <time>2017-05-27T07:16:24.190Z</time>
      </trkpt>
      <trkpt lat="39.972665" lon="-0.43911">
        <ele>863.0</ele>
        <time>2017-05-27T07:16:25.184Z</time>
      </trkpt>
      <trkpt lat="39.972665" lon="-0.43907">
        <ele>863.0</ele>
        <time>2017-05-27T07:16:26.193Z</time>
      </trkpt>
      <trkpt lat="39.972665" lon="-0.43907">
        <ele>863.0</ele>
        <time>2017-05-27T07:16:27.158Z</time>
      </trkpt>
      <trkpt lat="39.97266833" lon="-0.43899">
        <ele>863.0</ele>
        <time>2017-05-27T07:16:28.164Z</time>
      </trkpt>
      <trkpt lat="39.97266833" lon="-0.43899">
        <ele>863.0</ele>
        <time>2017-05-27T07:16:29.170Z</time>
      </trkpt>
      <trkpt lat="39.97267833" lon="-0.43891833">
        <ele>864.0</ele>
        <time>2017-05-27T07:16:30.164Z</time>
      </trkpt>
      <trkpt lat="39.97268833" lon="-0.438885">
        <ele>864.0</ele>
        <time>2017-05-27T07:16:31.160Z</time>
      </trkpt>
      <trkpt lat="39.97268833" lon="-0.438885">
        <ele>864.0</ele>
        <time>2017-05-27T07:16:32.194Z</time>
      </trkpt>
      <trkpt lat="39.97271667" lon="-0.43881833">
        <ele>864.0</ele>
        <time>2017-05-27T07:16:33.180Z</time>
      </trkpt>
      <trkpt lat="39.97271667" lon="-0.43881833">
        <ele>864.0</ele>
        <time>2017-05-27T07:16:34.186Z</time>
      </trkpt>
      <trkpt lat="39.97274833" lon="-0.43876">
        <ele>864.0</ele>
        <time>2017-05-27T07:16:35.190Z</time>
      </trkpt>
      <trkpt lat="39.97274833" lon="-0.43876">
        <ele>864.0</ele>
        <time>2017-05-27T07:16:36.156Z</time>
      </trkpt>
      <trkpt lat="39.97278333" lon="-0.43871">
        <ele>865.0</ele>
        <time>2017-05-27T07:16:37.184Z</time>
      </trkpt>
      <trkpt lat="39.97278333" lon="-0.43871">
        <ele>865.0</ele>
        <time>2017-05-27T07:16:38.190Z</time>
      </trkpt>
      <trkpt lat="39.97282167" lon="-0.43866167">
        <ele>865.0</ele>
        <time>2017-05-27T07:16:39.183Z</time>
      </trkpt>
      <trkpt lat="39.97282167" lon="-0.43866167">
        <ele>865.0</ele>
        <time>2017-05-27T07:16:40.189Z</time>
      </trkpt>
      <trkpt lat="39.97286" lon="-0.43861833">
        <ele>865.0</ele>
        <time>2017-05-27T07:16:41.158Z</time>
      </trkpt>
      <trkpt lat="39.97287833" lon="-0.43859667">
        <ele>866.0</ele>
        <time>2017-05-27T07:16:42.174Z</time>
      </trkpt>
      <trkpt lat="39.97287833" lon="-0.43859667">
        <ele>866.0</ele>
        <time>2017-05-27T07:16:43.181Z</time>
      </trkpt>
      <trkpt lat="39.97291167" lon="-0.43854667">
        <ele>866.0</ele>
        <time>2017-05-27T07:16:44.183Z</time>
      </trkpt>
      <trkpt lat="39.97291167" lon="-0.43854667">
        <ele>866.0</ele>
        <time>2017-05-27T07:16:45.189Z</time>
      </trkpt>
      <trkpt lat="39.97291833" lon="-0.438485">
        <ele>866.0</ele>
        <time>2017-05-27T07:16:46.188Z</time>
      </trkpt>
      <trkpt lat="39.97291333" lon="-0.438455">
        <ele>867.0</ele>
        <time>2017-05-27T07:16:47.162Z</time>
      </trkpt>
      <trkpt lat="39.97291333" lon="-0.438455">
        <ele>867.0</ele>
        <time>2017-05-27T07:16:48.168Z</time>
      </trkpt>
      <trkpt lat="39.97289" lon="-0.4384">
        <ele>867.0</ele>
        <time>2017-05-27T07:16:49.160Z</time>
      </trkpt>
      <trkpt lat="39.97289" lon="-0.4384">
        <ele>867.0</ele>
        <time>2017-05-27T07:16:50.166Z</time>
      </trkpt>
      <trkpt lat="39.97285833" lon="-0.43834833">
        <ele>867.0</ele>
        <time>2017-05-27T07:16:51.162Z</time>
      </trkpt>
      <trkpt lat="39.97285833" lon="-0.43834833">
        <ele>867.0</ele>
        <time>2017-05-27T07:16:52.168Z</time>
      </trkpt>
      <trkpt lat="39.97281667" lon="-0.438305">
        <ele>868.0</ele>
        <time>2017-05-27T07:16:53.158Z</time>
      </trkpt>
      <trkpt lat="39.97279667" lon="-0.43828">
        <ele>868.0</ele>
        <time>2017-05-27T07:16:54.194Z</time>
      </trkpt>
      <trkpt lat="39.97279667" lon="-0.43828">
        <ele>868.0</ele>
        <time>2017-05-27T07:16:55.160Z</time>
      </trkpt>
      <trkpt lat="39.97275833" lon="-0.43823333">
        <ele>868.0</ele>
        <time>2017-05-27T07:16:56.192Z</time>
      </trkpt>
      <trkpt lat="39.97273833" lon="-0.43820833">
        <ele>869.0</ele>
        <time>2017-05-27T07:16:57.194Z</time>
      </trkpt>
      <trkpt lat="39.97273833" lon="-0.43820833">
        <ele>869.0</ele>
        <time>2017-05-27T07:16:58.159Z</time>
      </trkpt>
      <trkpt lat="39.972705" lon="-0.43815167">
        <ele>869.0</ele>
        <time>2017-05-27T07:16:59.182Z</time>
      </trkpt>
      <trkpt lat="39.972705" lon="-0.43815167">
        <ele>869.0</ele>
        <time>2017-05-27T07:17:00.188Z</time>
      </trkpt>
      <trkpt lat="39.97267833" lon="-0.438095">
        <ele>870.0</ele>
        <time>2017-05-27T07:17:01.176Z</time>
      </trkpt>
      <trkpt lat="39.97267833" lon="-0.438095">
        <ele>870.0</ele>
        <time>2017-05-27T07:17:02.182Z</time>
      </trkpt>
      <trkpt lat="39.97265167" lon="-0.43803667">
        <ele>871.0</ele>
        <time>2017-05-27T07:17:03.179Z</time>
      </trkpt>
      <trkpt lat="39.97264" lon="-0.43800833">
        <ele>871.0</ele>
        <time>2017-05-27T07:17:04.170Z</time>
      </trkpt>
      <trkpt lat="39.97262667" lon="-0.43798">
        <ele>872.0</ele>
        <time>2017-05-27T07:17:05.189Z</time>
      </trkpt>
      <trkpt lat="39.97262667" lon="-0.43798">
        <ele>872.0</ele>
        <time>2017-05-27T07:17:06.195Z</time>
      </trkpt>
      <trkpt lat="39.972605" lon="-0.43792333">
        <ele>873.0</ele>
        <time>2017-05-27T07:17:07.194Z</time>
      </trkpt>
      <trkpt lat="39.972605" lon="-0.43792333">
        <ele>873.0</ele>
        <time>2017-05-27T07:17:08.161Z</time>
      </trkpt>
      <trkpt lat="39.972585" lon="-0.43787">
        <ele>873.0</ele>
        <time>2017-05-27T07:17:09.188Z</time>
      </trkpt>
      <trkpt lat="39.972575" lon="-0.43784667">
        <ele>874.0</ele>
        <time>2017-05-27T07:17:10.156Z</time>
      </trkpt>
      <trkpt lat="39.972575" lon="-0.43784667">
        <ele>874.0</ele>
        <time>2017-05-27T07:17:11.163Z</time>
      </trkpt>
      <trkpt lat="39.97255333" lon="-0.43779833">
        <ele>875.0</ele>
        <time>2017-05-27T07:17:12.193Z</time>
      </trkpt>
      <trkpt lat="39.972545" lon="-0.43777333">
        <ele>875.0</ele>
        <time>2017-05-27T07:17:13.171Z</time>
      </trkpt>
      <trkpt lat="39.97253333" lon="-0.43775167">
        <ele>876.0</ele>
        <time>2017-05-27T07:17:14.175Z</time>
      </trkpt>
      <trkpt lat="39.97253333" lon="-0.43775167">
        <ele>876.0</ele>
        <time>2017-05-27T07:17:15.181Z</time>
      </trkpt>
      <trkpt lat="39.97251833" lon="-0.4377">
        <ele>877.0</ele>
        <time>2017-05-27T07:17:16.169Z</time>
      </trkpt>
      <trkpt lat="39.97251167" lon="-0.43767833">
        <ele>877.0</ele>
        <time>2017-05-27T07:17:17.163Z</time>
      </trkpt>
      <trkpt lat="39.97251167" lon="-0.43767833">
        <ele>877.0</ele>
        <time>2017-05-27T07:17:18.169Z</time>
      </trkpt>
      <trkpt lat="39.9725" lon="-0.437625">
        <ele>877.0</ele>
        <time>2017-05-27T07:17:19.179Z</time>
      </trkpt>
      <trkpt lat="39.9725" lon="-0.437625">
        <ele>877.0</ele>
        <time>2017-05-27T07:17:20.188Z</time>
      </trkpt>
      <trkpt lat="39.97249" lon="-0.43757333">
        <ele>878.0</ele>
        <time>2017-05-27T07:17:21.169Z</time>
      </trkpt>
      <trkpt lat="39.97249" lon="-0.43757333">
        <ele>878.0</ele>
        <time>2017-05-27T07:17:22.175Z</time>
      </trkpt>
      <trkpt lat="39.97248167" lon="-0.43752167">
        <ele>878.0</ele>
        <time>2017-05-27T07:17:23.172Z</time>
      </trkpt>
      <trkpt lat="39.97248167" lon="-0.43752167">
        <ele>878.0</ele>
        <time>2017-05-27T07:17:24.179Z</time>
      </trkpt>
      <trkpt lat="39.97248167" lon="-0.43746667">
        <ele>878.0</ele>
        <time>2017-05-27T07:17:25.162Z</time>
      </trkpt>
      <trkpt lat="39.97248167" lon="-0.43746667">
        <ele>878.0</ele>
        <time>2017-05-27T07:17:26.168Z</time>
      </trkpt>
      <trkpt lat="39.972485" lon="-0.43740833">
        <ele>879.0</ele>
        <time>2017-05-27T07:17:27.187Z</time>
      </trkpt>
      <trkpt lat="39.972485" lon="-0.43740833">
        <ele>879.0</ele>
        <time>2017-05-27T07:17:28.193Z</time>
      </trkpt>
      <trkpt lat="39.97249667" lon="-0.437355">
        <ele>879.0</ele>
        <time>2017-05-27T07:17:29.175Z</time>
      </trkpt>
      <trkpt lat="39.972505" lon="-0.43732833">
        <ele>880.0</ele>
        <time>2017-05-27T07:17:30.179Z</time>
      </trkpt>
      <trkpt lat="39.972515" lon="-0.43730333">
        <ele>880.0</ele>
        <time>2017-05-27T07:17:31.189Z</time>
      </trkpt>
      <trkpt lat="39.972515" lon="-0.43730333">
        <ele>880.0</ele>
        <time>2017-05-27T07:17:32.195Z</time>
      </trkpt>
      <trkpt lat="39.97254" lon="-0.43725167">
        <ele>881.0</ele>
        <time>2017-05-27T07:17:33.185Z</time>
      </trkpt>
      <trkpt lat="39.97254" lon="-0.43725167">
        <ele>881.0</ele>
        <time>2017-05-27T07:17:34.191Z</time>
      </trkpt>
      <trkpt lat="39.97257167" lon="-0.43720333">
        <ele>881.0</ele>
        <time>2017-05-27T07:17:35.189Z</time>
      </trkpt>
      <trkpt lat="39.97257167" lon="-0.43720333">
        <ele>881.0</ele>
        <time>2017-05-27T07:17:36.195Z</time>
      </trkpt>
      <trkpt lat="39.97260667" lon="-0.43716">
        <ele>881.0</ele>
        <time>2017-05-27T07:17:37.180Z</time>
      </trkpt>
      <trkpt lat="39.97260667" lon="-0.43716">
        <ele>881.0</ele>
        <time>2017-05-27T07:17:38.159Z</time>
      </trkpt>
      <trkpt lat="39.97264" lon="-0.43711833">
        <ele>882.0</ele>
        <time>2017-05-27T07:17:39.194Z</time>
      </trkpt>
      <trkpt lat="39.97265833" lon="-0.43710167">
        <ele>882.0</ele>
        <time>2017-05-27T07:17:40.183Z</time>
      </trkpt>
      <trkpt lat="39.97267833" lon="-0.437085">
        <ele>882.0</ele>
        <time>2017-05-27T07:17:41.194Z</time>
      </trkpt>
      <trkpt lat="39.97267833" lon="-0.437085">
        <ele>882.0</ele>
        <time>2017-05-27T07:17:42.160Z</time>
      </trkpt>
      <trkpt lat="39.97271833" lon="-0.43704833">
        <ele>882.0</ele>
        <time>2017-05-27T07:17:43.168Z</time>
      </trkpt>
      <trkpt lat="39.97271833" lon="-0.43704833">
        <ele>882.0</ele>
        <time>2017-05-27T07:17:44.174Z</time>
      </trkpt>
      <trkpt lat="39.97275333" lon="-0.43700667">
        <ele>883.0</ele>
        <time>2017-05-27T07:17:45.161Z</time>
      </trkpt>
      <trkpt lat="39.97276833" lon="-0.43698">
        <ele>883.0</ele>
        <time>2017-05-27T07:17:46.194Z</time>
      </trkpt>
      <trkpt lat="39.97276833" lon="-0.43698">
        <ele>883.0</ele>
        <time>2017-05-27T07:17:47.160Z</time>
      </trkpt>
      <trkpt lat="39.97279333" lon="-0.43692667">
        <ele>883.0</ele>
        <time>2017-05-27T07:17:48.187Z</time>
      </trkpt>
      <trkpt lat="39.97280167" lon="-0.436895">
        <ele>883.0</ele>
        <time>2017-05-27T07:17:49.193Z</time>
      </trkpt>
      <trkpt lat="39.97280167" lon="-0.436895">
        <ele>883.0</ele>
        <time>2017-05-27T07:17:50.159Z</time>
      </trkpt>
      <trkpt lat="39.97282167" lon="-0.43683">
        <ele>884.0</ele>
        <time>2017-05-27T07:17:51.167Z</time>
      </trkpt>
      <trkpt lat="39.97283167" lon="-0.43679667">
        <ele>884.0</ele>
        <time>2017-05-27T07:17:52.178Z</time>
      </trkpt>
      <trkpt lat="39.97283167" lon="-0.43679667">
        <ele>884.0</ele>
        <time>2017-05-27T07:17:53.185Z</time>
      </trkpt>
      <trkpt lat="39.97285" lon="-0.43673333">
        <ele>884.0</ele>
        <time>2017-05-27T07:17:54.188Z</time>
      </trkpt>
      <trkpt lat="39.97285667" lon="-0.43670333">
        <ele>884.0</ele>
        <time>2017-05-27T07:17:55.195Z</time>
      </trkpt>
      <trkpt lat="39.97285667" lon="-0.43670333">
        <ele>884.0</ele>
        <time>2017-05-27T07:17:56.160Z</time>
      </trkpt>
      <trkpt lat="39.972875" lon="-0.43664333">
        <ele>884.0</ele>
        <time>2017-05-27T07:17:57.185Z</time>
      </trkpt>
      <trkpt lat="39.972875" lon="-0.43664333">
        <ele>884.0</ele>
        <time>2017-05-27T07:17:58.191Z</time>
      </trkpt>
      <trkpt lat="39.9729" lon="-0.43657833">
        <ele>885.0</ele>
        <time>2017-05-27T07:17:59.189Z</time>
      </trkpt>
      <trkpt lat="39.9729" lon="-0.43657833">
        <ele>885.0</ele>
        <time>2017-05-27T07:18:00.195Z</time>
      </trkpt>
      <trkpt lat="39.972925" lon="-0.43652">
        <ele>885.0</ele>
        <time>2017-05-27T07:18:01.181Z</time>
      </trkpt>
      <trkpt lat="39.972925" lon="-0.43652">
        <ele>885.0</ele>
        <time>2017-05-27T07:18:02.187Z</time>
      </trkpt>
      <trkpt lat="39.97295167" lon="-0.43646">
        <ele>886.0</ele>
        <time>2017-05-27T07:18:03.168Z</time>
      </trkpt>
      <trkpt lat="39.97295167" lon="-0.43646">
        <ele>886.0</ele>
        <time>2017-05-27T07:18:04.174Z</time>
      </trkpt>
      <trkpt lat="39.97297" lon="-0.43639833">
        <ele>886.0</ele>
        <time>2017-05-27T07:18:05.164Z</time>
      </trkpt>
      <trkpt lat="39.97297" lon="-0.43639833">
        <ele>886.0</ele>
        <time>2017-05-27T07:18:06.170Z</time>
      </trkpt>
      <trkpt lat="39.97297833" lon="-0.43633333">
        <ele>887.0</ele>
        <time>2017-05-27T07:18:07.173Z</time>
      </trkpt>
      <trkpt lat="39.97297833" lon="-0.43633333">
        <ele>887.0</ele>
        <time>2017-05-27T07:18:08.179Z</time>
      </trkpt>
      <trkpt lat="39.972975" lon="-0.43626667">
        <ele>887.0</ele>
        <time>2017-05-27T07:18:09.172Z</time>
      </trkpt>
      <trkpt lat="39.972965" lon="-0.436235">
        <ele>887.0</ele>
        <time>2017-05-27T07:18:10.159Z</time>
      </trkpt>
      <trkpt lat="39.972965" lon="-0.436235">
        <ele>887.0</ele>
        <time>2017-05-27T07:18:11.165Z</time>
      </trkpt>
      <trkpt lat="39.972935" lon="-0.436175">
        <ele>887.0</ele>
        <time>2017-05-27T07:18:12.194Z</time>
      </trkpt>
      <trkpt lat="39.972935" lon="-0.436175">
        <ele>887.0</ele>
        <time>2017-05-27T07:18:13.173Z</time>
      </trkpt>
      <trkpt lat="39.97289" lon="-0.436135">
        <ele>888.0</ele>
        <time>2017-05-27T07:18:14.176Z</time>
      </trkpt>
      <trkpt lat="39.97289" lon="-0.436135">
        <ele>888.0</ele>
        <time>2017-05-27T07:18:15.190Z</time>
      </trkpt>
      <trkpt lat="39.972845" lon="-0.43609833">
        <ele>888.0</ele>
        <time>2017-05-27T07:18:16.156Z</time>
      </trkpt>
      <trkpt lat="39.972845" lon="-0.43609833">
        <ele>888.0</ele>
        <time>2017-05-27T07:18:17.162Z</time>
      </trkpt>
      <trkpt lat="39.972795" lon="-0.43606333">
        <ele>888.0</ele>
        <time>2017-05-27T07:18:18.158Z</time>
      </trkpt>
      <trkpt lat="39.97276833" lon="-0.436045">
        <ele>888.0</ele>
        <time>2017-05-27T07:18:19.164Z</time>
      </trkpt>
      <trkpt lat="39.97276833" lon="-0.436045">
        <ele>888.0</ele>
        <time>2017-05-27T07:18:20.170Z</time>
      </trkpt>
      <trkpt lat="39.97272167" lon="-0.43600667">
        <ele>888.0</ele>
        <time>2017-05-27T07:18:21.164Z</time>
      </trkpt>
      <trkpt lat="39.97269667" lon="-0.43598833">
        <ele>889.0</ele>
        <time>2017-05-27T07:18:22.161Z</time>
      </trkpt>
      <trkpt lat="39.97269667" lon="-0.43598833">
        <ele>889.0</ele>
        <time>2017-05-27T07:18:23.169Z</time>
      </trkpt>
      <trkpt lat="39.972645" lon="-0.43595">
        <ele>889.0</ele>
        <time>2017-05-27T07:18:24.169Z</time>
      </trkpt>
      <trkpt lat="39.97262" lon="-0.435935">
        <ele>890.0</ele>
        <time>2017-05-27T07:18:25.175Z</time>
      </trkpt>
      <trkpt lat="39.97262" lon="-0.435935">
        <ele>890.0</ele>
        <time>2017-05-27T07:18:26.181Z</time>
      </trkpt>
      <trkpt lat="39.97257167" lon="-0.43589833">
        <ele>890.0</ele>
        <time>2017-05-27T07:18:27.174Z</time>
      </trkpt>
      <trkpt lat="39.972545" lon="-0.43587667">
        <ele>890.0</ele>
        <time>2017-05-27T07:18:28.164Z</time>
      </trkpt>
      <trkpt lat="39.972545" lon="-0.43587667">
        <ele>890.0</ele>
        <time>2017-05-27T07:18:29.170Z</time>
      </trkpt>
      <trkpt lat="39.97249667" lon="-0.43582667">
        <ele>890.0</ele>
        <time>2017-05-27T07:18:30.158Z</time>
      </trkpt>
      <trkpt lat="39.972475" lon="-0.43579333">
        <ele>890.0</ele>
        <time>2017-05-27T07:18:31.163Z</time>
      </trkpt>
      <trkpt lat="39.972475" lon="-0.43579333">
        <ele>890.0</ele>
        <time>2017-05-27T07:18:32.169Z</time>
      </trkpt>
      <trkpt lat="39.97244333" lon="-0.435725">
        <ele>890.0</ele>
        <time>2017-05-27T07:18:33.160Z</time>
      </trkpt>
      <trkpt lat="39.97243167" lon="-0.43568833">
        <ele>890.0</ele>
        <time>2017-05-27T07:18:34.186Z</time>
      </trkpt>
      <trkpt lat="39.97243167" lon="-0.43568833">
        <ele>890.0</ele>
        <time>2017-05-27T07:18:35.192Z</time>
      </trkpt>
      <trkpt lat="39.97243" lon="-0.435605">
        <ele>890.0</ele>
        <time>2017-05-27T07:18:36.176Z</time>
      </trkpt>
      <trkpt lat="39.97243" lon="-0.435605">
        <ele>890.0</ele>
        <time>2017-05-27T07:18:37.182Z</time>
      </trkpt>
      <trkpt lat="39.97244167" lon="-0.43551833">
        <ele>890.0</ele>
        <time>2017-05-27T07:18:38.177Z</time>
      </trkpt>
      <trkpt lat="39.97244167" lon="-0.43551833">
        <ele>890.0</ele>
        <time>2017-05-27T07:18:39.185Z</time>
      </trkpt>
      <trkpt lat="39.97246167" lon="-0.43543">
        <ele>890.0</ele>
        <time>2017-05-27T07:18:40.162Z</time>
      </trkpt>
      <trkpt lat="39.97247" lon="-0.43538667">
        <ele>890.0</ele>
        <time>2017-05-27T07:18:41.160Z</time>
      </trkpt>
      <trkpt lat="39.97247" lon="-0.43538667">
        <ele>890.0</ele>
        <time>2017-05-27T07:18:42.166Z</time>
      </trkpt>
      <trkpt lat="39.97247833" lon="-0.43529333">
        <ele>890.0</ele>
        <time>2017-05-27T07:18:43.191Z</time>
      </trkpt>
      <trkpt lat="39.97247833" lon="-0.43529333">
        <ele>890.0</ele>
        <time>2017-05-27T07:18:44.161Z</time>
      </trkpt>
      <trkpt lat="39.97247667" lon="-0.43519833">
        <ele>890.0</ele>
        <time>2017-05-27T07:18:45.162Z</time>
      </trkpt>
      <trkpt lat="39.97246833" lon="-0.43514667">
        <ele>891.0</ele>
        <time>2017-05-27T07:18:46.169Z</time>
      </trkpt>
      <trkpt lat="39.97246833" lon="-0.43514667">
        <ele>891.0</ele>
        <time>2017-05-27T07:18:47.176Z</time>
      </trkpt>
      <trkpt lat="39.97245" lon="-0.43504167">
        <ele>890.0</ele>
        <time>2017-05-27T07:18:48.182Z</time>
      </trkpt>
      <trkpt lat="39.97243" lon="-0.43499167">
        <ele>890.0</ele>
        <time>2017-05-27T07:18:49.192Z</time>
      </trkpt>
      <trkpt lat="39.97243" lon="-0.43499167">
        <ele>890.0</ele>
        <time>2017-05-27T07:18:50.157Z</time>
      </trkpt>
      <trkpt lat="39.97236" lon="-0.434925">
        <ele>890.0</ele>
        <time>2017-05-27T07:18:51.185Z</time>
      </trkpt>
      <trkpt lat="39.97232" lon="-0.43490667">
        <ele>890.0</ele>
        <time>2017-05-27T07:18:52.194Z</time>
      </trkpt>
      <trkpt lat="39.97232" lon="-0.43490667">
        <ele>890.0</ele>
        <time>2017-05-27T07:18:53.159Z</time>
      </trkpt>
      <trkpt lat="39.97224" lon="-0.434885">
        <ele>889.0</ele>
        <time>2017-05-27T07:18:54.188Z</time>
      </trkpt>
      <trkpt lat="39.97224" lon="-0.434885">
        <ele>889.0</ele>
        <time>2017-05-27T07:18:55.194Z</time>
      </trkpt>
      <trkpt lat="39.972155" lon="-0.434865">
        <ele>889.0</ele>
        <time>2017-05-27T07:18:56.194Z</time>
      </trkpt>
      <trkpt lat="39.972155" lon="-0.434865">
        <ele>889.0</ele>
        <time>2017-05-27T07:18:57.160Z</time>
      </trkpt>
      <trkpt lat="39.97205833" lon="-0.43483333">
        <ele>888.0</ele>
        <time>2017-05-27T07:18:58.192Z</time>
      </trkpt>
      <trkpt lat="39.97205833" lon="-0.43483333">
        <ele>888.0</ele>
        <time>2017-05-27T07:18:59.174Z</time>
      </trkpt>
      <trkpt lat="39.97195" lon="-0.43482167">
        <ele>888.0</ele>
        <time>2017-05-27T07:19:00.162Z</time>
      </trkpt>
      <trkpt lat="39.971895" lon="-0.434815">
        <ele>887.0</ele>
        <time>2017-05-27T07:19:01.168Z</time>
      </trkpt>
      <trkpt lat="39.971895" lon="-0.434815">
        <ele>887.0</ele>
        <time>2017-05-27T07:19:02.174Z</time>
      </trkpt>
      <trkpt lat="39.971785" lon="-0.43479667">
        <ele>887.0</ele>
        <time>2017-05-27T07:19:03.183Z</time>
      </trkpt>
      <trkpt lat="39.97173167" lon="-0.43478333">
        <ele>887.0</ele>
        <time>2017-05-27T07:19:04.163Z</time>
      </trkpt>
      <trkpt lat="39.97167833" lon="-0.43476667">
        <ele>887.0</ele>
        <time>2017-05-27T07:19:05.156Z</time>
      </trkpt>
      <trkpt lat="39.97167833" lon="-0.43476667">
        <ele>887.0</ele>
        <time>2017-05-27T07:19:06.162Z</time>
      </trkpt>
      <trkpt lat="39.97159167" lon="-0.434685">
        <ele>886.0</ele>
        <time>2017-05-27T07:19:07.164Z</time>
      </trkpt>
      <trkpt lat="39.97159167" lon="-0.434685">
        <ele>886.0</ele>
        <time>2017-05-27T07:19:08.170Z</time>
      </trkpt>
      <trkpt lat="39.97155" lon="-0.43455167">
        <ele>885.0</ele>
        <time>2017-05-27T07:19:09.192Z</time>
      </trkpt>
      <trkpt lat="39.97155" lon="-0.43447667">
        <ele>885.0</ele>
        <time>2017-05-27T07:19:10.187Z</time>
      </trkpt>
      <trkpt lat="39.97155" lon="-0.43447667">
        <ele>885.0</ele>
        <time>2017-05-27T07:19:11.157Z</time>
      </trkpt>
      <trkpt lat="39.97156667" lon="-0.43433167">
        <ele>885.0</ele>
        <time>2017-05-27T07:19:12.182Z</time>
      </trkpt>
      <trkpt lat="39.971575" lon="-0.43425833">
        <ele>885.0</ele>
        <time>2017-05-27T07:19:13.161Z</time>
      </trkpt>
      <trkpt lat="39.971575" lon="-0.43425833">
        <ele>885.0</ele>
        <time>2017-05-27T07:19:14.169Z</time>
      </trkpt>
      <trkpt lat="39.971595" lon="-0.43412167">
        <ele>885.0</ele>
        <time>2017-05-27T07:19:15.158Z</time>
      </trkpt>
      <trkpt lat="39.971595" lon="-0.43412167">
        <ele>885.0</ele>
        <time>2017-05-27T07:19:16.164Z</time>
      </trkpt>
      <trkpt lat="39.97161" lon="-0.433995">
        <ele>886.0</ele>
        <time>2017-05-27T07:19:17.193Z</time>
      </trkpt>
      <trkpt lat="39.97161" lon="-0.433995">
        <ele>886.0</ele>
        <time>2017-05-27T07:19:18.159Z</time>
      </trkpt>
      <trkpt lat="39.97160167" lon="-0.43387667">
        <ele>886.0</ele>
        <time>2017-05-27T07:19:19.189Z</time>
      </trkpt>
      <trkpt lat="39.97160167" lon="-0.43387667">
        <ele>886.0</ele>
        <time>2017-05-27T07:19:20.189Z</time>
      </trkpt>
      <trkpt lat="39.97157667" lon="-0.43378">
        <ele>886.0</ele>
        <time>2017-05-27T07:19:21.181Z</time>
      </trkpt>
      <trkpt lat="39.97157667" lon="-0.43378">
        <ele>886.0</ele>
        <time>2017-05-27T07:19:22.188Z</time>
      </trkpt>
      <trkpt lat="39.97152833" lon="-0.43370667">
        <ele>886.0</ele>
        <time>2017-05-27T07:19:23.192Z</time>
      </trkpt>
      <trkpt lat="39.97152833" lon="-0.43370667">
        <ele>886.0</ele>
        <time>2017-05-27T07:19:24.157Z</time>
      </trkpt>
      <trkpt lat="39.971465" lon="-0.43366333">
        <ele>886.0</ele>
        <time>2017-05-27T07:19:25.164Z</time>
      </trkpt>
      <trkpt lat="39.971465" lon="-0.43366333">
        <ele>886.0</ele>
        <time>2017-05-27T07:19:26.171Z</time>
      </trkpt>
      <trkpt lat="39.97138333" lon="-0.43364">
        <ele>887.0</ele>
        <time>2017-05-27T07:19:27.168Z</time>
      </trkpt>
      <trkpt lat="39.97138333" lon="-0.43364">
        <ele>887.0</ele>
        <time>2017-05-27T07:19:28.174Z</time>
      </trkpt>
      <trkpt lat="39.971305" lon="-0.433635">
        <ele>888.0</ele>
        <time>2017-05-27T07:19:29.164Z</time>
      </trkpt>
      <trkpt lat="39.971265" lon="-0.43363333">
        <ele>889.0</ele>
        <time>2017-05-27T07:19:30.174Z</time>
      </trkpt>
      <trkpt lat="39.971265" lon="-0.43363333">
        <ele>889.0</ele>
        <time>2017-05-27T07:19:31.180Z</time>
      </trkpt>
      <trkpt lat="39.971185" lon="-0.43363667">
        <ele>889.0</ele>
        <time>2017-05-27T07:19:32.184Z</time>
      </trkpt>
      <trkpt lat="39.971185" lon="-0.43363667">
        <ele>889.0</ele>
        <time>2017-05-27T07:19:33.191Z</time>
      </trkpt>
      <trkpt lat="39.971105" lon="-0.43364">
        <ele>891.0</ele>
        <time>2017-05-27T07:19:34.165Z</time>
      </trkpt>
      <trkpt lat="39.97106667" lon="-0.43363667">
        <ele>891.0</ele>
        <time>2017-05-27T07:19:35.163Z</time>
      </trkpt>
      <trkpt lat="39.97106667" lon="-0.43363667">
        <ele>891.0</ele>
        <time>2017-05-27T07:19:36.169Z</time>
      </trkpt>
      <trkpt lat="39.97099" lon="-0.43363167">
        <ele>891.0</ele>
        <time>2017-05-27T07:19:37.157Z</time>
      </trkpt>
      <trkpt lat="39.97099" lon="-0.43363167">
        <ele>891.0</ele>
        <time>2017-05-27T07:19:38.163Z</time>
      </trkpt>
      <trkpt lat="39.97091333" lon="-0.43363333">
        <ele>892.0</ele>
        <time>2017-05-27T07:19:39.163Z</time>
      </trkpt>
      <trkpt lat="39.970875" lon="-0.433635">
        <ele>892.0</ele>
        <time>2017-05-27T07:19:40.195Z</time>
      </trkpt>
      <trkpt lat="39.970875" lon="-0.433635">
        <ele>892.0</ele>
        <time>2017-05-27T07:19:41.161Z</time>
      </trkpt>
      <trkpt lat="39.970795" lon="-0.43362167">
        <ele>891.0</ele>
        <time>2017-05-27T07:19:42.166Z</time>
      </trkpt>
      <trkpt lat="39.97075667" lon="-0.43360167">
        <ele>890.0</ele>
        <time>2017-05-27T07:19:43.172Z</time>
      </trkpt>
      <trkpt lat="39.97075667" lon="-0.43360167">
        <ele>890.0</ele>
        <time>2017-05-27T07:19:44.178Z</time>
      </trkpt>
      <trkpt lat="39.97068333" lon="-0.43355167">
        <ele>890.0</ele>
        <time>2017-05-27T07:19:45.189Z</time>
      </trkpt>
      <trkpt lat="39.97065167" lon="-0.43351167">
        <ele>890.0</ele>
        <time>2017-05-27T07:19:46.182Z</time>
      </trkpt>
      <trkpt lat="39.97065167" lon="-0.43351167">
        <ele>890.0</ele>
        <time>2017-05-27T07:19:47.188Z</time>
      </trkpt>
      <trkpt lat="39.97058833" lon="-0.43342333">
        <ele>890.0</ele>
        <time>2017-05-27T07:19:48.180Z</time>
      </trkpt>
      <trkpt lat="39.97056167" lon="-0.43337333">
        <ele>890.0</ele>
        <time>2017-05-27T07:19:49.194Z</time>
      </trkpt>
      <trkpt lat="39.97056167" lon="-0.43337333">
        <ele>890.0</ele>
        <time>2017-05-27T07:19:50.160Z</time>
      </trkpt>
      <trkpt lat="39.97050167" lon="-0.43326833">
        <ele>890.0</ele>
        <time>2017-05-27T07:19:51.158Z</time>
      </trkpt>
      <trkpt lat="39.97047167" lon="-0.43321167">
        <ele>890.0</ele>
        <time>2017-05-27T07:19:52.194Z</time>
      </trkpt>
      <trkpt lat="39.97047167" lon="-0.43321167">
        <ele>890.0</ele>
        <time>2017-05-27T07:19:53.160Z</time>
      </trkpt>
      <trkpt lat="39.97040667" lon="-0.43309333">
        <ele>890.0</ele>
        <time>2017-05-27T07:19:54.190Z</time>
      </trkpt>
      <trkpt lat="39.97040667" lon="-0.43309333">
        <ele>890.0</ele>
        <time>2017-05-27T07:19:55.156Z</time>
      </trkpt>
      <trkpt lat="39.97034167" lon="-0.43297333">
        <ele>889.0</ele>
        <time>2017-05-27T07:19:56.192Z</time>
      </trkpt>
      <trkpt lat="39.97034167" lon="-0.43297333">
        <ele>889.0</ele>
        <time>2017-05-27T07:19:57.158Z</time>
      </trkpt>
      <trkpt lat="39.97027833" lon="-0.43286167">
        <ele>889.0</ele>
        <time>2017-05-27T07:19:58.194Z</time>
      </trkpt>
      <trkpt lat="39.97027833" lon="-0.43286167">
        <ele>889.0</ele>
        <time>2017-05-27T07:19:59.160Z</time>
      </trkpt>
      <trkpt lat="39.97021833" lon="-0.43277667">
        <ele>888.0</ele>
        <time>2017-05-27T07:20:00.192Z</time>
      </trkpt>
      <trkpt lat="39.97021833" lon="-0.43277667">
        <ele>888.0</ele>
        <time>2017-05-27T07:20:01.159Z</time>
      </trkpt>
      <trkpt lat="39.970165" lon="-0.43272167">
        <ele>888.0</ele>
        <time>2017-05-27T07:20:02.194Z</time>
      </trkpt>
      <trkpt lat="39.970165" lon="-0.43272167">
        <ele>888.0</ele>
        <time>2017-05-27T07:20:03.160Z</time>
      </trkpt>
      <trkpt lat="39.97012" lon="-0.43267333">
        <ele>888.0</ele>
        <time>2017-05-27T07:20:04.194Z</time>
      </trkpt>
      <trkpt lat="39.9701" lon="-0.43265333">
        <ele>888.0</ele>
        <time>2017-05-27T07:20:05.184Z</time>
      </trkpt>
      <trkpt lat="39.9701" lon="-0.43265333">
        <ele>888.0</ele>
        <time>2017-05-27T07:20:06.190Z</time>
      </trkpt>
      <trkpt lat="39.970065" lon="-0.432625">
        <ele>888.0</ele>
        <time>2017-05-27T07:20:07.194Z</time>
      </trkpt>
      <trkpt lat="39.970065" lon="-0.432625">
        <ele>888.0</ele>
        <time>2017-05-27T07:20:08.160Z</time>
      </trkpt>
      <trkpt lat="39.970055" lon="-0.432615">
        <ele>888.0</ele>
        <time>2017-05-27T07:20:09.183Z</time>
      </trkpt>
      <trkpt lat="39.97005667" lon="-0.432615">
        <ele>888.0</ele>
        <time>2017-05-27T07:20:10.181Z</time>
      </trkpt>
      <trkpt lat="39.97005667" lon="-0.432615">
        <ele>888.0</ele>
        <time>2017-05-27T07:20:11.165Z</time>
      </trkpt>
      <trkpt lat="39.97005667" lon="-0.432615">
        <ele>888.0</ele>
        <time>2017-05-27T07:20:12.157Z</time>
      </trkpt>
      <trkpt lat="39.97005667" lon="-0.432615">
        <ele>888.0</ele>
        <time>2017-05-27T07:20:13.178Z</time>
      </trkpt>
      <trkpt lat="39.97005667" lon="-0.432615">
        <ele>888.0</ele>
        <time>2017-05-27T07:20:14.166Z</time>
      </trkpt>
      <trkpt lat="39.97005667" lon="-0.432615">
        <ele>888.0</ele>
        <time>2017-05-27T07:20:15.163Z</time>
      </trkpt>
      <trkpt lat="39.97005667" lon="-0.432615">
        <ele>888.0</ele>
        <time>2017-05-27T07:20:16.161Z</time>
      </trkpt>
      <trkpt lat="39.97005667" lon="-0.432615">
        <ele>888.0</ele>
        <time>2017-05-27T07:20:17.188Z</time>
      </trkpt>
      <trkpt lat="39.97004667" lon="-0.43256">
        <ele>889.0</ele>
        <time>2017-05-27T07:20:18.177Z</time>
      </trkpt>
      <trkpt lat="39.97004833" lon="-0.43256167">
        <ele>889.0</ele>
        <time>2017-05-27T07:20:19.165Z</time>
      </trkpt>
      <trkpt lat="39.97004833" lon="-0.43256167">
        <ele>889.0</ele>
        <time>2017-05-27T07:20:20.181Z</time>
      </trkpt>
      <trkpt lat="39.97004833" lon="-0.43256167">
        <ele>889.0</ele>
        <time>2017-05-27T07:20:21.183Z</time>
      </trkpt>
      <trkpt lat="39.97004833" lon="-0.43256167">
        <ele>889.0</ele>
        <time>2017-05-27T07:20:22.180Z</time>
      </trkpt>
      <trkpt lat="39.97004833" lon="-0.43256167">
        <ele>889.0</ele>
        <time>2017-05-27T07:20:23.187Z</time>
      </trkpt>
      <trkpt lat="39.97004833" lon="-0.43256167">
        <ele>889.0</ele>
        <time>2017-05-27T07:20:24.172Z</time>
      </trkpt>
      <trkpt lat="39.97004833" lon="-0.43256167">
        <ele>889.0</ele>
        <time>2017-05-27T07:20:25.179Z</time>
      </trkpt>
      <trkpt lat="39.97004833" lon="-0.43256167">
        <ele>889.0</ele>
        <time>2017-05-27T07:20:26.174Z</time>
      </trkpt>
      <trkpt lat="39.97004833" lon="-0.43256167">
        <ele>889.0</ele>
        <time>2017-05-27T07:20:27.180Z</time>
      </trkpt>
      <trkpt lat="39.97004833" lon="-0.43256167">
        <ele>889.0</ele>
        <time>2017-05-27T07:20:28.169Z</time>
      </trkpt>
      <trkpt lat="39.97004833" lon="-0.43256167">
        <ele>889.0</ele>
        <time>2017-05-27T07:20:29.175Z</time>
      </trkpt>
      <trkpt lat="39.97004833" lon="-0.43256167">
        <ele>889.0</ele>
        <time>2017-05-27T07:20:30.174Z</time>
      </trkpt>
      <trkpt lat="39.97004833" lon="-0.43256167">
        <ele>889.0</ele>
        <time>2017-05-27T07:20:31.179Z</time>
      </trkpt>
      <trkpt lat="39.97004833" lon="-0.43256167">
        <ele>889.0</ele>
        <time>2017-05-27T07:20:32.192Z</time>
      </trkpt>
      <trkpt lat="39.97004833" lon="-0.43256167">
        <ele>889.0</ele>
        <time>2017-05-27T07:20:33.157Z</time>
      </trkpt>
      <trkpt lat="39.97004833" lon="-0.43256167">
        <ele>889.0</ele>
        <time>2017-05-27T07:20:34.159Z</time>
      </trkpt>
      <trkpt lat="39.97004833" lon="-0.43256167">
        <ele>889.0</ele>
        <time>2017-05-27T07:20:35.164Z</time>
      </trkpt>
      <trkpt lat="39.97004833" lon="-0.43256167">
        <ele>889.0</ele>
        <time>2017-05-27T07:20:36.170Z</time>
      </trkpt>
      <trkpt lat="39.97004833" lon="-0.43256167">
        <ele>889.0</ele>
        <time>2017-05-27T07:20:37.173Z</time>
      </trkpt>
      <trkpt lat="39.96993833" lon="-0.43255167">
        <ele>892.0</ele>
        <time>2017-05-27T07:20:38.170Z</time>
      </trkpt>
      <trkpt lat="39.96991833" lon="-0.43253167">
        <ele>892.0</ele>
        <time>2017-05-27T07:20:39.167Z</time>
      </trkpt>
      <trkpt lat="39.96991833" lon="-0.43253167">
        <ele>892.0</ele>
        <time>2017-05-27T07:20:40.164Z</time>
      </trkpt>
      <trkpt lat="39.96985" lon="-0.43251167">
        <ele>892.0</ele>
        <time>2017-05-27T07:20:41.182Z</time>
      </trkpt>
      <trkpt lat="39.96985" lon="-0.43251167">
        <ele>892.0</ele>
        <time>2017-05-27T07:20:42.156Z</time>
      </trkpt>
      <trkpt lat="39.96976167" lon="-0.43249">
        <ele>891.0</ele>
        <time>2017-05-27T07:20:43.190Z</time>
      </trkpt>
      <trkpt lat="39.96971167" lon="-0.43247667">
        <ele>891.0</ele>
        <time>2017-05-27T07:20:44.166Z</time>
      </trkpt>
      <trkpt lat="39.96971167" lon="-0.43247667">
        <ele>891.0</ele>
        <time>2017-05-27T07:20:45.161Z</time>
      </trkpt>
      <trkpt lat="39.96960667" lon="-0.43245167">
        <ele>890.0</ele>
        <time>2017-05-27T07:20:46.180Z</time>
      </trkpt>
      <trkpt lat="39.96960667" lon="-0.43245167">
        <ele>890.0</ele>
        <time>2017-05-27T07:20:47.185Z</time>
      </trkpt>
      <trkpt lat="39.96948667" lon="-0.43240167">
        <ele>889.0</ele>
        <time>2017-05-27T07:20:48.182Z</time>
      </trkpt>
      <trkpt lat="39.96942333" lon="-0.43236833">
        <ele>889.0</ele>
        <time>2017-05-27T07:20:49.178Z</time>
      </trkpt>
      <trkpt lat="39.96936333" lon="-0.43233">
        <ele>888.0</ele>
        <time>2017-05-27T07:20:50.172Z</time>
      </trkpt>
      <trkpt lat="39.96936333" lon="-0.43233">
        <ele>888.0</ele>
        <time>2017-05-27T07:20:51.167Z</time>
      </trkpt>
      <trkpt lat="39.96924" lon="-0.43224167">
        <ele>887.0</ele>
        <time>2017-05-27T07:20:52.170Z</time>
      </trkpt>
      <trkpt lat="39.96924" lon="-0.43224167">
        <ele>887.0</ele>
        <time>2017-05-27T07:20:53.158Z</time>
      </trkpt>
      <trkpt lat="39.96913167" lon="-0.43214">
        <ele>885.0</ele>
        <time>2017-05-27T07:20:54.192Z</time>
      </trkpt>
      <trkpt lat="39.96913167" lon="-0.43214">
        <ele>885.0</ele>
        <time>2017-05-27T07:20:55.161Z</time>
      </trkpt>
      <trkpt lat="39.969055" lon="-0.43201667">
        <ele>883.0</ele>
        <time>2017-05-27T07:20:56.162Z</time>
      </trkpt>
      <trkpt lat="39.969055" lon="-0.43201667">
        <ele>883.0</ele>
        <time>2017-05-27T07:20:57.169Z</time>
      </trkpt>
      <trkpt lat="39.96903" lon="-0.43185333">
        <ele>881.0</ele>
        <time>2017-05-27T07:20:58.192Z</time>
      </trkpt>
      <trkpt lat="39.96904167" lon="-0.43175667">
        <ele>880.0</ele>
        <time>2017-05-27T07:20:59.190Z</time>
      </trkpt>
      <trkpt lat="39.96904167" lon="-0.43175667">
        <ele>880.0</ele>
        <time>2017-05-27T07:21:00.180Z</time>
      </trkpt>
      <trkpt lat="39.96906667" lon="-0.43154333">
        <ele>878.0</ele>
        <time>2017-05-27T07:21:01.158Z</time>
      </trkpt>
      <trkpt lat="39.96908" lon="-0.43143167">
        <ele>877.0</ele>
        <time>2017-05-27T07:21:02.185Z</time>
      </trkpt>
      <trkpt lat="39.96908" lon="-0.43143167">
        <ele>877.0</ele>
        <time>2017-05-27T07:21:03.163Z</time>
      </trkpt>
      <trkpt lat="39.969095" lon="-0.43119833">
        <ele>876.0</ele>
        <time>2017-05-27T07:21:04.194Z</time>
      </trkpt>
      <trkpt lat="39.969095" lon="-0.43119833">
        <ele>876.0</ele>
        <time>2017-05-27T07:21:05.164Z</time>
      </trkpt>
      <trkpt lat="39.9691" lon="-0.43097333">
        <ele>874.0</ele>
        <time>2017-05-27T07:21:06.182Z</time>
      </trkpt>
      <trkpt lat="39.96910333" lon="-0.430865">
        <ele>873.0</ele>
        <time>2017-05-27T07:21:07.166Z</time>
      </trkpt>
      <trkpt lat="39.96910333" lon="-0.430865">
        <ele>873.0</ele>
        <time>2017-05-27T07:21:08.178Z</time>
      </trkpt>
      <trkpt lat="39.96909833" lon="-0.43066333">
        <ele>872.0</ele>
        <time>2017-05-27T07:21:09.159Z</time>
      </trkpt>
      <trkpt lat="39.96909833" lon="-0.43066333">
        <ele>872.0</ele>
        <time>2017-05-27T07:21:10.184Z</time>
      </trkpt>
      <trkpt lat="39.96903333" lon="-0.4305">
        <ele>871.0</ele>
        <time>2017-05-27T07:21:11.190Z</time>
      </trkpt>
      <trkpt lat="39.96903333" lon="-0.4305">
        <ele>871.0</ele>
        <time>2017-05-27T07:21:12.165Z</time>
      </trkpt>
      <trkpt lat="39.968905" lon="-0.43039833">
        <ele>869.0</ele>
        <time>2017-05-27T07:21:13.162Z</time>
      </trkpt>
      <trkpt lat="39.968835" lon="-0.43035667">
        <ele>869.0</ele>
        <time>2017-05-27T07:21:14.163Z</time>
      </trkpt>
      <trkpt lat="39.968835" lon="-0.43035667">
        <ele>869.0</ele>
        <time>2017-05-27T07:21:15.163Z</time>
      </trkpt>
      <trkpt lat="39.96870667" lon="-0.43025833">
        <ele>868.0</ele>
        <time>2017-05-27T07:21:16.185Z</time>
      </trkpt>
      <trkpt lat="39.96870667" lon="-0.43025833">
        <ele>868.0</ele>
        <time>2017-05-27T07:21:17.165Z</time>
      </trkpt>
      <trkpt lat="39.96862667" lon="-0.43013">
        <ele>867.0</ele>
        <time>2017-05-27T07:21:18.162Z</time>
      </trkpt>
      <trkpt lat="39.96862667" lon="-0.43013">
        <ele>867.0</ele>
        <time>2017-05-27T07:21:19.165Z</time>
      </trkpt>
      <trkpt lat="39.96860667" lon="-0.42995333">
        <ele>866.0</ele>
        <time>2017-05-27T07:21:20.167Z</time>
      </trkpt>
      <trkpt lat="39.96860667" lon="-0.42995333">
        <ele>866.0</ele>
        <time>2017-05-27T07:21:21.176Z</time>
      </trkpt>
      <trkpt lat="39.96863667" lon="-0.429755">
        <ele>864.0</ele>
        <time>2017-05-27T07:21:22.162Z</time>
      </trkpt>
      <trkpt lat="39.96865833" lon="-0.42965167">
        <ele>864.0</ele>
        <time>2017-05-27T07:21:23.163Z</time>
      </trkpt>
      <trkpt lat="39.96865833" lon="-0.42965167">
        <ele>864.0</ele>
        <time>2017-05-27T07:21:24.165Z</time>
      </trkpt>
      <trkpt lat="39.96867833" lon="-0.42945833">
        <ele>862.0</ele>
        <time>2017-05-27T07:21:25.157Z</time>
      </trkpt>
      <trkpt lat="39.96867" lon="-0.42937167">
        <ele>862.0</ele>
        <time>2017-05-27T07:21:26.165Z</time>
      </trkpt>
      <trkpt lat="39.96867" lon="-0.42937167">
        <ele>862.0</ele>
        <time>2017-05-27T07:21:27.178Z</time>
      </trkpt>
      <trkpt lat="39.96860167" lon="-0.42924167">
        <ele>861.0</ele>
        <time>2017-05-27T07:21:28.158Z</time>
      </trkpt>
      <trkpt lat="39.96853833" lon="-0.42921833">
        <ele>860.0</ele>
        <time>2017-05-27T07:21:29.183Z</time>
      </trkpt>
      <trkpt lat="39.96853833" lon="-0.42921833">
        <ele>860.0</ele>
        <time>2017-05-27T07:21:30.172Z</time>
      </trkpt>
      <trkpt lat="39.96839167" lon="-0.42923833">
        <ele>858.0</ele>
        <time>2017-05-27T07:21:31.157Z</time>
      </trkpt>
      <trkpt lat="39.96831333" lon="-0.42926167">
        <ele>857.0</ele>
        <time>2017-05-27T07:21:32.192Z</time>
      </trkpt>
      <trkpt lat="39.96831333" lon="-0.42926167">
        <ele>857.0</ele>
        <time>2017-05-27T07:21:33.183Z</time>
      </trkpt>
      <trkpt lat="39.96815" lon="-0.42931667">
        <ele>855.0</ele>
        <time>2017-05-27T07:21:34.182Z</time>
      </trkpt>
      <trkpt lat="39.96806667" lon="-0.42935">
        <ele>854.0</ele>
        <time>2017-05-27T07:21:35.162Z</time>
      </trkpt>
      <trkpt lat="39.96806667" lon="-0.42935">
        <ele>854.0</ele>
        <time>2017-05-27T07:21:36.183Z</time>
      </trkpt>
      <trkpt lat="39.96790333" lon="-0.42942333">
        <ele>852.0</ele>
        <time>2017-05-27T07:21:37.166Z</time>
      </trkpt>
      <trkpt lat="39.967825" lon="-0.42946333">
        <ele>852.0</ele>
        <time>2017-05-27T07:21:38.168Z</time>
      </trkpt>
      <trkpt lat="39.967825" lon="-0.42946333">
        <ele>852.0</ele>
        <time>2017-05-27T07:21:39.174Z</time>
      </trkpt>
      <trkpt lat="39.96766333" lon="-0.42947667">
        <ele>850.0</ele>
        <time>2017-05-27T07:21:40.159Z</time>
      </trkpt>
      <trkpt lat="39.96758167" lon="-0.429445">
        <ele>849.0</ele>
        <time>2017-05-27T07:21:41.166Z</time>
      </trkpt>
      <trkpt lat="39.96758167" lon="-0.429445">
        <ele>849.0</ele>
        <time>2017-05-27T07:21:42.173Z</time>
      </trkpt>
      <trkpt lat="39.96744333" lon="-0.429335">
        <ele>848.0</ele>
        <time>2017-05-27T07:21:43.158Z</time>
      </trkpt>
      <trkpt lat="39.96738667" lon="-0.42926667">
        <ele>847.0</ele>
        <time>2017-05-27T07:21:44.196Z</time>
      </trkpt>
      <trkpt lat="39.96738667" lon="-0.42926667">
        <ele>847.0</ele>
        <time>2017-05-27T07:21:45.165Z</time>
      </trkpt>
      <trkpt lat="39.96729833" lon="-0.42913833">
        <ele>846.0</ele>
        <time>2017-05-27T07:21:46.187Z</time>
      </trkpt>
      <trkpt lat="39.96725833" lon="-0.42908167">
        <ele>846.0</ele>
        <time>2017-05-27T07:21:47.190Z</time>
      </trkpt>
      <trkpt lat="39.96725833" lon="-0.42908167">
        <ele>846.0</ele>
        <time>2017-05-27T07:21:48.166Z</time>
      </trkpt>
      <trkpt lat="39.96720333" lon="-0.42898333">
        <ele>845.0</ele>
        <time>2017-05-27T07:21:49.162Z</time>
      </trkpt>
      <trkpt lat="39.96718167" lon="-0.42893833">
        <ele>845.0</ele>
        <time>2017-05-27T07:21:50.182Z</time>
      </trkpt>
      <trkpt lat="39.96718167" lon="-0.42893833">
        <ele>845.0</ele>
        <time>2017-05-27T07:21:51.172Z</time>
      </trkpt>
      <trkpt lat="39.96713667" lon="-0.42885333">
        <ele>844.0</ele>
        <time>2017-05-27T07:21:52.175Z</time>
      </trkpt>
      <trkpt lat="39.96712167" lon="-0.42880833">
        <ele>843.0</ele>
        <time>2017-05-27T07:21:53.173Z</time>
      </trkpt>
      <trkpt lat="39.96712167" lon="-0.42880833">
        <ele>843.0</ele>
        <time>2017-05-27T07:21:54.172Z</time>
      </trkpt>
      <trkpt lat="39.96709833" lon="-0.42872167">
        <ele>843.0</ele>
        <time>2017-05-27T07:21:55.194Z</time>
      </trkpt>
      <trkpt lat="39.96709833" lon="-0.42872167">
        <ele>843.0</ele>
        <time>2017-05-27T07:21:56.176Z</time>
      </trkpt>
      <trkpt lat="39.967055" lon="-0.42864">
        <ele>843.0</ele>
        <time>2017-05-27T07:21:57.174Z</time>
      </trkpt>
      <trkpt lat="39.967055" lon="-0.42864">
        <ele>843.0</ele>
        <time>2017-05-27T07:21:58.184Z</time>
      </trkpt>
      <trkpt lat="39.96701" lon="-0.42856">
        <ele>843.0</ele>
        <time>2017-05-27T07:21:59.175Z</time>
      </trkpt>
      <trkpt lat="39.96699" lon="-0.42852167">
        <ele>843.0</ele>
        <time>2017-05-27T07:22:00.164Z</time>
      </trkpt>
      <trkpt lat="39.96699" lon="-0.42852167">
        <ele>843.0</ele>
        <time>2017-05-27T07:22:01.189Z</time>
      </trkpt>
      <trkpt lat="39.96695667" lon="-0.42843667">
        <ele>843.0</ele>
        <time>2017-05-27T07:22:02.173Z</time>
      </trkpt>
      <trkpt lat="39.96695667" lon="-0.42843667">
        <ele>843.0</ele>
        <time>2017-05-27T07:22:03.183Z</time>
      </trkpt>
      <trkpt lat="39.96692833" lon="-0.42838833">
        <ele>843.0</ele>
        <time>2017-05-27T07:22:04.164Z</time>
      </trkpt>
      <trkpt lat="39.96691333" lon="-0.42835833">
        <ele>843.0</ele>
        <time>2017-05-27T07:22:05.165Z</time>
      </trkpt>
      <trkpt lat="39.96691333" lon="-0.42835833">
        <ele>843.0</ele>
        <time>2017-05-27T07:22:06.163Z</time>
      </trkpt>
      <trkpt lat="39.96688" lon="-0.428285">
        <ele>845.0</ele>
        <time>2017-05-27T07:22:07.184Z</time>
      </trkpt>
      <trkpt lat="39.96685667" lon="-0.42825">
        <ele>845.0</ele>
        <time>2017-05-27T07:22:08.190Z</time>
      </trkpt>
      <trkpt lat="39.96685667" lon="-0.42825">
        <ele>845.0</ele>
        <time>2017-05-27T07:22:09.173Z</time>
      </trkpt>
      <trkpt lat="39.96682333" lon="-0.42817667">
        <ele>845.0</ele>
        <time>2017-05-27T07:22:10.194Z</time>
      </trkpt>
      <trkpt lat="39.966815" lon="-0.428135">
        <ele>845.0</ele>
        <time>2017-05-27T07:22:11.176Z</time>
      </trkpt>
      <trkpt lat="39.966815" lon="-0.428135">
        <ele>845.0</ele>
        <time>2017-05-27T07:22:12.169Z</time>
      </trkpt>
      <trkpt lat="39.96679667" lon="-0.42805333">
        <ele>845.0</ele>
        <time>2017-05-27T07:22:13.199Z</time>
      </trkpt>
      <trkpt lat="39.96678667" lon="-0.42801667">
        <ele>845.0</ele>
        <time>2017-05-27T07:22:14.173Z</time>
      </trkpt>
      <trkpt lat="39.96678667" lon="-0.42801667">
        <ele>845.0</ele>
        <time>2017-05-27T07:22:15.157Z</time>
      </trkpt>
      <trkpt lat="39.966765" lon="-0.42795167">
        <ele>845.0</ele>
        <time>2017-05-27T07:22:16.188Z</time>
      </trkpt>
      <trkpt lat="39.96675" lon="-0.42792167">
        <ele>845.0</ele>
        <time>2017-05-27T07:22:17.163Z</time>
      </trkpt>
      <trkpt lat="39.96675" lon="-0.42792167">
        <ele>845.0</ele>
        <time>2017-05-27T07:22:18.177Z</time>
      </trkpt>
      <trkpt lat="39.966725" lon="-0.42786333">
        <ele>845.0</ele>
        <time>2017-05-27T07:22:19.179Z</time>
      </trkpt>
      <trkpt lat="39.966725" lon="-0.42786333">
        <ele>845.0</ele>
        <time>2017-05-27T07:22:20.162Z</time>
      </trkpt>
      <trkpt lat="39.966705" lon="-0.42780667">
        <ele>845.0</ele>
        <time>2017-05-27T07:22:21.191Z</time>
      </trkpt>
      <trkpt lat="39.966705" lon="-0.42780667">
        <ele>845.0</ele>
        <time>2017-05-27T07:22:22.161Z</time>
      </trkpt>
      <trkpt lat="39.96668" lon="-0.42773833">
        <ele>845.0</ele>
        <time>2017-05-27T07:22:23.162Z</time>
      </trkpt>
      <trkpt lat="39.96666833" lon="-0.42770833">
        <ele>845.0</ele>
        <time>2017-05-27T07:22:24.194Z</time>
      </trkpt>
      <trkpt lat="39.96666833" lon="-0.42770833">
        <ele>845.0</ele>
        <time>2017-05-27T07:22:25.175Z</time>
      </trkpt>
      <trkpt lat="39.96664" lon="-0.42765167">
        <ele>845.0</ele>
        <time>2017-05-27T07:22:26.156Z</time>
      </trkpt>
      <trkpt lat="39.96664" lon="-0.42765167">
        <ele>845.0</ele>
        <time>2017-05-27T07:22:27.168Z</time>
      </trkpt>
      <trkpt lat="39.96661167" lon="-0.4276">
        <ele>846.0</ele>
        <time>2017-05-27T07:22:28.197Z</time>
      </trkpt>
      <trkpt lat="39.966595" lon="-0.42758">
        <ele>846.0</ele>
        <time>2017-05-27T07:22:29.163Z</time>
      </trkpt>
      <trkpt lat="39.966595" lon="-0.42758">
        <ele>846.0</ele>
        <time>2017-05-27T07:22:30.185Z</time>
      </trkpt>
      <trkpt lat="39.96656333" lon="-0.42754">
        <ele>847.0</ele>
        <time>2017-05-27T07:22:31.182Z</time>
      </trkpt>
      <trkpt lat="39.96656333" lon="-0.42754">
        <ele>847.0</ele>
        <time>2017-05-27T07:22:32.169Z</time>
      </trkpt>
      <trkpt lat="39.96652333" lon="-0.42749">
        <ele>847.0</ele>
        <time>2017-05-27T07:22:33.194Z</time>
      </trkpt>
      <trkpt lat="39.96652333" lon="-0.42749">
        <ele>847.0</ele>
        <time>2017-05-27T07:22:34.156Z</time>
      </trkpt>
      <trkpt lat="39.96647167" lon="-0.42745167">
        <ele>847.0</ele>
        <time>2017-05-27T07:22:35.184Z</time>
      </trkpt>
      <trkpt lat="39.96644167" lon="-0.42743667">
        <ele>848.0</ele>
        <time>2017-05-27T07:22:36.162Z</time>
      </trkpt>
      <trkpt lat="39.96644167" lon="-0.42743667">
        <ele>848.0</ele>
        <time>2017-05-27T07:22:37.160Z</time>
      </trkpt>
      <trkpt lat="39.96638667" lon="-0.42742167">
        <ele>849.0</ele>
        <time>2017-05-27T07:22:38.192Z</time>
      </trkpt>
      <trkpt lat="39.96638667" lon="-0.42742167">
        <ele>849.0</ele>
        <time>2017-05-27T07:22:39.181Z</time>
      </trkpt>
      <trkpt lat="39.96632" lon="-0.42742333">
        <ele>850.0</ele>
        <time>2017-05-27T07:22:40.162Z</time>
      </trkpt>
      <trkpt lat="39.96629167" lon="-0.42743167">
        <ele>851.0</ele>
        <time>2017-05-27T07:22:41.170Z</time>
      </trkpt>
      <trkpt lat="39.96629167" lon="-0.42743167">
        <ele>851.0</ele>
        <time>2017-05-27T07:22:42.175Z</time>
      </trkpt>
      <trkpt lat="39.96623833" lon="-0.42745167">
        <ele>851.0</ele>
        <time>2017-05-27T07:22:43.162Z</time>
      </trkpt>
      <trkpt lat="39.966215" lon="-0.42746167">
        <ele>851.0</ele>
        <time>2017-05-27T07:22:44.178Z</time>
      </trkpt>
      <trkpt lat="39.96619" lon="-0.427465">
        <ele>851.0</ele>
        <time>2017-05-27T07:22:45.197Z</time>
      </trkpt>
      <trkpt lat="39.96619" lon="-0.427465">
        <ele>851.0</ele>
        <time>2017-05-27T07:22:46.163Z</time>
      </trkpt>
      <trkpt lat="39.96614" lon="-0.427475">
        <ele>851.0</ele>
        <time>2017-05-27T07:22:47.196Z</time>
      </trkpt>
      <trkpt lat="39.96614" lon="-0.427475">
        <ele>851.0</ele>
        <time>2017-05-27T07:22:48.177Z</time>
      </trkpt>
      <trkpt lat="39.96607667" lon="-0.42746833">
        <ele>853.0</ele>
        <time>2017-05-27T07:22:49.202Z</time>
      </trkpt>
      <trkpt lat="39.96605167" lon="-0.42745833">
        <ele>854.0</ele>
        <time>2017-05-27T07:22:50.191Z</time>
      </trkpt>
      <trkpt lat="39.96605167" lon="-0.42745833">
        <ele>854.0</ele>
        <time>2017-05-27T07:22:51.175Z</time>
      </trkpt>
      <trkpt lat="39.96600167" lon="-0.427415">
        <ele>856.0</ele>
        <time>2017-05-27T07:22:52.162Z</time>
      </trkpt>
      <trkpt lat="39.965985" lon="-0.42738333">
        <ele>857.0</ele>
        <time>2017-05-27T07:22:53.196Z</time>
      </trkpt>
      <trkpt lat="39.965985" lon="-0.42738333">
        <ele>857.0</ele>
        <time>2017-05-27T07:22:54.185Z</time>
      </trkpt>
      <trkpt lat="39.96595667" lon="-0.42731167">
        <ele>857.0</ele>
        <time>2017-05-27T07:22:55.184Z</time>
      </trkpt>
      <trkpt lat="39.96595667" lon="-0.42731167">
        <ele>857.0</ele>
        <time>2017-05-27T07:22:56.169Z</time>
      </trkpt>
      <trkpt lat="39.965935" lon="-0.42723167">
        <ele>858.0</ele>
        <time>2017-05-27T07:22:57.185Z</time>
      </trkpt>
      <trkpt lat="39.965935" lon="-0.42723167">
        <ele>858.0</ele>
        <time>2017-05-27T07:22:58.195Z</time>
      </trkpt>
      <trkpt lat="39.965915" lon="-0.42714667">
        <ele>858.0</ele>
        <time>2017-05-27T07:22:59.180Z</time>
      </trkpt>
      <trkpt lat="39.96589667" lon="-0.42710833">
        <ele>858.0</ele>
        <time>2017-05-27T07:23:00.182Z</time>
      </trkpt>
      <trkpt lat="39.96589667" lon="-0.42710833">
        <ele>858.0</ele>
        <time>2017-05-27T07:23:01.175Z</time>
      </trkpt>
      <trkpt lat="39.965865" lon="-0.42702667">
        <ele>859.0</ele>
        <time>2017-05-27T07:23:02.156Z</time>
      </trkpt>
      <trkpt lat="39.96585667" lon="-0.42698667">
        <ele>859.0</ele>
        <time>2017-05-27T07:23:03.162Z</time>
      </trkpt>
      <trkpt lat="39.96585667" lon="-0.42698667">
        <ele>859.0</ele>
        <time>2017-05-27T07:23:04.174Z</time>
      </trkpt>
      <trkpt lat="39.96582833" lon="-0.42690833">
        <ele>860.0</ele>
        <time>2017-05-27T07:23:05.158Z</time>
      </trkpt>
      <trkpt lat="39.96581333" lon="-0.42687167">
        <ele>859.0</ele>
        <time>2017-05-27T07:23:06.183Z</time>
      </trkpt>
      <trkpt lat="39.96581333" lon="-0.42687167">
        <ele>859.0</ele>
        <time>2017-05-27T07:23:07.165Z</time>
      </trkpt>
      <trkpt lat="39.96577" lon="-0.42680333">
        <ele>860.0</ele>
        <time>2017-05-27T07:23:08.194Z</time>
      </trkpt>
      <trkpt lat="39.96577" lon="-0.42680333">
        <ele>860.0</ele>
        <time>2017-05-27T07:23:09.165Z</time>
      </trkpt>
      <trkpt lat="39.96570667" lon="-0.42675">
        <ele>860.0</ele>
        <time>2017-05-27T07:23:10.188Z</time>
      </trkpt>
      <trkpt lat="39.96570667" lon="-0.42675">
        <ele>860.0</ele>
        <time>2017-05-27T07:23:11.179Z</time>
      </trkpt>
      <trkpt lat="39.96562167" lon="-0.426745">
        <ele>862.0</ele>
        <time>2017-05-27T07:23:12.166Z</time>
      </trkpt>
      <trkpt lat="39.96562167" lon="-0.426745">
        <ele>862.0</ele>
        <time>2017-05-27T07:23:13.156Z</time>
      </trkpt>
      <trkpt lat="39.96554167" lon="-0.42678167">
        <ele>862.0</ele>
        <time>2017-05-27T07:23:14.190Z</time>
      </trkpt>
      <trkpt lat="39.96550667" lon="-0.42681333">
        <ele>862.0</ele>
        <time>2017-05-27T07:23:15.177Z</time>
      </trkpt>
      <trkpt lat="39.96550667" lon="-0.42681333">
        <ele>862.0</ele>
        <time>2017-05-27T07:23:16.159Z</time>
      </trkpt>
      <trkpt lat="39.965445" lon="-0.42689167">
        <ele>863.0</ele>
        <time>2017-05-27T07:23:17.183Z</time>
      </trkpt>
      <trkpt lat="39.965445" lon="-0.42689167">
        <ele>863.0</ele>
        <time>2017-05-27T07:23:18.166Z</time>
      </trkpt>
      <trkpt lat="39.96538333" lon="-0.42697">
        <ele>863.0</ele>
        <time>2017-05-27T07:23:19.158Z</time>
      </trkpt>
      <trkpt lat="39.96535167" lon="-0.42700833">
        <ele>863.0</ele>
        <time>2017-05-27T07:23:20.192Z</time>
      </trkpt>
      <trkpt lat="39.96535167" lon="-0.42700833">
        <ele>863.0</ele>
        <time>2017-05-27T07:23:21.188Z</time>
      </trkpt>
      <trkpt lat="39.96529167" lon="-0.42707667">
        <ele>864.0</ele>
        <time>2017-05-27T07:23:22.186Z</time>
      </trkpt>
      <trkpt lat="39.96529167" lon="-0.42707667">
        <ele>864.0</ele>
        <time>2017-05-27T07:23:23.159Z</time>
      </trkpt>
      <trkpt lat="39.96523167" lon="-0.42714167">
        <ele>864.0</ele>
        <time>2017-05-27T07:23:24.179Z</time>
      </trkpt>
      <trkpt lat="39.96523167" lon="-0.42714167">
        <ele>864.0</ele>
        <time>2017-05-27T07:23:25.159Z</time>
      </trkpt>
      <trkpt lat="39.96517" lon="-0.42720167">
        <ele>864.0</ele>
        <time>2017-05-27T07:23:26.197Z</time>
      </trkpt>
      <trkpt lat="39.96517" lon="-0.42720167">
        <ele>864.0</ele>
        <time>2017-05-27T07:23:27.156Z</time>
      </trkpt>
      <trkpt lat="39.96510333" lon="-0.42725833">
        <ele>864.0</ele>
        <time>2017-05-27T07:23:28.162Z</time>
      </trkpt>
      <trkpt lat="39.96510333" lon="-0.42725833">
        <ele>864.0</ele>
        <time>2017-05-27T07:23:29.159Z</time>
      </trkpt>
      <trkpt lat="39.96503333" lon="-0.42731333">
        <ele>864.0</ele>
        <time>2017-05-27T07:23:30.186Z</time>
      </trkpt>
      <trkpt lat="39.96503333" lon="-0.42731333">
        <ele>864.0</ele>
        <time>2017-05-27T07:23:31.168Z</time>
      </trkpt>
      <trkpt lat="39.96496833" lon="-0.427375">
        <ele>864.0</ele>
        <time>2017-05-27T07:23:32.156Z</time>
      </trkpt>
      <trkpt lat="39.96496833" lon="-0.427375">
        <ele>864.0</ele>
        <time>2017-05-27T07:23:33.165Z</time>
      </trkpt>
      <trkpt lat="39.96489333" lon="-0.42743667">
        <ele>864.0</ele>
        <time>2017-05-27T07:23:34.201Z</time>
      </trkpt>
      <trkpt lat="39.96489333" lon="-0.42743667">
        <ele>864.0</ele>
        <time>2017-05-27T07:23:35.178Z</time>
      </trkpt>
      <trkpt lat="39.964825" lon="-0.42750167">
        <ele>864.0</ele>
        <time>2017-05-27T07:23:36.181Z</time>
      </trkpt>
      <trkpt lat="39.964825" lon="-0.42750167">
        <ele>864.0</ele>
        <time>2017-05-27T07:23:37.170Z</time>
      </trkpt>
      <trkpt lat="39.96475" lon="-0.42756">
        <ele>863.0</ele>
        <time>2017-05-27T07:23:38.168Z</time>
      </trkpt>
      <trkpt lat="39.96475" lon="-0.42756">
        <ele>863.0</ele>
        <time>2017-05-27T07:23:39.185Z</time>
      </trkpt>
      <trkpt lat="39.96466167" lon="-0.427615">
        <ele>863.0</ele>
        <time>2017-05-27T07:23:40.178Z</time>
      </trkpt>
      <trkpt lat="39.96461" lon="-0.42764167">
        <ele>863.0</ele>
        <time>2017-05-27T07:23:41.161Z</time>
      </trkpt>
      <trkpt lat="39.96461" lon="-0.42764167">
        <ele>863.0</ele>
        <time>2017-05-27T07:23:42.183Z</time>
      </trkpt>
      <trkpt lat="39.96449333" lon="-0.42770667">
        <ele>862.0</ele>
        <time>2017-05-27T07:23:43.169Z</time>
      </trkpt>
      <trkpt lat="39.96442667" lon="-0.42774">
        <ele>862.0</ele>
        <time>2017-05-27T07:23:44.192Z</time>
      </trkpt>
      <trkpt lat="39.96442667" lon="-0.42774">
        <ele>862.0</ele>
        <time>2017-05-27T07:23:45.161Z</time>
      </trkpt>
      <trkpt lat="39.96427333" lon="-0.42779667">
        <ele>860.0</ele>
        <time>2017-05-27T07:23:46.186Z</time>
      </trkpt>
      <trkpt lat="39.96427333" lon="-0.42779667">
        <ele>860.0</ele>
        <time>2017-05-27T07:23:47.170Z</time>
      </trkpt>
      <trkpt lat="39.96410333" lon="-0.42786167">
        <ele>858.0</ele>
        <time>2017-05-27T07:23:48.195Z</time>
      </trkpt>
      <trkpt lat="39.96410333" lon="-0.42786167">
        <ele>858.0</ele>
        <time>2017-05-27T07:23:49.182Z</time>
      </trkpt>
      <trkpt lat="39.963925" lon="-0.427955">
        <ele>855.0</ele>
        <time>2017-05-27T07:23:50.174Z</time>
      </trkpt>
      <trkpt lat="39.963925" lon="-0.427955">
        <ele>855.0</ele>
        <time>2017-05-27T07:23:51.158Z</time>
      </trkpt>
      <trkpt lat="39.96375333" lon="-0.42806667">
        <ele>854.0</ele>
        <time>2017-05-27T07:23:52.180Z</time>
      </trkpt>
      <trkpt lat="39.96375333" lon="-0.42806667">
        <ele>854.0</ele>
        <time>2017-05-27T07:23:53.175Z</time>
      </trkpt>
      <trkpt lat="39.96360167" lon="-0.42814">
        <ele>852.0</ele>
        <time>2017-05-27T07:23:54.160Z</time>
      </trkpt>
      <trkpt lat="39.96360167" lon="-0.42814">
        <ele>852.0</ele>
        <time>2017-05-27T07:23:55.190Z</time>
      </trkpt>
      <trkpt lat="39.963455" lon="-0.428125">
        <ele>851.0</ele>
        <time>2017-05-27T07:23:56.180Z</time>
      </trkpt>
      <trkpt lat="39.963455" lon="-0.428125">
        <ele>851.0</ele>
        <time>2017-05-27T07:23:57.157Z</time>
      </trkpt>
      <trkpt lat="39.96332167" lon="-0.42806333">
        <ele>851.0</ele>
        <time>2017-05-27T07:23:58.187Z</time>
      </trkpt>
      <trkpt lat="39.96326333" lon="-0.42802833">
        <ele>851.0</ele>
        <time>2017-05-27T07:23:59.182Z</time>
      </trkpt>
      <trkpt lat="39.96326333" lon="-0.42802833">
        <ele>851.0</ele>
        <time>2017-05-27T07:24:00.165Z</time>
      </trkpt>
      <trkpt lat="39.96313333" lon="-0.42796">
        <ele>851.0</ele>
        <time>2017-05-27T07:24:01.197Z</time>
      </trkpt>
      <trkpt lat="39.96307167" lon="-0.427925">
        <ele>851.0</ele>
        <time>2017-05-27T07:24:02.187Z</time>
      </trkpt>
      <trkpt lat="39.96307167" lon="-0.427925">
        <ele>851.0</ele>
        <time>2017-05-27T07:24:03.166Z</time>
      </trkpt>
      <trkpt lat="39.96296" lon="-0.42786167">
        <ele>851.0</ele>
        <time>2017-05-27T07:24:04.157Z</time>
      </trkpt>
      <trkpt lat="39.96291333" lon="-0.42783667">
        <ele>851.0</ele>
        <time>2017-05-27T07:24:05.181Z</time>
      </trkpt>
      <trkpt lat="39.96291333" lon="-0.42783667">
        <ele>851.0</ele>
        <time>2017-05-27T07:24:06.159Z</time>
      </trkpt>
      <trkpt lat="39.96282667" lon="-0.427815">
        <ele>852.0</ele>
        <time>2017-05-27T07:24:07.183Z</time>
      </trkpt>
      <trkpt lat="39.96282667" lon="-0.427815">
        <ele>852.0</ele>
        <time>2017-05-27T07:24:08.167Z</time>
      </trkpt>
      <trkpt lat="39.96275333" lon="-0.427805">
        <ele>852.0</ele>
        <time>2017-05-27T07:24:09.176Z</time>
      </trkpt>
      <trkpt lat="39.96275333" lon="-0.427805">
        <ele>852.0</ele>
        <time>2017-05-27T07:24:10.157Z</time>
      </trkpt>
      <trkpt lat="39.96267667" lon="-0.42779333">
        <ele>853.0</ele>
        <time>2017-05-27T07:24:11.187Z</time>
      </trkpt>
      <trkpt lat="39.96267667" lon="-0.42779333">
        <ele>853.0</ele>
        <time>2017-05-27T07:24:12.186Z</time>
      </trkpt>
      <trkpt lat="39.96260833" lon="-0.42779167">
        <ele>854.0</ele>
        <time>2017-05-27T07:24:13.186Z</time>
      </trkpt>
      <trkpt lat="39.96257333" lon="-0.42779">
        <ele>855.0</ele>
        <time>2017-05-27T07:24:14.170Z</time>
      </trkpt>
      <trkpt lat="39.96257333" lon="-0.42779">
        <ele>855.0</ele>
        <time>2017-05-27T07:24:15.162Z</time>
      </trkpt>
      <trkpt lat="39.96250167" lon="-0.42777667">
        <ele>855.0</ele>
        <time>2017-05-27T07:24:16.188Z</time>
      </trkpt>
      <trkpt lat="39.962465" lon="-0.42777833">
        <ele>855.0</ele>
        <time>2017-05-27T07:24:17.197Z</time>
      </trkpt>
      <trkpt lat="39.962465" lon="-0.42777833">
        <ele>855.0</ele>
        <time>2017-05-27T07:24:18.166Z</time>
      </trkpt>
      <trkpt lat="39.96239833" lon="-0.42777167">
        <ele>855.0</ele>
        <time>2017-05-27T07:24:19.194Z</time>
      </trkpt>
      <trkpt lat="39.96236333" lon="-0.42776667">
        <ele>855.0</ele>
        <time>2017-05-27T07:24:20.177Z</time>
      </trkpt>
      <trkpt lat="39.96236333" lon="-0.42776667">
        <ele>855.0</ele>
        <time>2017-05-27T07:24:21.190Z</time>
      </trkpt>
      <trkpt lat="39.96228833" lon="-0.42776333">
        <ele>856.0</ele>
        <time>2017-05-27T07:24:22.166Z</time>
      </trkpt>
      <trkpt lat="39.96228833" lon="-0.42776333">
        <ele>856.0</ele>
        <time>2017-05-27T07:24:23.156Z</time>
      </trkpt>
      <trkpt lat="39.96221667" lon="-0.42776333">
        <ele>856.0</ele>
        <time>2017-05-27T07:24:24.194Z</time>
      </trkpt>
      <trkpt lat="39.96218167" lon="-0.42776667">
        <ele>857.0</ele>
        <time>2017-05-27T07:24:25.182Z</time>
      </trkpt>
      <trkpt lat="39.96218167" lon="-0.42776667">
        <ele>857.0</ele>
        <time>2017-05-27T07:24:26.195Z</time>
      </trkpt>
      <trkpt lat="39.96212667" lon="-0.42777167">
        <ele>857.0</ele>
        <time>2017-05-27T07:24:27.176Z</time>
      </trkpt>
      <trkpt lat="39.96212667" lon="-0.42777167">
        <ele>857.0</ele>
        <time>2017-05-27T07:24:28.170Z</time>
      </trkpt>
      <trkpt lat="39.96206167" lon="-0.42775833">
        <ele>857.0</ele>
        <time>2017-05-27T07:24:29.162Z</time>
      </trkpt>
      <trkpt lat="39.96202833" lon="-0.42774333">
        <ele>856.0</ele>
        <time>2017-05-27T07:24:30.164Z</time>
      </trkpt>
      <trkpt lat="39.96202833" lon="-0.42774333">
        <ele>856.0</ele>
        <time>2017-05-27T07:24:31.167Z</time>
      </trkpt>
      <trkpt lat="39.96197667" lon="-0.42771">
        <ele>857.0</ele>
        <time>2017-05-27T07:24:32.185Z</time>
      </trkpt>
      <trkpt lat="39.96194833" lon="-0.42768833">
        <ele>857.0</ele>
        <time>2017-05-27T07:24:33.178Z</time>
      </trkpt>
      <trkpt lat="39.96194833" lon="-0.42768833">
        <ele>857.0</ele>
        <time>2017-05-27T07:24:34.162Z</time>
      </trkpt>
      <trkpt lat="39.96188333" lon="-0.42764167">
        <ele>857.0</ele>
        <time>2017-05-27T07:24:35.172Z</time>
      </trkpt>
      <trkpt lat="39.96184833" lon="-0.42761667">
        <ele>856.0</ele>
        <time>2017-05-27T07:24:36.192Z</time>
      </trkpt>
      <trkpt lat="39.96184833" lon="-0.42761667">
        <ele>856.0</ele>
        <time>2017-05-27T07:24:37.183Z</time>
      </trkpt>
      <trkpt lat="39.96177167" lon="-0.427585">
        <ele>857.0</ele>
        <time>2017-05-27T07:24:38.181Z</time>
      </trkpt>
      <trkpt lat="39.96173167" lon="-0.42756667">
        <ele>857.0</ele>
        <time>2017-05-27T07:24:39.174Z</time>
      </trkpt>
      <trkpt lat="39.96173167" lon="-0.42756667">
        <ele>857.0</ele>
        <time>2017-05-27T07:24:40.159Z</time>
      </trkpt>
      <trkpt lat="39.96165333" lon="-0.42753333">
        <ele>857.0</ele>
        <time>2017-05-27T07:24:41.159Z</time>
      </trkpt>
      <trkpt lat="39.96165333" lon="-0.42753333">
        <ele>857.0</ele>
        <time>2017-05-27T07:24:42.170Z</time>
      </trkpt>
      <trkpt lat="39.961565" lon="-0.42751167">
        <ele>857.0</ele>
        <time>2017-05-27T07:24:43.200Z</time>
      </trkpt>
      <trkpt lat="39.96151833" lon="-0.42750167">
        <ele>857.0</ele>
        <time>2017-05-27T07:24:44.194Z</time>
      </trkpt>
      <trkpt lat="39.96151833" lon="-0.42750167">
        <ele>857.0</ele>
        <time>2017-05-27T07:24:45.169Z</time>
      </trkpt>
      <trkpt lat="39.96141833" lon="-0.42748167">
        <ele>857.0</ele>
        <time>2017-05-27T07:24:46.162Z</time>
      </trkpt>
      <trkpt lat="39.96136667" lon="-0.427465">
        <ele>857.0</ele>
        <time>2017-05-27T07:24:47.169Z</time>
      </trkpt>
      <trkpt lat="39.96136667" lon="-0.427465">
        <ele>857.0</ele>
        <time>2017-05-27T07:24:48.196Z</time>
      </trkpt>
      <trkpt lat="39.961255" lon="-0.42742833">
        <ele>857.0</ele>
        <time>2017-05-27T07:24:49.188Z</time>
      </trkpt>
      <trkpt lat="39.96119667" lon="-0.427405">
        <ele>857.0</ele>
        <time>2017-05-27T07:24:50.156Z</time>
      </trkpt>
      <trkpt lat="39.96119667" lon="-0.427405">
        <ele>857.0</ele>
        <time>2017-05-27T07:24:51.158Z</time>
      </trkpt>
      <trkpt lat="39.961075" lon="-0.42736167">
        <ele>857.0</ele>
        <time>2017-05-27T07:24:52.184Z</time>
      </trkpt>
      <trkpt lat="39.961075" lon="-0.42736167">
        <ele>857.0</ele>
        <time>2017-05-27T07:24:53.182Z</time>
      </trkpt>
      <trkpt lat="39.96095167" lon="-0.42731667">
        <ele>856.0</ele>
        <time>2017-05-27T07:24:54.162Z</time>
      </trkpt>
      <trkpt lat="39.96089333" lon="-0.42729">
        <ele>856.0</ele>
        <time>2017-05-27T07:24:55.188Z</time>
      </trkpt>
      <trkpt lat="39.96083667" lon="-0.42726333">
        <ele>856.0</ele>
        <time>2017-05-27T07:24:56.170Z</time>
      </trkpt>
      <trkpt lat="39.96083667" lon="-0.42726333">
        <ele>856.0</ele>
        <time>2017-05-27T07:24:57.182Z</time>
      </trkpt>
      <trkpt lat="39.96073" lon="-0.427195">
        <ele>856.0</ele>
        <time>2017-05-27T07:24:58.232Z</time>
      </trkpt>
      <trkpt lat="39.96073" lon="-0.427195">
        <ele>856.0</ele>
        <time>2017-05-27T07:24:59.167Z</time>
      </trkpt>
      <trkpt lat="39.96063667" lon="-0.427105">
        <ele>856.0</ele>
        <time>2017-05-27T07:25:00.186Z</time>
      </trkpt>
      <trkpt lat="39.96059667" lon="-0.42704667">
        <ele>855.0</ele>
        <time>2017-05-27T07:25:01.175Z</time>
      </trkpt>
      <trkpt lat="39.96056667" lon="-0.42698">
        <ele>855.0</ele>
        <time>2017-05-27T07:25:02.166Z</time>
      </trkpt>
      <trkpt lat="39.96056667" lon="-0.42698">
        <ele>855.0</ele>
        <time>2017-05-27T07:25:03.187Z</time>
      </trkpt>
      <trkpt lat="39.960515" lon="-0.42684167">
        <ele>855.0</ele>
        <time>2017-05-27T07:25:04.164Z</time>
      </trkpt>
      <trkpt lat="39.960515" lon="-0.42684167">
        <ele>855.0</ele>
        <time>2017-05-27T07:25:05.178Z</time>
      </trkpt>
      <trkpt lat="39.96046333" lon="-0.42669167">
        <ele>854.0</ele>
        <time>2017-05-27T07:25:06.159Z</time>
      </trkpt>
      <trkpt lat="39.96043667" lon="-0.426615">
        <ele>854.0</ele>
        <time>2017-05-27T07:25:07.169Z</time>
      </trkpt>
      <trkpt lat="39.96043667" lon="-0.426615">
        <ele>854.0</ele>
        <time>2017-05-27T07:25:08.166Z</time>
      </trkpt>
      <trkpt lat="39.96038833" lon="-0.426445">
        <ele>853.0</ele>
        <time>2017-05-27T07:25:09.186Z</time>
      </trkpt>
      <trkpt lat="39.96038833" lon="-0.426445">
        <ele>853.0</ele>
        <time>2017-05-27T07:25:10.156Z</time>
      </trkpt>
      <trkpt lat="39.96036833" lon="-0.426255">
        <ele>852.0</ele>
        <time>2017-05-27T07:25:11.189Z</time>
      </trkpt>
      <trkpt lat="39.96036833" lon="-0.426255">
        <ele>852.0</ele>
        <time>2017-05-27T07:25:12.159Z</time>
      </trkpt>
      <trkpt lat="39.96036833" lon="-0.426045">
        <ele>851.0</ele>
        <time>2017-05-27T07:25:13.163Z</time>
      </trkpt>
      <trkpt lat="39.96036667" lon="-0.42593667">
        <ele>851.0</ele>
        <time>2017-05-27T07:25:14.169Z</time>
      </trkpt>
      <trkpt lat="39.960365" lon="-0.42582333">
        <ele>850.0</ele>
        <time>2017-05-27T07:25:15.166Z</time>
      </trkpt>
      <trkpt lat="39.960365" lon="-0.42582333">
        <ele>850.0</ele>
        <time>2017-05-27T07:25:16.190Z</time>
      </trkpt>
      <trkpt lat="39.96032833" lon="-0.425595">
        <ele>849.0</ele>
        <time>2017-05-27T07:25:17.170Z</time>
      </trkpt>
      <trkpt lat="39.96028833" lon="-0.42548833">
        <ele>849.0</ele>
        <time>2017-05-27T07:25:18.186Z</time>
      </trkpt>
      <trkpt lat="39.96028833" lon="-0.42548833">
        <ele>849.0</ele>
        <time>2017-05-27T07:25:19.159Z</time>
      </trkpt>
      <trkpt lat="39.960195" lon="-0.42528167">
        <ele>848.0</ele>
        <time>2017-05-27T07:25:20.182Z</time>
      </trkpt>
      <trkpt lat="39.960195" lon="-0.42528167">
        <ele>848.0</ele>
        <time>2017-05-27T07:25:21.162Z</time>
      </trkpt>
      <trkpt lat="39.96011833" lon="-0.42506833">
        <ele>848.0</ele>
        <time>2017-05-27T07:25:22.193Z</time>
      </trkpt>
      <trkpt lat="39.96011833" lon="-0.42506833">
        <ele>848.0</ele>
        <time>2017-05-27T07:25:23.167Z</time>
      </trkpt>
      <trkpt lat="39.96007" lon="-0.42486833">
        <ele>849.0</ele>
        <time>2017-05-27T07:25:24.194Z</time>
      </trkpt>
      <trkpt lat="39.96007" lon="-0.42486833">
        <ele>849.0</ele>
        <time>2017-05-27T07:25:25.173Z</time>
      </trkpt>
      <trkpt lat="39.96005333" lon="-0.42471667">
        <ele>851.0</ele>
        <time>2017-05-27T07:25:26.190Z</time>
      </trkpt>
      <trkpt lat="39.96005333" lon="-0.42471667">
        <ele>851.0</ele>
        <time>2017-05-27T07:25:27.181Z</time>
      </trkpt>
      <trkpt lat="39.96005167" lon="-0.4246">
        <ele>851.0</ele>
        <time>2017-05-27T07:25:28.165Z</time>
      </trkpt>
      <trkpt lat="39.96005" lon="-0.42455333">
        <ele>852.0</ele>
        <time>2017-05-27T07:25:29.172Z</time>
      </trkpt>
      <trkpt lat="39.960045" lon="-0.42451">
        <ele>852.0</ele>
        <time>2017-05-27T07:25:30.173Z</time>
      </trkpt>
      <trkpt lat="39.960045" lon="-0.42451">
        <ele>852.0</ele>
        <time>2017-05-27T07:25:31.184Z</time>
      </trkpt>
      <trkpt lat="39.96003333" lon="-0.42442667">
        <ele>852.0</ele>
        <time>2017-05-27T07:25:32.183Z</time>
      </trkpt>
      <trkpt lat="39.96003333" lon="-0.42442667">
        <ele>852.0</ele>
        <time>2017-05-27T07:25:33.193Z</time>
      </trkpt>
      <trkpt lat="39.960015" lon="-0.42434833">
        <ele>853.0</ele>
        <time>2017-05-27T07:25:34.197Z</time>
      </trkpt>
      <trkpt lat="39.960015" lon="-0.42434833">
        <ele>853.0</ele>
        <time>2017-05-27T07:25:35.190Z</time>
      </trkpt>
      <trkpt lat="39.95999833" lon="-0.42427">
        <ele>853.0</ele>
        <time>2017-05-27T07:25:36.175Z</time>
      </trkpt>
      <trkpt lat="39.95999833" lon="-0.42427">
        <ele>853.0</ele>
        <time>2017-05-27T07:25:37.161Z</time>
      </trkpt>
      <trkpt lat="39.95998667" lon="-0.42418333">
        <ele>854.0</ele>
        <time>2017-05-27T07:25:38.180Z</time>
      </trkpt>
      <trkpt lat="39.95997667" lon="-0.42414167">
        <ele>854.0</ele>
        <time>2017-05-27T07:25:39.158Z</time>
      </trkpt>
      <trkpt lat="39.95997667" lon="-0.42414167">
        <ele>854.0</ele>
        <time>2017-05-27T07:25:40.157Z</time>
      </trkpt>
      <trkpt lat="39.95995833" lon="-0.42406333">
        <ele>855.0</ele>
        <time>2017-05-27T07:25:41.176Z</time>
      </trkpt>
      <trkpt lat="39.95995333" lon="-0.424025">
        <ele>855.0</ele>
        <time>2017-05-27T07:25:42.165Z</time>
      </trkpt>
      <trkpt lat="39.95995333" lon="-0.424025">
        <ele>855.0</ele>
        <time>2017-05-27T07:25:43.179Z</time>
      </trkpt>
      <trkpt lat="39.959945" lon="-0.42395167">
        <ele>856.0</ele>
        <time>2017-05-27T07:25:44.160Z</time>
      </trkpt>
      <trkpt lat="39.95994167" lon="-0.42391667">
        <ele>856.0</ele>
        <time>2017-05-27T07:25:45.171Z</time>
      </trkpt>
      <trkpt lat="39.95994167" lon="-0.42391667">
        <ele>856.0</ele>
        <time>2017-05-27T07:25:46.169Z</time>
      </trkpt>
      <trkpt lat="39.95993833" lon="-0.42385167">
        <ele>857.0</ele>
        <time>2017-05-27T07:25:47.192Z</time>
      </trkpt>
      <trkpt lat="39.95993833" lon="-0.42385167">
        <ele>857.0</ele>
        <time>2017-05-27T07:25:48.160Z</time>
      </trkpt>
      <trkpt lat="39.95994167" lon="-0.42378833">
        <ele>858.0</ele>
        <time>2017-05-27T07:25:49.173Z</time>
      </trkpt>
      <trkpt lat="39.95994167" lon="-0.42378833">
        <ele>858.0</ele>
        <time>2017-05-27T07:25:50.158Z</time>
      </trkpt>
      <trkpt lat="39.95994833" lon="-0.42372">
        <ele>858.0</ele>
        <time>2017-05-27T07:25:51.183Z</time>
      </trkpt>
      <trkpt lat="39.95994833" lon="-0.42372">
        <ele>858.0</ele>
        <time>2017-05-27T07:25:52.158Z</time>
      </trkpt>
      <trkpt lat="39.95995833" lon="-0.42364333">
        <ele>859.0</ele>
        <time>2017-05-27T07:25:53.176Z</time>
      </trkpt>
      <trkpt lat="39.95995833" lon="-0.42364333">
        <ele>859.0</ele>
        <time>2017-05-27T07:25:54.188Z</time>
      </trkpt>
      <trkpt lat="39.95996833" lon="-0.42356167">
        <ele>860.0</ele>
        <time>2017-05-27T07:25:55.161Z</time>
      </trkpt>
      <trkpt lat="39.95996333" lon="-0.423525">
        <ele>860.0</ele>
        <time>2017-05-27T07:25:56.160Z</time>
      </trkpt>
      <trkpt lat="39.95996333" lon="-0.423525">
        <ele>860.0</ele>
        <time>2017-05-27T07:25:57.182Z</time>
      </trkpt>
      <trkpt lat="39.959965" lon="-0.42343833">
        <ele>861.0</ele>
        <time>2017-05-27T07:25:58.193Z</time>
      </trkpt>
      <trkpt lat="39.959965" lon="-0.42343833">
        <ele>861.0</ele>
        <time>2017-05-27T07:25:59.174Z</time>
      </trkpt>
      <trkpt lat="39.95997" lon="-0.42335167">
        <ele>862.0</ele>
        <time>2017-05-27T07:26:00.193Z</time>
      </trkpt>
      <trkpt lat="39.95997" lon="-0.42335167">
        <ele>862.0</ele>
        <time>2017-05-27T07:26:01.168Z</time>
      </trkpt>
      <trkpt lat="39.95996667" lon="-0.42326333">
        <ele>862.0</ele>
        <time>2017-05-27T07:26:02.161Z</time>
      </trkpt>
      <trkpt lat="39.95996667" lon="-0.42326333">
        <ele>862.0</ele>
        <time>2017-05-27T07:26:03.179Z</time>
      </trkpt>
      <trkpt lat="39.959965" lon="-0.42317667">
        <ele>862.0</ele>
        <time>2017-05-27T07:26:04.172Z</time>
      </trkpt>
      <trkpt lat="39.95996" lon="-0.423135">
        <ele>862.0</ele>
        <time>2017-05-27T07:26:05.159Z</time>
      </trkpt>
      <trkpt lat="39.95996" lon="-0.423135">
        <ele>862.0</ele>
        <time>2017-05-27T07:26:06.159Z</time>
      </trkpt>
      <trkpt lat="39.95995333" lon="-0.42305167">
        <ele>863.0</ele>
        <time>2017-05-27T07:26:07.167Z</time>
      </trkpt>
      <trkpt lat="39.95994833" lon="-0.42301333">
        <ele>863.0</ele>
        <time>2017-05-27T07:26:08.192Z</time>
      </trkpt>
      <trkpt lat="39.95994333" lon="-0.42297833">
        <ele>863.0</ele>
        <time>2017-05-27T07:26:09.160Z</time>
      </trkpt>
      <trkpt lat="39.95994333" lon="-0.42297833">
        <ele>863.0</ele>
        <time>2017-05-27T07:26:10.159Z</time>
      </trkpt>
      <trkpt lat="39.959925" lon="-0.42291167">
        <ele>863.0</ele>
        <time>2017-05-27T07:26:11.188Z</time>
      </trkpt>
      <trkpt lat="39.959925" lon="-0.42291167">
        <ele>863.0</ele>
        <time>2017-05-27T07:26:12.157Z</time>
      </trkpt>
      <trkpt lat="39.959885" lon="-0.42285667">
        <ele>863.0</ele>
        <time>2017-05-27T07:26:13.172Z</time>
      </trkpt>
      <trkpt lat="39.95985833" lon="-0.42282833">
        <ele>862.0</ele>
        <time>2017-05-27T07:26:14.172Z</time>
      </trkpt>
      <trkpt lat="39.95985833" lon="-0.42282833">
        <ele>862.0</ele>
        <time>2017-05-27T07:26:15.182Z</time>
      </trkpt>
      <trkpt lat="39.95979833" lon="-0.42276667">
        <ele>862.0</ele>
        <time>2017-05-27T07:26:16.184Z</time>
      </trkpt>
      <trkpt lat="39.95975833" lon="-0.42273167">
        <ele>862.0</ele>
        <time>2017-05-27T07:26:17.172Z</time>
      </trkpt>
      <trkpt lat="39.95975833" lon="-0.42273167">
        <ele>862.0</ele>
        <time>2017-05-27T07:26:18.184Z</time>
      </trkpt>
      <trkpt lat="39.95966667" lon="-0.42265167">
        <ele>860.0</ele>
        <time>2017-05-27T07:26:19.171Z</time>
      </trkpt>
      <trkpt lat="39.95966667" lon="-0.42265167">
        <ele>860.0</ele>
        <time>2017-05-27T07:26:20.190Z</time>
      </trkpt>
      <trkpt lat="39.95956667" lon="-0.42252667">
        <ele>859.0</ele>
        <time>2017-05-27T07:26:21.193Z</time>
      </trkpt>
      <trkpt lat="39.95956667" lon="-0.42252667">
        <ele>859.0</ele>
        <time>2017-05-27T07:26:22.180Z</time>
      </trkpt>
      <trkpt lat="39.95947" lon="-0.422375">
        <ele>857.0</ele>
        <time>2017-05-27T07:26:23.166Z</time>
      </trkpt>
      <trkpt lat="39.95947" lon="-0.422375">
        <ele>857.0</ele>
        <time>2017-05-27T07:26:24.183Z</time>
      </trkpt>
      <trkpt lat="39.95937333" lon="-0.42219667">
        <ele>856.0</ele>
        <time>2017-05-27T07:26:25.157Z</time>
      </trkpt>
      <trkpt lat="39.95937333" lon="-0.42219667">
        <ele>856.0</ele>
        <time>2017-05-27T07:26:26.159Z</time>
      </trkpt>
      <trkpt lat="39.959275" lon="-0.42202667">
        <ele>855.0</ele>
        <time>2017-05-27T07:26:27.182Z</time>
      </trkpt>
      <trkpt lat="39.959275" lon="-0.42202667">
        <ele>855.0</ele>
        <time>2017-05-27T07:26:28.160Z</time>
      </trkpt>
      <trkpt lat="39.95918333" lon="-0.42184833">
        <ele>855.0</ele>
        <time>2017-05-27T07:26:29.163Z</time>
      </trkpt>
      <trkpt lat="39.95918333" lon="-0.42184833">
        <ele>855.0</ele>
        <time>2017-05-27T07:26:30.163Z</time>
      </trkpt>
      <trkpt lat="39.959095" lon="-0.42168667">
        <ele>856.0</ele>
        <time>2017-05-27T07:26:31.192Z</time>
      </trkpt>
      <trkpt lat="39.959095" lon="-0.42168667">
        <ele>856.0</ele>
        <time>2017-05-27T07:26:32.172Z</time>
      </trkpt>
      <trkpt lat="39.95903167" lon="-0.42153167">
        <ele>855.0</ele>
        <time>2017-05-27T07:26:33.193Z</time>
      </trkpt>
      <trkpt lat="39.95903167" lon="-0.42153167">
        <ele>855.0</ele>
        <time>2017-05-27T07:26:34.167Z</time>
      </trkpt>
      <trkpt lat="39.95898833" lon="-0.42137167">
        <ele>856.0</ele>
        <time>2017-05-27T07:26:35.195Z</time>
      </trkpt>
      <trkpt lat="39.95898833" lon="-0.42137167">
        <ele>856.0</ele>
        <time>2017-05-27T07:26:36.171Z</time>
      </trkpt>
      <trkpt lat="39.95894167" lon="-0.42121167">
        <ele>855.0</ele>
        <time>2017-05-27T07:26:37.189Z</time>
      </trkpt>
      <trkpt lat="39.95894167" lon="-0.42121167">
        <ele>855.0</ele>
        <time>2017-05-27T07:26:38.169Z</time>
      </trkpt>
      <trkpt lat="39.95889333" lon="-0.42105833">
        <ele>855.0</ele>
        <time>2017-05-27T07:26:39.162Z</time>
      </trkpt>
      <trkpt lat="39.95887667" lon="-0.42098">
        <ele>856.0</ele>
        <time>2017-05-27T07:26:40.170Z</time>
      </trkpt>
      <trkpt lat="39.95887667" lon="-0.42098">
        <ele>856.0</ele>
        <time>2017-05-27T07:26:41.168Z</time>
      </trkpt>
      <trkpt lat="39.95885333" lon="-0.42082833">
        <ele>856.0</ele>
        <time>2017-05-27T07:26:42.157Z</time>
      </trkpt>
      <trkpt lat="39.95885333" lon="-0.42082833">
        <ele>856.0</ele>
        <time>2017-05-27T07:26:43.161Z</time>
      </trkpt>
      <trkpt lat="39.95884333" lon="-0.42067167">
        <ele>856.0</ele>
        <time>2017-05-27T07:26:44.186Z</time>
      </trkpt>
      <trkpt lat="39.95884333" lon="-0.42067167">
        <ele>856.0</ele>
        <time>2017-05-27T07:26:45.188Z</time>
      </trkpt>
      <trkpt lat="39.95882833" lon="-0.42052167">
        <ele>857.0</ele>
        <time>2017-05-27T07:26:46.190Z</time>
      </trkpt>
      <trkpt lat="39.95882167" lon="-0.42044833">
        <ele>857.0</ele>
        <time>2017-05-27T07:26:47.188Z</time>
      </trkpt>
      <trkpt lat="39.95882167" lon="-0.42044833">
        <ele>857.0</ele>
        <time>2017-05-27T07:26:48.181Z</time>
      </trkpt>
      <trkpt lat="39.95880167" lon="-0.420305">
        <ele>857.0</ele>
        <time>2017-05-27T07:26:49.162Z</time>
      </trkpt>
      <trkpt lat="39.95878833" lon="-0.42023333">
        <ele>857.0</ele>
        <time>2017-05-27T07:26:50.189Z</time>
      </trkpt>
      <trkpt lat="39.95878833" lon="-0.42023333">
        <ele>857.0</ele>
        <time>2017-05-27T07:26:51.160Z</time>
      </trkpt>
      <trkpt lat="39.95876333" lon="-0.42008333">
        <ele>857.0</ele>
        <time>2017-05-27T07:26:52.196Z</time>
      </trkpt>
      <trkpt lat="39.95876333" lon="-0.42008333">
        <ele>857.0</ele>
        <time>2017-05-27T07:26:53.174Z</time>
      </trkpt>
      <trkpt lat="39.95874167" lon="-0.41992667">
        <ele>857.0</ele>
        <time>2017-05-27T07:26:54.162Z</time>
      </trkpt>
      <trkpt lat="39.95874167" lon="-0.41992667">
        <ele>857.0</ele>
        <time>2017-05-27T07:26:55.171Z</time>
      </trkpt>
      <trkpt lat="39.95871667" lon="-0.41976833">
        <ele>857.0</ele>
        <time>2017-05-27T07:26:56.159Z</time>
      </trkpt>
      <trkpt lat="39.95871667" lon="-0.41976833">
        <ele>857.0</ele>
        <time>2017-05-27T07:26:57.185Z</time>
      </trkpt>
      <trkpt lat="39.95869" lon="-0.41961167">
        <ele>857.0</ele>
        <time>2017-05-27T07:26:58.164Z</time>
      </trkpt>
      <trkpt lat="39.95867333" lon="-0.419535">
        <ele>857.0</ele>
        <time>2017-05-27T07:26:59.191Z</time>
      </trkpt>
      <trkpt lat="39.95867333" lon="-0.419535">
        <ele>857.0</ele>
        <time>2017-05-27T07:27:00.168Z</time>
      </trkpt>
      <trkpt lat="39.95863667" lon="-0.41937833">
        <ele>856.0</ele>
        <time>2017-05-27T07:27:01.156Z</time>
      </trkpt>
      <trkpt lat="39.95861833" lon="-0.419295">
        <ele>856.0</ele>
        <time>2017-05-27T07:27:02.191Z</time>
      </trkpt>
      <trkpt lat="39.95861833" lon="-0.419295">
        <ele>856.0</ele>
        <time>2017-05-27T07:27:03.179Z</time>
      </trkpt>
      <trkpt lat="39.95857" lon="-0.41912667">
        <ele>855.0</ele>
        <time>2017-05-27T07:27:04.180Z</time>
      </trkpt>
      <trkpt lat="39.958535" lon="-0.41904">
        <ele>854.0</ele>
        <time>2017-05-27T07:27:05.158Z</time>
      </trkpt>
      <trkpt lat="39.95849" lon="-0.41895667">
        <ele>854.0</ele>
        <time>2017-05-27T07:27:06.192Z</time>
      </trkpt>
      <trkpt lat="39.95849" lon="-0.41895667">
        <ele>854.0</ele>
        <time>2017-05-27T07:27:07.187Z</time>
      </trkpt>
      <trkpt lat="39.95837333" lon="-0.41884333">
        <ele>853.0</ele>
        <time>2017-05-27T07:27:08.172Z</time>
      </trkpt>
      <trkpt lat="39.95831167" lon="-0.41879833">
        <ele>853.0</ele>
        <time>2017-05-27T07:27:09.169Z</time>
      </trkpt>
      <trkpt lat="39.95831167" lon="-0.41879833">
        <ele>853.0</ele>
        <time>2017-05-27T07:27:10.179Z</time>
      </trkpt>
      <trkpt lat="39.95818667" lon="-0.41869667">
        <ele>852.0</ele>
        <time>2017-05-27T07:27:11.164Z</time>
      </trkpt>
      <trkpt lat="39.95813167" lon="-0.41863333">
        <ele>852.0</ele>
        <time>2017-05-27T07:27:12.174Z</time>
      </trkpt>
      <trkpt lat="39.95813167" lon="-0.41863333">
        <ele>852.0</ele>
        <time>2017-05-27T07:27:13.194Z</time>
      </trkpt>
      <trkpt lat="39.95802333" lon="-0.41850333">
        <ele>853.0</ele>
        <time>2017-05-27T07:27:14.183Z</time>
      </trkpt>
      <trkpt lat="39.95802333" lon="-0.41850333">
        <ele>853.0</ele>
        <time>2017-05-27T07:27:15.174Z</time>
      </trkpt>
      <trkpt lat="39.95793167" lon="-0.41836667">
        <ele>853.0</ele>
        <time>2017-05-27T07:27:16.165Z</time>
      </trkpt>
      <trkpt lat="39.95789333" lon="-0.41829833">
        <ele>853.0</ele>
        <time>2017-05-27T07:27:17.163Z</time>
      </trkpt>
      <trkpt lat="39.95789333" lon="-0.41829833">
        <ele>853.0</ele>
        <time>2017-05-27T07:27:18.190Z</time>
      </trkpt>
      <trkpt lat="39.95781833" lon="-0.41816833">
        <ele>853.0</ele>
        <time>2017-05-27T07:27:19.181Z</time>
      </trkpt>
      <trkpt lat="39.95781833" lon="-0.41816833">
        <ele>853.0</ele>
        <time>2017-05-27T07:27:20.161Z</time>
      </trkpt>
      <trkpt lat="39.95774333" lon="-0.418035">
        <ele>853.0</ele>
        <time>2017-05-27T07:27:21.197Z</time>
      </trkpt>
      <trkpt lat="39.95774333" lon="-0.418035">
        <ele>853.0</ele>
        <time>2017-05-27T07:27:22.185Z</time>
      </trkpt>
      <trkpt lat="39.95768333" lon="-0.41790167">
        <ele>853.0</ele>
        <time>2017-05-27T07:27:23.181Z</time>
      </trkpt>
      <trkpt lat="39.95768333" lon="-0.41790167">
        <ele>853.0</ele>
        <time>2017-05-27T07:27:24.184Z</time>
      </trkpt>
      <trkpt lat="39.95764167" lon="-0.41776333">
        <ele>853.0</ele>
        <time>2017-05-27T07:27:25.169Z</time>
      </trkpt>
      <trkpt lat="39.95762" lon="-0.41769833">
        <ele>853.0</ele>
        <time>2017-05-27T07:27:26.181Z</time>
      </trkpt>
      <trkpt lat="39.95762" lon="-0.41769833">
        <ele>853.0</ele>
        <time>2017-05-27T07:27:27.159Z</time>
      </trkpt>
      <trkpt lat="39.957575" lon="-0.41756833">
        <ele>853.0</ele>
        <time>2017-05-27T07:27:28.192Z</time>
      </trkpt>
      <trkpt lat="39.95755" lon="-0.4175">
        <ele>853.0</ele>
        <time>2017-05-27T07:27:29.196Z</time>
      </trkpt>
      <trkpt lat="39.95755" lon="-0.4175">
        <ele>853.0</ele>
        <time>2017-05-27T07:27:30.162Z</time>
      </trkpt>
      <trkpt lat="39.95747" lon="-0.417375">
        <ele>852.0</ele>
        <time>2017-05-27T07:27:31.187Z</time>
      </trkpt>
      <trkpt lat="39.95742167" lon="-0.41730833">
        <ele>851.0</ele>
        <time>2017-05-27T07:27:32.162Z</time>
      </trkpt>
      <trkpt lat="39.95742167" lon="-0.41730833">
        <ele>851.0</ele>
        <time>2017-05-27T07:27:33.157Z</time>
      </trkpt>
      <trkpt lat="39.95733167" lon="-0.41713833">
        <ele>851.0</ele>
        <time>2017-05-27T07:27:34.187Z</time>
      </trkpt>
      <trkpt lat="39.95733167" lon="-0.41713833">
        <ele>851.0</ele>
        <time>2017-05-27T07:27:35.184Z</time>
      </trkpt>
      <trkpt lat="39.95727" lon="-0.41694333">
        <ele>850.0</ele>
        <time>2017-05-27T07:27:36.162Z</time>
      </trkpt>
      <trkpt lat="39.95724333" lon="-0.41685">
        <ele>850.0</ele>
        <time>2017-05-27T07:27:37.158Z</time>
      </trkpt>
      <trkpt lat="39.95724333" lon="-0.41685">
        <ele>850.0</ele>
        <time>2017-05-27T07:27:38.188Z</time>
      </trkpt>
      <trkpt lat="39.95714833" lon="-0.41669667">
        <ele>848.0</ele>
        <time>2017-05-27T07:27:39.192Z</time>
      </trkpt>
      <trkpt lat="39.95714833" lon="-0.41669667">
        <ele>848.0</ele>
        <time>2017-05-27T07:27:40.167Z</time>
      </trkpt>
      <trkpt lat="39.95703833" lon="-0.41654167">
        <ele>845.0</ele>
        <time>2017-05-27T07:27:41.196Z</time>
      </trkpt>
      <trkpt lat="39.95703833" lon="-0.41654167">
        <ele>845.0</ele>
        <time>2017-05-27T07:27:42.194Z</time>
      </trkpt>
      <trkpt lat="39.95694167" lon="-0.416355">
        <ele>842.0</ele>
        <time>2017-05-27T07:27:43.181Z</time>
      </trkpt>
      <trkpt lat="39.9569" lon="-0.416245">
        <ele>840.0</ele>
        <time>2017-05-27T07:27:44.192Z</time>
      </trkpt>
      <trkpt lat="39.9569" lon="-0.416245">
        <ele>840.0</ele>
        <time>2017-05-27T07:27:45.166Z</time>
      </trkpt>
      <trkpt lat="39.95683833" lon="-0.415995">
        <ele>837.0</ele>
        <time>2017-05-27T07:27:46.195Z</time>
      </trkpt>
      <trkpt lat="39.95682" lon="-0.41586167">
        <ele>836.0</ele>
        <time>2017-05-27T07:27:47.191Z</time>
      </trkpt>
      <trkpt lat="39.95682" lon="-0.41586167">
        <ele>836.0</ele>
        <time>2017-05-27T07:27:48.165Z</time>
      </trkpt>
      <trkpt lat="39.95681333" lon="-0.41558833">
        <ele>833.0</ele>
        <time>2017-05-27T07:27:49.195Z</time>
      </trkpt>
      <trkpt lat="39.95681333" lon="-0.41558833">
        <ele>833.0</ele>
        <time>2017-05-27T07:27:50.161Z</time>
      </trkpt>
      <trkpt lat="39.95680833" lon="-0.41533167">
        <ele>831.0</ele>
        <time>2017-05-27T07:27:51.169Z</time>
      </trkpt>
      <trkpt lat="39.95680833" lon="-0.41533167">
        <ele>831.0</ele>
        <time>2017-05-27T07:27:52.159Z</time>
      </trkpt>
      <trkpt lat="39.95677167" lon="-0.41510167">
        <ele>829.0</ele>
        <time>2017-05-27T07:27:53.192Z</time>
      </trkpt>
      <trkpt lat="39.95674833" lon="-0.415">
        <ele>828.0</ele>
        <time>2017-05-27T07:27:54.192Z</time>
      </trkpt>
      <trkpt lat="39.95674833" lon="-0.415">
        <ele>828.0</ele>
        <time>2017-05-27T07:27:55.157Z</time>
      </trkpt>
      <trkpt lat="39.956655" lon="-0.414835">
        <ele>825.0</ele>
        <time>2017-05-27T07:27:56.181Z</time>
      </trkpt>
      <trkpt lat="39.956655" lon="-0.414835">
        <ele>825.0</ele>
        <time>2017-05-27T07:27:57.176Z</time>
      </trkpt>
      <trkpt lat="39.95651167" lon="-0.41466667">
        <ele>822.0</ele>
        <time>2017-05-27T07:27:58.166Z</time>
      </trkpt>
      <trkpt lat="39.95643333" lon="-0.414555">
        <ele>821.0</ele>
        <time>2017-05-27T07:27:59.163Z</time>
      </trkpt>
      <trkpt lat="39.95643333" lon="-0.414555">
        <ele>821.0</ele>
        <time>2017-05-27T07:28:00.179Z</time>
      </trkpt>
      <trkpt lat="39.9563" lon="-0.41431">
        <ele>818.0</ele>
        <time>2017-05-27T07:28:01.163Z</time>
      </trkpt>
      <trkpt lat="39.956235" lon="-0.41419333">
        <ele>817.0</ele>
        <time>2017-05-27T07:28:02.161Z</time>
      </trkpt>
      <trkpt lat="39.956235" lon="-0.41419333">
        <ele>817.0</ele>
        <time>2017-05-27T07:28:03.177Z</time>
      </trkpt>
      <trkpt lat="39.95611167" lon="-0.413975">
        <ele>815.0</ele>
        <time>2017-05-27T07:28:04.166Z</time>
      </trkpt>
      <trkpt lat="39.95605167" lon="-0.41387167">
        <ele>813.0</ele>
        <time>2017-05-27T07:28:05.182Z</time>
      </trkpt>
      <trkpt lat="39.95605167" lon="-0.41387167">
        <ele>813.0</ele>
        <time>2017-05-27T07:28:06.163Z</time>
      </trkpt>
      <trkpt lat="39.95595" lon="-0.41367667">
        <ele>811.0</ele>
        <time>2017-05-27T07:28:07.187Z</time>
      </trkpt>
      <trkpt lat="39.95591833" lon="-0.413565">
        <ele>810.0</ele>
        <time>2017-05-27T07:28:08.188Z</time>
      </trkpt>
      <trkpt lat="39.95590167" lon="-0.41344667">
        <ele>810.0</ele>
        <time>2017-05-27T07:28:09.181Z</time>
      </trkpt>
      <trkpt lat="39.95590167" lon="-0.41344667">
        <ele>810.0</ele>
        <time>2017-05-27T07:28:10.175Z</time>
      </trkpt>
      <trkpt lat="39.95586167" lon="-0.41322">
        <ele>808.0</ele>
        <time>2017-05-27T07:28:11.157Z</time>
      </trkpt>
      <trkpt lat="39.95586167" lon="-0.41322">
        <ele>808.0</ele>
        <time>2017-05-27T07:28:12.158Z</time>
      </trkpt>
      <trkpt lat="39.95578667" lon="-0.41301167">
        <ele>806.0</ele>
        <time>2017-05-27T07:28:13.174Z</time>
      </trkpt>
      <trkpt lat="39.95573833" lon="-0.41290667">
        <ele>805.0</ele>
        <time>2017-05-27T07:28:14.181Z</time>
      </trkpt>
      <trkpt lat="39.95573833" lon="-0.41290667">
        <ele>805.0</ele>
        <time>2017-05-27T07:28:15.176Z</time>
      </trkpt>
      <trkpt lat="39.95563" lon="-0.41268667">
        <ele>802.0</ele>
        <time>2017-05-27T07:28:16.160Z</time>
      </trkpt>
      <trkpt lat="39.95557667" lon="-0.41257">
        <ele>802.0</ele>
        <time>2017-05-27T07:28:17.166Z</time>
      </trkpt>
      <trkpt lat="39.95552667" lon="-0.41246">
        <ele>801.0</ele>
        <time>2017-05-27T07:28:18.192Z</time>
      </trkpt>
      <trkpt lat="39.95552667" lon="-0.41246">
        <ele>801.0</ele>
        <time>2017-05-27T07:28:19.181Z</time>
      </trkpt>
      <trkpt lat="39.95546333" lon="-0.41225167">
        <ele>800.0</ele>
        <time>2017-05-27T07:28:20.164Z</time>
      </trkpt>
      <trkpt lat="39.95546333" lon="-0.41225167">
        <ele>800.0</ele>
        <time>2017-05-27T07:28:21.185Z</time>
      </trkpt>
      <trkpt lat="39.95546667" lon="-0.41205667">
        <ele>798.0</ele>
        <time>2017-05-27T07:28:22.167Z</time>
      </trkpt>
      <trkpt lat="39.95546667" lon="-0.41205667">
        <ele>798.0</ele>
        <time>2017-05-27T07:28:23.177Z</time>
      </trkpt>
      <trkpt lat="39.955455" lon="-0.411845">
        <ele>795.0</ele>
        <time>2017-05-27T07:28:24.197Z</time>
      </trkpt>
      <trkpt lat="39.955425" lon="-0.411735">
        <ele>794.0</ele>
        <time>2017-05-27T07:28:25.192Z</time>
      </trkpt>
      <trkpt lat="39.955425" lon="-0.411735">
        <ele>794.0</ele>
        <time>2017-05-27T07:28:26.164Z</time>
      </trkpt>
      <trkpt lat="39.955315" lon="-0.41154">
        <ele>792.0</ele>
        <time>2017-05-27T07:28:27.181Z</time>
      </trkpt>
      <trkpt lat="39.955315" lon="-0.41154">
        <ele>792.0</ele>
        <time>2017-05-27T07:28:28.161Z</time>
      </trkpt>
      <trkpt lat="39.95515167" lon="-0.41144167">
        <ele>792.0</ele>
        <time>2017-05-27T07:28:29.188Z</time>
      </trkpt>
      <trkpt lat="39.95515167" lon="-0.41144167">
        <ele>792.0</ele>
        <time>2017-05-27T07:28:30.164Z</time>
      </trkpt>
      <trkpt lat="39.954985" lon="-0.41137333">
        <ele>792.0</ele>
        <time>2017-05-27T07:28:31.195Z</time>
      </trkpt>
      <trkpt lat="39.954905" lon="-0.41133">
        <ele>792.0</ele>
        <time>2017-05-27T07:28:32.173Z</time>
      </trkpt>
      <trkpt lat="39.954905" lon="-0.41133">
        <ele>792.0</ele>
        <time>2017-05-27T07:28:33.156Z</time>
      </trkpt>
      <trkpt lat="39.95477333" lon="-0.41124333">
        <ele>791.0</ele>
        <time>2017-05-27T07:28:34.159Z</time>
      </trkpt>
      <trkpt lat="39.95472" lon="-0.41118667">
        <ele>790.0</ele>
        <time>2017-05-27T07:28:35.195Z</time>
      </trkpt>
      <trkpt lat="39.95472" lon="-0.41118667">
        <ele>790.0</ele>
        <time>2017-05-27T07:28:36.175Z</time>
      </trkpt>
      <trkpt lat="39.95462667" lon="-0.41105167">
        <ele>789.0</ele>
        <time>2017-05-27T07:28:37.198Z</time>
      </trkpt>
      <trkpt lat="39.95458" lon="-0.41098167">
        <ele>789.0</ele>
        <time>2017-05-27T07:28:38.184Z</time>
      </trkpt>
      <trkpt lat="39.95458" lon="-0.41098167">
        <ele>789.0</ele>
        <time>2017-05-27T07:28:39.166Z</time>
      </trkpt>
      <trkpt lat="39.954485" lon="-0.41084">
        <ele>787.0</ele>
        <time>2017-05-27T07:28:40.194Z</time>
      </trkpt>
      <trkpt lat="39.95444167" lon="-0.41076333">
        <ele>786.0</ele>
        <time>2017-05-27T07:28:41.176Z</time>
      </trkpt>
      <trkpt lat="39.95444167" lon="-0.41076333">
        <ele>786.0</ele>
        <time>2017-05-27T07:28:42.161Z</time>
      </trkpt>
      <trkpt lat="39.95438167" lon="-0.410575">
        <ele>784.0</ele>
        <time>2017-05-27T07:28:43.185Z</time>
      </trkpt>
      <trkpt lat="39.95435333" lon="-0.41047667">
        <ele>782.0</ele>
        <time>2017-05-27T07:28:44.177Z</time>
      </trkpt>
      <trkpt lat="39.95435333" lon="-0.41047667">
        <ele>782.0</ele>
        <time>2017-05-27T07:28:45.190Z</time>
      </trkpt>
      <trkpt lat="39.95426" lon="-0.41032167">
        <ele>781.0</ele>
        <time>2017-05-27T07:28:46.182Z</time>
      </trkpt>
      <trkpt lat="39.95426" lon="-0.41032167">
        <ele>781.0</ele>
        <time>2017-05-27T07:28:47.160Z</time>
      </trkpt>
      <trkpt lat="39.95410833" lon="-0.41026833">
        <ele>780.0</ele>
        <time>2017-05-27T07:28:48.192Z</time>
      </trkpt>
      <trkpt lat="39.954025" lon="-0.41025333">
        <ele>779.0</ele>
        <time>2017-05-27T07:28:49.175Z</time>
      </trkpt>
      <trkpt lat="39.954025" lon="-0.41025333">
        <ele>779.0</ele>
        <time>2017-05-27T07:28:50.172Z</time>
      </trkpt>
      <trkpt lat="39.95388" lon="-0.41017333">
        <ele>777.0</ele>
        <time>2017-05-27T07:28:51.161Z</time>
      </trkpt>
      <trkpt lat="39.95388" lon="-0.41017333">
        <ele>777.0</ele>
        <time>2017-05-27T07:28:52.174Z</time>
      </trkpt>
      <trkpt lat="39.953775" lon="-0.40999833">
        <ele>775.0</ele>
        <time>2017-05-27T07:28:53.161Z</time>
      </trkpt>
      <trkpt lat="39.953775" lon="-0.40999833">
        <ele>775.0</ele>
        <time>2017-05-27T07:28:54.176Z</time>
      </trkpt>
      <trkpt lat="39.95368833" lon="-0.40978167">
        <ele>773.0</ele>
        <time>2017-05-27T07:28:55.162Z</time>
      </trkpt>
      <trkpt lat="39.95363833" lon="-0.40967833">
        <ele>773.0</ele>
        <time>2017-05-27T07:28:56.194Z</time>
      </trkpt>
      <trkpt lat="39.95363833" lon="-0.40967833">
        <ele>773.0</ele>
        <time>2017-05-27T07:28:57.174Z</time>
      </trkpt>
      <trkpt lat="39.95352833" lon="-0.40949333">
        <ele>772.0</ele>
        <time>2017-05-27T07:28:58.192Z</time>
      </trkpt>
      <trkpt lat="39.95352833" lon="-0.40949333">
        <ele>772.0</ele>
        <time>2017-05-27T07:28:59.170Z</time>
      </trkpt>
      <trkpt lat="39.95342167" lon="-0.40932167">
        <ele>771.0</ele>
        <time>2017-05-27T07:29:00.157Z</time>
      </trkpt>
      <trkpt lat="39.95342167" lon="-0.40932167">
        <ele>771.0</ele>
        <time>2017-05-27T07:29:01.163Z</time>
      </trkpt>
      <trkpt lat="39.953315" lon="-0.40916833">
        <ele>770.0</ele>
        <time>2017-05-27T07:29:02.195Z</time>
      </trkpt>
      <trkpt lat="39.953315" lon="-0.40916833">
        <ele>770.0</ele>
        <time>2017-05-27T07:29:03.195Z</time>
      </trkpt>
      <trkpt lat="39.95321333" lon="-0.40900667">
        <ele>768.0</ele>
        <time>2017-05-27T07:29:04.178Z</time>
      </trkpt>
      <trkpt lat="39.953175" lon="-0.40891333">
        <ele>768.0</ele>
        <time>2017-05-27T07:29:05.196Z</time>
      </trkpt>
      <trkpt lat="39.953175" lon="-0.40891333">
        <ele>768.0</ele>
        <time>2017-05-27T07:29:06.157Z</time>
      </trkpt>
      <trkpt lat="39.95311667" lon="-0.40872">
        <ele>766.0</ele>
        <time>2017-05-27T07:29:07.185Z</time>
      </trkpt>
      <trkpt lat="39.95311667" lon="-0.40872">
        <ele>766.0</ele>
        <time>2017-05-27T07:29:08.168Z</time>
      </trkpt>
      <trkpt lat="39.95306833" lon="-0.408525">
        <ele>765.0</ele>
        <time>2017-05-27T07:29:09.170Z</time>
      </trkpt>
      <trkpt lat="39.95303333" lon="-0.40841833">
        <ele>764.0</ele>
        <time>2017-05-27T07:29:10.177Z</time>
      </trkpt>
      <trkpt lat="39.95303333" lon="-0.40841833">
        <ele>764.0</ele>
        <time>2017-05-27T07:29:11.183Z</time>
      </trkpt>
      <trkpt lat="39.95299833" lon="-0.40819167">
        <ele>762.0</ele>
        <time>2017-05-27T07:29:12.168Z</time>
      </trkpt>
      <trkpt lat="39.95299833" lon="-0.40819167">
        <ele>762.0</ele>
        <time>2017-05-27T07:29:13.184Z</time>
      </trkpt>
      <trkpt lat="39.95297333" lon="-0.40798">
        <ele>761.0</ele>
        <time>2017-05-27T07:29:14.168Z</time>
      </trkpt>
      <trkpt lat="39.95297333" lon="-0.40798">
        <ele>761.0</ele>
        <time>2017-05-27T07:29:15.164Z</time>
      </trkpt>
      <trkpt lat="39.95291" lon="-0.40777667">
        <ele>759.0</ele>
        <time>2017-05-27T07:29:16.192Z</time>
      </trkpt>
      <trkpt lat="39.95287667" lon="-0.40767833">
        <ele>758.0</ele>
        <time>2017-05-27T07:29:17.190Z</time>
      </trkpt>
      <trkpt lat="39.95287667" lon="-0.40767833">
        <ele>758.0</ele>
        <time>2017-05-27T07:29:18.180Z</time>
      </trkpt>
      <trkpt lat="39.95278833" lon="-0.40747667">
        <ele>756.0</ele>
        <time>2017-05-27T07:29:19.177Z</time>
      </trkpt>
      <trkpt lat="39.95272833" lon="-0.40738667">
        <ele>755.0</ele>
        <time>2017-05-27T07:29:20.172Z</time>
      </trkpt>
      <trkpt lat="39.95272833" lon="-0.40738667">
        <ele>755.0</ele>
        <time>2017-05-27T07:29:21.164Z</time>
      </trkpt>
      <trkpt lat="39.95260167" lon="-0.40723667">
        <ele>754.0</ele>
        <time>2017-05-27T07:29:22.196Z</time>
      </trkpt>
      <trkpt lat="39.95260167" lon="-0.40723667">
        <ele>754.0</ele>
        <time>2017-05-27T07:29:23.173Z</time>
      </trkpt>
      <trkpt lat="39.95249333" lon="-0.40713333">
        <ele>752.0</ele>
        <time>2017-05-27T07:29:24.159Z</time>
      </trkpt>
      <trkpt lat="39.95249333" lon="-0.40713333">
        <ele>752.0</ele>
        <time>2017-05-27T07:29:25.157Z</time>
      </trkpt>
      <trkpt lat="39.95242833" lon="-0.40706333">
        <ele>751.0</ele>
        <time>2017-05-27T07:29:26.191Z</time>
      </trkpt>
      <trkpt lat="39.95242833" lon="-0.40706333">
        <ele>751.0</ele>
        <time>2017-05-27T07:29:27.171Z</time>
      </trkpt>
      <trkpt lat="39.95245167" lon="-0.40698167">
        <ele>750.0</ele>
        <time>2017-05-27T07:29:28.161Z</time>
      </trkpt>
      <trkpt lat="39.95245167" lon="-0.40698167">
        <ele>750.0</ele>
        <time>2017-05-27T07:29:29.193Z</time>
      </trkpt>
      <trkpt lat="39.95250833" lon="-0.40695667">
        <ele>748.0</ele>
        <time>2017-05-27T07:29:30.187Z</time>
      </trkpt>
      <trkpt lat="39.95250833" lon="-0.40695667">
        <ele>748.0</ele>
        <time>2017-05-27T07:29:31.164Z</time>
      </trkpt>
      <trkpt lat="39.95257667" lon="-0.40696833">
        <ele>747.0</ele>
        <time>2017-05-27T07:29:32.193Z</time>
      </trkpt>
      <trkpt lat="39.95257667" lon="-0.40696833">
        <ele>747.0</ele>
        <time>2017-05-27T07:29:33.162Z</time>
      </trkpt>
      <trkpt lat="39.95266167" lon="-0.40699">
        <ele>745.0</ele>
        <time>2017-05-27T07:29:34.161Z</time>
      </trkpt>
      <trkpt lat="39.95270667" lon="-0.40700167">
        <ele>745.0</ele>
        <time>2017-05-27T07:29:35.191Z</time>
      </trkpt>
      <trkpt lat="39.95270667" lon="-0.40700167">
        <ele>745.0</ele>
        <time>2017-05-27T07:29:36.164Z</time>
      </trkpt>
      <trkpt lat="39.95279833" lon="-0.40704833">
        <ele>744.0</ele>
        <time>2017-05-27T07:29:37.187Z</time>
      </trkpt>
      <trkpt lat="39.952845" lon="-0.40707167">
        <ele>743.0</ele>
        <time>2017-05-27T07:29:38.181Z</time>
      </trkpt>
      <trkpt lat="39.952845" lon="-0.40707167">
        <ele>743.0</ele>
        <time>2017-05-27T07:29:39.174Z</time>
      </trkpt>
      <trkpt lat="39.95294667" lon="-0.40712167">
        <ele>743.0</ele>
        <time>2017-05-27T07:29:40.189Z</time>
      </trkpt>
      <trkpt lat="39.95294667" lon="-0.40712167">
        <ele>743.0</ele>
        <time>2017-05-27T07:29:41.170Z</time>
      </trkpt>
      <trkpt lat="39.95305167" lon="-0.40717833">
        <ele>741.0</ele>
        <time>2017-05-27T07:29:42.197Z</time>
      </trkpt>
      <trkpt lat="39.95305167" lon="-0.40717833">
        <ele>741.0</ele>
        <time>2017-05-27T07:29:43.159Z</time>
      </trkpt>
      <trkpt lat="39.953145" lon="-0.40722667">
        <ele>741.0</ele>
        <time>2017-05-27T07:29:44.189Z</time>
      </trkpt>
      <trkpt lat="39.953145" lon="-0.40722667">
        <ele>741.0</ele>
        <time>2017-05-27T07:29:45.161Z</time>
      </trkpt>
      <trkpt lat="39.95321833" lon="-0.40727667">
        <ele>741.0</ele>
        <time>2017-05-27T07:29:46.192Z</time>
      </trkpt>
      <trkpt lat="39.95325667" lon="-0.40731667">
        <ele>740.0</ele>
        <time>2017-05-27T07:29:47.180Z</time>
      </trkpt>
      <trkpt lat="39.95325667" lon="-0.40731667">
        <ele>740.0</ele>
        <time>2017-05-27T07:29:48.168Z</time>
      </trkpt>
      <trkpt lat="39.95332333" lon="-0.40740667">
        <ele>739.0</ele>
        <time>2017-05-27T07:29:49.194Z</time>
      </trkpt>
      <trkpt lat="39.95335667" lon="-0.40745333">
        <ele>738.0</ele>
        <time>2017-05-27T07:29:50.175Z</time>
      </trkpt>
      <trkpt lat="39.95335667" lon="-0.40745333">
        <ele>738.0</ele>
        <time>2017-05-27T07:29:51.187Z</time>
      </trkpt>
      <trkpt lat="39.95342" lon="-0.40754667">
        <ele>737.0</ele>
        <time>2017-05-27T07:29:52.183Z</time>
      </trkpt>
      <trkpt lat="39.95345167" lon="-0.40759">
        <ele>737.0</ele>
        <time>2017-05-27T07:29:53.177Z</time>
      </trkpt>
      <trkpt lat="39.95345167" lon="-0.40759">
        <ele>737.0</ele>
        <time>2017-05-27T07:29:54.160Z</time>
      </trkpt>
      <trkpt lat="39.95353333" lon="-0.40768833">
        <ele>735.0</ele>
        <time>2017-05-27T07:29:55.188Z</time>
      </trkpt>
      <trkpt lat="39.95358667" lon="-0.40774">
        <ele>735.0</ele>
        <time>2017-05-27T07:29:56.175Z</time>
      </trkpt>
      <trkpt lat="39.95358667" lon="-0.40774">
        <ele>735.0</ele>
        <time>2017-05-27T07:29:57.161Z</time>
      </trkpt>
      <trkpt lat="39.953675" lon="-0.407815">
        <ele>734.0</ele>
        <time>2017-05-27T07:29:58.190Z</time>
      </trkpt>
      <trkpt lat="39.953675" lon="-0.407815">
        <ele>734.0</ele>
        <time>2017-05-27T07:29:59.186Z</time>
      </trkpt>
      <trkpt lat="39.95374167" lon="-0.40790333">
        <ele>733.0</ele>
        <time>2017-05-27T07:30:00.169Z</time>
      </trkpt>
      <trkpt lat="39.95374167" lon="-0.40790333">
        <ele>733.0</ele>
        <time>2017-05-27T07:30:01.158Z</time>
      </trkpt>
      <trkpt lat="39.95377167" lon="-0.40801833">
        <ele>732.0</ele>
        <time>2017-05-27T07:30:02.180Z</time>
      </trkpt>
      <trkpt lat="39.95377167" lon="-0.40801833">
        <ele>732.0</ele>
        <time>2017-05-27T07:30:03.195Z</time>
      </trkpt>
      <trkpt lat="39.95378667" lon="-0.408105">
        <ele>731.0</ele>
        <time>2017-05-27T07:30:04.187Z</time>
      </trkpt>
      <trkpt lat="39.95378667" lon="-0.408105">
        <ele>731.0</ele>
        <time>2017-05-27T07:30:05.164Z</time>
      </trkpt>
      <trkpt lat="39.95380667" lon="-0.408185">
        <ele>730.0</ele>
        <time>2017-05-27T07:30:06.186Z</time>
      </trkpt>
      <trkpt lat="39.95380667" lon="-0.408185">
        <ele>730.0</ele>
        <time>2017-05-27T07:30:07.158Z</time>
      </trkpt>
      <trkpt lat="39.953845" lon="-0.40824833">
        <ele>729.0</ele>
        <time>2017-05-27T07:30:08.178Z</time>
      </trkpt>
      <trkpt lat="39.953845" lon="-0.40824833">
        <ele>729.0</ele>
        <time>2017-05-27T07:30:09.174Z</time>
      </trkpt>
      <trkpt lat="39.95390667" lon="-0.40822333">
        <ele>728.0</ele>
        <time>2017-05-27T07:30:10.184Z</time>
      </trkpt>
      <trkpt lat="39.95390667" lon="-0.40822333">
        <ele>728.0</ele>
        <time>2017-05-27T07:30:11.162Z</time>
      </trkpt>
      <trkpt lat="39.953955" lon="-0.408125">
        <ele>726.0</ele>
        <time>2017-05-27T07:30:12.177Z</time>
      </trkpt>
      <trkpt lat="39.95396667" lon="-0.40805833">
        <ele>726.0</ele>
        <time>2017-05-27T07:30:13.173Z</time>
      </trkpt>
      <trkpt lat="39.95396667" lon="-0.40805833">
        <ele>726.0</ele>
        <time>2017-05-27T07:30:14.166Z</time>
      </trkpt>
      <trkpt lat="39.95399" lon="-0.407915">
        <ele>725.0</ele>
        <time>2017-05-27T07:30:15.178Z</time>
      </trkpt>
      <trkpt lat="39.95399" lon="-0.407915">
        <ele>725.0</ele>
        <time>2017-05-27T07:30:16.186Z</time>
      </trkpt>
      <trkpt lat="39.953985" lon="-0.407745">
        <ele>724.0</ele>
        <time>2017-05-27T07:30:17.157Z</time>
      </trkpt>
      <trkpt lat="39.953985" lon="-0.407745">
        <ele>724.0</ele>
        <time>2017-05-27T07:30:18.185Z</time>
      </trkpt>
      <trkpt lat="39.95395333" lon="-0.40756667">
        <ele>722.0</ele>
        <time>2017-05-27T07:30:19.178Z</time>
      </trkpt>
      <trkpt lat="39.953925" lon="-0.40747833">
        <ele>722.0</ele>
        <time>2017-05-27T07:30:20.158Z</time>
      </trkpt>
      <trkpt lat="39.953925" lon="-0.40747833">
        <ele>722.0</ele>
        <time>2017-05-27T07:30:21.184Z</time>
      </trkpt>
      <trkpt lat="39.953855" lon="-0.40727333">
        <ele>720.0</ele>
        <time>2017-05-27T07:30:22.159Z</time>
      </trkpt>
      <trkpt lat="39.953855" lon="-0.40727333">
        <ele>720.0</ele>
        <time>2017-05-27T07:30:23.157Z</time>
      </trkpt>
      <trkpt lat="39.95379667" lon="-0.40705333">
        <ele>718.0</ele>
        <time>2017-05-27T07:30:24.183Z</time>
      </trkpt>
      <trkpt lat="39.953775" lon="-0.40694167">
        <ele>717.0</ele>
        <time>2017-05-27T07:30:25.171Z</time>
      </trkpt>
      <trkpt lat="39.953775" lon="-0.40694167">
        <ele>717.0</ele>
        <time>2017-05-27T07:30:26.183Z</time>
      </trkpt>
      <trkpt lat="39.95373333" lon="-0.40676833">
        <ele>715.0</ele>
        <time>2017-05-27T07:30:27.198Z</time>
      </trkpt>
      <trkpt lat="39.95373333" lon="-0.40676833">
        <ele>715.0</ele>
        <time>2017-05-27T07:30:28.169Z</time>
      </trkpt>
      <trkpt lat="39.953685" lon="-0.40663667">
        <ele>713.0</ele>
        <time>2017-05-27T07:30:29.184Z</time>
      </trkpt>
      <trkpt lat="39.953685" lon="-0.40663667">
        <ele>713.0</ele>
        <time>2017-05-27T07:30:30.186Z</time>
      </trkpt>
      <trkpt lat="39.95360667" lon="-0.40652833">
        <ele>711.0</ele>
        <time>2017-05-27T07:30:31.168Z</time>
      </trkpt>
      <trkpt lat="39.95358333" lon="-0.40645333">
        <ele>710.0</ele>
        <time>2017-05-27T07:30:32.193Z</time>
      </trkpt>
      <trkpt lat="39.95358333" lon="-0.40645333">
        <ele>710.0</ele>
        <time>2017-05-27T07:30:33.169Z</time>
      </trkpt>
      <trkpt lat="39.95359833" lon="-0.40628">
        <ele>708.0</ele>
        <time>2017-05-27T07:30:34.185Z</time>
      </trkpt>
      <trkpt lat="39.95362" lon="-0.406185">
        <ele>707.0</ele>
        <time>2017-05-27T07:30:35.172Z</time>
      </trkpt>
      <trkpt lat="39.95362" lon="-0.406185">
        <ele>707.0</ele>
        <time>2017-05-27T07:30:36.179Z</time>
      </trkpt>
      <trkpt lat="39.95362333" lon="-0.406">
        <ele>706.0</ele>
        <time>2017-05-27T07:30:37.192Z</time>
      </trkpt>
      <trkpt lat="39.95363167" lon="-0.40592333">
        <ele>705.0</ele>
        <time>2017-05-27T07:30:38.158Z</time>
      </trkpt>
      <trkpt lat="39.95363167" lon="-0.40592333">
        <ele>705.0</ele>
        <time>2017-05-27T07:30:39.175Z</time>
      </trkpt>
      <trkpt lat="39.95369" lon="-0.40582833">
        <ele>703.0</ele>
        <time>2017-05-27T07:30:40.190Z</time>
      </trkpt>
      <trkpt lat="39.95369" lon="-0.40582833">
        <ele>703.0</ele>
        <time>2017-05-27T07:30:41.163Z</time>
      </trkpt>
      <trkpt lat="39.953755" lon="-0.405855">
        <ele>701.0</ele>
        <time>2017-05-27T07:30:42.172Z</time>
      </trkpt>
      <trkpt lat="39.953755" lon="-0.405855">
        <ele>701.0</ele>
        <time>2017-05-27T07:30:43.181Z</time>
      </trkpt>
      <trkpt lat="39.95374833" lon="-0.40595667">
        <ele>699.0</ele>
        <time>2017-05-27T07:30:44.162Z</time>
      </trkpt>
      <trkpt lat="39.95374167" lon="-0.406005">
        <ele>698.0</ele>
        <time>2017-05-27T07:30:45.182Z</time>
      </trkpt>
      <trkpt lat="39.95374167" lon="-0.406005">
        <ele>698.0</ele>
        <time>2017-05-27T07:30:46.170Z</time>
      </trkpt>
      <trkpt lat="39.953745" lon="-0.40609667">
        <ele>696.0</ele>
        <time>2017-05-27T07:30:47.181Z</time>
      </trkpt>
      <trkpt lat="39.95375667" lon="-0.40614833">
        <ele>696.0</ele>
        <time>2017-05-27T07:30:48.221Z</time>
      </trkpt>
      <trkpt lat="39.95376333" lon="-0.40619833">
        <ele>695.0</ele>
        <time>2017-05-27T07:30:49.180Z</time>
      </trkpt>
      <trkpt lat="39.95376333" lon="-0.40619833">
        <ele>695.0</ele>
        <time>2017-05-27T07:30:50.175Z</time>
      </trkpt>
      <trkpt lat="39.95383167" lon="-0.40627167">
        <ele>693.0</ele>
        <time>2017-05-27T07:30:51.162Z</time>
      </trkpt>
      <trkpt lat="39.95383167" lon="-0.40627167">
        <ele>693.0</ele>
        <time>2017-05-27T07:30:52.167Z</time>
      </trkpt>
      <trkpt lat="39.95389667" lon="-0.40629167">
        <ele>692.0</ele>
        <time>2017-05-27T07:30:53.183Z</time>
      </trkpt>
      <trkpt lat="39.95393833" lon="-0.40629833">
        <ele>691.0</ele>
        <time>2017-05-27T07:30:54.178Z</time>
      </trkpt>
      <trkpt lat="39.95393833" lon="-0.40629833">
        <ele>691.0</ele>
        <time>2017-05-27T07:30:55.163Z</time>
      </trkpt>
      <trkpt lat="39.954025" lon="-0.40631833">
        <ele>690.0</ele>
        <time>2017-05-27T07:30:56.185Z</time>
      </trkpt>
      <trkpt lat="39.954025" lon="-0.40631833">
        <ele>690.0</ele>
        <time>2017-05-27T07:30:57.179Z</time>
      </trkpt>
      <trkpt lat="39.95413" lon="-0.40636833">
        <ele>689.0</ele>
        <time>2017-05-27T07:30:58.166Z</time>
      </trkpt>
      <trkpt lat="39.95417333" lon="-0.40642333">
        <ele>688.0</ele>
        <time>2017-05-27T07:30:59.183Z</time>
      </trkpt>
      <trkpt lat="39.95417333" lon="-0.40642333">
        <ele>688.0</ele>
        <time>2017-05-27T07:31:00.167Z</time>
      </trkpt>
      <trkpt lat="39.95422167" lon="-0.40655833">
        <ele>687.0</ele>
        <time>2017-05-27T07:31:01.185Z</time>
      </trkpt>
      <trkpt lat="39.954235" lon="-0.40663167">
        <ele>686.0</ele>
        <time>2017-05-27T07:31:02.190Z</time>
      </trkpt>
      <trkpt lat="39.954235" lon="-0.40663167">
        <ele>686.0</ele>
        <time>2017-05-27T07:31:03.164Z</time>
      </trkpt>
      <trkpt lat="39.95426333" lon="-0.40678333">
        <ele>685.0</ele>
        <time>2017-05-27T07:31:04.193Z</time>
      </trkpt>
      <trkpt lat="39.954275" lon="-0.40685667">
        <ele>684.0</ele>
        <time>2017-05-27T07:31:05.179Z</time>
      </trkpt>
      <trkpt lat="39.954275" lon="-0.40685667">
        <ele>684.0</ele>
        <time>2017-05-27T07:31:06.158Z</time>
      </trkpt>
      <trkpt lat="39.95427167" lon="-0.40699833">
        <ele>682.0</ele>
        <time>2017-05-27T07:31:07.182Z</time>
      </trkpt>
      <trkpt lat="39.95427167" lon="-0.40699833">
        <ele>682.0</ele>
        <time>2017-05-27T07:31:08.175Z</time>
      </trkpt>
      <trkpt lat="39.954285" lon="-0.40711">
        <ele>681.0</ele>
        <time>2017-05-27T07:31:09.195Z</time>
      </trkpt>
      <trkpt lat="39.954285" lon="-0.40711">
        <ele>681.0</ele>
        <time>2017-05-27T07:31:10.185Z</time>
      </trkpt>
      <trkpt lat="39.95440833" lon="-0.40712833">
        <ele>679.0</ele>
        <time>2017-05-27T07:31:11.171Z</time>
      </trkpt>
      <trkpt lat="39.95440833" lon="-0.40712833">
        <ele>679.0</ele>
        <time>2017-05-27T07:31:12.190Z</time>
      </trkpt>
      <trkpt lat="39.95453333" lon="-0.407045">
        <ele>678.0</ele>
        <time>2017-05-27T07:31:13.157Z</time>
      </trkpt>
      <trkpt lat="39.95459" lon="-0.40696833">
        <ele>677.0</ele>
        <time>2017-05-27T07:31:14.189Z</time>
      </trkpt>
      <trkpt lat="39.954655" lon="-0.40689">
        <ele>676.0</ele>
        <time>2017-05-27T07:31:15.180Z</time>
      </trkpt>
      <trkpt lat="39.954655" lon="-0.40689">
        <ele>676.0</ele>
        <time>2017-05-27T07:31:16.184Z</time>
      </trkpt>
      <trkpt lat="39.95479833" lon="-0.40674">
        <ele>674.0</ele>
        <time>2017-05-27T07:31:17.177Z</time>
      </trkpt>
      <trkpt lat="39.95479833" lon="-0.40674">
        <ele>674.0</ele>
        <time>2017-05-27T07:31:18.190Z</time>
      </trkpt>
      <trkpt lat="39.954955" lon="-0.40657">
        <ele>672.0</ele>
        <time>2017-05-27T07:31:19.173Z</time>
      </trkpt>
      <trkpt lat="39.95502333" lon="-0.40647">
        <ele>671.0</ele>
        <time>2017-05-27T07:31:20.173Z</time>
      </trkpt>
      <trkpt lat="39.95502333" lon="-0.40647">
        <ele>671.0</ele>
        <time>2017-05-27T07:31:21.164Z</time>
      </trkpt>
      <trkpt lat="39.95517333" lon="-0.406315">
        <ele>669.0</ele>
        <time>2017-05-27T07:31:22.184Z</time>
      </trkpt>
      <trkpt lat="39.95517333" lon="-0.406315">
        <ele>669.0</ele>
        <time>2017-05-27T07:31:23.160Z</time>
      </trkpt>
      <trkpt lat="39.95532167" lon="-0.40622333">
        <ele>667.0</ele>
        <time>2017-05-27T07:31:24.181Z</time>
      </trkpt>
      <trkpt lat="39.95532167" lon="-0.40622333">
        <ele>667.0</ele>
        <time>2017-05-27T07:31:25.189Z</time>
      </trkpt>
      <trkpt lat="39.95546" lon="-0.406145">
        <ele>666.0</ele>
        <time>2017-05-27T07:31:26.175Z</time>
      </trkpt>
      <trkpt lat="39.95546" lon="-0.406145">
        <ele>666.0</ele>
        <time>2017-05-27T07:31:27.179Z</time>
      </trkpt>
      <trkpt lat="39.95557333" lon="-0.40603333">
        <ele>663.0</ele>
        <time>2017-05-27T07:31:28.162Z</time>
      </trkpt>
      <trkpt lat="39.955615" lon="-0.40595">
        <ele>662.0</ele>
        <time>2017-05-27T07:31:29.182Z</time>
      </trkpt>
      <trkpt lat="39.955615" lon="-0.40595">
        <ele>662.0</ele>
        <time>2017-05-27T07:31:30.163Z</time>
      </trkpt>
      <trkpt lat="39.95564" lon="-0.40574833">
        <ele>661.0</ele>
        <time>2017-05-27T07:31:31.181Z</time>
      </trkpt>
      <trkpt lat="39.95564167" lon="-0.40565167">
        <ele>660.0</ele>
        <time>2017-05-27T07:31:32.183Z</time>
      </trkpt>
      <trkpt lat="39.95564167" lon="-0.40565167">
        <ele>660.0</ele>
        <time>2017-05-27T07:31:33.172Z</time>
      </trkpt>
      <trkpt lat="39.955685" lon="-0.40547667">
        <ele>659.0</ele>
        <time>2017-05-27T07:31:34.197Z</time>
      </trkpt>
      <trkpt lat="39.955685" lon="-0.40547667">
        <ele>659.0</ele>
        <time>2017-05-27T07:31:35.174Z</time>
      </trkpt>
      <trkpt lat="39.95577167" lon="-0.40531">
        <ele>657.0</ele>
        <time>2017-05-27T07:31:36.164Z</time>
      </trkpt>
      <trkpt lat="39.95577167" lon="-0.40531">
        <ele>657.0</ele>
        <time>2017-05-27T07:31:37.184Z</time>
      </trkpt>
      <trkpt lat="39.95586167" lon="-0.40514167">
        <ele>656.0</ele>
        <time>2017-05-27T07:31:38.176Z</time>
      </trkpt>
      <trkpt lat="39.95590333" lon="-0.40506">
        <ele>655.0</ele>
        <time>2017-05-27T07:31:39.195Z</time>
      </trkpt>
      <trkpt lat="39.95590333" lon="-0.40506">
        <ele>655.0</ele>
        <time>2017-05-27T07:31:40.168Z</time>
      </trkpt>
      <trkpt lat="39.95598167" lon="-0.404905">
        <ele>653.0</ele>
        <time>2017-05-27T07:31:41.188Z</time>
      </trkpt>
      <trkpt lat="39.95598167" lon="-0.404905">
        <ele>653.0</ele>
        <time>2017-05-27T07:31:42.175Z</time>
      </trkpt>
      <trkpt lat="39.95605833" lon="-0.40473333">
        <ele>652.0</ele>
        <time>2017-05-27T07:31:43.172Z</time>
      </trkpt>
      <trkpt lat="39.9561" lon="-0.40463667">
        <ele>651.0</ele>
        <time>2017-05-27T07:31:44.163Z</time>
      </trkpt>
      <trkpt lat="39.9561" lon="-0.40463667">
        <ele>651.0</ele>
        <time>2017-05-27T07:31:45.170Z</time>
      </trkpt>
      <trkpt lat="39.956165" lon="-0.40443833">
        <ele>649.0</ele>
        <time>2017-05-27T07:31:46.157Z</time>
      </trkpt>
      <trkpt lat="39.956165" lon="-0.40443833">
        <ele>649.0</ele>
        <time>2017-05-27T07:31:47.192Z</time>
      </trkpt>
      <trkpt lat="39.95620667" lon="-0.40424167">
        <ele>648.0</ele>
        <time>2017-05-27T07:31:48.181Z</time>
      </trkpt>
      <trkpt lat="39.95622" lon="-0.40414333">
        <ele>647.0</ele>
        <time>2017-05-27T07:31:49.161Z</time>
      </trkpt>
      <trkpt lat="39.95622167" lon="-0.40404667">
        <ele>646.0</ele>
        <time>2017-05-27T07:31:50.188Z</time>
      </trkpt>
      <trkpt lat="39.95622167" lon="-0.40404667">
        <ele>646.0</ele>
        <time>2017-05-27T07:31:51.163Z</time>
      </trkpt>
      <trkpt lat="39.95619667" lon="-0.40385833">
        <ele>644.0</ele>
        <time>2017-05-27T07:31:52.156Z</time>
      </trkpt>
      <trkpt lat="39.95616167" lon="-0.40377333">
        <ele>644.0</ele>
        <time>2017-05-27T07:31:53.182Z</time>
      </trkpt>
      <trkpt lat="39.95616167" lon="-0.40377333">
        <ele>644.0</ele>
        <time>2017-05-27T07:31:54.185Z</time>
      </trkpt>
      <trkpt lat="39.95607333" lon="-0.40359833">
        <ele>642.0</ele>
        <time>2017-05-27T07:31:55.172Z</time>
      </trkpt>
      <trkpt lat="39.95602333" lon="-0.40350833">
        <ele>641.0</ele>
        <time>2017-05-27T07:31:56.180Z</time>
      </trkpt>
      <trkpt lat="39.95602333" lon="-0.40350833">
        <ele>641.0</ele>
        <time>2017-05-27T07:31:57.159Z</time>
      </trkpt>
      <trkpt lat="39.955915" lon="-0.40332667">
        <ele>639.0</ele>
        <time>2017-05-27T07:31:58.192Z</time>
      </trkpt>
      <trkpt lat="39.95586667" lon="-0.40324667">
        <ele>639.0</ele>
        <time>2017-05-27T07:31:59.195Z</time>
      </trkpt>
      <trkpt lat="39.95586667" lon="-0.40324667">
        <ele>639.0</ele>
        <time>2017-05-27T07:32:00.183Z</time>
      </trkpt>
      <trkpt lat="39.95578833" lon="-0.40310333">
        <ele>637.0</ele>
        <time>2017-05-27T07:32:01.163Z</time>
      </trkpt>
      <trkpt lat="39.955755" lon="-0.40303">
        <ele>636.0</ele>
        <time>2017-05-27T07:32:02.196Z</time>
      </trkpt>
      <trkpt lat="39.955755" lon="-0.40303">
        <ele>636.0</ele>
        <time>2017-05-27T07:32:03.190Z</time>
      </trkpt>
      <trkpt lat="39.95570167" lon="-0.4029">
        <ele>634.0</ele>
        <time>2017-05-27T07:32:04.181Z</time>
      </trkpt>
      <trkpt lat="39.95569167" lon="-0.402835">
        <ele>634.0</ele>
        <time>2017-05-27T07:32:05.198Z</time>
      </trkpt>
      <trkpt lat="39.95569167" lon="-0.402835">
        <ele>634.0</ele>
        <time>2017-05-27T07:32:06.180Z</time>
      </trkpt>
      <trkpt lat="39.95573" lon="-0.40273333">
        <ele>632.0</ele>
        <time>2017-05-27T07:32:07.158Z</time>
      </trkpt>
      <trkpt lat="39.95573" lon="-0.40273333">
        <ele>632.0</ele>
        <time>2017-05-27T07:32:08.172Z</time>
      </trkpt>
      <trkpt lat="39.955815" lon="-0.40274333">
        <ele>631.0</ele>
        <time>2017-05-27T07:32:09.189Z</time>
      </trkpt>
      <trkpt lat="39.955815" lon="-0.40274333">
        <ele>631.0</ele>
        <time>2017-05-27T07:32:10.171Z</time>
      </trkpt>
      <trkpt lat="39.95590167" lon="-0.402855">
        <ele>629.0</ele>
        <time>2017-05-27T07:32:11.159Z</time>
      </trkpt>
      <trkpt lat="39.95590167" lon="-0.402855">
        <ele>629.0</ele>
        <time>2017-05-27T07:32:12.172Z</time>
      </trkpt>
      <trkpt lat="39.95599833" lon="-0.40296167">
        <ele>627.0</ele>
        <time>2017-05-27T07:32:13.173Z</time>
      </trkpt>
      <trkpt lat="39.95605167" lon="-0.40300667">
        <ele>626.0</ele>
        <time>2017-05-27T07:32:14.164Z</time>
      </trkpt>
      <trkpt lat="39.95605167" lon="-0.40300667">
        <ele>626.0</ele>
        <time>2017-05-27T07:32:15.164Z</time>
      </trkpt>
      <trkpt lat="39.956185" lon="-0.40306667">
        <ele>625.0</ele>
        <time>2017-05-27T07:32:16.192Z</time>
      </trkpt>
      <trkpt lat="39.95624667" lon="-0.40307667">
        <ele>624.0</ele>
        <time>2017-05-27T07:32:17.193Z</time>
      </trkpt>
      <trkpt lat="39.956315" lon="-0.40309167">
        <ele>624.0</ele>
        <time>2017-05-27T07:32:18.172Z</time>
      </trkpt>
      <trkpt lat="39.956315" lon="-0.40309167">
        <ele>624.0</ele>
        <time>2017-05-27T07:32:19.190Z</time>
      </trkpt>
      <trkpt lat="39.95643167" lon="-0.40318167">
        <ele>623.0</ele>
        <time>2017-05-27T07:32:20.189Z</time>
      </trkpt>
      <trkpt lat="39.95643167" lon="-0.40318167">
        <ele>623.0</ele>
        <time>2017-05-27T07:32:21.157Z</time>
      </trkpt>
      <trkpt lat="39.95652333" lon="-0.40333">
        <ele>621.0</ele>
        <time>2017-05-27T07:32:22.198Z</time>
      </trkpt>
      <trkpt lat="39.95652333" lon="-0.40333">
        <ele>621.0</ele>
        <time>2017-05-27T07:32:23.167Z</time>
      </trkpt>
      <trkpt lat="39.956605" lon="-0.40348833">
        <ele>620.0</ele>
        <time>2017-05-27T07:32:24.162Z</time>
      </trkpt>
      <trkpt lat="39.956605" lon="-0.40348833">
        <ele>620.0</ele>
        <time>2017-05-27T07:32:25.179Z</time>
      </trkpt>
      <trkpt lat="39.95669667" lon="-0.40366167">
        <ele>618.0</ele>
        <time>2017-05-27T07:32:26.159Z</time>
      </trkpt>
      <trkpt lat="39.95669667" lon="-0.40366167">
        <ele>618.0</ele>
        <time>2017-05-27T07:32:27.181Z</time>
      </trkpt>
      <trkpt lat="39.95676167" lon="-0.40382167">
        <ele>617.0</ele>
        <time>2017-05-27T07:32:28.184Z</time>
      </trkpt>
      <trkpt lat="39.956795" lon="-0.40389667">
        <ele>617.0</ele>
        <time>2017-05-27T07:32:29.157Z</time>
      </trkpt>
      <trkpt lat="39.956795" lon="-0.40389667">
        <ele>617.0</ele>
        <time>2017-05-27T07:32:30.166Z</time>
      </trkpt>
      <trkpt lat="39.95684167" lon="-0.40406">
        <ele>616.0</ele>
        <time>2017-05-27T07:32:31.201Z</time>
      </trkpt>
      <trkpt lat="39.95685667" lon="-0.40414333">
        <ele>616.0</ele>
        <time>2017-05-27T07:32:32.168Z</time>
      </trkpt>
      <trkpt lat="39.95685667" lon="-0.40414333">
        <ele>616.0</ele>
        <time>2017-05-27T07:32:33.182Z</time>
      </trkpt>
      <trkpt lat="39.95686167" lon="-0.40431167">
        <ele>615.0</ele>
        <time>2017-05-27T07:32:34.161Z</time>
      </trkpt>
      <trkpt lat="39.95687" lon="-0.40438833">
        <ele>614.0</ele>
        <time>2017-05-27T07:32:35.192Z</time>
      </trkpt>
      <trkpt lat="39.95687" lon="-0.40438833">
        <ele>614.0</ele>
        <time>2017-05-27T07:32:36.167Z</time>
      </trkpt>
      <trkpt lat="39.95689667" lon="-0.40455167">
        <ele>613.0</ele>
        <time>2017-05-27T07:32:37.192Z</time>
      </trkpt>
      <trkpt lat="39.956915" lon="-0.404615">
        <ele>612.0</ele>
        <time>2017-05-27T07:32:38.190Z</time>
      </trkpt>
      <trkpt lat="39.956915" lon="-0.404615">
        <ele>612.0</ele>
        <time>2017-05-27T07:32:39.191Z</time>
      </trkpt>
      <trkpt lat="39.95699333" lon="-0.40465833">
        <ele>611.0</ele>
        <time>2017-05-27T07:32:40.173Z</time>
      </trkpt>
      <trkpt lat="39.95707" lon="-0.404645">
        <ele>610.0</ele>
        <time>2017-05-27T07:32:41.173Z</time>
      </trkpt>
      <trkpt lat="39.95707" lon="-0.404645">
        <ele>610.0</ele>
        <time>2017-05-27T07:32:42.195Z</time>
      </trkpt>
      <trkpt lat="39.95723" lon="-0.40455833">
        <ele>608.0</ele>
        <time>2017-05-27T07:32:43.182Z</time>
      </trkpt>
      <trkpt lat="39.95731167" lon="-0.40450833">
        <ele>607.0</ele>
        <time>2017-05-27T07:32:44.177Z</time>
      </trkpt>
      <trkpt lat="39.95731167" lon="-0.40450833">
        <ele>607.0</ele>
        <time>2017-05-27T07:32:45.190Z</time>
      </trkpt>
      <trkpt lat="39.95744167" lon="-0.40441167">
        <ele>604.0</ele>
        <time>2017-05-27T07:32:46.176Z</time>
      </trkpt>
      <trkpt lat="39.95744167" lon="-0.40441167">
        <ele>604.0</ele>
        <time>2017-05-27T07:32:47.190Z</time>
      </trkpt>
      <trkpt lat="39.95755833" lon="-0.40432167">
        <ele>602.0</ele>
        <time>2017-05-27T07:32:48.170Z</time>
      </trkpt>
      <trkpt lat="39.95765667" lon="-0.40431">
        <ele>601.0</ele>
        <time>2017-05-27T07:32:49.162Z</time>
      </trkpt>
      <trkpt lat="39.95773667" lon="-0.40428">
        <ele>600.0</ele>
        <time>2017-05-27T07:32:50.201Z</time>
      </trkpt>
      <trkpt lat="39.95773667" lon="-0.40428">
        <ele>600.0</ele>
        <time>2017-05-27T07:32:51.169Z</time>
      </trkpt>
      <trkpt lat="39.95793333" lon="-0.404255">
        <ele>598.0</ele>
        <time>2017-05-27T07:32:52.164Z</time>
      </trkpt>
      <trkpt lat="39.95803" lon="-0.40425">
        <ele>597.0</ele>
        <time>2017-05-27T07:32:53.168Z</time>
      </trkpt>
      <trkpt lat="39.95803" lon="-0.40425">
        <ele>597.0</ele>
        <time>2017-05-27T07:32:54.173Z</time>
      </trkpt>
      <trkpt lat="39.95821" lon="-0.40423833">
        <ele>595.0</ele>
        <time>2017-05-27T07:32:55.159Z</time>
      </trkpt>
      <trkpt lat="39.95828333" lon="-0.40422833">
        <ele>594.0</ele>
        <time>2017-05-27T07:32:56.186Z</time>
      </trkpt>
      <trkpt lat="39.95828333" lon="-0.40422833">
        <ele>594.0</ele>
        <time>2017-05-27T07:32:57.165Z</time>
      </trkpt>
      <trkpt lat="39.95840833" lon="-0.40422">
        <ele>592.0</ele>
        <time>2017-05-27T07:32:58.182Z</time>
      </trkpt>
      <trkpt lat="39.95846833" lon="-0.404215">
        <ele>591.0</ele>
        <time>2017-05-27T07:32:59.182Z</time>
      </trkpt>
      <trkpt lat="39.95846833" lon="-0.404215">
        <ele>591.0</ele>
        <time>2017-05-27T07:33:00.192Z</time>
      </trkpt>
      <trkpt lat="39.958555" lon="-0.40414167">
        <ele>589.0</ele>
        <time>2017-05-27T07:33:01.188Z</time>
      </trkpt>
      <trkpt lat="39.958555" lon="-0.40414167">
        <ele>589.0</ele>
        <time>2017-05-27T07:33:02.168Z</time>
      </trkpt>
      <trkpt lat="39.95857833" lon="-0.40397">
        <ele>587.0</ele>
        <time>2017-05-27T07:33:03.193Z</time>
      </trkpt>
      <trkpt lat="39.95857833" lon="-0.40397">
        <ele>587.0</ele>
        <time>2017-05-27T07:33:04.189Z</time>
      </trkpt>
      <trkpt lat="39.958575" lon="-0.40379667">
        <ele>585.0</ele>
        <time>2017-05-27T07:33:05.175Z</time>
      </trkpt>
      <trkpt lat="39.958575" lon="-0.40379667">
        <ele>585.0</ele>
        <time>2017-05-27T07:33:06.166Z</time>
      </trkpt>
      <trkpt lat="39.95859167" lon="-0.40364167">
        <ele>583.0</ele>
        <time>2017-05-27T07:33:07.192Z</time>
      </trkpt>
      <trkpt lat="39.95859167" lon="-0.40364167">
        <ele>583.0</ele>
        <time>2017-05-27T07:33:08.173Z</time>
      </trkpt>
      <trkpt lat="39.95865667" lon="-0.40351">
        <ele>581.0</ele>
        <time>2017-05-27T07:33:09.159Z</time>
      </trkpt>
      <trkpt lat="39.95865667" lon="-0.40351">
        <ele>581.0</ele>
        <time>2017-05-27T07:33:10.184Z</time>
      </trkpt>
      <trkpt lat="39.95876833" lon="-0.40343167">
        <ele>580.0</ele>
        <time>2017-05-27T07:33:11.162Z</time>
      </trkpt>
      <trkpt lat="39.95876833" lon="-0.40343167">
        <ele>580.0</ele>
        <time>2017-05-27T07:33:12.186Z</time>
      </trkpt>
      <trkpt lat="39.958905" lon="-0.40335667">
        <ele>579.0</ele>
        <time>2017-05-27T07:33:13.160Z</time>
      </trkpt>
      <trkpt lat="39.958975" lon="-0.40333">
        <ele>578.0</ele>
        <time>2017-05-27T07:33:14.182Z</time>
      </trkpt>
      <trkpt lat="39.958975" lon="-0.40333">
        <ele>578.0</ele>
        <time>2017-05-27T07:33:15.167Z</time>
      </trkpt>
      <trkpt lat="39.95911833" lon="-0.40329833">
        <ele>576.0</ele>
        <time>2017-05-27T07:33:16.186Z</time>
      </trkpt>
      <trkpt lat="39.95919833" lon="-0.40329167">
        <ele>575.0</ele>
        <time>2017-05-27T07:33:17.162Z</time>
      </trkpt>
      <trkpt lat="39.95919833" lon="-0.40329167">
        <ele>575.0</ele>
        <time>2017-05-27T07:33:18.180Z</time>
      </trkpt>
      <trkpt lat="39.95939" lon="-0.40329667">
        <ele>574.0</ele>
        <time>2017-05-27T07:33:19.172Z</time>
      </trkpt>
      <trkpt lat="39.95939" lon="-0.40329667">
        <ele>574.0</ele>
        <time>2017-05-27T07:33:20.175Z</time>
      </trkpt>
      <trkpt lat="39.95959333" lon="-0.40329833">
        <ele>572.0</ele>
        <time>2017-05-27T07:33:21.178Z</time>
      </trkpt>
      <trkpt lat="39.95959333" lon="-0.40329833">
        <ele>572.0</ele>
        <time>2017-05-27T07:33:22.160Z</time>
      </trkpt>
      <trkpt lat="39.95977333" lon="-0.40327333">
        <ele>571.0</ele>
        <time>2017-05-27T07:33:23.194Z</time>
      </trkpt>
      <trkpt lat="39.95985667" lon="-0.40324833">
        <ele>571.0</ele>
        <time>2017-05-27T07:33:24.165Z</time>
      </trkpt>
      <trkpt lat="39.95985667" lon="-0.40324833">
        <ele>571.0</ele>
        <time>2017-05-27T07:33:25.179Z</time>
      </trkpt>
      <trkpt lat="39.96000667" lon="-0.40320167">
        <ele>571.0</ele>
        <time>2017-05-27T07:33:26.165Z</time>
      </trkpt>
      <trkpt lat="39.96000667" lon="-0.40320167">
        <ele>571.0</ele>
        <time>2017-05-27T07:33:27.192Z</time>
      </trkpt>
      <trkpt lat="39.96013333" lon="-0.40311333">
        <ele>571.0</ele>
        <time>2017-05-27T07:33:28.182Z</time>
      </trkpt>
      <trkpt lat="39.96019333" lon="-0.40304833">
        <ele>570.0</ele>
        <time>2017-05-27T07:33:29.178Z</time>
      </trkpt>
      <trkpt lat="39.96019333" lon="-0.40304833">
        <ele>570.0</ele>
        <time>2017-05-27T07:33:30.184Z</time>
      </trkpt>
      <trkpt lat="39.96028" lon="-0.40289">
        <ele>570.0</ele>
        <time>2017-05-27T07:33:31.172Z</time>
      </trkpt>
      <trkpt lat="39.96028" lon="-0.40289">
        <ele>570.0</ele>
        <time>2017-05-27T07:33:32.175Z</time>
      </trkpt>
      <trkpt lat="39.96032833" lon="-0.40273">
        <ele>569.0</ele>
        <time>2017-05-27T07:33:33.178Z</time>
      </trkpt>
      <trkpt lat="39.96034833" lon="-0.40265333">
        <ele>569.0</ele>
        <time>2017-05-27T07:33:34.184Z</time>
      </trkpt>
      <trkpt lat="39.96034833" lon="-0.40265333">
        <ele>569.0</ele>
        <time>2017-05-27T07:33:35.190Z</time>
      </trkpt>
      <trkpt lat="39.96038833" lon="-0.402495">
        <ele>569.0</ele>
        <time>2017-05-27T07:33:36.194Z</time>
      </trkpt>
      <trkpt lat="39.96040167" lon="-0.402415">
        <ele>569.0</ele>
        <time>2017-05-27T07:33:37.156Z</time>
      </trkpt>
      <trkpt lat="39.96040167" lon="-0.402415">
        <ele>569.0</ele>
        <time>2017-05-27T07:33:38.168Z</time>
      </trkpt>
      <trkpt lat="39.96041167" lon="-0.40225">
        <ele>569.0</ele>
        <time>2017-05-27T07:33:39.196Z</time>
      </trkpt>
      <trkpt lat="39.96041167" lon="-0.40225">
        <ele>569.0</ele>
        <time>2017-05-27T07:33:40.166Z</time>
      </trkpt>
      <trkpt lat="39.96042833" lon="-0.40208">
        <ele>569.0</ele>
        <time>2017-05-27T07:33:41.157Z</time>
      </trkpt>
      <trkpt lat="39.96042833" lon="-0.40208">
        <ele>569.0</ele>
        <time>2017-05-27T07:33:42.168Z</time>
      </trkpt>
      <trkpt lat="39.96045333" lon="-0.40190333">
        <ele>569.0</ele>
        <time>2017-05-27T07:33:43.188Z</time>
      </trkpt>
      <trkpt lat="39.96046667" lon="-0.40182167">
        <ele>569.0</ele>
        <time>2017-05-27T07:33:44.181Z</time>
      </trkpt>
      <trkpt lat="39.96046667" lon="-0.40182167">
        <ele>569.0</ele>
        <time>2017-05-27T07:33:45.168Z</time>
      </trkpt>
      <trkpt lat="39.96050333" lon="-0.40166667">
        <ele>570.0</ele>
        <time>2017-05-27T07:33:46.157Z</time>
      </trkpt>
      <trkpt lat="39.96050333" lon="-0.40166667">
        <ele>570.0</ele>
        <time>2017-05-27T07:33:47.176Z</time>
      </trkpt>
      <trkpt lat="39.96053833" lon="-0.40151667">
        <ele>569.0</ele>
        <time>2017-05-27T07:33:48.196Z</time>
      </trkpt>
      <trkpt lat="39.96055667" lon="-0.40144333">
        <ele>569.0</ele>
        <time>2017-05-27T07:33:49.165Z</time>
      </trkpt>
      <trkpt lat="39.96055667" lon="-0.40144333">
        <ele>569.0</ele>
        <time>2017-05-27T07:33:50.176Z</time>
      </trkpt>
      <trkpt lat="39.960595" lon="-0.40129333">
        <ele>569.0</ele>
        <time>2017-05-27T07:33:51.162Z</time>
      </trkpt>
      <trkpt lat="39.960595" lon="-0.40129333">
        <ele>569.0</ele>
        <time>2017-05-27T07:33:52.162Z</time>
      </trkpt>
      <trkpt lat="39.96061167" lon="-0.40115167">
        <ele>569.0</ele>
        <time>2017-05-27T07:33:53.184Z</time>
      </trkpt>
      <trkpt lat="39.96061167" lon="-0.40115167">
        <ele>569.0</ele>
        <time>2017-05-27T07:33:54.191Z</time>
      </trkpt>
      <trkpt lat="39.96062333" lon="-0.40102667">
        <ele>569.0</ele>
        <time>2017-05-27T07:33:55.194Z</time>
      </trkpt>
      <trkpt lat="39.96063" lon="-0.40096833">
        <ele>569.0</ele>
        <time>2017-05-27T07:33:56.156Z</time>
      </trkpt>
      <trkpt lat="39.96063" lon="-0.40096833">
        <ele>569.0</ele>
        <time>2017-05-27T07:33:57.191Z</time>
      </trkpt>
      <trkpt lat="39.960645" lon="-0.40085833">
        <ele>570.0</ele>
        <time>2017-05-27T07:33:58.175Z</time>
      </trkpt>
      <trkpt lat="39.96065167" lon="-0.40080333">
        <ele>570.0</ele>
        <time>2017-05-27T07:33:59.186Z</time>
      </trkpt>
      <trkpt lat="39.96065167" lon="-0.40080333">
        <ele>570.0</ele>
        <time>2017-05-27T07:34:00.174Z</time>
      </trkpt>
      <trkpt lat="39.96066833" lon="-0.40070333">
        <ele>570.0</ele>
        <time>2017-05-27T07:34:01.156Z</time>
      </trkpt>
      <trkpt lat="39.96067833" lon="-0.400655">
        <ele>571.0</ele>
        <time>2017-05-27T07:34:02.183Z</time>
      </trkpt>
      <trkpt lat="39.96067833" lon="-0.400655">
        <ele>571.0</ele>
        <time>2017-05-27T07:34:03.158Z</time>
      </trkpt>
      <trkpt lat="39.96070167" lon="-0.40056667">
        <ele>571.0</ele>
        <time>2017-05-27T07:34:04.162Z</time>
      </trkpt>
      <trkpt lat="39.96071667" lon="-0.400525">
        <ele>571.0</ele>
        <time>2017-05-27T07:34:05.180Z</time>
      </trkpt>
      <trkpt lat="39.96071667" lon="-0.400525">
        <ele>571.0</ele>
        <time>2017-05-27T07:34:06.181Z</time>
      </trkpt>
      <trkpt lat="39.96074" lon="-0.40044667">
        <ele>571.0</ele>
        <time>2017-05-27T07:34:07.170Z</time>
      </trkpt>
      <trkpt lat="39.96074833" lon="-0.40041">
        <ele>571.0</ele>
        <time>2017-05-27T07:34:08.200Z</time>
      </trkpt>
      <trkpt lat="39.96074833" lon="-0.40041">
        <ele>571.0</ele>
        <time>2017-05-27T07:34:09.175Z</time>
      </trkpt>
      <trkpt lat="39.96076833" lon="-0.40034667">
        <ele>571.0</ele>
        <time>2017-05-27T07:34:10.177Z</time>
      </trkpt>
      <trkpt lat="39.96076833" lon="-0.40034667">
        <ele>571.0</ele>
        <time>2017-05-27T07:34:11.190Z</time>
      </trkpt>
      <trkpt lat="39.96079" lon="-0.40029">
        <ele>572.0</ele>
        <time>2017-05-27T07:34:12.187Z</time>
      </trkpt>
      <trkpt lat="39.96079833" lon="-0.400265">
        <ele>572.0</ele>
        <time>2017-05-27T07:34:13.199Z</time>
      </trkpt>
      <trkpt lat="39.96079833" lon="-0.400265">
        <ele>572.0</ele>
        <time>2017-05-27T07:34:14.164Z</time>
      </trkpt>
      <trkpt lat="39.96082" lon="-0.40021667">
        <ele>572.0</ele>
        <time>2017-05-27T07:34:15.187Z</time>
      </trkpt>
      <trkpt lat="39.96083333" lon="-0.400195">
        <ele>572.0</ele>
        <time>2017-05-27T07:34:16.176Z</time>
      </trkpt>
      <trkpt lat="39.96083333" lon="-0.400195">
        <ele>572.0</ele>
        <time>2017-05-27T07:34:17.181Z</time>
      </trkpt>
      <trkpt lat="39.96085833" lon="-0.40015167">
        <ele>573.0</ele>
        <time>2017-05-27T07:34:18.168Z</time>
      </trkpt>
      <trkpt lat="39.96085833" lon="-0.40015167">
        <ele>573.0</ele>
        <time>2017-05-27T07:34:19.169Z</time>
      </trkpt>
      <trkpt lat="39.96087833" lon="-0.40010833">
        <ele>573.0</ele>
        <time>2017-05-27T07:34:20.156Z</time>
      </trkpt>
      <trkpt lat="39.96087833" lon="-0.40010833">
        <ele>573.0</ele>
        <time>2017-05-27T07:34:21.179Z</time>
      </trkpt>
      <trkpt lat="39.96088833" lon="-0.40005667">
        <ele>574.0</ele>
        <time>2017-05-27T07:34:22.167Z</time>
      </trkpt>
      <trkpt lat="39.96088833" lon="-0.40005667">
        <ele>574.0</ele>
        <time>2017-05-27T07:34:23.171Z</time>
      </trkpt>
      <trkpt lat="39.96091167" lon="-0.40002167">
        <ele>574.0</ele>
        <time>2017-05-27T07:34:24.196Z</time>
      </trkpt>
      <trkpt lat="39.96092" lon="-0.39999833">
        <ele>574.0</ele>
        <time>2017-05-27T07:34:25.202Z</time>
      </trkpt>
      <trkpt lat="39.96092" lon="-0.39999833">
        <ele>574.0</ele>
        <time>2017-05-27T07:34:26.181Z</time>
      </trkpt>
      <trkpt lat="39.96094667" lon="-0.39995667">
        <ele>575.0</ele>
        <time>2017-05-27T07:34:27.164Z</time>
      </trkpt>
      <trkpt lat="39.96094667" lon="-0.39995667">
        <ele>575.0</ele>
        <time>2017-05-27T07:34:28.160Z</time>
      </trkpt>
      <trkpt lat="39.96097167" lon="-0.39991667">
        <ele>575.0</ele>
        <time>2017-05-27T07:34:29.180Z</time>
      </trkpt>
      <trkpt lat="39.96097167" lon="-0.39991667">
        <ele>575.0</ele>
        <time>2017-05-27T07:34:30.169Z</time>
      </trkpt>
      <trkpt lat="39.96098833" lon="-0.39987167">
        <ele>576.0</ele>
        <time>2017-05-27T07:34:31.194Z</time>
      </trkpt>
      <trkpt lat="39.96098833" lon="-0.39987167">
        <ele>576.0</ele>
        <time>2017-05-27T07:34:32.173Z</time>
      </trkpt>
      <trkpt lat="39.96101667" lon="-0.39982833">
        <ele>576.0</ele>
        <time>2017-05-27T07:34:33.166Z</time>
      </trkpt>
      <trkpt lat="39.96101667" lon="-0.39982833">
        <ele>576.0</ele>
        <time>2017-05-27T07:34:34.171Z</time>
      </trkpt>
      <trkpt lat="39.96104833" lon="-0.39978833">
        <ele>577.0</ele>
        <time>2017-05-27T07:34:35.172Z</time>
      </trkpt>
      <trkpt lat="39.96104833" lon="-0.39978833">
        <ele>577.0</ele>
        <time>2017-05-27T07:34:36.161Z</time>
      </trkpt>
      <trkpt lat="39.96107167" lon="-0.39974833">
        <ele>578.0</ele>
        <time>2017-05-27T07:34:37.190Z</time>
      </trkpt>
      <trkpt lat="39.96107167" lon="-0.39974833">
        <ele>578.0</ele>
        <time>2017-05-27T07:34:38.191Z</time>
      </trkpt>
      <trkpt lat="39.96110167" lon="-0.39971333">
        <ele>578.0</ele>
        <time>2017-05-27T07:34:39.194Z</time>
      </trkpt>
      <trkpt lat="39.96110167" lon="-0.39971333">
        <ele>578.0</ele>
        <time>2017-05-27T07:34:40.168Z</time>
      </trkpt>
      <trkpt lat="39.96113333" lon="-0.39967833">
        <ele>579.0</ele>
        <time>2017-05-27T07:34:41.180Z</time>
      </trkpt>
      <trkpt lat="39.96113333" lon="-0.39967833">
        <ele>579.0</ele>
        <time>2017-05-27T07:34:42.187Z</time>
      </trkpt>
      <trkpt lat="39.96116333" lon="-0.39964167">
        <ele>580.0</ele>
        <time>2017-05-27T07:34:43.176Z</time>
      </trkpt>
      <trkpt lat="39.96117833" lon="-0.399625">
        <ele>580.0</ele>
        <time>2017-05-27T07:34:44.156Z</time>
      </trkpt>
      <trkpt lat="39.96117833" lon="-0.399625">
        <ele>580.0</ele>
        <time>2017-05-27T07:34:45.188Z</time>
      </trkpt>
      <trkpt lat="39.96121333" lon="-0.39959833">
        <ele>581.0</ele>
        <time>2017-05-27T07:34:46.162Z</time>
      </trkpt>
      <trkpt lat="39.96121333" lon="-0.39959833">
        <ele>581.0</ele>
        <time>2017-05-27T07:34:47.190Z</time>
      </trkpt>
      <trkpt lat="39.961245" lon="-0.39956167">
        <ele>581.0</ele>
        <time>2017-05-27T07:34:48.180Z</time>
      </trkpt>
      <trkpt lat="39.96126" lon="-0.39954833">
        <ele>582.0</ele>
        <time>2017-05-27T07:34:49.197Z</time>
      </trkpt>
      <trkpt lat="39.96127333" lon="-0.39953333">
        <ele>582.0</ele>
        <time>2017-05-27T07:34:50.163Z</time>
      </trkpt>
      <trkpt lat="39.96127333" lon="-0.39953333">
        <ele>582.0</ele>
        <time>2017-05-27T07:34:51.187Z</time>
      </trkpt>
      <trkpt lat="39.9613" lon="-0.39949833">
        <ele>583.0</ele>
        <time>2017-05-27T07:34:52.173Z</time>
      </trkpt>
      <trkpt lat="39.9613" lon="-0.39949833">
        <ele>583.0</ele>
        <time>2017-05-27T07:34:53.191Z</time>
      </trkpt>
      <trkpt lat="39.96131667" lon="-0.39946167">
        <ele>583.0</ele>
        <time>2017-05-27T07:34:54.180Z</time>
      </trkpt>
      <trkpt lat="39.96131667" lon="-0.39946167">
        <ele>583.0</ele>
        <time>2017-05-27T07:34:55.185Z</time>
      </trkpt>
      <trkpt lat="39.96133333" lon="-0.39942667">
        <ele>584.0</ele>
        <time>2017-05-27T07:34:56.166Z</time>
      </trkpt>
      <trkpt lat="39.961345" lon="-0.3994">
        <ele>584.0</ele>
        <time>2017-05-27T07:34:57.163Z</time>
      </trkpt>
      <trkpt lat="39.961345" lon="-0.3994">
        <ele>584.0</ele>
        <time>2017-05-27T07:34:58.174Z</time>
      </trkpt>
      <trkpt lat="39.96136167" lon="-0.39932833">
        <ele>584.0</ele>
        <time>2017-05-27T07:34:59.184Z</time>
      </trkpt>
      <trkpt lat="39.96136167" lon="-0.39932833">
        <ele>584.0</ele>
        <time>2017-05-27T07:35:00.177Z</time>
      </trkpt>
      <trkpt lat="39.96136" lon="-0.39923333">
        <ele>584.0</ele>
        <time>2017-05-27T07:35:01.173Z</time>
      </trkpt>
      <trkpt lat="39.96134833" lon="-0.39917167">
        <ele>584.0</ele>
        <time>2017-05-27T07:35:02.176Z</time>
      </trkpt>
      <trkpt lat="39.96134833" lon="-0.39917167">
        <ele>584.0</ele>
        <time>2017-05-27T07:35:03.175Z</time>
      </trkpt>
      <trkpt lat="39.96130667" lon="-0.39903667">
        <ele>584.0</ele>
        <time>2017-05-27T07:35:04.161Z</time>
      </trkpt>
      <trkpt lat="39.96128167" lon="-0.39896167">
        <ele>583.0</ele>
        <time>2017-05-27T07:35:05.178Z</time>
      </trkpt>
      <trkpt lat="39.96128167" lon="-0.39896167">
        <ele>583.0</ele>
        <time>2017-05-27T07:35:06.165Z</time>
      </trkpt>
      <trkpt lat="39.96124167" lon="-0.39881333">
        <ele>583.0</ele>
        <time>2017-05-27T07:35:07.193Z</time>
      </trkpt>
      <trkpt lat="39.96121833" lon="-0.39874667">
        <ele>583.0</ele>
        <time>2017-05-27T07:35:08.196Z</time>
      </trkpt>
      <trkpt lat="39.96121833" lon="-0.39874667">
        <ele>583.0</ele>
        <time>2017-05-27T07:35:09.173Z</time>
      </trkpt>
      <trkpt lat="39.96119333" lon="-0.39861667">
        <ele>582.0</ele>
        <time>2017-05-27T07:35:10.162Z</time>
      </trkpt>
      <trkpt lat="39.96119333" lon="-0.39861667">
        <ele>582.0</ele>
        <time>2017-05-27T07:35:11.175Z</time>
      </trkpt>
      <trkpt lat="39.96125833" lon="-0.39852833">
        <ele>581.0</ele>
        <time>2017-05-27T07:35:12.197Z</time>
      </trkpt>
      <trkpt lat="39.96125833" lon="-0.39852833">
        <ele>581.0</ele>
        <time>2017-05-27T07:35:13.188Z</time>
      </trkpt>
      <trkpt lat="39.96133167" lon="-0.39849">
        <ele>581.0</ele>
        <time>2017-05-27T07:35:14.182Z</time>
      </trkpt>
      <trkpt lat="39.96133167" lon="-0.39849">
        <ele>581.0</ele>
        <time>2017-05-27T07:35:15.176Z</time>
      </trkpt>
      <trkpt lat="39.96139" lon="-0.39846667">
        <ele>581.0</ele>
        <time>2017-05-27T07:35:16.173Z</time>
      </trkpt>
      <trkpt lat="39.96139" lon="-0.39846667">
        <ele>581.0</ele>
        <time>2017-05-27T07:35:17.194Z</time>
      </trkpt>
      <trkpt lat="39.96144833" lon="-0.39846333">
        <ele>581.0</ele>
        <time>2017-05-27T07:35:18.178Z</time>
      </trkpt>
      <trkpt lat="39.96144833" lon="-0.39846333">
        <ele>581.0</ele>
        <time>2017-05-27T07:35:19.160Z</time>
      </trkpt>
      <trkpt lat="39.96150167" lon="-0.39847167">
        <ele>582.0</ele>
        <time>2017-05-27T07:35:20.189Z</time>
      </trkpt>
      <trkpt lat="39.96150167" lon="-0.39847167">
        <ele>582.0</ele>
        <time>2017-05-27T07:35:21.175Z</time>
      </trkpt>
      <trkpt lat="39.96155667" lon="-0.39848667">
        <ele>582.0</ele>
        <time>2017-05-27T07:35:22.193Z</time>
      </trkpt>
      <trkpt lat="39.961585" lon="-0.39849">
        <ele>583.0</ele>
        <time>2017-05-27T07:35:23.165Z</time>
      </trkpt>
      <trkpt lat="39.961585" lon="-0.39849">
        <ele>583.0</ele>
        <time>2017-05-27T07:35:24.183Z</time>
      </trkpt>
      <trkpt lat="39.96163167" lon="-0.39851167">
        <ele>583.0</ele>
        <time>2017-05-27T07:35:25.166Z</time>
      </trkpt>
      <trkpt lat="39.96165167" lon="-0.398525">
        <ele>583.0</ele>
        <time>2017-05-27T07:35:26.198Z</time>
      </trkpt>
      <trkpt lat="39.96165167" lon="-0.398525">
        <ele>583.0</ele>
        <time>2017-05-27T07:35:27.177Z</time>
      </trkpt>
      <trkpt lat="39.96168833" lon="-0.39855167">
        <ele>583.0</ele>
        <time>2017-05-27T07:35:28.157Z</time>
      </trkpt>
      <trkpt lat="39.96168833" lon="-0.39855167">
        <ele>583.0</ele>
        <time>2017-05-27T07:35:29.184Z</time>
      </trkpt>
      <trkpt lat="39.96172667" lon="-0.39857333">
        <ele>584.0</ele>
        <time>2017-05-27T07:35:30.175Z</time>
      </trkpt>
      <trkpt lat="39.96174833" lon="-0.39858333">
        <ele>584.0</ele>
        <time>2017-05-27T07:35:31.165Z</time>
      </trkpt>
      <trkpt lat="39.96174833" lon="-0.39858333">
        <ele>584.0</ele>
        <time>2017-05-27T07:35:32.165Z</time>
      </trkpt>
      <trkpt lat="39.96179" lon="-0.39859667">
        <ele>585.0</ele>
        <time>2017-05-27T07:35:33.184Z</time>
      </trkpt>
      <trkpt lat="39.96179" lon="-0.39859667">
        <ele>585.0</ele>
        <time>2017-05-27T07:35:34.163Z</time>
      </trkpt>
      <trkpt lat="39.96182667" lon="-0.39860667">
        <ele>585.0</ele>
        <time>2017-05-27T07:35:35.156Z</time>
      </trkpt>
      <trkpt lat="39.96184667" lon="-0.39860833">
        <ele>586.0</ele>
        <time>2017-05-27T07:35:36.186Z</time>
      </trkpt>
      <trkpt lat="39.961865" lon="-0.39861">
        <ele>586.0</ele>
        <time>2017-05-27T07:35:37.159Z</time>
      </trkpt>
      <trkpt lat="39.961865" lon="-0.39861">
        <ele>586.0</ele>
        <time>2017-05-27T07:35:38.172Z</time>
      </trkpt>
      <trkpt lat="39.96190333" lon="-0.398595">
        <ele>586.0</ele>
        <time>2017-05-27T07:35:39.160Z</time>
      </trkpt>
      <trkpt lat="39.96192333" lon="-0.39858667">
        <ele>587.0</ele>
        <time>2017-05-27T07:35:40.164Z</time>
      </trkpt>
      <trkpt lat="39.96194333" lon="-0.39857667">
        <ele>587.0</ele>
        <time>2017-05-27T07:35:41.173Z</time>
      </trkpt>
      <trkpt lat="39.96196" lon="-0.39856333">
        <ele>587.0</ele>
        <time>2017-05-27T07:35:42.190Z</time>
      </trkpt>
      <trkpt lat="39.96196" lon="-0.39856333">
        <ele>587.0</ele>
        <time>2017-05-27T07:35:43.175Z</time>
      </trkpt>
      <trkpt lat="39.96199667" lon="-0.39853333">
        <ele>588.0</ele>
        <time>2017-05-27T07:35:44.156Z</time>
      </trkpt>
      <trkpt lat="39.96199667" lon="-0.39853333">
        <ele>588.0</ele>
        <time>2017-05-27T07:35:45.158Z</time>
      </trkpt>
      <trkpt lat="39.96202333" lon="-0.3985">
        <ele>588.0</ele>
        <time>2017-05-27T07:35:46.179Z</time>
      </trkpt>
      <trkpt lat="39.96202333" lon="-0.3985">
        <ele>588.0</ele>
        <time>2017-05-27T07:35:47.177Z</time>
      </trkpt>
      <trkpt lat="39.96204167" lon="-0.39845">
        <ele>589.0</ele>
        <time>2017-05-27T07:35:48.165Z</time>
      </trkpt>
      <trkpt lat="39.96204833" lon="-0.398425">
        <ele>589.0</ele>
        <time>2017-05-27T07:35:49.182Z</time>
      </trkpt>
      <trkpt lat="39.96204833" lon="-0.398425">
        <ele>589.0</ele>
        <time>2017-05-27T07:35:50.162Z</time>
      </trkpt>
      <trkpt lat="39.962055" lon="-0.398375">
        <ele>590.0</ele>
        <time>2017-05-27T07:35:51.184Z</time>
      </trkpt>
      <trkpt lat="39.962055" lon="-0.398375">
        <ele>590.0</ele>
        <time>2017-05-27T07:35:52.195Z</time>
      </trkpt>
      <trkpt lat="39.96206167" lon="-0.398325">
        <ele>590.0</ele>
        <time>2017-05-27T07:35:53.180Z</time>
      </trkpt>
      <trkpt lat="39.96206167" lon="-0.398325">
        <ele>590.0</ele>
        <time>2017-05-27T07:35:54.158Z</time>
      </trkpt>
      <trkpt lat="39.96206333" lon="-0.398275">
        <ele>591.0</ele>
        <time>2017-05-27T07:35:55.196Z</time>
      </trkpt>
      <trkpt lat="39.96206333" lon="-0.39824833">
        <ele>591.0</ele>
        <time>2017-05-27T07:35:56.179Z</time>
      </trkpt>
      <trkpt lat="39.96206333" lon="-0.39824833">
        <ele>591.0</ele>
        <time>2017-05-27T07:35:57.190Z</time>
      </trkpt>
      <trkpt lat="39.96207" lon="-0.39819833">
        <ele>592.0</ele>
        <time>2017-05-27T07:35:58.193Z</time>
      </trkpt>
      <trkpt lat="39.96207" lon="-0.39819833">
        <ele>592.0</ele>
        <time>2017-05-27T07:35:59.183Z</time>
      </trkpt>
      <trkpt lat="39.96207833" lon="-0.39814833">
        <ele>592.0</ele>
        <time>2017-05-27T07:36:00.173Z</time>
      </trkpt>
      <trkpt lat="39.962085" lon="-0.398125">
        <ele>593.0</ele>
        <time>2017-05-27T07:36:01.182Z</time>
      </trkpt>
      <trkpt lat="39.962085" lon="-0.398125">
        <ele>593.0</ele>
        <time>2017-05-27T07:36:02.160Z</time>
      </trkpt>
      <trkpt lat="39.962095" lon="-0.39807833">
        <ele>593.0</ele>
        <time>2017-05-27T07:36:03.194Z</time>
      </trkpt>
      <trkpt lat="39.962095" lon="-0.39807833">
        <ele>593.0</ele>
        <time>2017-05-27T07:36:04.175Z</time>
      </trkpt>
      <trkpt lat="39.96210667" lon="-0.39803333">
        <ele>593.0</ele>
        <time>2017-05-27T07:36:05.193Z</time>
      </trkpt>
      <trkpt lat="39.96210667" lon="-0.39803333">
        <ele>593.0</ele>
        <time>2017-05-27T07:36:06.162Z</time>
      </trkpt>
      <trkpt lat="39.962125" lon="-0.39799667">
        <ele>594.0</ele>
        <time>2017-05-27T07:36:07.184Z</time>
      </trkpt>
      <trkpt lat="39.96213333" lon="-0.39797667">
        <ele>594.0</ele>
        <time>2017-05-27T07:36:08.183Z</time>
      </trkpt>
      <trkpt lat="39.96213333" lon="-0.39797667">
        <ele>594.0</ele>
        <time>2017-05-27T07:36:09.187Z</time>
      </trkpt>
      <trkpt lat="39.96215333" lon="-0.39794">
        <ele>595.0</ele>
        <time>2017-05-27T07:36:10.172Z</time>
      </trkpt>
      <trkpt lat="39.96215333" lon="-0.39794">
        <ele>595.0</ele>
        <time>2017-05-27T07:36:11.161Z</time>
      </trkpt>
      <trkpt lat="39.962175" lon="-0.39790333">
        <ele>595.0</ele>
        <time>2017-05-27T07:36:12.192Z</time>
      </trkpt>
      <trkpt lat="39.962175" lon="-0.39790333">
        <ele>595.0</ele>
        <time>2017-05-27T07:36:13.165Z</time>
      </trkpt>
      <trkpt lat="39.96220167" lon="-0.39787">
        <ele>595.0</ele>
        <time>2017-05-27T07:36:14.198Z</time>
      </trkpt>
      <trkpt lat="39.96220167" lon="-0.39787">
        <ele>595.0</ele>
        <time>2017-05-27T07:36:15.178Z</time>
      </trkpt>
      <trkpt lat="39.96222333" lon="-0.39783167">
        <ele>596.0</ele>
        <time>2017-05-27T07:36:16.198Z</time>
      </trkpt>
      <trkpt lat="39.96222333" lon="-0.39783167">
        <ele>596.0</ele>
        <time>2017-05-27T07:36:17.191Z</time>
      </trkpt>
      <trkpt lat="39.96224333" lon="-0.397795">
        <ele>596.0</ele>
        <time>2017-05-27T07:36:18.172Z</time>
      </trkpt>
      <trkpt lat="39.96225" lon="-0.397775">
        <ele>597.0</ele>
        <time>2017-05-27T07:36:19.170Z</time>
      </trkpt>
      <trkpt lat="39.96225" lon="-0.397775">
        <ele>597.0</ele>
        <time>2017-05-27T07:36:20.174Z</time>
      </trkpt>
      <trkpt lat="39.962255" lon="-0.39772667">
        <ele>597.0</ele>
        <time>2017-05-27T07:36:21.156Z</time>
      </trkpt>
      <trkpt lat="39.962255" lon="-0.39772667">
        <ele>597.0</ele>
        <time>2017-05-27T07:36:22.178Z</time>
      </trkpt>
      <trkpt lat="39.96225667" lon="-0.39767667">
        <ele>597.0</ele>
        <time>2017-05-27T07:36:23.176Z</time>
      </trkpt>
      <trkpt lat="39.96225167" lon="-0.39765333">
        <ele>598.0</ele>
        <time>2017-05-27T07:36:24.182Z</time>
      </trkpt>
      <trkpt lat="39.96225167" lon="-0.39765333">
        <ele>598.0</ele>
        <time>2017-05-27T07:36:25.188Z</time>
      </trkpt>
      <trkpt lat="39.96224333" lon="-0.39761">
        <ele>598.0</ele>
        <time>2017-05-27T07:36:26.183Z</time>
      </trkpt>
      <trkpt lat="39.96224333" lon="-0.39761">
        <ele>598.0</ele>
        <time>2017-05-27T07:36:27.172Z</time>
      </trkpt>
      <trkpt lat="39.96223667" lon="-0.39756833">
        <ele>599.0</ele>
        <time>2017-05-27T07:36:28.158Z</time>
      </trkpt>
      <trkpt lat="39.96223" lon="-0.39754833">
        <ele>599.0</ele>
        <time>2017-05-27T07:36:29.167Z</time>
      </trkpt>
      <trkpt lat="39.96223" lon="-0.39754833">
        <ele>599.0</ele>
        <time>2017-05-27T07:36:30.175Z</time>
      </trkpt>
      <trkpt lat="39.962215" lon="-0.39751">
        <ele>600.0</ele>
        <time>2017-05-27T07:36:31.159Z</time>
      </trkpt>
      <trkpt lat="39.962215" lon="-0.39751">
        <ele>600.0</ele>
        <time>2017-05-27T07:36:32.159Z</time>
      </trkpt>
      <trkpt lat="39.9622" lon="-0.39746833">
        <ele>600.0</ele>
        <time>2017-05-27T07:36:33.190Z</time>
      </trkpt>
      <trkpt lat="39.9622" lon="-0.39746833">
        <ele>600.0</ele>
        <time>2017-05-27T07:36:34.184Z</time>
      </trkpt>
      <trkpt lat="39.962185" lon="-0.397425">
        <ele>601.0</ele>
        <time>2017-05-27T07:36:35.168Z</time>
      </trkpt>
      <trkpt lat="39.962185" lon="-0.397425">
        <ele>601.0</ele>
        <time>2017-05-27T07:36:36.161Z</time>
      </trkpt>
      <trkpt lat="39.962175" lon="-0.39738333">
        <ele>601.0</ele>
        <time>2017-05-27T07:36:37.193Z</time>
      </trkpt>
      <trkpt lat="39.962175" lon="-0.39738333">
        <ele>601.0</ele>
        <time>2017-05-27T07:36:38.195Z</time>
      </trkpt>
      <trkpt lat="39.96216167" lon="-0.39734167">
        <ele>602.0</ele>
        <time>2017-05-27T07:36:39.191Z</time>
      </trkpt>
      <trkpt lat="39.96216167" lon="-0.39734167">
        <ele>602.0</ele>
        <time>2017-05-27T07:36:40.169Z</time>
      </trkpt>
      <trkpt lat="39.96214667" lon="-0.39729833">
        <ele>603.0</ele>
        <time>2017-05-27T07:36:41.189Z</time>
      </trkpt>
      <trkpt lat="39.96214667" lon="-0.39729833">
        <ele>603.0</ele>
        <time>2017-05-27T07:36:42.175Z</time>
      </trkpt>
      <trkpt lat="39.96213667" lon="-0.39725333">
        <ele>603.0</ele>
        <time>2017-05-27T07:36:43.166Z</time>
      </trkpt>
      <trkpt lat="39.96213" lon="-0.39723167">
        <ele>604.0</ele>
        <time>2017-05-27T07:36:44.157Z</time>
      </trkpt>
      <trkpt lat="39.96213" lon="-0.39723167">
        <ele>604.0</ele>
        <time>2017-05-27T07:36:45.175Z</time>
      </trkpt>
      <trkpt lat="39.962125" lon="-0.39719">
        <ele>604.0</ele>
        <time>2017-05-27T07:36:46.197Z</time>
      </trkpt>
      <trkpt lat="39.96212667" lon="-0.39716667">
        <ele>604.0</ele>
        <time>2017-05-27T07:36:47.185Z</time>
      </trkpt>
      <trkpt lat="39.96212667" lon="-0.39716667">
        <ele>604.0</ele>
        <time>2017-05-27T07:36:48.162Z</time>
      </trkpt>
      <trkpt lat="39.96213" lon="-0.39712167">
        <ele>605.0</ele>
        <time>2017-05-27T07:36:49.182Z</time>
      </trkpt>
      <trkpt lat="39.96213" lon="-0.39712167">
        <ele>605.0</ele>
        <time>2017-05-27T07:36:50.184Z</time>
      </trkpt>
      <trkpt lat="39.96212333" lon="-0.39707667">
        <ele>605.0</ele>
        <time>2017-05-27T07:36:51.167Z</time>
      </trkpt>
      <trkpt lat="39.96212333" lon="-0.39707667">
        <ele>605.0</ele>
        <time>2017-05-27T07:36:52.157Z</time>
      </trkpt>
      <trkpt lat="39.96211833" lon="-0.39703667">
        <ele>606.0</ele>
        <time>2017-05-27T07:36:53.169Z</time>
      </trkpt>
      <trkpt lat="39.96211833" lon="-0.39703667">
        <ele>606.0</ele>
        <time>2017-05-27T07:36:54.160Z</time>
      </trkpt>
      <trkpt lat="39.96212833" lon="-0.39699167">
        <ele>607.0</ele>
        <time>2017-05-27T07:36:55.196Z</time>
      </trkpt>
      <trkpt lat="39.96212833" lon="-0.39699167">
        <ele>607.0</ele>
        <time>2017-05-27T07:36:56.171Z</time>
      </trkpt>
      <trkpt lat="39.96214667" lon="-0.39695833">
        <ele>607.0</ele>
        <time>2017-05-27T07:36:57.195Z</time>
      </trkpt>
      <trkpt lat="39.96214667" lon="-0.39695833">
        <ele>607.0</ele>
        <time>2017-05-27T07:36:58.175Z</time>
      </trkpt>
      <trkpt lat="39.96215833" lon="-0.39691667">
        <ele>608.0</ele>
        <time>2017-05-27T07:36:59.193Z</time>
      </trkpt>
      <trkpt lat="39.96216167" lon="-0.39689333">
        <ele>608.0</ele>
        <time>2017-05-27T07:37:00.166Z</time>
      </trkpt>
      <trkpt lat="39.96216167" lon="-0.39689333">
        <ele>608.0</ele>
        <time>2017-05-27T07:37:01.157Z</time>
      </trkpt>
      <trkpt lat="39.96216167" lon="-0.39685">
        <ele>608.0</ele>
        <time>2017-05-27T07:37:02.182Z</time>
      </trkpt>
      <trkpt lat="39.96216167" lon="-0.39685">
        <ele>608.0</ele>
        <time>2017-05-27T07:37:03.159Z</time>
      </trkpt>
      <trkpt lat="39.96215833" lon="-0.39680667">
        <ele>609.0</ele>
        <time>2017-05-27T07:37:04.197Z</time>
      </trkpt>
      <trkpt lat="39.96215667" lon="-0.396785">
        <ele>609.0</ele>
        <time>2017-05-27T07:37:05.179Z</time>
      </trkpt>
      <trkpt lat="39.96215667" lon="-0.396785">
        <ele>609.0</ele>
        <time>2017-05-27T07:37:06.186Z</time>
      </trkpt>
      <trkpt lat="39.96215" lon="-0.39673667">
        <ele>610.0</ele>
        <time>2017-05-27T07:37:07.163Z</time>
      </trkpt>
      <trkpt lat="39.96215" lon="-0.39673667">
        <ele>610.0</ele>
        <time>2017-05-27T07:37:08.186Z</time>
      </trkpt>
      <trkpt lat="39.96215" lon="-0.39668667">
        <ele>610.0</ele>
        <time>2017-05-27T07:37:09.172Z</time>
      </trkpt>
      <trkpt lat="39.96215" lon="-0.39668667">
        <ele>610.0</ele>
        <time>2017-05-27T07:37:10.185Z</time>
      </trkpt>
      <trkpt lat="39.962145" lon="-0.39663667">
        <ele>611.0</ele>
        <time>2017-05-27T07:37:11.167Z</time>
      </trkpt>
      <trkpt lat="39.96214167" lon="-0.39661667">
        <ele>611.0</ele>
        <time>2017-05-27T07:37:12.195Z</time>
      </trkpt>
      <trkpt lat="39.96214167" lon="-0.39661667">
        <ele>611.0</ele>
        <time>2017-05-27T07:37:13.194Z</time>
      </trkpt>
      <trkpt lat="39.96213333" lon="-0.39657333">
        <ele>611.0</ele>
        <time>2017-05-27T07:37:14.180Z</time>
      </trkpt>
      <trkpt lat="39.96213333" lon="-0.39657333">
        <ele>611.0</ele>
        <time>2017-05-27T07:37:15.168Z</time>
      </trkpt>
      <trkpt lat="39.96213" lon="-0.39652667">
        <ele>612.0</ele>
        <time>2017-05-27T07:37:16.156Z</time>
      </trkpt>
      <trkpt lat="39.96212833" lon="-0.39650167">
        <ele>612.0</ele>
        <time>2017-05-27T07:37:17.157Z</time>
      </trkpt>
      <trkpt lat="39.96212833" lon="-0.39650167">
        <ele>612.0</ele>
        <time>2017-05-27T07:37:18.159Z</time>
      </trkpt>
      <trkpt lat="39.96211667" lon="-0.396455">
        <ele>613.0</ele>
        <time>2017-05-27T07:37:19.191Z</time>
      </trkpt>
      <trkpt lat="39.96211667" lon="-0.396455">
        <ele>613.0</ele>
        <time>2017-05-27T07:37:20.169Z</time>
      </trkpt>
      <trkpt lat="39.962105" lon="-0.39641167">
        <ele>614.0</ele>
        <time>2017-05-27T07:37:21.168Z</time>
      </trkpt>
      <trkpt lat="39.9621" lon="-0.39638833">
        <ele>614.0</ele>
        <time>2017-05-27T07:37:22.193Z</time>
      </trkpt>
      <trkpt lat="39.9621" lon="-0.39638833">
        <ele>614.0</ele>
        <time>2017-05-27T07:37:23.159Z</time>
      </trkpt>
      <trkpt lat="39.96209667" lon="-0.39633833">
        <ele>614.0</ele>
        <time>2017-05-27T07:37:24.182Z</time>
      </trkpt>
      <trkpt lat="39.96209167" lon="-0.39631167">
        <ele>615.0</ele>
        <time>2017-05-27T07:37:25.166Z</time>
      </trkpt>
      <trkpt lat="39.96209167" lon="-0.39631167">
        <ele>615.0</ele>
        <time>2017-05-27T07:37:26.177Z</time>
      </trkpt>
      <trkpt lat="39.96208667" lon="-0.39626333">
        <ele>615.0</ele>
        <time>2017-05-27T07:37:27.166Z</time>
      </trkpt>
      <trkpt lat="39.96208667" lon="-0.39626333">
        <ele>615.0</ele>
        <time>2017-05-27T07:37:28.189Z</time>
      </trkpt>
      <trkpt lat="39.96208167" lon="-0.39621667">
        <ele>615.0</ele>
        <time>2017-05-27T07:37:29.192Z</time>
      </trkpt>
      <trkpt lat="39.96208167" lon="-0.39621667">
        <ele>615.0</ele>
        <time>2017-05-27T07:37:30.188Z</time>
      </trkpt>
      <trkpt lat="39.96206833" lon="-0.396175">
        <ele>615.0</ele>
        <time>2017-05-27T07:37:31.182Z</time>
      </trkpt>
      <trkpt lat="39.96206667" lon="-0.39614833">
        <ele>615.0</ele>
        <time>2017-05-27T07:37:32.162Z</time>
      </trkpt>
      <trkpt lat="39.96206667" lon="-0.39614833">
        <ele>615.0</ele>
        <time>2017-05-27T07:37:33.194Z</time>
      </trkpt>
      <trkpt lat="39.96206" lon="-0.39610333">
        <ele>616.0</ele>
        <time>2017-05-27T07:37:34.181Z</time>
      </trkpt>
      <trkpt lat="39.96206" lon="-0.39610333">
        <ele>616.0</ele>
        <time>2017-05-27T07:37:35.162Z</time>
      </trkpt>
      <trkpt lat="39.96205667" lon="-0.396055">
        <ele>616.0</ele>
        <time>2017-05-27T07:37:36.181Z</time>
      </trkpt>
      <trkpt lat="39.96205667" lon="-0.396055">
        <ele>616.0</ele>
        <time>2017-05-27T07:37:37.173Z</time>
      </trkpt>
      <trkpt lat="39.962055" lon="-0.39600667">
        <ele>617.0</ele>
        <time>2017-05-27T07:37:38.161Z</time>
      </trkpt>
      <trkpt lat="39.962055" lon="-0.39600667">
        <ele>617.0</ele>
        <time>2017-05-27T07:37:39.168Z</time>
      </trkpt>
      <trkpt lat="39.96205167" lon="-0.395955">
        <ele>617.0</ele>
        <time>2017-05-27T07:37:40.161Z</time>
      </trkpt>
      <trkpt lat="39.96204833" lon="-0.39593">
        <ele>617.0</ele>
        <time>2017-05-27T07:37:41.187Z</time>
      </trkpt>
      <trkpt lat="39.96204833" lon="-0.39593">
        <ele>617.0</ele>
        <time>2017-05-27T07:37:42.177Z</time>
      </trkpt>
      <trkpt lat="39.96204167" lon="-0.39588167">
        <ele>618.0</ele>
        <time>2017-05-27T07:37:43.172Z</time>
      </trkpt>
      <trkpt lat="39.96204" lon="-0.395855">
        <ele>618.0</ele>
        <time>2017-05-27T07:37:44.161Z</time>
      </trkpt>
      <trkpt lat="39.96204" lon="-0.395855">
        <ele>618.0</ele>
        <time>2017-05-27T07:37:45.186Z</time>
      </trkpt>
      <trkpt lat="39.96203833" lon="-0.395805">
        <ele>618.0</ele>
        <time>2017-05-27T07:37:46.181Z</time>
      </trkpt>
      <trkpt lat="39.96203833" lon="-0.39577833">
        <ele>619.0</ele>
        <time>2017-05-27T07:37:47.173Z</time>
      </trkpt>
      <trkpt lat="39.96203833" lon="-0.39577833">
        <ele>619.0</ele>
        <time>2017-05-27T07:37:48.160Z</time>
      </trkpt>
      <trkpt lat="39.96203833" lon="-0.39572833">
        <ele>619.0</ele>
        <time>2017-05-27T07:37:49.191Z</time>
      </trkpt>
      <trkpt lat="39.96203667" lon="-0.39570333">
        <ele>619.0</ele>
        <time>2017-05-27T07:37:50.192Z</time>
      </trkpt>
      <trkpt lat="39.96203667" lon="-0.39570333">
        <ele>619.0</ele>
        <time>2017-05-27T07:37:51.174Z</time>
      </trkpt>
      <trkpt lat="39.96203667" lon="-0.39565333">
        <ele>620.0</ele>
        <time>2017-05-27T07:37:52.160Z</time>
      </trkpt>
      <trkpt lat="39.96203667" lon="-0.39565333">
        <ele>620.0</ele>
        <time>2017-05-27T07:37:53.195Z</time>
      </trkpt>
      <trkpt lat="39.962035" lon="-0.39560833">
        <ele>620.0</ele>
        <time>2017-05-27T07:37:54.175Z</time>
      </trkpt>
      <trkpt lat="39.962035" lon="-0.39560833">
        <ele>620.0</ele>
        <time>2017-05-27T07:37:55.184Z</time>
      </trkpt>
      <trkpt lat="39.96204" lon="-0.39556">
        <ele>620.0</ele>
        <time>2017-05-27T07:37:56.168Z</time>
      </trkpt>
      <trkpt lat="39.96204" lon="-0.39556">
        <ele>620.0</ele>
        <time>2017-05-27T07:37:57.176Z</time>
      </trkpt>
      <trkpt lat="39.96205333" lon="-0.39551167">
        <ele>620.0</ele>
        <time>2017-05-27T07:37:58.157Z</time>
      </trkpt>
      <trkpt lat="39.96205333" lon="-0.39551167">
        <ele>620.0</ele>
        <time>2017-05-27T07:37:59.167Z</time>
      </trkpt>
      <trkpt lat="39.96207" lon="-0.39546167">
        <ele>621.0</ele>
        <time>2017-05-27T07:38:00.165Z</time>
      </trkpt>
      <trkpt lat="39.96207" lon="-0.39546167">
        <ele>621.0</ele>
        <time>2017-05-27T07:38:01.161Z</time>
      </trkpt>
      <trkpt lat="39.96208333" lon="-0.39541167">
        <ele>621.0</ele>
        <time>2017-05-27T07:38:02.188Z</time>
      </trkpt>
      <trkpt lat="39.96208333" lon="-0.39541167">
        <ele>621.0</ele>
        <time>2017-05-27T07:38:03.160Z</time>
      </trkpt>
      <trkpt lat="39.962105" lon="-0.39537">
        <ele>622.0</ele>
        <time>2017-05-27T07:38:04.174Z</time>
      </trkpt>
      <trkpt lat="39.962105" lon="-0.39537">
        <ele>622.0</ele>
        <time>2017-05-27T07:38:05.173Z</time>
      </trkpt>
      <trkpt lat="39.96213" lon="-0.39533667">
        <ele>622.0</ele>
        <time>2017-05-27T07:38:06.196Z</time>
      </trkpt>
      <trkpt lat="39.96213" lon="-0.39533667">
        <ele>622.0</ele>
        <time>2017-05-27T07:38:07.182Z</time>
      </trkpt>
      <trkpt lat="39.96215833" lon="-0.39531">
        <ele>623.0</ele>
        <time>2017-05-27T07:38:08.168Z</time>
      </trkpt>
      <trkpt lat="39.96215833" lon="-0.39531">
        <ele>623.0</ele>
        <time>2017-05-27T07:38:09.161Z</time>
      </trkpt>
      <trkpt lat="39.96218333" lon="-0.39528333">
        <ele>624.0</ele>
        <time>2017-05-27T07:38:10.196Z</time>
      </trkpt>
      <trkpt lat="39.96220167" lon="-0.39527167">
        <ele>624.0</ele>
        <time>2017-05-27T07:38:11.198Z</time>
      </trkpt>
      <trkpt lat="39.96220167" lon="-0.39527167">
        <ele>624.0</ele>
        <time>2017-05-27T07:38:12.167Z</time>
      </trkpt>
      <trkpt lat="39.96223667" lon="-0.39524667">
        <ele>624.0</ele>
        <time>2017-05-27T07:38:13.185Z</time>
      </trkpt>
      <trkpt lat="39.96223667" lon="-0.39524667">
        <ele>624.0</ele>
        <time>2017-05-27T07:38:14.186Z</time>
      </trkpt>
      <trkpt lat="39.96228167" lon="-0.39524167">
        <ele>625.0</ele>
        <time>2017-05-27T07:38:15.170Z</time>
      </trkpt>
      <trkpt lat="39.96230333" lon="-0.39523667">
        <ele>625.0</ele>
        <time>2017-05-27T07:38:16.189Z</time>
      </trkpt>
      <trkpt lat="39.96230333" lon="-0.39523667">
        <ele>625.0</ele>
        <time>2017-05-27T07:38:17.156Z</time>
      </trkpt>
      <trkpt lat="39.96234333" lon="-0.39521833">
        <ele>625.0</ele>
        <time>2017-05-27T07:38:18.171Z</time>
      </trkpt>
      <trkpt lat="39.96234333" lon="-0.39521833">
        <ele>625.0</ele>
        <time>2017-05-27T07:38:19.174Z</time>
      </trkpt>
      <trkpt lat="39.96238333" lon="-0.39520333">
        <ele>625.0</ele>
        <time>2017-05-27T07:38:20.157Z</time>
      </trkpt>
      <trkpt lat="39.96240167" lon="-0.395195">
        <ele>626.0</ele>
        <time>2017-05-27T07:38:21.160Z</time>
      </trkpt>
      <trkpt lat="39.96240167" lon="-0.395195">
        <ele>626.0</ele>
        <time>2017-05-27T07:38:22.165Z</time>
      </trkpt>
      <trkpt lat="39.96244333" lon="-0.39518167">
        <ele>626.0</ele>
        <time>2017-05-27T07:38:23.163Z</time>
      </trkpt>
      <trkpt lat="39.96246833" lon="-0.39517">
        <ele>626.0</ele>
        <time>2017-05-27T07:38:24.186Z</time>
      </trkpt>
      <trkpt lat="39.96246833" lon="-0.39517">
        <ele>626.0</ele>
        <time>2017-05-27T07:38:25.170Z</time>
      </trkpt>
      <trkpt lat="39.96251167" lon="-0.39515167">
        <ele>626.0</ele>
        <time>2017-05-27T07:38:26.165Z</time>
      </trkpt>
      <trkpt lat="39.96251167" lon="-0.39515167">
        <ele>626.0</ele>
        <time>2017-05-27T07:38:27.166Z</time>
      </trkpt>
      <trkpt lat="39.96255" lon="-0.39514">
        <ele>627.0</ele>
        <time>2017-05-27T07:38:28.169Z</time>
      </trkpt>
      <trkpt lat="39.96257" lon="-0.39513167">
        <ele>627.0</ele>
        <time>2017-05-27T07:38:29.196Z</time>
      </trkpt>
      <trkpt lat="39.96257" lon="-0.39513167">
        <ele>627.0</ele>
        <time>2017-05-27T07:38:30.159Z</time>
      </trkpt>
      <trkpt lat="39.96261" lon="-0.39512167">
        <ele>627.0</ele>
        <time>2017-05-27T07:38:31.187Z</time>
      </trkpt>
      <trkpt lat="39.96262833" lon="-0.39511333">
        <ele>628.0</ele>
        <time>2017-05-27T07:38:32.158Z</time>
      </trkpt>
      <trkpt lat="39.96262833" lon="-0.39511333">
        <ele>628.0</ele>
        <time>2017-05-27T07:38:33.172Z</time>
      </trkpt>
      <trkpt lat="39.96266667" lon="-0.39509667">
        <ele>628.0</ele>
        <time>2017-05-27T07:38:34.162Z</time>
      </trkpt>
      <trkpt lat="39.96268333" lon="-0.39508833">
        <ele>628.0</ele>
        <time>2017-05-27T07:38:35.189Z</time>
      </trkpt>
      <trkpt lat="39.96268333" lon="-0.39508833">
        <ele>628.0</ele>
        <time>2017-05-27T07:38:36.162Z</time>
      </trkpt>
      <trkpt lat="39.96272667" lon="-0.39507667">
        <ele>628.0</ele>
        <time>2017-05-27T07:38:37.191Z</time>
      </trkpt>
      <trkpt lat="39.96274833" lon="-0.39507">
        <ele>628.0</ele>
        <time>2017-05-27T07:38:38.172Z</time>
      </trkpt>
      <trkpt lat="39.96274833" lon="-0.39507">
        <ele>628.0</ele>
        <time>2017-05-27T07:38:39.183Z</time>
      </trkpt>
      <trkpt lat="39.962795" lon="-0.39504833">
        <ele>629.0</ele>
        <time>2017-05-27T07:38:40.168Z</time>
      </trkpt>
      <trkpt lat="39.962795" lon="-0.39504833">
        <ele>629.0</ele>
        <time>2017-05-27T07:38:41.176Z</time>
      </trkpt>
      <trkpt lat="39.96284167" lon="-0.39503167">
        <ele>629.0</ele>
        <time>2017-05-27T07:38:42.159Z</time>
      </trkpt>
      <trkpt lat="39.96284167" lon="-0.39503167">
        <ele>629.0</ele>
        <time>2017-05-27T07:38:43.176Z</time>
      </trkpt>
      <trkpt lat="39.962885" lon="-0.39501333">
        <ele>629.0</ele>
        <time>2017-05-27T07:38:44.188Z</time>
      </trkpt>
      <trkpt lat="39.962885" lon="-0.39501333">
        <ele>629.0</ele>
        <time>2017-05-27T07:38:45.166Z</time>
      </trkpt>
      <trkpt lat="39.96292167" lon="-0.39499833">
        <ele>629.0</ele>
        <time>2017-05-27T07:38:46.192Z</time>
      </trkpt>
      <trkpt lat="39.96292167" lon="-0.39499833">
        <ele>629.0</ele>
        <time>2017-05-27T07:38:47.182Z</time>
      </trkpt>
      <trkpt lat="39.962965" lon="-0.39498333">
        <ele>630.0</ele>
        <time>2017-05-27T07:38:48.190Z</time>
      </trkpt>
      <trkpt lat="39.962965" lon="-0.39498333">
        <ele>630.0</ele>
        <time>2017-05-27T07:38:49.179Z</time>
      </trkpt>
      <trkpt lat="39.96300167" lon="-0.39496333">
        <ele>630.0</ele>
        <time>2017-05-27T07:38:50.157Z</time>
      </trkpt>
      <trkpt lat="39.96300167" lon="-0.39496333">
        <ele>630.0</ele>
        <time>2017-05-27T07:38:51.184Z</time>
      </trkpt>
      <trkpt lat="39.96304333" lon="-0.39495">
        <ele>630.0</ele>
        <time>2017-05-27T07:38:52.156Z</time>
      </trkpt>
      <trkpt lat="39.96304333" lon="-0.39495">
        <ele>630.0</ele>
        <time>2017-05-27T07:38:53.169Z</time>
      </trkpt>
      <trkpt lat="39.96308333" lon="-0.39493667">
        <ele>631.0</ele>
        <time>2017-05-27T07:38:54.183Z</time>
      </trkpt>
      <trkpt lat="39.96308333" lon="-0.39493667">
        <ele>631.0</ele>
        <time>2017-05-27T07:38:55.189Z</time>
      </trkpt>
      <trkpt lat="39.96313167" lon="-0.394925">
        <ele>632.0</ele>
        <time>2017-05-27T07:38:56.170Z</time>
      </trkpt>
      <trkpt lat="39.96313167" lon="-0.394925">
        <ele>632.0</ele>
        <time>2017-05-27T07:38:57.187Z</time>
      </trkpt>
      <trkpt lat="39.96316833" lon="-0.39491167">
        <ele>632.0</ele>
        <time>2017-05-27T07:38:58.177Z</time>
      </trkpt>
      <trkpt lat="39.96316833" lon="-0.39491167">
        <ele>632.0</ele>
        <time>2017-05-27T07:38:59.193Z</time>
      </trkpt>
      <trkpt lat="39.96320833" lon="-0.39489667">
        <ele>632.0</ele>
        <time>2017-05-27T07:39:00.163Z</time>
      </trkpt>
      <trkpt lat="39.96320833" lon="-0.39489667">
        <ele>632.0</ele>
        <time>2017-05-27T07:39:01.171Z</time>
      </trkpt>
      <trkpt lat="39.963245" lon="-0.39487667">
        <ele>633.0</ele>
        <time>2017-05-27T07:39:02.159Z</time>
      </trkpt>
      <trkpt lat="39.963245" lon="-0.39487667">
        <ele>633.0</ele>
        <time>2017-05-27T07:39:03.175Z</time>
      </trkpt>
      <trkpt lat="39.96328333" lon="-0.39487">
        <ele>634.0</ele>
        <time>2017-05-27T07:39:04.186Z</time>
      </trkpt>
      <trkpt lat="39.9633" lon="-0.39486">
        <ele>634.0</ele>
        <time>2017-05-27T07:39:05.165Z</time>
      </trkpt>
      <trkpt lat="39.9633" lon="-0.39486">
        <ele>634.0</ele>
        <time>2017-05-27T07:39:06.176Z</time>
      </trkpt>
      <trkpt lat="39.96334333" lon="-0.394845">
        <ele>634.0</ele>
        <time>2017-05-27T07:39:07.184Z</time>
      </trkpt>
      <trkpt lat="39.963365" lon="-0.39483833">
        <ele>635.0</ele>
        <time>2017-05-27T07:39:08.165Z</time>
      </trkpt>
      <trkpt lat="39.963365" lon="-0.39483833">
        <ele>635.0</ele>
        <time>2017-05-27T07:39:09.162Z</time>
      </trkpt>
      <trkpt lat="39.96340333" lon="-0.39482667">
        <ele>635.0</ele>
        <time>2017-05-27T07:39:10.186Z</time>
      </trkpt>
      <trkpt lat="39.96340333" lon="-0.39482667">
        <ele>635.0</ele>
        <time>2017-05-27T07:39:11.167Z</time>
      </trkpt>
      <trkpt lat="39.96344667" lon="-0.39481333">
        <ele>635.0</ele>
        <time>2017-05-27T07:39:12.192Z</time>
      </trkpt>
      <trkpt lat="39.96344667" lon="-0.39481333">
        <ele>635.0</ele>
        <time>2017-05-27T07:39:13.187Z</time>
      </trkpt>
      <trkpt lat="39.963485" lon="-0.394805">
        <ele>636.0</ele>
        <time>2017-05-27T07:39:14.190Z</time>
      </trkpt>
      <trkpt lat="39.963485" lon="-0.394805">
        <ele>636.0</ele>
        <time>2017-05-27T07:39:15.185Z</time>
      </trkpt>
      <trkpt lat="39.96352333" lon="-0.39479">
        <ele>637.0</ele>
        <time>2017-05-27T07:39:16.159Z</time>
      </trkpt>
      <trkpt lat="39.96354333" lon="-0.39478333">
        <ele>637.0</ele>
        <time>2017-05-27T07:39:17.167Z</time>
      </trkpt>
      <trkpt lat="39.96354333" lon="-0.39478333">
        <ele>637.0</ele>
        <time>2017-05-27T07:39:18.177Z</time>
      </trkpt>
      <trkpt lat="39.96357833" lon="-0.394775">
        <ele>638.0</ele>
        <time>2017-05-27T07:39:19.186Z</time>
      </trkpt>
      <trkpt lat="39.96359833" lon="-0.39477">
        <ele>638.0</ele>
        <time>2017-05-27T07:39:20.182Z</time>
      </trkpt>
      <trkpt lat="39.96359833" lon="-0.39477">
        <ele>638.0</ele>
        <time>2017-05-27T07:39:21.161Z</time>
      </trkpt>
      <trkpt lat="39.96363333" lon="-0.39475167">
        <ele>639.0</ele>
        <time>2017-05-27T07:39:22.171Z</time>
      </trkpt>
      <trkpt lat="39.96365" lon="-0.39474">
        <ele>639.0</ele>
        <time>2017-05-27T07:39:23.184Z</time>
      </trkpt>
      <trkpt lat="39.96365" lon="-0.39474">
        <ele>639.0</ele>
        <time>2017-05-27T07:39:24.163Z</time>
      </trkpt>
      <trkpt lat="39.963685" lon="-0.39472333">
        <ele>640.0</ele>
        <time>2017-05-27T07:39:25.175Z</time>
      </trkpt>
      <trkpt lat="39.963685" lon="-0.39472333">
        <ele>640.0</ele>
        <time>2017-05-27T07:39:26.164Z</time>
      </trkpt>
      <trkpt lat="39.96372" lon="-0.39469333">
        <ele>641.0</ele>
        <time>2017-05-27T07:39:27.163Z</time>
      </trkpt>
      <trkpt lat="39.96372" lon="-0.39469333">
        <ele>641.0</ele>
        <time>2017-05-27T07:39:28.161Z</time>
      </trkpt>
      <trkpt lat="39.963755" lon="-0.39468167">
        <ele>642.0</ele>
        <time>2017-05-27T07:39:29.174Z</time>
      </trkpt>
      <trkpt lat="39.963775" lon="-0.39468333">
        <ele>642.0</ele>
        <time>2017-05-27T07:39:30.171Z</time>
      </trkpt>
      <trkpt lat="39.963775" lon="-0.39468333">
        <ele>642.0</ele>
        <time>2017-05-27T07:39:31.190Z</time>
      </trkpt>
      <trkpt lat="39.96381833" lon="-0.39469167">
        <ele>642.0</ele>
        <time>2017-05-27T07:39:32.168Z</time>
      </trkpt>
      <trkpt lat="39.96381833" lon="-0.39469167">
        <ele>642.0</ele>
        <time>2017-05-27T07:39:33.186Z</time>
      </trkpt>
      <trkpt lat="39.963855" lon="-0.39468">
        <ele>643.0</ele>
        <time>2017-05-27T07:39:34.170Z</time>
      </trkpt>
      <trkpt lat="39.963855" lon="-0.39468">
        <ele>643.0</ele>
        <time>2017-05-27T07:39:35.188Z</time>
      </trkpt>
      <trkpt lat="39.963885" lon="-0.39464">
        <ele>642.0</ele>
        <time>2017-05-27T07:39:36.165Z</time>
      </trkpt>
      <trkpt lat="39.9639" lon="-0.39462">
        <ele>642.0</ele>
        <time>2017-05-27T07:39:37.162Z</time>
      </trkpt>
      <trkpt lat="39.9639" lon="-0.39462">
        <ele>642.0</ele>
        <time>2017-05-27T07:39:38.181Z</time>
      </trkpt>
      <trkpt lat="39.96393167" lon="-0.39461">
        <ele>642.0</ele>
        <time>2017-05-27T07:39:39.189Z</time>
      </trkpt>
      <trkpt lat="39.96393167" lon="-0.39461">
        <ele>642.0</ele>
        <time>2017-05-27T07:39:40.175Z</time>
      </trkpt>
      <trkpt lat="39.96394833" lon="-0.39462167">
        <ele>642.0</ele>
        <time>2017-05-27T07:39:41.185Z</time>
      </trkpt>
      <trkpt lat="39.96400833" lon="-0.39466667">
        <ele>639.0</ele>
        <time>2017-05-27T07:39:42.185Z</time>
      </trkpt>
      <trkpt lat="39.96400833" lon="-0.39466667">
        <ele>639.0</ele>
        <time>2017-05-27T07:39:43.180Z</time>
      </trkpt>
      <trkpt lat="39.964035" lon="-0.394645">
        <ele>639.0</ele>
        <time>2017-05-27T07:39:44.182Z</time>
      </trkpt>
      <trkpt lat="39.964035" lon="-0.394645">
        <ele>639.0</ele>
        <time>2017-05-27T07:39:45.188Z</time>
      </trkpt>
      <trkpt lat="39.96407" lon="-0.39461833">
        <ele>639.0</ele>
        <time>2017-05-27T07:39:46.195Z</time>
      </trkpt>
      <trkpt lat="39.96407" lon="-0.39461833">
        <ele>639.0</ele>
        <time>2017-05-27T07:39:47.164Z</time>
      </trkpt>
      <trkpt lat="39.96410333" lon="-0.39459833">
        <ele>639.0</ele>
        <time>2017-05-27T07:39:48.175Z</time>
      </trkpt>
      <trkpt lat="39.96410333" lon="-0.39459833">
        <ele>639.0</ele>
        <time>2017-05-27T07:39:49.180Z</time>
      </trkpt>
      <trkpt lat="39.96414" lon="-0.39458833">
        <ele>639.0</ele>
        <time>2017-05-27T07:39:50.183Z</time>
      </trkpt>
      <trkpt lat="39.96415833" lon="-0.394585">
        <ele>639.0</ele>
        <time>2017-05-27T07:39:51.179Z</time>
      </trkpt>
      <trkpt lat="39.96415833" lon="-0.394585">
        <ele>639.0</ele>
        <time>2017-05-27T07:39:52.185Z</time>
      </trkpt>
      <trkpt lat="39.96418667" lon="-0.39459167">
        <ele>640.0</ele>
        <time>2017-05-27T07:39:53.164Z</time>
      </trkpt>
      <trkpt lat="39.96418667" lon="-0.39459167">
        <ele>640.0</ele>
        <time>2017-05-27T07:39:54.172Z</time>
      </trkpt>
      <trkpt lat="39.964205" lon="-0.39461833">
        <ele>640.0</ele>
        <time>2017-05-27T07:39:55.185Z</time>
      </trkpt>
      <trkpt lat="39.964205" lon="-0.39461833">
        <ele>640.0</ele>
        <time>2017-05-27T07:39:56.191Z</time>
      </trkpt>
      <trkpt lat="39.96420667" lon="-0.394625">
        <ele>641.0</ele>
        <time>2017-05-27T07:39:57.163Z</time>
      </trkpt>
      <trkpt lat="39.964205" lon="-0.39462167">
        <ele>641.0</ele>
        <time>2017-05-27T07:39:58.194Z</time>
      </trkpt>
      <trkpt lat="39.964205" lon="-0.39462167">
        <ele>641.0</ele>
        <time>2017-05-27T07:39:59.160Z</time>
      </trkpt>
      <trkpt lat="39.96420833" lon="-0.394605">
        <ele>642.0</ele>
        <time>2017-05-27T07:40:00.191Z</time>
      </trkpt>
      <trkpt lat="39.96420667" lon="-0.394605">
        <ele>642.0</ele>
        <time>2017-05-27T07:40:01.163Z</time>
      </trkpt>
      <trkpt lat="39.96420667" lon="-0.394605">
        <ele>642.0</ele>
        <time>2017-05-27T07:40:02.174Z</time>
      </trkpt>
      <trkpt lat="39.96417" lon="-0.394585">
        <ele>643.0</ele>
        <time>2017-05-27T07:40:03.182Z</time>
      </trkpt>
      <trkpt lat="39.964155" lon="-0.39458333">
        <ele>643.0</ele>
        <time>2017-05-27T07:40:04.168Z</time>
      </trkpt>
      <trkpt lat="39.964155" lon="-0.39458333">
        <ele>643.0</ele>
        <time>2017-05-27T07:40:05.174Z</time>
      </trkpt>
      <trkpt lat="39.964115" lon="-0.394595">
        <ele>644.0</ele>
        <time>2017-05-27T07:40:06.184Z</time>
      </trkpt>
      <trkpt lat="39.96409833" lon="-0.394605">
        <ele>644.0</ele>
        <time>2017-05-27T07:40:07.189Z</time>
      </trkpt>
      <trkpt lat="39.96409833" lon="-0.394605">
        <ele>644.0</ele>
        <time>2017-05-27T07:40:08.179Z</time>
      </trkpt>
      <trkpt lat="39.964075" lon="-0.39461333">
        <ele>644.0</ele>
        <time>2017-05-27T07:40:09.194Z</time>
      </trkpt>
      <trkpt lat="39.96405667" lon="-0.39461833">
        <ele>644.0</ele>
        <time>2017-05-27T07:40:10.160Z</time>
      </trkpt>
      <trkpt lat="39.96405667" lon="-0.39461833">
        <ele>644.0</ele>
        <time>2017-05-27T07:40:11.167Z</time>
      </trkpt>
      <trkpt lat="39.96402667" lon="-0.39462833">
        <ele>644.0</ele>
        <time>2017-05-27T07:40:12.184Z</time>
      </trkpt>
      <trkpt lat="39.96402667" lon="-0.39462833">
        <ele>644.0</ele>
        <time>2017-05-27T07:40:13.163Z</time>
      </trkpt>
      <trkpt lat="39.96400833" lon="-0.39463167">
        <ele>644.0</ele>
        <time>2017-05-27T07:40:14.193Z</time>
      </trkpt>
      <trkpt lat="39.96400667" lon="-0.39462667">
        <ele>644.0</ele>
        <time>2017-05-27T07:40:15.173Z</time>
      </trkpt>
      <trkpt lat="39.96400667" lon="-0.39462667">
        <ele>644.0</ele>
        <time>2017-05-27T07:40:16.179Z</time>
      </trkpt>
      <trkpt lat="39.964005" lon="-0.394625">
        <ele>645.0</ele>
        <time>2017-05-27T07:40:17.164Z</time>
      </trkpt>
      <trkpt lat="39.964005" lon="-0.394625">
        <ele>645.0</ele>
        <time>2017-05-27T07:40:18.184Z</time>
      </trkpt>
      <trkpt lat="39.964005" lon="-0.394625">
        <ele>645.0</ele>
        <time>2017-05-27T07:40:19.199Z</time>
      </trkpt>
      <trkpt lat="39.964005" lon="-0.394625">
        <ele>645.0</ele>
        <time>2017-05-27T07:40:20.204Z</time>
      </trkpt>
      <trkpt lat="39.964005" lon="-0.39454">
        <ele>635.0</ele>
        <time>2017-05-27T07:40:21.206Z</time>
      </trkpt>
      <trkpt lat="39.96401333" lon="-0.39453">
        <ele>635.0</ele>
        <time>2017-05-27T07:40:22.183Z</time>
      </trkpt>
      <trkpt lat="39.96401333" lon="-0.39453">
        <ele>635.0</ele>
        <time>2017-05-27T07:40:23.160Z</time>
      </trkpt>
      <trkpt lat="39.96403167" lon="-0.39451">
        <ele>635.0</ele>
        <time>2017-05-27T07:40:24.171Z</time>
      </trkpt>
      <trkpt lat="39.96404167" lon="-0.394505">
        <ele>635.0</ele>
        <time>2017-05-27T07:40:25.166Z</time>
      </trkpt>
      <trkpt lat="39.96404167" lon="-0.394505">
        <ele>635.0</ele>
        <time>2017-05-27T07:40:26.171Z</time>
      </trkpt>
      <trkpt lat="39.96406167" lon="-0.394485">
        <ele>635.0</ele>
        <time>2017-05-27T07:40:27.187Z</time>
      </trkpt>
      <trkpt lat="39.96407167" lon="-0.39447667">
        <ele>635.0</ele>
        <time>2017-05-27T07:40:28.186Z</time>
      </trkpt>
      <trkpt lat="39.96407167" lon="-0.39447667">
        <ele>635.0</ele>
        <time>2017-05-27T07:40:29.195Z</time>
      </trkpt>
      <trkpt lat="39.96408833" lon="-0.39446167">
        <ele>635.0</ele>
        <time>2017-05-27T07:40:30.161Z</time>
      </trkpt>
      <trkpt lat="39.96408833" lon="-0.39446167">
        <ele>635.0</ele>
        <time>2017-05-27T07:40:31.201Z</time>
      </trkpt>
      <trkpt lat="39.96409833" lon="-0.39444333">
        <ele>636.0</ele>
        <time>2017-05-27T07:40:32.186Z</time>
      </trkpt>
      <trkpt lat="39.9641" lon="-0.39443833">
        <ele>636.0</ele>
        <time>2017-05-27T07:40:33.208Z</time>
      </trkpt>
      <trkpt lat="39.96404" lon="-0.39445833">
        <ele>638.0</ele>
        <time>2017-05-27T07:40:34.186Z</time>
      </trkpt>
      <trkpt lat="39.96404" lon="-0.39445833">
        <ele>638.0</ele>
        <time>2017-05-27T07:40:35.175Z</time>
      </trkpt>
      <trkpt lat="39.964025" lon="-0.39445667">
        <ele>638.0</ele>
        <time>2017-05-27T07:40:36.173Z</time>
      </trkpt>
      <trkpt lat="39.964025" lon="-0.39445667">
        <ele>638.0</ele>
        <time>2017-05-27T07:40:37.190Z</time>
      </trkpt>
      <trkpt lat="39.964015" lon="-0.39445833">
        <ele>638.0</ele>
        <time>2017-05-27T07:40:38.157Z</time>
      </trkpt>
      <trkpt lat="39.96401167" lon="-0.39445833">
        <ele>638.0</ele>
        <time>2017-05-27T07:40:39.180Z</time>
      </trkpt>
      <trkpt lat="39.96400833" lon="-0.39446">
        <ele>638.0</ele>
        <time>2017-05-27T07:40:40.180Z</time>
      </trkpt>
      <trkpt lat="39.96400833" lon="-0.39446">
        <ele>638.0</ele>
        <time>2017-05-27T07:40:41.161Z</time>
      </trkpt>
      <trkpt lat="39.96401" lon="-0.39446667">
        <ele>638.0</ele>
        <time>2017-05-27T07:40:42.174Z</time>
      </trkpt>
      <trkpt lat="39.96401" lon="-0.39446667">
        <ele>638.0</ele>
        <time>2017-05-27T07:40:43.179Z</time>
      </trkpt>
      <trkpt lat="39.96401333" lon="-0.39447667">
        <ele>638.0</ele>
        <time>2017-05-27T07:40:44.186Z</time>
      </trkpt>
      <trkpt lat="39.96401333" lon="-0.39447667">
        <ele>638.0</ele>
        <time>2017-05-27T07:40:45.191Z</time>
      </trkpt>
      <trkpt lat="39.96401333" lon="-0.39447667">
        <ele>638.0</ele>
        <time>2017-05-27T07:40:46.177Z</time>
      </trkpt>
      <trkpt lat="39.96401333" lon="-0.39447667">
        <ele>638.0</ele>
        <time>2017-05-27T07:40:47.177Z</time>
      </trkpt>
      <trkpt lat="39.96401333" lon="-0.39447667">
        <ele>638.0</ele>
        <time>2017-05-27T07:40:48.181Z</time>
      </trkpt>
      <trkpt lat="39.963995" lon="-0.394565">
        <ele>638.0</ele>
        <time>2017-05-27T07:40:49.169Z</time>
      </trkpt>
      <trkpt lat="39.963995" lon="-0.394565">
        <ele>638.0</ele>
        <time>2017-05-27T07:40:50.166Z</time>
      </trkpt>
      <trkpt lat="39.96399" lon="-0.39460333">
        <ele>638.0</ele>
        <time>2017-05-27T07:40:51.182Z</time>
      </trkpt>
      <trkpt lat="39.96399" lon="-0.39460333">
        <ele>638.0</ele>
        <time>2017-05-27T07:40:52.187Z</time>
      </trkpt>
      <trkpt lat="39.963975" lon="-0.39463833">
        <ele>638.0</ele>
        <time>2017-05-27T07:40:53.165Z</time>
      </trkpt>
      <trkpt lat="39.963975" lon="-0.39463833">
        <ele>638.0</ele>
        <time>2017-05-27T07:40:54.170Z</time>
      </trkpt>
      <trkpt lat="39.96395333" lon="-0.394665">
        <ele>638.0</ele>
        <time>2017-05-27T07:40:55.162Z</time>
      </trkpt>
      <trkpt lat="39.96395333" lon="-0.394665">
        <ele>638.0</ele>
        <time>2017-05-27T07:40:56.167Z</time>
      </trkpt>
      <trkpt lat="39.96392833" lon="-0.39468667">
        <ele>638.0</ele>
        <time>2017-05-27T07:40:57.162Z</time>
      </trkpt>
      <trkpt lat="39.963905" lon="-0.3947">
        <ele>638.0</ele>
        <time>2017-05-27T07:40:58.180Z</time>
      </trkpt>
      <trkpt lat="39.963905" lon="-0.3947">
        <ele>638.0</ele>
        <time>2017-05-27T07:40:59.185Z</time>
      </trkpt>
      <trkpt lat="39.96381833" lon="-0.39470667">
        <ele>638.0</ele>
        <time>2017-05-27T07:41:00.162Z</time>
      </trkpt>
      <trkpt lat="39.96381833" lon="-0.39470667">
        <ele>638.0</ele>
        <time>2017-05-27T07:41:01.166Z</time>
      </trkpt>
      <trkpt lat="39.963735" lon="-0.39472833">
        <ele>637.0</ele>
        <time>2017-05-27T07:41:02.192Z</time>
      </trkpt>
      <trkpt lat="39.963735" lon="-0.39472833">
        <ele>637.0</ele>
        <time>2017-05-27T07:41:03.160Z</time>
      </trkpt>
      <trkpt lat="39.96363167" lon="-0.39475333">
        <ele>637.0</ele>
        <time>2017-05-27T07:41:04.176Z</time>
      </trkpt>
      <trkpt lat="39.96363167" lon="-0.39475333">
        <ele>637.0</ele>
        <time>2017-05-27T07:41:05.181Z</time>
      </trkpt>
      <trkpt lat="39.96351833" lon="-0.39479">
        <ele>636.0</ele>
        <time>2017-05-27T07:41:06.166Z</time>
      </trkpt>
      <trkpt lat="39.96351833" lon="-0.39479">
        <ele>636.0</ele>
        <time>2017-05-27T07:41:07.174Z</time>
      </trkpt>
      <trkpt lat="39.963385" lon="-0.39482667">
        <ele>636.0</ele>
        <time>2017-05-27T07:41:08.191Z</time>
      </trkpt>
      <trkpt lat="39.96331" lon="-0.394845">
        <ele>635.0</ele>
        <time>2017-05-27T07:41:09.163Z</time>
      </trkpt>
      <trkpt lat="39.96323167" lon="-0.39486167">
        <ele>635.0</ele>
        <time>2017-05-27T07:41:10.170Z</time>
      </trkpt>
      <trkpt lat="39.96314833" lon="-0.39487667">
        <ele>634.0</ele>
        <time>2017-05-27T07:41:11.177Z</time>
      </trkpt>
      <trkpt lat="39.96314833" lon="-0.39487667">
        <ele>634.0</ele>
        <time>2017-05-27T07:41:12.182Z</time>
      </trkpt>
      <trkpt lat="39.96298333" lon="-0.394905">
        <ele>634.0</ele>
        <time>2017-05-27T07:41:13.195Z</time>
      </trkpt>
      <trkpt lat="39.96290333" lon="-0.39491667">
        <ele>633.0</ele>
        <time>2017-05-27T07:41:14.162Z</time>
      </trkpt>
      <trkpt lat="39.96290333" lon="-0.39491667">
        <ele>633.0</ele>
        <time>2017-05-27T07:41:15.169Z</time>
      </trkpt>
      <trkpt lat="39.962745" lon="-0.39495167">
        <ele>633.0</ele>
        <time>2017-05-27T07:41:16.161Z</time>
      </trkpt>
      <trkpt lat="39.962665" lon="-0.39497333">
        <ele>632.0</ele>
        <time>2017-05-27T07:41:17.173Z</time>
      </trkpt>
      <trkpt lat="39.962665" lon="-0.39497333">
        <ele>632.0</ele>
        <time>2017-05-27T07:41:18.178Z</time>
      </trkpt>
      <trkpt lat="39.96251" lon="-0.395015">
        <ele>632.0</ele>
        <time>2017-05-27T07:41:19.185Z</time>
      </trkpt>
      <trkpt lat="39.96243333" lon="-0.395035">
        <ele>632.0</ele>
        <time>2017-05-27T07:41:20.156Z</time>
      </trkpt>
      <trkpt lat="39.96243333" lon="-0.395035">
        <ele>632.0</ele>
        <time>2017-05-27T07:41:21.164Z</time>
      </trkpt>
      <trkpt lat="39.962285" lon="-0.39507167">
        <ele>631.0</ele>
        <time>2017-05-27T07:41:22.165Z</time>
      </trkpt>
      <trkpt lat="39.96221" lon="-0.39507667">
        <ele>631.0</ele>
        <time>2017-05-27T07:41:23.160Z</time>
      </trkpt>
      <trkpt lat="39.96221" lon="-0.39507667">
        <ele>631.0</ele>
        <time>2017-05-27T07:41:24.176Z</time>
      </trkpt>
      <trkpt lat="39.96207" lon="-0.39507">
        <ele>631.0</ele>
        <time>2017-05-27T07:41:25.172Z</time>
      </trkpt>
      <trkpt lat="39.96207" lon="-0.39507">
        <ele>631.0</ele>
        <time>2017-05-27T07:41:26.177Z</time>
      </trkpt>
      <trkpt lat="39.96193833" lon="-0.39505833">
        <ele>631.0</ele>
        <time>2017-05-27T07:41:27.179Z</time>
      </trkpt>
      <trkpt lat="39.96193833" lon="-0.39505833">
        <ele>631.0</ele>
        <time>2017-05-27T07:41:28.185Z</time>
      </trkpt>
      <trkpt lat="39.96182167" lon="-0.39503667">
        <ele>631.0</ele>
        <time>2017-05-27T07:41:29.180Z</time>
      </trkpt>
      <trkpt lat="39.96182167" lon="-0.39503667">
        <ele>631.0</ele>
        <time>2017-05-27T07:41:30.186Z</time>
      </trkpt>
      <trkpt lat="39.96170667" lon="-0.395015">
        <ele>630.0</ele>
        <time>2017-05-27T07:41:31.165Z</time>
      </trkpt>
      <trkpt lat="39.96165" lon="-0.39500167">
        <ele>630.0</ele>
        <time>2017-05-27T07:41:32.185Z</time>
      </trkpt>
      <trkpt lat="39.96165" lon="-0.39500167">
        <ele>630.0</ele>
        <time>2017-05-27T07:41:33.191Z</time>
      </trkpt>
      <trkpt lat="39.96153667" lon="-0.39497">
        <ele>630.0</ele>
        <time>2017-05-27T07:41:34.182Z</time>
      </trkpt>
      <trkpt lat="39.96153667" lon="-0.39497">
        <ele>630.0</ele>
        <time>2017-05-27T07:41:35.187Z</time>
      </trkpt>
      <trkpt lat="39.96142167" lon="-0.39493">
        <ele>630.0</ele>
        <time>2017-05-27T07:41:36.185Z</time>
      </trkpt>
      <trkpt lat="39.96142167" lon="-0.39493">
        <ele>630.0</ele>
        <time>2017-05-27T07:41:37.156Z</time>
      </trkpt>
      <trkpt lat="39.96130833" lon="-0.39488167">
        <ele>630.0</ele>
        <time>2017-05-27T07:41:38.180Z</time>
      </trkpt>
      <trkpt lat="39.96130833" lon="-0.39488167">
        <ele>630.0</ele>
        <time>2017-05-27T07:41:39.185Z</time>
      </trkpt>
      <trkpt lat="39.961195" lon="-0.39483167">
        <ele>630.0</ele>
        <time>2017-05-27T07:41:40.175Z</time>
      </trkpt>
      <trkpt lat="39.961195" lon="-0.39483167">
        <ele>630.0</ele>
        <time>2017-05-27T07:41:41.159Z</time>
      </trkpt>
      <trkpt lat="39.96108" lon="-0.39479">
        <ele>630.0</ele>
        <time>2017-05-27T07:41:42.157Z</time>
      </trkpt>
      <trkpt lat="39.96108" lon="-0.39479">
        <ele>630.0</ele>
        <time>2017-05-27T07:41:43.172Z</time>
      </trkpt>
      <trkpt lat="39.96097333" lon="-0.394745">
        <ele>630.0</ele>
        <time>2017-05-27T07:41:44.174Z</time>
      </trkpt>
      <trkpt lat="39.96097333" lon="-0.394745">
        <ele>630.0</ele>
        <time>2017-05-27T07:41:45.191Z</time>
      </trkpt>
      <trkpt lat="39.96087" lon="-0.3947">
        <ele>630.0</ele>
        <time>2017-05-27T07:41:46.189Z</time>
      </trkpt>
      <trkpt lat="39.96087" lon="-0.3947">
        <ele>630.0</ele>
        <time>2017-05-27T07:41:47.194Z</time>
      </trkpt>
      <trkpt lat="39.96078167" lon="-0.39463833">
        <ele>630.0</ele>
        <time>2017-05-27T07:41:48.195Z</time>
      </trkpt>
      <trkpt lat="39.96078167" lon="-0.39463833">
        <ele>630.0</ele>
        <time>2017-05-27T07:41:49.160Z</time>
      </trkpt>
      <trkpt lat="39.96072" lon="-0.39456">
        <ele>630.0</ele>
        <time>2017-05-27T07:41:50.182Z</time>
      </trkpt>
      <trkpt lat="39.96072" lon="-0.39456">
        <ele>630.0</ele>
        <time>2017-05-27T07:41:51.177Z</time>
      </trkpt>
      <trkpt lat="39.96065833" lon="-0.39447667">
        <ele>630.0</ele>
        <time>2017-05-27T07:41:52.186Z</time>
      </trkpt>
      <trkpt lat="39.96063" lon="-0.394435">
        <ele>630.0</ele>
        <time>2017-05-27T07:41:53.185Z</time>
      </trkpt>
      <trkpt lat="39.960605" lon="-0.39439167">
        <ele>630.0</ele>
        <time>2017-05-27T07:41:54.190Z</time>
      </trkpt>
      <trkpt lat="39.960605" lon="-0.39439167">
        <ele>630.0</ele>
        <time>2017-05-27T07:41:55.156Z</time>
      </trkpt>
      <trkpt lat="39.96055167" lon="-0.39430833">
        <ele>630.0</ele>
        <time>2017-05-27T07:41:56.171Z</time>
      </trkpt>
      <trkpt lat="39.96055167" lon="-0.39430833">
        <ele>630.0</ele>
        <time>2017-05-27T07:41:57.156Z</time>
      </trkpt>
      <trkpt lat="39.96047833" lon="-0.394225">
        <ele>630.0</ele>
        <time>2017-05-27T07:41:58.186Z</time>
      </trkpt>
      <trkpt lat="39.96047833" lon="-0.394225">
        <ele>630.0</ele>
        <time>2017-05-27T07:41:59.157Z</time>
      </trkpt>
      <trkpt lat="39.960375" lon="-0.394165">
        <ele>629.0</ele>
        <time>2017-05-27T07:42:00.189Z</time>
      </trkpt>
      <trkpt lat="39.960375" lon="-0.394165">
        <ele>629.0</ele>
        <time>2017-05-27T07:42:01.157Z</time>
      </trkpt>
      <trkpt lat="39.96024333" lon="-0.39413833">
        <ele>628.0</ele>
        <time>2017-05-27T07:42:02.185Z</time>
      </trkpt>
      <trkpt lat="39.96024333" lon="-0.39413833">
        <ele>628.0</ele>
        <time>2017-05-27T07:42:03.158Z</time>
      </trkpt>
      <trkpt lat="39.96010167" lon="-0.39411833">
        <ele>627.0</ele>
        <time>2017-05-27T07:42:04.186Z</time>
      </trkpt>
      <trkpt lat="39.96010167" lon="-0.39411833">
        <ele>627.0</ele>
        <time>2017-05-27T07:42:05.159Z</time>
      </trkpt>
      <trkpt lat="39.95998667" lon="-0.39403">
        <ele>626.0</ele>
        <time>2017-05-27T07:42:06.163Z</time>
      </trkpt>
      <trkpt lat="39.95998667" lon="-0.39403">
        <ele>626.0</ele>
        <time>2017-05-27T07:42:07.167Z</time>
      </trkpt>
      <trkpt lat="39.95990667" lon="-0.393875">
        <ele>626.0</ele>
        <time>2017-05-27T07:42:08.195Z</time>
      </trkpt>
      <trkpt lat="39.95990667" lon="-0.393875">
        <ele>626.0</ele>
        <time>2017-05-27T07:42:09.160Z</time>
      </trkpt>
      <trkpt lat="39.959845" lon="-0.39370833">
        <ele>625.0</ele>
        <time>2017-05-27T07:42:10.189Z</time>
      </trkpt>
      <trkpt lat="39.959815" lon="-0.393625">
        <ele>625.0</ele>
        <time>2017-05-27T07:42:11.176Z</time>
      </trkpt>
      <trkpt lat="39.95978667" lon="-0.39354167">
        <ele>624.0</ele>
        <time>2017-05-27T07:42:12.182Z</time>
      </trkpt>
      <trkpt lat="39.95978667" lon="-0.39354167">
        <ele>624.0</ele>
        <time>2017-05-27T07:42:13.176Z</time>
      </trkpt>
      <trkpt lat="39.959715" lon="-0.39338333">
        <ele>622.0</ele>
        <time>2017-05-27T07:42:14.167Z</time>
      </trkpt>
      <trkpt lat="39.959715" lon="-0.39338333">
        <ele>622.0</ele>
        <time>2017-05-27T07:42:15.172Z</time>
      </trkpt>
      <trkpt lat="39.95961833" lon="-0.39323333">
        <ele>621.0</ele>
        <time>2017-05-27T07:42:16.161Z</time>
      </trkpt>
      <trkpt lat="39.95961833" lon="-0.39323333">
        <ele>621.0</ele>
        <time>2017-05-27T07:42:17.167Z</time>
      </trkpt>
      <trkpt lat="39.95948" lon="-0.39312667">
        <ele>620.0</ele>
        <time>2017-05-27T07:42:18.171Z</time>
      </trkpt>
      <trkpt lat="39.95948" lon="-0.39312667">
        <ele>620.0</ele>
        <time>2017-05-27T07:42:19.187Z</time>
      </trkpt>
      <trkpt lat="39.95933167" lon="-0.393105">
        <ele>620.0</ele>
        <time>2017-05-27T07:42:20.195Z</time>
      </trkpt>
      <trkpt lat="39.95933167" lon="-0.393105">
        <ele>620.0</ele>
        <time>2017-05-27T07:42:21.161Z</time>
      </trkpt>
      <trkpt lat="39.95921667" lon="-0.39311833">
        <ele>621.0</ele>
        <time>2017-05-27T07:42:22.169Z</time>
      </trkpt>
      <trkpt lat="39.95916667" lon="-0.393135">
        <ele>621.0</ele>
        <time>2017-05-27T07:42:23.171Z</time>
      </trkpt>
      <trkpt lat="39.95912" lon="-0.39315167">
        <ele>621.0</ele>
        <time>2017-05-27T07:42:24.176Z</time>
      </trkpt>
      <trkpt lat="39.95912" lon="-0.39315167">
        <ele>621.0</ele>
        <time>2017-05-27T07:42:25.181Z</time>
      </trkpt>
      <trkpt lat="39.95902" lon="-0.393165">
        <ele>622.0</ele>
        <time>2017-05-27T07:42:26.171Z</time>
      </trkpt>
      <trkpt lat="39.95902" lon="-0.393165">
        <ele>622.0</ele>
        <time>2017-05-27T07:42:27.175Z</time>
      </trkpt>
      <trkpt lat="39.95892167" lon="-0.39313167">
        <ele>622.0</ele>
        <time>2017-05-27T07:42:28.175Z</time>
      </trkpt>
      <trkpt lat="39.95888" lon="-0.39309667">
        <ele>622.0</ele>
        <time>2017-05-27T07:42:29.165Z</time>
      </trkpt>
      <trkpt lat="39.95888" lon="-0.39309667">
        <ele>622.0</ele>
        <time>2017-05-27T07:42:30.179Z</time>
      </trkpt>
      <trkpt lat="39.95880667" lon="-0.39300667">
        <ele>623.0</ele>
        <time>2017-05-27T07:42:31.163Z</time>
      </trkpt>
      <trkpt lat="39.958775" lon="-0.39295833">
        <ele>623.0</ele>
        <time>2017-05-27T07:42:32.180Z</time>
      </trkpt>
      <trkpt lat="39.958775" lon="-0.39295833">
        <ele>623.0</ele>
        <time>2017-05-27T07:42:33.185Z</time>
      </trkpt>
      <trkpt lat="39.95871167" lon="-0.39286167">
        <ele>623.0</ele>
        <time>2017-05-27T07:42:34.157Z</time>
      </trkpt>
      <trkpt lat="39.95867" lon="-0.39283">
        <ele>623.0</ele>
        <time>2017-05-27T07:42:35.189Z</time>
      </trkpt>
      <trkpt lat="39.95867" lon="-0.39283">
        <ele>623.0</ele>
        <time>2017-05-27T07:42:36.156Z</time>
      </trkpt>
      <trkpt lat="39.95858167" lon="-0.39282333">
        <ele>623.0</ele>
        <time>2017-05-27T07:42:37.157Z</time>
      </trkpt>
      <trkpt lat="39.95858167" lon="-0.39282333">
        <ele>623.0</ele>
        <time>2017-05-27T07:42:38.162Z</time>
      </trkpt>
      <trkpt lat="39.95850833" lon="-0.39285167">
        <ele>624.0</ele>
        <time>2017-05-27T07:42:39.192Z</time>
      </trkpt>
      <trkpt lat="39.95850833" lon="-0.39285167">
        <ele>624.0</ele>
        <time>2017-05-27T07:42:40.159Z</time>
      </trkpt>
      <trkpt lat="39.958435" lon="-0.39287333">
        <ele>625.0</ele>
        <time>2017-05-27T07:42:41.185Z</time>
      </trkpt>
      <trkpt lat="39.958435" lon="-0.39287333">
        <ele>625.0</ele>
        <time>2017-05-27T07:42:42.156Z</time>
      </trkpt>
      <trkpt lat="39.958365" lon="-0.39289333">
        <ele>626.0</ele>
        <time>2017-05-27T07:42:43.184Z</time>
      </trkpt>
      <trkpt lat="39.958365" lon="-0.39289333">
        <ele>626.0</ele>
        <time>2017-05-27T07:42:44.156Z</time>
      </trkpt>
      <trkpt lat="39.958305" lon="-0.39290667">
        <ele>626.0</ele>
        <time>2017-05-27T07:42:45.181Z</time>
      </trkpt>
      <trkpt lat="39.958305" lon="-0.39290667">
        <ele>626.0</ele>
        <time>2017-05-27T07:42:46.162Z</time>
      </trkpt>
      <trkpt lat="39.95825333" lon="-0.39291833">
        <ele>627.0</ele>
        <time>2017-05-27T07:42:47.192Z</time>
      </trkpt>
      <trkpt lat="39.95825333" lon="-0.39291833">
        <ele>627.0</ele>
        <time>2017-05-27T07:42:48.158Z</time>
      </trkpt>
      <trkpt lat="39.95820333" lon="-0.39293">
        <ele>627.0</ele>
        <time>2017-05-27T07:42:49.185Z</time>
      </trkpt>
      <trkpt lat="39.95820333" lon="-0.39293">
        <ele>627.0</ele>
        <time>2017-05-27T07:42:50.156Z</time>
      </trkpt>
      <trkpt lat="39.95815333" lon="-0.39293333">
        <ele>628.0</ele>
        <time>2017-05-27T07:42:51.187Z</time>
      </trkpt>
      <trkpt lat="39.95813" lon="-0.39293167">
        <ele>628.0</ele>
        <time>2017-05-27T07:42:52.188Z</time>
      </trkpt>
      <trkpt lat="39.95810667" lon="-0.39293167">
        <ele>628.0</ele>
        <time>2017-05-27T07:42:53.188Z</time>
      </trkpt>
      <trkpt lat="39.95810667" lon="-0.39293167">
        <ele>628.0</ele>
        <time>2017-05-27T07:42:54.158Z</time>
      </trkpt>
      <trkpt lat="39.95806" lon="-0.39293">
        <ele>629.0</ele>
        <time>2017-05-27T07:42:55.168Z</time>
      </trkpt>
      <trkpt lat="39.95806" lon="-0.39293">
        <ele>629.0</ele>
        <time>2017-05-27T07:42:56.178Z</time>
      </trkpt>
      <trkpt lat="39.958015" lon="-0.39293833">
        <ele>629.0</ele>
        <time>2017-05-27T07:42:57.180Z</time>
      </trkpt>
      <trkpt lat="39.958015" lon="-0.39293833">
        <ele>629.0</ele>
        <time>2017-05-27T07:42:58.185Z</time>
      </trkpt>
      <trkpt lat="39.95797167" lon="-0.39293667">
        <ele>630.0</ele>
        <time>2017-05-27T07:42:59.173Z</time>
      </trkpt>
      <trkpt lat="39.95797167" lon="-0.39293667">
        <ele>630.0</ele>
        <time>2017-05-27T07:43:00.180Z</time>
      </trkpt>
      <trkpt lat="39.95792667" lon="-0.39295167">
        <ele>630.0</ele>
        <time>2017-05-27T07:43:01.163Z</time>
      </trkpt>
      <trkpt lat="39.95792667" lon="-0.39295167">
        <ele>630.0</ele>
        <time>2017-05-27T07:43:02.174Z</time>
      </trkpt>
      <trkpt lat="39.95789667" lon="-0.39296833">
        <ele>631.0</ele>
        <time>2017-05-27T07:43:03.162Z</time>
      </trkpt>
      <trkpt lat="39.95789667" lon="-0.39296833">
        <ele>631.0</ele>
        <time>2017-05-27T07:43:04.170Z</time>
      </trkpt>
      <trkpt lat="39.95786333" lon="-0.39297833">
        <ele>632.0</ele>
        <time>2017-05-27T07:43:05.160Z</time>
      </trkpt>
      <trkpt lat="39.95786333" lon="-0.39297833">
        <ele>632.0</ele>
        <time>2017-05-27T07:43:06.168Z</time>
      </trkpt>
      <trkpt lat="39.95782333" lon="-0.39298833">
        <ele>632.0</ele>
        <time>2017-05-27T07:43:07.175Z</time>
      </trkpt>
      <trkpt lat="39.95782333" lon="-0.39298833">
        <ele>632.0</ele>
        <time>2017-05-27T07:43:08.159Z</time>
      </trkpt>
      <trkpt lat="39.95778167" lon="-0.39299667">
        <ele>633.0</ele>
        <time>2017-05-27T07:43:09.165Z</time>
      </trkpt>
      <trkpt lat="39.95778167" lon="-0.39299667">
        <ele>633.0</ele>
        <time>2017-05-27T07:43:10.195Z</time>
      </trkpt>
      <trkpt lat="39.95774167" lon="-0.39300667">
        <ele>634.0</ele>
        <time>2017-05-27T07:43:11.183Z</time>
      </trkpt>
      <trkpt lat="39.95774167" lon="-0.39300667">
        <ele>634.0</ele>
        <time>2017-05-27T07:43:12.188Z</time>
      </trkpt>
      <trkpt lat="39.95770833" lon="-0.39301667">
        <ele>635.0</ele>
        <time>2017-05-27T07:43:13.195Z</time>
      </trkpt>
      <trkpt lat="39.95769333" lon="-0.39302667">
        <ele>635.0</ele>
        <time>2017-05-27T07:43:14.169Z</time>
      </trkpt>
      <trkpt lat="39.95769333" lon="-0.39302667">
        <ele>635.0</ele>
        <time>2017-05-27T07:43:15.174Z</time>
      </trkpt>
      <trkpt lat="39.95765667" lon="-0.39304">
        <ele>636.0</ele>
        <time>2017-05-27T07:43:16.174Z</time>
      </trkpt>
      <trkpt lat="39.95763333" lon="-0.39304667">
        <ele>636.0</ele>
        <time>2017-05-27T07:43:17.181Z</time>
      </trkpt>
      <trkpt lat="39.95763333" lon="-0.39304667">
        <ele>636.0</ele>
        <time>2017-05-27T07:43:18.186Z</time>
      </trkpt>
      <trkpt lat="39.95759333" lon="-0.39305667">
        <ele>637.0</ele>
        <time>2017-05-27T07:43:19.187Z</time>
      </trkpt>
      <trkpt lat="39.95759333" lon="-0.39305667">
        <ele>637.0</ele>
        <time>2017-05-27T07:43:20.159Z</time>
      </trkpt>
      <trkpt lat="39.95755" lon="-0.393065">
        <ele>638.0</ele>
        <time>2017-05-27T07:43:21.170Z</time>
      </trkpt>
      <trkpt lat="39.95755" lon="-0.393065">
        <ele>638.0</ele>
        <time>2017-05-27T07:43:22.175Z</time>
      </trkpt>
      <trkpt lat="39.95750667" lon="-0.39308167">
        <ele>639.0</ele>
        <time>2017-05-27T07:43:23.178Z</time>
      </trkpt>
      <trkpt lat="39.95750667" lon="-0.39308167">
        <ele>639.0</ele>
        <time>2017-05-27T07:43:24.183Z</time>
      </trkpt>
      <trkpt lat="39.95746333" lon="-0.39309667">
        <ele>640.0</ele>
        <time>2017-05-27T07:43:25.186Z</time>
      </trkpt>
      <trkpt lat="39.95746333" lon="-0.39309667">
        <ele>640.0</ele>
        <time>2017-05-27T07:43:26.195Z</time>
      </trkpt>
      <trkpt lat="39.95742167" lon="-0.3931">
        <ele>641.0</ele>
        <time>2017-05-27T07:43:27.195Z</time>
      </trkpt>
      <trkpt lat="39.95742167" lon="-0.3931">
        <ele>641.0</ele>
        <time>2017-05-27T07:43:28.160Z</time>
      </trkpt>
      <trkpt lat="39.957385" lon="-0.39310833">
        <ele>641.0</ele>
        <time>2017-05-27T07:43:29.194Z</time>
      </trkpt>
      <trkpt lat="39.957385" lon="-0.39310833">
        <ele>641.0</ele>
        <time>2017-05-27T07:43:30.160Z</time>
      </trkpt>
      <trkpt lat="39.957345" lon="-0.39311333">
        <ele>642.0</ele>
        <time>2017-05-27T07:43:31.165Z</time>
      </trkpt>
      <trkpt lat="39.957345" lon="-0.39311333">
        <ele>642.0</ele>
        <time>2017-05-27T07:43:32.170Z</time>
      </trkpt>
      <trkpt lat="39.95730667" lon="-0.39312833">
        <ele>642.0</ele>
        <time>2017-05-27T07:43:33.174Z</time>
      </trkpt>
      <trkpt lat="39.95730667" lon="-0.39312833">
        <ele>642.0</ele>
        <time>2017-05-27T07:43:34.179Z</time>
      </trkpt>
      <trkpt lat="39.95726833" lon="-0.39314833">
        <ele>643.0</ele>
        <time>2017-05-27T07:43:35.176Z</time>
      </trkpt>
      <trkpt lat="39.95726833" lon="-0.39314833">
        <ele>643.0</ele>
        <time>2017-05-27T07:43:36.189Z</time>
      </trkpt>
      <trkpt lat="39.95722667" lon="-0.39316333">
        <ele>644.0</ele>
        <time>2017-05-27T07:43:37.191Z</time>
      </trkpt>
      <trkpt lat="39.95720833" lon="-0.39316833">
        <ele>644.0</ele>
        <time>2017-05-27T07:43:38.190Z</time>
      </trkpt>
      <trkpt lat="39.95720833" lon="-0.39316833">
        <ele>644.0</ele>
        <time>2017-05-27T07:43:39.159Z</time>
      </trkpt>
      <trkpt lat="39.957165" lon="-0.39317333">
        <ele>645.0</ele>
        <time>2017-05-27T07:43:40.193Z</time>
      </trkpt>
      <trkpt lat="39.95714833" lon="-0.39317667">
        <ele>645.0</ele>
        <time>2017-05-27T07:43:41.184Z</time>
      </trkpt>
      <trkpt lat="39.95714833" lon="-0.39317667">
        <ele>645.0</ele>
        <time>2017-05-27T07:43:42.189Z</time>
      </trkpt>
      <trkpt lat="39.95711" lon="-0.39318667">
        <ele>646.0</ele>
        <time>2017-05-27T07:43:43.182Z</time>
      </trkpt>
      <trkpt lat="39.95711" lon="-0.39318667">
        <ele>646.0</ele>
        <time>2017-05-27T07:43:44.187Z</time>
      </trkpt>
      <trkpt lat="39.957065" lon="-0.3932">
        <ele>646.0</ele>
        <time>2017-05-27T07:43:45.185Z</time>
      </trkpt>
      <trkpt lat="39.957065" lon="-0.3932">
        <ele>646.0</ele>
        <time>2017-05-27T07:43:46.157Z</time>
      </trkpt>
      <trkpt lat="39.95702167" lon="-0.39320833">
        <ele>647.0</ele>
        <time>2017-05-27T07:43:47.185Z</time>
      </trkpt>
      <trkpt lat="39.957" lon="-0.39320667">
        <ele>647.0</ele>
        <time>2017-05-27T07:43:48.170Z</time>
      </trkpt>
      <trkpt lat="39.957" lon="-0.39320667">
        <ele>647.0</ele>
        <time>2017-05-27T07:43:49.164Z</time>
      </trkpt>
      <trkpt lat="39.95695833" lon="-0.39321">
        <ele>648.0</ele>
        <time>2017-05-27T07:43:50.168Z</time>
      </trkpt>
      <trkpt lat="39.95695833" lon="-0.39321">
        <ele>648.0</ele>
        <time>2017-05-27T07:43:51.188Z</time>
      </trkpt>
      <trkpt lat="39.95691167" lon="-0.39321167">
        <ele>648.0</ele>
        <time>2017-05-27T07:43:52.195Z</time>
      </trkpt>
      <trkpt lat="39.95691167" lon="-0.39321167">
        <ele>648.0</ele>
        <time>2017-05-27T07:43:53.160Z</time>
      </trkpt>
      <trkpt lat="39.95687167" lon="-0.39320667">
        <ele>649.0</ele>
        <time>2017-05-27T07:43:54.159Z</time>
      </trkpt>
      <trkpt lat="39.95687167" lon="-0.39320667">
        <ele>649.0</ele>
        <time>2017-05-27T07:43:55.156Z</time>
      </trkpt>
      <trkpt lat="39.95683333" lon="-0.39320833">
        <ele>649.0</ele>
        <time>2017-05-27T07:43:56.159Z</time>
      </trkpt>
      <trkpt lat="39.95683333" lon="-0.39320833">
        <ele>649.0</ele>
        <time>2017-05-27T07:43:57.172Z</time>
      </trkpt>
      <trkpt lat="39.95679167" lon="-0.39321333">
        <ele>650.0</ele>
        <time>2017-05-27T07:43:58.189Z</time>
      </trkpt>
      <trkpt lat="39.95677333" lon="-0.39322167">
        <ele>650.0</ele>
        <time>2017-05-27T07:43:59.179Z</time>
      </trkpt>
      <trkpt lat="39.95677333" lon="-0.39322167">
        <ele>650.0</ele>
        <time>2017-05-27T07:44:00.184Z</time>
      </trkpt>
      <trkpt lat="39.95673667" lon="-0.393225">
        <ele>650.0</ele>
        <time>2017-05-27T07:44:01.174Z</time>
      </trkpt>
      <trkpt lat="39.95673667" lon="-0.393225">
        <ele>650.0</ele>
        <time>2017-05-27T07:44:02.180Z</time>
      </trkpt>
      <trkpt lat="39.95669833" lon="-0.39324333">
        <ele>651.0</ele>
        <time>2017-05-27T07:44:03.181Z</time>
      </trkpt>
      <trkpt lat="39.95669833" lon="-0.39324333">
        <ele>651.0</ele>
        <time>2017-05-27T07:44:04.187Z</time>
      </trkpt>
      <trkpt lat="39.95666" lon="-0.39325167">
        <ele>651.0</ele>
        <time>2017-05-27T07:44:05.190Z</time>
      </trkpt>
      <trkpt lat="39.95666" lon="-0.39325167">
        <ele>651.0</ele>
        <time>2017-05-27T07:44:06.158Z</time>
      </trkpt>
      <trkpt lat="39.95661833" lon="-0.39327167">
        <ele>651.0</ele>
        <time>2017-05-27T07:44:07.179Z</time>
      </trkpt>
      <trkpt lat="39.95661833" lon="-0.39327167">
        <ele>651.0</ele>
        <time>2017-05-27T07:44:08.184Z</time>
      </trkpt>
      <trkpt lat="39.95656833" lon="-0.393285">
        <ele>651.0</ele>
        <time>2017-05-27T07:44:09.182Z</time>
      </trkpt>
      <trkpt lat="39.95656833" lon="-0.393285">
        <ele>651.0</ele>
        <time>2017-05-27T07:44:10.164Z</time>
      </trkpt>
      <trkpt lat="39.95651667" lon="-0.39331">
        <ele>651.0</ele>
        <time>2017-05-27T07:44:11.191Z</time>
      </trkpt>
      <trkpt lat="39.95651667" lon="-0.39331">
        <ele>651.0</ele>
        <time>2017-05-27T07:44:12.182Z</time>
      </trkpt>
      <trkpt lat="39.95647333" lon="-0.393345">
        <ele>651.0</ele>
        <time>2017-05-27T07:44:13.185Z</time>
      </trkpt>
      <trkpt lat="39.95645333" lon="-0.39336667">
        <ele>651.0</ele>
        <time>2017-05-27T07:44:14.183Z</time>
      </trkpt>
      <trkpt lat="39.95645333" lon="-0.39336667">
        <ele>651.0</ele>
        <time>2017-05-27T07:44:15.190Z</time>
      </trkpt>
      <trkpt lat="39.95642833" lon="-0.39341">
        <ele>651.0</ele>
        <time>2017-05-27T07:44:16.183Z</time>
      </trkpt>
      <trkpt lat="39.95641833" lon="-0.39343333">
        <ele>651.0</ele>
        <time>2017-05-27T07:44:17.170Z</time>
      </trkpt>
      <trkpt lat="39.95641833" lon="-0.39343333">
        <ele>651.0</ele>
        <time>2017-05-27T07:44:18.177Z</time>
      </trkpt>
      <trkpt lat="39.9564" lon="-0.39349">
        <ele>651.0</ele>
        <time>2017-05-27T07:44:19.167Z</time>
      </trkpt>
      <trkpt lat="39.9564" lon="-0.39349">
        <ele>651.0</ele>
        <time>2017-05-27T07:44:20.175Z</time>
      </trkpt>
      <trkpt lat="39.95639" lon="-0.39355">
        <ele>652.0</ele>
        <time>2017-05-27T07:44:21.173Z</time>
      </trkpt>
      <trkpt lat="39.95638833" lon="-0.39358">
        <ele>652.0</ele>
        <time>2017-05-27T07:44:22.165Z</time>
      </trkpt>
      <trkpt lat="39.95639" lon="-0.39361">
        <ele>652.0</ele>
        <time>2017-05-27T07:44:23.161Z</time>
      </trkpt>
      <trkpt lat="39.95639" lon="-0.39361">
        <ele>652.0</ele>
        <time>2017-05-27T07:44:24.167Z</time>
      </trkpt>
      <trkpt lat="39.95639667" lon="-0.39366833">
        <ele>652.0</ele>
        <time>2017-05-27T07:44:25.163Z</time>
      </trkpt>
      <trkpt lat="39.95640333" lon="-0.39369333">
        <ele>653.0</ele>
        <time>2017-05-27T07:44:26.195Z</time>
      </trkpt>
      <trkpt lat="39.95640333" lon="-0.39369333">
        <ele>653.0</ele>
        <time>2017-05-27T07:44:27.160Z</time>
      </trkpt>
      <trkpt lat="39.95642" lon="-0.39374333">
        <ele>653.0</ele>
        <time>2017-05-27T07:44:28.190Z</time>
      </trkpt>
      <trkpt lat="39.956425" lon="-0.39376833">
        <ele>653.0</ele>
        <time>2017-05-27T07:44:29.176Z</time>
      </trkpt>
      <trkpt lat="39.956425" lon="-0.39376833">
        <ele>653.0</ele>
        <time>2017-05-27T07:44:30.185Z</time>
      </trkpt>
      <trkpt lat="39.95644333" lon="-0.39381167">
        <ele>653.0</ele>
        <time>2017-05-27T07:44:31.186Z</time>
      </trkpt>
      <trkpt lat="39.95644333" lon="-0.39381167">
        <ele>653.0</ele>
        <time>2017-05-27T07:44:32.195Z</time>
      </trkpt>
      <trkpt lat="39.95647" lon="-0.39385">
        <ele>653.0</ele>
        <time>2017-05-27T07:44:33.195Z</time>
      </trkpt>
      <trkpt lat="39.95647" lon="-0.39385">
        <ele>653.0</ele>
        <time>2017-05-27T07:44:34.160Z</time>
      </trkpt>
      <trkpt lat="39.95649333" lon="-0.39389167">
        <ele>654.0</ele>
        <time>2017-05-27T07:44:35.162Z</time>
      </trkpt>
      <trkpt lat="39.95649333" lon="-0.39389167">
        <ele>654.0</ele>
        <time>2017-05-27T07:44:36.167Z</time>
      </trkpt>
      <trkpt lat="39.956515" lon="-0.39394">
        <ele>654.0</ele>
        <time>2017-05-27T07:44:37.160Z</time>
      </trkpt>
      <trkpt lat="39.956515" lon="-0.39394">
        <ele>654.0</ele>
        <time>2017-05-27T07:44:38.165Z</time>
      </trkpt>
      <trkpt lat="39.956535" lon="-0.39398833">
        <ele>654.0</ele>
        <time>2017-05-27T07:44:39.165Z</time>
      </trkpt>
      <trkpt lat="39.95654333" lon="-0.39401333">
        <ele>655.0</ele>
        <time>2017-05-27T07:44:40.185Z</time>
      </trkpt>
      <trkpt lat="39.95654333" lon="-0.39401333">
        <ele>655.0</ele>
        <time>2017-05-27T07:44:41.189Z</time>
      </trkpt>
      <trkpt lat="39.95655833" lon="-0.394065">
        <ele>655.0</ele>
        <time>2017-05-27T07:44:42.175Z</time>
      </trkpt>
      <trkpt lat="39.95655833" lon="-0.394065">
        <ele>655.0</ele>
        <time>2017-05-27T07:44:43.180Z</time>
      </trkpt>
      <trkpt lat="39.95657167" lon="-0.394115">
        <ele>655.0</ele>
        <time>2017-05-27T07:44:44.184Z</time>
      </trkpt>
      <trkpt lat="39.956575" lon="-0.39414333">
        <ele>655.0</ele>
        <time>2017-05-27T07:44:45.191Z</time>
      </trkpt>
      <trkpt lat="39.956575" lon="-0.39414333">
        <ele>655.0</ele>
        <time>2017-05-27T07:44:46.194Z</time>
      </trkpt>
      <trkpt lat="39.95658833" lon="-0.39419333">
        <ele>655.0</ele>
        <time>2017-05-27T07:44:47.183Z</time>
      </trkpt>
      <trkpt lat="39.95658833" lon="-0.39419333">
        <ele>655.0</ele>
        <time>2017-05-27T07:44:48.188Z</time>
      </trkpt>
      <trkpt lat="39.9566" lon="-0.39424333">
        <ele>655.0</ele>
        <time>2017-05-27T07:44:49.174Z</time>
      </trkpt>
      <trkpt lat="39.9566" lon="-0.39424333">
        <ele>655.0</ele>
        <time>2017-05-27T07:44:50.179Z</time>
      </trkpt>
      <trkpt lat="39.956605" lon="-0.39429333">
        <ele>655.0</ele>
        <time>2017-05-27T07:44:51.172Z</time>
      </trkpt>
      <trkpt lat="39.95660667" lon="-0.39431833">
        <ele>655.0</ele>
        <time>2017-05-27T07:44:52.173Z</time>
      </trkpt>
      <trkpt lat="39.95661333" lon="-0.394345">
        <ele>656.0</ele>
        <time>2017-05-27T07:44:53.170Z</time>
      </trkpt>
      <trkpt lat="39.95661333" lon="-0.394345">
        <ele>656.0</ele>
        <time>2017-05-27T07:44:54.178Z</time>
      </trkpt>
      <trkpt lat="39.95661667" lon="-0.39440167">
        <ele>656.0</ele>
        <time>2017-05-27T07:44:55.164Z</time>
      </trkpt>
      <trkpt lat="39.95661833" lon="-0.39443">
        <ele>656.0</ele>
        <time>2017-05-27T07:44:56.195Z</time>
      </trkpt>
      <trkpt lat="39.95661833" lon="-0.39443">
        <ele>656.0</ele>
        <time>2017-05-27T07:44:57.160Z</time>
      </trkpt>
      <trkpt lat="39.95662167" lon="-0.39448167">
        <ele>657.0</ele>
        <time>2017-05-27T07:44:58.185Z</time>
      </trkpt>
      <trkpt lat="39.95662167" lon="-0.39448167">
        <ele>657.0</ele>
        <time>2017-05-27T07:44:59.190Z</time>
      </trkpt>
      <trkpt lat="39.956625" lon="-0.39453167">
        <ele>657.0</ele>
        <time>2017-05-27T07:45:00.176Z</time>
      </trkpt>
      <trkpt lat="39.956625" lon="-0.39453167">
        <ele>657.0</ele>
        <time>2017-05-27T07:45:01.184Z</time>
      </trkpt>
      <trkpt lat="39.95663333" lon="-0.39458167">
        <ele>657.0</ele>
        <time>2017-05-27T07:45:02.174Z</time>
      </trkpt>
      <trkpt lat="39.95663333" lon="-0.39458167">
        <ele>657.0</ele>
        <time>2017-05-27T07:45:03.180Z</time>
      </trkpt>
      <trkpt lat="39.95663833" lon="-0.39464">
        <ele>658.0</ele>
        <time>2017-05-27T07:45:04.166Z</time>
      </trkpt>
      <trkpt lat="39.95663667" lon="-0.39466833">
        <ele>658.0</ele>
        <time>2017-05-27T07:45:05.168Z</time>
      </trkpt>
      <trkpt lat="39.95663667" lon="-0.39466833">
        <ele>658.0</ele>
        <time>2017-05-27T07:45:06.187Z</time>
      </trkpt>
      <trkpt lat="39.956645" lon="-0.39472">
        <ele>658.0</ele>
        <time>2017-05-27T07:45:07.196Z</time>
      </trkpt>
      <trkpt lat="39.956645" lon="-0.39472">
        <ele>658.0</ele>
        <time>2017-05-27T07:45:08.170Z</time>
      </trkpt>
      <trkpt lat="39.95664667" lon="-0.39476833">
        <ele>659.0</ele>
        <time>2017-05-27T07:45:09.165Z</time>
      </trkpt>
      <trkpt lat="39.95664667" lon="-0.39476833">
        <ele>659.0</ele>
        <time>2017-05-27T07:45:10.179Z</time>
      </trkpt>
      <trkpt lat="39.95664833" lon="-0.39482167">
        <ele>659.0</ele>
        <time>2017-05-27T07:45:11.182Z</time>
      </trkpt>
      <trkpt lat="39.95665167" lon="-0.39485">
        <ele>659.0</ele>
        <time>2017-05-27T07:45:12.188Z</time>
      </trkpt>
      <trkpt lat="39.95665167" lon="-0.39485">
        <ele>659.0</ele>
        <time>2017-05-27T07:45:13.159Z</time>
      </trkpt>
      <trkpt lat="39.95665167" lon="-0.39490333">
        <ele>660.0</ele>
        <time>2017-05-27T07:45:14.159Z</time>
      </trkpt>
      <trkpt lat="39.95665167" lon="-0.39490333">
        <ele>660.0</ele>
        <time>2017-05-27T07:45:15.182Z</time>
      </trkpt>
      <trkpt lat="39.95664667" lon="-0.39495667">
        <ele>660.0</ele>
        <time>2017-05-27T07:45:16.190Z</time>
      </trkpt>
      <trkpt lat="39.95664333" lon="-0.39498333">
        <ele>660.0</ele>
        <time>2017-05-27T07:45:17.188Z</time>
      </trkpt>
      <trkpt lat="39.95663833" lon="-0.39500667">
        <ele>661.0</ele>
        <time>2017-05-27T07:45:18.194Z</time>
      </trkpt>
      <trkpt lat="39.95663833" lon="-0.39500667">
        <ele>661.0</ele>
        <time>2017-05-27T07:45:19.159Z</time>
      </trkpt>
      <trkpt lat="39.956625" lon="-0.39504333">
        <ele>661.0</ele>
        <time>2017-05-27T07:45:20.186Z</time>
      </trkpt>
      <trkpt lat="39.956625" lon="-0.39504333">
        <ele>661.0</ele>
        <time>2017-05-27T07:45:21.156Z</time>
      </trkpt>
      <trkpt lat="39.95660667" lon="-0.395085">
        <ele>661.0</ele>
        <time>2017-05-27T07:45:22.185Z</time>
      </trkpt>
      <trkpt lat="39.95659833" lon="-0.39510833">
        <ele>661.0</ele>
        <time>2017-05-27T07:45:23.179Z</time>
      </trkpt>
      <trkpt lat="39.95658667" lon="-0.39513167">
        <ele>661.0</ele>
        <time>2017-05-27T07:45:24.185Z</time>
      </trkpt>
      <trkpt lat="39.95658667" lon="-0.39513167">
        <ele>661.0</ele>
        <time>2017-05-27T07:45:25.192Z</time>
      </trkpt>
      <trkpt lat="39.95656167" lon="-0.39518167">
        <ele>661.0</ele>
        <time>2017-05-27T07:45:26.169Z</time>
      </trkpt>
      <trkpt lat="39.95656167" lon="-0.39518167">
        <ele>661.0</ele>
        <time>2017-05-27T07:45:27.178Z</time>
      </trkpt>
      <trkpt lat="39.95654" lon="-0.395235">
        <ele>662.0</ele>
        <time>2017-05-27T07:45:28.167Z</time>
      </trkpt>
      <trkpt lat="39.95653" lon="-0.39526333">
        <ele>662.0</ele>
        <time>2017-05-27T07:45:29.160Z</time>
      </trkpt>
      <trkpt lat="39.95652167" lon="-0.39529167">
        <ele>662.0</ele>
        <time>2017-05-27T07:45:30.165Z</time>
      </trkpt>
      <trkpt lat="39.95652167" lon="-0.39529167">
        <ele>662.0</ele>
        <time>2017-05-27T07:45:31.172Z</time>
      </trkpt>
      <trkpt lat="39.956505" lon="-0.39535167">
        <ele>662.0</ele>
        <time>2017-05-27T07:45:32.167Z</time>
      </trkpt>
      <trkpt lat="39.956505" lon="-0.39535167">
        <ele>662.0</ele>
        <time>2017-05-27T07:45:33.182Z</time>
      </trkpt>
      <trkpt lat="39.95648833" lon="-0.39541667">
        <ele>662.0</ele>
        <time>2017-05-27T07:45:34.167Z</time>
      </trkpt>
      <trkpt lat="39.95648333" lon="-0.39545">
        <ele>662.0</ele>
        <time>2017-05-27T07:45:35.156Z</time>
      </trkpt>
      <trkpt lat="39.95648333" lon="-0.39545">
        <ele>662.0</ele>
        <time>2017-05-27T07:45:36.162Z</time>
      </trkpt>
      <trkpt lat="39.95646833" lon="-0.395515">
        <ele>662.0</ele>
        <time>2017-05-27T07:45:37.185Z</time>
      </trkpt>
      <trkpt lat="39.95646833" lon="-0.395515">
        <ele>662.0</ele>
        <time>2017-05-27T07:45:38.190Z</time>
      </trkpt>
      <trkpt lat="39.956455" lon="-0.39558833">
        <ele>662.0</ele>
        <time>2017-05-27T07:45:39.185Z</time>
      </trkpt>
      <trkpt lat="39.956455" lon="-0.39558833">
        <ele>662.0</ele>
        <time>2017-05-27T07:45:40.158Z</time>
      </trkpt>
      <trkpt lat="39.95644167" lon="-0.39566">
        <ele>662.0</ele>
        <time>2017-05-27T07:45:41.189Z</time>
      </trkpt>
      <trkpt lat="39.95644167" lon="-0.39566">
        <ele>662.0</ele>
        <time>2017-05-27T07:45:42.195Z</time>
      </trkpt>
      <trkpt lat="39.95642833" lon="-0.39574">
        <ele>662.0</ele>
        <time>2017-05-27T07:45:43.185Z</time>
      </trkpt>
      <trkpt lat="39.95642167" lon="-0.39578167">
        <ele>662.0</ele>
        <time>2017-05-27T07:45:44.184Z</time>
      </trkpt>
      <trkpt lat="39.95642167" lon="-0.39578167">
        <ele>662.0</ele>
        <time>2017-05-27T07:45:45.157Z</time>
      </trkpt>
      <trkpt lat="39.956405" lon="-0.39585833">
        <ele>662.0</ele>
        <time>2017-05-27T07:45:46.243Z</time>
      </trkpt>
      <trkpt lat="39.956405" lon="-0.39585833">
        <ele>662.0</ele>
        <time>2017-05-27T07:45:47.187Z</time>
      </trkpt>
      <trkpt lat="39.95637667" lon="-0.39593333">
        <ele>662.0</ele>
        <time>2017-05-27T07:45:48.171Z</time>
      </trkpt>
      <trkpt lat="39.95637667" lon="-0.39593333">
        <ele>662.0</ele>
        <time>2017-05-27T07:45:49.190Z</time>
      </trkpt>
      <trkpt lat="39.95634" lon="-0.39600833">
        <ele>661.0</ele>
        <time>2017-05-27T07:45:50.185Z</time>
      </trkpt>
      <trkpt lat="39.95634" lon="-0.39600833">
        <ele>661.0</ele>
        <time>2017-05-27T07:45:51.195Z</time>
      </trkpt>
      <trkpt lat="39.95628667" lon="-0.396075">
        <ele>661.0</ele>
        <time>2017-05-27T07:45:52.164Z</time>
      </trkpt>
      <trkpt lat="39.95625667" lon="-0.39611167">
        <ele>661.0</ele>
        <time>2017-05-27T07:45:53.156Z</time>
      </trkpt>
      <trkpt lat="39.956225" lon="-0.39615167">
        <ele>661.0</ele>
        <time>2017-05-27T07:45:54.176Z</time>
      </trkpt>
      <trkpt lat="39.956225" lon="-0.39615167">
        <ele>661.0</ele>
        <time>2017-05-27T07:45:55.182Z</time>
      </trkpt>
      <trkpt lat="39.95617333" lon="-0.39625">
        <ele>660.0</ele>
        <time>2017-05-27T07:45:56.182Z</time>
      </trkpt>
      <trkpt lat="39.95615" lon="-0.39630667">
        <ele>660.0</ele>
        <time>2017-05-27T07:45:57.177Z</time>
      </trkpt>
      <trkpt lat="39.95615" lon="-0.39630667">
        <ele>660.0</ele>
        <time>2017-05-27T07:45:58.182Z</time>
      </trkpt>
      <trkpt lat="39.95610333" lon="-0.39643167">
        <ele>660.0</ele>
        <time>2017-05-27T07:45:59.183Z</time>
      </trkpt>
      <trkpt lat="39.95608333" lon="-0.3965">
        <ele>659.0</ele>
        <time>2017-05-27T07:46:00.190Z</time>
      </trkpt>
      <trkpt lat="39.95608333" lon="-0.3965">
        <ele>659.0</ele>
        <time>2017-05-27T07:46:01.195Z</time>
      </trkpt>
      <trkpt lat="39.95605167" lon="-0.396635">
        <ele>659.0</ele>
        <time>2017-05-27T07:46:02.158Z</time>
      </trkpt>
      <trkpt lat="39.95605167" lon="-0.396635">
        <ele>659.0</ele>
        <time>2017-05-27T07:46:03.184Z</time>
      </trkpt>
      <trkpt lat="39.956015" lon="-0.396775">
        <ele>658.0</ele>
        <time>2017-05-27T07:46:04.175Z</time>
      </trkpt>
      <trkpt lat="39.955995" lon="-0.39685167">
        <ele>658.0</ele>
        <time>2017-05-27T07:46:05.170Z</time>
      </trkpt>
      <trkpt lat="39.955995" lon="-0.39685167">
        <ele>658.0</ele>
        <time>2017-05-27T07:46:06.182Z</time>
      </trkpt>
      <trkpt lat="39.95596333" lon="-0.39701333">
        <ele>658.0</ele>
        <time>2017-05-27T07:46:07.173Z</time>
      </trkpt>
      <trkpt lat="39.95595333" lon="-0.39709833">
        <ele>658.0</ele>
        <time>2017-05-27T07:46:08.176Z</time>
      </trkpt>
      <trkpt lat="39.95595333" lon="-0.39709833">
        <ele>658.0</ele>
        <time>2017-05-27T07:46:09.159Z</time>
      </trkpt>
      <trkpt lat="39.95593833" lon="-0.39726833">
        <ele>657.0</ele>
        <time>2017-05-27T07:46:10.159Z</time>
      </trkpt>
      <trkpt lat="39.95592167" lon="-0.39734833">
        <ele>657.0</ele>
        <time>2017-05-27T07:46:11.182Z</time>
      </trkpt>
      <trkpt lat="39.95592167" lon="-0.39734833">
        <ele>657.0</ele>
        <time>2017-05-27T07:46:12.187Z</time>
      </trkpt>
      <trkpt lat="39.95585167" lon="-0.39748333">
        <ele>657.0</ele>
        <time>2017-05-27T07:46:13.165Z</time>
      </trkpt>
      <trkpt lat="39.95579167" lon="-0.397535">
        <ele>657.0</ele>
        <time>2017-05-27T07:46:14.160Z</time>
      </trkpt>
      <trkpt lat="39.95572333" lon="-0.39758">
        <ele>657.0</ele>
        <time>2017-05-27T07:46:15.191Z</time>
      </trkpt>
      <trkpt lat="39.95572333" lon="-0.39758">
        <ele>657.0</ele>
        <time>2017-05-27T07:46:16.157Z</time>
      </trkpt>
      <trkpt lat="39.95556667" lon="-0.39762833">
        <ele>655.0</ele>
        <time>2017-05-27T07:46:17.156Z</time>
      </trkpt>
      <trkpt lat="39.95556667" lon="-0.39762833">
        <ele>655.0</ele>
        <time>2017-05-27T07:46:18.163Z</time>
      </trkpt>
      <trkpt lat="39.95540167" lon="-0.39766">
        <ele>654.0</ele>
        <time>2017-05-27T07:46:19.193Z</time>
      </trkpt>
      <trkpt lat="39.95532" lon="-0.39769167">
        <ele>654.0</ele>
        <time>2017-05-27T07:46:20.185Z</time>
      </trkpt>
      <trkpt lat="39.95532" lon="-0.39769167">
        <ele>654.0</ele>
        <time>2017-05-27T07:46:21.190Z</time>
      </trkpt>
      <trkpt lat="39.95517833" lon="-0.39780833">
        <ele>653.0</ele>
        <time>2017-05-27T07:46:22.180Z</time>
      </trkpt>
      <trkpt lat="39.95512833" lon="-0.3979">
        <ele>652.0</ele>
        <time>2017-05-27T07:46:23.173Z</time>
      </trkpt>
      <trkpt lat="39.95512833" lon="-0.3979">
        <ele>652.0</ele>
        <time>2017-05-27T07:46:24.179Z</time>
      </trkpt>
      <trkpt lat="39.954995" lon="-0.39804">
        <ele>652.0</ele>
        <time>2017-05-27T07:46:25.171Z</time>
      </trkpt>
      <trkpt lat="39.95492333" lon="-0.39810333">
        <ele>651.0</ele>
        <time>2017-05-27T07:46:26.159Z</time>
      </trkpt>
      <trkpt lat="39.95492333" lon="-0.39810333">
        <ele>651.0</ele>
        <time>2017-05-27T07:46:27.164Z</time>
      </trkpt>
      <trkpt lat="39.954775" lon="-0.39823667">
        <ele>650.0</ele>
        <time>2017-05-27T07:46:28.193Z</time>
      </trkpt>
      <trkpt lat="39.954775" lon="-0.39823667">
        <ele>650.0</ele>
        <time>2017-05-27T07:46:29.159Z</time>
      </trkpt>
      <trkpt lat="39.95461" lon="-0.39835667">
        <ele>649.0</ele>
        <time>2017-05-27T07:46:30.186Z</time>
      </trkpt>
      <trkpt lat="39.95461" lon="-0.39835667">
        <ele>649.0</ele>
        <time>2017-05-27T07:46:31.156Z</time>
      </trkpt>
      <trkpt lat="39.95443167" lon="-0.39846333">
        <ele>648.0</ele>
        <time>2017-05-27T07:46:32.193Z</time>
      </trkpt>
      <trkpt lat="39.95443167" lon="-0.39846333">
        <ele>648.0</ele>
        <time>2017-05-27T07:46:33.159Z</time>
      </trkpt>
      <trkpt lat="39.95427" lon="-0.39858">
        <ele>647.0</ele>
        <time>2017-05-27T07:46:34.194Z</time>
      </trkpt>
      <trkpt lat="39.95419167" lon="-0.39861667">
        <ele>646.0</ele>
        <time>2017-05-27T07:46:35.165Z</time>
      </trkpt>
      <trkpt lat="39.95419167" lon="-0.39861667">
        <ele>646.0</ele>
        <time>2017-05-27T07:46:36.171Z</time>
      </trkpt>
      <trkpt lat="39.95401167" lon="-0.39862">
        <ele>644.0</ele>
        <time>2017-05-27T07:46:37.161Z</time>
      </trkpt>
      <trkpt lat="39.95401167" lon="-0.39862">
        <ele>644.0</ele>
        <time>2017-05-27T07:46:38.184Z</time>
      </trkpt>
      <trkpt lat="39.95383" lon="-0.39859667">
        <ele>643.0</ele>
        <time>2017-05-27T07:46:39.177Z</time>
      </trkpt>
      <trkpt lat="39.95383" lon="-0.39859667">
        <ele>643.0</ele>
        <time>2017-05-27T07:46:40.181Z</time>
      </trkpt>
      <trkpt lat="39.95367167" lon="-0.398505">
        <ele>642.0</ele>
        <time>2017-05-27T07:46:41.183Z</time>
      </trkpt>
      <trkpt lat="39.9536" lon="-0.39843167">
        <ele>641.0</ele>
        <time>2017-05-27T07:46:42.189Z</time>
      </trkpt>
      <trkpt lat="39.9536" lon="-0.39843167">
        <ele>641.0</ele>
        <time>2017-05-27T07:46:43.157Z</time>
      </trkpt>
      <trkpt lat="39.95345167" lon="-0.39829167">
        <ele>640.0</ele>
        <time>2017-05-27T07:46:44.191Z</time>
      </trkpt>
      <trkpt lat="39.95335667" lon="-0.39825167">
        <ele>639.0</ele>
        <time>2017-05-27T07:46:45.191Z</time>
      </trkpt>
      <trkpt lat="39.95335667" lon="-0.39825167">
        <ele>639.0</ele>
        <time>2017-05-27T07:46:46.159Z</time>
      </trkpt>
      <trkpt lat="39.95315667" lon="-0.398235">
        <ele>637.0</ele>
        <time>2017-05-27T07:46:47.195Z</time>
      </trkpt>
      <trkpt lat="39.95315667" lon="-0.398235">
        <ele>637.0</ele>
        <time>2017-05-27T07:46:48.176Z</time>
      </trkpt>
      <trkpt lat="39.95298333" lon="-0.39817">
        <ele>636.0</ele>
        <time>2017-05-27T07:46:49.165Z</time>
      </trkpt>
      <trkpt lat="39.95298333" lon="-0.39817">
        <ele>636.0</ele>
        <time>2017-05-27T07:46:50.180Z</time>
      </trkpt>
      <trkpt lat="39.95284167" lon="-0.39803667">
        <ele>634.0</ele>
        <time>2017-05-27T07:46:51.160Z</time>
      </trkpt>
      <trkpt lat="39.952765" lon="-0.39798167">
        <ele>633.0</ele>
        <time>2017-05-27T07:46:52.181Z</time>
      </trkpt>
      <trkpt lat="39.952765" lon="-0.39798167">
        <ele>633.0</ele>
        <time>2017-05-27T07:46:53.186Z</time>
      </trkpt>
      <trkpt lat="39.95259667" lon="-0.39797333">
        <ele>631.0</ele>
        <time>2017-05-27T07:46:54.164Z</time>
      </trkpt>
      <trkpt lat="39.95259667" lon="-0.39797333">
        <ele>631.0</ele>
        <time>2017-05-27T07:46:55.185Z</time>
      </trkpt>
      <trkpt lat="39.95241833" lon="-0.39807167">
        <ele>629.0</ele>
        <time>2017-05-27T07:46:56.186Z</time>
      </trkpt>
      <trkpt lat="39.95241833" lon="-0.39807167">
        <ele>629.0</ele>
        <time>2017-05-27T07:46:57.157Z</time>
      </trkpt>
      <trkpt lat="39.95222167" lon="-0.39814667">
        <ele>628.0</ele>
        <time>2017-05-27T07:46:58.168Z</time>
      </trkpt>
      <trkpt lat="39.952115" lon="-0.39816167">
        <ele>627.0</ele>
        <time>2017-05-27T07:46:59.187Z</time>
      </trkpt>
      <trkpt lat="39.952115" lon="-0.39816167">
        <ele>627.0</ele>
        <time>2017-05-27T07:47:00.195Z</time>
      </trkpt>
      <trkpt lat="39.95189833" lon="-0.39817333">
        <ele>626.0</ele>
        <time>2017-05-27T07:47:01.175Z</time>
      </trkpt>
      <trkpt lat="39.95189833" lon="-0.39817333">
        <ele>626.0</ele>
        <time>2017-05-27T07:47:02.182Z</time>
      </trkpt>
      <trkpt lat="39.95168667" lon="-0.39820833">
        <ele>625.0</ele>
        <time>2017-05-27T07:47:03.171Z</time>
      </trkpt>
      <trkpt lat="39.95168667" lon="-0.39820833">
        <ele>625.0</ele>
        <time>2017-05-27T07:47:04.177Z</time>
      </trkpt>
      <trkpt lat="39.95150333" lon="-0.39829">
        <ele>624.0</ele>
        <time>2017-05-27T07:47:05.172Z</time>
      </trkpt>
      <trkpt lat="39.95150333" lon="-0.39829">
        <ele>624.0</ele>
        <time>2017-05-27T07:47:06.178Z</time>
      </trkpt>
      <trkpt lat="39.95134833" lon="-0.39836833">
        <ele>623.0</ele>
        <time>2017-05-27T07:47:07.160Z</time>
      </trkpt>
      <trkpt lat="39.95134833" lon="-0.39836833">
        <ele>623.0</ele>
        <time>2017-05-27T07:47:08.168Z</time>
      </trkpt>
      <trkpt lat="39.95121667" lon="-0.39843833">
        <ele>623.0</ele>
        <time>2017-05-27T07:47:09.158Z</time>
      </trkpt>
      <trkpt lat="39.95121667" lon="-0.39843833">
        <ele>623.0</ele>
        <time>2017-05-27T07:47:10.166Z</time>
      </trkpt>
      <trkpt lat="39.951095" lon="-0.39851167">
        <ele>624.0</ele>
        <time>2017-05-27T07:47:11.163Z</time>
      </trkpt>
      <trkpt lat="39.951095" lon="-0.39851167">
        <ele>624.0</ele>
        <time>2017-05-27T07:47:12.179Z</time>
      </trkpt>
      <trkpt lat="39.950975" lon="-0.39855333">
        <ele>624.0</ele>
        <time>2017-05-27T07:47:13.180Z</time>
      </trkpt>
      <trkpt lat="39.950975" lon="-0.39855333">
        <ele>624.0</ele>
        <time>2017-05-27T07:47:14.186Z</time>
      </trkpt>
      <trkpt lat="39.95086833" lon="-0.398485">
        <ele>624.0</ele>
        <time>2017-05-27T07:47:15.182Z</time>
      </trkpt>
      <trkpt lat="39.95086833" lon="-0.398485">
        <ele>624.0</ele>
        <time>2017-05-27T07:47:16.188Z</time>
      </trkpt>
      <trkpt lat="39.95081833" lon="-0.39833333">
        <ele>623.0</ele>
        <time>2017-05-27T07:47:17.170Z</time>
      </trkpt>
      <trkpt lat="39.95081833" lon="-0.39833333">
        <ele>623.0</ele>
        <time>2017-05-27T07:47:18.177Z</time>
      </trkpt>
      <trkpt lat="39.95079667" lon="-0.398145">
        <ele>622.0</ele>
        <time>2017-05-27T07:47:19.163Z</time>
      </trkpt>
      <trkpt lat="39.950785" lon="-0.39804667">
        <ele>622.0</ele>
        <time>2017-05-27T07:47:20.188Z</time>
      </trkpt>
      <trkpt lat="39.950785" lon="-0.39804667">
        <ele>622.0</ele>
        <time>2017-05-27T07:47:21.195Z</time>
      </trkpt>
      <trkpt lat="39.95074667" lon="-0.39783167">
        <ele>621.0</ele>
        <time>2017-05-27T07:47:22.185Z</time>
      </trkpt>
      <trkpt lat="39.95071167" lon="-0.39772">
        <ele>620.0</ele>
        <time>2017-05-27T07:47:23.170Z</time>
      </trkpt>
      <trkpt lat="39.95071167" lon="-0.39772">
        <ele>620.0</ele>
        <time>2017-05-27T07:47:24.175Z</time>
      </trkpt>
      <trkpt lat="39.95060833" lon="-0.39751667">
        <ele>619.0</ele>
        <time>2017-05-27T07:47:25.164Z</time>
      </trkpt>
      <trkpt lat="39.95060833" lon="-0.39751667">
        <ele>619.0</ele>
        <time>2017-05-27T07:47:26.170Z</time>
      </trkpt>
      <trkpt lat="39.95049333" lon="-0.39732167">
        <ele>618.0</ele>
        <time>2017-05-27T07:47:27.159Z</time>
      </trkpt>
      <trkpt lat="39.95049333" lon="-0.39732167">
        <ele>618.0</ele>
        <time>2017-05-27T07:47:28.172Z</time>
      </trkpt>
      <trkpt lat="39.95034" lon="-0.39715">
        <ele>616.0</ele>
        <time>2017-05-27T07:47:29.188Z</time>
      </trkpt>
      <trkpt lat="39.95034" lon="-0.39715">
        <ele>616.0</ele>
        <time>2017-05-27T07:47:30.158Z</time>
      </trkpt>
      <trkpt lat="39.950165" lon="-0.39707667">
        <ele>616.0</ele>
        <time>2017-05-27T07:47:31.188Z</time>
      </trkpt>
      <trkpt lat="39.950165" lon="-0.39707667">
        <ele>616.0</ele>
        <time>2017-05-27T07:47:32.159Z</time>
      </trkpt>
      <trkpt lat="39.94999333" lon="-0.39700667">
        <ele>615.0</ele>
        <time>2017-05-27T07:47:33.190Z</time>
      </trkpt>
      <trkpt lat="39.94999333" lon="-0.39700667">
        <ele>615.0</ele>
        <time>2017-05-27T07:47:34.158Z</time>
      </trkpt>
      <trkpt lat="39.94984667" lon="-0.39689167">
        <ele>614.0</ele>
        <time>2017-05-27T07:47:35.156Z</time>
      </trkpt>
      <trkpt lat="39.94984667" lon="-0.39689167">
        <ele>614.0</ele>
        <time>2017-05-27T07:47:36.166Z</time>
      </trkpt>
      <trkpt lat="39.94968333" lon="-0.396755">
        <ele>613.0</ele>
        <time>2017-05-27T07:47:37.189Z</time>
      </trkpt>
      <trkpt lat="39.94968333" lon="-0.396755">
        <ele>613.0</ele>
        <time>2017-05-27T07:47:38.195Z</time>
      </trkpt>
      <trkpt lat="39.94952667" lon="-0.39660333">
        <ele>612.0</ele>
        <time>2017-05-27T07:47:39.185Z</time>
      </trkpt>
      <trkpt lat="39.94952667" lon="-0.39660333">
        <ele>612.0</ele>
        <time>2017-05-27T07:47:40.192Z</time>
      </trkpt>
      <trkpt lat="39.94942833" lon="-0.39641167">
        <ele>611.0</ele>
        <time>2017-05-27T07:47:41.182Z</time>
      </trkpt>
      <trkpt lat="39.94942833" lon="-0.39641167">
        <ele>611.0</ele>
        <time>2017-05-27T07:47:42.187Z</time>
      </trkpt>
      <trkpt lat="39.94934667" lon="-0.39622833">
        <ele>610.0</ele>
        <time>2017-05-27T07:47:43.189Z</time>
      </trkpt>
      <trkpt lat="39.9493" lon="-0.39614333">
        <ele>610.0</ele>
        <time>2017-05-27T07:47:44.179Z</time>
      </trkpt>
      <trkpt lat="39.9493" lon="-0.39614333">
        <ele>610.0</ele>
        <time>2017-05-27T07:47:45.184Z</time>
      </trkpt>
      <trkpt lat="39.94922167" lon="-0.39599333">
        <ele>609.0</ele>
        <time>2017-05-27T07:47:46.166Z</time>
      </trkpt>
      <trkpt lat="39.94917833" lon="-0.39593667">
        <ele>609.0</ele>
        <time>2017-05-27T07:47:47.158Z</time>
      </trkpt>
      <trkpt lat="39.94917833" lon="-0.39593667">
        <ele>609.0</ele>
        <time>2017-05-27T07:47:48.163Z</time>
      </trkpt>
      <trkpt lat="39.94911" lon="-0.39589333">
        <ele>608.0</ele>
        <time>2017-05-27T07:47:49.184Z</time>
      </trkpt>
      <trkpt lat="39.94911" lon="-0.39589333">
        <ele>608.0</ele>
        <time>2017-05-27T07:47:50.189Z</time>
      </trkpt>
      <trkpt lat="39.94904333" lon="-0.39586833">
        <ele>608.0</ele>
        <time>2017-05-27T07:47:51.174Z</time>
      </trkpt>
      <trkpt lat="39.94904333" lon="-0.39586833">
        <ele>608.0</ele>
        <time>2017-05-27T07:47:52.179Z</time>
      </trkpt>
      <trkpt lat="39.94897167" lon="-0.395845">
        <ele>607.0</ele>
        <time>2017-05-27T07:47:53.179Z</time>
      </trkpt>
      <trkpt lat="39.94897167" lon="-0.395845">
        <ele>607.0</ele>
        <time>2017-05-27T07:47:54.186Z</time>
      </trkpt>
      <trkpt lat="39.94890333" lon="-0.39582">
        <ele>607.0</ele>
        <time>2017-05-27T07:47:55.175Z</time>
      </trkpt>
      <trkpt lat="39.94890333" lon="-0.39582">
        <ele>607.0</ele>
        <time>2017-05-27T07:47:56.180Z</time>
      </trkpt>
      <trkpt lat="39.94884167" lon="-0.39577">
        <ele>608.0</ele>
        <time>2017-05-27T07:47:57.162Z</time>
      </trkpt>
      <trkpt lat="39.94880833" lon="-0.39574333">
        <ele>608.0</ele>
        <time>2017-05-27T07:47:58.156Z</time>
      </trkpt>
      <trkpt lat="39.94880833" lon="-0.39574333">
        <ele>608.0</ele>
        <time>2017-05-27T07:47:59.169Z</time>
      </trkpt>
      <trkpt lat="39.94874667" lon="-0.39567833">
        <ele>608.0</ele>
        <time>2017-05-27T07:48:00.161Z</time>
      </trkpt>
      <trkpt lat="39.94874667" lon="-0.39567833">
        <ele>608.0</ele>
        <time>2017-05-27T07:48:01.166Z</time>
      </trkpt>
      <trkpt lat="39.94868333" lon="-0.39561167">
        <ele>608.0</ele>
        <time>2017-05-27T07:48:02.166Z</time>
      </trkpt>
      <trkpt lat="39.94868333" lon="-0.39561167">
        <ele>608.0</ele>
        <time>2017-05-27T07:48:03.171Z</time>
      </trkpt>
      <trkpt lat="39.94865" lon="-0.39552333">
        <ele>608.0</ele>
        <time>2017-05-27T07:48:04.168Z</time>
      </trkpt>
      <trkpt lat="39.94865" lon="-0.39552333">
        <ele>608.0</ele>
        <time>2017-05-27T07:48:05.183Z</time>
      </trkpt>
      <trkpt lat="39.94861833" lon="-0.395435">
        <ele>608.0</ele>
        <time>2017-05-27T07:48:06.171Z</time>
      </trkpt>
      <trkpt lat="39.94861833" lon="-0.395435">
        <ele>608.0</ele>
        <time>2017-05-27T07:48:07.176Z</time>
      </trkpt>
      <trkpt lat="39.948615" lon="-0.39532667">
        <ele>608.0</ele>
        <time>2017-05-27T07:48:08.169Z</time>
      </trkpt>
      <trkpt lat="39.948615" lon="-0.39532667">
        <ele>608.0</ele>
        <time>2017-05-27T07:48:09.174Z</time>
      </trkpt>
      <trkpt lat="39.94860667" lon="-0.39521333">
        <ele>607.0</ele>
        <time>2017-05-27T07:48:10.178Z</time>
      </trkpt>
      <trkpt lat="39.94860667" lon="-0.39521333">
        <ele>607.0</ele>
        <time>2017-05-27T07:48:11.184Z</time>
      </trkpt>
      <trkpt lat="39.948585" lon="-0.39509667">
        <ele>607.0</ele>
        <time>2017-05-27T07:48:12.164Z</time>
      </trkpt>
      <trkpt lat="39.948585" lon="-0.39509667">
        <ele>607.0</ele>
        <time>2017-05-27T07:48:13.189Z</time>
      </trkpt>
      <trkpt lat="39.94854833" lon="-0.39498333">
        <ele>606.0</ele>
        <time>2017-05-27T07:48:14.187Z</time>
      </trkpt>
      <trkpt lat="39.94854833" lon="-0.39498333">
        <ele>606.0</ele>
        <time>2017-05-27T07:48:15.192Z</time>
      </trkpt>
      <trkpt lat="39.94847" lon="-0.39491">
        <ele>606.0</ele>
        <time>2017-05-27T07:48:16.184Z</time>
      </trkpt>
      <trkpt lat="39.94843333" lon="-0.39488667">
        <ele>605.0</ele>
        <time>2017-05-27T07:48:17.183Z</time>
      </trkpt>
      <trkpt lat="39.94839667" lon="-0.39486167">
        <ele>605.0</ele>
        <time>2017-05-27T07:48:18.188Z</time>
      </trkpt>
      <trkpt lat="39.94839667" lon="-0.39486167">
        <ele>605.0</ele>
        <time>2017-05-27T07:48:19.193Z</time>
      </trkpt>
      <trkpt lat="39.94832167" lon="-0.394815">
        <ele>605.0</ele>
        <time>2017-05-27T07:48:20.189Z</time>
      </trkpt>
      <trkpt lat="39.94832167" lon="-0.394815">
        <ele>605.0</ele>
        <time>2017-05-27T07:48:21.156Z</time>
      </trkpt>
      <trkpt lat="39.94825" lon="-0.39479667">
        <ele>605.0</ele>
        <time>2017-05-27T07:48:22.176Z</time>
      </trkpt>
      <trkpt lat="39.94821667" lon="-0.39478333">
        <ele>605.0</ele>
        <time>2017-05-27T07:48:23.187Z</time>
      </trkpt>
      <trkpt lat="39.94821667" lon="-0.39478333">
        <ele>605.0</ele>
        <time>2017-05-27T07:48:24.192Z</time>
      </trkpt>
      <trkpt lat="39.94815" lon="-0.39475">
        <ele>606.0</ele>
        <time>2017-05-27T07:48:25.156Z</time>
      </trkpt>
      <trkpt lat="39.94812833" lon="-0.394725">
        <ele>606.0</ele>
        <time>2017-05-27T07:48:26.178Z</time>
      </trkpt>
      <trkpt lat="39.94812833" lon="-0.394725">
        <ele>606.0</ele>
        <time>2017-05-27T07:48:27.183Z</time>
      </trkpt>
      <trkpt lat="39.948075" lon="-0.39468833">
        <ele>606.0</ele>
        <time>2017-05-27T07:48:28.188Z</time>
      </trkpt>
      <trkpt lat="39.948075" lon="-0.39468833">
        <ele>606.0</ele>
        <time>2017-05-27T07:48:29.158Z</time>
      </trkpt>
      <trkpt lat="39.94804" lon="-0.39465167">
        <ele>607.0</ele>
        <time>2017-05-27T07:48:30.158Z</time>
      </trkpt>
      <trkpt lat="39.94804" lon="-0.39465167">
        <ele>607.0</ele>
        <time>2017-05-27T07:48:31.164Z</time>
      </trkpt>
      <trkpt lat="39.94800167" lon="-0.39460833">
        <ele>608.0</ele>
        <time>2017-05-27T07:48:32.173Z</time>
      </trkpt>
      <trkpt lat="39.94800167" lon="-0.39460833">
        <ele>608.0</ele>
        <time>2017-05-27T07:48:33.186Z</time>
      </trkpt>
      <trkpt lat="39.94795667" lon="-0.39458667">
        <ele>608.0</ele>
        <time>2017-05-27T07:48:34.195Z</time>
      </trkpt>
      <trkpt lat="39.947935" lon="-0.39458">
        <ele>608.0</ele>
        <time>2017-05-27T07:48:35.165Z</time>
      </trkpt>
      <trkpt lat="39.947935" lon="-0.39458">
        <ele>608.0</ele>
        <time>2017-05-27T07:48:36.173Z</time>
      </trkpt>
      <trkpt lat="39.94788167" lon="-0.39455667">
        <ele>608.0</ele>
        <time>2017-05-27T07:48:37.162Z</time>
      </trkpt>
      <trkpt lat="39.94788167" lon="-0.39455667">
        <ele>608.0</ele>
        <time>2017-05-27T07:48:38.178Z</time>
      </trkpt>
      <trkpt lat="39.947825" lon="-0.39454">
        <ele>608.0</ele>
        <time>2017-05-27T07:48:39.177Z</time>
      </trkpt>
      <trkpt lat="39.947825" lon="-0.39454">
        <ele>608.0</ele>
        <time>2017-05-27T07:48:40.182Z</time>
      </trkpt>
      <trkpt lat="39.94778" lon="-0.39453">
        <ele>609.0</ele>
        <time>2017-05-27T07:48:41.167Z</time>
      </trkpt>
      <trkpt lat="39.94778" lon="-0.39453">
        <ele>609.0</ele>
        <time>2017-05-27T07:48:42.172Z</time>
      </trkpt>
      <trkpt lat="39.94774333" lon="-0.39452833">
        <ele>609.0</ele>
        <time>2017-05-27T07:48:43.164Z</time>
      </trkpt>
      <trkpt lat="39.94774333" lon="-0.39452833">
        <ele>609.0</ele>
        <time>2017-05-27T07:48:44.157Z</time>
      </trkpt>
      <trkpt lat="39.94770833" lon="-0.39454">
        <ele>610.0</ele>
        <time>2017-05-27T07:48:45.158Z</time>
      </trkpt>
      <trkpt lat="39.94770333" lon="-0.39454">
        <ele>611.0</ele>
        <time>2017-05-27T07:48:46.187Z</time>
      </trkpt>
      <trkpt lat="39.94770333" lon="-0.39454">
        <ele>611.0</ele>
        <time>2017-05-27T07:48:47.158Z</time>
      </trkpt>
      <trkpt lat="39.947665" lon="-0.39456833">
        <ele>612.0</ele>
        <time>2017-05-27T07:48:48.157Z</time>
      </trkpt>
      <trkpt lat="39.947665" lon="-0.39456833">
        <ele>612.0</ele>
        <time>2017-05-27T07:48:49.162Z</time>
      </trkpt>
      <trkpt lat="39.94764" lon="-0.394585">
        <ele>613.0</ele>
        <time>2017-05-27T07:48:50.174Z</time>
      </trkpt>
      <trkpt lat="39.94764" lon="-0.394585">
        <ele>613.0</ele>
        <time>2017-05-27T07:48:51.184Z</time>
      </trkpt>
      <trkpt lat="39.94760667" lon="-0.39460167">
        <ele>614.0</ele>
        <time>2017-05-27T07:48:52.190Z</time>
      </trkpt>
      <trkpt lat="39.94759" lon="-0.39461333">
        <ele>614.0</ele>
        <time>2017-05-27T07:48:53.185Z</time>
      </trkpt>
      <trkpt lat="39.94759" lon="-0.39461333">
        <ele>614.0</ele>
        <time>2017-05-27T07:48:54.157Z</time>
      </trkpt>
      <trkpt lat="39.94755" lon="-0.39463333">
        <ele>616.0</ele>
        <time>2017-05-27T07:48:55.165Z</time>
      </trkpt>
      <trkpt lat="39.94755" lon="-0.39463333">
        <ele>616.0</ele>
        <time>2017-05-27T07:48:56.179Z</time>
      </trkpt>
      <trkpt lat="39.94750333" lon="-0.39465333">
        <ele>617.0</ele>
        <time>2017-05-27T07:48:57.165Z</time>
      </trkpt>
      <trkpt lat="39.94750333" lon="-0.39465333">
        <ele>617.0</ele>
        <time>2017-05-27T07:48:58.170Z</time>
      </trkpt>
      <trkpt lat="39.94745333" lon="-0.39467833">
        <ele>618.0</ele>
        <time>2017-05-27T07:48:59.196Z</time>
      </trkpt>
      <trkpt lat="39.94745333" lon="-0.39467833">
        <ele>618.0</ele>
        <time>2017-05-27T07:49:00.161Z</time>
      </trkpt>
      <trkpt lat="39.94740167" lon="-0.394705">
        <ele>619.0</ele>
        <time>2017-05-27T07:49:01.188Z</time>
      </trkpt>
      <trkpt lat="39.94738167" lon="-0.39472333">
        <ele>620.0</ele>
        <time>2017-05-27T07:49:02.188Z</time>
      </trkpt>
      <trkpt lat="39.94738167" lon="-0.39472333">
        <ele>620.0</ele>
        <time>2017-05-27T07:49:03.158Z</time>
      </trkpt>
      <trkpt lat="39.94735167" lon="-0.39477167">
        <ele>621.0</ele>
        <time>2017-05-27T07:49:04.173Z</time>
      </trkpt>
      <trkpt lat="39.94733667" lon="-0.394795">
        <ele>621.0</ele>
        <time>2017-05-27T07:49:05.180Z</time>
      </trkpt>
      <trkpt lat="39.94733667" lon="-0.394795">
        <ele>621.0</ele>
        <time>2017-05-27T07:49:06.185Z</time>
      </trkpt>
      <trkpt lat="39.94730333" lon="-0.394845">
        <ele>623.0</ele>
        <time>2017-05-27T07:49:07.195Z</time>
      </trkpt>
      <trkpt lat="39.94730333" lon="-0.394845">
        <ele>623.0</ele>
        <time>2017-05-27T07:49:08.160Z</time>
      </trkpt>
      <trkpt lat="39.947275" lon="-0.394895">
        <ele>623.0</ele>
        <time>2017-05-27T07:49:09.195Z</time>
      </trkpt>
      <trkpt lat="39.947275" lon="-0.394895">
        <ele>623.0</ele>
        <time>2017-05-27T07:49:10.160Z</time>
      </trkpt>
      <trkpt lat="39.94724667" lon="-0.39494167">
        <ele>624.0</ele>
        <time>2017-05-27T07:49:11.166Z</time>
      </trkpt>
      <trkpt lat="39.94724667" lon="-0.39494167">
        <ele>624.0</ele>
        <time>2017-05-27T07:49:12.172Z</time>
      </trkpt>
      <trkpt lat="39.94721167" lon="-0.39499">
        <ele>625.0</ele>
        <time>2017-05-27T07:49:13.168Z</time>
      </trkpt>
      <trkpt lat="39.947195" lon="-0.39501333">
        <ele>626.0</ele>
        <time>2017-05-27T07:49:14.170Z</time>
      </trkpt>
      <trkpt lat="39.947195" lon="-0.39501333">
        <ele>626.0</ele>
        <time>2017-05-27T07:49:15.175Z</time>
      </trkpt>
      <trkpt lat="39.94715167" lon="-0.39506">
        <ele>627.0</ele>
        <time>2017-05-27T07:49:16.170Z</time>
      </trkpt>
      <trkpt lat="39.94715167" lon="-0.39506">
        <ele>627.0</ele>
        <time>2017-05-27T07:49:17.176Z</time>
      </trkpt>
      <trkpt lat="39.94711167" lon="-0.39511333">
        <ele>628.0</ele>
        <time>2017-05-27T07:49:18.164Z</time>
      </trkpt>
      <trkpt lat="39.94711167" lon="-0.39511333">
        <ele>628.0</ele>
        <time>2017-05-27T07:49:19.170Z</time>
      </trkpt>
      <trkpt lat="39.94707" lon="-0.39516833">
        <ele>628.0</ele>
        <time>2017-05-27T07:49:20.163Z</time>
      </trkpt>
      <trkpt lat="39.94705" lon="-0.395195">
        <ele>629.0</ele>
        <time>2017-05-27T07:49:21.158Z</time>
      </trkpt>
      <trkpt lat="39.94705" lon="-0.395195">
        <ele>629.0</ele>
        <time>2017-05-27T07:49:22.163Z</time>
      </trkpt>
      <trkpt lat="39.94700833" lon="-0.39524333">
        <ele>630.0</ele>
        <time>2017-05-27T07:49:23.166Z</time>
      </trkpt>
      <trkpt lat="39.94700833" lon="-0.39524333">
        <ele>630.0</ele>
        <time>2017-05-27T07:49:24.171Z</time>
      </trkpt>
      <trkpt lat="39.94696667" lon="-0.39529167">
        <ele>630.0</ele>
        <time>2017-05-27T07:49:25.165Z</time>
      </trkpt>
      <trkpt lat="39.946945" lon="-0.39531333">
        <ele>631.0</ele>
        <time>2017-05-27T07:49:26.188Z</time>
      </trkpt>
      <trkpt lat="39.946945" lon="-0.39531333">
        <ele>631.0</ele>
        <time>2017-05-27T07:49:27.158Z</time>
      </trkpt>
      <trkpt lat="39.94692" lon="-0.39535667">
        <ele>631.0</ele>
        <time>2017-05-27T07:49:28.187Z</time>
      </trkpt>
      <trkpt lat="39.94690667" lon="-0.39537667">
        <ele>632.0</ele>
        <time>2017-05-27T07:49:29.190Z</time>
      </trkpt>
      <trkpt lat="39.94690667" lon="-0.39537667">
        <ele>632.0</ele>
        <time>2017-05-27T07:49:30.159Z</time>
      </trkpt>
      <trkpt lat="39.94689" lon="-0.39542">
        <ele>633.0</ele>
        <time>2017-05-27T07:49:31.195Z</time>
      </trkpt>
      <trkpt lat="39.94687833" lon="-0.39544167">
        <ele>633.0</ele>
        <time>2017-05-27T07:49:32.195Z</time>
      </trkpt>
      <trkpt lat="39.94687833" lon="-0.39544167">
        <ele>633.0</ele>
        <time>2017-05-27T07:49:33.160Z</time>
      </trkpt>
      <trkpt lat="39.94686" lon="-0.39548667">
        <ele>634.0</ele>
        <time>2017-05-27T07:49:34.165Z</time>
      </trkpt>
      <trkpt lat="39.94686" lon="-0.39548667">
        <ele>634.0</ele>
        <time>2017-05-27T07:49:35.182Z</time>
      </trkpt>
      <trkpt lat="39.94683833" lon="-0.39553333">
        <ele>635.0</ele>
        <time>2017-05-27T07:49:36.195Z</time>
      </trkpt>
      <trkpt lat="39.94683833" lon="-0.39553333">
        <ele>635.0</ele>
        <time>2017-05-27T07:49:37.160Z</time>
      </trkpt>
      <trkpt lat="39.94682167" lon="-0.39558167">
        <ele>636.0</ele>
        <time>2017-05-27T07:49:38.175Z</time>
      </trkpt>
      <trkpt lat="39.94682167" lon="-0.39558167">
        <ele>636.0</ele>
        <time>2017-05-27T07:49:39.180Z</time>
      </trkpt>
      <trkpt lat="39.94683" lon="-0.39562333">
        <ele>637.0</ele>
        <time>2017-05-27T07:49:40.168Z</time>
      </trkpt>
      <trkpt lat="39.94684333" lon="-0.39564">
        <ele>638.0</ele>
        <time>2017-05-27T07:49:41.164Z</time>
      </trkpt>
      <trkpt lat="39.94684333" lon="-0.39564">
        <ele>638.0</ele>
        <time>2017-05-27T07:49:42.170Z</time>
      </trkpt>
      <trkpt lat="39.94687333" lon="-0.39565333">
        <ele>639.0</ele>
        <time>2017-05-27T07:49:43.185Z</time>
      </trkpt>
      <trkpt lat="39.94688833" lon="-0.39564333">
        <ele>639.0</ele>
        <time>2017-05-27T07:49:44.181Z</time>
      </trkpt>
      <trkpt lat="39.94688833" lon="-0.39564333">
        <ele>639.0</ele>
        <time>2017-05-27T07:49:45.187Z</time>
      </trkpt>
      <trkpt lat="39.946915" lon="-0.39561333">
        <ele>640.0</ele>
        <time>2017-05-27T07:49:46.172Z</time>
      </trkpt>
      <trkpt lat="39.946925" lon="-0.39559667">
        <ele>641.0</ele>
        <time>2017-05-27T07:49:47.175Z</time>
      </trkpt>
      <trkpt lat="39.94693667" lon="-0.39558333">
        <ele>641.0</ele>
        <time>2017-05-27T07:49:48.180Z</time>
      </trkpt>
      <trkpt lat="39.94693667" lon="-0.39558333">
        <ele>641.0</ele>
        <time>2017-05-27T07:49:49.187Z</time>
      </trkpt>
      <trkpt lat="39.94696333" lon="-0.39555167">
        <ele>642.0</ele>
        <time>2017-05-27T07:49:50.180Z</time>
      </trkpt>
      <trkpt lat="39.94696333" lon="-0.39555167">
        <ele>642.0</ele>
        <time>2017-05-27T07:49:51.185Z</time>
      </trkpt>
      <trkpt lat="39.94699" lon="-0.39552167">
        <ele>643.0</ele>
        <time>2017-05-27T07:49:52.185Z</time>
      </trkpt>
      <trkpt lat="39.94700333" lon="-0.39550167">
        <ele>643.0</ele>
        <time>2017-05-27T07:49:53.165Z</time>
      </trkpt>
      <trkpt lat="39.94700333" lon="-0.39550167">
        <ele>643.0</ele>
        <time>2017-05-27T07:49:54.170Z</time>
      </trkpt>
      <trkpt lat="39.94703" lon="-0.39546833">
        <ele>644.0</ele>
        <time>2017-05-27T07:49:55.165Z</time>
      </trkpt>
      <trkpt lat="39.947045" lon="-0.39545167">
        <ele>644.0</ele>
        <time>2017-05-27T07:49:56.175Z</time>
      </trkpt>
      <trkpt lat="39.947045" lon="-0.39545167">
        <ele>644.0</ele>
        <time>2017-05-27T07:49:57.180Z</time>
      </trkpt>
      <trkpt lat="39.94707167" lon="-0.39542333">
        <ele>645.0</ele>
        <time>2017-05-27T07:49:58.172Z</time>
      </trkpt>
      <trkpt lat="39.947085" lon="-0.39541">
        <ele>645.0</ele>
        <time>2017-05-27T07:49:59.175Z</time>
      </trkpt>
      <trkpt lat="39.947085" lon="-0.39541">
        <ele>645.0</ele>
        <time>2017-05-27T07:50:00.180Z</time>
      </trkpt>
      <trkpt lat="39.94711667" lon="-0.39538333">
        <ele>645.0</ele>
        <time>2017-05-27T07:50:01.176Z</time>
      </trkpt>
      <trkpt lat="39.94712833" lon="-0.39537167">
        <ele>645.0</ele>
        <time>2017-05-27T07:50:02.195Z</time>
      </trkpt>
      <trkpt lat="39.94712833" lon="-0.39537167">
        <ele>645.0</ele>
        <time>2017-05-27T07:50:03.160Z</time>
      </trkpt>
      <trkpt lat="39.94715833" lon="-0.39535167">
        <ele>646.0</ele>
        <time>2017-05-27T07:50:04.193Z</time>
      </trkpt>
      <trkpt lat="39.94717333" lon="-0.39534333">
        <ele>646.0</ele>
        <time>2017-05-27T07:50:05.185Z</time>
      </trkpt>
      <trkpt lat="39.94717333" lon="-0.39534333">
        <ele>646.0</ele>
        <time>2017-05-27T07:50:06.190Z</time>
      </trkpt>
      <trkpt lat="39.94720833" lon="-0.39533167">
        <ele>646.0</ele>
        <time>2017-05-27T07:50:07.194Z</time>
      </trkpt>
      <trkpt lat="39.947225" lon="-0.39532167">
        <ele>646.0</ele>
        <time>2017-05-27T07:50:08.189Z</time>
      </trkpt>
      <trkpt lat="39.947225" lon="-0.39532167">
        <ele>646.0</ele>
        <time>2017-05-27T07:50:09.156Z</time>
      </trkpt>
      <trkpt lat="39.94726667" lon="-0.39529833">
        <ele>646.0</ele>
        <time>2017-05-27T07:50:10.194Z</time>
      </trkpt>
      <trkpt lat="39.94726667" lon="-0.39529833">
        <ele>646.0</ele>
        <time>2017-05-27T07:50:11.159Z</time>
      </trkpt>
      <trkpt lat="39.9473" lon="-0.39527833">
        <ele>647.0</ele>
        <time>2017-05-27T07:50:12.163Z</time>
      </trkpt>
      <trkpt lat="39.9473" lon="-0.39527833">
        <ele>647.0</ele>
        <time>2017-05-27T07:50:13.177Z</time>
      </trkpt>
      <trkpt lat="39.94733667" lon="-0.395255">
        <ele>647.0</ele>
        <time>2017-05-27T07:50:14.175Z</time>
      </trkpt>
      <trkpt lat="39.94733667" lon="-0.395255">
        <ele>647.0</ele>
        <time>2017-05-27T07:50:15.180Z</time>
      </trkpt>
      <trkpt lat="39.94736833" lon="-0.39523333">
        <ele>647.0</ele>
        <time>2017-05-27T07:50:16.176Z</time>
      </trkpt>
      <trkpt lat="39.94736833" lon="-0.39523333">
        <ele>647.0</ele>
        <time>2017-05-27T07:50:17.181Z</time>
      </trkpt>
      <trkpt lat="39.94739667" lon="-0.39520667">
        <ele>648.0</ele>
        <time>2017-05-27T07:50:18.185Z</time>
      </trkpt>
      <trkpt lat="39.94739667" lon="-0.39520667">
        <ele>648.0</ele>
        <time>2017-05-27T07:50:19.190Z</time>
      </trkpt>
      <trkpt lat="39.947425" lon="-0.39518">
        <ele>648.0</ele>
        <time>2017-05-27T07:50:20.165Z</time>
      </trkpt>
      <trkpt lat="39.947425" lon="-0.39518">
        <ele>648.0</ele>
        <time>2017-05-27T07:50:21.171Z</time>
      </trkpt>
      <trkpt lat="39.94746667" lon="-0.39515333">
        <ele>649.0</ele>
        <time>2017-05-27T07:50:22.174Z</time>
      </trkpt>
      <trkpt lat="39.94748667" lon="-0.39514333">
        <ele>649.0</ele>
        <time>2017-05-27T07:50:23.160Z</time>
      </trkpt>
      <trkpt lat="39.94748667" lon="-0.39514333">
        <ele>649.0</ele>
        <time>2017-05-27T07:50:24.165Z</time>
      </trkpt>
      <trkpt lat="39.94752333" lon="-0.39513667">
        <ele>649.0</ele>
        <time>2017-05-27T07:50:25.164Z</time>
      </trkpt>
      <trkpt lat="39.94754333" lon="-0.39514">
        <ele>649.0</ele>
        <time>2017-05-27T07:50:26.158Z</time>
      </trkpt>
      <trkpt lat="39.94756333" lon="-0.39514667">
        <ele>649.0</ele>
        <time>2017-05-27T07:50:27.193Z</time>
      </trkpt>
      <trkpt lat="39.94756333" lon="-0.39514667">
        <ele>649.0</ele>
        <time>2017-05-27T07:50:28.158Z</time>
      </trkpt>
      <trkpt lat="39.94759833" lon="-0.39517167">
        <ele>650.0</ele>
        <time>2017-05-27T07:50:29.193Z</time>
      </trkpt>
      <trkpt lat="39.94759833" lon="-0.39517167">
        <ele>650.0</ele>
        <time>2017-05-27T07:50:30.159Z</time>
      </trkpt>
      <trkpt lat="39.94762333" lon="-0.39521">
        <ele>650.0</ele>
        <time>2017-05-27T07:50:31.195Z</time>
      </trkpt>
      <trkpt lat="39.94763333" lon="-0.39523167">
        <ele>651.0</ele>
        <time>2017-05-27T07:50:32.163Z</time>
      </trkpt>
      <trkpt lat="39.94763333" lon="-0.39523167">
        <ele>651.0</ele>
        <time>2017-05-27T07:50:33.182Z</time>
      </trkpt>
      <trkpt lat="39.94765" lon="-0.39528333">
        <ele>652.0</ele>
        <time>2017-05-27T07:50:34.192Z</time>
      </trkpt>
      <trkpt lat="39.94765" lon="-0.39530833">
        <ele>652.0</ele>
        <time>2017-05-27T07:50:35.195Z</time>
      </trkpt>
      <trkpt lat="39.94765" lon="-0.395335">
        <ele>652.0</ele>
        <time>2017-05-27T07:50:36.162Z</time>
      </trkpt>
      <trkpt lat="39.94765" lon="-0.395335">
        <ele>652.0</ele>
        <time>2017-05-27T07:50:37.168Z</time>
      </trkpt>
      <trkpt lat="39.94764833" lon="-0.39538667">
        <ele>653.0</ele>
        <time>2017-05-27T07:50:38.163Z</time>
      </trkpt>
      <trkpt lat="39.94764833" lon="-0.39538667">
        <ele>653.0</ele>
        <time>2017-05-27T07:50:39.168Z</time>
      </trkpt>
      <trkpt lat="39.947645" lon="-0.395435">
        <ele>654.0</ele>
        <time>2017-05-27T07:50:40.175Z</time>
      </trkpt>
      <trkpt lat="39.947645" lon="-0.395435">
        <ele>654.0</ele>
        <time>2017-05-27T07:50:41.180Z</time>
      </trkpt>
      <trkpt lat="39.94764833" lon="-0.39548">
        <ele>654.0</ele>
        <time>2017-05-27T07:50:42.195Z</time>
      </trkpt>
      <trkpt lat="39.94764833" lon="-0.39548">
        <ele>654.0</ele>
        <time>2017-05-27T07:50:43.160Z</time>
      </trkpt>
      <trkpt lat="39.94765333" lon="-0.39552833">
        <ele>655.0</ele>
        <time>2017-05-27T07:50:44.174Z</time>
      </trkpt>
      <trkpt lat="39.94765333" lon="-0.39552833">
        <ele>655.0</ele>
        <time>2017-05-27T07:50:45.179Z</time>
      </trkpt>
      <trkpt lat="39.94766" lon="-0.39557333">
        <ele>655.0</ele>
        <time>2017-05-27T07:50:46.166Z</time>
      </trkpt>
      <trkpt lat="39.94766167" lon="-0.39559667">
        <ele>655.0</ele>
        <time>2017-05-27T07:50:47.184Z</time>
      </trkpt>
      <trkpt lat="39.94766167" lon="-0.39559667">
        <ele>655.0</ele>
        <time>2017-05-27T07:50:48.189Z</time>
      </trkpt>
      <trkpt lat="39.94765333" lon="-0.39564667">
        <ele>656.0</ele>
        <time>2017-05-27T07:50:49.190Z</time>
      </trkpt>
      <trkpt lat="39.94765167" lon="-0.39567167">
        <ele>656.0</ele>
        <time>2017-05-27T07:50:50.162Z</time>
      </trkpt>
      <trkpt lat="39.94765167" lon="-0.39567167">
        <ele>656.0</ele>
        <time>2017-05-27T07:50:51.167Z</time>
      </trkpt>
      <trkpt lat="39.94765667" lon="-0.39572167">
        <ele>656.0</ele>
        <time>2017-05-27T07:50:52.192Z</time>
      </trkpt>
      <trkpt lat="39.94766333" lon="-0.39574667">
        <ele>657.0</ele>
        <time>2017-05-27T07:50:53.169Z</time>
      </trkpt>
      <trkpt lat="39.94766333" lon="-0.39574667">
        <ele>657.0</ele>
        <time>2017-05-27T07:50:54.190Z</time>
      </trkpt>
      <trkpt lat="39.947665" lon="-0.39580167">
        <ele>657.0</ele>
        <time>2017-05-27T07:50:55.170Z</time>
      </trkpt>
      <trkpt lat="39.947665" lon="-0.39580167">
        <ele>657.0</ele>
        <time>2017-05-27T07:50:56.175Z</time>
      </trkpt>
      <trkpt lat="39.94765833" lon="-0.39584833">
        <ele>658.0</ele>
        <time>2017-05-27T07:50:57.175Z</time>
      </trkpt>
      <trkpt lat="39.94765667" lon="-0.39587167">
        <ele>658.0</ele>
        <time>2017-05-27T07:50:58.169Z</time>
      </trkpt>
      <trkpt lat="39.94765667" lon="-0.39587167">
        <ele>658.0</ele>
        <time>2017-05-27T07:50:59.174Z</time>
      </trkpt>
      <trkpt lat="39.94765" lon="-0.39591833">
        <ele>659.0</ele>
        <time>2017-05-27T07:51:00.160Z</time>
      </trkpt>
      <trkpt lat="39.94765" lon="-0.39591833">
        <ele>659.0</ele>
        <time>2017-05-27T07:51:01.165Z</time>
      </trkpt>
      <trkpt lat="39.94764667" lon="-0.395965">
        <ele>659.0</ele>
        <time>2017-05-27T07:51:02.178Z</time>
      </trkpt>
      <trkpt lat="39.94764667" lon="-0.395965">
        <ele>659.0</ele>
        <time>2017-05-27T07:51:03.183Z</time>
      </trkpt>
      <trkpt lat="39.94765667" lon="-0.39600833">
        <ele>660.0</ele>
        <time>2017-05-27T07:51:04.166Z</time>
      </trkpt>
      <trkpt lat="39.94766" lon="-0.39602333">
        <ele>660.0</ele>
        <time>2017-05-27T07:51:05.182Z</time>
      </trkpt>
      <trkpt lat="39.94766" lon="-0.39602333">
        <ele>660.0</ele>
        <time>2017-05-27T07:51:06.187Z</time>
      </trkpt>
      <trkpt lat="39.947665" lon="-0.39606667">
        <ele>660.0</ele>
        <time>2017-05-27T07:51:07.195Z</time>
      </trkpt>
      <trkpt lat="39.947665" lon="-0.39606667">
        <ele>660.0</ele>
        <time>2017-05-27T07:51:08.160Z</time>
      </trkpt>
      <trkpt lat="39.94767167" lon="-0.39610667">
        <ele>661.0</ele>
        <time>2017-05-27T07:51:09.195Z</time>
      </trkpt>
      <trkpt lat="39.94767167" lon="-0.39613167">
        <ele>661.0</ele>
        <time>2017-05-27T07:51:10.192Z</time>
      </trkpt>
      <trkpt lat="39.94767167" lon="-0.39613167">
        <ele>661.0</ele>
        <time>2017-05-27T07:51:11.158Z</time>
      </trkpt>
      <trkpt lat="39.94766667" lon="-0.39618833">
        <ele>662.0</ele>
        <time>2017-05-27T07:51:12.166Z</time>
      </trkpt>
      <trkpt lat="39.94766667" lon="-0.39618833">
        <ele>662.0</ele>
        <time>2017-05-27T07:51:13.181Z</time>
      </trkpt>
      <trkpt lat="39.947675" lon="-0.39623833">
        <ele>662.0</ele>
        <time>2017-05-27T07:51:14.182Z</time>
      </trkpt>
      <trkpt lat="39.94767667" lon="-0.396265">
        <ele>662.0</ele>
        <time>2017-05-27T07:51:15.175Z</time>
      </trkpt>
      <trkpt lat="39.94767667" lon="-0.396265">
        <ele>662.0</ele>
        <time>2017-05-27T07:51:16.180Z</time>
      </trkpt>
      <trkpt lat="39.94768333" lon="-0.39632167">
        <ele>663.0</ele>
        <time>2017-05-27T07:51:17.194Z</time>
      </trkpt>
      <trkpt lat="39.94768333" lon="-0.39632167">
        <ele>663.0</ele>
        <time>2017-05-27T07:51:18.159Z</time>
      </trkpt>
      <trkpt lat="39.947695" lon="-0.39637833">
        <ele>664.0</ele>
        <time>2017-05-27T07:51:19.170Z</time>
      </trkpt>
      <trkpt lat="39.947695" lon="-0.39637833">
        <ele>664.0</ele>
        <time>2017-05-27T07:51:20.175Z</time>
      </trkpt>
      <trkpt lat="39.9477" lon="-0.39643">
        <ele>664.0</ele>
        <time>2017-05-27T07:51:21.177Z</time>
      </trkpt>
      <trkpt lat="39.94770667" lon="-0.396455">
        <ele>665.0</ele>
        <time>2017-05-27T07:51:22.195Z</time>
      </trkpt>
      <trkpt lat="39.94770667" lon="-0.396455">
        <ele>665.0</ele>
        <time>2017-05-27T07:51:23.160Z</time>
      </trkpt>
      <trkpt lat="39.94772667" lon="-0.39651">
        <ele>665.0</ele>
        <time>2017-05-27T07:51:24.192Z</time>
      </trkpt>
      <trkpt lat="39.94773167" lon="-0.39653333">
        <ele>665.0</ele>
        <time>2017-05-27T07:51:25.183Z</time>
      </trkpt>
      <trkpt lat="39.94773167" lon="-0.39653333">
        <ele>665.0</ele>
        <time>2017-05-27T07:51:26.188Z</time>
      </trkpt>
      <trkpt lat="39.94773833" lon="-0.396585">
        <ele>666.0</ele>
        <time>2017-05-27T07:51:27.187Z</time>
      </trkpt>
      <trkpt lat="39.94773833" lon="-0.396585">
        <ele>666.0</ele>
        <time>2017-05-27T07:51:28.192Z</time>
      </trkpt>
      <trkpt lat="39.94775" lon="-0.39662667">
        <ele>666.0</ele>
        <time>2017-05-27T07:51:29.194Z</time>
      </trkpt>
      <trkpt lat="39.94775" lon="-0.39662667">
        <ele>666.0</ele>
        <time>2017-05-27T07:51:30.160Z</time>
      </trkpt>
      <trkpt lat="39.947765" lon="-0.39667167">
        <ele>667.0</ele>
        <time>2017-05-27T07:51:31.156Z</time>
      </trkpt>
      <trkpt lat="39.947765" lon="-0.39667167">
        <ele>667.0</ele>
        <time>2017-05-27T07:51:32.194Z</time>
      </trkpt>
      <trkpt lat="39.947785" lon="-0.39672">
        <ele>668.0</ele>
        <time>2017-05-27T07:51:33.162Z</time>
      </trkpt>
      <trkpt lat="39.947785" lon="-0.39672">
        <ele>668.0</ele>
        <time>2017-05-27T07:51:34.167Z</time>
      </trkpt>
      <trkpt lat="39.94780333" lon="-0.39677">
        <ele>669.0</ele>
        <time>2017-05-27T07:51:35.175Z</time>
      </trkpt>
      <trkpt lat="39.94780333" lon="-0.39677">
        <ele>669.0</ele>
        <time>2017-05-27T07:51:36.180Z</time>
      </trkpt>
      <trkpt lat="39.94782" lon="-0.39681667">
        <ele>670.0</ele>
        <time>2017-05-27T07:51:37.183Z</time>
      </trkpt>
      <trkpt lat="39.94783167" lon="-0.39683833">
        <ele>670.0</ele>
        <time>2017-05-27T07:51:38.189Z</time>
      </trkpt>
      <trkpt lat="39.94783167" lon="-0.39683833">
        <ele>670.0</ele>
        <time>2017-05-27T07:51:39.196Z</time>
      </trkpt>
      <trkpt lat="39.947855" lon="-0.396885">
        <ele>671.0</ele>
        <time>2017-05-27T07:51:40.192Z</time>
      </trkpt>
      <trkpt lat="39.947855" lon="-0.396885">
        <ele>671.0</ele>
        <time>2017-05-27T07:51:41.157Z</time>
      </trkpt>
      <trkpt lat="39.94788167" lon="-0.39693167">
        <ele>672.0</ele>
        <time>2017-05-27T07:51:42.173Z</time>
      </trkpt>
      <trkpt lat="39.94788167" lon="-0.39693167">
        <ele>672.0</ele>
        <time>2017-05-27T07:51:43.181Z</time>
      </trkpt>
      <trkpt lat="39.94791167" lon="-0.39698">
        <ele>673.0</ele>
        <time>2017-05-27T07:51:44.175Z</time>
      </trkpt>
      <trkpt lat="39.94792833" lon="-0.39700833">
        <ele>673.0</ele>
        <time>2017-05-27T07:51:45.185Z</time>
      </trkpt>
      <trkpt lat="39.94792833" lon="-0.39700833">
        <ele>673.0</ele>
        <time>2017-05-27T07:51:46.190Z</time>
      </trkpt>
      <trkpt lat="39.94797167" lon="-0.39705333">
        <ele>674.0</ele>
        <time>2017-05-27T07:51:47.189Z</time>
      </trkpt>
      <trkpt lat="39.94797167" lon="-0.39705333">
        <ele>674.0</ele>
        <time>2017-05-27T07:51:48.195Z</time>
      </trkpt>
      <trkpt lat="39.94800833" lon="-0.397115">
        <ele>674.0</ele>
        <time>2017-05-27T07:51:49.174Z</time>
      </trkpt>
      <trkpt lat="39.94800833" lon="-0.397115">
        <ele>674.0</ele>
        <time>2017-05-27T07:51:50.179Z</time>
      </trkpt>
      <trkpt lat="39.94805333" lon="-0.397165">
        <ele>675.0</ele>
        <time>2017-05-27T07:51:51.160Z</time>
      </trkpt>
      <trkpt lat="39.94805333" lon="-0.397165">
        <ele>675.0</ele>
        <time>2017-05-27T07:51:52.173Z</time>
      </trkpt>
      <trkpt lat="39.94811" lon="-0.39720167">
        <ele>675.0</ele>
        <time>2017-05-27T07:51:53.178Z</time>
      </trkpt>
      <trkpt lat="39.94811" lon="-0.39720167">
        <ele>675.0</ele>
        <time>2017-05-27T07:51:54.183Z</time>
      </trkpt>
      <trkpt lat="39.94816667" lon="-0.397245">
        <ele>675.0</ele>
        <time>2017-05-27T07:51:55.180Z</time>
      </trkpt>
      <trkpt lat="39.94816667" lon="-0.397245">
        <ele>675.0</ele>
        <time>2017-05-27T07:51:56.185Z</time>
      </trkpt>
      <trkpt lat="39.94821167" lon="-0.39727333">
        <ele>676.0</ele>
        <time>2017-05-27T07:51:57.175Z</time>
      </trkpt>
      <trkpt lat="39.94821167" lon="-0.39727333">
        <ele>676.0</ele>
        <time>2017-05-27T07:51:58.180Z</time>
      </trkpt>
      <trkpt lat="39.94826333" lon="-0.3973">
        <ele>676.0</ele>
        <time>2017-05-27T07:51:59.188Z</time>
      </trkpt>
      <trkpt lat="39.94826333" lon="-0.3973">
        <ele>676.0</ele>
        <time>2017-05-27T07:52:00.194Z</time>
      </trkpt>
      <trkpt lat="39.94832167" lon="-0.397325">
        <ele>677.0</ele>
        <time>2017-05-27T07:52:01.186Z</time>
      </trkpt>
      <trkpt lat="39.94832167" lon="-0.397325">
        <ele>677.0</ele>
        <time>2017-05-27T07:52:02.191Z</time>
      </trkpt>
      <trkpt lat="39.94837833" lon="-0.397365">
        <ele>677.0</ele>
        <time>2017-05-27T07:52:03.185Z</time>
      </trkpt>
      <trkpt lat="39.94837833" lon="-0.397365">
        <ele>677.0</ele>
        <time>2017-05-27T07:52:04.190Z</time>
      </trkpt>
      <trkpt lat="39.94843167" lon="-0.39743167">
        <ele>677.0</ele>
        <time>2017-05-27T07:52:05.184Z</time>
      </trkpt>
      <trkpt lat="39.94843167" lon="-0.39743167">
        <ele>677.0</ele>
        <time>2017-05-27T07:52:06.189Z</time>
      </trkpt>
      <trkpt lat="39.94847833" lon="-0.397505">
        <ele>677.0</ele>
        <time>2017-05-27T07:52:07.194Z</time>
      </trkpt>
      <trkpt lat="39.94847833" lon="-0.397505">
        <ele>677.0</ele>
        <time>2017-05-27T07:52:08.160Z</time>
      </trkpt>
      <trkpt lat="39.948495" lon="-0.39759">
        <ele>677.0</ele>
        <time>2017-05-27T07:52:09.195Z</time>
      </trkpt>
      <trkpt lat="39.948495" lon="-0.39759">
        <ele>677.0</ele>
        <time>2017-05-27T07:52:10.160Z</time>
      </trkpt>
      <trkpt lat="39.94848667" lon="-0.39767667">
        <ele>677.0</ele>
        <time>2017-05-27T07:52:11.195Z</time>
      </trkpt>
      <trkpt lat="39.94847667" lon="-0.39772167">
        <ele>677.0</ele>
        <time>2017-05-27T07:52:12.162Z</time>
      </trkpt>
      <trkpt lat="39.94847667" lon="-0.39772167">
        <ele>677.0</ele>
        <time>2017-05-27T07:52:13.158Z</time>
      </trkpt>
      <trkpt lat="39.94845333" lon="-0.39779667">
        <ele>677.0</ele>
        <time>2017-05-27T07:52:14.160Z</time>
      </trkpt>
      <trkpt lat="39.94845333" lon="-0.39779667">
        <ele>677.0</ele>
        <time>2017-05-27T07:52:15.173Z</time>
      </trkpt>
      <trkpt lat="39.94841667" lon="-0.39788167">
        <ele>677.0</ele>
        <time>2017-05-27T07:52:16.169Z</time>
      </trkpt>
      <trkpt lat="39.948405" lon="-0.39791833">
        <ele>677.0</ele>
        <time>2017-05-27T07:52:17.195Z</time>
      </trkpt>
      <trkpt lat="39.948405" lon="-0.39791833">
        <ele>677.0</ele>
        <time>2017-05-27T07:52:18.160Z</time>
      </trkpt>
      <trkpt lat="39.94838833" lon="-0.39799667">
        <ele>678.0</ele>
        <time>2017-05-27T07:52:19.171Z</time>
      </trkpt>
      <trkpt lat="39.94839167" lon="-0.39804333">
        <ele>678.0</ele>
        <time>2017-05-27T07:52:20.184Z</time>
      </trkpt>
      <trkpt lat="39.94839167" lon="-0.39804333">
        <ele>678.0</ele>
        <time>2017-05-27T07:52:21.190Z</time>
      </trkpt>
      <trkpt lat="39.94839167" lon="-0.39812">
        <ele>678.0</ele>
        <time>2017-05-27T07:52:22.192Z</time>
      </trkpt>
      <trkpt lat="39.94839167" lon="-0.39812">
        <ele>678.0</ele>
        <time>2017-05-27T07:52:23.158Z</time>
      </trkpt>
      <trkpt lat="39.9484" lon="-0.398175">
        <ele>678.0</ele>
        <time>2017-05-27T07:52:24.173Z</time>
      </trkpt>
      <trkpt lat="39.9484" lon="-0.398175">
        <ele>678.0</ele>
        <time>2017-05-27T07:52:25.180Z</time>
      </trkpt>
      <trkpt lat="39.948415" lon="-0.39825833">
        <ele>679.0</ele>
        <time>2017-05-27T07:52:26.164Z</time>
      </trkpt>
      <trkpt lat="39.948415" lon="-0.39825833">
        <ele>679.0</ele>
        <time>2017-05-27T07:52:27.169Z</time>
      </trkpt>
      <trkpt lat="39.94842333" lon="-0.39831833">
        <ele>679.0</ele>
        <time>2017-05-27T07:52:28.175Z</time>
      </trkpt>
      <trkpt lat="39.94842833" lon="-0.39834833">
        <ele>679.0</ele>
        <time>2017-05-27T07:52:29.185Z</time>
      </trkpt>
      <trkpt lat="39.94842833" lon="-0.39834833">
        <ele>679.0</ele>
        <time>2017-05-27T07:52:30.190Z</time>
      </trkpt>
      <trkpt lat="39.94843" lon="-0.39840333">
        <ele>679.0</ele>
        <time>2017-05-27T07:52:31.164Z</time>
      </trkpt>
      <trkpt lat="39.94843" lon="-0.39840333">
        <ele>679.0</ele>
        <time>2017-05-27T07:52:32.173Z</time>
      </trkpt>
      <trkpt lat="39.94842833" lon="-0.39845167">
        <ele>679.0</ele>
        <time>2017-05-27T07:52:33.160Z</time>
      </trkpt>
      <trkpt lat="39.94842833" lon="-0.39845167">
        <ele>679.0</ele>
        <time>2017-05-27T07:52:34.165Z</time>
      </trkpt>
      <trkpt lat="39.94842333" lon="-0.39851833">
        <ele>679.0</ele>
        <time>2017-05-27T07:52:35.195Z</time>
      </trkpt>
      <trkpt lat="39.94842333" lon="-0.39851833">
        <ele>679.0</ele>
        <time>2017-05-27T07:52:36.160Z</time>
      </trkpt>
      <trkpt lat="39.94843" lon="-0.39858167">
        <ele>679.0</ele>
        <time>2017-05-27T07:52:37.194Z</time>
      </trkpt>
      <trkpt lat="39.94843" lon="-0.39861">
        <ele>679.0</ele>
        <time>2017-05-27T07:52:38.175Z</time>
      </trkpt>
      <trkpt lat="39.94843" lon="-0.39861">
        <ele>679.0</ele>
        <time>2017-05-27T07:52:39.180Z</time>
      </trkpt>
      <trkpt lat="39.948425" lon="-0.39865667">
        <ele>679.0</ele>
        <time>2017-05-27T07:52:40.182Z</time>
      </trkpt>
      <trkpt lat="39.948425" lon="-0.39865667">
        <ele>679.0</ele>
        <time>2017-05-27T07:52:41.187Z</time>
      </trkpt>
      <trkpt lat="39.94842333" lon="-0.39870833">
        <ele>679.0</ele>
        <time>2017-05-27T07:52:42.160Z</time>
      </trkpt>
      <trkpt lat="39.94841833" lon="-0.39873333">
        <ele>679.0</ele>
        <time>2017-05-27T07:52:43.192Z</time>
      </trkpt>
      <trkpt lat="39.94841833" lon="-0.39873333">
        <ele>679.0</ele>
        <time>2017-05-27T07:52:44.158Z</time>
      </trkpt>
      <trkpt lat="39.94839833" lon="-0.39878667">
        <ele>680.0</ele>
        <time>2017-05-27T07:52:45.191Z</time>
      </trkpt>
      <trkpt lat="39.94838833" lon="-0.39881333">
        <ele>680.0</ele>
        <time>2017-05-27T07:52:46.192Z</time>
      </trkpt>
      <trkpt lat="39.94838833" lon="-0.39881333">
        <ele>680.0</ele>
        <time>2017-05-27T07:52:47.157Z</time>
      </trkpt>
      <trkpt lat="39.94838" lon="-0.398855">
        <ele>680.0</ele>
        <time>2017-05-27T07:52:48.195Z</time>
      </trkpt>
      <trkpt lat="39.94838" lon="-0.398855">
        <ele>680.0</ele>
        <time>2017-05-27T07:52:49.160Z</time>
      </trkpt>
      <trkpt lat="39.94837167" lon="-0.39889333">
        <ele>681.0</ele>
        <time>2017-05-27T07:52:50.161Z</time>
      </trkpt>
      <trkpt lat="39.94837167" lon="-0.39889333">
        <ele>681.0</ele>
        <time>2017-05-27T07:52:51.175Z</time>
      </trkpt>
      <trkpt lat="39.94836333" lon="-0.39892667">
        <ele>681.0</ele>
        <time>2017-05-27T07:52:52.164Z</time>
      </trkpt>
      <trkpt lat="39.94836333" lon="-0.39892667">
        <ele>681.0</ele>
        <time>2017-05-27T07:52:53.171Z</time>
      </trkpt>
      <trkpt lat="39.94835833" lon="-0.39896667">
        <ele>682.0</ele>
        <time>2017-05-27T07:52:54.195Z</time>
      </trkpt>
      <trkpt lat="39.94835833" lon="-0.39896667">
        <ele>682.0</ele>
        <time>2017-05-27T07:52:55.161Z</time>
      </trkpt>
      <trkpt lat="39.948345" lon="-0.39903833">
        <ele>682.0</ele>
        <time>2017-05-27T07:52:56.182Z</time>
      </trkpt>
      <trkpt lat="39.948345" lon="-0.39903833">
        <ele>682.0</ele>
        <time>2017-05-27T07:52:57.187Z</time>
      </trkpt>
      <trkpt lat="39.94834833" lon="-0.39911">
        <ele>683.0</ele>
        <time>2017-05-27T07:52:58.178Z</time>
      </trkpt>
      <trkpt lat="39.94834833" lon="-0.39911">
        <ele>683.0</ele>
        <time>2017-05-27T07:52:59.184Z</time>
      </trkpt>
      <trkpt lat="39.94833667" lon="-0.39916">
        <ele>683.0</ele>
        <time>2017-05-27T07:53:00.185Z</time>
      </trkpt>
      <trkpt lat="39.94833667" lon="-0.39916">
        <ele>683.0</ele>
        <time>2017-05-27T07:53:01.191Z</time>
      </trkpt>
      <trkpt lat="39.94831833" lon="-0.39921667">
        <ele>684.0</ele>
        <time>2017-05-27T07:53:02.193Z</time>
      </trkpt>
      <trkpt lat="39.94831833" lon="-0.39921667">
        <ele>684.0</ele>
        <time>2017-05-27T07:53:03.158Z</time>
      </trkpt>
      <trkpt lat="39.94829667" lon="-0.39926333">
        <ele>684.0</ele>
        <time>2017-05-27T07:53:04.175Z</time>
      </trkpt>
      <trkpt lat="39.94829667" lon="-0.39926333">
        <ele>684.0</ele>
        <time>2017-05-27T07:53:05.180Z</time>
      </trkpt>
      <trkpt lat="39.94826" lon="-0.399305">
        <ele>684.0</ele>
        <time>2017-05-27T07:53:06.187Z</time>
      </trkpt>
      <trkpt lat="39.94826" lon="-0.399305">
        <ele>684.0</ele>
        <time>2017-05-27T07:53:07.159Z</time>
      </trkpt>
      <trkpt lat="39.94822" lon="-0.39934333">
        <ele>684.0</ele>
        <time>2017-05-27T07:53:08.195Z</time>
      </trkpt>
      <trkpt lat="39.94822" lon="-0.39934333">
        <ele>684.0</ele>
        <time>2017-05-27T07:53:09.161Z</time>
      </trkpt>
      <trkpt lat="39.94818333" lon="-0.399375">
        <ele>684.0</ele>
        <time>2017-05-27T07:53:10.194Z</time>
      </trkpt>
      <trkpt lat="39.94816333" lon="-0.39939167">
        <ele>684.0</ele>
        <time>2017-05-27T07:53:11.159Z</time>
      </trkpt>
      <trkpt lat="39.94816333" lon="-0.39939167">
        <ele>684.0</ele>
        <time>2017-05-27T07:53:12.164Z</time>
      </trkpt>
      <trkpt lat="39.948125" lon="-0.39942833">
        <ele>684.0</ele>
        <time>2017-05-27T07:53:13.165Z</time>
      </trkpt>
      <trkpt lat="39.94810833" lon="-0.39944667">
        <ele>685.0</ele>
        <time>2017-05-27T07:53:14.192Z</time>
      </trkpt>
      <trkpt lat="39.94810833" lon="-0.39944667">
        <ele>685.0</ele>
        <time>2017-05-27T07:53:15.158Z</time>
      </trkpt>
      <trkpt lat="39.94806167" lon="-0.39947833">
        <ele>685.0</ele>
        <time>2017-05-27T07:53:16.175Z</time>
      </trkpt>
      <trkpt lat="39.94804333" lon="-0.39949333">
        <ele>685.0</ele>
        <time>2017-05-27T07:53:17.164Z</time>
      </trkpt>
      <trkpt lat="39.94804333" lon="-0.39949333">
        <ele>685.0</ele>
        <time>2017-05-27T07:53:18.170Z</time>
      </trkpt>
      <trkpt lat="39.94799667" lon="-0.39952833">
        <ele>686.0</ele>
        <time>2017-05-27T07:53:19.179Z</time>
      </trkpt>
      <trkpt lat="39.94799667" lon="-0.39952833">
        <ele>686.0</ele>
        <time>2017-05-27T07:53:20.185Z</time>
      </trkpt>
      <trkpt lat="39.94796" lon="-0.39956">
        <ele>686.0</ele>
        <time>2017-05-27T07:53:21.174Z</time>
      </trkpt>
      <trkpt lat="39.94794167" lon="-0.39957167">
        <ele>686.0</ele>
        <time>2017-05-27T07:53:22.180Z</time>
      </trkpt>
      <trkpt lat="39.94794167" lon="-0.39957167">
        <ele>686.0</ele>
        <time>2017-05-27T07:53:23.185Z</time>
      </trkpt>
      <trkpt lat="39.947905" lon="-0.39959833">
        <ele>687.0</ele>
        <time>2017-05-27T07:53:24.187Z</time>
      </trkpt>
      <trkpt lat="39.947905" lon="-0.39959833">
        <ele>687.0</ele>
        <time>2017-05-27T07:53:25.193Z</time>
      </trkpt>
      <trkpt lat="39.94787" lon="-0.39963">
        <ele>687.0</ele>
        <time>2017-05-27T07:53:26.165Z</time>
      </trkpt>
      <trkpt lat="39.94784333" lon="-0.39965167">
        <ele>687.0</ele>
        <time>2017-05-27T07:53:27.165Z</time>
      </trkpt>
      <trkpt lat="39.94781833" lon="-0.399675">
        <ele>688.0</ele>
        <time>2017-05-27T07:53:28.195Z</time>
      </trkpt>
      <trkpt lat="39.94781833" lon="-0.399675">
        <ele>688.0</ele>
        <time>2017-05-27T07:53:29.178Z</time>
      </trkpt>
      <trkpt lat="39.94777333" lon="-0.39970833">
        <ele>688.0</ele>
        <time>2017-05-27T07:53:30.172Z</time>
      </trkpt>
      <trkpt lat="39.94777333" lon="-0.39970833">
        <ele>688.0</ele>
        <time>2017-05-27T07:53:31.179Z</time>
      </trkpt>
      <trkpt lat="39.94773833" lon="-0.399745">
        <ele>688.0</ele>
        <time>2017-05-27T07:53:32.195Z</time>
      </trkpt>
      <trkpt lat="39.94772167" lon="-0.399765">
        <ele>688.0</ele>
        <time>2017-05-27T07:53:33.195Z</time>
      </trkpt>
      <trkpt lat="39.94772167" lon="-0.399765">
        <ele>688.0</ele>
        <time>2017-05-27T07:53:34.161Z</time>
      </trkpt>
      <trkpt lat="39.94768833" lon="-0.39980833">
        <ele>688.0</ele>
        <time>2017-05-27T07:53:35.157Z</time>
      </trkpt>
      <trkpt lat="39.94767333" lon="-0.399835">
        <ele>688.0</ele>
        <time>2017-05-27T07:53:36.170Z</time>
      </trkpt>
      <trkpt lat="39.94767333" lon="-0.399835">
        <ele>688.0</ele>
        <time>2017-05-27T07:53:37.177Z</time>
      </trkpt>
      <trkpt lat="39.94764833" lon="-0.39988167">
        <ele>689.0</ele>
        <time>2017-05-27T07:53:38.165Z</time>
      </trkpt>
      <trkpt lat="39.94764833" lon="-0.39988167">
        <ele>689.0</ele>
        <time>2017-05-27T07:53:39.178Z</time>
      </trkpt>
      <trkpt lat="39.947625" lon="-0.399935">
        <ele>689.0</ele>
        <time>2017-05-27T07:53:40.172Z</time>
      </trkpt>
      <trkpt lat="39.947625" lon="-0.399935">
        <ele>689.0</ele>
        <time>2017-05-27T07:53:41.177Z</time>
      </trkpt>
      <trkpt lat="39.9476" lon="-0.39998667">
        <ele>689.0</ele>
        <time>2017-05-27T07:53:42.180Z</time>
      </trkpt>
      <trkpt lat="39.9476" lon="-0.39998667">
        <ele>689.0</ele>
        <time>2017-05-27T07:53:43.186Z</time>
      </trkpt>
      <trkpt lat="39.94757833" lon="-0.40004333">
        <ele>689.0</ele>
        <time>2017-05-27T07:53:44.193Z</time>
      </trkpt>
      <trkpt lat="39.94757833" lon="-0.40004333">
        <ele>689.0</ele>
        <time>2017-05-27T07:53:45.162Z</time>
      </trkpt>
      <trkpt lat="39.947555" lon="-0.40009833">
        <ele>690.0</ele>
        <time>2017-05-27T07:53:46.163Z</time>
      </trkpt>
      <trkpt lat="39.94754167" lon="-0.40013167">
        <ele>690.0</ele>
        <time>2017-05-27T07:53:47.169Z</time>
      </trkpt>
      <trkpt lat="39.94754167" lon="-0.40013167">
        <ele>690.0</ele>
        <time>2017-05-27T07:53:48.177Z</time>
      </trkpt>
      <trkpt lat="39.94751167" lon="-0.40019333">
        <ele>690.0</ele>
        <time>2017-05-27T07:53:49.157Z</time>
      </trkpt>
      <trkpt lat="39.94751167" lon="-0.40019333">
        <ele>690.0</ele>
        <time>2017-05-27T07:53:50.160Z</time>
      </trkpt>
      <trkpt lat="39.94748167" lon="-0.40024667">
        <ele>690.0</ele>
        <time>2017-05-27T07:53:51.160Z</time>
      </trkpt>
      <trkpt lat="39.94748167" lon="-0.40024667">
        <ele>690.0</ele>
        <time>2017-05-27T07:53:52.168Z</time>
      </trkpt>
      <trkpt lat="39.947455" lon="-0.40029">
        <ele>691.0</ele>
        <time>2017-05-27T07:53:53.195Z</time>
      </trkpt>
      <trkpt lat="39.947455" lon="-0.40029">
        <ele>691.0</ele>
        <time>2017-05-27T07:53:54.165Z</time>
      </trkpt>
      <trkpt lat="39.94743" lon="-0.40034">
        <ele>691.0</ele>
        <time>2017-05-27T07:53:55.183Z</time>
      </trkpt>
      <trkpt lat="39.94742167" lon="-0.40036333">
        <ele>691.0</ele>
        <time>2017-05-27T07:53:56.180Z</time>
      </trkpt>
      <trkpt lat="39.94742167" lon="-0.40036333">
        <ele>691.0</ele>
        <time>2017-05-27T07:53:57.188Z</time>
      </trkpt>
      <trkpt lat="39.94740333" lon="-0.40042667">
        <ele>692.0</ele>
        <time>2017-05-27T07:53:58.157Z</time>
      </trkpt>
      <trkpt lat="39.94739333" lon="-0.40045667">
        <ele>692.0</ele>
        <time>2017-05-27T07:53:59.195Z</time>
      </trkpt>
      <trkpt lat="39.94739333" lon="-0.40045667">
        <ele>692.0</ele>
        <time>2017-05-27T07:54:00.161Z</time>
      </trkpt>
      <trkpt lat="39.94737167" lon="-0.40051833">
        <ele>693.0</ele>
        <time>2017-05-27T07:54:01.170Z</time>
      </trkpt>
      <trkpt lat="39.94737167" lon="-0.40051833">
        <ele>693.0</ele>
        <time>2017-05-27T07:54:02.176Z</time>
      </trkpt>
      <trkpt lat="39.94734833" lon="-0.40057">
        <ele>693.0</ele>
        <time>2017-05-27T07:54:03.178Z</time>
      </trkpt>
      <trkpt lat="39.94734833" lon="-0.40057">
        <ele>693.0</ele>
        <time>2017-05-27T07:54:04.185Z</time>
      </trkpt>
      <trkpt lat="39.947315" lon="-0.40062833">
        <ele>694.0</ele>
        <time>2017-05-27T07:54:05.195Z</time>
      </trkpt>
      <trkpt lat="39.947295" lon="-0.40065167">
        <ele>694.0</ele>
        <time>2017-05-27T07:54:06.168Z</time>
      </trkpt>
      <trkpt lat="39.947295" lon="-0.40065167">
        <ele>694.0</ele>
        <time>2017-05-27T07:54:07.175Z</time>
      </trkpt>
      <trkpt lat="39.94724333" lon="-0.40069833">
        <ele>695.0</ele>
        <time>2017-05-27T07:54:08.163Z</time>
      </trkpt>
      <trkpt lat="39.94722167" lon="-0.40072">
        <ele>695.0</ele>
        <time>2017-05-27T07:54:09.175Z</time>
      </trkpt>
      <trkpt lat="39.94722167" lon="-0.40072">
        <ele>695.0</ele>
        <time>2017-05-27T07:54:10.189Z</time>
      </trkpt>
      <trkpt lat="39.947175" lon="-0.40077">
        <ele>695.0</ele>
        <time>2017-05-27T07:54:11.186Z</time>
      </trkpt>
      <trkpt lat="39.947175" lon="-0.40077">
        <ele>695.0</ele>
        <time>2017-05-27T07:54:12.160Z</time>
      </trkpt>
      <trkpt lat="39.947135" lon="-0.40082333">
        <ele>696.0</ele>
        <time>2017-05-27T07:54:13.173Z</time>
      </trkpt>
      <trkpt lat="39.94711667" lon="-0.40084667">
        <ele>696.0</ele>
        <time>2017-05-27T07:54:14.166Z</time>
      </trkpt>
      <trkpt lat="39.94711667" lon="-0.40084667">
        <ele>696.0</ele>
        <time>2017-05-27T07:54:15.171Z</time>
      </trkpt>
      <trkpt lat="39.94708" lon="-0.40087833">
        <ele>696.0</ele>
        <time>2017-05-27T07:54:16.171Z</time>
      </trkpt>
      <trkpt lat="39.94708" lon="-0.40087833">
        <ele>696.0</ele>
        <time>2017-05-27T07:54:17.178Z</time>
      </trkpt>
      <trkpt lat="39.94703833" lon="-0.40092833">
        <ele>697.0</ele>
        <time>2017-05-27T07:54:18.195Z</time>
      </trkpt>
      <trkpt lat="39.94703833" lon="-0.40092833">
        <ele>697.0</ele>
        <time>2017-05-27T07:54:19.161Z</time>
      </trkpt>
      <trkpt lat="39.94699833" lon="-0.40097833">
        <ele>697.0</ele>
        <time>2017-05-27T07:54:20.164Z</time>
      </trkpt>
      <trkpt lat="39.94699833" lon="-0.40097833">
        <ele>697.0</ele>
        <time>2017-05-27T07:54:21.170Z</time>
      </trkpt>
      <trkpt lat="39.94695167" lon="-0.40103167">
        <ele>697.0</ele>
        <time>2017-05-27T07:54:22.175Z</time>
      </trkpt>
      <trkpt lat="39.946925" lon="-0.40106">
        <ele>697.0</ele>
        <time>2017-05-27T07:54:23.180Z</time>
      </trkpt>
      <trkpt lat="39.946925" lon="-0.40106">
        <ele>697.0</ele>
        <time>2017-05-27T07:54:24.187Z</time>
      </trkpt>
      <trkpt lat="39.94688667" lon="-0.40110833">
        <ele>697.0</ele>
        <time>2017-05-27T07:54:25.175Z</time>
      </trkpt>
      <trkpt lat="39.94688667" lon="-0.40110833">
        <ele>697.0</ele>
        <time>2017-05-27T07:54:26.180Z</time>
      </trkpt>
      <trkpt lat="39.94686" lon="-0.40116">
        <ele>698.0</ele>
        <time>2017-05-27T07:54:27.184Z</time>
      </trkpt>
      <trkpt lat="39.94686" lon="-0.40116">
        <ele>698.0</ele>
        <time>2017-05-27T07:54:28.189Z</time>
      </trkpt>
      <trkpt lat="39.94682333" lon="-0.40121833">
        <ele>698.0</ele>
        <time>2017-05-27T07:54:29.191Z</time>
      </trkpt>
      <trkpt lat="39.94682333" lon="-0.40121833">
        <ele>698.0</ele>
        <time>2017-05-27T07:54:30.158Z</time>
      </trkpt>
      <trkpt lat="39.946785" lon="-0.40128333">
        <ele>698.0</ele>
        <time>2017-05-27T07:54:31.185Z</time>
      </trkpt>
      <trkpt lat="39.946785" lon="-0.40128333">
        <ele>698.0</ele>
        <time>2017-05-27T07:54:32.191Z</time>
      </trkpt>
      <trkpt lat="39.94673667" lon="-0.40134833">
        <ele>698.0</ele>
        <time>2017-05-27T07:54:33.239Z</time>
      </trkpt>
      <trkpt lat="39.94673667" lon="-0.40134833">
        <ele>698.0</ele>
        <time>2017-05-27T07:54:34.168Z</time>
      </trkpt>
      <trkpt lat="39.94668833" lon="-0.40140667">
        <ele>698.0</ele>
        <time>2017-05-27T07:54:35.175Z</time>
      </trkpt>
      <trkpt lat="39.94668833" lon="-0.40140667">
        <ele>698.0</ele>
        <time>2017-05-27T07:54:36.186Z</time>
      </trkpt>
      <trkpt lat="39.94664667" lon="-0.40147">
        <ele>698.0</ele>
        <time>2017-05-27T07:54:37.195Z</time>
      </trkpt>
      <trkpt lat="39.94664667" lon="-0.40147">
        <ele>698.0</ele>
        <time>2017-05-27T07:54:38.161Z</time>
      </trkpt>
      <trkpt lat="39.94659" lon="-0.401535">
        <ele>698.0</ele>
        <time>2017-05-27T07:54:39.194Z</time>
      </trkpt>
      <trkpt lat="39.94656667" lon="-0.40156167">
        <ele>698.0</ele>
        <time>2017-05-27T07:54:40.192Z</time>
      </trkpt>
      <trkpt lat="39.94653667" lon="-0.40158333">
        <ele>698.0</ele>
        <time>2017-05-27T07:54:41.191Z</time>
      </trkpt>
      <trkpt lat="39.94653667" lon="-0.40158333">
        <ele>698.0</ele>
        <time>2017-05-27T07:54:42.160Z</time>
      </trkpt>
      <trkpt lat="39.94648667" lon="-0.40161333">
        <ele>698.0</ele>
        <time>2017-05-27T07:54:43.159Z</time>
      </trkpt>
      <trkpt lat="39.94646667" lon="-0.40162333">
        <ele>698.0</ele>
        <time>2017-05-27T07:54:44.165Z</time>
      </trkpt>
      <trkpt lat="39.94646667" lon="-0.40162333">
        <ele>698.0</ele>
        <time>2017-05-27T07:54:45.180Z</time>
      </trkpt>
      <trkpt lat="39.94642" lon="-0.40164833">
        <ele>698.0</ele>
        <time>2017-05-27T07:54:46.192Z</time>
      </trkpt>
      <trkpt lat="39.94639667" lon="-0.40166167">
        <ele>698.0</ele>
        <time>2017-05-27T07:54:47.183Z</time>
      </trkpt>
      <trkpt lat="39.94639667" lon="-0.40166167">
        <ele>698.0</ele>
        <time>2017-05-27T07:54:48.189Z</time>
      </trkpt>
      <trkpt lat="39.94634333" lon="-0.40169167">
        <ele>698.0</ele>
        <time>2017-05-27T07:54:49.175Z</time>
      </trkpt>
      <trkpt lat="39.94631833" lon="-0.40169667">
        <ele>698.0</ele>
        <time>2017-05-27T07:54:50.185Z</time>
      </trkpt>
      <trkpt lat="39.94631833" lon="-0.40169667">
        <ele>698.0</ele>
        <time>2017-05-27T07:54:51.160Z</time>
      </trkpt>
      <trkpt lat="39.946265" lon="-0.40171333">
        <ele>699.0</ele>
        <time>2017-05-27T07:54:52.195Z</time>
      </trkpt>
      <trkpt lat="39.94623" lon="-0.401735">
        <ele>699.0</ele>
        <time>2017-05-27T07:54:53.195Z</time>
      </trkpt>
      <trkpt lat="39.94623" lon="-0.401735">
        <ele>699.0</ele>
        <time>2017-05-27T07:54:54.160Z</time>
      </trkpt>
      <trkpt lat="39.94617333" lon="-0.40177333">
        <ele>699.0</ele>
        <time>2017-05-27T07:54:55.165Z</time>
      </trkpt>
      <trkpt lat="39.94617333" lon="-0.40177333">
        <ele>699.0</ele>
        <time>2017-05-27T07:54:56.170Z</time>
      </trkpt>
      <trkpt lat="39.94611333" lon="-0.40181167">
        <ele>699.0</ele>
        <time>2017-05-27T07:54:57.166Z</time>
      </trkpt>
      <trkpt lat="39.94608833" lon="-0.40183167">
        <ele>699.0</ele>
        <time>2017-05-27T07:54:58.181Z</time>
      </trkpt>
      <trkpt lat="39.94608833" lon="-0.40183167">
        <ele>699.0</ele>
        <time>2017-05-27T07:54:59.187Z</time>
      </trkpt>
      <trkpt lat="39.94603333" lon="-0.40187667">
        <ele>700.0</ele>
        <time>2017-05-27T07:55:00.188Z</time>
      </trkpt>
      <trkpt lat="39.94603333" lon="-0.40187667">
        <ele>700.0</ele>
        <time>2017-05-27T07:55:01.157Z</time>
      </trkpt>
      <trkpt lat="39.94600833" lon="-0.40192667">
        <ele>700.0</ele>
        <time>2017-05-27T07:55:02.188Z</time>
      </trkpt>
      <trkpt lat="39.94600833" lon="-0.40192667">
        <ele>700.0</ele>
        <time>2017-05-27T07:55:03.158Z</time>
      </trkpt>
      <trkpt lat="39.94600833" lon="-0.40199">
        <ele>701.0</ele>
        <time>2017-05-27T07:55:04.192Z</time>
      </trkpt>
      <trkpt lat="39.946" lon="-0.40202">
        <ele>701.0</ele>
        <time>2017-05-27T07:55:05.194Z</time>
      </trkpt>
      <trkpt lat="39.946" lon="-0.40202">
        <ele>701.0</ele>
        <time>2017-05-27T07:55:06.160Z</time>
      </trkpt>
      <trkpt lat="39.945975" lon="-0.40208167">
        <ele>702.0</ele>
        <time>2017-05-27T07:55:07.164Z</time>
      </trkpt>
      <trkpt lat="39.945975" lon="-0.40208167">
        <ele>702.0</ele>
        <time>2017-05-27T07:55:08.170Z</time>
      </trkpt>
      <trkpt lat="39.94595667" lon="-0.402125">
        <ele>702.0</ele>
        <time>2017-05-27T07:55:09.172Z</time>
      </trkpt>
      <trkpt lat="39.94595667" lon="-0.402125">
        <ele>702.0</ele>
        <time>2017-05-27T07:55:10.177Z</time>
      </trkpt>
      <trkpt lat="39.94592667" lon="-0.40217">
        <ele>703.0</ele>
        <time>2017-05-27T07:55:11.177Z</time>
      </trkpt>
      <trkpt lat="39.94592667" lon="-0.40217">
        <ele>703.0</ele>
        <time>2017-05-27T07:55:12.182Z</time>
      </trkpt>
      <trkpt lat="39.9459" lon="-0.40222">
        <ele>703.0</ele>
        <time>2017-05-27T07:55:13.190Z</time>
      </trkpt>
      <trkpt lat="39.9459" lon="-0.40222">
        <ele>703.0</ele>
        <time>2017-05-27T07:55:14.162Z</time>
      </trkpt>
      <trkpt lat="39.94587833" lon="-0.40226">
        <ele>704.0</ele>
        <time>2017-05-27T07:55:15.179Z</time>
      </trkpt>
      <trkpt lat="39.945875" lon="-0.40228">
        <ele>704.0</ele>
        <time>2017-05-27T07:55:16.175Z</time>
      </trkpt>
      <trkpt lat="39.94587" lon="-0.402305">
        <ele>704.0</ele>
        <time>2017-05-27T07:55:17.162Z</time>
      </trkpt>
      <trkpt lat="39.94586167" lon="-0.40232667">
        <ele>705.0</ele>
        <time>2017-05-27T07:55:18.170Z</time>
      </trkpt>
      <trkpt lat="39.94586167" lon="-0.40232667">
        <ele>705.0</ele>
        <time>2017-05-27T07:55:19.177Z</time>
      </trkpt>
      <trkpt lat="39.94584667" lon="-0.40236333">
        <ele>705.0</ele>
        <time>2017-05-27T07:55:20.176Z</time>
      </trkpt>
      <trkpt lat="39.94583833" lon="-0.40238">
        <ele>705.0</ele>
        <time>2017-05-27T07:55:21.175Z</time>
      </trkpt>
      <trkpt lat="39.94583833" lon="-0.40238">
        <ele>705.0</ele>
        <time>2017-05-27T07:55:22.189Z</time>
      </trkpt>
      <trkpt lat="39.94581167" lon="-0.40241">
        <ele>706.0</ele>
        <time>2017-05-27T07:55:23.158Z</time>
      </trkpt>
      <trkpt lat="39.94581167" lon="-0.40241">
        <ele>706.0</ele>
        <time>2017-05-27T07:55:24.164Z</time>
      </trkpt>
      <trkpt lat="39.94578" lon="-0.40244667">
        <ele>706.0</ele>
        <time>2017-05-27T07:55:25.183Z</time>
      </trkpt>
      <trkpt lat="39.94578" lon="-0.40244667">
        <ele>706.0</ele>
        <time>2017-05-27T07:55:26.189Z</time>
      </trkpt>
      <trkpt lat="39.94574" lon="-0.402495">
        <ele>706.0</ele>
        <time>2017-05-27T07:55:27.182Z</time>
      </trkpt>
      <trkpt lat="39.94574" lon="-0.402495">
        <ele>706.0</ele>
        <time>2017-05-27T07:55:28.188Z</time>
      </trkpt>
      <trkpt lat="39.9457" lon="-0.40255333">
        <ele>706.0</ele>
        <time>2017-05-27T07:55:29.158Z</time>
      </trkpt>
      <trkpt lat="39.9457" lon="-0.40255333">
        <ele>706.0</ele>
        <time>2017-05-27T07:55:30.169Z</time>
      </trkpt>
      <trkpt lat="39.945655" lon="-0.40263167">
        <ele>707.0</ele>
        <time>2017-05-27T07:55:31.173Z</time>
      </trkpt>
      <trkpt lat="39.945655" lon="-0.40263167">
        <ele>707.0</ele>
        <time>2017-05-27T07:55:32.178Z</time>
      </trkpt>
      <trkpt lat="39.94561833" lon="-0.40268667">
        <ele>707.0</ele>
        <time>2017-05-27T07:55:33.164Z</time>
      </trkpt>
      <trkpt lat="39.94561833" lon="-0.40268667">
        <ele>707.0</ele>
        <time>2017-05-27T07:55:34.184Z</time>
      </trkpt>
      <trkpt lat="39.94558333" lon="-0.40272167">
        <ele>707.0</ele>
        <time>2017-05-27T07:55:35.165Z</time>
      </trkpt>
      <trkpt lat="39.94558333" lon="-0.40272167">
        <ele>707.0</ele>
        <time>2017-05-27T07:55:36.174Z</time>
      </trkpt>
      <trkpt lat="39.94554333" lon="-0.40277833">
        <ele>707.0</ele>
        <time>2017-05-27T07:55:37.188Z</time>
      </trkpt>
      <trkpt lat="39.94554333" lon="-0.40277833">
        <ele>707.0</ele>
        <time>2017-05-27T07:55:38.161Z</time>
      </trkpt>
      <trkpt lat="39.94552167" lon="-0.402835">
        <ele>708.0</ele>
        <time>2017-05-27T07:55:39.168Z</time>
      </trkpt>
      <trkpt lat="39.94552167" lon="-0.402835">
        <ele>708.0</ele>
        <time>2017-05-27T07:55:40.174Z</time>
      </trkpt>
      <trkpt lat="39.94549167" lon="-0.402875">
        <ele>708.0</ele>
        <time>2017-05-27T07:55:41.165Z</time>
      </trkpt>
      <trkpt lat="39.94549167" lon="-0.402875">
        <ele>708.0</ele>
        <time>2017-05-27T07:55:42.170Z</time>
      </trkpt>
      <trkpt lat="39.945455" lon="-0.40290667">
        <ele>708.0</ele>
        <time>2017-05-27T07:55:43.185Z</time>
      </trkpt>
      <trkpt lat="39.94544" lon="-0.40292167">
        <ele>708.0</ele>
        <time>2017-05-27T07:55:44.195Z</time>
      </trkpt>
      <trkpt lat="39.94544" lon="-0.40292167">
        <ele>708.0</ele>
        <time>2017-05-27T07:55:45.162Z</time>
      </trkpt>
      <trkpt lat="39.94540667" lon="-0.40295833">
        <ele>709.0</ele>
        <time>2017-05-27T07:55:46.194Z</time>
      </trkpt>
      <trkpt lat="39.94540667" lon="-0.40295833">
        <ele>709.0</ele>
        <time>2017-05-27T07:55:47.160Z</time>
      </trkpt>
      <trkpt lat="39.94536833" lon="-0.40299833">
        <ele>710.0</ele>
        <time>2017-05-27T07:55:48.192Z</time>
      </trkpt>
      <trkpt lat="39.94536833" lon="-0.40299833">
        <ele>710.0</ele>
        <time>2017-05-27T07:55:49.159Z</time>
      </trkpt>
      <trkpt lat="39.94532667" lon="-0.40303333">
        <ele>710.0</ele>
        <time>2017-05-27T07:55:50.195Z</time>
      </trkpt>
      <trkpt lat="39.94532667" lon="-0.40303333">
        <ele>710.0</ele>
        <time>2017-05-27T07:55:51.160Z</time>
      </trkpt>
      <trkpt lat="39.94528167" lon="-0.40306667">
        <ele>710.0</ele>
        <time>2017-05-27T07:55:52.165Z</time>
      </trkpt>
      <trkpt lat="39.94526167" lon="-0.40308667">
        <ele>710.0</ele>
        <time>2017-05-27T07:55:53.182Z</time>
      </trkpt>
      <trkpt lat="39.94524" lon="-0.4031">
        <ele>710.0</ele>
        <time>2017-05-27T07:55:54.187Z</time>
      </trkpt>
      <trkpt lat="39.94524" lon="-0.4031">
        <ele>710.0</ele>
        <time>2017-05-27T07:55:55.159Z</time>
      </trkpt>
      <trkpt lat="39.94520833" lon="-0.40314">
        <ele>710.0</ele>
        <time>2017-05-27T07:55:56.161Z</time>
      </trkpt>
      <trkpt lat="39.94520833" lon="-0.40314">
        <ele>710.0</ele>
        <time>2017-05-27T07:55:57.166Z</time>
      </trkpt>
      <trkpt lat="39.94517167" lon="-0.403175">
        <ele>711.0</ele>
        <time>2017-05-27T07:55:58.169Z</time>
      </trkpt>
      <trkpt lat="39.94515" lon="-0.40318333">
        <ele>711.0</ele>
        <time>2017-05-27T07:55:59.195Z</time>
      </trkpt>
      <trkpt lat="39.94515" lon="-0.40318333">
        <ele>711.0</ele>
        <time>2017-05-27T07:56:00.161Z</time>
      </trkpt>
      <trkpt lat="39.94510667" lon="-0.40321">
        <ele>711.0</ele>
        <time>2017-05-27T07:56:01.158Z</time>
      </trkpt>
      <trkpt lat="39.945085" lon="-0.40323333">
        <ele>711.0</ele>
        <time>2017-05-27T07:56:02.163Z</time>
      </trkpt>
      <trkpt lat="39.94505833" lon="-0.40324333">
        <ele>711.0</ele>
        <time>2017-05-27T07:56:03.195Z</time>
      </trkpt>
      <trkpt lat="39.94505833" lon="-0.40324333">
        <ele>711.0</ele>
        <time>2017-05-27T07:56:04.160Z</time>
      </trkpt>
      <trkpt lat="39.94500667" lon="-0.40327333">
        <ele>711.0</ele>
        <time>2017-05-27T07:56:05.185Z</time>
      </trkpt>
      <trkpt lat="39.94498" lon="-0.40328">
        <ele>712.0</ele>
        <time>2017-05-27T07:56:06.191Z</time>
      </trkpt>
      <trkpt lat="39.94498" lon="-0.40328">
        <ele>712.0</ele>
        <time>2017-05-27T07:56:07.159Z</time>
      </trkpt>
      <trkpt lat="39.94492333" lon="-0.403305">
        <ele>712.0</ele>
        <time>2017-05-27T07:56:08.195Z</time>
      </trkpt>
      <trkpt lat="39.94492333" lon="-0.403305">
        <ele>712.0</ele>
        <time>2017-05-27T07:56:09.161Z</time>
      </trkpt>
      <trkpt lat="39.94487333" lon="-0.40333">
        <ele>712.0</ele>
        <time>2017-05-27T07:56:10.164Z</time>
      </trkpt>
      <trkpt lat="39.94484833" lon="-0.403345">
        <ele>712.0</ele>
        <time>2017-05-27T07:56:11.183Z</time>
      </trkpt>
      <trkpt lat="39.94484833" lon="-0.403345">
        <ele>712.0</ele>
        <time>2017-05-27T07:56:12.188Z</time>
      </trkpt>
      <trkpt lat="39.94480667" lon="-0.40337167">
        <ele>712.0</ele>
        <time>2017-05-27T07:56:13.164Z</time>
      </trkpt>
      <trkpt lat="39.94478667" lon="-0.40338667">
        <ele>712.0</ele>
        <time>2017-05-27T07:56:14.195Z</time>
      </trkpt>
      <trkpt lat="39.94478667" lon="-0.40338667">
        <ele>712.0</ele>
        <time>2017-05-27T07:56:15.160Z</time>
      </trkpt>
      <trkpt lat="39.94475833" lon="-0.40343333">
        <ele>712.0</ele>
        <time>2017-05-27T07:56:16.157Z</time>
      </trkpt>
      <trkpt lat="39.94474833" lon="-0.403455">
        <ele>713.0</ele>
        <time>2017-05-27T07:56:17.193Z</time>
      </trkpt>
      <trkpt lat="39.94474833" lon="-0.403455">
        <ele>713.0</ele>
        <time>2017-05-27T07:56:18.161Z</time>
      </trkpt>
      <trkpt lat="39.94474167" lon="-0.40349833">
        <ele>713.0</ele>
        <time>2017-05-27T07:56:19.168Z</time>
      </trkpt>
      <trkpt lat="39.94474333" lon="-0.40352">
        <ele>713.0</ele>
        <time>2017-05-27T07:56:20.192Z</time>
      </trkpt>
      <trkpt lat="39.94474" lon="-0.40354">
        <ele>713.0</ele>
        <time>2017-05-27T07:56:21.195Z</time>
      </trkpt>
      <trkpt lat="39.94474" lon="-0.40354">
        <ele>713.0</ele>
        <time>2017-05-27T07:56:22.160Z</time>
      </trkpt>
      <trkpt lat="39.94473167" lon="-0.403595">
        <ele>714.0</ele>
        <time>2017-05-27T07:56:23.173Z</time>
      </trkpt>
      <trkpt lat="39.94473167" lon="-0.403595">
        <ele>714.0</ele>
        <time>2017-05-27T07:56:24.179Z</time>
      </trkpt>
      <trkpt lat="39.94473" lon="-0.40365667">
        <ele>714.0</ele>
        <time>2017-05-27T07:56:25.163Z</time>
      </trkpt>
      <trkpt lat="39.94473" lon="-0.40365667">
        <ele>714.0</ele>
        <time>2017-05-27T07:56:26.169Z</time>
      </trkpt>
      <trkpt lat="39.944725" lon="-0.40371">
        <ele>714.0</ele>
        <time>2017-05-27T07:56:27.193Z</time>
      </trkpt>
      <trkpt lat="39.94473333" lon="-0.40373667">
        <ele>715.0</ele>
        <time>2017-05-27T07:56:28.185Z</time>
      </trkpt>
      <trkpt lat="39.94473333" lon="-0.40373667">
        <ele>715.0</ele>
        <time>2017-05-27T07:56:29.190Z</time>
      </trkpt>
      <trkpt lat="39.94473667" lon="-0.40379167">
        <ele>715.0</ele>
        <time>2017-05-27T07:56:30.195Z</time>
      </trkpt>
      <trkpt lat="39.94473667" lon="-0.40379167">
        <ele>715.0</ele>
        <time>2017-05-27T07:56:31.160Z</time>
      </trkpt>
      <trkpt lat="39.94473" lon="-0.40384667">
        <ele>715.0</ele>
        <time>2017-05-27T07:56:32.175Z</time>
      </trkpt>
      <trkpt lat="39.94473667" lon="-0.403875">
        <ele>715.0</ele>
        <time>2017-05-27T07:56:33.195Z</time>
      </trkpt>
      <trkpt lat="39.94473667" lon="-0.403875">
        <ele>715.0</ele>
        <time>2017-05-27T07:56:34.160Z</time>
      </trkpt>
      <trkpt lat="39.944715" lon="-0.40392">
        <ele>716.0</ele>
        <time>2017-05-27T07:56:35.193Z</time>
      </trkpt>
      <trkpt lat="39.944715" lon="-0.40392">
        <ele>716.0</ele>
        <time>2017-05-27T07:56:36.161Z</time>
      </trkpt>
      <trkpt lat="39.94469667" lon="-0.40396833">
        <ele>716.0</ele>
        <time>2017-05-27T07:56:37.197Z</time>
      </trkpt>
      <trkpt lat="39.944695" lon="-0.40399167">
        <ele>716.0</ele>
        <time>2017-05-27T07:56:38.175Z</time>
      </trkpt>
      <trkpt lat="39.94469167" lon="-0.40401667">
        <ele>716.0</ele>
        <time>2017-05-27T07:56:39.195Z</time>
      </trkpt>
      <trkpt lat="39.94469167" lon="-0.40401667">
        <ele>716.0</ele>
        <time>2017-05-27T07:56:40.160Z</time>
      </trkpt>
      <trkpt lat="39.944675" lon="-0.40406333">
        <ele>717.0</ele>
        <time>2017-05-27T07:56:41.165Z</time>
      </trkpt>
      <trkpt lat="39.944675" lon="-0.40406333">
        <ele>717.0</ele>
        <time>2017-05-27T07:56:42.174Z</time>
      </trkpt>
      <trkpt lat="39.94466167" lon="-0.4041">
        <ele>717.0</ele>
        <time>2017-05-27T07:56:43.181Z</time>
      </trkpt>
      <trkpt lat="39.94465167" lon="-0.40411833">
        <ele>717.0</ele>
        <time>2017-05-27T07:56:44.185Z</time>
      </trkpt>
      <trkpt lat="39.94465167" lon="-0.40411833">
        <ele>717.0</ele>
        <time>2017-05-27T07:56:45.191Z</time>
      </trkpt>
      <trkpt lat="39.94463333" lon="-0.40415333">
        <ele>717.0</ele>
        <time>2017-05-27T07:56:46.194Z</time>
      </trkpt>
      <trkpt lat="39.94462833" lon="-0.40416833">
        <ele>718.0</ele>
        <time>2017-05-27T07:56:47.175Z</time>
      </trkpt>
      <trkpt lat="39.94462833" lon="-0.40416833">
        <ele>718.0</ele>
        <time>2017-05-27T07:56:48.180Z</time>
      </trkpt>
      <trkpt lat="39.94461833" lon="-0.40419667">
        <ele>718.0</ele>
        <time>2017-05-27T07:56:49.189Z</time>
      </trkpt>
      <trkpt lat="39.94461" lon="-0.404215">
        <ele>718.0</ele>
        <time>2017-05-27T07:56:50.185Z</time>
      </trkpt>
      <trkpt lat="39.94461" lon="-0.404215">
        <ele>718.0</ele>
        <time>2017-05-27T07:56:51.191Z</time>
      </trkpt>
      <trkpt lat="39.94458333" lon="-0.40425">
        <ele>719.0</ele>
        <time>2017-05-27T07:56:52.179Z</time>
      </trkpt>
      <trkpt lat="39.94456833" lon="-0.40426167">
        <ele>719.0</ele>
        <time>2017-05-27T07:56:53.185Z</time>
      </trkpt>
      <trkpt lat="39.94456833" lon="-0.40426167">
        <ele>719.0</ele>
        <time>2017-05-27T07:56:54.190Z</time>
      </trkpt>
      <trkpt lat="39.944545" lon="-0.40429667">
        <ele>720.0</ele>
        <time>2017-05-27T07:56:55.179Z</time>
      </trkpt>
      <trkpt lat="39.944545" lon="-0.40429667">
        <ele>720.0</ele>
        <time>2017-05-27T07:56:56.158Z</time>
      </trkpt>
      <trkpt lat="39.94452" lon="-0.40433">
        <ele>720.0</ele>
        <time>2017-05-27T07:56:57.168Z</time>
      </trkpt>
      <trkpt lat="39.94452" lon="-0.40433">
        <ele>720.0</ele>
        <time>2017-05-27T07:56:58.173Z</time>
      </trkpt>
      <trkpt lat="39.94449333" lon="-0.40436167">
        <ele>720.0</ele>
        <time>2017-05-27T07:56:59.181Z</time>
      </trkpt>
      <trkpt lat="39.94449333" lon="-0.40436167">
        <ele>720.0</ele>
        <time>2017-05-27T07:57:00.187Z</time>
      </trkpt>
      <trkpt lat="39.94446667" lon="-0.40438833">
        <ele>721.0</ele>
        <time>2017-05-27T07:57:01.160Z</time>
      </trkpt>
      <trkpt lat="39.94445" lon="-0.40440167">
        <ele>721.0</ele>
        <time>2017-05-27T07:57:02.167Z</time>
      </trkpt>
      <trkpt lat="39.94445" lon="-0.40440167">
        <ele>721.0</ele>
        <time>2017-05-27T07:57:03.173Z</time>
      </trkpt>
      <trkpt lat="39.94441333" lon="-0.40442167">
        <ele>722.0</ele>
        <time>2017-05-27T07:57:04.160Z</time>
      </trkpt>
      <trkpt lat="39.94439333" lon="-0.40443833">
        <ele>722.0</ele>
        <time>2017-05-27T07:57:05.163Z</time>
      </trkpt>
      <trkpt lat="39.94439333" lon="-0.40443833">
        <ele>722.0</ele>
        <time>2017-05-27T07:57:06.168Z</time>
      </trkpt>
      <trkpt lat="39.94435667" lon="-0.40446833">
        <ele>722.0</ele>
        <time>2017-05-27T07:57:07.156Z</time>
      </trkpt>
      <trkpt lat="39.944335" lon="-0.40447833">
        <ele>722.0</ele>
        <time>2017-05-27T07:57:08.190Z</time>
      </trkpt>
      <trkpt lat="39.944335" lon="-0.40447833">
        <ele>722.0</ele>
        <time>2017-05-27T07:57:09.160Z</time>
      </trkpt>
      <trkpt lat="39.9443" lon="-0.40450167">
        <ele>723.0</ele>
        <time>2017-05-27T07:57:10.162Z</time>
      </trkpt>
      <trkpt lat="39.9443" lon="-0.40450167">
        <ele>723.0</ele>
        <time>2017-05-27T07:57:11.170Z</time>
      </trkpt>
      <trkpt lat="39.94425833" lon="-0.40451833">
        <ele>724.0</ele>
        <time>2017-05-27T07:57:12.195Z</time>
      </trkpt>
      <trkpt lat="39.94425833" lon="-0.40451833">
        <ele>724.0</ele>
        <time>2017-05-27T07:57:13.169Z</time>
      </trkpt>
      <trkpt lat="39.94422333" lon="-0.40453833">
        <ele>724.0</ele>
        <time>2017-05-27T07:57:14.165Z</time>
      </trkpt>
      <trkpt lat="39.94420833" lon="-0.40454667">
        <ele>725.0</ele>
        <time>2017-05-27T07:57:15.162Z</time>
      </trkpt>
      <trkpt lat="39.94420833" lon="-0.40454667">
        <ele>725.0</ele>
        <time>2017-05-27T07:57:16.173Z</time>
      </trkpt>
      <trkpt lat="39.944175" lon="-0.40455667">
        <ele>725.0</ele>
        <time>2017-05-27T07:57:17.185Z</time>
      </trkpt>
      <trkpt lat="39.944175" lon="-0.40455667">
        <ele>725.0</ele>
        <time>2017-05-27T07:57:18.164Z</time>
      </trkpt>
      <trkpt lat="39.94414167" lon="-0.40456333">
        <ele>726.0</ele>
        <time>2017-05-27T07:57:19.165Z</time>
      </trkpt>
      <trkpt lat="39.94412667" lon="-0.40457167">
        <ele>726.0</ele>
        <time>2017-05-27T07:57:20.165Z</time>
      </trkpt>
      <trkpt lat="39.94412667" lon="-0.40457167">
        <ele>726.0</ele>
        <time>2017-05-27T07:57:21.171Z</time>
      </trkpt>
      <trkpt lat="39.94409" lon="-0.40458333">
        <ele>726.0</ele>
        <time>2017-05-27T07:57:22.169Z</time>
      </trkpt>
      <trkpt lat="39.94407333" lon="-0.40459333">
        <ele>727.0</ele>
        <time>2017-05-27T07:57:23.175Z</time>
      </trkpt>
      <trkpt lat="39.94407333" lon="-0.40459333">
        <ele>727.0</ele>
        <time>2017-05-27T07:57:24.180Z</time>
      </trkpt>
      <trkpt lat="39.94404167" lon="-0.40461167">
        <ele>727.0</ele>
        <time>2017-05-27T07:57:25.166Z</time>
      </trkpt>
      <trkpt lat="39.94403" lon="-0.40462333">
        <ele>727.0</ele>
        <time>2017-05-27T07:57:26.175Z</time>
      </trkpt>
      <trkpt lat="39.94403" lon="-0.40462333">
        <ele>727.0</ele>
        <time>2017-05-27T07:57:27.180Z</time>
      </trkpt>
      <trkpt lat="39.94400167" lon="-0.404645">
        <ele>727.0</ele>
        <time>2017-05-27T07:57:28.166Z</time>
      </trkpt>
      <trkpt lat="39.94398667" lon="-0.40465333">
        <ele>728.0</ele>
        <time>2017-05-27T07:57:29.195Z</time>
      </trkpt>
      <trkpt lat="39.94398667" lon="-0.40465333">
        <ele>728.0</ele>
        <time>2017-05-27T07:57:30.160Z</time>
      </trkpt>
      <trkpt lat="39.94395" lon="-0.40467167">
        <ele>728.0</ele>
        <time>2017-05-27T07:57:31.160Z</time>
      </trkpt>
      <trkpt lat="39.94395" lon="-0.40467167">
        <ele>728.0</ele>
        <time>2017-05-27T07:57:32.172Z</time>
      </trkpt>
      <trkpt lat="39.94391" lon="-0.40468333">
        <ele>729.0</ele>
        <time>2017-05-27T07:57:33.164Z</time>
      </trkpt>
      <trkpt lat="39.94391" lon="-0.40468333">
        <ele>729.0</ele>
        <time>2017-05-27T07:57:34.178Z</time>
      </trkpt>
      <trkpt lat="39.94387333" lon="-0.404695">
        <ele>729.0</ele>
        <time>2017-05-27T07:57:35.165Z</time>
      </trkpt>
      <trkpt lat="39.94387333" lon="-0.404695">
        <ele>729.0</ele>
        <time>2017-05-27T07:57:36.175Z</time>
      </trkpt>
      <trkpt lat="39.94383333" lon="-0.40470833">
        <ele>730.0</ele>
        <time>2017-05-27T07:57:37.171Z</time>
      </trkpt>
      <trkpt lat="39.94382167" lon="-0.40471667">
        <ele>730.0</ele>
        <time>2017-05-27T07:57:38.165Z</time>
      </trkpt>
      <trkpt lat="39.94380667" lon="-0.40472333">
        <ele>730.0</ele>
        <time>2017-05-27T07:57:39.168Z</time>
      </trkpt>
      <trkpt lat="39.94380667" lon="-0.40472333">
        <ele>730.0</ele>
        <time>2017-05-27T07:57:40.173Z</time>
      </trkpt>
      <trkpt lat="39.94376833" lon="-0.40472167">
        <ele>731.0</ele>
        <time>2017-05-27T07:57:41.176Z</time>
      </trkpt>
      <trkpt lat="39.94376833" lon="-0.40472167">
        <ele>731.0</ele>
        <time>2017-05-27T07:57:42.181Z</time>
      </trkpt>
      <trkpt lat="39.943735" lon="-0.40471833">
        <ele>731.0</ele>
        <time>2017-05-27T07:57:43.178Z</time>
      </trkpt>
      <trkpt lat="39.943735" lon="-0.40471833">
        <ele>731.0</ele>
        <time>2017-05-27T07:57:44.183Z</time>
      </trkpt>
      <trkpt lat="39.9437" lon="-0.40472333">
        <ele>732.0</ele>
        <time>2017-05-27T07:57:45.184Z</time>
      </trkpt>
      <trkpt lat="39.9437" lon="-0.40472333">
        <ele>732.0</ele>
        <time>2017-05-27T07:57:46.190Z</time>
      </trkpt>
      <trkpt lat="39.94366833" lon="-0.40472167">
        <ele>732.0</ele>
        <time>2017-05-27T07:57:47.185Z</time>
      </trkpt>
      <trkpt lat="39.94366833" lon="-0.40472167">
        <ele>732.0</ele>
        <time>2017-05-27T07:57:48.190Z</time>
      </trkpt>
      <trkpt lat="39.94363667" lon="-0.40472">
        <ele>733.0</ele>
        <time>2017-05-27T07:57:49.195Z</time>
      </trkpt>
      <trkpt lat="39.94363667" lon="-0.40472">
        <ele>733.0</ele>
        <time>2017-05-27T07:57:50.161Z</time>
      </trkpt>
      <trkpt lat="39.94359667" lon="-0.40471333">
        <ele>733.0</ele>
        <time>2017-05-27T07:57:51.160Z</time>
      </trkpt>
      <trkpt lat="39.94359667" lon="-0.40471333">
        <ele>733.0</ele>
        <time>2017-05-27T07:57:52.165Z</time>
      </trkpt>
      <trkpt lat="39.943565" lon="-0.40471167">
        <ele>733.0</ele>
        <time>2017-05-27T07:57:53.191Z</time>
      </trkpt>
      <trkpt lat="39.943565" lon="-0.40471167">
        <ele>733.0</ele>
        <time>2017-05-27T07:57:54.159Z</time>
      </trkpt>
      <trkpt lat="39.94353833" lon="-0.40472">
        <ele>734.0</ele>
        <time>2017-05-27T07:57:55.186Z</time>
      </trkpt>
      <trkpt lat="39.94353833" lon="-0.40472">
        <ele>734.0</ele>
        <time>2017-05-27T07:57:56.191Z</time>
      </trkpt>
      <trkpt lat="39.9435" lon="-0.40473833">
        <ele>734.0</ele>
        <time>2017-05-27T07:57:57.183Z</time>
      </trkpt>
      <trkpt lat="39.9435" lon="-0.40473833">
        <ele>734.0</ele>
        <time>2017-05-27T07:57:58.189Z</time>
      </trkpt>
      <trkpt lat="39.94347167" lon="-0.404755">
        <ele>735.0</ele>
        <time>2017-05-27T07:57:59.195Z</time>
      </trkpt>
      <trkpt lat="39.94347167" lon="-0.404755">
        <ele>735.0</ele>
        <time>2017-05-27T07:58:00.161Z</time>
      </trkpt>
      <trkpt lat="39.94343667" lon="-0.404785">
        <ele>735.0</ele>
        <time>2017-05-27T07:58:01.164Z</time>
      </trkpt>
      <trkpt lat="39.94342" lon="-0.40479667">
        <ele>735.0</ele>
        <time>2017-05-27T07:58:02.160Z</time>
      </trkpt>
      <trkpt lat="39.94342" lon="-0.40479667">
        <ele>735.0</ele>
        <time>2017-05-27T07:58:03.171Z</time>
      </trkpt>
      <trkpt lat="39.94339667" lon="-0.40481833">
        <ele>736.0</ele>
        <time>2017-05-27T07:58:04.170Z</time>
      </trkpt>
      <trkpt lat="39.943385" lon="-0.40483333">
        <ele>736.0</ele>
        <time>2017-05-27T07:58:05.175Z</time>
      </trkpt>
      <trkpt lat="39.943385" lon="-0.40483333">
        <ele>736.0</ele>
        <time>2017-05-27T07:58:06.180Z</time>
      </trkpt>
      <trkpt lat="39.94337333" lon="-0.40485667">
        <ele>736.0</ele>
        <time>2017-05-27T07:58:07.183Z</time>
      </trkpt>
      <trkpt lat="39.94337333" lon="-0.40485667">
        <ele>736.0</ele>
        <time>2017-05-27T07:58:08.189Z</time>
      </trkpt>
      <trkpt lat="39.94334667" lon="-0.40489">
        <ele>737.0</ele>
        <time>2017-05-27T07:58:09.194Z</time>
      </trkpt>
      <trkpt lat="39.94334667" lon="-0.40489">
        <ele>737.0</ele>
        <time>2017-05-27T07:58:10.159Z</time>
      </trkpt>
      <trkpt lat="39.94332" lon="-0.40492">
        <ele>737.0</ele>
        <time>2017-05-27T07:58:11.195Z</time>
      </trkpt>
      <trkpt lat="39.94332" lon="-0.40492">
        <ele>737.0</ele>
        <time>2017-05-27T07:58:12.160Z</time>
      </trkpt>
      <trkpt lat="39.94329667" lon="-0.40495">
        <ele>738.0</ele>
        <time>2017-05-27T07:58:13.192Z</time>
      </trkpt>
      <trkpt lat="39.94328833" lon="-0.404965">
        <ele>738.0</ele>
        <time>2017-05-27T07:58:14.195Z</time>
      </trkpt>
      <trkpt lat="39.94328833" lon="-0.404965">
        <ele>738.0</ele>
        <time>2017-05-27T07:58:15.161Z</time>
      </trkpt>
      <trkpt lat="39.94326833" lon="-0.40499333">
        <ele>739.0</ele>
        <time>2017-05-27T07:58:16.189Z</time>
      </trkpt>
      <trkpt lat="39.94325667" lon="-0.40500833">
        <ele>739.0</ele>
        <time>2017-05-27T07:58:17.165Z</time>
      </trkpt>
      <trkpt lat="39.94325667" lon="-0.40500833">
        <ele>739.0</ele>
        <time>2017-05-27T07:58:18.171Z</time>
      </trkpt>
      <trkpt lat="39.94323333" lon="-0.405035">
        <ele>739.0</ele>
        <time>2017-05-27T07:58:19.173Z</time>
      </trkpt>
      <trkpt lat="39.94323333" lon="-0.405035">
        <ele>739.0</ele>
        <time>2017-05-27T07:58:20.178Z</time>
      </trkpt>
      <trkpt lat="39.94320667" lon="-0.40506833">
        <ele>740.0</ele>
        <time>2017-05-27T07:58:21.165Z</time>
      </trkpt>
      <trkpt lat="39.94320667" lon="-0.40506833">
        <ele>740.0</ele>
        <time>2017-05-27T07:58:22.170Z</time>
      </trkpt>
      <trkpt lat="39.94318" lon="-0.40508">
        <ele>740.0</ele>
        <time>2017-05-27T07:58:23.174Z</time>
      </trkpt>
      <trkpt lat="39.94318" lon="-0.40508">
        <ele>740.0</ele>
        <time>2017-05-27T07:58:24.180Z</time>
      </trkpt>
      <trkpt lat="39.94315" lon="-0.40509">
        <ele>740.0</ele>
        <time>2017-05-27T07:58:25.175Z</time>
      </trkpt>
      <trkpt lat="39.94313167" lon="-0.40509833">
        <ele>741.0</ele>
        <time>2017-05-27T07:58:26.172Z</time>
      </trkpt>
      <trkpt lat="39.94313167" lon="-0.40509833">
        <ele>741.0</ele>
        <time>2017-05-27T07:58:27.178Z</time>
      </trkpt>
      <trkpt lat="39.94309833" lon="-0.40511667">
        <ele>741.0</ele>
        <time>2017-05-27T07:58:28.175Z</time>
      </trkpt>
      <trkpt lat="39.94308167" lon="-0.40512667">
        <ele>742.0</ele>
        <time>2017-05-27T07:58:29.179Z</time>
      </trkpt>
      <trkpt lat="39.94308167" lon="-0.40512667">
        <ele>742.0</ele>
        <time>2017-05-27T07:58:30.184Z</time>
      </trkpt>
      <trkpt lat="39.94305" lon="-0.40514667">
        <ele>742.0</ele>
        <time>2017-05-27T07:58:31.159Z</time>
      </trkpt>
      <trkpt lat="39.94305" lon="-0.40514667">
        <ele>742.0</ele>
        <time>2017-05-27T07:58:32.169Z</time>
      </trkpt>
      <trkpt lat="39.943015" lon="-0.40515">
        <ele>743.0</ele>
        <time>2017-05-27T07:58:33.192Z</time>
      </trkpt>
      <trkpt lat="39.943015" lon="-0.40515">
        <ele>743.0</ele>
        <time>2017-05-27T07:58:34.157Z</time>
      </trkpt>
      <trkpt lat="39.94298" lon="-0.40515833">
        <ele>744.0</ele>
        <time>2017-05-27T07:58:35.165Z</time>
      </trkpt>
      <trkpt lat="39.94298" lon="-0.40515833">
        <ele>744.0</ele>
        <time>2017-05-27T07:58:36.170Z</time>
      </trkpt>
      <trkpt lat="39.94293" lon="-0.405165">
        <ele>744.0</ele>
        <time>2017-05-27T07:58:37.165Z</time>
      </trkpt>
      <trkpt lat="39.94293" lon="-0.405165">
        <ele>744.0</ele>
        <time>2017-05-27T07:58:38.188Z</time>
      </trkpt>
      <trkpt lat="39.94288833" lon="-0.40517333">
        <ele>744.0</ele>
        <time>2017-05-27T07:58:39.179Z</time>
      </trkpt>
      <trkpt lat="39.94287" lon="-0.40518">
        <ele>745.0</ele>
        <time>2017-05-27T07:58:40.165Z</time>
      </trkpt>
      <trkpt lat="39.94287" lon="-0.40518">
        <ele>745.0</ele>
        <time>2017-05-27T07:58:41.177Z</time>
      </trkpt>
      <trkpt lat="39.94283833" lon="-0.40519833">
        <ele>745.0</ele>
        <time>2017-05-27T07:58:42.180Z</time>
      </trkpt>
      <trkpt lat="39.94283833" lon="-0.40519833">
        <ele>745.0</ele>
        <time>2017-05-27T07:58:43.185Z</time>
      </trkpt>
      <trkpt lat="39.942795" lon="-0.40519667">
        <ele>745.0</ele>
        <time>2017-05-27T07:58:44.175Z</time>
      </trkpt>
      <trkpt lat="39.942775" lon="-0.405195">
        <ele>746.0</ele>
        <time>2017-05-27T07:58:45.178Z</time>
      </trkpt>
      <trkpt lat="39.942775" lon="-0.405195">
        <ele>746.0</ele>
        <time>2017-05-27T07:58:46.185Z</time>
      </trkpt>
      <trkpt lat="39.94273333" lon="-0.40519167">
        <ele>746.0</ele>
        <time>2017-05-27T07:58:47.171Z</time>
      </trkpt>
      <trkpt lat="39.94273333" lon="-0.40519167">
        <ele>746.0</ele>
        <time>2017-05-27T07:58:48.176Z</time>
      </trkpt>
      <trkpt lat="39.94269167" lon="-0.40518667">
        <ele>746.0</ele>
        <time>2017-05-27T07:58:49.185Z</time>
      </trkpt>
      <trkpt lat="39.942675" lon="-0.40518333">
        <ele>746.0</ele>
        <time>2017-05-27T07:58:50.177Z</time>
      </trkpt>
      <trkpt lat="39.942675" lon="-0.40518333">
        <ele>746.0</ele>
        <time>2017-05-27T07:58:51.182Z</time>
      </trkpt>
      <trkpt lat="39.94263833" lon="-0.40517833">
        <ele>746.0</ele>
        <time>2017-05-27T07:58:52.182Z</time>
      </trkpt>
      <trkpt lat="39.942625" lon="-0.405175">
        <ele>747.0</ele>
        <time>2017-05-27T07:58:53.191Z</time>
      </trkpt>
      <trkpt lat="39.942625" lon="-0.405175">
        <ele>747.0</ele>
        <time>2017-05-27T07:58:54.157Z</time>
      </trkpt>
      <trkpt lat="39.94259167" lon="-0.40516833">
        <ele>747.0</ele>
        <time>2017-05-27T07:58:55.191Z</time>
      </trkpt>
      <trkpt lat="39.94259167" lon="-0.40516833">
        <ele>747.0</ele>
        <time>2017-05-27T07:58:56.161Z</time>
      </trkpt>
      <trkpt lat="39.942555" lon="-0.40515667">
        <ele>747.0</ele>
        <time>2017-05-27T07:58:57.168Z</time>
      </trkpt>
      <trkpt lat="39.942555" lon="-0.40515667">
        <ele>747.0</ele>
        <time>2017-05-27T07:58:58.174Z</time>
      </trkpt>
      <trkpt lat="39.94251833" lon="-0.405155">
        <ele>748.0</ele>
        <time>2017-05-27T07:58:59.159Z</time>
      </trkpt>
      <trkpt lat="39.94251833" lon="-0.405155">
        <ele>748.0</ele>
        <time>2017-05-27T07:59:00.164Z</time>
      </trkpt>
      <trkpt lat="39.94247667" lon="-0.40515333">
        <ele>748.0</ele>
        <time>2017-05-27T07:59:01.165Z</time>
      </trkpt>
      <trkpt lat="39.94247667" lon="-0.40515333">
        <ele>748.0</ele>
        <time>2017-05-27T07:59:02.177Z</time>
      </trkpt>
      <trkpt lat="39.94243667" lon="-0.40515">
        <ele>748.0</ele>
        <time>2017-05-27T07:59:03.162Z</time>
      </trkpt>
      <trkpt lat="39.94241667" lon="-0.40515167">
        <ele>748.0</ele>
        <time>2017-05-27T07:59:04.180Z</time>
      </trkpt>
      <trkpt lat="39.942395" lon="-0.40515333">
        <ele>748.0</ele>
        <time>2017-05-27T07:59:05.185Z</time>
      </trkpt>
      <trkpt lat="39.942395" lon="-0.40515333">
        <ele>748.0</ele>
        <time>2017-05-27T07:59:06.190Z</time>
      </trkpt>
      <trkpt lat="39.94235667" lon="-0.405165">
        <ele>749.0</ele>
        <time>2017-05-27T07:59:07.161Z</time>
      </trkpt>
      <trkpt lat="39.94235667" lon="-0.405165">
        <ele>749.0</ele>
        <time>2017-05-27T07:59:08.166Z</time>
      </trkpt>
      <trkpt lat="39.942325" lon="-0.40517667">
        <ele>749.0</ele>
        <time>2017-05-27T07:59:09.167Z</time>
      </trkpt>
      <trkpt lat="39.942325" lon="-0.40517667">
        <ele>749.0</ele>
        <time>2017-05-27T07:59:10.172Z</time>
      </trkpt>
      <trkpt lat="39.942295" lon="-0.40521667">
        <ele>749.0</ele>
        <time>2017-05-27T07:59:11.175Z</time>
      </trkpt>
      <trkpt lat="39.942295" lon="-0.40521667">
        <ele>749.0</ele>
        <time>2017-05-27T07:59:12.180Z</time>
      </trkpt>
      <trkpt lat="39.94226667" lon="-0.40523833">
        <ele>750.0</ele>
        <time>2017-05-27T07:59:13.185Z</time>
      </trkpt>
      <trkpt lat="39.94225167" lon="-0.405245">
        <ele>750.0</ele>
        <time>2017-05-27T07:59:14.189Z</time>
      </trkpt>
      <trkpt lat="39.94225167" lon="-0.405245">
        <ele>750.0</ele>
        <time>2017-05-27T07:59:15.157Z</time>
      </trkpt>
      <trkpt lat="39.94222833" lon="-0.40526667">
        <ele>750.0</ele>
        <time>2017-05-27T07:59:16.172Z</time>
      </trkpt>
      <trkpt lat="39.94221667" lon="-0.40528333">
        <ele>751.0</ele>
        <time>2017-05-27T07:59:17.165Z</time>
      </trkpt>
      <trkpt lat="39.94221667" lon="-0.40528333">
        <ele>751.0</ele>
        <time>2017-05-27T07:59:18.170Z</time>
      </trkpt>
      <trkpt lat="39.942185" lon="-0.40530667">
        <ele>751.0</ele>
        <time>2017-05-27T07:59:19.173Z</time>
      </trkpt>
      <trkpt lat="39.942185" lon="-0.40530667">
        <ele>751.0</ele>
        <time>2017-05-27T07:59:20.178Z</time>
      </trkpt>
      <trkpt lat="39.94215667" lon="-0.40533333">
        <ele>752.0</ele>
        <time>2017-05-27T07:59:21.169Z</time>
      </trkpt>
      <trkpt lat="39.94215667" lon="-0.40533333">
        <ele>752.0</ele>
        <time>2017-05-27T07:59:22.174Z</time>
      </trkpt>
      <trkpt lat="39.94212833" lon="-0.40535833">
        <ele>753.0</ele>
        <time>2017-05-27T07:59:23.165Z</time>
      </trkpt>
      <trkpt lat="39.94212833" lon="-0.40535833">
        <ele>753.0</ele>
        <time>2017-05-27T07:59:24.170Z</time>
      </trkpt>
      <trkpt lat="39.94209667" lon="-0.40538">
        <ele>754.0</ele>
        <time>2017-05-27T07:59:25.175Z</time>
      </trkpt>
      <trkpt lat="39.94208167" lon="-0.405395">
        <ele>754.0</ele>
        <time>2017-05-27T07:59:26.175Z</time>
      </trkpt>
      <trkpt lat="39.94208167" lon="-0.405395">
        <ele>754.0</ele>
        <time>2017-05-27T07:59:27.182Z</time>
      </trkpt>
      <trkpt lat="39.94205" lon="-0.40542667">
        <ele>755.0</ele>
        <time>2017-05-27T07:59:28.172Z</time>
      </trkpt>
      <trkpt lat="39.942035" lon="-0.40543833">
        <ele>755.0</ele>
        <time>2017-05-27T07:59:29.195Z</time>
      </trkpt>
      <trkpt lat="39.942035" lon="-0.40543833">
        <ele>755.0</ele>
        <time>2017-05-27T07:59:30.160Z</time>
      </trkpt>
      <trkpt lat="39.94200667" lon="-0.40546333">
        <ele>755.0</ele>
        <time>2017-05-27T07:59:31.189Z</time>
      </trkpt>
      <trkpt lat="39.94199" lon="-0.405475">
        <ele>756.0</ele>
        <time>2017-05-27T07:59:32.192Z</time>
      </trkpt>
      <trkpt lat="39.94199" lon="-0.405475">
        <ele>756.0</ele>
        <time>2017-05-27T07:59:33.158Z</time>
      </trkpt>
      <trkpt lat="39.941955" lon="-0.40549667">
        <ele>756.0</ele>
        <time>2017-05-27T07:59:34.175Z</time>
      </trkpt>
      <trkpt lat="39.941955" lon="-0.40549667">
        <ele>756.0</ele>
        <time>2017-05-27T07:59:35.180Z</time>
      </trkpt>
      <trkpt lat="39.94192167" lon="-0.40551833">
        <ele>757.0</ele>
        <time>2017-05-27T07:59:36.169Z</time>
      </trkpt>
      <trkpt lat="39.94192167" lon="-0.40551833">
        <ele>757.0</ele>
        <time>2017-05-27T07:59:37.175Z</time>
      </trkpt>
      <trkpt lat="39.94188833" lon="-0.40554">
        <ele>757.0</ele>
        <time>2017-05-27T07:59:38.179Z</time>
      </trkpt>
      <trkpt lat="39.94187333" lon="-0.40554833">
        <ele>758.0</ele>
        <time>2017-05-27T07:59:39.171Z</time>
      </trkpt>
      <trkpt lat="39.94185667" lon="-0.40555333">
        <ele>758.0</ele>
        <time>2017-05-27T07:59:40.175Z</time>
      </trkpt>
      <trkpt lat="39.94185667" lon="-0.40555333">
        <ele>758.0</ele>
        <time>2017-05-27T07:59:41.180Z</time>
      </trkpt>
      <trkpt lat="39.94182167" lon="-0.40556833">
        <ele>758.0</ele>
        <time>2017-05-27T07:59:42.169Z</time>
      </trkpt>
      <trkpt lat="39.94182167" lon="-0.40556833">
        <ele>758.0</ele>
        <time>2017-05-27T07:59:43.175Z</time>
      </trkpt>
      <trkpt lat="39.941785" lon="-0.40558167">
        <ele>759.0</ele>
        <time>2017-05-27T07:59:44.173Z</time>
      </trkpt>
      <trkpt lat="39.941785" lon="-0.40558167">
        <ele>759.0</ele>
        <time>2017-05-27T07:59:45.162Z</time>
      </trkpt>
      <trkpt lat="39.94174167" lon="-0.40559333">
        <ele>759.0</ele>
        <time>2017-05-27T07:59:46.175Z</time>
      </trkpt>
      <trkpt lat="39.94174167" lon="-0.40559333">
        <ele>759.0</ele>
        <time>2017-05-27T07:59:47.182Z</time>
      </trkpt>
      <trkpt lat="39.94169833" lon="-0.405595">
        <ele>759.0</ele>
        <time>2017-05-27T07:59:48.177Z</time>
      </trkpt>
      <trkpt lat="39.94169833" lon="-0.405595">
        <ele>759.0</ele>
        <time>2017-05-27T07:59:49.183Z</time>
      </trkpt>
      <trkpt lat="39.94165833" lon="-0.40558667">
        <ele>760.0</ele>
        <time>2017-05-27T07:59:50.185Z</time>
      </trkpt>
      <trkpt lat="39.94165833" lon="-0.40558667">
        <ele>760.0</ele>
        <time>2017-05-27T07:59:51.191Z</time>
      </trkpt>
      <trkpt lat="39.94161167" lon="-0.40557167">
        <ele>760.0</ele>
        <time>2017-05-27T07:59:52.179Z</time>
      </trkpt>
      <trkpt lat="39.94159" lon="-0.40556333">
        <ele>760.0</ele>
        <time>2017-05-27T07:59:53.176Z</time>
      </trkpt>
      <trkpt lat="39.94159" lon="-0.40556333">
        <ele>760.0</ele>
        <time>2017-05-27T07:59:54.182Z</time>
      </trkpt>
      <trkpt lat="39.94155" lon="-0.40554333">
        <ele>761.0</ele>
        <time>2017-05-27T07:59:55.186Z</time>
      </trkpt>
      <trkpt lat="39.94155" lon="-0.40554333">
        <ele>761.0</ele>
        <time>2017-05-27T07:59:56.158Z</time>
      </trkpt>
      <trkpt lat="39.94151" lon="-0.40552667">
        <ele>761.0</ele>
        <time>2017-05-27T07:59:57.195Z</time>
      </trkpt>
      <trkpt lat="39.94151" lon="-0.40552667">
        <ele>761.0</ele>
        <time>2017-05-27T07:59:58.161Z</time>
      </trkpt>
      <trkpt lat="39.94147" lon="-0.40551">
        <ele>762.0</ele>
        <time>2017-05-27T07:59:59.171Z</time>
      </trkpt>
      <trkpt lat="39.94147" lon="-0.40551">
        <ele>762.0</ele>
        <time>2017-05-27T08:00:00.177Z</time>
      </trkpt>
      <trkpt lat="39.941435" lon="-0.40549167">
        <ele>762.0</ele>
        <time>2017-05-27T08:00:01.174Z</time>
      </trkpt>
      <trkpt lat="39.941435" lon="-0.40549167">
        <ele>762.0</ele>
        <time>2017-05-27T08:00:02.179Z</time>
      </trkpt>
      <trkpt lat="39.94139667" lon="-0.405475">
        <ele>762.0</ele>
        <time>2017-05-27T08:00:03.185Z</time>
      </trkpt>
      <trkpt lat="39.94139667" lon="-0.405475">
        <ele>762.0</ele>
        <time>2017-05-27T08:00:04.190Z</time>
      </trkpt>
      <trkpt lat="39.94136" lon="-0.40545333">
        <ele>762.0</ele>
        <time>2017-05-27T08:00:05.191Z</time>
      </trkpt>
      <trkpt lat="39.94136" lon="-0.40545333">
        <ele>762.0</ele>
        <time>2017-05-27T08:00:06.156Z</time>
      </trkpt>
      <trkpt lat="39.94132167" lon="-0.40543667">
        <ele>763.0</ele>
        <time>2017-05-27T08:00:07.195Z</time>
      </trkpt>
      <trkpt lat="39.9413" lon="-0.405425">
        <ele>763.0</ele>
        <time>2017-05-27T08:00:08.195Z</time>
      </trkpt>
      <trkpt lat="39.9413" lon="-0.405425">
        <ele>763.0</ele>
        <time>2017-05-27T08:00:09.160Z</time>
      </trkpt>
      <trkpt lat="39.94126" lon="-0.40540667">
        <ele>763.0</ele>
        <time>2017-05-27T08:00:10.190Z</time>
      </trkpt>
      <trkpt lat="39.94126" lon="-0.40540667">
        <ele>763.0</ele>
        <time>2017-05-27T08:00:11.159Z</time>
      </trkpt>
      <trkpt lat="39.94122" lon="-0.40540333">
        <ele>763.0</ele>
        <time>2017-05-27T08:00:12.160Z</time>
      </trkpt>
      <trkpt lat="39.94122" lon="-0.40540333">
        <ele>763.0</ele>
        <time>2017-05-27T08:00:13.174Z</time>
      </trkpt>
      <trkpt lat="39.94117333" lon="-0.40540167">
        <ele>763.0</ele>
        <time>2017-05-27T08:00:14.175Z</time>
      </trkpt>
      <trkpt lat="39.94114667" lon="-0.40540333">
        <ele>763.0</ele>
        <time>2017-05-27T08:00:15.175Z</time>
      </trkpt>
      <trkpt lat="39.94114667" lon="-0.40540333">
        <ele>763.0</ele>
        <time>2017-05-27T08:00:16.180Z</time>
      </trkpt>
      <trkpt lat="39.94109833" lon="-0.40541167">
        <ele>764.0</ele>
        <time>2017-05-27T08:00:17.180Z</time>
      </trkpt>
      <trkpt lat="39.94109833" lon="-0.40541167">
        <ele>764.0</ele>
        <time>2017-05-27T08:00:18.185Z</time>
      </trkpt>
      <trkpt lat="39.94105" lon="-0.40542667">
        <ele>764.0</ele>
        <time>2017-05-27T08:00:19.179Z</time>
      </trkpt>
      <trkpt lat="39.94105" lon="-0.40542667">
        <ele>764.0</ele>
        <time>2017-05-27T08:00:20.184Z</time>
      </trkpt>
      <trkpt lat="39.94100833" lon="-0.405455">
        <ele>764.0</ele>
        <time>2017-05-27T08:00:21.176Z</time>
      </trkpt>
      <trkpt lat="39.94098667" lon="-0.40546833">
        <ele>764.0</ele>
        <time>2017-05-27T08:00:22.175Z</time>
      </trkpt>
      <trkpt lat="39.940965" lon="-0.40548167">
        <ele>764.0</ele>
        <time>2017-05-27T08:00:23.165Z</time>
      </trkpt>
      <trkpt lat="39.940965" lon="-0.40548167">
        <ele>764.0</ele>
        <time>2017-05-27T08:00:24.170Z</time>
      </trkpt>
      <trkpt lat="39.94092167" lon="-0.40551">
        <ele>764.0</ele>
        <time>2017-05-27T08:00:25.159Z</time>
      </trkpt>
      <trkpt lat="39.94089667" lon="-0.40552333">
        <ele>764.0</ele>
        <time>2017-05-27T08:00:26.185Z</time>
      </trkpt>
      <trkpt lat="39.94089667" lon="-0.40552333">
        <ele>764.0</ele>
        <time>2017-05-27T08:00:27.190Z</time>
      </trkpt>
      <trkpt lat="39.94084833" lon="-0.405545">
        <ele>765.0</ele>
        <time>2017-05-27T08:00:28.191Z</time>
      </trkpt>
      <trkpt lat="39.94082667" lon="-0.40555333">
        <ele>765.0</ele>
        <time>2017-05-27T08:00:29.195Z</time>
      </trkpt>
      <trkpt lat="39.94082667" lon="-0.40555333">
        <ele>765.0</ele>
        <time>2017-05-27T08:00:30.161Z</time>
      </trkpt>
      <trkpt lat="39.94077833" lon="-0.40556167">
        <ele>765.0</ele>
        <time>2017-05-27T08:00:31.195Z</time>
      </trkpt>
      <trkpt lat="39.94077833" lon="-0.40556167">
        <ele>765.0</ele>
        <time>2017-05-27T08:00:32.160Z</time>
      </trkpt>
      <trkpt lat="39.94072833" lon="-0.405575">
        <ele>765.0</ele>
        <time>2017-05-27T08:00:33.165Z</time>
      </trkpt>
      <trkpt lat="39.94072833" lon="-0.405575">
        <ele>765.0</ele>
        <time>2017-05-27T08:00:34.170Z</time>
      </trkpt>
      <trkpt lat="39.94066667" lon="-0.40558167">
        <ele>765.0</ele>
        <time>2017-05-27T08:00:35.165Z</time>
      </trkpt>
      <trkpt lat="39.94066667" lon="-0.40558167">
        <ele>765.0</ele>
        <time>2017-05-27T08:00:36.170Z</time>
      </trkpt>
      <trkpt lat="39.94059167" lon="-0.405585">
        <ele>765.0</ele>
        <time>2017-05-27T08:00:37.171Z</time>
      </trkpt>
      <trkpt lat="39.94059167" lon="-0.405585">
        <ele>765.0</ele>
        <time>2017-05-27T08:00:38.176Z</time>
      </trkpt>
      <trkpt lat="39.94052" lon="-0.40560333">
        <ele>765.0</ele>
        <time>2017-05-27T08:00:39.181Z</time>
      </trkpt>
      <trkpt lat="39.94052" lon="-0.40560333">
        <ele>765.0</ele>
        <time>2017-05-27T08:00:40.186Z</time>
      </trkpt>
      <trkpt lat="39.94047833" lon="-0.40569333">
        <ele>765.0</ele>
        <time>2017-05-27T08:00:41.195Z</time>
      </trkpt>
      <trkpt lat="39.94047833" lon="-0.40569333">
        <ele>765.0</ele>
        <time>2017-05-27T08:00:42.161Z</time>
      </trkpt>
      <trkpt lat="39.94048333" lon="-0.405795">
        <ele>765.0</ele>
        <time>2017-05-27T08:00:43.181Z</time>
      </trkpt>
      <trkpt lat="39.94048333" lon="-0.405795">
        <ele>765.0</ele>
        <time>2017-05-27T08:00:44.186Z</time>
      </trkpt>
      <trkpt lat="39.94049333" lon="-0.405885">
        <ele>764.0</ele>
        <time>2017-05-27T08:00:45.175Z</time>
      </trkpt>
      <trkpt lat="39.9405" lon="-0.40593">
        <ele>764.0</ele>
        <time>2017-05-27T08:00:46.163Z</time>
      </trkpt>
      <trkpt lat="39.9405" lon="-0.40593">
        <ele>764.0</ele>
        <time>2017-05-27T08:00:47.182Z</time>
      </trkpt>
      <trkpt lat="39.940505" lon="-0.40601333">
        <ele>764.0</ele>
        <time>2017-05-27T08:00:48.185Z</time>
      </trkpt>
      <trkpt lat="39.940505" lon="-0.40601333">
        <ele>764.0</ele>
        <time>2017-05-27T08:00:49.191Z</time>
      </trkpt>
      <trkpt lat="39.940515" lon="-0.4061">
        <ele>764.0</ele>
        <time>2017-05-27T08:00:50.157Z</time>
      </trkpt>
      <trkpt lat="39.940515" lon="-0.4061">
        <ele>764.0</ele>
        <time>2017-05-27T08:00:51.162Z</time>
      </trkpt>
      <trkpt lat="39.94052667" lon="-0.40618667">
        <ele>764.0</ele>
        <time>2017-05-27T08:00:52.193Z</time>
      </trkpt>
      <trkpt lat="39.940535" lon="-0.40623">
        <ele>764.0</ele>
        <time>2017-05-27T08:00:53.162Z</time>
      </trkpt>
      <trkpt lat="39.940535" lon="-0.40623">
        <ele>764.0</ele>
        <time>2017-05-27T08:00:54.183Z</time>
      </trkpt>
      <trkpt lat="39.940555" lon="-0.40632167">
        <ele>764.0</ele>
        <time>2017-05-27T08:00:55.169Z</time>
      </trkpt>
      <trkpt lat="39.940555" lon="-0.40632167">
        <ele>764.0</ele>
        <time>2017-05-27T08:00:56.174Z</time>
      </trkpt>
      <trkpt lat="39.94056833" lon="-0.40640833">
        <ele>763.0</ele>
        <time>2017-05-27T08:00:57.173Z</time>
      </trkpt>
      <trkpt lat="39.94056833" lon="-0.40640833">
        <ele>763.0</ele>
        <time>2017-05-27T08:00:58.190Z</time>
      </trkpt>
      <trkpt lat="39.94058167" lon="-0.406495">
        <ele>763.0</ele>
        <time>2017-05-27T08:00:59.185Z</time>
      </trkpt>
      <trkpt lat="39.94058167" lon="-0.406495">
        <ele>763.0</ele>
        <time>2017-05-27T08:01:00.190Z</time>
      </trkpt>
      <trkpt lat="39.94059167" lon="-0.406585">
        <ele>763.0</ele>
        <time>2017-05-27T08:01:01.195Z</time>
      </trkpt>
      <trkpt lat="39.94059167" lon="-0.406585">
        <ele>763.0</ele>
        <time>2017-05-27T08:01:02.161Z</time>
      </trkpt>
      <trkpt lat="39.94059333" lon="-0.40667167">
        <ele>764.0</ele>
        <time>2017-05-27T08:01:03.158Z</time>
      </trkpt>
      <trkpt lat="39.94059333" lon="-0.40667167">
        <ele>764.0</ele>
        <time>2017-05-27T08:01:04.163Z</time>
      </trkpt>
      <trkpt lat="39.94058167" lon="-0.40675833">
        <ele>764.0</ele>
        <time>2017-05-27T08:01:05.156Z</time>
      </trkpt>
      <trkpt lat="39.94058167" lon="-0.40675833">
        <ele>764.0</ele>
        <time>2017-05-27T08:01:06.162Z</time>
      </trkpt>
      <trkpt lat="39.94055333" lon="-0.406845">
        <ele>764.0</ele>
        <time>2017-05-27T08:01:07.185Z</time>
      </trkpt>
      <trkpt lat="39.94055333" lon="-0.406845">
        <ele>764.0</ele>
        <time>2017-05-27T08:01:08.176Z</time>
      </trkpt>
      <trkpt lat="39.94051167" lon="-0.40692">
        <ele>764.0</ele>
        <time>2017-05-27T08:01:09.171Z</time>
      </trkpt>
      <trkpt lat="39.94049333" lon="-0.406955">
        <ele>764.0</ele>
        <time>2017-05-27T08:01:10.173Z</time>
      </trkpt>
      <trkpt lat="39.94049333" lon="-0.406955">
        <ele>764.0</ele>
        <time>2017-05-27T08:01:11.178Z</time>
      </trkpt>
      <trkpt lat="39.94044333" lon="-0.40700667">
        <ele>764.0</ele>
        <time>2017-05-27T08:01:12.170Z</time>
      </trkpt>
      <trkpt lat="39.94044333" lon="-0.40700667">
        <ele>764.0</ele>
        <time>2017-05-27T08:01:13.185Z</time>
      </trkpt>
      <trkpt lat="39.94039667" lon="-0.40705833">
        <ele>764.0</ele>
        <time>2017-05-27T08:01:14.163Z</time>
      </trkpt>
      <trkpt lat="39.94036833" lon="-0.40708333">
        <ele>764.0</ele>
        <time>2017-05-27T08:01:15.167Z</time>
      </trkpt>
      <trkpt lat="39.94036833" lon="-0.40708333">
        <ele>764.0</ele>
        <time>2017-05-27T08:01:16.172Z</time>
      </trkpt>
      <trkpt lat="39.94031667" lon="-0.40713333">
        <ele>764.0</ele>
        <time>2017-05-27T08:01:17.188Z</time>
      </trkpt>
      <trkpt lat="39.94031667" lon="-0.40713333">
        <ele>764.0</ele>
        <time>2017-05-27T08:01:18.158Z</time>
      </trkpt>
      <trkpt lat="39.94026667" lon="-0.40718833">
        <ele>764.0</ele>
        <time>2017-05-27T08:01:19.170Z</time>
      </trkpt>
      <trkpt lat="39.94026667" lon="-0.40718833">
        <ele>764.0</ele>
        <time>2017-05-27T08:01:20.175Z</time>
      </trkpt>
      <trkpt lat="39.940215" lon="-0.407245">
        <ele>764.0</ele>
        <time>2017-05-27T08:01:21.162Z</time>
      </trkpt>
      <trkpt lat="39.94019167" lon="-0.40727167">
        <ele>764.0</ele>
        <time>2017-05-27T08:01:22.157Z</time>
      </trkpt>
      <trkpt lat="39.94019167" lon="-0.40727167">
        <ele>764.0</ele>
        <time>2017-05-27T08:01:23.162Z</time>
      </trkpt>
      <trkpt lat="39.94015333" lon="-0.40732833">
        <ele>764.0</ele>
        <time>2017-05-27T08:01:24.195Z</time>
      </trkpt>
      <trkpt lat="39.94015333" lon="-0.40732833">
        <ele>764.0</ele>
        <time>2017-05-27T08:01:25.160Z</time>
      </trkpt>
      <trkpt lat="39.94010333" lon="-0.40737667">
        <ele>764.0</ele>
        <time>2017-05-27T08:01:26.165Z</time>
      </trkpt>
      <trkpt lat="39.94010333" lon="-0.40737667">
        <ele>764.0</ele>
        <time>2017-05-27T08:01:27.170Z</time>
      </trkpt>
      <trkpt lat="39.940055" lon="-0.40742833">
        <ele>764.0</ele>
        <time>2017-05-27T08:01:28.164Z</time>
      </trkpt>
      <trkpt lat="39.940055" lon="-0.40742833">
        <ele>764.0</ele>
        <time>2017-05-27T08:01:29.169Z</time>
      </trkpt>
      <trkpt lat="39.94001" lon="-0.40747333">
        <ele>765.0</ele>
        <time>2017-05-27T08:01:30.185Z</time>
      </trkpt>
      <trkpt lat="39.94001" lon="-0.40747333">
        <ele>765.0</ele>
        <time>2017-05-27T08:01:31.190Z</time>
      </trkpt>
      <trkpt lat="39.93996833" lon="-0.40752167">
        <ele>766.0</ele>
        <time>2017-05-27T08:01:32.175Z</time>
      </trkpt>
      <trkpt lat="39.93996833" lon="-0.40752167">
        <ele>766.0</ele>
        <time>2017-05-27T08:01:33.180Z</time>
      </trkpt>
      <trkpt lat="39.93992833" lon="-0.40756">
        <ele>766.0</ele>
        <time>2017-05-27T08:01:34.170Z</time>
      </trkpt>
      <trkpt lat="39.93992833" lon="-0.40756">
        <ele>766.0</ele>
        <time>2017-05-27T08:01:35.183Z</time>
      </trkpt>
      <trkpt lat="39.939885" lon="-0.40759">
        <ele>766.0</ele>
        <time>2017-05-27T08:01:36.185Z</time>
      </trkpt>
      <trkpt lat="39.939885" lon="-0.40759">
        <ele>766.0</ele>
        <time>2017-05-27T08:01:37.190Z</time>
      </trkpt>
      <trkpt lat="39.93984" lon="-0.40761333">
        <ele>767.0</ele>
        <time>2017-05-27T08:01:38.195Z</time>
      </trkpt>
      <trkpt lat="39.93982" lon="-0.407625">
        <ele>767.0</ele>
        <time>2017-05-27T08:01:39.195Z</time>
      </trkpt>
      <trkpt lat="39.93982" lon="-0.407625">
        <ele>767.0</ele>
        <time>2017-05-27T08:01:40.160Z</time>
      </trkpt>
      <trkpt lat="39.93977833" lon="-0.40764333">
        <ele>768.0</ele>
        <time>2017-05-27T08:01:41.192Z</time>
      </trkpt>
      <trkpt lat="39.93977833" lon="-0.40764333">
        <ele>768.0</ele>
        <time>2017-05-27T08:01:42.158Z</time>
      </trkpt>
      <trkpt lat="39.93974667" lon="-0.40766333">
        <ele>768.0</ele>
        <time>2017-05-27T08:01:43.187Z</time>
      </trkpt>
      <trkpt lat="39.93974667" lon="-0.40766333">
        <ele>768.0</ele>
        <time>2017-05-27T08:01:44.192Z</time>
      </trkpt>
      <trkpt lat="39.939715" lon="-0.40768667">
        <ele>769.0</ele>
        <time>2017-05-27T08:01:45.159Z</time>
      </trkpt>
      <trkpt lat="39.939715" lon="-0.40768667">
        <ele>769.0</ele>
        <time>2017-05-27T08:01:46.164Z</time>
      </trkpt>
      <trkpt lat="39.93968667" lon="-0.40772833">
        <ele>769.0</ele>
        <time>2017-05-27T08:01:47.195Z</time>
      </trkpt>
      <trkpt lat="39.93967167" lon="-0.407745">
        <ele>770.0</ele>
        <time>2017-05-27T08:01:48.160Z</time>
      </trkpt>
      <trkpt lat="39.93967167" lon="-0.407745">
        <ele>770.0</ele>
        <time>2017-05-27T08:01:49.166Z</time>
      </trkpt>
      <trkpt lat="39.93965167" lon="-0.40777833">
        <ele>770.0</ele>
        <time>2017-05-27T08:01:50.165Z</time>
      </trkpt>
      <trkpt lat="39.93965167" lon="-0.40777833">
        <ele>770.0</ele>
        <time>2017-05-27T08:01:51.162Z</time>
      </trkpt>
      <trkpt lat="39.93964" lon="-0.40783">
        <ele>771.0</ele>
        <time>2017-05-27T08:01:52.165Z</time>
      </trkpt>
      <trkpt lat="39.939635" lon="-0.407855">
        <ele>771.0</ele>
        <time>2017-05-27T08:01:53.164Z</time>
      </trkpt>
      <trkpt lat="39.939635" lon="-0.407855">
        <ele>771.0</ele>
        <time>2017-05-27T08:01:54.169Z</time>
      </trkpt>
      <trkpt lat="39.93963667" lon="-0.40790833">
        <ele>772.0</ele>
        <time>2017-05-27T08:01:55.156Z</time>
      </trkpt>
      <trkpt lat="39.93963667" lon="-0.40790833">
        <ele>772.0</ele>
        <time>2017-05-27T08:01:56.163Z</time>
      </trkpt>
      <trkpt lat="39.93964333" lon="-0.40796667">
        <ele>772.0</ele>
        <time>2017-05-27T08:01:57.189Z</time>
      </trkpt>
      <trkpt lat="39.93964333" lon="-0.40796667">
        <ele>772.0</ele>
        <time>2017-05-27T08:01:58.162Z</time>
      </trkpt>
      <trkpt lat="39.93964667" lon="-0.408025">
        <ele>773.0</ele>
        <time>2017-05-27T08:01:59.165Z</time>
      </trkpt>
      <trkpt lat="39.93964667" lon="-0.408025">
        <ele>773.0</ele>
        <time>2017-05-27T08:02:00.170Z</time>
      </trkpt>
      <trkpt lat="39.93965" lon="-0.40807833">
        <ele>773.0</ele>
        <time>2017-05-27T08:02:01.175Z</time>
      </trkpt>
      <trkpt lat="39.93965" lon="-0.40807833">
        <ele>773.0</ele>
        <time>2017-05-27T08:02:02.180Z</time>
      </trkpt>
      <trkpt lat="39.93965" lon="-0.40813167">
        <ele>774.0</ele>
        <time>2017-05-27T08:02:03.181Z</time>
      </trkpt>
      <trkpt lat="39.93965" lon="-0.40813167">
        <ele>774.0</ele>
        <time>2017-05-27T08:02:04.186Z</time>
      </trkpt>
      <trkpt lat="39.93964833" lon="-0.40818333">
        <ele>774.0</ele>
        <time>2017-05-27T08:02:05.178Z</time>
      </trkpt>
      <trkpt lat="39.93964833" lon="-0.40818333">
        <ele>774.0</ele>
        <time>2017-05-27T08:02:06.183Z</time>
      </trkpt>
      <trkpt lat="39.93964167" lon="-0.40823833">
        <ele>775.0</ele>
        <time>2017-05-27T08:02:07.180Z</time>
      </trkpt>
      <trkpt lat="39.93963833" lon="-0.40826333">
        <ele>775.0</ele>
        <time>2017-05-27T08:02:08.195Z</time>
      </trkpt>
      <trkpt lat="39.93963333" lon="-0.40828833">
        <ele>775.0</ele>
        <time>2017-05-27T08:02:09.194Z</time>
      </trkpt>
      <trkpt lat="39.93963333" lon="-0.40828833">
        <ele>775.0</ele>
        <time>2017-05-27T08:02:10.176Z</time>
      </trkpt>
      <trkpt lat="39.93962667" lon="-0.40833667">
        <ele>776.0</ele>
        <time>2017-05-27T08:02:11.172Z</time>
      </trkpt>
      <trkpt lat="39.93962667" lon="-0.40833667">
        <ele>776.0</ele>
        <time>2017-05-27T08:02:12.180Z</time>
      </trkpt>
      <trkpt lat="39.93961167" lon="-0.40838167">
        <ele>776.0</ele>
        <time>2017-05-27T08:02:13.193Z</time>
      </trkpt>
      <trkpt lat="39.93960167" lon="-0.40840833">
        <ele>776.0</ele>
        <time>2017-05-27T08:02:14.165Z</time>
      </trkpt>
      <trkpt lat="39.93960167" lon="-0.40840833">
        <ele>776.0</ele>
        <time>2017-05-27T08:02:15.177Z</time>
      </trkpt>
      <trkpt lat="39.939585" lon="-0.40845">
        <ele>777.0</ele>
        <time>2017-05-27T08:02:16.164Z</time>
      </trkpt>
      <trkpt lat="39.939585" lon="-0.40845">
        <ele>777.0</ele>
        <time>2017-05-27T08:02:17.169Z</time>
      </trkpt>
      <trkpt lat="39.93956333" lon="-0.40850167">
        <ele>777.0</ele>
        <time>2017-05-27T08:02:18.176Z</time>
      </trkpt>
      <trkpt lat="39.93956333" lon="-0.40850167">
        <ele>777.0</ele>
        <time>2017-05-27T08:02:19.181Z</time>
      </trkpt>
      <trkpt lat="39.93955167" lon="-0.40855">
        <ele>777.0</ele>
        <time>2017-05-27T08:02:20.195Z</time>
      </trkpt>
      <trkpt lat="39.93954" lon="-0.40857333">
        <ele>778.0</ele>
        <time>2017-05-27T08:02:21.187Z</time>
      </trkpt>
      <trkpt lat="39.93954" lon="-0.40857333">
        <ele>778.0</ele>
        <time>2017-05-27T08:02:22.192Z</time>
      </trkpt>
      <trkpt lat="39.939525" lon="-0.40862">
        <ele>778.0</ele>
        <time>2017-05-27T08:02:23.194Z</time>
      </trkpt>
      <trkpt lat="39.939525" lon="-0.40862">
        <ele>778.0</ele>
        <time>2017-05-27T08:02:24.161Z</time>
      </trkpt>
      <trkpt lat="39.93952167" lon="-0.408665">
        <ele>778.0</ele>
        <time>2017-05-27T08:02:25.185Z</time>
      </trkpt>
      <trkpt lat="39.93951667" lon="-0.40868833">
        <ele>778.0</ele>
        <time>2017-05-27T08:02:26.180Z</time>
      </trkpt>
      <trkpt lat="39.93951667" lon="-0.40868833">
        <ele>778.0</ele>
        <time>2017-05-27T08:02:27.185Z</time>
      </trkpt>
      <trkpt lat="39.93951167" lon="-0.40873833">
        <ele>778.0</ele>
        <time>2017-05-27T08:02:28.174Z</time>
      </trkpt>
      <trkpt lat="39.93951" lon="-0.40876167">
        <ele>779.0</ele>
        <time>2017-05-27T08:02:29.184Z</time>
      </trkpt>
      <trkpt lat="39.93951" lon="-0.40876167">
        <ele>779.0</ele>
        <time>2017-05-27T08:02:30.158Z</time>
      </trkpt>
      <trkpt lat="39.9395" lon="-0.40880333">
        <ele>779.0</ele>
        <time>2017-05-27T08:02:31.176Z</time>
      </trkpt>
      <trkpt lat="39.9395" lon="-0.40880333">
        <ele>779.0</ele>
        <time>2017-05-27T08:02:32.190Z</time>
      </trkpt>
      <trkpt lat="39.93949" lon="-0.40884667">
        <ele>780.0</ele>
        <time>2017-05-27T08:02:33.180Z</time>
      </trkpt>
      <trkpt lat="39.93948667" lon="-0.40886833">
        <ele>781.0</ele>
        <time>2017-05-27T08:02:34.182Z</time>
      </trkpt>
      <trkpt lat="39.93948667" lon="-0.40886833">
        <ele>781.0</ele>
        <time>2017-05-27T08:02:35.188Z</time>
      </trkpt>
      <trkpt lat="39.939485" lon="-0.40891167">
        <ele>781.0</ele>
        <time>2017-05-27T08:02:36.165Z</time>
      </trkpt>
      <trkpt lat="39.939485" lon="-0.40891167">
        <ele>781.0</ele>
        <time>2017-05-27T08:02:37.175Z</time>
      </trkpt>
      <trkpt lat="39.93948" lon="-0.40895333">
        <ele>782.0</ele>
        <time>2017-05-27T08:02:38.177Z</time>
      </trkpt>
      <trkpt lat="39.93948" lon="-0.40895333">
        <ele>782.0</ele>
        <time>2017-05-27T08:02:39.182Z</time>
      </trkpt>
      <trkpt lat="39.93947333" lon="-0.40899667">
        <ele>783.0</ele>
        <time>2017-05-27T08:02:40.165Z</time>
      </trkpt>
      <trkpt lat="39.93947333" lon="-0.40899667">
        <ele>783.0</ele>
        <time>2017-05-27T08:02:41.170Z</time>
      </trkpt>
      <trkpt lat="39.939465" lon="-0.409035">
        <ele>783.0</ele>
        <time>2017-05-27T08:02:42.174Z</time>
      </trkpt>
      <trkpt lat="39.939465" lon="-0.409035">
        <ele>783.0</ele>
        <time>2017-05-27T08:02:43.179Z</time>
      </trkpt>
      <trkpt lat="39.93944167" lon="-0.40906667">
        <ele>784.0</ele>
        <time>2017-05-27T08:02:44.185Z</time>
      </trkpt>
      <trkpt lat="39.93944167" lon="-0.40906667">
        <ele>784.0</ele>
        <time>2017-05-27T08:02:45.190Z</time>
      </trkpt>
      <trkpt lat="39.939415" lon="-0.409075">
        <ele>785.0</ele>
        <time>2017-05-27T08:02:46.189Z</time>
      </trkpt>
      <trkpt lat="39.9394" lon="-0.409065">
        <ele>785.0</ele>
        <time>2017-05-27T08:02:47.171Z</time>
      </trkpt>
      <trkpt lat="39.9394" lon="-0.409065">
        <ele>785.0</ele>
        <time>2017-05-27T08:02:48.176Z</time>
      </trkpt>
      <trkpt lat="39.93937333" lon="-0.40903333">
        <ele>786.0</ele>
        <time>2017-05-27T08:02:49.171Z</time>
      </trkpt>
      <trkpt lat="39.93937333" lon="-0.40903333">
        <ele>786.0</ele>
        <time>2017-05-27T08:02:50.176Z</time>
      </trkpt>
      <trkpt lat="39.93936333" lon="-0.40898167">
        <ele>786.0</ele>
        <time>2017-05-27T08:02:51.189Z</time>
      </trkpt>
      <trkpt lat="39.93936333" lon="-0.408955">
        <ele>786.0</ele>
        <time>2017-05-27T08:02:52.193Z</time>
      </trkpt>
      <trkpt lat="39.93936333" lon="-0.408955">
        <ele>786.0</ele>
        <time>2017-05-27T08:02:53.160Z</time>
      </trkpt>
      <trkpt lat="39.939365" lon="-0.40890333">
        <ele>787.0</ele>
        <time>2017-05-27T08:02:54.194Z</time>
      </trkpt>
      <trkpt lat="39.939365" lon="-0.40890333">
        <ele>787.0</ele>
        <time>2017-05-27T08:02:55.161Z</time>
      </trkpt>
      <trkpt lat="39.93936667" lon="-0.40884667">
        <ele>787.0</ele>
        <time>2017-05-27T08:02:56.161Z</time>
      </trkpt>
      <trkpt lat="39.93936667" lon="-0.40884667">
        <ele>787.0</ele>
        <time>2017-05-27T08:02:57.166Z</time>
      </trkpt>
      <trkpt lat="39.93936833" lon="-0.40879833">
        <ele>787.0</ele>
        <time>2017-05-27T08:02:58.179Z</time>
      </trkpt>
      <trkpt lat="39.93937167" lon="-0.408775">
        <ele>787.0</ele>
        <time>2017-05-27T08:02:59.175Z</time>
      </trkpt>
      <trkpt lat="39.93937167" lon="-0.408775">
        <ele>787.0</ele>
        <time>2017-05-27T08:03:00.180Z</time>
      </trkpt>
      <trkpt lat="39.93937667" lon="-0.40872833">
        <ele>788.0</ele>
        <time>2017-05-27T08:03:01.180Z</time>
      </trkpt>
      <trkpt lat="39.93937667" lon="-0.40870167">
        <ele>788.0</ele>
        <time>2017-05-27T08:03:02.168Z</time>
      </trkpt>
      <trkpt lat="39.93937667" lon="-0.40870167">
        <ele>788.0</ele>
        <time>2017-05-27T08:03:03.173Z</time>
      </trkpt>
      <trkpt lat="39.93937667" lon="-0.40865167">
        <ele>788.0</ele>
        <time>2017-05-27T08:03:04.180Z</time>
      </trkpt>
      <trkpt lat="39.93937667" lon="-0.40863">
        <ele>788.0</ele>
        <time>2017-05-27T08:03:05.175Z</time>
      </trkpt>
      <trkpt lat="39.93937667" lon="-0.40863">
        <ele>788.0</ele>
        <time>2017-05-27T08:03:06.180Z</time>
      </trkpt>
      <trkpt lat="39.93938333" lon="-0.40858167">
        <ele>788.0</ele>
        <time>2017-05-27T08:03:07.195Z</time>
      </trkpt>
      <trkpt lat="39.93938333" lon="-0.40858167">
        <ele>788.0</ele>
        <time>2017-05-27T08:03:08.174Z</time>
      </trkpt>
      <trkpt lat="39.93938667" lon="-0.40853333">
        <ele>788.0</ele>
        <time>2017-05-27T08:03:09.175Z</time>
      </trkpt>
      <trkpt lat="39.93938667" lon="-0.40853333">
        <ele>788.0</ele>
        <time>2017-05-27T08:03:10.183Z</time>
      </trkpt>
      <trkpt lat="39.93938833" lon="-0.40848333">
        <ele>789.0</ele>
        <time>2017-05-27T08:03:11.188Z</time>
      </trkpt>
      <trkpt lat="39.93938833" lon="-0.40848333">
        <ele>789.0</ele>
        <time>2017-05-27T08:03:12.161Z</time>
      </trkpt>
      <trkpt lat="39.93938" lon="-0.40843667">
        <ele>789.0</ele>
        <time>2017-05-27T08:03:13.174Z</time>
      </trkpt>
      <trkpt lat="39.93938167" lon="-0.408415">
        <ele>789.0</ele>
        <time>2017-05-27T08:03:14.185Z</time>
      </trkpt>
      <trkpt lat="39.93938167" lon="-0.408415">
        <ele>789.0</ele>
        <time>2017-05-27T08:03:15.190Z</time>
      </trkpt>
      <trkpt lat="39.93938333" lon="-0.40837">
        <ele>789.0</ele>
        <time>2017-05-27T08:03:16.188Z</time>
      </trkpt>
      <trkpt lat="39.93938333" lon="-0.408345">
        <ele>790.0</ele>
        <time>2017-05-27T08:03:17.191Z</time>
      </trkpt>
      <trkpt lat="39.93938333" lon="-0.408345">
        <ele>790.0</ele>
        <time>2017-05-27T08:03:18.159Z</time>
      </trkpt>
      <trkpt lat="39.93938667" lon="-0.40829667">
        <ele>790.0</ele>
        <time>2017-05-27T08:03:19.194Z</time>
      </trkpt>
      <trkpt lat="39.93938667" lon="-0.40829667">
        <ele>790.0</ele>
        <time>2017-05-27T08:03:20.159Z</time>
      </trkpt>
      <trkpt lat="39.93938" lon="-0.40825333">
        <ele>791.0</ele>
        <time>2017-05-27T08:03:21.185Z</time>
      </trkpt>
      <trkpt lat="39.93938" lon="-0.40825333">
        <ele>791.0</ele>
        <time>2017-05-27T08:03:22.190Z</time>
      </trkpt>
      <trkpt lat="39.93936" lon="-0.408215">
        <ele>791.0</ele>
        <time>2017-05-27T08:03:23.181Z</time>
      </trkpt>
      <trkpt lat="39.93936" lon="-0.408215">
        <ele>791.0</ele>
        <time>2017-05-27T08:03:24.186Z</time>
      </trkpt>
      <trkpt lat="39.93932333" lon="-0.40820333">
        <ele>791.0</ele>
        <time>2017-05-27T08:03:25.175Z</time>
      </trkpt>
      <trkpt lat="39.93932333" lon="-0.40820333">
        <ele>791.0</ele>
        <time>2017-05-27T08:03:26.180Z</time>
      </trkpt>
      <trkpt lat="39.93929" lon="-0.40822667">
        <ele>791.0</ele>
        <time>2017-05-27T08:03:27.177Z</time>
      </trkpt>
      <trkpt lat="39.93929" lon="-0.40822667">
        <ele>791.0</ele>
        <time>2017-05-27T08:03:28.182Z</time>
      </trkpt>
      <trkpt lat="39.93927167" lon="-0.40827167">
        <ele>791.0</ele>
        <time>2017-05-27T08:03:29.157Z</time>
      </trkpt>
      <trkpt lat="39.93927167" lon="-0.40827167">
        <ele>791.0</ele>
        <time>2017-05-27T08:03:30.175Z</time>
      </trkpt>
      <trkpt lat="39.93927" lon="-0.40832">
        <ele>791.0</ele>
        <time>2017-05-27T08:03:31.185Z</time>
      </trkpt>
      <trkpt lat="39.93927" lon="-0.40832">
        <ele>791.0</ele>
        <time>2017-05-27T08:03:32.190Z</time>
      </trkpt>
      <trkpt lat="39.93927333" lon="-0.40837167">
        <ele>792.0</ele>
        <time>2017-05-27T08:03:33.185Z</time>
      </trkpt>
      <trkpt lat="39.93927333" lon="-0.40837167">
        <ele>792.0</ele>
        <time>2017-05-27T08:03:34.190Z</time>
      </trkpt>
      <trkpt lat="39.93927167" lon="-0.40842667">
        <ele>792.0</ele>
        <time>2017-05-27T08:03:35.183Z</time>
      </trkpt>
      <trkpt lat="39.93927167" lon="-0.40842667">
        <ele>792.0</ele>
        <time>2017-05-27T08:03:36.188Z</time>
      </trkpt>
      <trkpt lat="39.93927" lon="-0.40847667">
        <ele>793.0</ele>
        <time>2017-05-27T08:03:37.182Z</time>
      </trkpt>
      <trkpt lat="39.93926667" lon="-0.4085">
        <ele>793.0</ele>
        <time>2017-05-27T08:03:38.188Z</time>
      </trkpt>
      <trkpt lat="39.93926333" lon="-0.40852333">
        <ele>793.0</ele>
        <time>2017-05-27T08:03:39.184Z</time>
      </trkpt>
      <trkpt lat="39.93926333" lon="-0.40852333">
        <ele>793.0</ele>
        <time>2017-05-27T08:03:40.189Z</time>
      </trkpt>
      <trkpt lat="39.93925833" lon="-0.40857333">
        <ele>794.0</ele>
        <time>2017-05-27T08:03:41.175Z</time>
      </trkpt>
      <trkpt lat="39.93925833" lon="-0.40857333">
        <ele>794.0</ele>
        <time>2017-05-27T08:03:42.179Z</time>
      </trkpt>
      <trkpt lat="39.93925167" lon="-0.40862167">
        <ele>794.0</ele>
        <time>2017-05-27T08:03:43.168Z</time>
      </trkpt>
      <trkpt lat="39.93925167" lon="-0.40862167">
        <ele>794.0</ele>
        <time>2017-05-27T08:03:44.173Z</time>
      </trkpt>
      <trkpt lat="39.93924" lon="-0.40866333">
        <ele>795.0</ele>
        <time>2017-05-27T08:03:45.164Z</time>
      </trkpt>
      <trkpt lat="39.93924" lon="-0.40866333">
        <ele>795.0</ele>
        <time>2017-05-27T08:03:46.170Z</time>
      </trkpt>
      <trkpt lat="39.93923" lon="-0.40871167">
        <ele>795.0</ele>
        <time>2017-05-27T08:03:47.185Z</time>
      </trkpt>
      <trkpt lat="39.93923" lon="-0.40871167">
        <ele>795.0</ele>
        <time>2017-05-27T08:03:48.167Z</time>
      </trkpt>
      <trkpt lat="39.93922167" lon="-0.40875833">
        <ele>795.0</ele>
        <time>2017-05-27T08:03:49.161Z</time>
      </trkpt>
      <trkpt lat="39.93922167" lon="-0.40875833">
        <ele>795.0</ele>
        <time>2017-05-27T08:03:50.166Z</time>
      </trkpt>
      <trkpt lat="39.93921167" lon="-0.40881333">
        <ele>795.0</ele>
        <time>2017-05-27T08:03:51.165Z</time>
      </trkpt>
      <trkpt lat="39.93920667" lon="-0.40883833">
        <ele>796.0</ele>
        <time>2017-05-27T08:03:52.170Z</time>
      </trkpt>
      <trkpt lat="39.93920667" lon="-0.40883833">
        <ele>796.0</ele>
        <time>2017-05-27T08:03:53.189Z</time>
      </trkpt>
      <trkpt lat="39.93919667" lon="-0.40888333">
        <ele>796.0</ele>
        <time>2017-05-27T08:03:54.164Z</time>
      </trkpt>
      <trkpt lat="39.93919667" lon="-0.40888333">
        <ele>796.0</ele>
        <time>2017-05-27T08:03:55.181Z</time>
      </trkpt>
      <trkpt lat="39.93918" lon="-0.40892833">
        <ele>797.0</ele>
        <time>2017-05-27T08:03:56.161Z</time>
      </trkpt>
      <trkpt lat="39.93917167" lon="-0.40895167">
        <ele>797.0</ele>
        <time>2017-05-27T08:03:57.157Z</time>
      </trkpt>
      <trkpt lat="39.93917167" lon="-0.40895167">
        <ele>797.0</ele>
        <time>2017-05-27T08:03:58.165Z</time>
      </trkpt>
      <trkpt lat="39.939145" lon="-0.40899167">
        <ele>797.0</ele>
        <time>2017-05-27T08:03:59.162Z</time>
      </trkpt>
      <trkpt lat="39.939145" lon="-0.40899167">
        <ele>797.0</ele>
        <time>2017-05-27T08:04:00.169Z</time>
      </trkpt>
      <trkpt lat="39.93911667" lon="-0.40903333">
        <ele>797.0</ele>
        <time>2017-05-27T08:04:01.161Z</time>
      </trkpt>
      <trkpt lat="39.93910333" lon="-0.40905167">
        <ele>798.0</ele>
        <time>2017-05-27T08:04:02.189Z</time>
      </trkpt>
      <trkpt lat="39.93910333" lon="-0.40905167">
        <ele>798.0</ele>
        <time>2017-05-27T08:04:03.161Z</time>
      </trkpt>
      <trkpt lat="39.93907667" lon="-0.40908167">
        <ele>798.0</ele>
        <time>2017-05-27T08:04:04.162Z</time>
      </trkpt>
      <trkpt lat="39.93907667" lon="-0.40908167">
        <ele>798.0</ele>
        <time>2017-05-27T08:04:05.167Z</time>
      </trkpt>
      <trkpt lat="39.93905" lon="-0.409105">
        <ele>798.0</ele>
        <time>2017-05-27T08:04:06.165Z</time>
      </trkpt>
      <trkpt lat="39.93905" lon="-0.409105">
        <ele>798.0</ele>
        <time>2017-05-27T08:04:07.169Z</time>
      </trkpt>
      <trkpt lat="39.93902833" lon="-0.409135">
        <ele>798.0</ele>
        <time>2017-05-27T08:04:08.158Z</time>
      </trkpt>
      <trkpt lat="39.939015" lon="-0.40915667">
        <ele>798.0</ele>
        <time>2017-05-27T08:04:09.166Z</time>
      </trkpt>
      <trkpt lat="39.939015" lon="-0.40915667">
        <ele>798.0</ele>
        <time>2017-05-27T08:04:10.177Z</time>
      </trkpt>
      <trkpt lat="39.938995" lon="-0.40920333">
        <ele>799.0</ele>
        <time>2017-05-27T08:04:11.176Z</time>
      </trkpt>
      <trkpt lat="39.938995" lon="-0.40920333">
        <ele>799.0</ele>
        <time>2017-05-27T08:04:12.181Z</time>
      </trkpt>
      <trkpt lat="39.93898833" lon="-0.40925333">
        <ele>799.0</ele>
        <time>2017-05-27T08:04:13.175Z</time>
      </trkpt>
      <trkpt lat="39.938985" lon="-0.40928833">
        <ele>799.0</ele>
        <time>2017-05-27T08:04:14.172Z</time>
      </trkpt>
      <trkpt lat="39.93898167" lon="-0.40932167">
        <ele>799.0</ele>
        <time>2017-05-27T08:04:15.166Z</time>
      </trkpt>
      <trkpt lat="39.93898167" lon="-0.40932167">
        <ele>799.0</ele>
        <time>2017-05-27T08:04:16.171Z</time>
      </trkpt>
      <trkpt lat="39.93899" lon="-0.40937667">
        <ele>800.0</ele>
        <time>2017-05-27T08:04:17.165Z</time>
      </trkpt>
      <trkpt lat="39.93899" lon="-0.40937667">
        <ele>800.0</ele>
        <time>2017-05-27T08:04:18.170Z</time>
      </trkpt>
      <trkpt lat="39.93900167" lon="-0.40943333">
        <ele>800.0</ele>
        <time>2017-05-27T08:04:19.163Z</time>
      </trkpt>
      <trkpt lat="39.93901167" lon="-0.40946167">
        <ele>801.0</ele>
        <time>2017-05-27T08:04:20.195Z</time>
      </trkpt>
      <trkpt lat="39.93901167" lon="-0.40946167">
        <ele>801.0</ele>
        <time>2017-05-27T08:04:21.161Z</time>
      </trkpt>
      <trkpt lat="39.93903" lon="-0.40952167">
        <ele>802.0</ele>
        <time>2017-05-27T08:04:22.175Z</time>
      </trkpt>
      <trkpt lat="39.93903833" lon="-0.40954833">
        <ele>802.0</ele>
        <time>2017-05-27T08:04:23.176Z</time>
      </trkpt>
      <trkpt lat="39.93903833" lon="-0.40954833">
        <ele>802.0</ele>
        <time>2017-05-27T08:04:24.181Z</time>
      </trkpt>
      <trkpt lat="39.93905333" lon="-0.40959833">
        <ele>802.0</ele>
        <time>2017-05-27T08:04:25.191Z</time>
      </trkpt>
      <trkpt lat="39.93905833" lon="-0.40962333">
        <ele>803.0</ele>
        <time>2017-05-27T08:04:26.164Z</time>
      </trkpt>
      <trkpt lat="39.93906333" lon="-0.40965167">
        <ele>803.0</ele>
        <time>2017-05-27T08:04:27.195Z</time>
      </trkpt>
      <trkpt lat="39.93906333" lon="-0.40965167">
        <ele>803.0</ele>
        <time>2017-05-27T08:04:28.167Z</time>
      </trkpt>
      <trkpt lat="39.93907" lon="-0.40970167">
        <ele>804.0</ele>
        <time>2017-05-27T08:04:29.157Z</time>
      </trkpt>
      <trkpt lat="39.93907" lon="-0.40970167">
        <ele>804.0</ele>
        <time>2017-05-27T08:04:30.163Z</time>
      </trkpt>
      <trkpt lat="39.93907333" lon="-0.40975167">
        <ele>805.0</ele>
        <time>2017-05-27T08:04:31.170Z</time>
      </trkpt>
      <trkpt lat="39.93907333" lon="-0.40975167">
        <ele>805.0</ele>
        <time>2017-05-27T08:04:32.175Z</time>
      </trkpt>
      <trkpt lat="39.93908" lon="-0.409805">
        <ele>805.0</ele>
        <time>2017-05-27T08:04:33.175Z</time>
      </trkpt>
      <trkpt lat="39.93908" lon="-0.409805">
        <ele>805.0</ele>
        <time>2017-05-27T08:04:34.180Z</time>
      </trkpt>
      <trkpt lat="39.93908667" lon="-0.40985333">
        <ele>806.0</ele>
        <time>2017-05-27T08:04:35.175Z</time>
      </trkpt>
      <trkpt lat="39.93908667" lon="-0.40985333">
        <ele>806.0</ele>
        <time>2017-05-27T08:04:36.180Z</time>
      </trkpt>
      <trkpt lat="39.93909333" lon="-0.40990167">
        <ele>806.0</ele>
        <time>2017-05-27T08:04:37.175Z</time>
      </trkpt>
      <trkpt lat="39.93909167" lon="-0.40992833">
        <ele>807.0</ele>
        <time>2017-05-27T08:04:38.164Z</time>
      </trkpt>
      <trkpt lat="39.93909167" lon="-0.409955">
        <ele>808.0</ele>
        <time>2017-05-27T08:04:39.160Z</time>
      </trkpt>
      <trkpt lat="39.93909167" lon="-0.409955">
        <ele>808.0</ele>
        <time>2017-05-27T08:04:40.166Z</time>
      </trkpt>
      <trkpt lat="39.93908833" lon="-0.41000833">
        <ele>808.0</ele>
        <time>2017-05-27T08:04:41.162Z</time>
      </trkpt>
      <trkpt lat="39.93908833" lon="-0.41000833">
        <ele>808.0</ele>
        <time>2017-05-27T08:04:42.167Z</time>
      </trkpt>
      <trkpt lat="39.93909" lon="-0.410065">
        <ele>809.0</ele>
        <time>2017-05-27T08:04:43.164Z</time>
      </trkpt>
      <trkpt lat="39.93909" lon="-0.41009333">
        <ele>809.0</ele>
        <time>2017-05-27T08:04:44.174Z</time>
      </trkpt>
      <trkpt lat="39.93909" lon="-0.41009333">
        <ele>809.0</ele>
        <time>2017-05-27T08:04:45.179Z</time>
      </trkpt>
      <trkpt lat="39.939105" lon="-0.410155">
        <ele>809.0</ele>
        <time>2017-05-27T08:04:46.185Z</time>
      </trkpt>
      <trkpt lat="39.939105" lon="-0.410155">
        <ele>809.0</ele>
        <time>2017-05-27T08:04:47.191Z</time>
      </trkpt>
      <trkpt lat="39.93911" lon="-0.41021167">
        <ele>810.0</ele>
        <time>2017-05-27T08:04:48.171Z</time>
      </trkpt>
      <trkpt lat="39.93911" lon="-0.41021167">
        <ele>810.0</ele>
        <time>2017-05-27T08:04:49.176Z</time>
      </trkpt>
      <trkpt lat="39.939115" lon="-0.41026667">
        <ele>810.0</ele>
        <time>2017-05-27T08:04:50.185Z</time>
      </trkpt>
      <trkpt lat="39.939115" lon="-0.41026667">
        <ele>810.0</ele>
        <time>2017-05-27T08:04:51.165Z</time>
      </trkpt>
      <trkpt lat="39.93912167" lon="-0.41031667">
        <ele>811.0</ele>
        <time>2017-05-27T08:04:52.175Z</time>
      </trkpt>
      <trkpt lat="39.93912667" lon="-0.41034667">
        <ele>811.0</ele>
        <time>2017-05-27T08:04:53.160Z</time>
      </trkpt>
      <trkpt lat="39.93912667" lon="-0.41034667">
        <ele>811.0</ele>
        <time>2017-05-27T08:04:54.165Z</time>
      </trkpt>
      <trkpt lat="39.93913833" lon="-0.41040333">
        <ele>811.0</ele>
        <time>2017-05-27T08:04:55.165Z</time>
      </trkpt>
      <trkpt lat="39.93913833" lon="-0.41040333">
        <ele>811.0</ele>
        <time>2017-05-27T08:04:56.178Z</time>
      </trkpt>
      <trkpt lat="39.93915333" lon="-0.410455">
        <ele>811.0</ele>
        <time>2017-05-27T08:04:57.195Z</time>
      </trkpt>
      <trkpt lat="39.93915333" lon="-0.410455">
        <ele>811.0</ele>
        <time>2017-05-27T08:04:58.161Z</time>
      </trkpt>
      <trkpt lat="39.93917167" lon="-0.41050667">
        <ele>812.0</ele>
        <time>2017-05-27T08:04:59.159Z</time>
      </trkpt>
      <trkpt lat="39.93917167" lon="-0.41050667">
        <ele>812.0</ele>
        <time>2017-05-27T08:05:00.165Z</time>
      </trkpt>
      <trkpt lat="39.93919167" lon="-0.410555">
        <ele>812.0</ele>
        <time>2017-05-27T08:05:01.175Z</time>
      </trkpt>
      <trkpt lat="39.93919167" lon="-0.410555">
        <ele>812.0</ele>
        <time>2017-05-27T08:05:02.181Z</time>
      </trkpt>
      <trkpt lat="39.93921167" lon="-0.41060167">
        <ele>813.0</ele>
        <time>2017-05-27T08:05:03.188Z</time>
      </trkpt>
      <trkpt lat="39.93921167" lon="-0.41060167">
        <ele>813.0</ele>
        <time>2017-05-27T08:05:04.193Z</time>
      </trkpt>
      <trkpt lat="39.93923" lon="-0.41065">
        <ele>813.0</ele>
        <time>2017-05-27T08:05:05.180Z</time>
      </trkpt>
      <trkpt lat="39.93923" lon="-0.41065">
        <ele>813.0</ele>
        <time>2017-05-27T08:05:06.185Z</time>
      </trkpt>
      <trkpt lat="39.93924667" lon="-0.4107">
        <ele>813.0</ele>
        <time>2017-05-27T08:05:07.195Z</time>
      </trkpt>
      <trkpt lat="39.93925333" lon="-0.410725">
        <ele>814.0</ele>
        <time>2017-05-27T08:05:08.181Z</time>
      </trkpt>
      <trkpt lat="39.93925333" lon="-0.410725">
        <ele>814.0</ele>
        <time>2017-05-27T08:05:09.186Z</time>
      </trkpt>
      <trkpt lat="39.939265" lon="-0.41077667">
        <ele>814.0</ele>
        <time>2017-05-27T08:05:10.188Z</time>
      </trkpt>
      <trkpt lat="39.939265" lon="-0.41077667">
        <ele>814.0</ele>
        <time>2017-05-27T08:05:11.193Z</time>
      </trkpt>
      <trkpt lat="39.93927333" lon="-0.41083">
        <ele>814.0</ele>
        <time>2017-05-27T08:05:12.182Z</time>
      </trkpt>
      <trkpt lat="39.93927333" lon="-0.41083">
        <ele>814.0</ele>
        <time>2017-05-27T08:05:13.163Z</time>
      </trkpt>
      <trkpt lat="39.93928" lon="-0.41088167">
        <ele>815.0</ele>
        <time>2017-05-27T08:05:14.179Z</time>
      </trkpt>
      <trkpt lat="39.93927833" lon="-0.41090833">
        <ele>815.0</ele>
        <time>2017-05-27T08:05:15.175Z</time>
      </trkpt>
      <trkpt lat="39.93927833" lon="-0.41090833">
        <ele>815.0</ele>
        <time>2017-05-27T08:05:16.180Z</time>
      </trkpt>
      <trkpt lat="39.93927833" lon="-0.41096">
        <ele>815.0</ele>
        <time>2017-05-27T08:05:17.180Z</time>
      </trkpt>
      <trkpt lat="39.93928" lon="-0.41098667">
        <ele>815.0</ele>
        <time>2017-05-27T08:05:18.185Z</time>
      </trkpt>
      <trkpt lat="39.93928" lon="-0.41098667">
        <ele>815.0</ele>
        <time>2017-05-27T08:05:19.191Z</time>
      </trkpt>
      <trkpt lat="39.93929" lon="-0.41104333">
        <ele>816.0</ele>
        <time>2017-05-27T08:05:20.195Z</time>
      </trkpt>
      <trkpt lat="39.93929" lon="-0.41104333">
        <ele>816.0</ele>
        <time>2017-05-27T08:05:21.160Z</time>
      </trkpt>
      <trkpt lat="39.93931" lon="-0.41109333">
        <ele>816.0</ele>
        <time>2017-05-27T08:05:22.161Z</time>
      </trkpt>
      <trkpt lat="39.939325" lon="-0.411115">
        <ele>816.0</ele>
        <time>2017-05-27T08:05:23.171Z</time>
      </trkpt>
      <trkpt lat="39.93934" lon="-0.411135">
        <ele>816.0</ele>
        <time>2017-05-27T08:05:24.176Z</time>
      </trkpt>
      <trkpt lat="39.93934" lon="-0.411135">
        <ele>816.0</ele>
        <time>2017-05-27T08:05:25.181Z</time>
      </trkpt>
      <trkpt lat="39.93937" lon="-0.41117667">
        <ele>817.0</ele>
        <time>2017-05-27T08:05:26.175Z</time>
      </trkpt>
      <trkpt lat="39.93938667" lon="-0.41119333">
        <ele>817.0</ele>
        <time>2017-05-27T08:05:27.165Z</time>
      </trkpt>
      <trkpt lat="39.93938667" lon="-0.41119333">
        <ele>817.0</ele>
        <time>2017-05-27T08:05:28.170Z</time>
      </trkpt>
      <trkpt lat="39.93941833" lon="-0.41122833">
        <ele>817.0</ele>
        <time>2017-05-27T08:05:29.185Z</time>
      </trkpt>
      <trkpt lat="39.93941833" lon="-0.41122833">
        <ele>817.0</ele>
        <time>2017-05-27T08:05:30.190Z</time>
      </trkpt>
      <trkpt lat="39.93944167" lon="-0.41127167">
        <ele>817.0</ele>
        <time>2017-05-27T08:05:31.183Z</time>
      </trkpt>
      <trkpt lat="39.93945333" lon="-0.411295">
        <ele>817.0</ele>
        <time>2017-05-27T08:05:32.165Z</time>
      </trkpt>
      <trkpt lat="39.93945333" lon="-0.411295">
        <ele>817.0</ele>
        <time>2017-05-27T08:05:33.177Z</time>
      </trkpt>
      <trkpt lat="39.93947667" lon="-0.41134167">
        <ele>817.0</ele>
        <time>2017-05-27T08:05:34.172Z</time>
      </trkpt>
      <trkpt lat="39.93948833" lon="-0.411365">
        <ele>817.0</ele>
        <time>2017-05-27T08:05:35.172Z</time>
      </trkpt>
      <trkpt lat="39.93948833" lon="-0.411365">
        <ele>817.0</ele>
        <time>2017-05-27T08:05:36.178Z</time>
      </trkpt>
      <trkpt lat="39.93951333" lon="-0.41140833">
        <ele>817.0</ele>
        <time>2017-05-27T08:05:37.195Z</time>
      </trkpt>
      <trkpt lat="39.939525" lon="-0.41143167">
        <ele>817.0</ele>
        <time>2017-05-27T08:05:38.190Z</time>
      </trkpt>
      <trkpt lat="39.93953667" lon="-0.41145333">
        <ele>817.0</ele>
        <time>2017-05-27T08:05:39.195Z</time>
      </trkpt>
      <trkpt lat="39.93953667" lon="-0.41145333">
        <ele>817.0</ele>
        <time>2017-05-27T08:05:40.161Z</time>
      </trkpt>
      <trkpt lat="39.93956" lon="-0.4115">
        <ele>818.0</ele>
        <time>2017-05-27T08:05:41.185Z</time>
      </trkpt>
      <trkpt lat="39.93956" lon="-0.4115">
        <ele>818.0</ele>
        <time>2017-05-27T08:05:42.190Z</time>
      </trkpt>
      <trkpt lat="39.93958" lon="-0.41155">
        <ele>818.0</ele>
        <time>2017-05-27T08:05:43.190Z</time>
      </trkpt>
      <trkpt lat="39.93958" lon="-0.41155">
        <ele>818.0</ele>
        <time>2017-05-27T08:05:44.158Z</time>
      </trkpt>
      <trkpt lat="39.93960167" lon="-0.41159667">
        <ele>819.0</ele>
        <time>2017-05-27T08:05:45.195Z</time>
      </trkpt>
      <trkpt lat="39.93960167" lon="-0.41159667">
        <ele>819.0</ele>
        <time>2017-05-27T08:05:46.160Z</time>
      </trkpt>
      <trkpt lat="39.93962" lon="-0.41164667">
        <ele>819.0</ele>
        <time>2017-05-27T08:05:47.165Z</time>
      </trkpt>
      <trkpt lat="39.93962" lon="-0.41164667">
        <ele>819.0</ele>
        <time>2017-05-27T08:05:48.170Z</time>
      </trkpt>
      <trkpt lat="39.93963167" lon="-0.41169167">
        <ele>820.0</ele>
        <time>2017-05-27T08:05:49.163Z</time>
      </trkpt>
      <trkpt lat="39.93963667" lon="-0.411715">
        <ele>820.0</ele>
        <time>2017-05-27T08:05:50.185Z</time>
      </trkpt>
      <trkpt lat="39.93963667" lon="-0.411715">
        <ele>820.0</ele>
        <time>2017-05-27T08:05:51.190Z</time>
      </trkpt>
      <trkpt lat="39.93964167" lon="-0.411765">
        <ele>821.0</ele>
        <time>2017-05-27T08:05:52.178Z</time>
      </trkpt>
      <trkpt lat="39.93963833" lon="-0.41179">
        <ele>821.0</ele>
        <time>2017-05-27T08:05:53.186Z</time>
      </trkpt>
      <trkpt lat="39.93963833" lon="-0.41179">
        <ele>821.0</ele>
        <time>2017-05-27T08:05:54.191Z</time>
      </trkpt>
      <trkpt lat="39.93963167" lon="-0.41184333">
        <ele>821.0</ele>
        <time>2017-05-27T08:05:55.165Z</time>
      </trkpt>
      <trkpt lat="39.93963167" lon="-0.41184333">
        <ele>821.0</ele>
        <time>2017-05-27T08:05:56.176Z</time>
      </trkpt>
      <trkpt lat="39.93962333" lon="-0.41189667">
        <ele>822.0</ele>
        <time>2017-05-27T08:05:57.174Z</time>
      </trkpt>
      <trkpt lat="39.93961667" lon="-0.41192333">
        <ele>822.0</ele>
        <time>2017-05-27T08:05:58.183Z</time>
      </trkpt>
      <trkpt lat="39.93961667" lon="-0.41192333">
        <ele>822.0</ele>
        <time>2017-05-27T08:05:59.188Z</time>
      </trkpt>
      <trkpt lat="39.939595" lon="-0.41196833">
        <ele>822.0</ele>
        <time>2017-05-27T08:06:00.196Z</time>
      </trkpt>
      <trkpt lat="39.939595" lon="-0.41196833">
        <ele>822.0</ele>
        <time>2017-05-27T08:06:01.163Z</time>
      </trkpt>
      <trkpt lat="39.93956333" lon="-0.41201333">
        <ele>823.0</ele>
        <time>2017-05-27T08:06:02.195Z</time>
      </trkpt>
      <trkpt lat="39.93956333" lon="-0.41201333">
        <ele>823.0</ele>
        <time>2017-05-27T08:06:03.161Z</time>
      </trkpt>
      <trkpt lat="39.93952333" lon="-0.41204667">
        <ele>823.0</ele>
        <time>2017-05-27T08:06:04.170Z</time>
      </trkpt>
      <trkpt lat="39.93949667" lon="-0.41206">
        <ele>823.0</ele>
        <time>2017-05-27T08:06:05.179Z</time>
      </trkpt>
      <trkpt lat="39.93949667" lon="-0.41206">
        <ele>823.0</ele>
        <time>2017-05-27T08:06:06.184Z</time>
      </trkpt>
      <trkpt lat="39.93944" lon="-0.412085">
        <ele>824.0</ele>
        <time>2017-05-27T08:06:07.185Z</time>
      </trkpt>
      <trkpt lat="39.93944" lon="-0.412085">
        <ele>824.0</ele>
        <time>2017-05-27T08:06:08.190Z</time>
      </trkpt>
      <trkpt lat="39.93938333" lon="-0.41210333">
        <ele>824.0</ele>
        <time>2017-05-27T08:06:09.164Z</time>
      </trkpt>
      <trkpt lat="39.93938333" lon="-0.41210333">
        <ele>824.0</ele>
        <time>2017-05-27T08:06:10.169Z</time>
      </trkpt>
      <trkpt lat="39.939325" lon="-0.41212167">
        <ele>824.0</ele>
        <time>2017-05-27T08:06:11.163Z</time>
      </trkpt>
      <trkpt lat="39.939325" lon="-0.41212167">
        <ele>824.0</ele>
        <time>2017-05-27T08:06:12.176Z</time>
      </trkpt>
      <trkpt lat="39.93926667" lon="-0.41213667">
        <ele>825.0</ele>
        <time>2017-05-27T08:06:13.190Z</time>
      </trkpt>
      <trkpt lat="39.93924" lon="-0.412145">
        <ele>825.0</ele>
        <time>2017-05-27T08:06:14.163Z</time>
      </trkpt>
      <trkpt lat="39.93924" lon="-0.412145">
        <ele>825.0</ele>
        <time>2017-05-27T08:06:15.183Z</time>
      </trkpt>
      <trkpt lat="39.93918" lon="-0.41216">
        <ele>825.0</ele>
        <time>2017-05-27T08:06:16.184Z</time>
      </trkpt>
      <trkpt lat="39.93915333" lon="-0.41216833">
        <ele>825.0</ele>
        <time>2017-05-27T08:06:17.186Z</time>
      </trkpt>
      <trkpt lat="39.93915333" lon="-0.41216833">
        <ele>825.0</ele>
        <time>2017-05-27T08:06:18.195Z</time>
      </trkpt>
      <trkpt lat="39.93909833" lon="-0.41219667">
        <ele>825.0</ele>
        <time>2017-05-27T08:06:19.165Z</time>
      </trkpt>
      <trkpt lat="39.93909833" lon="-0.41219667">
        <ele>825.0</ele>
        <time>2017-05-27T08:06:20.171Z</time>
      </trkpt>
      <trkpt lat="39.93905" lon="-0.412245">
        <ele>825.0</ele>
        <time>2017-05-27T08:06:21.174Z</time>
      </trkpt>
      <trkpt lat="39.93902833" lon="-0.412285">
        <ele>826.0</ele>
        <time>2017-05-27T08:06:22.185Z</time>
      </trkpt>
      <trkpt lat="39.93900833" lon="-0.41233333">
        <ele>825.0</ele>
        <time>2017-05-27T08:06:23.177Z</time>
      </trkpt>
      <trkpt lat="39.93900833" lon="-0.41233333">
        <ele>825.0</ele>
        <time>2017-05-27T08:06:24.195Z</time>
      </trkpt>
      <trkpt lat="39.93899333" lon="-0.41245333">
        <ele>825.0</ele>
        <time>2017-05-27T08:06:25.195Z</time>
      </trkpt>
      <trkpt lat="39.93900667" lon="-0.41252">
        <ele>824.0</ele>
        <time>2017-05-27T08:06:26.187Z</time>
      </trkpt>
      <trkpt lat="39.93900667" lon="-0.41252">
        <ele>824.0</ele>
        <time>2017-05-27T08:06:27.194Z</time>
      </trkpt>
      <trkpt lat="39.93906333" lon="-0.41267333">
        <ele>823.0</ele>
        <time>2017-05-27T08:06:28.165Z</time>
      </trkpt>
      <trkpt lat="39.93909833" lon="-0.41276167">
        <ele>822.0</ele>
        <time>2017-05-27T08:06:29.165Z</time>
      </trkpt>
      <trkpt lat="39.93909833" lon="-0.41276167">
        <ele>822.0</ele>
        <time>2017-05-27T08:06:30.170Z</time>
      </trkpt>
      <trkpt lat="39.93915" lon="-0.41295833">
        <ele>821.0</ele>
        <time>2017-05-27T08:06:31.175Z</time>
      </trkpt>
      <trkpt lat="39.93915" lon="-0.41295833">
        <ele>821.0</ele>
        <time>2017-05-27T08:06:32.180Z</time>
      </trkpt>
      <trkpt lat="39.93917333" lon="-0.41316667">
        <ele>820.0</ele>
        <time>2017-05-27T08:06:33.195Z</time>
      </trkpt>
      <trkpt lat="39.93917333" lon="-0.41316667">
        <ele>820.0</ele>
        <time>2017-05-27T08:06:34.160Z</time>
      </trkpt>
      <trkpt lat="39.93918833" lon="-0.41334833">
        <ele>819.0</ele>
        <time>2017-05-27T08:06:35.192Z</time>
      </trkpt>
      <trkpt lat="39.93918833" lon="-0.41334833">
        <ele>819.0</ele>
        <time>2017-05-27T08:06:36.161Z</time>
      </trkpt>
      <trkpt lat="39.93919167" lon="-0.41350167">
        <ele>819.0</ele>
        <time>2017-05-27T08:06:37.176Z</time>
      </trkpt>
      <trkpt lat="39.93919167" lon="-0.41350167">
        <ele>819.0</ele>
        <time>2017-05-27T08:06:38.183Z</time>
      </trkpt>
      <trkpt lat="39.93919167" lon="-0.41365167">
        <ele>819.0</ele>
        <time>2017-05-27T08:06:39.170Z</time>
      </trkpt>
      <trkpt lat="39.93919167" lon="-0.41365167">
        <ele>819.0</ele>
        <time>2017-05-27T08:06:40.175Z</time>
      </trkpt>
      <trkpt lat="39.939185" lon="-0.41380833">
        <ele>818.0</ele>
        <time>2017-05-27T08:06:41.179Z</time>
      </trkpt>
      <trkpt lat="39.939185" lon="-0.41380833">
        <ele>818.0</ele>
        <time>2017-05-27T08:06:42.183Z</time>
      </trkpt>
      <trkpt lat="39.93915833" lon="-0.413985">
        <ele>817.0</ele>
        <time>2017-05-27T08:06:43.186Z</time>
      </trkpt>
      <trkpt lat="39.93914833" lon="-0.41408667">
        <ele>816.0</ele>
        <time>2017-05-27T08:06:44.188Z</time>
      </trkpt>
      <trkpt lat="39.93914833" lon="-0.41408667">
        <ele>816.0</ele>
        <time>2017-05-27T08:06:45.193Z</time>
      </trkpt>
      <trkpt lat="39.93913833" lon="-0.41430167">
        <ele>816.0</ele>
        <time>2017-05-27T08:06:46.195Z</time>
      </trkpt>
      <trkpt lat="39.93913833" lon="-0.41430167">
        <ele>816.0</ele>
        <time>2017-05-27T08:06:47.161Z</time>
      </trkpt>
      <trkpt lat="39.93917167" lon="-0.41450333">
        <ele>815.0</ele>
        <time>2017-05-27T08:06:48.156Z</time>
      </trkpt>
      <trkpt lat="39.93917167" lon="-0.41450333">
        <ele>815.0</ele>
        <time>2017-05-27T08:06:49.169Z</time>
      </trkpt>
      <trkpt lat="39.93925333" lon="-0.414655">
        <ele>814.0</ele>
        <time>2017-05-27T08:06:50.175Z</time>
      </trkpt>
      <trkpt lat="39.93930167" lon="-0.41472667">
        <ele>814.0</ele>
        <time>2017-05-27T08:06:51.162Z</time>
      </trkpt>
      <trkpt lat="39.93930167" lon="-0.41472667">
        <ele>814.0</ele>
        <time>2017-05-27T08:06:52.191Z</time>
      </trkpt>
      <trkpt lat="39.939405" lon="-0.41492167">
        <ele>813.0</ele>
        <time>2017-05-27T08:06:53.192Z</time>
      </trkpt>
      <trkpt lat="39.939405" lon="-0.41492167">
        <ele>813.0</ele>
        <time>2017-05-27T08:06:54.157Z</time>
      </trkpt>
      <trkpt lat="39.93949" lon="-0.41517667">
        <ele>811.0</ele>
        <time>2017-05-27T08:06:55.185Z</time>
      </trkpt>
      <trkpt lat="39.93949" lon="-0.41517667">
        <ele>811.0</ele>
        <time>2017-05-27T08:06:56.190Z</time>
      </trkpt>
      <trkpt lat="39.93956833" lon="-0.41543833">
        <ele>809.0</ele>
        <time>2017-05-27T08:06:57.190Z</time>
      </trkpt>
      <trkpt lat="39.93956833" lon="-0.41543833">
        <ele>809.0</ele>
        <time>2017-05-27T08:06:58.156Z</time>
      </trkpt>
      <trkpt lat="39.93964333" lon="-0.41570833">
        <ele>807.0</ele>
        <time>2017-05-27T08:06:59.184Z</time>
      </trkpt>
      <trkpt lat="39.93964333" lon="-0.41570833">
        <ele>807.0</ele>
        <time>2017-05-27T08:07:00.189Z</time>
      </trkpt>
      <trkpt lat="39.93972" lon="-0.41598833">
        <ele>805.0</ele>
        <time>2017-05-27T08:07:01.195Z</time>
      </trkpt>
      <trkpt lat="39.93972" lon="-0.41598833">
        <ele>805.0</ele>
        <time>2017-05-27T08:07:02.160Z</time>
      </trkpt>
      <trkpt lat="39.93981" lon="-0.41628167">
        <ele>803.0</ele>
        <time>2017-05-27T08:07:03.192Z</time>
      </trkpt>
      <trkpt lat="39.93981" lon="-0.41628167">
        <ele>803.0</ele>
        <time>2017-05-27T08:07:04.160Z</time>
      </trkpt>
      <trkpt lat="39.93994" lon="-0.41654">
        <ele>802.0</ele>
        <time>2017-05-27T08:07:05.168Z</time>
      </trkpt>
      <trkpt lat="39.93994" lon="-0.41654">
        <ele>802.0</ele>
        <time>2017-05-27T08:07:06.173Z</time>
      </trkpt>
      <trkpt lat="39.940065" lon="-0.41673667">
        <ele>800.0</ele>
        <time>2017-05-27T08:07:07.188Z</time>
      </trkpt>
      <trkpt lat="39.940065" lon="-0.41673667">
        <ele>800.0</ele>
        <time>2017-05-27T08:07:08.158Z</time>
      </trkpt>
      <trkpt lat="39.94016167" lon="-0.416895">
        <ele>798.0</ele>
        <time>2017-05-27T08:07:09.165Z</time>
      </trkpt>
      <trkpt lat="39.94020333" lon="-0.41697333">
        <ele>797.0</ele>
        <time>2017-05-27T08:07:10.173Z</time>
      </trkpt>
      <trkpt lat="39.94020333" lon="-0.41697333">
        <ele>797.0</ele>
        <time>2017-05-27T08:07:11.178Z</time>
      </trkpt>
      <trkpt lat="39.94028333" lon="-0.41712333">
        <ele>795.0</ele>
        <time>2017-05-27T08:07:12.189Z</time>
      </trkpt>
      <trkpt lat="39.94033333" lon="-0.41718667">
        <ele>794.0</ele>
        <time>2017-05-27T08:07:13.163Z</time>
      </trkpt>
      <trkpt lat="39.94038833" lon="-0.41723333">
        <ele>793.0</ele>
        <time>2017-05-27T08:07:14.167Z</time>
      </trkpt>
      <trkpt lat="39.94038833" lon="-0.41723333">
        <ele>793.0</ele>
        <time>2017-05-27T08:07:15.173Z</time>
      </trkpt>
      <trkpt lat="39.94051333" lon="-0.417305">
        <ele>791.0</ele>
        <time>2017-05-27T08:07:16.175Z</time>
      </trkpt>
      <trkpt lat="39.94051333" lon="-0.417305">
        <ele>791.0</ele>
        <time>2017-05-27T08:07:17.180Z</time>
      </trkpt>
      <trkpt lat="39.94061833" lon="-0.417425">
        <ele>789.0</ele>
        <time>2017-05-27T08:07:18.181Z</time>
      </trkpt>
      <trkpt lat="39.94061833" lon="-0.417425">
        <ele>789.0</ele>
        <time>2017-05-27T08:07:19.186Z</time>
      </trkpt>
      <trkpt lat="39.94069167" lon="-0.41760667">
        <ele>788.0</ele>
        <time>2017-05-27T08:07:20.159Z</time>
      </trkpt>
      <trkpt lat="39.94072" lon="-0.41771333">
        <ele>787.0</ele>
        <time>2017-05-27T08:07:21.195Z</time>
      </trkpt>
      <trkpt lat="39.94072" lon="-0.41771333">
        <ele>787.0</ele>
        <time>2017-05-27T08:07:22.161Z</time>
      </trkpt>
      <trkpt lat="39.94078667" lon="-0.41794833">
        <ele>785.0</ele>
        <time>2017-05-27T08:07:23.164Z</time>
      </trkpt>
      <trkpt lat="39.94078667" lon="-0.41794833">
        <ele>785.0</ele>
        <time>2017-05-27T08:07:24.161Z</time>
      </trkpt>
      <trkpt lat="39.94085833" lon="-0.41818667">
        <ele>784.0</ele>
        <time>2017-05-27T08:07:25.195Z</time>
      </trkpt>
      <trkpt lat="39.94085833" lon="-0.41818667">
        <ele>784.0</ele>
        <time>2017-05-27T08:07:26.161Z</time>
      </trkpt>
      <trkpt lat="39.940945" lon="-0.41843333">
        <ele>782.0</ele>
        <time>2017-05-27T08:07:27.185Z</time>
      </trkpt>
      <trkpt lat="39.940945" lon="-0.41843333">
        <ele>782.0</ele>
        <time>2017-05-27T08:07:28.190Z</time>
      </trkpt>
      <trkpt lat="39.94102667" lon="-0.41869333">
        <ele>780.0</ele>
        <time>2017-05-27T08:07:29.192Z</time>
      </trkpt>
      <trkpt lat="39.94102667" lon="-0.41869333">
        <ele>780.0</ele>
        <time>2017-05-27T08:07:30.159Z</time>
      </trkpt>
      <trkpt lat="39.941105" lon="-0.41896333">
        <ele>779.0</ele>
        <time>2017-05-27T08:07:31.195Z</time>
      </trkpt>
      <trkpt lat="39.941105" lon="-0.41896333">
        <ele>779.0</ele>
        <time>2017-05-27T08:07:32.160Z</time>
      </trkpt>
      <trkpt lat="39.94117" lon="-0.41923833">
        <ele>777.0</ele>
        <time>2017-05-27T08:07:33.162Z</time>
      </trkpt>
      <trkpt lat="39.94117" lon="-0.41923833">
        <ele>777.0</ele>
        <time>2017-05-27T08:07:34.174Z</time>
      </trkpt>
      <trkpt lat="39.94122" lon="-0.419515">
        <ele>776.0</ele>
        <time>2017-05-27T08:07:35.183Z</time>
      </trkpt>
      <trkpt lat="39.94123833" lon="-0.41964333">
        <ele>775.0</ele>
        <time>2017-05-27T08:07:36.188Z</time>
      </trkpt>
      <trkpt lat="39.94123833" lon="-0.41964333">
        <ele>775.0</ele>
        <time>2017-05-27T08:07:37.195Z</time>
      </trkpt>
      <trkpt lat="39.94127167" lon="-0.419895">
        <ele>774.0</ele>
        <time>2017-05-27T08:07:38.165Z</time>
      </trkpt>
      <trkpt lat="39.94127167" lon="-0.419895">
        <ele>774.0</ele>
        <time>2017-05-27T08:07:39.170Z</time>
      </trkpt>
      <trkpt lat="39.94131167" lon="-0.420135">
        <ele>773.0</ele>
        <time>2017-05-27T08:07:40.163Z</time>
      </trkpt>
      <trkpt lat="39.94131167" lon="-0.420135">
        <ele>773.0</ele>
        <time>2017-05-27T08:07:41.172Z</time>
      </trkpt>
      <trkpt lat="39.94132667" lon="-0.42038833">
        <ele>771.0</ele>
        <time>2017-05-27T08:07:42.173Z</time>
      </trkpt>
      <trkpt lat="39.94132667" lon="-0.42038833">
        <ele>771.0</ele>
        <time>2017-05-27T08:07:43.184Z</time>
      </trkpt>
      <trkpt lat="39.94132833" lon="-0.42065167">
        <ele>770.0</ele>
        <time>2017-05-27T08:07:44.184Z</time>
      </trkpt>
      <trkpt lat="39.94132833" lon="-0.42065167">
        <ele>770.0</ele>
        <time>2017-05-27T08:07:45.189Z</time>
      </trkpt>
      <trkpt lat="39.94134" lon="-0.42090167">
        <ele>769.0</ele>
        <time>2017-05-27T08:07:46.195Z</time>
      </trkpt>
      <trkpt lat="39.941355" lon="-0.42102167">
        <ele>768.0</ele>
        <time>2017-05-27T08:07:47.168Z</time>
      </trkpt>
      <trkpt lat="39.941355" lon="-0.42102167">
        <ele>768.0</ele>
        <time>2017-05-27T08:07:48.187Z</time>
      </trkpt>
      <trkpt lat="39.941405" lon="-0.421265">
        <ele>767.0</ele>
        <time>2017-05-27T08:07:49.178Z</time>
      </trkpt>
      <trkpt lat="39.94143833" lon="-0.42139">
        <ele>766.0</ele>
        <time>2017-05-27T08:07:50.165Z</time>
      </trkpt>
      <trkpt lat="39.94143833" lon="-0.42139">
        <ele>766.0</ele>
        <time>2017-05-27T08:07:51.170Z</time>
      </trkpt>
      <trkpt lat="39.94151833" lon="-0.42166167">
        <ele>764.0</ele>
        <time>2017-05-27T08:07:52.195Z</time>
      </trkpt>
      <trkpt lat="39.94156167" lon="-0.42180333">
        <ele>762.0</ele>
        <time>2017-05-27T08:07:53.161Z</time>
      </trkpt>
      <trkpt lat="39.94161" lon="-0.42195">
        <ele>761.0</ele>
        <time>2017-05-27T08:07:54.166Z</time>
      </trkpt>
      <trkpt lat="39.94161" lon="-0.42195">
        <ele>761.0</ele>
        <time>2017-05-27T08:07:55.180Z</time>
      </trkpt>
      <trkpt lat="39.94171667" lon="-0.42225167">
        <ele>758.0</ele>
        <time>2017-05-27T08:07:56.167Z</time>
      </trkpt>
      <trkpt lat="39.94171667" lon="-0.42225167">
        <ele>758.0</ele>
        <time>2017-05-27T08:07:57.176Z</time>
      </trkpt>
      <trkpt lat="39.94183" lon="-0.42254833">
        <ele>756.0</ele>
        <time>2017-05-27T08:07:58.176Z</time>
      </trkpt>
      <trkpt lat="39.94189" lon="-0.42269">
        <ele>755.0</ele>
        <time>2017-05-27T08:07:59.175Z</time>
      </trkpt>
      <trkpt lat="39.94189" lon="-0.42269">
        <ele>755.0</ele>
        <time>2017-05-27T08:08:00.180Z</time>
      </trkpt>
      <trkpt lat="39.941995" lon="-0.42297833">
        <ele>753.0</ele>
        <time>2017-05-27T08:08:01.185Z</time>
      </trkpt>
      <trkpt lat="39.941995" lon="-0.42297833">
        <ele>753.0</ele>
        <time>2017-05-27T08:08:02.190Z</time>
      </trkpt>
      <trkpt lat="39.94207167" lon="-0.42326833">
        <ele>752.0</ele>
        <time>2017-05-27T08:08:03.195Z</time>
      </trkpt>
      <trkpt lat="39.9421" lon="-0.42340333">
        <ele>752.0</ele>
        <time>2017-05-27T08:08:04.195Z</time>
      </trkpt>
      <trkpt lat="39.9421" lon="-0.42340333">
        <ele>752.0</ele>
        <time>2017-05-27T08:08:05.176Z</time>
      </trkpt>
      <trkpt lat="39.94217667" lon="-0.423635">
        <ele>749.0</ele>
        <time>2017-05-27T08:08:06.195Z</time>
      </trkpt>
      <trkpt lat="39.94217667" lon="-0.423635">
        <ele>749.0</ele>
        <time>2017-05-27T08:08:07.160Z</time>
      </trkpt>
      <trkpt lat="39.94230333" lon="-0.42381833">
        <ele>747.0</ele>
        <time>2017-05-27T08:08:08.161Z</time>
      </trkpt>
      <trkpt lat="39.94237667" lon="-0.42391667">
        <ele>746.0</ele>
        <time>2017-05-27T08:08:09.175Z</time>
      </trkpt>
      <trkpt lat="39.94237667" lon="-0.42391667">
        <ele>746.0</ele>
        <time>2017-05-27T08:08:10.181Z</time>
      </trkpt>
      <trkpt lat="39.94256" lon="-0.42410167">
        <ele>744.0</ele>
        <time>2017-05-27T08:08:11.180Z</time>
      </trkpt>
      <trkpt lat="39.94256" lon="-0.42410167">
        <ele>744.0</ele>
        <time>2017-05-27T08:08:12.189Z</time>
      </trkpt>
      <trkpt lat="39.94275667" lon="-0.42424833">
        <ele>742.0</ele>
        <time>2017-05-27T08:08:13.192Z</time>
      </trkpt>
      <trkpt lat="39.94284667" lon="-0.42431833">
        <ele>741.0</ele>
        <time>2017-05-27T08:08:14.176Z</time>
      </trkpt>
      <trkpt lat="39.94284667" lon="-0.42431833">
        <ele>741.0</ele>
        <time>2017-05-27T08:08:15.181Z</time>
      </trkpt>
      <trkpt lat="39.94299333" lon="-0.42447667">
        <ele>739.0</ele>
        <time>2017-05-27T08:08:16.198Z</time>
      </trkpt>
      <trkpt lat="39.94299333" lon="-0.42447667">
        <ele>739.0</ele>
        <time>2017-05-27T08:08:17.187Z</time>
      </trkpt>
      <trkpt lat="39.94309" lon="-0.424705">
        <ele>737.0</ele>
        <time>2017-05-27T08:08:18.195Z</time>
      </trkpt>
      <trkpt lat="39.94309" lon="-0.424705">
        <ele>737.0</ele>
        <time>2017-05-27T08:08:19.161Z</time>
      </trkpt>
      <trkpt lat="39.943165" lon="-0.42495333">
        <ele>735.0</ele>
        <time>2017-05-27T08:08:20.159Z</time>
      </trkpt>
      <trkpt lat="39.943165" lon="-0.42495333">
        <ele>735.0</ele>
        <time>2017-05-27T08:08:21.173Z</time>
      </trkpt>
      <trkpt lat="39.94320667" lon="-0.425205">
        <ele>733.0</ele>
        <time>2017-05-27T08:08:22.163Z</time>
      </trkpt>
      <trkpt lat="39.94321" lon="-0.42534333">
        <ele>732.0</ele>
        <time>2017-05-27T08:08:23.166Z</time>
      </trkpt>
      <trkpt lat="39.94321" lon="-0.42534333">
        <ele>732.0</ele>
        <time>2017-05-27T08:08:24.171Z</time>
      </trkpt>
      <trkpt lat="39.94325" lon="-0.42562167">
        <ele>730.0</ele>
        <time>2017-05-27T08:08:25.175Z</time>
      </trkpt>
      <trkpt lat="39.94325" lon="-0.42562167">
        <ele>730.0</ele>
        <time>2017-05-27T08:08:26.180Z</time>
      </trkpt>
      <trkpt lat="39.94332833" lon="-0.42585333">
        <ele>729.0</ele>
        <time>2017-05-27T08:08:27.174Z</time>
      </trkpt>
      <trkpt lat="39.94332833" lon="-0.42585333">
        <ele>729.0</ele>
        <time>2017-05-27T08:08:28.179Z</time>
      </trkpt>
      <trkpt lat="39.94333333" lon="-0.42606833">
        <ele>727.0</ele>
        <time>2017-05-27T08:08:29.173Z</time>
      </trkpt>
      <trkpt lat="39.94333333" lon="-0.42606833">
        <ele>727.0</ele>
        <time>2017-05-27T08:08:30.178Z</time>
      </trkpt>
      <trkpt lat="39.943265" lon="-0.42623667">
        <ele>727.0</ele>
        <time>2017-05-27T08:08:31.186Z</time>
      </trkpt>
      <trkpt lat="39.94322833" lon="-0.42631833">
        <ele>726.0</ele>
        <time>2017-05-27T08:08:32.166Z</time>
      </trkpt>
      <trkpt lat="39.94322833" lon="-0.42631833">
        <ele>726.0</ele>
        <time>2017-05-27T08:08:33.192Z</time>
      </trkpt>
      <trkpt lat="39.943185" lon="-0.42649667">
        <ele>726.0</ele>
        <time>2017-05-27T08:08:34.165Z</time>
      </trkpt>
      <trkpt lat="39.94317" lon="-0.42659167">
        <ele>726.0</ele>
        <time>2017-05-27T08:08:35.185Z</time>
      </trkpt>
      <trkpt lat="39.94317" lon="-0.42659167">
        <ele>726.0</ele>
        <time>2017-05-27T08:08:36.191Z</time>
      </trkpt>
      <trkpt lat="39.94314333" lon="-0.42679">
        <ele>725.0</ele>
        <time>2017-05-27T08:08:37.195Z</time>
      </trkpt>
      <trkpt lat="39.94314333" lon="-0.42679">
        <ele>725.0</ele>
        <time>2017-05-27T08:08:38.162Z</time>
      </trkpt>
      <trkpt lat="39.94314333" lon="-0.42702">
        <ele>724.0</ele>
        <time>2017-05-27T08:08:39.175Z</time>
      </trkpt>
      <trkpt lat="39.94314333" lon="-0.42702">
        <ele>724.0</ele>
        <time>2017-05-27T08:08:40.180Z</time>
      </trkpt>
      <trkpt lat="39.94324333" lon="-0.42722333">
        <ele>722.0</ele>
        <time>2017-05-27T08:08:41.182Z</time>
      </trkpt>
      <trkpt lat="39.94324333" lon="-0.42722333">
        <ele>722.0</ele>
        <time>2017-05-27T08:08:42.188Z</time>
      </trkpt>
      <trkpt lat="39.94339" lon="-0.42738833">
        <ele>721.0</ele>
        <time>2017-05-27T08:08:43.180Z</time>
      </trkpt>
      <trkpt lat="39.94339" lon="-0.42738833">
        <ele>721.0</ele>
        <time>2017-05-27T08:08:44.161Z</time>
      </trkpt>
      <trkpt lat="39.94352" lon="-0.42758833">
        <ele>719.0</ele>
        <time>2017-05-27T08:08:45.195Z</time>
      </trkpt>
      <trkpt lat="39.94352" lon="-0.42758833">
        <ele>719.0</ele>
        <time>2017-05-27T08:08:46.160Z</time>
      </trkpt>
      <trkpt lat="39.94362167" lon="-0.42778833">
        <ele>717.0</ele>
        <time>2017-05-27T08:08:47.177Z</time>
      </trkpt>
      <trkpt lat="39.94362167" lon="-0.42778833">
        <ele>717.0</ele>
        <time>2017-05-27T08:08:48.182Z</time>
      </trkpt>
      <trkpt lat="39.94369667" lon="-0.42797833">
        <ele>716.0</ele>
        <time>2017-05-27T08:08:49.183Z</time>
      </trkpt>
      <trkpt lat="39.94369667" lon="-0.42797833">
        <ele>716.0</ele>
        <time>2017-05-27T08:08:50.189Z</time>
      </trkpt>
      <trkpt lat="39.94375" lon="-0.42816">
        <ele>714.0</ele>
        <time>2017-05-27T08:08:51.158Z</time>
      </trkpt>
      <trkpt lat="39.94375" lon="-0.42816">
        <ele>714.0</ele>
        <time>2017-05-27T08:08:52.163Z</time>
      </trkpt>
      <trkpt lat="39.94379333" lon="-0.42836167">
        <ele>713.0</ele>
        <time>2017-05-27T08:08:53.169Z</time>
      </trkpt>
      <trkpt lat="39.94379333" lon="-0.42836167">
        <ele>713.0</ele>
        <time>2017-05-27T08:08:54.174Z</time>
      </trkpt>
      <trkpt lat="39.94384" lon="-0.428555">
        <ele>711.0</ele>
        <time>2017-05-27T08:08:55.185Z</time>
      </trkpt>
      <trkpt lat="39.94386167" lon="-0.42863167">
        <ele>711.0</ele>
        <time>2017-05-27T08:08:56.185Z</time>
      </trkpt>
      <trkpt lat="39.94386167" lon="-0.42863167">
        <ele>711.0</ele>
        <time>2017-05-27T08:08:57.191Z</time>
      </trkpt>
      <trkpt lat="39.94389833" lon="-0.42877">
        <ele>710.0</ele>
        <time>2017-05-27T08:08:58.177Z</time>
      </trkpt>
      <trkpt lat="39.94391" lon="-0.42883667">
        <ele>710.0</ele>
        <time>2017-05-27T08:08:59.165Z</time>
      </trkpt>
      <trkpt lat="39.94391667" lon="-0.428905">
        <ele>710.0</ele>
        <time>2017-05-27T08:09:00.160Z</time>
      </trkpt>
      <trkpt lat="39.94391667" lon="-0.428905">
        <ele>710.0</ele>
        <time>2017-05-27T08:09:01.166Z</time>
      </trkpt>
      <trkpt lat="39.94394" lon="-0.42903667">
        <ele>710.0</ele>
        <time>2017-05-27T08:09:02.175Z</time>
      </trkpt>
      <trkpt lat="39.94394" lon="-0.42903667">
        <ele>710.0</ele>
        <time>2017-05-27T08:09:03.181Z</time>
      </trkpt>
      <trkpt lat="39.943965" lon="-0.42917">
        <ele>710.0</ele>
        <time>2017-05-27T08:09:04.185Z</time>
      </trkpt>
      <trkpt lat="39.94398333" lon="-0.42923833">
        <ele>710.0</ele>
        <time>2017-05-27T08:09:05.186Z</time>
      </trkpt>
      <trkpt lat="39.94398333" lon="-0.42923833">
        <ele>710.0</ele>
        <time>2017-05-27T08:09:06.191Z</time>
      </trkpt>
      <trkpt lat="39.94403" lon="-0.42938667">
        <ele>710.0</ele>
        <time>2017-05-27T08:09:07.189Z</time>
      </trkpt>
      <trkpt lat="39.94403" lon="-0.42938667">
        <ele>710.0</ele>
        <time>2017-05-27T08:09:08.158Z</time>
      </trkpt>
      <trkpt lat="39.94410167" lon="-0.42953667">
        <ele>709.0</ele>
        <time>2017-05-27T08:09:09.170Z</time>
      </trkpt>
      <trkpt lat="39.94410167" lon="-0.42953667">
        <ele>709.0</ele>
        <time>2017-05-27T08:09:10.175Z</time>
      </trkpt>
      <trkpt lat="39.944185" lon="-0.42970833">
        <ele>708.0</ele>
        <time>2017-05-27T08:09:11.175Z</time>
      </trkpt>
      <trkpt lat="39.944185" lon="-0.42970833">
        <ele>708.0</ele>
        <time>2017-05-27T08:09:12.180Z</time>
      </trkpt>
      <trkpt lat="39.94427333" lon="-0.42991167">
        <ele>706.0</ele>
        <time>2017-05-27T08:09:13.160Z</time>
      </trkpt>
      <trkpt lat="39.944325" lon="-0.43002167">
        <ele>705.0</ele>
        <time>2017-05-27T08:09:14.163Z</time>
      </trkpt>
      <trkpt lat="39.94437833" lon="-0.430125">
        <ele>704.0</ele>
        <time>2017-05-27T08:09:15.170Z</time>
      </trkpt>
      <trkpt lat="39.94437833" lon="-0.430125">
        <ele>704.0</ele>
        <time>2017-05-27T08:09:16.188Z</time>
      </trkpt>
      <trkpt lat="39.944505" lon="-0.43030833">
        <ele>703.0</ele>
        <time>2017-05-27T08:09:17.185Z</time>
      </trkpt>
      <trkpt lat="39.944505" lon="-0.43030833">
        <ele>703.0</ele>
        <time>2017-05-27T08:09:18.190Z</time>
      </trkpt>
      <trkpt lat="39.94461333" lon="-0.43048333">
        <ele>701.0</ele>
        <time>2017-05-27T08:09:19.165Z</time>
      </trkpt>
      <trkpt lat="39.94461333" lon="-0.43048333">
        <ele>701.0</ele>
        <time>2017-05-27T08:09:20.185Z</time>
      </trkpt>
      <trkpt lat="39.94469833" lon="-0.430725">
        <ele>699.0</ele>
        <time>2017-05-27T08:09:21.180Z</time>
      </trkpt>
      <trkpt lat="39.94469833" lon="-0.430725">
        <ele>699.0</ele>
        <time>2017-05-27T08:09:22.186Z</time>
      </trkpt>
      <trkpt lat="39.944795" lon="-0.43101167">
        <ele>697.0</ele>
        <time>2017-05-27T08:09:23.178Z</time>
      </trkpt>
      <trkpt lat="39.94485" lon="-0.43115667">
        <ele>696.0</ele>
        <time>2017-05-27T08:09:24.184Z</time>
      </trkpt>
      <trkpt lat="39.94485" lon="-0.43115667">
        <ele>696.0</ele>
        <time>2017-05-27T08:09:25.189Z</time>
      </trkpt>
      <trkpt lat="39.94497" lon="-0.43141667">
        <ele>694.0</ele>
        <time>2017-05-27T08:09:26.185Z</time>
      </trkpt>
      <trkpt lat="39.94504" lon="-0.43152667">
        <ele>694.0</ele>
        <time>2017-05-27T08:09:27.171Z</time>
      </trkpt>
      <trkpt lat="39.94504" lon="-0.43152667">
        <ele>694.0</ele>
        <time>2017-05-27T08:09:28.176Z</time>
      </trkpt>
      <trkpt lat="39.94519667" lon="-0.43169">
        <ele>692.0</ele>
        <time>2017-05-27T08:09:29.161Z</time>
      </trkpt>
      <trkpt lat="39.94519667" lon="-0.43169">
        <ele>692.0</ele>
        <time>2017-05-27T08:09:30.168Z</time>
      </trkpt>
      <trkpt lat="39.94531833" lon="-0.43186167">
        <ele>691.0</ele>
        <time>2017-05-27T08:09:31.156Z</time>
      </trkpt>
      <trkpt lat="39.945365" lon="-0.43195333">
        <ele>690.0</ele>
        <time>2017-05-27T08:09:32.156Z</time>
      </trkpt>
      <trkpt lat="39.945365" lon="-0.43195333">
        <ele>690.0</ele>
        <time>2017-05-27T08:09:33.170Z</time>
      </trkpt>
      <trkpt lat="39.94547333" lon="-0.432075">
        <ele>688.0</ele>
        <time>2017-05-27T08:09:34.158Z</time>
      </trkpt>
      <trkpt lat="39.94554" lon="-0.432085">
        <ele>688.0</ele>
        <time>2017-05-27T08:09:35.160Z</time>
      </trkpt>
      <trkpt lat="39.94554" lon="-0.432085">
        <ele>688.0</ele>
        <time>2017-05-27T08:09:36.167Z</time>
      </trkpt>
      <trkpt lat="39.94566333" lon="-0.43206167">
        <ele>686.0</ele>
        <time>2017-05-27T08:09:37.192Z</time>
      </trkpt>
      <trkpt lat="39.94571333" lon="-0.43204667">
        <ele>686.0</ele>
        <time>2017-05-27T08:09:38.195Z</time>
      </trkpt>
      <trkpt lat="39.94571333" lon="-0.43204667">
        <ele>686.0</ele>
        <time>2017-05-27T08:09:39.162Z</time>
      </trkpt>
      <trkpt lat="39.945825" lon="-0.43211167">
        <ele>685.0</ele>
        <time>2017-05-27T08:09:40.159Z</time>
      </trkpt>
      <trkpt lat="39.945825" lon="-0.43211167">
        <ele>685.0</ele>
        <time>2017-05-27T08:09:41.175Z</time>
      </trkpt>
      <trkpt lat="39.94589333" lon="-0.43225667">
        <ele>684.0</ele>
        <time>2017-05-27T08:09:42.177Z</time>
      </trkpt>
      <trkpt lat="39.94589333" lon="-0.43225667">
        <ele>684.0</ele>
        <time>2017-05-27T08:09:43.183Z</time>
      </trkpt>
      <trkpt lat="39.945955" lon="-0.43242667">
        <ele>683.0</ele>
        <time>2017-05-27T08:09:44.170Z</time>
      </trkpt>
      <trkpt lat="39.945995" lon="-0.43250667">
        <ele>682.0</ele>
        <time>2017-05-27T08:09:45.195Z</time>
      </trkpt>
      <trkpt lat="39.945995" lon="-0.43250667">
        <ele>682.0</ele>
        <time>2017-05-27T08:09:46.163Z</time>
      </trkpt>
      <trkpt lat="39.94611167" lon="-0.43261667">
        <ele>681.0</ele>
        <time>2017-05-27T08:09:47.166Z</time>
      </trkpt>
      <trkpt lat="39.94611167" lon="-0.43261667">
        <ele>681.0</ele>
        <time>2017-05-27T08:09:48.188Z</time>
      </trkpt>
      <trkpt lat="39.94625167" lon="-0.432655">
        <ele>680.0</ele>
        <time>2017-05-27T08:09:49.185Z</time>
      </trkpt>
      <trkpt lat="39.94625167" lon="-0.432655">
        <ele>680.0</ele>
        <time>2017-05-27T08:09:50.190Z</time>
      </trkpt>
      <trkpt lat="39.94640667" lon="-0.43265333">
        <ele>679.0</ele>
        <time>2017-05-27T08:09:51.183Z</time>
      </trkpt>
      <trkpt lat="39.94640667" lon="-0.43265333">
        <ele>679.0</ele>
        <time>2017-05-27T08:09:52.157Z</time>
      </trkpt>
      <trkpt lat="39.94657" lon="-0.43271167">
        <ele>678.0</ele>
        <time>2017-05-27T08:09:53.185Z</time>
      </trkpt>
      <trkpt lat="39.94657" lon="-0.43271167">
        <ele>678.0</ele>
        <time>2017-05-27T08:09:54.192Z</time>
      </trkpt>
      <trkpt lat="39.94671833" lon="-0.43281833">
        <ele>677.0</ele>
        <time>2017-05-27T08:09:55.188Z</time>
      </trkpt>
      <trkpt lat="39.94671833" lon="-0.43281833">
        <ele>677.0</ele>
        <time>2017-05-27T08:09:56.160Z</time>
      </trkpt>
      <trkpt lat="39.946905" lon="-0.43292">
        <ele>676.0</ele>
        <time>2017-05-27T08:09:57.160Z</time>
      </trkpt>
      <trkpt lat="39.946905" lon="-0.43292">
        <ele>676.0</ele>
        <time>2017-05-27T08:09:58.169Z</time>
      </trkpt>
      <trkpt lat="39.94708833" lon="-0.43302333">
        <ele>675.0</ele>
        <time>2017-05-27T08:09:59.160Z</time>
      </trkpt>
      <trkpt lat="39.94708833" lon="-0.43302333">
        <ele>675.0</ele>
        <time>2017-05-27T08:10:00.173Z</time>
      </trkpt>
      <trkpt lat="39.94726333" lon="-0.43311167">
        <ele>674.0</ele>
        <time>2017-05-27T08:10:01.164Z</time>
      </trkpt>
      <trkpt lat="39.94726333" lon="-0.43311167">
        <ele>674.0</ele>
        <time>2017-05-27T08:10:02.158Z</time>
      </trkpt>
      <trkpt lat="39.94744333" lon="-0.433185">
        <ele>673.0</ele>
        <time>2017-05-27T08:10:03.184Z</time>
      </trkpt>
      <trkpt lat="39.94744333" lon="-0.433185">
        <ele>673.0</ele>
        <time>2017-05-27T08:10:04.166Z</time>
      </trkpt>
      <trkpt lat="39.947625" lon="-0.43325333">
        <ele>672.0</ele>
        <time>2017-05-27T08:10:05.177Z</time>
      </trkpt>
      <trkpt lat="39.947625" lon="-0.43325333">
        <ele>672.0</ele>
        <time>2017-05-27T08:10:06.182Z</time>
      </trkpt>
      <trkpt lat="39.947805" lon="-0.43332667">
        <ele>671.0</ele>
        <time>2017-05-27T08:10:07.174Z</time>
      </trkpt>
      <trkpt lat="39.947805" lon="-0.43332667">
        <ele>671.0</ele>
        <time>2017-05-27T08:10:08.183Z</time>
      </trkpt>
      <trkpt lat="39.947975" lon="-0.43344667">
        <ele>671.0</ele>
        <time>2017-05-27T08:10:09.181Z</time>
      </trkpt>
      <trkpt lat="39.947975" lon="-0.43344667">
        <ele>671.0</ele>
        <time>2017-05-27T08:10:10.189Z</time>
      </trkpt>
      <trkpt lat="39.94812" lon="-0.43361">
        <ele>670.0</ele>
        <time>2017-05-27T08:10:11.169Z</time>
      </trkpt>
      <trkpt lat="39.94812" lon="-0.43361">
        <ele>670.0</ele>
        <time>2017-05-27T08:10:12.185Z</time>
      </trkpt>
      <trkpt lat="39.948275" lon="-0.43377833">
        <ele>670.0</ele>
        <time>2017-05-27T08:10:13.193Z</time>
      </trkpt>
      <trkpt lat="39.94836" lon="-0.43384833">
        <ele>669.0</ele>
        <time>2017-05-27T08:10:14.180Z</time>
      </trkpt>
      <trkpt lat="39.94836" lon="-0.43384833">
        <ele>669.0</ele>
        <time>2017-05-27T08:10:15.185Z</time>
      </trkpt>
      <trkpt lat="39.94854" lon="-0.43396667">
        <ele>668.0</ele>
        <time>2017-05-27T08:10:16.179Z</time>
      </trkpt>
      <trkpt lat="39.94861833" lon="-0.43402833">
        <ele>668.0</ele>
        <time>2017-05-27T08:10:17.168Z</time>
      </trkpt>
      <trkpt lat="39.94861833" lon="-0.43402833">
        <ele>668.0</ele>
        <time>2017-05-27T08:10:18.173Z</time>
      </trkpt>
      <trkpt lat="39.948705" lon="-0.434205">
        <ele>668.0</ele>
        <time>2017-05-27T08:10:19.164Z</time>
      </trkpt>
      <trkpt lat="39.948705" lon="-0.434205">
        <ele>668.0</ele>
        <time>2017-05-27T08:10:20.188Z</time>
      </trkpt>
      <trkpt lat="39.94877333" lon="-0.434385">
        <ele>668.0</ele>
        <time>2017-05-27T08:10:21.182Z</time>
      </trkpt>
      <trkpt lat="39.94877333" lon="-0.434385">
        <ele>668.0</ele>
        <time>2017-05-27T08:10:22.190Z</time>
      </trkpt>
      <trkpt lat="39.948845" lon="-0.43458">
        <ele>667.0</ele>
        <time>2017-05-27T08:10:23.193Z</time>
      </trkpt>
      <trkpt lat="39.948845" lon="-0.43458">
        <ele>667.0</ele>
        <time>2017-05-27T08:10:24.159Z</time>
      </trkpt>
      <trkpt lat="39.94892" lon="-0.43477">
        <ele>667.0</ele>
        <time>2017-05-27T08:10:25.174Z</time>
      </trkpt>
      <trkpt lat="39.94892" lon="-0.43477">
        <ele>667.0</ele>
        <time>2017-05-27T08:10:26.189Z</time>
      </trkpt>
      <trkpt lat="39.94899833" lon="-0.43496333">
        <ele>666.0</ele>
        <time>2017-05-27T08:10:27.188Z</time>
      </trkpt>
      <trkpt lat="39.94899833" lon="-0.43496333">
        <ele>666.0</ele>
        <time>2017-05-27T08:10:28.193Z</time>
      </trkpt>
      <trkpt lat="39.94907167" lon="-0.43515333">
        <ele>666.0</ele>
        <time>2017-05-27T08:10:29.184Z</time>
      </trkpt>
      <trkpt lat="39.94907167" lon="-0.43515333">
        <ele>666.0</ele>
        <time>2017-05-27T08:10:30.189Z</time>
      </trkpt>
      <trkpt lat="39.94910667" lon="-0.43535167">
        <ele>665.0</ele>
        <time>2017-05-27T08:10:31.182Z</time>
      </trkpt>
      <trkpt lat="39.949105" lon="-0.43546833">
        <ele>664.0</ele>
        <time>2017-05-27T08:10:32.161Z</time>
      </trkpt>
      <trkpt lat="39.949105" lon="-0.43546833">
        <ele>664.0</ele>
        <time>2017-05-27T08:10:33.166Z</time>
      </trkpt>
      <trkpt lat="39.94910333" lon="-0.435745">
        <ele>662.0</ele>
        <time>2017-05-27T08:10:34.163Z</time>
      </trkpt>
      <trkpt lat="39.94913" lon="-0.43588">
        <ele>661.0</ele>
        <time>2017-05-27T08:10:35.160Z</time>
      </trkpt>
      <trkpt lat="39.94913" lon="-0.43588">
        <ele>661.0</ele>
        <time>2017-05-27T08:10:36.167Z</time>
      </trkpt>
      <trkpt lat="39.949235" lon="-0.436125">
        <ele>660.0</ele>
        <time>2017-05-27T08:10:37.183Z</time>
      </trkpt>
      <trkpt lat="39.949305" lon="-0.43622333">
        <ele>659.0</ele>
        <time>2017-05-27T08:10:38.176Z</time>
      </trkpt>
      <trkpt lat="39.949305" lon="-0.43622333">
        <ele>659.0</ele>
        <time>2017-05-27T08:10:39.181Z</time>
      </trkpt>
      <trkpt lat="39.94943667" lon="-0.43636333">
        <ele>658.0</ele>
        <time>2017-05-27T08:10:40.186Z</time>
      </trkpt>
      <trkpt lat="39.94949167" lon="-0.43643">
        <ele>658.0</ele>
        <time>2017-05-27T08:10:41.173Z</time>
      </trkpt>
      <trkpt lat="39.94949167" lon="-0.43643">
        <ele>658.0</ele>
        <time>2017-05-27T08:10:42.178Z</time>
      </trkpt>
      <trkpt lat="39.94955667" lon="-0.436595">
        <ele>657.0</ele>
        <time>2017-05-27T08:10:43.173Z</time>
      </trkpt>
      <trkpt lat="39.94955667" lon="-0.436595">
        <ele>657.0</ele>
        <time>2017-05-27T08:10:44.189Z</time>
      </trkpt>
      <trkpt lat="39.94953333" lon="-0.436805">
        <ele>656.0</ele>
        <time>2017-05-27T08:10:45.191Z</time>
      </trkpt>
      <trkpt lat="39.94953333" lon="-0.436805">
        <ele>656.0</ele>
        <time>2017-05-27T08:10:46.159Z</time>
      </trkpt>
      <trkpt lat="39.949455" lon="-0.43700667">
        <ele>654.0</ele>
        <time>2017-05-27T08:10:47.185Z</time>
      </trkpt>
      <trkpt lat="39.949455" lon="-0.43700667">
        <ele>654.0</ele>
        <time>2017-05-27T08:10:48.190Z</time>
      </trkpt>
      <trkpt lat="39.94939333" lon="-0.4372">
        <ele>653.0</ele>
        <time>2017-05-27T08:10:49.158Z</time>
      </trkpt>
      <trkpt lat="39.949375" lon="-0.43729667">
        <ele>653.0</ele>
        <time>2017-05-27T08:10:50.193Z</time>
      </trkpt>
      <trkpt lat="39.949375" lon="-0.43729667">
        <ele>653.0</ele>
        <time>2017-05-27T08:10:51.160Z</time>
      </trkpt>
      <trkpt lat="39.94934167" lon="-0.43749167">
        <ele>652.0</ele>
        <time>2017-05-27T08:10:52.185Z</time>
      </trkpt>
      <trkpt lat="39.94932667" lon="-0.43758667">
        <ele>651.0</ele>
        <time>2017-05-27T08:10:53.176Z</time>
      </trkpt>
      <trkpt lat="39.94932667" lon="-0.43758667">
        <ele>651.0</ele>
        <time>2017-05-27T08:10:54.181Z</time>
      </trkpt>
      <trkpt lat="39.94931333" lon="-0.43778167">
        <ele>651.0</ele>
        <time>2017-05-27T08:10:55.165Z</time>
      </trkpt>
      <trkpt lat="39.94931333" lon="-0.43778167">
        <ele>651.0</ele>
        <time>2017-05-27T08:10:56.174Z</time>
      </trkpt>
      <trkpt lat="39.94931667" lon="-0.43798">
        <ele>650.0</ele>
        <time>2017-05-27T08:10:57.165Z</time>
      </trkpt>
      <trkpt lat="39.94931667" lon="-0.43798">
        <ele>650.0</ele>
        <time>2017-05-27T08:10:58.160Z</time>
      </trkpt>
      <trkpt lat="39.949325" lon="-0.438175">
        <ele>650.0</ele>
        <time>2017-05-27T08:10:59.185Z</time>
      </trkpt>
      <trkpt lat="39.949325" lon="-0.438175">
        <ele>650.0</ele>
        <time>2017-05-27T08:11:00.190Z</time>
      </trkpt>
      <trkpt lat="39.94932833" lon="-0.43835">
        <ele>649.0</ele>
        <time>2017-05-27T08:11:01.174Z</time>
      </trkpt>
      <trkpt lat="39.94932167" lon="-0.43843167">
        <ele>649.0</ele>
        <time>2017-05-27T08:11:02.193Z</time>
      </trkpt>
      <trkpt lat="39.94932167" lon="-0.43843167">
        <ele>649.0</ele>
        <time>2017-05-27T08:11:03.158Z</time>
      </trkpt>
      <trkpt lat="39.94929" lon="-0.438585">
        <ele>649.0</ele>
        <time>2017-05-27T08:11:04.180Z</time>
      </trkpt>
      <trkpt lat="39.949265" lon="-0.43865667">
        <ele>649.0</ele>
        <time>2017-05-27T08:11:05.164Z</time>
      </trkpt>
      <trkpt lat="39.949265" lon="-0.43865667">
        <ele>649.0</ele>
        <time>2017-05-27T08:11:06.190Z</time>
      </trkpt>
      <trkpt lat="39.94922667" lon="-0.438795">
        <ele>648.0</ele>
        <time>2017-05-27T08:11:07.189Z</time>
      </trkpt>
      <trkpt lat="39.94922667" lon="-0.438795">
        <ele>648.0</ele>
        <time>2017-05-27T08:11:08.156Z</time>
      </trkpt>
      <trkpt lat="39.949255" lon="-0.43894333">
        <ele>648.0</ele>
        <time>2017-05-27T08:11:09.183Z</time>
      </trkpt>
      <trkpt lat="39.949255" lon="-0.43894333">
        <ele>648.0</ele>
        <time>2017-05-27T08:11:10.164Z</time>
      </trkpt>
      <trkpt lat="39.94936" lon="-0.43904667">
        <ele>648.0</ele>
        <time>2017-05-27T08:11:11.196Z</time>
      </trkpt>
      <trkpt lat="39.94936" lon="-0.43904667">
        <ele>648.0</ele>
        <time>2017-05-27T08:11:12.163Z</time>
      </trkpt>
      <trkpt lat="39.94945333" lon="-0.43917833">
        <ele>648.0</ele>
        <time>2017-05-27T08:11:13.167Z</time>
      </trkpt>
      <trkpt lat="39.94945333" lon="-0.43917833">
        <ele>648.0</ele>
        <time>2017-05-27T08:11:14.183Z</time>
      </trkpt>
      <trkpt lat="39.94950833" lon="-0.43932333">
        <ele>649.0</ele>
        <time>2017-05-27T08:11:15.177Z</time>
      </trkpt>
      <trkpt lat="39.94950833" lon="-0.43932333">
        <ele>649.0</ele>
        <time>2017-05-27T08:11:16.189Z</time>
      </trkpt>
      <trkpt lat="39.949555" lon="-0.439475">
        <ele>649.0</ele>
        <time>2017-05-27T08:11:17.181Z</time>
      </trkpt>
      <trkpt lat="39.949555" lon="-0.439475">
        <ele>649.0</ele>
        <time>2017-05-27T08:11:18.187Z</time>
      </trkpt>
      <trkpt lat="39.949595" lon="-0.43963667">
        <ele>649.0</ele>
        <time>2017-05-27T08:11:19.159Z</time>
      </trkpt>
      <trkpt lat="39.949595" lon="-0.43963667">
        <ele>649.0</ele>
        <time>2017-05-27T08:11:20.175Z</time>
      </trkpt>
      <trkpt lat="39.949645" lon="-0.43982167">
        <ele>648.0</ele>
        <time>2017-05-27T08:11:21.190Z</time>
      </trkpt>
      <trkpt lat="39.949645" lon="-0.43982167">
        <ele>648.0</ele>
        <time>2017-05-27T08:11:22.165Z</time>
      </trkpt>
      <trkpt lat="39.949685" lon="-0.44002667">
        <ele>648.0</ele>
        <time>2017-05-27T08:11:23.164Z</time>
      </trkpt>
      <trkpt lat="39.949685" lon="-0.44002667">
        <ele>648.0</ele>
        <time>2017-05-27T08:11:24.175Z</time>
      </trkpt>
      <trkpt lat="39.94971167" lon="-0.44024667">
        <ele>647.0</ele>
        <time>2017-05-27T08:11:25.172Z</time>
      </trkpt>
      <trkpt lat="39.94971167" lon="-0.44024667">
        <ele>647.0</ele>
        <time>2017-05-27T08:11:26.177Z</time>
      </trkpt>
      <trkpt lat="39.94974333" lon="-0.44047667">
        <ele>647.0</ele>
        <time>2017-05-27T08:11:27.173Z</time>
      </trkpt>
      <trkpt lat="39.94976" lon="-0.44058833">
        <ele>646.0</ele>
        <time>2017-05-27T08:11:28.175Z</time>
      </trkpt>
      <trkpt lat="39.94976" lon="-0.44058833">
        <ele>646.0</ele>
        <time>2017-05-27T08:11:29.181Z</time>
      </trkpt>
      <trkpt lat="39.94977" lon="-0.44079333">
        <ele>646.0</ele>
        <time>2017-05-27T08:11:30.176Z</time>
      </trkpt>
      <trkpt lat="39.94977" lon="-0.44079333">
        <ele>646.0</ele>
        <time>2017-05-27T08:11:31.164Z</time>
      </trkpt>
      <trkpt lat="39.949735" lon="-0.44096667">
        <ele>645.0</ele>
        <time>2017-05-27T08:11:32.188Z</time>
      </trkpt>
      <trkpt lat="39.949735" lon="-0.44096667">
        <ele>645.0</ele>
        <time>2017-05-27T08:11:33.193Z</time>
      </trkpt>
      <trkpt lat="39.94965" lon="-0.441135">
        <ele>644.0</ele>
        <time>2017-05-27T08:11:34.157Z</time>
      </trkpt>
      <trkpt lat="39.949605" lon="-0.441225">
        <ele>644.0</ele>
        <time>2017-05-27T08:11:35.167Z</time>
      </trkpt>
      <trkpt lat="39.949605" lon="-0.441225">
        <ele>644.0</ele>
        <time>2017-05-27T08:11:36.172Z</time>
      </trkpt>
      <trkpt lat="39.94950167" lon="-0.44145833">
        <ele>643.0</ele>
        <time>2017-05-27T08:11:37.179Z</time>
      </trkpt>
      <trkpt lat="39.94946333" lon="-0.44159667">
        <ele>642.0</ele>
        <time>2017-05-27T08:11:38.160Z</time>
      </trkpt>
      <trkpt lat="39.94946333" lon="-0.44159667">
        <ele>642.0</ele>
        <time>2017-05-27T08:11:39.171Z</time>
      </trkpt>
      <trkpt lat="39.94944667" lon="-0.44187">
        <ele>641.0</ele>
        <time>2017-05-27T08:11:40.166Z</time>
      </trkpt>
      <trkpt lat="39.94946" lon="-0.44199833">
        <ele>641.0</ele>
        <time>2017-05-27T08:11:41.172Z</time>
      </trkpt>
      <trkpt lat="39.94946" lon="-0.44199833">
        <ele>641.0</ele>
        <time>2017-05-27T08:11:42.181Z</time>
      </trkpt>
      <trkpt lat="39.94946667" lon="-0.44223">
        <ele>640.0</ele>
        <time>2017-05-27T08:11:43.176Z</time>
      </trkpt>
      <trkpt lat="39.949455" lon="-0.44233667">
        <ele>640.0</ele>
        <time>2017-05-27T08:11:44.175Z</time>
      </trkpt>
      <trkpt lat="39.949455" lon="-0.44233667">
        <ele>640.0</ele>
        <time>2017-05-27T08:11:45.182Z</time>
      </trkpt>
      <trkpt lat="39.949395" lon="-0.44253167">
        <ele>639.0</ele>
        <time>2017-05-27T08:11:46.183Z</time>
      </trkpt>
      <trkpt lat="39.949355" lon="-0.44261167">
        <ele>639.0</ele>
        <time>2017-05-27T08:11:47.177Z</time>
      </trkpt>
      <trkpt lat="39.949355" lon="-0.44261167">
        <ele>639.0</ele>
        <time>2017-05-27T08:11:48.182Z</time>
      </trkpt>
      <trkpt lat="39.94926833" lon="-0.44276667">
        <ele>638.0</ele>
        <time>2017-05-27T08:11:49.182Z</time>
      </trkpt>
      <trkpt lat="39.94926833" lon="-0.44276667">
        <ele>638.0</ele>
        <time>2017-05-27T08:11:50.187Z</time>
      </trkpt>
      <trkpt lat="39.94919833" lon="-0.44293833">
        <ele>637.0</ele>
        <time>2017-05-27T08:11:51.185Z</time>
      </trkpt>
      <trkpt lat="39.94919833" lon="-0.44293833">
        <ele>637.0</ele>
        <time>2017-05-27T08:11:52.190Z</time>
      </trkpt>
      <trkpt lat="39.94915333" lon="-0.44313167">
        <ele>637.0</ele>
        <time>2017-05-27T08:11:53.180Z</time>
      </trkpt>
      <trkpt lat="39.94915333" lon="-0.44313167">
        <ele>637.0</ele>
        <time>2017-05-27T08:11:54.184Z</time>
      </trkpt>
      <trkpt lat="39.94908333" lon="-0.443315">
        <ele>637.0</ele>
        <time>2017-05-27T08:11:55.177Z</time>
      </trkpt>
      <trkpt lat="39.94908333" lon="-0.443315">
        <ele>637.0</ele>
        <time>2017-05-27T08:11:56.183Z</time>
      </trkpt>
      <trkpt lat="39.94899167" lon="-0.44350667">
        <ele>636.0</ele>
        <time>2017-05-27T08:11:57.168Z</time>
      </trkpt>
      <trkpt lat="39.94899167" lon="-0.44350667">
        <ele>636.0</ele>
        <time>2017-05-27T08:11:58.173Z</time>
      </trkpt>
      <trkpt lat="39.948945" lon="-0.44370333">
        <ele>636.0</ele>
        <time>2017-05-27T08:11:59.168Z</time>
      </trkpt>
      <trkpt lat="39.948945" lon="-0.44370333">
        <ele>636.0</ele>
        <time>2017-05-27T08:12:00.179Z</time>
      </trkpt>
      <trkpt lat="39.94889167" lon="-0.443855">
        <ele>636.0</ele>
        <time>2017-05-27T08:12:01.172Z</time>
      </trkpt>
      <trkpt lat="39.94885167" lon="-0.44392833">
        <ele>636.0</ele>
        <time>2017-05-27T08:12:02.167Z</time>
      </trkpt>
      <trkpt lat="39.94881" lon="-0.44399333">
        <ele>636.0</ele>
        <time>2017-05-27T08:12:03.189Z</time>
      </trkpt>
      <trkpt lat="39.94881" lon="-0.44399333">
        <ele>636.0</ele>
        <time>2017-05-27T08:12:04.179Z</time>
      </trkpt>
      <trkpt lat="39.94873333" lon="-0.44412">
        <ele>636.0</ele>
        <time>2017-05-27T08:12:05.188Z</time>
      </trkpt>
      <trkpt lat="39.94873333" lon="-0.44412">
        <ele>636.0</ele>
        <time>2017-05-27T08:12:06.194Z</time>
      </trkpt>
      <trkpt lat="39.94869167" lon="-0.444255">
        <ele>636.0</ele>
        <time>2017-05-27T08:12:07.165Z</time>
      </trkpt>
      <trkpt lat="39.94867667" lon="-0.44432667">
        <ele>636.0</ele>
        <time>2017-05-27T08:12:08.185Z</time>
      </trkpt>
      <trkpt lat="39.94867667" lon="-0.44432667">
        <ele>636.0</ele>
        <time>2017-05-27T08:12:09.190Z</time>
      </trkpt>
      <trkpt lat="39.948665" lon="-0.444475">
        <ele>636.0</ele>
        <time>2017-05-27T08:12:10.157Z</time>
      </trkpt>
      <trkpt lat="39.94865833" lon="-0.44455">
        <ele>637.0</ele>
        <time>2017-05-27T08:12:11.168Z</time>
      </trkpt>
      <trkpt lat="39.94865833" lon="-0.44455">
        <ele>637.0</ele>
        <time>2017-05-27T08:12:12.173Z</time>
      </trkpt>
      <trkpt lat="39.94865333" lon="-0.44469333">
        <ele>637.0</ele>
        <time>2017-05-27T08:12:13.195Z</time>
      </trkpt>
      <trkpt lat="39.94865333" lon="-0.44476">
        <ele>637.0</ele>
        <time>2017-05-27T08:12:14.165Z</time>
      </trkpt>
      <trkpt lat="39.94865333" lon="-0.44476">
        <ele>637.0</ele>
        <time>2017-05-27T08:12:15.177Z</time>
      </trkpt>
      <trkpt lat="39.948645" lon="-0.44489333">
        <ele>637.0</ele>
        <time>2017-05-27T08:12:16.175Z</time>
      </trkpt>
      <trkpt lat="39.94865" lon="-0.44495167">
        <ele>638.0</ele>
        <time>2017-05-27T08:12:17.180Z</time>
      </trkpt>
      <trkpt lat="39.94865" lon="-0.44495167">
        <ele>638.0</ele>
        <time>2017-05-27T08:12:18.168Z</time>
      </trkpt>
      <trkpt lat="39.94864333" lon="-0.44507667">
        <ele>637.0</ele>
        <time>2017-05-27T08:12:19.165Z</time>
      </trkpt>
      <trkpt lat="39.94864333" lon="-0.44507667">
        <ele>637.0</ele>
        <time>2017-05-27T08:12:20.171Z</time>
      </trkpt>
      <trkpt lat="39.94864" lon="-0.44522">
        <ele>637.0</ele>
        <time>2017-05-27T08:12:21.164Z</time>
      </trkpt>
      <trkpt lat="39.94864" lon="-0.44522">
        <ele>637.0</ele>
        <time>2017-05-27T08:12:22.184Z</time>
      </trkpt>
      <trkpt lat="39.94862833" lon="-0.44536">
        <ele>637.0</ele>
        <time>2017-05-27T08:12:23.165Z</time>
      </trkpt>
      <trkpt lat="39.94862333" lon="-0.44543">
        <ele>637.0</ele>
        <time>2017-05-27T08:12:24.165Z</time>
      </trkpt>
      <trkpt lat="39.94862333" lon="-0.44543">
        <ele>637.0</ele>
        <time>2017-05-27T08:12:25.160Z</time>
      </trkpt>
      <trkpt lat="39.948605" lon="-0.44556833">
        <ele>637.0</ele>
        <time>2017-05-27T08:12:26.180Z</time>
      </trkpt>
      <trkpt lat="39.948605" lon="-0.44556833">
        <ele>637.0</ele>
        <time>2017-05-27T08:12:27.189Z</time>
      </trkpt>
      <trkpt lat="39.94858833" lon="-0.44569833">
        <ele>637.0</ele>
        <time>2017-05-27T08:12:28.180Z</time>
      </trkpt>
      <trkpt lat="39.94857667" lon="-0.44576333">
        <ele>638.0</ele>
        <time>2017-05-27T08:12:29.159Z</time>
      </trkpt>
      <trkpt lat="39.94857667" lon="-0.44576333">
        <ele>638.0</ele>
        <time>2017-05-27T08:12:30.166Z</time>
      </trkpt>
      <trkpt lat="39.94854167" lon="-0.44588667">
        <ele>638.0</ele>
        <time>2017-05-27T08:12:31.196Z</time>
      </trkpt>
      <trkpt lat="39.94854167" lon="-0.44588667">
        <ele>638.0</ele>
        <time>2017-05-27T08:12:32.166Z</time>
      </trkpt>
      <trkpt lat="39.94849167" lon="-0.44601167">
        <ele>637.0</ele>
        <time>2017-05-27T08:12:33.165Z</time>
      </trkpt>
      <trkpt lat="39.94846" lon="-0.44607">
        <ele>637.0</ele>
        <time>2017-05-27T08:12:34.160Z</time>
      </trkpt>
      <trkpt lat="39.94846" lon="-0.44607">
        <ele>637.0</ele>
        <time>2017-05-27T08:12:35.170Z</time>
      </trkpt>
      <trkpt lat="39.94838833" lon="-0.44617833">
        <ele>637.0</ele>
        <time>2017-05-27T08:12:36.160Z</time>
      </trkpt>
      <trkpt lat="39.94838833" lon="-0.44617833">
        <ele>637.0</ele>
        <time>2017-05-27T08:12:37.167Z</time>
      </trkpt>
      <trkpt lat="39.948315" lon="-0.44628167">
        <ele>637.0</ele>
        <time>2017-05-27T08:12:38.165Z</time>
      </trkpt>
      <trkpt lat="39.94827667" lon="-0.44632833">
        <ele>637.0</ele>
        <time>2017-05-27T08:12:39.170Z</time>
      </trkpt>
      <trkpt lat="39.94827667" lon="-0.44632833">
        <ele>637.0</ele>
        <time>2017-05-27T08:12:40.175Z</time>
      </trkpt>
      <trkpt lat="39.94822167" lon="-0.44643833">
        <ele>638.0</ele>
        <time>2017-05-27T08:12:41.182Z</time>
      </trkpt>
      <trkpt lat="39.948225" lon="-0.446505">
        <ele>638.0</ele>
        <time>2017-05-27T08:12:42.187Z</time>
      </trkpt>
      <trkpt lat="39.948225" lon="-0.446505">
        <ele>638.0</ele>
        <time>2017-05-27T08:12:43.193Z</time>
      </trkpt>
      <trkpt lat="39.94826667" lon="-0.446605">
        <ele>638.0</ele>
        <time>2017-05-27T08:12:44.176Z</time>
      </trkpt>
      <trkpt lat="39.94826667" lon="-0.446605">
        <ele>638.0</ele>
        <time>2017-05-27T08:12:45.192Z</time>
      </trkpt>
      <trkpt lat="39.94832" lon="-0.44669167">
        <ele>639.0</ele>
        <time>2017-05-27T08:12:46.156Z</time>
      </trkpt>
      <trkpt lat="39.94834333" lon="-0.44673667">
        <ele>639.0</ele>
        <time>2017-05-27T08:12:47.176Z</time>
      </trkpt>
      <trkpt lat="39.94836833" lon="-0.44678167">
        <ele>639.0</ele>
        <time>2017-05-27T08:12:48.182Z</time>
      </trkpt>
      <trkpt lat="39.94836833" lon="-0.44678167">
        <ele>639.0</ele>
        <time>2017-05-27T08:12:49.188Z</time>
      </trkpt>
      <trkpt lat="39.94841333" lon="-0.446875">
        <ele>640.0</ele>
        <time>2017-05-27T08:12:50.156Z</time>
      </trkpt>
      <trkpt lat="39.94841333" lon="-0.446875">
        <ele>640.0</ele>
        <time>2017-05-27T08:12:51.161Z</time>
      </trkpt>
      <trkpt lat="39.94843833" lon="-0.44697333">
        <ele>641.0</ele>
        <time>2017-05-27T08:12:52.191Z</time>
      </trkpt>
      <trkpt lat="39.94843833" lon="-0.44697333">
        <ele>641.0</ele>
        <time>2017-05-27T08:12:53.160Z</time>
      </trkpt>
      <trkpt lat="39.94844667" lon="-0.44707167">
        <ele>642.0</ele>
        <time>2017-05-27T08:12:54.195Z</time>
      </trkpt>
      <trkpt lat="39.94844667" lon="-0.44707167">
        <ele>642.0</ele>
        <time>2017-05-27T08:12:55.161Z</time>
      </trkpt>
      <trkpt lat="39.94843833" lon="-0.44716667">
        <ele>643.0</ele>
        <time>2017-05-27T08:12:56.156Z</time>
      </trkpt>
      <trkpt lat="39.94843833" lon="-0.44716667">
        <ele>643.0</ele>
        <time>2017-05-27T08:12:57.161Z</time>
      </trkpt>
      <trkpt lat="39.94843167" lon="-0.44725833">
        <ele>643.0</ele>
        <time>2017-05-27T08:12:58.165Z</time>
      </trkpt>
      <trkpt lat="39.94842167" lon="-0.4473">
        <ele>644.0</ele>
        <time>2017-05-27T08:12:59.165Z</time>
      </trkpt>
      <trkpt lat="39.94842167" lon="-0.4473">
        <ele>644.0</ele>
        <time>2017-05-27T08:13:00.181Z</time>
      </trkpt>
      <trkpt lat="39.94838667" lon="-0.44738">
        <ele>644.0</ele>
        <time>2017-05-27T08:13:01.195Z</time>
      </trkpt>
      <trkpt lat="39.948365" lon="-0.44741667">
        <ele>645.0</ele>
        <time>2017-05-27T08:13:02.163Z</time>
      </trkpt>
      <trkpt lat="39.94834167" lon="-0.44745667">
        <ele>645.0</ele>
        <time>2017-05-27T08:13:03.170Z</time>
      </trkpt>
      <trkpt lat="39.94834167" lon="-0.44745667">
        <ele>645.0</ele>
        <time>2017-05-27T08:13:04.184Z</time>
      </trkpt>
      <trkpt lat="39.94828167" lon="-0.44752">
        <ele>646.0</ele>
        <time>2017-05-27T08:13:05.184Z</time>
      </trkpt>
      <trkpt lat="39.94828167" lon="-0.44752">
        <ele>646.0</ele>
        <time>2017-05-27T08:13:06.190Z</time>
      </trkpt>
      <trkpt lat="39.94822333" lon="-0.44757833">
        <ele>646.0</ele>
        <time>2017-05-27T08:13:07.165Z</time>
      </trkpt>
      <trkpt lat="39.94819833" lon="-0.44761">
        <ele>646.0</ele>
        <time>2017-05-27T08:13:08.178Z</time>
      </trkpt>
      <trkpt lat="39.94819833" lon="-0.44761">
        <ele>646.0</ele>
        <time>2017-05-27T08:13:09.183Z</time>
      </trkpt>
      <trkpt lat="39.948155" lon="-0.44766833">
        <ele>647.0</ele>
        <time>2017-05-27T08:13:10.183Z</time>
      </trkpt>
      <trkpt lat="39.94812833" lon="-0.44770167">
        <ele>647.0</ele>
        <time>2017-05-27T08:13:11.165Z</time>
      </trkpt>
      <trkpt lat="39.94812833" lon="-0.44770167">
        <ele>647.0</ele>
        <time>2017-05-27T08:13:12.170Z</time>
      </trkpt>
      <trkpt lat="39.94808167" lon="-0.44776167">
        <ele>647.0</ele>
        <time>2017-05-27T08:13:13.162Z</time>
      </trkpt>
      <trkpt lat="39.94808167" lon="-0.44776167">
        <ele>647.0</ele>
        <time>2017-05-27T08:13:14.176Z</time>
      </trkpt>
      <trkpt lat="39.948055" lon="-0.44780833">
        <ele>648.0</ele>
        <time>2017-05-27T08:13:15.180Z</time>
      </trkpt>
      <trkpt lat="39.94805" lon="-0.44783667">
        <ele>648.0</ele>
        <time>2017-05-27T08:13:16.195Z</time>
      </trkpt>
      <trkpt lat="39.948045" lon="-0.447865">
        <ele>648.0</ele>
        <time>2017-05-27T08:13:17.175Z</time>
      </trkpt>
      <trkpt lat="39.948045" lon="-0.447865">
        <ele>648.0</ele>
        <time>2017-05-27T08:13:18.180Z</time>
      </trkpt>
      <trkpt lat="39.948045" lon="-0.44794167">
        <ele>649.0</ele>
        <time>2017-05-27T08:13:19.173Z</time>
      </trkpt>
      <trkpt lat="39.94803833" lon="-0.447975">
        <ele>649.0</ele>
        <time>2017-05-27T08:13:20.171Z</time>
      </trkpt>
      <trkpt lat="39.94803833" lon="-0.447975">
        <ele>649.0</ele>
        <time>2017-05-27T08:13:21.186Z</time>
      </trkpt>
      <trkpt lat="39.94803333" lon="-0.44805833">
        <ele>650.0</ele>
        <time>2017-05-27T08:13:22.191Z</time>
      </trkpt>
      <trkpt lat="39.948035" lon="-0.44810167">
        <ele>650.0</ele>
        <time>2017-05-27T08:13:23.181Z</time>
      </trkpt>
      <trkpt lat="39.948035" lon="-0.44810167">
        <ele>650.0</ele>
        <time>2017-05-27T08:13:24.186Z</time>
      </trkpt>
      <trkpt lat="39.94803667" lon="-0.44818167">
        <ele>650.0</ele>
        <time>2017-05-27T08:13:25.195Z</time>
      </trkpt>
      <trkpt lat="39.94803667" lon="-0.44822333">
        <ele>651.0</ele>
        <time>2017-05-27T08:13:26.186Z</time>
      </trkpt>
      <trkpt lat="39.94803667" lon="-0.44826667">
        <ele>651.0</ele>
        <time>2017-05-27T08:13:27.182Z</time>
      </trkpt>
      <trkpt lat="39.94803667" lon="-0.44826667">
        <ele>651.0</ele>
        <time>2017-05-27T08:13:28.187Z</time>
      </trkpt>
      <trkpt lat="39.94802667" lon="-0.44834333">
        <ele>651.0</ele>
        <time>2017-05-27T08:13:29.195Z</time>
      </trkpt>
      <trkpt lat="39.94802667" lon="-0.44834333">
        <ele>651.0</ele>
        <time>2017-05-27T08:13:30.162Z</time>
      </trkpt>
      <trkpt lat="39.94802" lon="-0.44841333">
        <ele>651.0</ele>
        <time>2017-05-27T08:13:31.163Z</time>
      </trkpt>
      <trkpt lat="39.94801833" lon="-0.44844833">
        <ele>651.0</ele>
        <time>2017-05-27T08:13:32.165Z</time>
      </trkpt>
      <trkpt lat="39.94801833" lon="-0.44844833">
        <ele>651.0</ele>
        <time>2017-05-27T08:13:33.170Z</time>
      </trkpt>
      <trkpt lat="39.94801" lon="-0.44850667">
        <ele>652.0</ele>
        <time>2017-05-27T08:13:34.188Z</time>
      </trkpt>
      <trkpt lat="39.948005" lon="-0.44852167">
        <ele>652.0</ele>
        <time>2017-05-27T08:13:35.195Z</time>
      </trkpt>
      <trkpt lat="39.948005" lon="-0.44852167">
        <ele>652.0</ele>
        <time>2017-05-27T08:13:36.162Z</time>
      </trkpt>
      <trkpt lat="39.94800333" lon="-0.44853667">
        <ele>652.0</ele>
        <time>2017-05-27T08:13:37.195Z</time>
      </trkpt>
      <trkpt lat="39.94801" lon="-0.44854667">
        <ele>652.0</ele>
        <time>2017-05-27T08:13:38.176Z</time>
      </trkpt>
      <trkpt lat="39.94801" lon="-0.44854667">
        <ele>652.0</ele>
        <time>2017-05-27T08:13:39.159Z</time>
      </trkpt>
      <trkpt lat="39.94801" lon="-0.44854667">
        <ele>652.0</ele>
        <time>2017-05-27T08:13:40.171Z</time>
      </trkpt>
      <trkpt lat="39.94801" lon="-0.44854667">
        <ele>652.0</ele>
        <time>2017-05-27T08:13:41.185Z</time>
      </trkpt>
      <trkpt lat="39.94801" lon="-0.44854667">
        <ele>652.0</ele>
        <time>2017-05-27T08:13:42.194Z</time>
      </trkpt>
      <trkpt lat="39.94801" lon="-0.44854667">
        <ele>652.0</ele>
        <time>2017-05-27T08:13:43.184Z</time>
      </trkpt>
      <trkpt lat="39.94801" lon="-0.44854667">
        <ele>652.0</ele>
        <time>2017-05-27T08:13:44.159Z</time>
      </trkpt>
      <trkpt lat="39.94801" lon="-0.44854667">
        <ele>652.0</ele>
        <time>2017-05-27T08:13:45.183Z</time>
      </trkpt>
      <trkpt lat="39.94801" lon="-0.44854667">
        <ele>652.0</ele>
        <time>2017-05-27T08:13:46.183Z</time>
      </trkpt>
      <trkpt lat="39.94801" lon="-0.44854667">
        <ele>652.0</ele>
        <time>2017-05-27T08:13:47.160Z</time>
      </trkpt>
      <trkpt lat="39.94801" lon="-0.44854667">
        <ele>652.0</ele>
        <time>2017-05-27T08:13:48.157Z</time>
      </trkpt>
      <trkpt lat="39.94796833" lon="-0.44860667">
        <ele>650.0</ele>
        <time>2017-05-27T08:13:49.179Z</time>
      </trkpt>
      <trkpt lat="39.94796833" lon="-0.44860667">
        <ele>650.0</ele>
        <time>2017-05-27T08:13:50.161Z</time>
      </trkpt>
      <trkpt lat="39.94794667" lon="-0.44864333">
        <ele>649.0</ele>
        <time>2017-05-27T08:13:51.195Z</time>
      </trkpt>
      <trkpt lat="39.94794667" lon="-0.44864333">
        <ele>649.0</ele>
        <time>2017-05-27T08:13:52.169Z</time>
      </trkpt>
      <trkpt lat="39.94792333" lon="-0.44868333">
        <ele>649.0</ele>
        <time>2017-05-27T08:13:53.160Z</time>
      </trkpt>
      <trkpt lat="39.94792333" lon="-0.44868333">
        <ele>649.0</ele>
        <time>2017-05-27T08:13:54.183Z</time>
      </trkpt>
      <trkpt lat="39.94790833" lon="-0.44873167">
        <ele>649.0</ele>
        <time>2017-05-27T08:13:55.184Z</time>
      </trkpt>
      <trkpt lat="39.94789833" lon="-0.44875667">
        <ele>649.0</ele>
        <time>2017-05-27T08:13:56.185Z</time>
      </trkpt>
      <trkpt lat="39.94789833" lon="-0.44875667">
        <ele>649.0</ele>
        <time>2017-05-27T08:13:57.195Z</time>
      </trkpt>
      <trkpt lat="39.94789333" lon="-0.448825">
        <ele>649.0</ele>
        <time>2017-05-27T08:13:58.188Z</time>
      </trkpt>
      <trkpt lat="39.94789333" lon="-0.448825">
        <ele>649.0</ele>
        <time>2017-05-27T08:13:59.193Z</time>
      </trkpt>
      <trkpt lat="39.94788667" lon="-0.44891333">
        <ele>648.0</ele>
        <time>2017-05-27T08:14:00.157Z</time>
      </trkpt>
      <trkpt lat="39.94788667" lon="-0.44891333">
        <ele>648.0</ele>
        <time>2017-05-27T08:14:01.162Z</time>
      </trkpt>
      <trkpt lat="39.94787833" lon="-0.44901333">
        <ele>648.0</ele>
        <time>2017-05-27T08:14:02.171Z</time>
      </trkpt>
      <trkpt lat="39.947865" lon="-0.449065">
        <ele>648.0</ele>
        <time>2017-05-27T08:14:03.185Z</time>
      </trkpt>
      <trkpt lat="39.947865" lon="-0.449065">
        <ele>648.0</ele>
        <time>2017-05-27T08:14:04.192Z</time>
      </trkpt>
      <trkpt lat="39.94783" lon="-0.449175">
        <ele>648.0</ele>
        <time>2017-05-27T08:14:05.165Z</time>
      </trkpt>
      <trkpt lat="39.94781" lon="-0.44923167">
        <ele>648.0</ele>
        <time>2017-05-27T08:14:06.171Z</time>
      </trkpt>
      <trkpt lat="39.94781" lon="-0.44923167">
        <ele>648.0</ele>
        <time>2017-05-27T08:14:07.177Z</time>
      </trkpt>
      <trkpt lat="39.94775833" lon="-0.44934167">
        <ele>648.0</ele>
        <time>2017-05-27T08:14:08.175Z</time>
      </trkpt>
      <trkpt lat="39.94775833" lon="-0.44934167">
        <ele>648.0</ele>
        <time>2017-05-27T08:14:09.180Z</time>
      </trkpt>
      <trkpt lat="39.94769833" lon="-0.44944167">
        <ele>648.0</ele>
        <time>2017-05-27T08:14:10.181Z</time>
      </trkpt>
      <trkpt lat="39.94767333" lon="-0.44949167">
        <ele>647.0</ele>
        <time>2017-05-27T08:14:11.175Z</time>
      </trkpt>
      <trkpt lat="39.94767333" lon="-0.44949167">
        <ele>647.0</ele>
        <time>2017-05-27T08:14:12.180Z</time>
      </trkpt>
      <trkpt lat="39.94761833" lon="-0.44960333">
        <ele>647.0</ele>
        <time>2017-05-27T08:14:13.167Z</time>
      </trkpt>
      <trkpt lat="39.94759667" lon="-0.44966333">
        <ele>647.0</ele>
        <time>2017-05-27T08:14:14.165Z</time>
      </trkpt>
      <trkpt lat="39.94758" lon="-0.44972667">
        <ele>647.0</ele>
        <time>2017-05-27T08:14:15.165Z</time>
      </trkpt>
      <trkpt lat="39.94758" lon="-0.44972667">
        <ele>647.0</ele>
        <time>2017-05-27T08:14:16.170Z</time>
      </trkpt>
      <trkpt lat="39.94753833" lon="-0.44985">
        <ele>647.0</ele>
        <time>2017-05-27T08:14:17.170Z</time>
      </trkpt>
      <trkpt lat="39.94753833" lon="-0.44985">
        <ele>647.0</ele>
        <time>2017-05-27T08:14:18.175Z</time>
      </trkpt>
      <trkpt lat="39.947505" lon="-0.44997833">
        <ele>646.0</ele>
        <time>2017-05-27T08:14:19.165Z</time>
      </trkpt>
      <trkpt lat="39.947505" lon="-0.44997833">
        <ele>646.0</ele>
        <time>2017-05-27T08:14:20.170Z</time>
      </trkpt>
      <trkpt lat="39.94747333" lon="-0.450115">
        <ele>646.0</ele>
        <time>2017-05-27T08:14:21.185Z</time>
      </trkpt>
      <trkpt lat="39.94746167" lon="-0.45019167">
        <ele>646.0</ele>
        <time>2017-05-27T08:14:22.190Z</time>
      </trkpt>
      <trkpt lat="39.947445" lon="-0.45026667">
        <ele>646.0</ele>
        <time>2017-05-27T08:14:23.188Z</time>
      </trkpt>
      <trkpt lat="39.947445" lon="-0.45026667">
        <ele>646.0</ele>
        <time>2017-05-27T08:14:24.193Z</time>
      </trkpt>
      <trkpt lat="39.94741167" lon="-0.450425">
        <ele>645.0</ele>
        <time>2017-05-27T08:14:25.187Z</time>
      </trkpt>
      <trkpt lat="39.94741167" lon="-0.450425">
        <ele>645.0</ele>
        <time>2017-05-27T08:14:26.192Z</time>
      </trkpt>
      <trkpt lat="39.94738333" lon="-0.45058333">
        <ele>645.0</ele>
        <time>2017-05-27T08:14:27.180Z</time>
      </trkpt>
      <trkpt lat="39.94738333" lon="-0.45058333">
        <ele>645.0</ele>
        <time>2017-05-27T08:14:28.184Z</time>
      </trkpt>
      <trkpt lat="39.94735333" lon="-0.45074167">
        <ele>645.0</ele>
        <time>2017-05-27T08:14:29.179Z</time>
      </trkpt>
      <trkpt lat="39.94735333" lon="-0.45074167">
        <ele>645.0</ele>
        <time>2017-05-27T08:14:30.185Z</time>
      </trkpt>
      <trkpt lat="39.94733167" lon="-0.45087833">
        <ele>645.0</ele>
        <time>2017-05-27T08:14:31.170Z</time>
      </trkpt>
      <trkpt lat="39.94733167" lon="-0.45087833">
        <ele>645.0</ele>
        <time>2017-05-27T08:14:32.177Z</time>
      </trkpt>
      <trkpt lat="39.94730667" lon="-0.450995">
        <ele>644.0</ele>
        <time>2017-05-27T08:14:33.173Z</time>
      </trkpt>
      <trkpt lat="39.94730667" lon="-0.450995">
        <ele>644.0</ele>
        <time>2017-05-27T08:14:34.178Z</time>
      </trkpt>
      <trkpt lat="39.94727167" lon="-0.451105">
        <ele>644.0</ele>
        <time>2017-05-27T08:14:35.179Z</time>
      </trkpt>
      <trkpt lat="39.94727167" lon="-0.451105">
        <ele>644.0</ele>
        <time>2017-05-27T08:14:36.187Z</time>
      </trkpt>
      <trkpt lat="39.947245" lon="-0.45120667">
        <ele>644.0</ele>
        <time>2017-05-27T08:14:37.195Z</time>
      </trkpt>
      <trkpt lat="39.947245" lon="-0.45120667">
        <ele>644.0</ele>
        <time>2017-05-27T08:14:38.160Z</time>
      </trkpt>
      <trkpt lat="39.94721833" lon="-0.451305">
        <ele>644.0</ele>
        <time>2017-05-27T08:14:39.160Z</time>
      </trkpt>
      <trkpt lat="39.94721833" lon="-0.451305">
        <ele>644.0</ele>
        <time>2017-05-27T08:14:40.165Z</time>
      </trkpt>
      <trkpt lat="39.94717833" lon="-0.45141167">
        <ele>644.0</ele>
        <time>2017-05-27T08:14:41.195Z</time>
      </trkpt>
      <trkpt lat="39.94715667" lon="-0.45146667">
        <ele>645.0</ele>
        <time>2017-05-27T08:14:42.161Z</time>
      </trkpt>
      <trkpt lat="39.94715667" lon="-0.45146667">
        <ele>645.0</ele>
        <time>2017-05-27T08:14:43.176Z</time>
      </trkpt>
      <trkpt lat="39.94710667" lon="-0.451575">
        <ele>645.0</ele>
        <time>2017-05-27T08:14:44.186Z</time>
      </trkpt>
      <trkpt lat="39.94710667" lon="-0.451575">
        <ele>645.0</ele>
        <time>2017-05-27T08:14:45.165Z</time>
      </trkpt>
      <trkpt lat="39.94704833" lon="-0.45169667">
        <ele>644.0</ele>
        <time>2017-05-27T08:14:46.162Z</time>
      </trkpt>
      <trkpt lat="39.94704833" lon="-0.45169667">
        <ele>644.0</ele>
        <time>2017-05-27T08:14:47.195Z</time>
      </trkpt>
      <trkpt lat="39.946965" lon="-0.45184667">
        <ele>644.0</ele>
        <time>2017-05-27T08:14:48.186Z</time>
      </trkpt>
      <trkpt lat="39.946965" lon="-0.45184667">
        <ele>644.0</ele>
        <time>2017-05-27T08:14:49.192Z</time>
      </trkpt>
      <trkpt lat="39.94686167" lon="-0.45201167">
        <ele>644.0</ele>
        <time>2017-05-27T08:14:50.193Z</time>
      </trkpt>
      <trkpt lat="39.94686167" lon="-0.45201167">
        <ele>644.0</ele>
        <time>2017-05-27T08:14:51.158Z</time>
      </trkpt>
      <trkpt lat="39.94674667" lon="-0.45214667">
        <ele>644.0</ele>
        <time>2017-05-27T08:14:52.157Z</time>
      </trkpt>
      <trkpt lat="39.94670333" lon="-0.452205">
        <ele>643.0</ele>
        <time>2017-05-27T08:14:53.171Z</time>
      </trkpt>
      <trkpt lat="39.94670333" lon="-0.452205">
        <ele>643.0</ele>
        <time>2017-05-27T08:14:54.176Z</time>
      </trkpt>
      <trkpt lat="39.94660667" lon="-0.45232">
        <ele>643.0</ele>
        <time>2017-05-27T08:14:55.174Z</time>
      </trkpt>
      <trkpt lat="39.94659667" lon="-0.452405">
        <ele>642.0</ele>
        <time>2017-05-27T08:14:56.174Z</time>
      </trkpt>
      <trkpt lat="39.94659667" lon="-0.452405">
        <ele>642.0</ele>
        <time>2017-05-27T08:14:57.180Z</time>
      </trkpt>
      <trkpt lat="39.94662667" lon="-0.45258333">
        <ele>642.0</ele>
        <time>2017-05-27T08:14:58.185Z</time>
      </trkpt>
      <trkpt lat="39.94664167" lon="-0.45268167">
        <ele>641.0</ele>
        <time>2017-05-27T08:14:59.195Z</time>
      </trkpt>
      <trkpt lat="39.94664167" lon="-0.45268167">
        <ele>641.0</ele>
        <time>2017-05-27T08:15:00.160Z</time>
      </trkpt>
      <trkpt lat="39.94667167" lon="-0.452875">
        <ele>640.0</ele>
        <time>2017-05-27T08:15:01.178Z</time>
      </trkpt>
      <trkpt lat="39.94668" lon="-0.45297667">
        <ele>640.0</ele>
        <time>2017-05-27T08:15:02.168Z</time>
      </trkpt>
      <trkpt lat="39.94668" lon="-0.45297667">
        <ele>640.0</ele>
        <time>2017-05-27T08:15:03.173Z</time>
      </trkpt>
      <trkpt lat="39.94668667" lon="-0.45317167">
        <ele>640.0</ele>
        <time>2017-05-27T08:15:04.184Z</time>
      </trkpt>
      <trkpt lat="39.94668667" lon="-0.45326167">
        <ele>640.0</ele>
        <time>2017-05-27T08:15:05.191Z</time>
      </trkpt>
      <trkpt lat="39.94668667" lon="-0.45326167">
        <ele>640.0</ele>
        <time>2017-05-27T08:15:06.156Z</time>
      </trkpt>
      <trkpt lat="39.94666333" lon="-0.45343333">
        <ele>639.0</ele>
        <time>2017-05-27T08:15:07.184Z</time>
      </trkpt>
      <trkpt lat="39.94666333" lon="-0.45343333">
        <ele>639.0</ele>
        <time>2017-05-27T08:15:08.170Z</time>
      </trkpt>
      <trkpt lat="39.94661" lon="-0.453605">
        <ele>639.0</ele>
        <time>2017-05-27T08:15:09.160Z</time>
      </trkpt>
      <trkpt lat="39.94661" lon="-0.453605">
        <ele>639.0</ele>
        <time>2017-05-27T08:15:10.165Z</time>
      </trkpt>
      <trkpt lat="39.946525" lon="-0.453785">
        <ele>638.0</ele>
        <time>2017-05-27T08:15:11.188Z</time>
      </trkpt>
      <trkpt lat="39.946525" lon="-0.453785">
        <ele>638.0</ele>
        <time>2017-05-27T08:15:12.193Z</time>
      </trkpt>
      <trkpt lat="39.94642667" lon="-0.45397833">
        <ele>638.0</ele>
        <time>2017-05-27T08:15:13.179Z</time>
      </trkpt>
      <trkpt lat="39.94636833" lon="-0.45409667">
        <ele>637.0</ele>
        <time>2017-05-27T08:15:14.191Z</time>
      </trkpt>
      <trkpt lat="39.94631333" lon="-0.45422333">
        <ele>637.0</ele>
        <time>2017-05-27T08:15:15.192Z</time>
      </trkpt>
      <trkpt lat="39.94626" lon="-0.45436333">
        <ele>636.0</ele>
        <time>2017-05-27T08:15:16.185Z</time>
      </trkpt>
      <trkpt lat="39.94620833" lon="-0.45451167">
        <ele>635.0</ele>
        <time>2017-05-27T08:15:17.184Z</time>
      </trkpt>
      <trkpt lat="39.94620833" lon="-0.45451167">
        <ele>635.0</ele>
        <time>2017-05-27T08:15:18.190Z</time>
      </trkpt>
      <trkpt lat="39.94610167" lon="-0.45483667">
        <ele>633.0</ele>
        <time>2017-05-27T08:15:19.195Z</time>
      </trkpt>
      <trkpt lat="39.94605" lon="-0.455005">
        <ele>632.0</ele>
        <time>2017-05-27T08:15:20.159Z</time>
      </trkpt>
      <trkpt lat="39.94599167" lon="-0.455175">
        <ele>629.0</ele>
        <time>2017-05-27T08:15:21.161Z</time>
      </trkpt>
      <trkpt lat="39.94599167" lon="-0.455175">
        <ele>629.0</ele>
        <time>2017-05-27T08:15:22.166Z</time>
      </trkpt>
      <trkpt lat="39.945865" lon="-0.45551167">
        <ele>627.0</ele>
        <time>2017-05-27T08:15:23.174Z</time>
      </trkpt>
      <trkpt lat="39.945865" lon="-0.45551167">
        <ele>627.0</ele>
        <time>2017-05-27T08:15:24.179Z</time>
      </trkpt>
      <trkpt lat="39.94574833" lon="-0.45582">
        <ele>624.0</ele>
        <time>2017-05-27T08:15:25.195Z</time>
      </trkpt>
      <trkpt lat="39.94574833" lon="-0.45582">
        <ele>624.0</ele>
        <time>2017-05-27T08:15:26.159Z</time>
      </trkpt>
      <trkpt lat="39.94567167" lon="-0.45608667">
        <ele>622.0</ele>
        <time>2017-05-27T08:15:27.195Z</time>
      </trkpt>
      <trkpt lat="39.94565" lon="-0.45622167">
        <ele>621.0</ele>
        <time>2017-05-27T08:15:28.191Z</time>
      </trkpt>
      <trkpt lat="39.94565" lon="-0.45622167">
        <ele>621.0</ele>
        <time>2017-05-27T08:15:29.167Z</time>
      </trkpt>
      <trkpt lat="39.94564167" lon="-0.45649667">
        <ele>619.0</ele>
        <time>2017-05-27T08:15:30.158Z</time>
      </trkpt>
      <trkpt lat="39.94564167" lon="-0.45649667">
        <ele>619.0</ele>
        <time>2017-05-27T08:15:31.178Z</time>
      </trkpt>
      <trkpt lat="39.94568667" lon="-0.45674167">
        <ele>617.0</ele>
        <time>2017-05-27T08:15:32.195Z</time>
      </trkpt>
      <trkpt lat="39.94570833" lon="-0.45684167">
        <ele>615.0</ele>
        <time>2017-05-27T08:15:33.157Z</time>
      </trkpt>
      <trkpt lat="39.94570833" lon="-0.45684167">
        <ele>615.0</ele>
        <time>2017-05-27T08:15:34.162Z</time>
      </trkpt>
      <trkpt lat="39.94570667" lon="-0.45700833">
        <ele>613.0</ele>
        <time>2017-05-27T08:15:35.190Z</time>
      </trkpt>
      <trkpt lat="39.94570667" lon="-0.45700833">
        <ele>613.0</ele>
        <time>2017-05-27T08:15:36.195Z</time>
      </trkpt>
      <trkpt lat="39.9456" lon="-0.45710167">
        <ele>611.0</ele>
        <time>2017-05-27T08:15:37.165Z</time>
      </trkpt>
      <trkpt lat="39.94552333" lon="-0.4571">
        <ele>610.0</ele>
        <time>2017-05-27T08:15:38.165Z</time>
      </trkpt>
      <trkpt lat="39.94552333" lon="-0.4571">
        <ele>610.0</ele>
        <time>2017-05-27T08:15:39.169Z</time>
      </trkpt>
      <trkpt lat="39.94536167" lon="-0.45704167">
        <ele>609.0</ele>
        <time>2017-05-27T08:15:40.165Z</time>
      </trkpt>
      <trkpt lat="39.94527833" lon="-0.457005">
        <ele>608.0</ele>
        <time>2017-05-27T08:15:41.193Z</time>
      </trkpt>
      <trkpt lat="39.94527833" lon="-0.457005">
        <ele>608.0</ele>
        <time>2017-05-27T08:15:42.170Z</time>
      </trkpt>
      <trkpt lat="39.945105" lon="-0.45696">
        <ele>607.0</ele>
        <time>2017-05-27T08:15:43.184Z</time>
      </trkpt>
      <trkpt lat="39.945105" lon="-0.45696">
        <ele>607.0</ele>
        <time>2017-05-27T08:15:44.190Z</time>
      </trkpt>
      <trkpt lat="39.94491667" lon="-0.45694833">
        <ele>606.0</ele>
        <time>2017-05-27T08:15:45.185Z</time>
      </trkpt>
      <trkpt lat="39.94491667" lon="-0.45694833">
        <ele>606.0</ele>
        <time>2017-05-27T08:15:46.191Z</time>
      </trkpt>
      <trkpt lat="39.94470833" lon="-0.45695667">
        <ele>604.0</ele>
        <time>2017-05-27T08:15:47.192Z</time>
      </trkpt>
      <trkpt lat="39.94470833" lon="-0.45695667">
        <ele>604.0</ele>
        <time>2017-05-27T08:15:48.157Z</time>
      </trkpt>
      <trkpt lat="39.94449667" lon="-0.456965">
        <ele>602.0</ele>
        <time>2017-05-27T08:15:49.190Z</time>
      </trkpt>
      <trkpt lat="39.94438833" lon="-0.45697167">
        <ele>602.0</ele>
        <time>2017-05-27T08:15:50.160Z</time>
      </trkpt>
      <trkpt lat="39.94428167" lon="-0.45697833">
        <ele>601.0</ele>
        <time>2017-05-27T08:15:51.192Z</time>
      </trkpt>
      <trkpt lat="39.94428167" lon="-0.45697833">
        <ele>601.0</ele>
        <time>2017-05-27T08:15:52.157Z</time>
      </trkpt>
      <trkpt lat="39.94409167" lon="-0.457005">
        <ele>600.0</ele>
        <time>2017-05-27T08:15:53.165Z</time>
      </trkpt>
      <trkpt lat="39.94409167" lon="-0.457005">
        <ele>600.0</ele>
        <time>2017-05-27T08:15:54.173Z</time>
      </trkpt>
      <trkpt lat="39.94394167" lon="-0.45714167">
        <ele>598.0</ele>
        <time>2017-05-27T08:15:55.163Z</time>
      </trkpt>
      <trkpt lat="39.94387167" lon="-0.45722833">
        <ele>597.0</ele>
        <time>2017-05-27T08:15:56.175Z</time>
      </trkpt>
      <trkpt lat="39.94387167" lon="-0.45722833">
        <ele>597.0</ele>
        <time>2017-05-27T08:15:57.162Z</time>
      </trkpt>
      <trkpt lat="39.94370667" lon="-0.4574">
        <ele>595.0</ele>
        <time>2017-05-27T08:15:58.190Z</time>
      </trkpt>
      <trkpt lat="39.94361667" lon="-0.45747833">
        <ele>594.0</ele>
        <time>2017-05-27T08:15:59.185Z</time>
      </trkpt>
      <trkpt lat="39.94361667" lon="-0.45747833">
        <ele>594.0</ele>
        <time>2017-05-27T08:16:00.189Z</time>
      </trkpt>
      <trkpt lat="39.943405" lon="-0.45759667">
        <ele>592.0</ele>
        <time>2017-05-27T08:16:01.179Z</time>
      </trkpt>
      <trkpt lat="39.943405" lon="-0.45759667">
        <ele>592.0</ele>
        <time>2017-05-27T08:16:02.157Z</time>
      </trkpt>
      <trkpt lat="39.94318833" lon="-0.45768667">
        <ele>590.0</ele>
        <time>2017-05-27T08:16:03.185Z</time>
      </trkpt>
      <trkpt lat="39.94318833" lon="-0.45768667">
        <ele>590.0</ele>
        <time>2017-05-27T08:16:04.192Z</time>
      </trkpt>
      <trkpt lat="39.94301" lon="-0.45783333">
        <ele>588.0</ele>
        <time>2017-05-27T08:16:05.179Z</time>
      </trkpt>
      <trkpt lat="39.94301" lon="-0.45783333">
        <ele>588.0</ele>
        <time>2017-05-27T08:16:06.193Z</time>
      </trkpt>
      <trkpt lat="39.94288167" lon="-0.45800833">
        <ele>586.0</ele>
        <time>2017-05-27T08:16:07.182Z</time>
      </trkpt>
      <trkpt lat="39.94280167" lon="-0.45806167">
        <ele>586.0</ele>
        <time>2017-05-27T08:16:08.186Z</time>
      </trkpt>
      <trkpt lat="39.94280167" lon="-0.45806167">
        <ele>586.0</ele>
        <time>2017-05-27T08:16:09.194Z</time>
      </trkpt>
      <trkpt lat="39.94262833" lon="-0.45813167">
        <ele>585.0</ele>
        <time>2017-05-27T08:16:10.183Z</time>
      </trkpt>
      <trkpt lat="39.94262833" lon="-0.45813167">
        <ele>585.0</ele>
        <time>2017-05-27T08:16:11.160Z</time>
      </trkpt>
      <trkpt lat="39.94247333" lon="-0.45823333">
        <ele>585.0</ele>
        <time>2017-05-27T08:16:12.189Z</time>
      </trkpt>
      <trkpt lat="39.94247333" lon="-0.45823333">
        <ele>585.0</ele>
        <time>2017-05-27T08:16:13.191Z</time>
      </trkpt>
      <trkpt lat="39.942345" lon="-0.45837333">
        <ele>584.0</ele>
        <time>2017-05-27T08:16:14.191Z</time>
      </trkpt>
      <trkpt lat="39.942345" lon="-0.45837333">
        <ele>584.0</ele>
        <time>2017-05-27T08:16:15.171Z</time>
      </trkpt>
      <trkpt lat="39.94223" lon="-0.45852667">
        <ele>584.0</ele>
        <time>2017-05-27T08:16:16.170Z</time>
      </trkpt>
      <trkpt lat="39.94223" lon="-0.45852667">
        <ele>584.0</ele>
        <time>2017-05-27T08:16:17.184Z</time>
      </trkpt>
      <trkpt lat="39.94213833" lon="-0.45869667">
        <ele>583.0</ele>
        <time>2017-05-27T08:16:18.173Z</time>
      </trkpt>
      <trkpt lat="39.94213833" lon="-0.45869667">
        <ele>583.0</ele>
        <time>2017-05-27T08:16:19.183Z</time>
      </trkpt>
      <trkpt lat="39.94209" lon="-0.45888667">
        <ele>583.0</ele>
        <time>2017-05-27T08:16:20.169Z</time>
      </trkpt>
      <trkpt lat="39.94209" lon="-0.45888667">
        <ele>583.0</ele>
        <time>2017-05-27T08:16:21.176Z</time>
      </trkpt>
      <trkpt lat="39.94206667" lon="-0.459095">
        <ele>583.0</ele>
        <time>2017-05-27T08:16:22.165Z</time>
      </trkpt>
      <trkpt lat="39.94206667" lon="-0.459095">
        <ele>583.0</ele>
        <time>2017-05-27T08:16:23.169Z</time>
      </trkpt>
      <trkpt lat="39.94205" lon="-0.4593">
        <ele>582.0</ele>
        <time>2017-05-27T08:16:24.164Z</time>
      </trkpt>
      <trkpt lat="39.94205" lon="-0.4593">
        <ele>582.0</ele>
        <time>2017-05-27T08:16:25.169Z</time>
      </trkpt>
      <trkpt lat="39.942035" lon="-0.45948333">
        <ele>582.0</ele>
        <time>2017-05-27T08:16:26.169Z</time>
      </trkpt>
      <trkpt lat="39.94201833" lon="-0.45956333">
        <ele>582.0</ele>
        <time>2017-05-27T08:16:27.159Z</time>
      </trkpt>
      <trkpt lat="39.94201833" lon="-0.45956333">
        <ele>582.0</ele>
        <time>2017-05-27T08:16:28.194Z</time>
      </trkpt>
      <trkpt lat="39.941965" lon="-0.45969667">
        <ele>581.0</ele>
        <time>2017-05-27T08:16:29.188Z</time>
      </trkpt>
      <trkpt lat="39.941965" lon="-0.45969667">
        <ele>581.0</ele>
        <time>2017-05-27T08:16:30.166Z</time>
      </trkpt>
      <trkpt lat="39.94191167" lon="-0.459805">
        <ele>581.0</ele>
        <time>2017-05-27T08:16:31.161Z</time>
      </trkpt>
      <trkpt lat="39.94191167" lon="-0.459805">
        <ele>581.0</ele>
        <time>2017-05-27T08:16:32.168Z</time>
      </trkpt>
      <trkpt lat="39.94187167" lon="-0.45991">
        <ele>582.0</ele>
        <time>2017-05-27T08:16:33.167Z</time>
      </trkpt>
      <trkpt lat="39.94187167" lon="-0.45991">
        <ele>582.0</ele>
        <time>2017-05-27T08:16:34.172Z</time>
      </trkpt>
      <trkpt lat="39.941855" lon="-0.46002833">
        <ele>582.0</ele>
        <time>2017-05-27T08:16:35.179Z</time>
      </trkpt>
      <trkpt lat="39.94184833" lon="-0.46009">
        <ele>582.0</ele>
        <time>2017-05-27T08:16:36.184Z</time>
      </trkpt>
      <trkpt lat="39.94184833" lon="-0.46009">
        <ele>582.0</ele>
        <time>2017-05-27T08:16:37.191Z</time>
      </trkpt>
      <trkpt lat="39.94184833" lon="-0.46022333">
        <ele>582.0</ele>
        <time>2017-05-27T08:16:38.179Z</time>
      </trkpt>
      <trkpt lat="39.94184833" lon="-0.46022333">
        <ele>582.0</ele>
        <time>2017-05-27T08:16:39.174Z</time>
      </trkpt>
      <trkpt lat="39.941845" lon="-0.46036">
        <ele>582.0</ele>
        <time>2017-05-27T08:16:40.191Z</time>
      </trkpt>
      <trkpt lat="39.941845" lon="-0.46043">
        <ele>582.0</ele>
        <time>2017-05-27T08:16:41.161Z</time>
      </trkpt>
      <trkpt lat="39.941845" lon="-0.46043">
        <ele>582.0</ele>
        <time>2017-05-27T08:16:42.188Z</time>
      </trkpt>
      <trkpt lat="39.94185333" lon="-0.460575">
        <ele>583.0</ele>
        <time>2017-05-27T08:16:43.174Z</time>
      </trkpt>
      <trkpt lat="39.94185333" lon="-0.460575">
        <ele>583.0</ele>
        <time>2017-05-27T08:16:44.179Z</time>
      </trkpt>
      <trkpt lat="39.94186833" lon="-0.46072167">
        <ele>583.0</ele>
        <time>2017-05-27T08:16:45.180Z</time>
      </trkpt>
      <trkpt lat="39.94186833" lon="-0.46072167">
        <ele>583.0</ele>
        <time>2017-05-27T08:16:46.190Z</time>
      </trkpt>
      <trkpt lat="39.941885" lon="-0.460865">
        <ele>583.0</ele>
        <time>2017-05-27T08:16:47.170Z</time>
      </trkpt>
      <trkpt lat="39.941885" lon="-0.460865">
        <ele>583.0</ele>
        <time>2017-05-27T08:16:48.175Z</time>
      </trkpt>
      <trkpt lat="39.94190667" lon="-0.46100167">
        <ele>584.0</ele>
        <time>2017-05-27T08:16:49.156Z</time>
      </trkpt>
      <trkpt lat="39.94190667" lon="-0.46100167">
        <ele>584.0</ele>
        <time>2017-05-27T08:16:50.161Z</time>
      </trkpt>
      <trkpt lat="39.94192667" lon="-0.46112833">
        <ele>585.0</ele>
        <time>2017-05-27T08:16:51.166Z</time>
      </trkpt>
      <trkpt lat="39.94192667" lon="-0.46112833">
        <ele>585.0</ele>
        <time>2017-05-27T08:16:52.171Z</time>
      </trkpt>
      <trkpt lat="39.941945" lon="-0.46124">
        <ele>585.0</ele>
        <time>2017-05-27T08:16:53.174Z</time>
      </trkpt>
      <trkpt lat="39.941945" lon="-0.46124">
        <ele>585.0</ele>
        <time>2017-05-27T08:16:54.180Z</time>
      </trkpt>
      <trkpt lat="39.94197667" lon="-0.46134333">
        <ele>586.0</ele>
        <time>2017-05-27T08:16:55.172Z</time>
      </trkpt>
      <trkpt lat="39.94197667" lon="-0.46134333">
        <ele>586.0</ele>
        <time>2017-05-27T08:16:56.195Z</time>
      </trkpt>
      <trkpt lat="39.94200667" lon="-0.46144333">
        <ele>586.0</ele>
        <time>2017-05-27T08:16:57.162Z</time>
      </trkpt>
      <trkpt lat="39.94200667" lon="-0.46144333">
        <ele>586.0</ele>
        <time>2017-05-27T08:16:58.167Z</time>
      </trkpt>
      <trkpt lat="39.94203" lon="-0.46154667">
        <ele>587.0</ele>
        <time>2017-05-27T08:16:59.175Z</time>
      </trkpt>
      <trkpt lat="39.94203" lon="-0.46154667">
        <ele>587.0</ele>
        <time>2017-05-27T08:17:00.182Z</time>
      </trkpt>
      <trkpt lat="39.94205167" lon="-0.46165167">
        <ele>587.0</ele>
        <time>2017-05-27T08:17:01.167Z</time>
      </trkpt>
      <trkpt lat="39.94206" lon="-0.46170667">
        <ele>587.0</ele>
        <time>2017-05-27T08:17:02.195Z</time>
      </trkpt>
      <trkpt lat="39.94206" lon="-0.46170667">
        <ele>587.0</ele>
        <time>2017-05-27T08:17:03.160Z</time>
      </trkpt>
      <trkpt lat="39.94207667" lon="-0.46181167">
        <ele>588.0</ele>
        <time>2017-05-27T08:17:04.167Z</time>
      </trkpt>
      <trkpt lat="39.94207667" lon="-0.46181167">
        <ele>588.0</ele>
        <time>2017-05-27T08:17:05.159Z</time>
      </trkpt>
      <trkpt lat="39.94209167" lon="-0.46191667">
        <ele>588.0</ele>
        <time>2017-05-27T08:17:06.165Z</time>
      </trkpt>
      <trkpt lat="39.94209167" lon="-0.46191667">
        <ele>588.0</ele>
        <time>2017-05-27T08:17:07.171Z</time>
      </trkpt>
      <trkpt lat="39.94209667" lon="-0.462025">
        <ele>588.0</ele>
        <time>2017-05-27T08:17:08.162Z</time>
      </trkpt>
      <trkpt lat="39.94209667" lon="-0.462025">
        <ele>588.0</ele>
        <time>2017-05-27T08:17:09.168Z</time>
      </trkpt>
      <trkpt lat="39.942085" lon="-0.46213333">
        <ele>588.0</ele>
        <time>2017-05-27T08:17:10.164Z</time>
      </trkpt>
      <trkpt lat="39.94207" lon="-0.462185">
        <ele>588.0</ele>
        <time>2017-05-27T08:17:11.187Z</time>
      </trkpt>
      <trkpt lat="39.94207" lon="-0.462185">
        <ele>588.0</ele>
        <time>2017-05-27T08:17:12.159Z</time>
      </trkpt>
      <trkpt lat="39.94203167" lon="-0.46228333">
        <ele>588.0</ele>
        <time>2017-05-27T08:17:13.192Z</time>
      </trkpt>
      <trkpt lat="39.94203167" lon="-0.46228333">
        <ele>588.0</ele>
        <time>2017-05-27T08:17:14.159Z</time>
      </trkpt>
      <trkpt lat="39.94199" lon="-0.46237667">
        <ele>589.0</ele>
        <time>2017-05-27T08:17:15.184Z</time>
      </trkpt>
      <trkpt lat="39.94199" lon="-0.46237667">
        <ele>589.0</ele>
        <time>2017-05-27T08:17:16.166Z</time>
      </trkpt>
      <trkpt lat="39.94194833" lon="-0.46247333">
        <ele>589.0</ele>
        <time>2017-05-27T08:17:17.158Z</time>
      </trkpt>
      <trkpt lat="39.94194833" lon="-0.46247333">
        <ele>589.0</ele>
        <time>2017-05-27T08:17:18.192Z</time>
      </trkpt>
      <trkpt lat="39.94191" lon="-0.462575">
        <ele>589.0</ele>
        <time>2017-05-27T08:17:19.183Z</time>
      </trkpt>
      <trkpt lat="39.94189" lon="-0.46262833">
        <ele>589.0</ele>
        <time>2017-05-27T08:17:20.166Z</time>
      </trkpt>
      <trkpt lat="39.94186667" lon="-0.46268167">
        <ele>589.0</ele>
        <time>2017-05-27T08:17:21.182Z</time>
      </trkpt>
      <trkpt lat="39.94186667" lon="-0.46268167">
        <ele>589.0</ele>
        <time>2017-05-27T08:17:22.190Z</time>
      </trkpt>
      <trkpt lat="39.94181667" lon="-0.46279333">
        <ele>588.0</ele>
        <time>2017-05-27T08:17:23.168Z</time>
      </trkpt>
      <trkpt lat="39.94181667" lon="-0.46279333">
        <ele>588.0</ele>
        <time>2017-05-27T08:17:24.178Z</time>
      </trkpt>
      <trkpt lat="39.94175667" lon="-0.46291167">
        <ele>588.0</ele>
        <time>2017-05-27T08:17:25.174Z</time>
      </trkpt>
      <trkpt lat="39.94175667" lon="-0.46291167">
        <ele>588.0</ele>
        <time>2017-05-27T08:17:26.192Z</time>
      </trkpt>
      <trkpt lat="39.94169167" lon="-0.46304">
        <ele>587.0</ele>
        <time>2017-05-27T08:17:27.186Z</time>
      </trkpt>
      <trkpt lat="39.94169167" lon="-0.46304">
        <ele>587.0</ele>
        <time>2017-05-27T08:17:28.193Z</time>
      </trkpt>
      <trkpt lat="39.94159333" lon="-0.46317333">
        <ele>586.0</ele>
        <time>2017-05-27T08:17:29.181Z</time>
      </trkpt>
      <trkpt lat="39.94159333" lon="-0.46317333">
        <ele>586.0</ele>
        <time>2017-05-27T08:17:30.191Z</time>
      </trkpt>
      <trkpt lat="39.94146667" lon="-0.463305">
        <ele>584.0</ele>
        <time>2017-05-27T08:17:31.189Z</time>
      </trkpt>
      <trkpt lat="39.941395" lon="-0.463375">
        <ele>584.0</ele>
        <time>2017-05-27T08:17:32.187Z</time>
      </trkpt>
      <trkpt lat="39.941395" lon="-0.463375">
        <ele>584.0</ele>
        <time>2017-05-27T08:17:33.193Z</time>
      </trkpt>
      <trkpt lat="39.94125" lon="-0.463515">
        <ele>583.0</ele>
        <time>2017-05-27T08:17:34.188Z</time>
      </trkpt>
      <trkpt lat="39.94117833" lon="-0.46358333">
        <ele>583.0</ele>
        <time>2017-05-27T08:17:35.190Z</time>
      </trkpt>
      <trkpt lat="39.94117833" lon="-0.46358333">
        <ele>583.0</ele>
        <time>2017-05-27T08:17:36.159Z</time>
      </trkpt>
      <trkpt lat="39.94104167" lon="-0.46373167">
        <ele>582.0</ele>
        <time>2017-05-27T08:17:37.167Z</time>
      </trkpt>
      <trkpt lat="39.94096833" lon="-0.46380667">
        <ele>581.0</ele>
        <time>2017-05-27T08:17:38.164Z</time>
      </trkpt>
      <trkpt lat="39.94096833" lon="-0.46380667">
        <ele>581.0</ele>
        <time>2017-05-27T08:17:39.178Z</time>
      </trkpt>
      <trkpt lat="39.94080833" lon="-0.46396833">
        <ele>579.0</ele>
        <time>2017-05-27T08:17:40.186Z</time>
      </trkpt>
      <trkpt lat="39.94072333" lon="-0.46404833">
        <ele>579.0</ele>
        <time>2017-05-27T08:17:41.182Z</time>
      </trkpt>
      <trkpt lat="39.94072333" lon="-0.46404833">
        <ele>579.0</ele>
        <time>2017-05-27T08:17:42.160Z</time>
      </trkpt>
      <trkpt lat="39.94054833" lon="-0.46418667">
        <ele>577.0</ele>
        <time>2017-05-27T08:17:43.160Z</time>
      </trkpt>
      <trkpt lat="39.94054833" lon="-0.46418667">
        <ele>577.0</ele>
        <time>2017-05-27T08:17:44.165Z</time>
      </trkpt>
      <trkpt lat="39.940405" lon="-0.46435667">
        <ele>576.0</ele>
        <time>2017-05-27T08:17:45.164Z</time>
      </trkpt>
      <trkpt lat="39.940405" lon="-0.46435667">
        <ele>576.0</ele>
        <time>2017-05-27T08:17:46.171Z</time>
      </trkpt>
      <trkpt lat="39.94028333" lon="-0.46455667">
        <ele>574.0</ele>
        <time>2017-05-27T08:17:47.167Z</time>
      </trkpt>
      <trkpt lat="39.94028333" lon="-0.46455667">
        <ele>574.0</ele>
        <time>2017-05-27T08:17:48.172Z</time>
      </trkpt>
      <trkpt lat="39.94016333" lon="-0.464765">
        <ele>573.0</ele>
        <time>2017-05-27T08:17:49.187Z</time>
      </trkpt>
      <trkpt lat="39.9401" lon="-0.46486167">
        <ele>572.0</ele>
        <time>2017-05-27T08:17:50.180Z</time>
      </trkpt>
      <trkpt lat="39.9401" lon="-0.46486167">
        <ele>572.0</ele>
        <time>2017-05-27T08:17:51.190Z</time>
      </trkpt>
      <trkpt lat="39.93996167" lon="-0.46503333">
        <ele>571.0</ele>
        <time>2017-05-27T08:17:52.165Z</time>
      </trkpt>
      <trkpt lat="39.93988833" lon="-0.46511333">
        <ele>570.0</ele>
        <time>2017-05-27T08:17:53.174Z</time>
      </trkpt>
      <trkpt lat="39.93988833" lon="-0.46511333">
        <ele>570.0</ele>
        <time>2017-05-27T08:17:54.161Z</time>
      </trkpt>
      <trkpt lat="39.939755" lon="-0.46527167">
        <ele>569.0</ele>
        <time>2017-05-27T08:17:55.186Z</time>
      </trkpt>
      <trkpt lat="39.939755" lon="-0.46527167">
        <ele>569.0</ele>
        <time>2017-05-27T08:17:56.193Z</time>
      </trkpt>
      <trkpt lat="39.93963667" lon="-0.465425">
        <ele>569.0</ele>
        <time>2017-05-27T08:17:57.169Z</time>
      </trkpt>
      <trkpt lat="39.93963667" lon="-0.465425">
        <ele>569.0</ele>
        <time>2017-05-27T08:17:58.181Z</time>
      </trkpt>
      <trkpt lat="39.93954" lon="-0.46557333">
        <ele>569.0</ele>
        <time>2017-05-27T08:17:59.162Z</time>
      </trkpt>
      <trkpt lat="39.93954" lon="-0.46557333">
        <ele>569.0</ele>
        <time>2017-05-27T08:18:00.161Z</time>
      </trkpt>
      <trkpt lat="39.93947333" lon="-0.46570667">
        <ele>569.0</ele>
        <time>2017-05-27T08:18:01.175Z</time>
      </trkpt>
      <trkpt lat="39.93947333" lon="-0.46570667">
        <ele>569.0</ele>
        <time>2017-05-27T08:18:02.180Z</time>
      </trkpt>
      <trkpt lat="39.93940833" lon="-0.465835">
        <ele>570.0</ele>
        <time>2017-05-27T08:18:03.157Z</time>
      </trkpt>
      <trkpt lat="39.93940833" lon="-0.465835">
        <ele>570.0</ele>
        <time>2017-05-27T08:18:04.164Z</time>
      </trkpt>
      <trkpt lat="39.939355" lon="-0.46594333">
        <ele>570.0</ele>
        <time>2017-05-27T08:18:05.162Z</time>
      </trkpt>
      <trkpt lat="39.939355" lon="-0.46594333">
        <ele>570.0</ele>
        <time>2017-05-27T08:18:06.167Z</time>
      </trkpt>
      <trkpt lat="39.939315" lon="-0.466045">
        <ele>570.0</ele>
        <time>2017-05-27T08:18:07.176Z</time>
      </trkpt>
      <trkpt lat="39.939315" lon="-0.466045">
        <ele>570.0</ele>
        <time>2017-05-27T08:18:08.181Z</time>
      </trkpt>
      <trkpt lat="39.93927333" lon="-0.46613333">
        <ele>570.0</ele>
        <time>2017-05-27T08:18:09.168Z</time>
      </trkpt>
      <trkpt lat="39.93927333" lon="-0.46613333">
        <ele>570.0</ele>
        <time>2017-05-27T08:18:10.177Z</time>
      </trkpt>
      <trkpt lat="39.93922" lon="-0.46619333">
        <ele>572.0</ele>
        <time>2017-05-27T08:18:11.174Z</time>
      </trkpt>
      <trkpt lat="39.93918833" lon="-0.46622">
        <ele>572.0</ele>
        <time>2017-05-27T08:18:12.184Z</time>
      </trkpt>
      <trkpt lat="39.93918833" lon="-0.46622">
        <ele>572.0</ele>
        <time>2017-05-27T08:18:13.163Z</time>
      </trkpt>
      <trkpt lat="39.939125" lon="-0.466265">
        <ele>573.0</ele>
        <time>2017-05-27T08:18:14.157Z</time>
      </trkpt>
      <trkpt lat="39.939125" lon="-0.466265">
        <ele>573.0</ele>
        <time>2017-05-27T08:18:15.168Z</time>
      </trkpt>
      <trkpt lat="39.93906833" lon="-0.46630667">
        <ele>573.0</ele>
        <time>2017-05-27T08:18:16.168Z</time>
      </trkpt>
      <trkpt lat="39.93904667" lon="-0.46632667">
        <ele>575.0</ele>
        <time>2017-05-27T08:18:17.171Z</time>
      </trkpt>
      <trkpt lat="39.93904667" lon="-0.46632667">
        <ele>575.0</ele>
        <time>2017-05-27T08:18:18.181Z</time>
      </trkpt>
      <trkpt lat="39.939" lon="-0.46638">
        <ele>577.0</ele>
        <time>2017-05-27T08:18:19.189Z</time>
      </trkpt>
      <trkpt lat="39.93897667" lon="-0.46641167">
        <ele>577.0</ele>
        <time>2017-05-27T08:18:20.184Z</time>
      </trkpt>
      <trkpt lat="39.938955" lon="-0.466445">
        <ele>578.0</ele>
        <time>2017-05-27T08:18:21.179Z</time>
      </trkpt>
      <trkpt lat="39.938955" lon="-0.466445">
        <ele>578.0</ele>
        <time>2017-05-27T08:18:22.190Z</time>
      </trkpt>
      <trkpt lat="39.93891" lon="-0.46651333">
        <ele>578.0</ele>
        <time>2017-05-27T08:18:23.178Z</time>
      </trkpt>
      <trkpt lat="39.93891" lon="-0.46651333">
        <ele>578.0</ele>
        <time>2017-05-27T08:18:24.184Z</time>
      </trkpt>
      <trkpt lat="39.93887667" lon="-0.46659167">
        <ele>579.0</ele>
        <time>2017-05-27T08:18:25.189Z</time>
      </trkpt>
      <trkpt lat="39.93887667" lon="-0.46659167">
        <ele>579.0</ele>
        <time>2017-05-27T08:18:26.194Z</time>
      </trkpt>
      <trkpt lat="39.938845" lon="-0.46666833">
        <ele>580.0</ele>
        <time>2017-05-27T08:18:27.190Z</time>
      </trkpt>
      <trkpt lat="39.938845" lon="-0.46666833">
        <ele>580.0</ele>
        <time>2017-05-27T08:18:28.195Z</time>
      </trkpt>
      <trkpt lat="39.93880833" lon="-0.466745">
        <ele>581.0</ele>
        <time>2017-05-27T08:18:29.188Z</time>
      </trkpt>
      <trkpt lat="39.93880833" lon="-0.466745">
        <ele>581.0</ele>
        <time>2017-05-27T08:18:30.194Z</time>
      </trkpt>
      <trkpt lat="39.938775" lon="-0.46682833">
        <ele>581.0</ele>
        <time>2017-05-27T08:18:31.193Z</time>
      </trkpt>
      <trkpt lat="39.938775" lon="-0.46682833">
        <ele>581.0</ele>
        <time>2017-05-27T08:18:32.157Z</time>
      </trkpt>
      <trkpt lat="39.93873833" lon="-0.46691833">
        <ele>581.0</ele>
        <time>2017-05-27T08:18:33.170Z</time>
      </trkpt>
      <trkpt lat="39.93873833" lon="-0.46691833">
        <ele>581.0</ele>
        <time>2017-05-27T08:18:34.175Z</time>
      </trkpt>
      <trkpt lat="39.938705" lon="-0.46700667">
        <ele>582.0</ele>
        <time>2017-05-27T08:18:35.171Z</time>
      </trkpt>
      <trkpt lat="39.938695" lon="-0.467045">
        <ele>582.0</ele>
        <time>2017-05-27T08:18:36.176Z</time>
      </trkpt>
      <trkpt lat="39.938695" lon="-0.467045">
        <ele>582.0</ele>
        <time>2017-05-27T08:18:37.184Z</time>
      </trkpt>
      <trkpt lat="39.93868" lon="-0.46713333">
        <ele>583.0</ele>
        <time>2017-05-27T08:18:38.185Z</time>
      </trkpt>
      <trkpt lat="39.93866833" lon="-0.46718167">
        <ele>583.0</ele>
        <time>2017-05-27T08:18:39.190Z</time>
      </trkpt>
      <trkpt lat="39.93866833" lon="-0.46718167">
        <ele>583.0</ele>
        <time>2017-05-27T08:18:40.156Z</time>
      </trkpt>
      <trkpt lat="39.93863833" lon="-0.467275">
        <ele>584.0</ele>
        <time>2017-05-27T08:18:41.185Z</time>
      </trkpt>
      <trkpt lat="39.93863833" lon="-0.467275">
        <ele>584.0</ele>
        <time>2017-05-27T08:18:42.165Z</time>
      </trkpt>
      <trkpt lat="39.93859167" lon="-0.467345">
        <ele>584.0</ele>
        <time>2017-05-27T08:18:43.156Z</time>
      </trkpt>
      <trkpt lat="39.93859167" lon="-0.467345">
        <ele>584.0</ele>
        <time>2017-05-27T08:18:44.161Z</time>
      </trkpt>
      <trkpt lat="39.93854" lon="-0.46738833">
        <ele>585.0</ele>
        <time>2017-05-27T08:18:45.165Z</time>
      </trkpt>
      <trkpt lat="39.93851667" lon="-0.46740333">
        <ele>586.0</ele>
        <time>2017-05-27T08:18:46.161Z</time>
      </trkpt>
      <trkpt lat="39.93851667" lon="-0.46740333">
        <ele>586.0</ele>
        <time>2017-05-27T08:18:47.174Z</time>
      </trkpt>
      <trkpt lat="39.938455" lon="-0.46744833">
        <ele>586.0</ele>
        <time>2017-05-27T08:18:48.195Z</time>
      </trkpt>
      <trkpt lat="39.938455" lon="-0.46744833">
        <ele>586.0</ele>
        <time>2017-05-27T08:18:49.160Z</time>
      </trkpt>
      <trkpt lat="39.93839167" lon="-0.46749833">
        <ele>587.0</ele>
        <time>2017-05-27T08:18:50.167Z</time>
      </trkpt>
      <trkpt lat="39.93839167" lon="-0.46749833">
        <ele>587.0</ele>
        <time>2017-05-27T08:18:51.172Z</time>
      </trkpt>
      <trkpt lat="39.938335" lon="-0.467535">
        <ele>587.0</ele>
        <time>2017-05-27T08:18:52.166Z</time>
      </trkpt>
      <trkpt lat="39.93831167" lon="-0.46754">
        <ele>589.0</ele>
        <time>2017-05-27T08:18:53.171Z</time>
      </trkpt>
      <trkpt lat="39.93831167" lon="-0.46754">
        <ele>589.0</ele>
        <time>2017-05-27T08:18:54.176Z</time>
      </trkpt>
      <trkpt lat="39.93823167" lon="-0.46753">
        <ele>589.0</ele>
        <time>2017-05-27T08:18:55.160Z</time>
      </trkpt>
      <trkpt lat="39.93818333" lon="-0.46753">
        <ele>589.0</ele>
        <time>2017-05-27T08:18:56.195Z</time>
      </trkpt>
      <trkpt lat="39.93818333" lon="-0.46753">
        <ele>589.0</ele>
        <time>2017-05-27T08:18:57.169Z</time>
      </trkpt>
      <trkpt lat="39.93809833" lon="-0.46756833">
        <ele>590.0</ele>
        <time>2017-05-27T08:18:58.157Z</time>
      </trkpt>
      <trkpt lat="39.93804833" lon="-0.46759667">
        <ele>590.0</ele>
        <time>2017-05-27T08:18:59.165Z</time>
      </trkpt>
      <trkpt lat="39.93804833" lon="-0.46759667">
        <ele>590.0</ele>
        <time>2017-05-27T08:19:00.170Z</time>
      </trkpt>
      <trkpt lat="39.93795833" lon="-0.46765833">
        <ele>590.0</ele>
        <time>2017-05-27T08:19:01.177Z</time>
      </trkpt>
      <trkpt lat="39.93792667" lon="-0.467685">
        <ele>589.0</ele>
        <time>2017-05-27T08:19:02.164Z</time>
      </trkpt>
      <trkpt lat="39.93792667" lon="-0.467685">
        <ele>589.0</ele>
        <time>2017-05-27T08:19:03.182Z</time>
      </trkpt>
      <trkpt lat="39.93786" lon="-0.46776333">
        <ele>589.0</ele>
        <time>2017-05-27T08:19:04.163Z</time>
      </trkpt>
      <trkpt lat="39.937835" lon="-0.46781333">
        <ele>589.0</ele>
        <time>2017-05-27T08:19:05.175Z</time>
      </trkpt>
      <trkpt lat="39.937835" lon="-0.46781333">
        <ele>589.0</ele>
        <time>2017-05-27T08:19:06.180Z</time>
      </trkpt>
      <trkpt lat="39.93776667" lon="-0.46783333">
        <ele>588.0</ele>
        <time>2017-05-27T08:19:07.184Z</time>
      </trkpt>
      <trkpt lat="39.93773333" lon="-0.467795">
        <ele>588.0</ele>
        <time>2017-05-27T08:19:08.165Z</time>
      </trkpt>
      <trkpt lat="39.93773333" lon="-0.467795">
        <ele>588.0</ele>
        <time>2017-05-27T08:19:09.170Z</time>
      </trkpt>
      <trkpt lat="39.93770833" lon="-0.46768167">
        <ele>588.0</ele>
        <time>2017-05-27T08:19:10.175Z</time>
      </trkpt>
      <trkpt lat="39.93769833" lon="-0.46762833">
        <ele>587.0</ele>
        <time>2017-05-27T08:19:11.168Z</time>
      </trkpt>
      <trkpt lat="39.93769833" lon="-0.46762833">
        <ele>587.0</ele>
        <time>2017-05-27T08:19:12.176Z</time>
      </trkpt>
      <trkpt lat="39.93765" lon="-0.46751167">
        <ele>587.0</ele>
        <time>2017-05-27T08:19:13.179Z</time>
      </trkpt>
      <trkpt lat="39.93763333" lon="-0.46745667">
        <ele>586.0</ele>
        <time>2017-05-27T08:19:14.192Z</time>
      </trkpt>
      <trkpt lat="39.93760667" lon="-0.467395">
        <ele>586.0</ele>
        <time>2017-05-27T08:19:15.181Z</time>
      </trkpt>
      <trkpt lat="39.93760667" lon="-0.467395">
        <ele>586.0</ele>
        <time>2017-05-27T08:19:16.193Z</time>
      </trkpt>
      <trkpt lat="39.93755333" lon="-0.46727667">
        <ele>585.0</ele>
        <time>2017-05-27T08:19:17.180Z</time>
      </trkpt>
      <trkpt lat="39.93755333" lon="-0.46727667">
        <ele>585.0</ele>
        <time>2017-05-27T08:19:18.186Z</time>
      </trkpt>
      <trkpt lat="39.93751667" lon="-0.46714667">
        <ele>584.0</ele>
        <time>2017-05-27T08:19:19.172Z</time>
      </trkpt>
      <trkpt lat="39.93750167" lon="-0.46707167">
        <ele>584.0</ele>
        <time>2017-05-27T08:19:20.183Z</time>
      </trkpt>
      <trkpt lat="39.93750167" lon="-0.46707167">
        <ele>584.0</ele>
        <time>2017-05-27T08:19:21.162Z</time>
      </trkpt>
      <trkpt lat="39.93746833" lon="-0.46692667">
        <ele>584.0</ele>
        <time>2017-05-27T08:19:22.165Z</time>
      </trkpt>
      <trkpt lat="39.93745667" lon="-0.46685667">
        <ele>584.0</ele>
        <time>2017-05-27T08:19:23.175Z</time>
      </trkpt>
      <trkpt lat="39.93745667" lon="-0.46685667">
        <ele>584.0</ele>
        <time>2017-05-27T08:19:24.192Z</time>
      </trkpt>
      <trkpt lat="39.93742333" lon="-0.46671">
        <ele>583.0</ele>
        <time>2017-05-27T08:19:25.194Z</time>
      </trkpt>
      <trkpt lat="39.93742333" lon="-0.46671">
        <ele>583.0</ele>
        <time>2017-05-27T08:19:26.159Z</time>
      </trkpt>
      <trkpt lat="39.93739333" lon="-0.46656167">
        <ele>583.0</ele>
        <time>2017-05-27T08:19:27.170Z</time>
      </trkpt>
      <trkpt lat="39.93739333" lon="-0.46656167">
        <ele>583.0</ele>
        <time>2017-05-27T08:19:28.180Z</time>
      </trkpt>
      <trkpt lat="39.937385" lon="-0.466415">
        <ele>582.0</ele>
        <time>2017-05-27T08:19:29.164Z</time>
      </trkpt>
      <trkpt lat="39.937385" lon="-0.466415">
        <ele>582.0</ele>
        <time>2017-05-27T08:19:30.163Z</time>
      </trkpt>
      <trkpt lat="39.93737667" lon="-0.46627167">
        <ele>582.0</ele>
        <time>2017-05-27T08:19:31.186Z</time>
      </trkpt>
      <trkpt lat="39.937375" lon="-0.46619833">
        <ele>582.0</ele>
        <time>2017-05-27T08:19:32.177Z</time>
      </trkpt>
      <trkpt lat="39.937375" lon="-0.46619833">
        <ele>582.0</ele>
        <time>2017-05-27T08:19:33.182Z</time>
      </trkpt>
      <trkpt lat="39.93737333" lon="-0.46604833">
        <ele>581.0</ele>
        <time>2017-05-27T08:19:34.170Z</time>
      </trkpt>
      <trkpt lat="39.93737167" lon="-0.46597333">
        <ele>581.0</ele>
        <time>2017-05-27T08:19:35.194Z</time>
      </trkpt>
      <trkpt lat="39.93737167" lon="-0.46597333">
        <ele>581.0</ele>
        <time>2017-05-27T08:19:36.159Z</time>
      </trkpt>
      <trkpt lat="39.93737" lon="-0.46582167">
        <ele>580.0</ele>
        <time>2017-05-27T08:19:37.181Z</time>
      </trkpt>
      <trkpt lat="39.93737" lon="-0.46582167">
        <ele>580.0</ele>
        <time>2017-05-27T08:19:38.186Z</time>
      </trkpt>
      <trkpt lat="39.93737167" lon="-0.46567167">
        <ele>579.0</ele>
        <time>2017-05-27T08:19:39.185Z</time>
      </trkpt>
      <trkpt lat="39.93737167" lon="-0.46567167">
        <ele>579.0</ele>
        <time>2017-05-27T08:19:40.192Z</time>
      </trkpt>
      <trkpt lat="39.93737333" lon="-0.46553">
        <ele>578.0</ele>
        <time>2017-05-27T08:19:41.187Z</time>
      </trkpt>
      <trkpt lat="39.93737333" lon="-0.46553">
        <ele>578.0</ele>
        <time>2017-05-27T08:19:42.159Z</time>
      </trkpt>
      <trkpt lat="39.937375" lon="-0.46538667">
        <ele>578.0</ele>
        <time>2017-05-27T08:19:43.180Z</time>
      </trkpt>
      <trkpt lat="39.937375" lon="-0.46538667">
        <ele>578.0</ele>
        <time>2017-05-27T08:19:44.164Z</time>
      </trkpt>
      <trkpt lat="39.93737333" lon="-0.46525167">
        <ele>577.0</ele>
        <time>2017-05-27T08:19:45.193Z</time>
      </trkpt>
      <trkpt lat="39.93737333" lon="-0.46525167">
        <ele>577.0</ele>
        <time>2017-05-27T08:19:46.160Z</time>
      </trkpt>
      <trkpt lat="39.93737333" lon="-0.46512667">
        <ele>577.0</ele>
        <time>2017-05-27T08:19:47.160Z</time>
      </trkpt>
      <trkpt lat="39.93737333" lon="-0.46512667">
        <ele>577.0</ele>
        <time>2017-05-27T08:19:48.164Z</time>
      </trkpt>
      <trkpt lat="39.93737167" lon="-0.465">
        <ele>577.0</ele>
        <time>2017-05-27T08:19:49.166Z</time>
      </trkpt>
      <trkpt lat="39.93737" lon="-0.46493833">
        <ele>577.0</ele>
        <time>2017-05-27T08:19:50.165Z</time>
      </trkpt>
      <trkpt lat="39.93737" lon="-0.46493833">
        <ele>577.0</ele>
        <time>2017-05-27T08:19:51.174Z</time>
      </trkpt>
      <trkpt lat="39.93737" lon="-0.46481667">
        <ele>577.0</ele>
        <time>2017-05-27T08:19:52.185Z</time>
      </trkpt>
      <trkpt lat="39.93737" lon="-0.46481667">
        <ele>577.0</ele>
        <time>2017-05-27T08:19:53.192Z</time>
      </trkpt>
      <trkpt lat="39.93737167" lon="-0.46470167">
        <ele>578.0</ele>
        <time>2017-05-27T08:19:54.180Z</time>
      </trkpt>
      <trkpt lat="39.93737167" lon="-0.46470167">
        <ele>578.0</ele>
        <time>2017-05-27T08:19:55.193Z</time>
      </trkpt>
      <trkpt lat="39.93737167" lon="-0.464585">
        <ele>578.0</ele>
        <time>2017-05-27T08:19:56.191Z</time>
      </trkpt>
      <trkpt lat="39.93737167" lon="-0.464585">
        <ele>578.0</ele>
        <time>2017-05-27T08:19:57.156Z</time>
      </trkpt>
      <trkpt lat="39.937375" lon="-0.46447333">
        <ele>578.0</ele>
        <time>2017-05-27T08:19:58.188Z</time>
      </trkpt>
      <trkpt lat="39.937375" lon="-0.46447333">
        <ele>578.0</ele>
        <time>2017-05-27T08:19:59.194Z</time>
      </trkpt>
      <trkpt lat="39.93737667" lon="-0.46436333">
        <ele>578.0</ele>
        <time>2017-05-27T08:20:00.191Z</time>
      </trkpt>
      <trkpt lat="39.93737667" lon="-0.46436333">
        <ele>578.0</ele>
        <time>2017-05-27T08:20:01.156Z</time>
      </trkpt>
      <trkpt lat="39.93738" lon="-0.46425833">
        <ele>578.0</ele>
        <time>2017-05-27T08:20:02.167Z</time>
      </trkpt>
      <trkpt lat="39.93738333" lon="-0.464205">
        <ele>578.0</ele>
        <time>2017-05-27T08:20:03.181Z</time>
      </trkpt>
      <trkpt lat="39.93738333" lon="-0.464205">
        <ele>578.0</ele>
        <time>2017-05-27T08:20:04.191Z</time>
      </trkpt>
      <trkpt lat="39.93738833" lon="-0.46409333">
        <ele>579.0</ele>
        <time>2017-05-27T08:20:05.175Z</time>
      </trkpt>
      <trkpt lat="39.93738833" lon="-0.46409333">
        <ele>579.0</ele>
        <time>2017-05-27T08:20:06.189Z</time>
      </trkpt>
      <trkpt lat="39.93739167" lon="-0.46397833">
        <ele>579.0</ele>
        <time>2017-05-27T08:20:07.160Z</time>
      </trkpt>
      <trkpt lat="39.937395" lon="-0.46392333">
        <ele>579.0</ele>
        <time>2017-05-27T08:20:08.168Z</time>
      </trkpt>
      <trkpt lat="39.937395" lon="-0.46392333">
        <ele>579.0</ele>
        <time>2017-05-27T08:20:09.179Z</time>
      </trkpt>
      <trkpt lat="39.93740667" lon="-0.46381167">
        <ele>579.0</ele>
        <time>2017-05-27T08:20:10.156Z</time>
      </trkpt>
      <trkpt lat="39.93740833" lon="-0.463755">
        <ele>579.0</ele>
        <time>2017-05-27T08:20:11.175Z</time>
      </trkpt>
      <trkpt lat="39.93740833" lon="-0.463755">
        <ele>579.0</ele>
        <time>2017-05-27T08:20:12.180Z</time>
      </trkpt>
      <trkpt lat="39.93741" lon="-0.463645">
        <ele>578.0</ele>
        <time>2017-05-27T08:20:13.159Z</time>
      </trkpt>
      <trkpt lat="39.93741333" lon="-0.46359">
        <ele>579.0</ele>
        <time>2017-05-27T08:20:14.167Z</time>
      </trkpt>
      <trkpt lat="39.93741333" lon="-0.46359">
        <ele>579.0</ele>
        <time>2017-05-27T08:20:15.175Z</time>
      </trkpt>
      <trkpt lat="39.93741833" lon="-0.46348333">
        <ele>579.0</ele>
        <time>2017-05-27T08:20:16.175Z</time>
      </trkpt>
      <trkpt lat="39.93741833" lon="-0.46343">
        <ele>579.0</ele>
        <time>2017-05-27T08:20:17.184Z</time>
      </trkpt>
      <trkpt lat="39.93741833" lon="-0.46343">
        <ele>579.0</ele>
        <time>2017-05-27T08:20:18.191Z</time>
      </trkpt>
      <trkpt lat="39.93742667" lon="-0.46332">
        <ele>579.0</ele>
        <time>2017-05-27T08:20:19.194Z</time>
      </trkpt>
      <trkpt lat="39.93742833" lon="-0.463265">
        <ele>579.0</ele>
        <time>2017-05-27T08:20:20.169Z</time>
      </trkpt>
      <trkpt lat="39.93742833" lon="-0.463265">
        <ele>579.0</ele>
        <time>2017-05-27T08:20:21.179Z</time>
      </trkpt>
      <trkpt lat="39.93743167" lon="-0.46315167">
        <ele>580.0</ele>
        <time>2017-05-27T08:20:22.164Z</time>
      </trkpt>
      <trkpt lat="39.937435" lon="-0.46309667">
        <ele>580.0</ele>
        <time>2017-05-27T08:20:23.174Z</time>
      </trkpt>
      <trkpt lat="39.937435" lon="-0.46309667">
        <ele>580.0</ele>
        <time>2017-05-27T08:20:24.164Z</time>
      </trkpt>
      <trkpt lat="39.93744167" lon="-0.46299">
        <ele>580.0</ele>
        <time>2017-05-27T08:20:25.163Z</time>
      </trkpt>
      <trkpt lat="39.93744167" lon="-0.46293667">
        <ele>580.0</ele>
        <time>2017-05-27T08:20:26.193Z</time>
      </trkpt>
      <trkpt lat="39.93744167" lon="-0.46293667">
        <ele>580.0</ele>
        <time>2017-05-27T08:20:27.158Z</time>
      </trkpt>
      <trkpt lat="39.93745" lon="-0.46283333">
        <ele>581.0</ele>
        <time>2017-05-27T08:20:28.160Z</time>
      </trkpt>
      <trkpt lat="39.93745667" lon="-0.46278">
        <ele>581.0</ele>
        <time>2017-05-27T08:20:29.187Z</time>
      </trkpt>
      <trkpt lat="39.93745667" lon="-0.46278">
        <ele>581.0</ele>
        <time>2017-05-27T08:20:30.193Z</time>
      </trkpt>
      <trkpt lat="39.937465" lon="-0.46267333">
        <ele>581.0</ele>
        <time>2017-05-27T08:20:31.185Z</time>
      </trkpt>
      <trkpt lat="39.937465" lon="-0.46262">
        <ele>581.0</ele>
        <time>2017-05-27T08:20:32.195Z</time>
      </trkpt>
      <trkpt lat="39.93747" lon="-0.46256667">
        <ele>582.0</ele>
        <time>2017-05-27T08:20:33.162Z</time>
      </trkpt>
      <trkpt lat="39.93747" lon="-0.46256667">
        <ele>582.0</ele>
        <time>2017-05-27T08:20:34.167Z</time>
      </trkpt>
      <trkpt lat="39.93747833" lon="-0.46245833">
        <ele>582.0</ele>
        <time>2017-05-27T08:20:35.195Z</time>
      </trkpt>
      <trkpt lat="39.93747833" lon="-0.46245833">
        <ele>582.0</ele>
        <time>2017-05-27T08:20:36.159Z</time>
      </trkpt>
      <trkpt lat="39.93748833" lon="-0.46234833">
        <ele>582.0</ele>
        <time>2017-05-27T08:20:37.175Z</time>
      </trkpt>
      <trkpt lat="39.93749167" lon="-0.462295">
        <ele>582.0</ele>
        <time>2017-05-27T08:20:38.193Z</time>
      </trkpt>
      <trkpt lat="39.93749167" lon="-0.462295">
        <ele>582.0</ele>
        <time>2017-05-27T08:20:39.163Z</time>
      </trkpt>
      <trkpt lat="39.93749667" lon="-0.46218667">
        <ele>583.0</ele>
        <time>2017-05-27T08:20:40.171Z</time>
      </trkpt>
      <trkpt lat="39.9375" lon="-0.46213333">
        <ele>583.0</ele>
        <time>2017-05-27T08:20:41.172Z</time>
      </trkpt>
      <trkpt lat="39.9375" lon="-0.46213333">
        <ele>583.0</ele>
        <time>2017-05-27T08:20:42.193Z</time>
      </trkpt>
      <trkpt lat="39.93750667" lon="-0.46202667">
        <ele>583.0</ele>
        <time>2017-05-27T08:20:43.192Z</time>
      </trkpt>
      <trkpt lat="39.93751" lon="-0.46197333">
        <ele>583.0</ele>
        <time>2017-05-27T08:20:44.192Z</time>
      </trkpt>
      <trkpt lat="39.93751" lon="-0.46197333">
        <ele>583.0</ele>
        <time>2017-05-27T08:20:45.157Z</time>
      </trkpt>
      <trkpt lat="39.93751333" lon="-0.46186833">
        <ele>583.0</ele>
        <time>2017-05-27T08:20:46.157Z</time>
      </trkpt>
      <trkpt lat="39.93751333" lon="-0.46186833">
        <ele>583.0</ele>
        <time>2017-05-27T08:20:47.185Z</time>
      </trkpt>
      <trkpt lat="39.93752" lon="-0.46176833">
        <ele>583.0</ele>
        <time>2017-05-27T08:20:48.182Z</time>
      </trkpt>
      <trkpt lat="39.93752" lon="-0.46176833">
        <ele>583.0</ele>
        <time>2017-05-27T08:20:49.193Z</time>
      </trkpt>
      <trkpt lat="39.93753" lon="-0.461665">
        <ele>584.0</ele>
        <time>2017-05-27T08:20:50.190Z</time>
      </trkpt>
      <trkpt lat="39.93753333" lon="-0.46161333">
        <ele>584.0</ele>
        <time>2017-05-27T08:20:51.195Z</time>
      </trkpt>
      <trkpt lat="39.93753333" lon="-0.46161333">
        <ele>584.0</ele>
        <time>2017-05-27T08:20:52.160Z</time>
      </trkpt>
      <trkpt lat="39.93754833" lon="-0.46151">
        <ele>584.0</ele>
        <time>2017-05-27T08:20:53.157Z</time>
      </trkpt>
      <trkpt lat="39.93754833" lon="-0.46151">
        <ele>584.0</ele>
        <time>2017-05-27T08:20:54.161Z</time>
      </trkpt>
      <trkpt lat="39.937555" lon="-0.46140667">
        <ele>584.0</ele>
        <time>2017-05-27T08:20:55.176Z</time>
      </trkpt>
      <trkpt lat="39.937555" lon="-0.46140667">
        <ele>584.0</ele>
        <time>2017-05-27T08:20:56.181Z</time>
      </trkpt>
      <trkpt lat="39.93756167" lon="-0.46130667">
        <ele>584.0</ele>
        <time>2017-05-27T08:20:57.182Z</time>
      </trkpt>
      <trkpt lat="39.93756167" lon="-0.46130667">
        <ele>584.0</ele>
        <time>2017-05-27T08:20:58.188Z</time>
      </trkpt>
      <trkpt lat="39.93756833" lon="-0.46120333">
        <ele>584.0</ele>
        <time>2017-05-27T08:20:59.175Z</time>
      </trkpt>
      <trkpt lat="39.93756833" lon="-0.46120333">
        <ele>584.0</ele>
        <time>2017-05-27T08:21:00.168Z</time>
      </trkpt>
      <trkpt lat="39.937575" lon="-0.46109833">
        <ele>585.0</ele>
        <time>2017-05-27T08:21:01.170Z</time>
      </trkpt>
      <trkpt lat="39.93757667" lon="-0.46104667">
        <ele>585.0</ele>
        <time>2017-05-27T08:21:02.162Z</time>
      </trkpt>
      <trkpt lat="39.93757667" lon="-0.46104667">
        <ele>585.0</ele>
        <time>2017-05-27T08:21:03.180Z</time>
      </trkpt>
      <trkpt lat="39.93758333" lon="-0.46094333">
        <ele>585.0</ele>
        <time>2017-05-27T08:21:04.186Z</time>
      </trkpt>
      <trkpt lat="39.93758833" lon="-0.46089333">
        <ele>585.0</ele>
        <time>2017-05-27T08:21:05.185Z</time>
      </trkpt>
      <trkpt lat="39.93758833" lon="-0.46089333">
        <ele>585.0</ele>
        <time>2017-05-27T08:21:06.191Z</time>
      </trkpt>
      <trkpt lat="39.937595" lon="-0.46079333">
        <ele>585.0</ele>
        <time>2017-05-27T08:21:07.165Z</time>
      </trkpt>
      <trkpt lat="39.9376" lon="-0.46074333">
        <ele>586.0</ele>
        <time>2017-05-27T08:21:08.175Z</time>
      </trkpt>
      <trkpt lat="39.9376" lon="-0.46074333">
        <ele>586.0</ele>
        <time>2017-05-27T08:21:09.189Z</time>
      </trkpt>
      <trkpt lat="39.93760667" lon="-0.46064167">
        <ele>586.0</ele>
        <time>2017-05-27T08:21:10.157Z</time>
      </trkpt>
      <trkpt lat="39.93760833" lon="-0.46059">
        <ele>586.0</ele>
        <time>2017-05-27T08:21:11.165Z</time>
      </trkpt>
      <trkpt lat="39.93760833" lon="-0.46059">
        <ele>586.0</ele>
        <time>2017-05-27T08:21:12.193Z</time>
      </trkpt>
      <trkpt lat="39.93761167" lon="-0.46048833">
        <ele>586.0</ele>
        <time>2017-05-27T08:21:13.189Z</time>
      </trkpt>
      <trkpt lat="39.93761333" lon="-0.46043667">
        <ele>586.0</ele>
        <time>2017-05-27T08:21:14.175Z</time>
      </trkpt>
      <trkpt lat="39.93761333" lon="-0.46043667">
        <ele>586.0</ele>
        <time>2017-05-27T08:21:15.180Z</time>
      </trkpt>
      <trkpt lat="39.937615" lon="-0.46033167">
        <ele>587.0</ele>
        <time>2017-05-27T08:21:16.186Z</time>
      </trkpt>
      <trkpt lat="39.937615" lon="-0.46033167">
        <ele>587.0</ele>
        <time>2017-05-27T08:21:17.195Z</time>
      </trkpt>
      <trkpt lat="39.93760667" lon="-0.46023167">
        <ele>587.0</ele>
        <time>2017-05-27T08:21:18.159Z</time>
      </trkpt>
      <trkpt lat="39.93760667" lon="-0.46023167">
        <ele>587.0</ele>
        <time>2017-05-27T08:21:19.168Z</time>
      </trkpt>
      <trkpt lat="39.93759833" lon="-0.460135">
        <ele>588.0</ele>
        <time>2017-05-27T08:21:20.185Z</time>
      </trkpt>
      <trkpt lat="39.93759833" lon="-0.460135">
        <ele>588.0</ele>
        <time>2017-05-27T08:21:21.193Z</time>
      </trkpt>
      <trkpt lat="39.93758667" lon="-0.460035">
        <ele>588.0</ele>
        <time>2017-05-27T08:21:22.189Z</time>
      </trkpt>
      <trkpt lat="39.93757667" lon="-0.45998667">
        <ele>588.0</ele>
        <time>2017-05-27T08:21:23.195Z</time>
      </trkpt>
      <trkpt lat="39.93757667" lon="-0.45998667">
        <ele>588.0</ele>
        <time>2017-05-27T08:21:24.160Z</time>
      </trkpt>
      <trkpt lat="39.93755333" lon="-0.459895">
        <ele>588.0</ele>
        <time>2017-05-27T08:21:25.171Z</time>
      </trkpt>
      <trkpt lat="39.93753833" lon="-0.45984833">
        <ele>588.0</ele>
        <time>2017-05-27T08:21:26.170Z</time>
      </trkpt>
      <trkpt lat="39.937525" lon="-0.45980167">
        <ele>589.0</ele>
        <time>2017-05-27T08:21:27.166Z</time>
      </trkpt>
      <trkpt lat="39.937525" lon="-0.45980167">
        <ele>589.0</ele>
        <time>2017-05-27T08:21:28.174Z</time>
      </trkpt>
      <trkpt lat="39.93749833" lon="-0.45971">
        <ele>589.0</ele>
        <time>2017-05-27T08:21:29.172Z</time>
      </trkpt>
      <trkpt lat="39.93749833" lon="-0.45971">
        <ele>589.0</ele>
        <time>2017-05-27T08:21:30.177Z</time>
      </trkpt>
      <trkpt lat="39.93746833" lon="-0.45962">
        <ele>589.0</ele>
        <time>2017-05-27T08:21:31.187Z</time>
      </trkpt>
      <trkpt lat="39.93745333" lon="-0.45957167">
        <ele>589.0</ele>
        <time>2017-05-27T08:21:32.174Z</time>
      </trkpt>
      <trkpt lat="39.93745333" lon="-0.45957167">
        <ele>589.0</ele>
        <time>2017-05-27T08:21:33.180Z</time>
      </trkpt>
      <trkpt lat="39.93742333" lon="-0.45947667">
        <ele>590.0</ele>
        <time>2017-05-27T08:21:34.183Z</time>
      </trkpt>
      <trkpt lat="39.93740667" lon="-0.45943167">
        <ele>590.0</ele>
        <time>2017-05-27T08:21:35.185Z</time>
      </trkpt>
      <trkpt lat="39.93740667" lon="-0.45943167">
        <ele>590.0</ele>
        <time>2017-05-27T08:21:36.190Z</time>
      </trkpt>
      <trkpt lat="39.937375" lon="-0.45934">
        <ele>590.0</ele>
        <time>2017-05-27T08:21:37.175Z</time>
      </trkpt>
      <trkpt lat="39.93735667" lon="-0.45929667">
        <ele>590.0</ele>
        <time>2017-05-27T08:21:38.177Z</time>
      </trkpt>
      <trkpt lat="39.93735667" lon="-0.45929667">
        <ele>590.0</ele>
        <time>2017-05-27T08:21:39.191Z</time>
      </trkpt>
      <trkpt lat="39.93732667" lon="-0.45920167">
        <ele>590.0</ele>
        <time>2017-05-27T08:21:40.195Z</time>
      </trkpt>
      <trkpt lat="39.93732667" lon="-0.45920167">
        <ele>590.0</ele>
        <time>2017-05-27T08:21:41.165Z</time>
      </trkpt>
      <trkpt lat="39.93729667" lon="-0.45910667">
        <ele>591.0</ele>
        <time>2017-05-27T08:21:42.175Z</time>
      </trkpt>
      <trkpt lat="39.93729667" lon="-0.45910667">
        <ele>591.0</ele>
        <time>2017-05-27T08:21:43.180Z</time>
      </trkpt>
      <trkpt lat="39.93727" lon="-0.45901333">
        <ele>591.0</ele>
        <time>2017-05-27T08:21:44.195Z</time>
      </trkpt>
      <trkpt lat="39.93727" lon="-0.45901333">
        <ele>591.0</ele>
        <time>2017-05-27T08:21:45.160Z</time>
      </trkpt>
      <trkpt lat="39.93724333" lon="-0.45892333">
        <ele>591.0</ele>
        <time>2017-05-27T08:21:46.165Z</time>
      </trkpt>
      <trkpt lat="39.93723" lon="-0.45887833">
        <ele>591.0</ele>
        <time>2017-05-27T08:21:47.175Z</time>
      </trkpt>
      <trkpt lat="39.93723" lon="-0.45887833">
        <ele>591.0</ele>
        <time>2017-05-27T08:21:48.195Z</time>
      </trkpt>
      <trkpt lat="39.93720667" lon="-0.45878667">
        <ele>592.0</ele>
        <time>2017-05-27T08:21:49.195Z</time>
      </trkpt>
      <trkpt lat="39.937195" lon="-0.45874">
        <ele>592.0</ele>
        <time>2017-05-27T08:21:50.195Z</time>
      </trkpt>
      <trkpt lat="39.93718333" lon="-0.458695">
        <ele>592.0</ele>
        <time>2017-05-27T08:21:51.192Z</time>
      </trkpt>
      <trkpt lat="39.93718333" lon="-0.458695">
        <ele>592.0</ele>
        <time>2017-05-27T08:21:52.157Z</time>
      </trkpt>
      <trkpt lat="39.93716167" lon="-0.45860333">
        <ele>592.0</ele>
        <time>2017-05-27T08:21:53.166Z</time>
      </trkpt>
      <trkpt lat="39.93716167" lon="-0.45860333">
        <ele>592.0</ele>
        <time>2017-05-27T08:21:54.171Z</time>
      </trkpt>
      <trkpt lat="39.93713833" lon="-0.45851">
        <ele>592.0</ele>
        <time>2017-05-27T08:21:55.162Z</time>
      </trkpt>
      <trkpt lat="39.93712667" lon="-0.45846333">
        <ele>592.0</ele>
        <time>2017-05-27T08:21:56.193Z</time>
      </trkpt>
      <trkpt lat="39.93712667" lon="-0.45846333">
        <ele>592.0</ele>
        <time>2017-05-27T08:21:57.178Z</time>
      </trkpt>
      <trkpt lat="39.93710333" lon="-0.45837">
        <ele>593.0</ele>
        <time>2017-05-27T08:21:58.180Z</time>
      </trkpt>
      <trkpt lat="39.93710333" lon="-0.45837">
        <ele>593.0</ele>
        <time>2017-05-27T08:21:59.186Z</time>
      </trkpt>
      <trkpt lat="39.937075" lon="-0.458275">
        <ele>593.0</ele>
        <time>2017-05-27T08:22:00.164Z</time>
      </trkpt>
      <trkpt lat="39.93706" lon="-0.45823">
        <ele>593.0</ele>
        <time>2017-05-27T08:22:01.158Z</time>
      </trkpt>
      <trkpt lat="39.93706" lon="-0.45823">
        <ele>593.0</ele>
        <time>2017-05-27T08:22:02.165Z</time>
      </trkpt>
      <trkpt lat="39.93703167" lon="-0.45814">
        <ele>594.0</ele>
        <time>2017-05-27T08:22:03.163Z</time>
      </trkpt>
      <trkpt lat="39.93703167" lon="-0.45814">
        <ele>594.0</ele>
        <time>2017-05-27T08:22:04.169Z</time>
      </trkpt>
      <trkpt lat="39.937005" lon="-0.45805">
        <ele>594.0</ele>
        <time>2017-05-27T08:22:05.165Z</time>
      </trkpt>
      <trkpt lat="39.937005" lon="-0.45805">
        <ele>594.0</ele>
        <time>2017-05-27T08:22:06.170Z</time>
      </trkpt>
      <trkpt lat="39.93697667" lon="-0.45796333">
        <ele>594.0</ele>
        <time>2017-05-27T08:22:07.175Z</time>
      </trkpt>
      <trkpt lat="39.93697667" lon="-0.45796333">
        <ele>594.0</ele>
        <time>2017-05-27T08:22:08.181Z</time>
      </trkpt>
      <trkpt lat="39.93693667" lon="-0.45788167">
        <ele>594.0</ele>
        <time>2017-05-27T08:22:09.184Z</time>
      </trkpt>
      <trkpt lat="39.93691667" lon="-0.45783833">
        <ele>594.0</ele>
        <time>2017-05-27T08:22:10.175Z</time>
      </trkpt>
      <trkpt lat="39.936895" lon="-0.45779667">
        <ele>594.0</ele>
        <time>2017-05-27T08:22:11.159Z</time>
      </trkpt>
      <trkpt lat="39.936895" lon="-0.45779667">
        <ele>594.0</ele>
        <time>2017-05-27T08:22:12.179Z</time>
      </trkpt>
      <trkpt lat="39.93685333" lon="-0.45771167">
        <ele>595.0</ele>
        <time>2017-05-27T08:22:13.175Z</time>
      </trkpt>
      <trkpt lat="39.93685333" lon="-0.45771167">
        <ele>595.0</ele>
        <time>2017-05-27T08:22:14.181Z</time>
      </trkpt>
      <trkpt lat="39.93680833" lon="-0.45762833">
        <ele>595.0</ele>
        <time>2017-05-27T08:22:15.186Z</time>
      </trkpt>
      <trkpt lat="39.93680833" lon="-0.45762833">
        <ele>595.0</ele>
        <time>2017-05-27T08:22:16.157Z</time>
      </trkpt>
      <trkpt lat="39.93676167" lon="-0.45755167">
        <ele>595.0</ele>
        <time>2017-05-27T08:22:17.165Z</time>
      </trkpt>
      <trkpt lat="39.93676167" lon="-0.45755167">
        <ele>595.0</ele>
        <time>2017-05-27T08:22:18.159Z</time>
      </trkpt>
      <trkpt lat="39.936715" lon="-0.457475">
        <ele>596.0</ele>
        <time>2017-05-27T08:22:19.165Z</time>
      </trkpt>
      <trkpt lat="39.93669167" lon="-0.45743667">
        <ele>596.0</ele>
        <time>2017-05-27T08:22:20.191Z</time>
      </trkpt>
      <trkpt lat="39.93669167" lon="-0.45743667">
        <ele>596.0</ele>
        <time>2017-05-27T08:22:21.157Z</time>
      </trkpt>
      <trkpt lat="39.93664833" lon="-0.45735833">
        <ele>596.0</ele>
        <time>2017-05-27T08:22:22.170Z</time>
      </trkpt>
      <trkpt lat="39.93662667" lon="-0.45731833">
        <ele>596.0</ele>
        <time>2017-05-27T08:22:23.158Z</time>
      </trkpt>
      <trkpt lat="39.93662667" lon="-0.45731833">
        <ele>596.0</ele>
        <time>2017-05-27T08:22:24.178Z</time>
      </trkpt>
      <trkpt lat="39.93658167" lon="-0.45723667">
        <ele>596.0</ele>
        <time>2017-05-27T08:22:25.165Z</time>
      </trkpt>
      <trkpt lat="39.93656" lon="-0.45719833">
        <ele>596.0</ele>
        <time>2017-05-27T08:22:26.195Z</time>
      </trkpt>
      <trkpt lat="39.93656" lon="-0.45719833">
        <ele>596.0</ele>
        <time>2017-05-27T08:22:27.165Z</time>
      </trkpt>
      <trkpt lat="39.93651333" lon="-0.45711667">
        <ele>597.0</ele>
        <time>2017-05-27T08:22:28.157Z</time>
      </trkpt>
      <trkpt lat="39.93649167" lon="-0.45707667">
        <ele>597.0</ele>
        <time>2017-05-27T08:22:29.168Z</time>
      </trkpt>
      <trkpt lat="39.93649167" lon="-0.45707667">
        <ele>597.0</ele>
        <time>2017-05-27T08:22:30.176Z</time>
      </trkpt>
      <trkpt lat="39.936445" lon="-0.45699833">
        <ele>597.0</ele>
        <time>2017-05-27T08:22:31.175Z</time>
      </trkpt>
      <trkpt lat="39.936445" lon="-0.45699833">
        <ele>597.0</ele>
        <time>2017-05-27T08:22:32.172Z</time>
      </trkpt>
      <trkpt lat="39.9364" lon="-0.45692">
        <ele>597.0</ele>
        <time>2017-05-27T08:22:33.172Z</time>
      </trkpt>
      <trkpt lat="39.93637833" lon="-0.45688">
        <ele>598.0</ele>
        <time>2017-05-27T08:22:34.185Z</time>
      </trkpt>
      <trkpt lat="39.936355" lon="-0.45684">
        <ele>598.0</ele>
        <time>2017-05-27T08:22:35.193Z</time>
      </trkpt>
      <trkpt lat="39.936355" lon="-0.45684">
        <ele>598.0</ele>
        <time>2017-05-27T08:22:36.161Z</time>
      </trkpt>
      <trkpt lat="39.93630833" lon="-0.45676167">
        <ele>598.0</ele>
        <time>2017-05-27T08:22:37.185Z</time>
      </trkpt>
      <trkpt lat="39.93630833" lon="-0.45676167">
        <ele>598.0</ele>
        <time>2017-05-27T08:22:38.193Z</time>
      </trkpt>
      <trkpt lat="39.93626333" lon="-0.45668333">
        <ele>598.0</ele>
        <time>2017-05-27T08:22:39.172Z</time>
      </trkpt>
      <trkpt lat="39.93623833" lon="-0.45664333">
        <ele>598.0</ele>
        <time>2017-05-27T08:22:40.176Z</time>
      </trkpt>
      <trkpt lat="39.93623833" lon="-0.45664333">
        <ele>598.0</ele>
        <time>2017-05-27T08:22:41.191Z</time>
      </trkpt>
      <trkpt lat="39.93619333" lon="-0.45656333">
        <ele>598.0</ele>
        <time>2017-05-27T08:22:42.169Z</time>
      </trkpt>
      <trkpt lat="39.93619333" lon="-0.45656333">
        <ele>598.0</ele>
        <time>2017-05-27T08:22:43.180Z</time>
      </trkpt>
      <trkpt lat="39.93614833" lon="-0.45648167">
        <ele>598.0</ele>
        <time>2017-05-27T08:22:44.185Z</time>
      </trkpt>
      <trkpt lat="39.93612667" lon="-0.45644333">
        <ele>599.0</ele>
        <time>2017-05-27T08:22:45.190Z</time>
      </trkpt>
      <trkpt lat="39.93612667" lon="-0.45644333">
        <ele>599.0</ele>
        <time>2017-05-27T08:22:46.157Z</time>
      </trkpt>
      <trkpt lat="39.936085" lon="-0.45636">
        <ele>599.0</ele>
        <time>2017-05-27T08:22:47.162Z</time>
      </trkpt>
      <trkpt lat="39.93606667" lon="-0.45631667">
        <ele>599.0</ele>
        <time>2017-05-27T08:22:48.169Z</time>
      </trkpt>
      <trkpt lat="39.93606667" lon="-0.45631667">
        <ele>599.0</ele>
        <time>2017-05-27T08:22:49.177Z</time>
      </trkpt>
      <trkpt lat="39.93603167" lon="-0.45622667">
        <ele>599.0</ele>
        <time>2017-05-27T08:22:50.195Z</time>
      </trkpt>
      <trkpt lat="39.93603167" lon="-0.45622667">
        <ele>599.0</ele>
        <time>2017-05-27T08:22:51.161Z</time>
      </trkpt>
      <trkpt lat="39.93599667" lon="-0.456135">
        <ele>599.0</ele>
        <time>2017-05-27T08:22:52.175Z</time>
      </trkpt>
      <trkpt lat="39.93598" lon="-0.45608667">
        <ele>599.0</ele>
        <time>2017-05-27T08:22:53.161Z</time>
      </trkpt>
      <trkpt lat="39.93598" lon="-0.45608667">
        <ele>599.0</ele>
        <time>2017-05-27T08:22:54.173Z</time>
      </trkpt>
      <trkpt lat="39.935945" lon="-0.45598833">
        <ele>599.0</ele>
        <time>2017-05-27T08:22:55.180Z</time>
      </trkpt>
      <trkpt lat="39.93592833" lon="-0.45593833">
        <ele>599.0</ele>
        <time>2017-05-27T08:22:56.165Z</time>
      </trkpt>
      <trkpt lat="39.93592833" lon="-0.45593833">
        <ele>599.0</ele>
        <time>2017-05-27T08:22:57.171Z</time>
      </trkpt>
      <trkpt lat="39.935895" lon="-0.45584167">
        <ele>600.0</ele>
        <time>2017-05-27T08:22:58.164Z</time>
      </trkpt>
      <trkpt lat="39.935895" lon="-0.45584167">
        <ele>600.0</ele>
        <time>2017-05-27T08:22:59.185Z</time>
      </trkpt>
      <trkpt lat="39.93586167" lon="-0.45574667">
        <ele>600.0</ele>
        <time>2017-05-27T08:23:00.185Z</time>
      </trkpt>
      <trkpt lat="39.93586167" lon="-0.45574667">
        <ele>600.0</ele>
        <time>2017-05-27T08:23:01.191Z</time>
      </trkpt>
      <trkpt lat="39.93583167" lon="-0.45565167">
        <ele>600.0</ele>
        <time>2017-05-27T08:23:02.160Z</time>
      </trkpt>
      <trkpt lat="39.93583167" lon="-0.45565167">
        <ele>600.0</ele>
        <time>2017-05-27T08:23:03.177Z</time>
      </trkpt>
      <trkpt lat="39.93580167" lon="-0.455555">
        <ele>600.0</ele>
        <time>2017-05-27T08:23:04.186Z</time>
      </trkpt>
      <trkpt lat="39.93578667" lon="-0.45550833">
        <ele>600.0</ele>
        <time>2017-05-27T08:23:05.158Z</time>
      </trkpt>
      <trkpt lat="39.93578667" lon="-0.45550833">
        <ele>600.0</ele>
        <time>2017-05-27T08:23:06.169Z</time>
      </trkpt>
      <trkpt lat="39.93575667" lon="-0.45541">
        <ele>601.0</ele>
        <time>2017-05-27T08:23:07.166Z</time>
      </trkpt>
      <trkpt lat="39.93575667" lon="-0.45541">
        <ele>601.0</ele>
        <time>2017-05-27T08:23:08.171Z</time>
      </trkpt>
      <trkpt lat="39.93572833" lon="-0.455315">
        <ele>601.0</ele>
        <time>2017-05-27T08:23:09.161Z</time>
      </trkpt>
      <trkpt lat="39.93572833" lon="-0.455315">
        <ele>601.0</ele>
        <time>2017-05-27T08:23:10.177Z</time>
      </trkpt>
      <trkpt lat="39.9357" lon="-0.45521833">
        <ele>601.0</ele>
        <time>2017-05-27T08:23:11.178Z</time>
      </trkpt>
      <trkpt lat="39.9357" lon="-0.45521833">
        <ele>601.0</ele>
        <time>2017-05-27T08:23:12.157Z</time>
      </trkpt>
      <trkpt lat="39.93567167" lon="-0.45512333">
        <ele>602.0</ele>
        <time>2017-05-27T08:23:13.174Z</time>
      </trkpt>
      <trkpt lat="39.93565833" lon="-0.45507667">
        <ele>601.0</ele>
        <time>2017-05-27T08:23:14.178Z</time>
      </trkpt>
      <trkpt lat="39.93565833" lon="-0.45507667">
        <ele>601.0</ele>
        <time>2017-05-27T08:23:15.185Z</time>
      </trkpt>
      <trkpt lat="39.93563333" lon="-0.45498">
        <ele>601.0</ele>
        <time>2017-05-27T08:23:16.184Z</time>
      </trkpt>
      <trkpt lat="39.93562" lon="-0.454935">
        <ele>602.0</ele>
        <time>2017-05-27T08:23:17.172Z</time>
      </trkpt>
      <trkpt lat="39.93562" lon="-0.454935">
        <ele>602.0</ele>
        <time>2017-05-27T08:23:18.179Z</time>
      </trkpt>
      <trkpt lat="39.93559" lon="-0.45484333">
        <ele>602.0</ele>
        <time>2017-05-27T08:23:19.173Z</time>
      </trkpt>
      <trkpt lat="39.93559" lon="-0.45484333">
        <ele>602.0</ele>
        <time>2017-05-27T08:23:20.179Z</time>
      </trkpt>
      <trkpt lat="39.93556667" lon="-0.45475167">
        <ele>602.0</ele>
        <time>2017-05-27T08:23:21.161Z</time>
      </trkpt>
      <trkpt lat="39.935555" lon="-0.454705">
        <ele>602.0</ele>
        <time>2017-05-27T08:23:22.191Z</time>
      </trkpt>
      <trkpt lat="39.93554167" lon="-0.45465667">
        <ele>603.0</ele>
        <time>2017-05-27T08:23:23.165Z</time>
      </trkpt>
      <trkpt lat="39.93554167" lon="-0.45465667">
        <ele>603.0</ele>
        <time>2017-05-27T08:23:24.171Z</time>
      </trkpt>
      <trkpt lat="39.93551167" lon="-0.454565">
        <ele>603.0</ele>
        <time>2017-05-27T08:23:25.165Z</time>
      </trkpt>
      <trkpt lat="39.93551167" lon="-0.454565">
        <ele>603.0</ele>
        <time>2017-05-27T08:23:26.170Z</time>
      </trkpt>
      <trkpt lat="39.93548667" lon="-0.45447333">
        <ele>603.0</ele>
        <time>2017-05-27T08:23:27.178Z</time>
      </trkpt>
      <trkpt lat="39.93548667" lon="-0.45447333">
        <ele>603.0</ele>
        <time>2017-05-27T08:23:28.183Z</time>
      </trkpt>
      <trkpt lat="39.93546167" lon="-0.45438833">
        <ele>603.0</ele>
        <time>2017-05-27T08:23:29.189Z</time>
      </trkpt>
      <trkpt lat="39.93546167" lon="-0.45438833">
        <ele>603.0</ele>
        <time>2017-05-27T08:23:30.165Z</time>
      </trkpt>
      <trkpt lat="39.935435" lon="-0.45430167">
        <ele>604.0</ele>
        <time>2017-05-27T08:23:31.165Z</time>
      </trkpt>
      <trkpt lat="39.935435" lon="-0.45430167">
        <ele>604.0</ele>
        <time>2017-05-27T08:23:32.165Z</time>
      </trkpt>
      <trkpt lat="39.93540333" lon="-0.45421667">
        <ele>604.0</ele>
        <time>2017-05-27T08:23:33.177Z</time>
      </trkpt>
      <trkpt lat="39.93538333" lon="-0.45417667">
        <ele>604.0</ele>
        <time>2017-05-27T08:23:34.173Z</time>
      </trkpt>
      <trkpt lat="39.93538333" lon="-0.45417667">
        <ele>604.0</ele>
        <time>2017-05-27T08:23:35.183Z</time>
      </trkpt>
      <trkpt lat="39.93533833" lon="-0.4541">
        <ele>604.0</ele>
        <time>2017-05-27T08:23:36.175Z</time>
      </trkpt>
      <trkpt lat="39.93533833" lon="-0.4541">
        <ele>604.0</ele>
        <time>2017-05-27T08:23:37.181Z</time>
      </trkpt>
      <trkpt lat="39.93528333" lon="-0.454035">
        <ele>604.0</ele>
        <time>2017-05-27T08:23:38.193Z</time>
      </trkpt>
      <trkpt lat="39.93525333" lon="-0.45400833">
        <ele>604.0</ele>
        <time>2017-05-27T08:23:39.175Z</time>
      </trkpt>
      <trkpt lat="39.93525333" lon="-0.45400833">
        <ele>604.0</ele>
        <time>2017-05-27T08:23:40.156Z</time>
      </trkpt>
      <trkpt lat="39.935185" lon="-0.45396833">
        <ele>604.0</ele>
        <time>2017-05-27T08:23:41.195Z</time>
      </trkpt>
      <trkpt lat="39.935185" lon="-0.45396833">
        <ele>604.0</ele>
        <time>2017-05-27T08:23:42.160Z</time>
      </trkpt>
      <trkpt lat="39.93512" lon="-0.45393833">
        <ele>605.0</ele>
        <time>2017-05-27T08:23:43.158Z</time>
      </trkpt>
      <trkpt lat="39.93512" lon="-0.45393833">
        <ele>605.0</ele>
        <time>2017-05-27T08:23:44.176Z</time>
      </trkpt>
      <trkpt lat="39.93505833" lon="-0.453915">
        <ele>605.0</ele>
        <time>2017-05-27T08:23:45.175Z</time>
      </trkpt>
      <trkpt lat="39.93505833" lon="-0.453915">
        <ele>605.0</ele>
        <time>2017-05-27T08:23:46.180Z</time>
      </trkpt>
      <trkpt lat="39.93500333" lon="-0.453895">
        <ele>606.0</ele>
        <time>2017-05-27T08:23:47.163Z</time>
      </trkpt>
      <trkpt lat="39.93500333" lon="-0.453895">
        <ele>606.0</ele>
        <time>2017-05-27T08:23:48.183Z</time>
      </trkpt>
      <trkpt lat="39.93494833" lon="-0.45387667">
        <ele>606.0</ele>
        <time>2017-05-27T08:23:49.176Z</time>
      </trkpt>
      <trkpt lat="39.93494833" lon="-0.45387667">
        <ele>606.0</ele>
        <time>2017-05-27T08:23:50.181Z</time>
      </trkpt>
      <trkpt lat="39.934895" lon="-0.45386333">
        <ele>607.0</ele>
        <time>2017-05-27T08:23:51.185Z</time>
      </trkpt>
      <trkpt lat="39.934895" lon="-0.45386333">
        <ele>607.0</ele>
        <time>2017-05-27T08:23:52.193Z</time>
      </trkpt>
      <trkpt lat="39.93484" lon="-0.45385167">
        <ele>607.0</ele>
        <time>2017-05-27T08:23:53.190Z</time>
      </trkpt>
      <trkpt lat="39.93484" lon="-0.45385167">
        <ele>607.0</ele>
        <time>2017-05-27T08:23:54.163Z</time>
      </trkpt>
      <trkpt lat="39.934785" lon="-0.45384167">
        <ele>608.0</ele>
        <time>2017-05-27T08:23:55.162Z</time>
      </trkpt>
      <trkpt lat="39.934785" lon="-0.45384167">
        <ele>608.0</ele>
        <time>2017-05-27T08:23:56.178Z</time>
      </trkpt>
      <trkpt lat="39.93473167" lon="-0.45382833">
        <ele>608.0</ele>
        <time>2017-05-27T08:23:57.162Z</time>
      </trkpt>
      <trkpt lat="39.93473167" lon="-0.45382833">
        <ele>608.0</ele>
        <time>2017-05-27T08:23:58.156Z</time>
      </trkpt>
      <trkpt lat="39.93468" lon="-0.45381667">
        <ele>609.0</ele>
        <time>2017-05-27T08:23:59.191Z</time>
      </trkpt>
      <trkpt lat="39.93465333" lon="-0.45381">
        <ele>609.0</ele>
        <time>2017-05-27T08:24:00.158Z</time>
      </trkpt>
      <trkpt lat="39.93465333" lon="-0.45381">
        <ele>609.0</ele>
        <time>2017-05-27T08:24:01.165Z</time>
      </trkpt>
      <trkpt lat="39.93460333" lon="-0.453795">
        <ele>610.0</ele>
        <time>2017-05-27T08:24:02.195Z</time>
      </trkpt>
      <trkpt lat="39.93460333" lon="-0.453795">
        <ele>610.0</ele>
        <time>2017-05-27T08:24:03.167Z</time>
      </trkpt>
      <trkpt lat="39.93455333" lon="-0.45377333">
        <ele>610.0</ele>
        <time>2017-05-27T08:24:04.165Z</time>
      </trkpt>
      <trkpt lat="39.93452833" lon="-0.45376167">
        <ele>610.0</ele>
        <time>2017-05-27T08:24:05.161Z</time>
      </trkpt>
      <trkpt lat="39.93452833" lon="-0.45376167">
        <ele>610.0</ele>
        <time>2017-05-27T08:24:06.183Z</time>
      </trkpt>
      <trkpt lat="39.93448" lon="-0.45373333">
        <ele>611.0</ele>
        <time>2017-05-27T08:24:07.185Z</time>
      </trkpt>
      <trkpt lat="39.93448" lon="-0.45373333">
        <ele>611.0</ele>
        <time>2017-05-27T08:24:08.192Z</time>
      </trkpt>
      <trkpt lat="39.93443333" lon="-0.45369833">
        <ele>611.0</ele>
        <time>2017-05-27T08:24:09.190Z</time>
      </trkpt>
      <trkpt lat="39.93441167" lon="-0.45367833">
        <ele>612.0</ele>
        <time>2017-05-27T08:24:10.177Z</time>
      </trkpt>
      <trkpt lat="39.93439" lon="-0.45365667">
        <ele>612.0</ele>
        <time>2017-05-27T08:24:11.185Z</time>
      </trkpt>
      <trkpt lat="39.93439" lon="-0.45365667">
        <ele>612.0</ele>
        <time>2017-05-27T08:24:12.194Z</time>
      </trkpt>
      <trkpt lat="39.93434667" lon="-0.45361167">
        <ele>612.0</ele>
        <time>2017-05-27T08:24:13.166Z</time>
      </trkpt>
      <trkpt lat="39.93432333" lon="-0.45359167">
        <ele>612.0</ele>
        <time>2017-05-27T08:24:14.180Z</time>
      </trkpt>
      <trkpt lat="39.93432333" lon="-0.45359167">
        <ele>612.0</ele>
        <time>2017-05-27T08:24:15.156Z</time>
      </trkpt>
      <trkpt lat="39.93427667" lon="-0.45354833">
        <ele>613.0</ele>
        <time>2017-05-27T08:24:16.187Z</time>
      </trkpt>
      <trkpt lat="39.934255" lon="-0.45352333">
        <ele>613.0</ele>
        <time>2017-05-27T08:24:17.173Z</time>
      </trkpt>
      <trkpt lat="39.934255" lon="-0.45352333">
        <ele>613.0</ele>
        <time>2017-05-27T08:24:18.194Z</time>
      </trkpt>
      <trkpt lat="39.93420833" lon="-0.45347167">
        <ele>613.0</ele>
        <time>2017-05-27T08:24:19.190Z</time>
      </trkpt>
      <trkpt lat="39.93420833" lon="-0.45347167">
        <ele>613.0</ele>
        <time>2017-05-27T08:24:20.195Z</time>
      </trkpt>
      <trkpt lat="39.93415667" lon="-0.45342167">
        <ele>613.0</ele>
        <time>2017-05-27T08:24:21.185Z</time>
      </trkpt>
      <trkpt lat="39.93415667" lon="-0.45342167">
        <ele>613.0</ele>
        <time>2017-05-27T08:24:22.193Z</time>
      </trkpt>
      <trkpt lat="39.93410333" lon="-0.45337">
        <ele>613.0</ele>
        <time>2017-05-27T08:24:23.178Z</time>
      </trkpt>
      <trkpt lat="39.93410333" lon="-0.45337">
        <ele>613.0</ele>
        <time>2017-05-27T08:24:24.185Z</time>
      </trkpt>
      <trkpt lat="39.93404667" lon="-0.45332167">
        <ele>613.0</ele>
        <time>2017-05-27T08:24:25.184Z</time>
      </trkpt>
      <trkpt lat="39.93404667" lon="-0.45332167">
        <ele>613.0</ele>
        <time>2017-05-27T08:24:26.191Z</time>
      </trkpt>
      <trkpt lat="39.93399167" lon="-0.45328167">
        <ele>613.0</ele>
        <time>2017-05-27T08:24:27.176Z</time>
      </trkpt>
      <trkpt lat="39.93399167" lon="-0.45328167">
        <ele>613.0</ele>
        <time>2017-05-27T08:24:28.192Z</time>
      </trkpt>
      <trkpt lat="39.93393833" lon="-0.453255">
        <ele>614.0</ele>
        <time>2017-05-27T08:24:29.185Z</time>
      </trkpt>
      <trkpt lat="39.93393833" lon="-0.453255">
        <ele>614.0</ele>
        <time>2017-05-27T08:24:30.191Z</time>
      </trkpt>
      <trkpt lat="39.933885" lon="-0.45323667">
        <ele>614.0</ele>
        <time>2017-05-27T08:24:31.184Z</time>
      </trkpt>
      <trkpt lat="39.93386" lon="-0.45322833">
        <ele>614.0</ele>
        <time>2017-05-27T08:24:32.191Z</time>
      </trkpt>
      <trkpt lat="39.93386" lon="-0.45322833">
        <ele>614.0</ele>
        <time>2017-05-27T08:24:33.161Z</time>
      </trkpt>
      <trkpt lat="39.93381" lon="-0.45321667">
        <ele>615.0</ele>
        <time>2017-05-27T08:24:34.193Z</time>
      </trkpt>
      <trkpt lat="39.933785" lon="-0.45321167">
        <ele>615.0</ele>
        <time>2017-05-27T08:24:35.192Z</time>
      </trkpt>
      <trkpt lat="39.933785" lon="-0.45321167">
        <ele>615.0</ele>
        <time>2017-05-27T08:24:36.157Z</time>
      </trkpt>
      <trkpt lat="39.933735" lon="-0.45319667">
        <ele>616.0</ele>
        <time>2017-05-27T08:24:37.189Z</time>
      </trkpt>
      <trkpt lat="39.933735" lon="-0.45319667">
        <ele>616.0</ele>
        <time>2017-05-27T08:24:38.167Z</time>
      </trkpt>
      <trkpt lat="39.93368667" lon="-0.45318167">
        <ele>616.0</ele>
        <time>2017-05-27T08:24:39.157Z</time>
      </trkpt>
      <trkpt lat="39.93366333" lon="-0.45317667">
        <ele>616.0</ele>
        <time>2017-05-27T08:24:40.184Z</time>
      </trkpt>
      <trkpt lat="39.93363833" lon="-0.45317">
        <ele>616.0</ele>
        <time>2017-05-27T08:24:41.185Z</time>
      </trkpt>
      <trkpt lat="39.93363833" lon="-0.45317">
        <ele>616.0</ele>
        <time>2017-05-27T08:24:42.191Z</time>
      </trkpt>
      <trkpt lat="39.93359167" lon="-0.453155">
        <ele>617.0</ele>
        <time>2017-05-27T08:24:43.180Z</time>
      </trkpt>
      <trkpt lat="39.93359167" lon="-0.453155">
        <ele>617.0</ele>
        <time>2017-05-27T08:24:44.194Z</time>
      </trkpt>
      <trkpt lat="39.933545" lon="-0.45314333">
        <ele>617.0</ele>
        <time>2017-05-27T08:24:45.195Z</time>
      </trkpt>
      <trkpt lat="39.93352167" lon="-0.45313333">
        <ele>617.0</ele>
        <time>2017-05-27T08:24:46.193Z</time>
      </trkpt>
      <trkpt lat="39.93352167" lon="-0.45313333">
        <ele>617.0</ele>
        <time>2017-05-27T08:24:47.161Z</time>
      </trkpt>
      <trkpt lat="39.93347333" lon="-0.45311667">
        <ele>618.0</ele>
        <time>2017-05-27T08:24:48.195Z</time>
      </trkpt>
      <trkpt lat="39.93347333" lon="-0.45311667">
        <ele>618.0</ele>
        <time>2017-05-27T08:24:49.161Z</time>
      </trkpt>
      <trkpt lat="39.93342667" lon="-0.45310333">
        <ele>618.0</ele>
        <time>2017-05-27T08:24:50.166Z</time>
      </trkpt>
      <trkpt lat="39.93342667" lon="-0.45310333">
        <ele>618.0</ele>
        <time>2017-05-27T08:24:51.178Z</time>
      </trkpt>
      <trkpt lat="39.93338" lon="-0.45308833">
        <ele>619.0</ele>
        <time>2017-05-27T08:24:52.170Z</time>
      </trkpt>
      <trkpt lat="39.93335667" lon="-0.45308167">
        <ele>619.0</ele>
        <time>2017-05-27T08:24:53.172Z</time>
      </trkpt>
      <trkpt lat="39.93335667" lon="-0.45308167">
        <ele>619.0</ele>
        <time>2017-05-27T08:24:54.178Z</time>
      </trkpt>
      <trkpt lat="39.93331333" lon="-0.45306667">
        <ele>619.0</ele>
        <time>2017-05-27T08:24:55.170Z</time>
      </trkpt>
      <trkpt lat="39.93331333" lon="-0.45306667">
        <ele>619.0</ele>
        <time>2017-05-27T08:24:56.176Z</time>
      </trkpt>
      <trkpt lat="39.93327167" lon="-0.453055">
        <ele>620.0</ele>
        <time>2017-05-27T08:24:57.175Z</time>
      </trkpt>
      <trkpt lat="39.93327167" lon="-0.453055">
        <ele>620.0</ele>
        <time>2017-05-27T08:24:58.180Z</time>
      </trkpt>
      <trkpt lat="39.93322833" lon="-0.453045">
        <ele>620.0</ele>
        <time>2017-05-27T08:24:59.185Z</time>
      </trkpt>
      <trkpt lat="39.93322833" lon="-0.453045">
        <ele>620.0</ele>
        <time>2017-05-27T08:25:00.193Z</time>
      </trkpt>
      <trkpt lat="39.933185" lon="-0.453035">
        <ele>621.0</ele>
        <time>2017-05-27T08:25:01.175Z</time>
      </trkpt>
      <trkpt lat="39.93316333" lon="-0.45303">
        <ele>621.0</ele>
        <time>2017-05-27T08:25:02.174Z</time>
      </trkpt>
      <trkpt lat="39.93316333" lon="-0.45303">
        <ele>621.0</ele>
        <time>2017-05-27T08:25:03.183Z</time>
      </trkpt>
      <trkpt lat="39.93312167" lon="-0.45302167">
        <ele>621.0</ele>
        <time>2017-05-27T08:25:04.175Z</time>
      </trkpt>
      <trkpt lat="39.93310167" lon="-0.45301667">
        <ele>622.0</ele>
        <time>2017-05-27T08:25:05.175Z</time>
      </trkpt>
      <trkpt lat="39.93310167" lon="-0.45301667">
        <ele>622.0</ele>
        <time>2017-05-27T08:25:06.184Z</time>
      </trkpt>
      <trkpt lat="39.93306" lon="-0.45300167">
        <ele>622.0</ele>
        <time>2017-05-27T08:25:07.179Z</time>
      </trkpt>
      <trkpt lat="39.93303833" lon="-0.45299667">
        <ele>623.0</ele>
        <time>2017-05-27T08:25:08.160Z</time>
      </trkpt>
      <trkpt lat="39.93303833" lon="-0.45299667">
        <ele>623.0</ele>
        <time>2017-05-27T08:25:09.180Z</time>
      </trkpt>
      <trkpt lat="39.932995" lon="-0.452985">
        <ele>623.0</ele>
        <time>2017-05-27T08:25:10.175Z</time>
      </trkpt>
      <trkpt lat="39.93297333" lon="-0.45298">
        <ele>623.0</ele>
        <time>2017-05-27T08:25:11.174Z</time>
      </trkpt>
      <trkpt lat="39.93297333" lon="-0.45298">
        <ele>623.0</ele>
        <time>2017-05-27T08:25:12.180Z</time>
      </trkpt>
      <trkpt lat="39.93292833" lon="-0.45297333">
        <ele>624.0</ele>
        <time>2017-05-27T08:25:13.165Z</time>
      </trkpt>
      <trkpt lat="39.93290833" lon="-0.45296833">
        <ele>624.0</ele>
        <time>2017-05-27T08:25:14.185Z</time>
      </trkpt>
      <trkpt lat="39.93288833" lon="-0.45296167">
        <ele>624.0</ele>
        <time>2017-05-27T08:25:15.190Z</time>
      </trkpt>
      <trkpt lat="39.93288833" lon="-0.45296167">
        <ele>624.0</ele>
        <time>2017-05-27T08:25:16.196Z</time>
      </trkpt>
      <trkpt lat="39.93284667" lon="-0.452945">
        <ele>625.0</ele>
        <time>2017-05-27T08:25:17.195Z</time>
      </trkpt>
      <trkpt lat="39.93284667" lon="-0.452945">
        <ele>625.0</ele>
        <time>2017-05-27T08:25:18.160Z</time>
      </trkpt>
      <trkpt lat="39.93280833" lon="-0.45293167">
        <ele>625.0</ele>
        <time>2017-05-27T08:25:19.165Z</time>
      </trkpt>
      <trkpt lat="39.93278833" lon="-0.45292333">
        <ele>626.0</ele>
        <time>2017-05-27T08:25:20.177Z</time>
      </trkpt>
      <trkpt lat="39.93278833" lon="-0.45292333">
        <ele>626.0</ele>
        <time>2017-05-27T08:25:21.182Z</time>
      </trkpt>
      <trkpt lat="39.93274667" lon="-0.4529">
        <ele>626.0</ele>
        <time>2017-05-27T08:25:22.185Z</time>
      </trkpt>
      <trkpt lat="39.93272667" lon="-0.452885">
        <ele>626.0</ele>
        <time>2017-05-27T08:25:23.178Z</time>
      </trkpt>
      <trkpt lat="39.93272667" lon="-0.452885">
        <ele>626.0</ele>
        <time>2017-05-27T08:25:24.184Z</time>
      </trkpt>
      <trkpt lat="39.93268667" lon="-0.45286333">
        <ele>627.0</ele>
        <time>2017-05-27T08:25:25.190Z</time>
      </trkpt>
      <trkpt lat="39.93268667" lon="-0.45286333">
        <ele>627.0</ele>
        <time>2017-05-27T08:25:26.195Z</time>
      </trkpt>
      <trkpt lat="39.93264833" lon="-0.452845">
        <ele>627.0</ele>
        <time>2017-05-27T08:25:27.185Z</time>
      </trkpt>
      <trkpt lat="39.93264833" lon="-0.452845">
        <ele>627.0</ele>
        <time>2017-05-27T08:25:28.193Z</time>
      </trkpt>
      <trkpt lat="39.93261333" lon="-0.45282167">
        <ele>628.0</ele>
        <time>2017-05-27T08:25:29.186Z</time>
      </trkpt>
      <trkpt lat="39.93261333" lon="-0.45282167">
        <ele>628.0</ele>
        <time>2017-05-27T08:25:30.192Z</time>
      </trkpt>
      <trkpt lat="39.93257667" lon="-0.45279833">
        <ele>628.0</ele>
        <time>2017-05-27T08:25:31.187Z</time>
      </trkpt>
      <trkpt lat="39.93257667" lon="-0.45279833">
        <ele>628.0</ele>
        <time>2017-05-27T08:25:32.194Z</time>
      </trkpt>
      <trkpt lat="39.93254" lon="-0.45277667">
        <ele>629.0</ele>
        <time>2017-05-27T08:25:33.192Z</time>
      </trkpt>
      <trkpt lat="39.93254" lon="-0.45277667">
        <ele>629.0</ele>
        <time>2017-05-27T08:25:34.157Z</time>
      </trkpt>
      <trkpt lat="39.93250333" lon="-0.452755">
        <ele>629.0</ele>
        <time>2017-05-27T08:25:35.195Z</time>
      </trkpt>
      <trkpt lat="39.93250333" lon="-0.452755">
        <ele>629.0</ele>
        <time>2017-05-27T08:25:36.160Z</time>
      </trkpt>
      <trkpt lat="39.93246833" lon="-0.45273">
        <ele>629.0</ele>
        <time>2017-05-27T08:25:37.175Z</time>
      </trkpt>
      <trkpt lat="39.93245" lon="-0.45271833">
        <ele>630.0</ele>
        <time>2017-05-27T08:25:38.169Z</time>
      </trkpt>
      <trkpt lat="39.93245" lon="-0.45271833">
        <ele>630.0</ele>
        <time>2017-05-27T08:25:39.192Z</time>
      </trkpt>
      <trkpt lat="39.93241167" lon="-0.45269833">
        <ele>630.0</ele>
        <time>2017-05-27T08:25:40.195Z</time>
      </trkpt>
      <trkpt lat="39.932395" lon="-0.45268667">
        <ele>631.0</ele>
        <time>2017-05-27T08:25:41.165Z</time>
      </trkpt>
      <trkpt lat="39.932395" lon="-0.45268667">
        <ele>631.0</ele>
        <time>2017-05-27T08:25:42.183Z</time>
      </trkpt>
      <trkpt lat="39.93236" lon="-0.452665">
        <ele>631.0</ele>
        <time>2017-05-27T08:25:43.192Z</time>
      </trkpt>
      <trkpt lat="39.93236" lon="-0.452665">
        <ele>631.0</ele>
        <time>2017-05-27T08:25:44.158Z</time>
      </trkpt>
      <trkpt lat="39.932325" lon="-0.452645">
        <ele>631.0</ele>
        <time>2017-05-27T08:25:45.163Z</time>
      </trkpt>
      <trkpt lat="39.932325" lon="-0.452645">
        <ele>631.0</ele>
        <time>2017-05-27T08:25:46.178Z</time>
      </trkpt>
      <trkpt lat="39.93229333" lon="-0.45261667">
        <ele>632.0</ele>
        <time>2017-05-27T08:25:47.185Z</time>
      </trkpt>
      <trkpt lat="39.93229333" lon="-0.45261667">
        <ele>632.0</ele>
        <time>2017-05-27T08:25:48.190Z</time>
      </trkpt>
      <trkpt lat="39.93226167" lon="-0.452585">
        <ele>632.0</ele>
        <time>2017-05-27T08:25:49.175Z</time>
      </trkpt>
      <trkpt lat="39.93226167" lon="-0.452585">
        <ele>632.0</ele>
        <time>2017-05-27T08:25:50.163Z</time>
      </trkpt>
      <trkpt lat="39.93223333" lon="-0.45255">
        <ele>633.0</ele>
        <time>2017-05-27T08:25:51.166Z</time>
      </trkpt>
      <trkpt lat="39.93223333" lon="-0.45255">
        <ele>633.0</ele>
        <time>2017-05-27T08:25:52.172Z</time>
      </trkpt>
      <trkpt lat="39.93221167" lon="-0.452515">
        <ele>633.0</ele>
        <time>2017-05-27T08:25:53.171Z</time>
      </trkpt>
      <trkpt lat="39.93221167" lon="-0.452515">
        <ele>633.0</ele>
        <time>2017-05-27T08:25:54.176Z</time>
      </trkpt>
      <trkpt lat="39.93218833" lon="-0.45247">
        <ele>634.0</ele>
        <time>2017-05-27T08:25:55.165Z</time>
      </trkpt>
      <trkpt lat="39.93218" lon="-0.452445">
        <ele>634.0</ele>
        <time>2017-05-27T08:25:56.175Z</time>
      </trkpt>
      <trkpt lat="39.93218" lon="-0.452445">
        <ele>634.0</ele>
        <time>2017-05-27T08:25:57.167Z</time>
      </trkpt>
      <trkpt lat="39.93216833" lon="-0.452395">
        <ele>634.0</ele>
        <time>2017-05-27T08:25:58.175Z</time>
      </trkpt>
      <trkpt lat="39.93216833" lon="-0.452395">
        <ele>634.0</ele>
        <time>2017-05-27T08:25:59.181Z</time>
      </trkpt>
      <trkpt lat="39.93215667" lon="-0.45234">
        <ele>635.0</ele>
        <time>2017-05-27T08:26:00.192Z</time>
      </trkpt>
      <trkpt lat="39.93215667" lon="-0.45234">
        <ele>635.0</ele>
        <time>2017-05-27T08:26:01.158Z</time>
      </trkpt>
      <trkpt lat="39.932145" lon="-0.45228333">
        <ele>635.0</ele>
        <time>2017-05-27T08:26:02.161Z</time>
      </trkpt>
      <trkpt lat="39.932145" lon="-0.45228333">
        <ele>635.0</ele>
        <time>2017-05-27T08:26:03.176Z</time>
      </trkpt>
      <trkpt lat="39.93213667" lon="-0.45223">
        <ele>636.0</ele>
        <time>2017-05-27T08:26:04.169Z</time>
      </trkpt>
      <trkpt lat="39.93213667" lon="-0.45223">
        <ele>636.0</ele>
        <time>2017-05-27T08:26:05.193Z</time>
      </trkpt>
      <trkpt lat="39.93213" lon="-0.452175">
        <ele>636.0</ele>
        <time>2017-05-27T08:26:06.173Z</time>
      </trkpt>
      <trkpt lat="39.93213" lon="-0.452175">
        <ele>636.0</ele>
        <time>2017-05-27T08:26:07.192Z</time>
      </trkpt>
      <trkpt lat="39.932125" lon="-0.45211833">
        <ele>636.0</ele>
        <time>2017-05-27T08:26:08.185Z</time>
      </trkpt>
      <trkpt lat="39.932125" lon="-0.45211833">
        <ele>636.0</ele>
        <time>2017-05-27T08:26:09.192Z</time>
      </trkpt>
      <trkpt lat="39.93211833" lon="-0.45206">
        <ele>636.0</ele>
        <time>2017-05-27T08:26:10.177Z</time>
      </trkpt>
      <trkpt lat="39.932115" lon="-0.45202833">
        <ele>636.0</ele>
        <time>2017-05-27T08:26:11.183Z</time>
      </trkpt>
      <trkpt lat="39.932115" lon="-0.45202833">
        <ele>636.0</ele>
        <time>2017-05-27T08:26:12.193Z</time>
      </trkpt>
      <trkpt lat="39.93210833" lon="-0.45196333">
        <ele>637.0</ele>
        <time>2017-05-27T08:26:13.168Z</time>
      </trkpt>
      <trkpt lat="39.93210667" lon="-0.451925">
        <ele>637.0</ele>
        <time>2017-05-27T08:26:14.189Z</time>
      </trkpt>
      <trkpt lat="39.93210667" lon="-0.451925">
        <ele>637.0</ele>
        <time>2017-05-27T08:26:15.195Z</time>
      </trkpt>
      <trkpt lat="39.93210167" lon="-0.45183667">
        <ele>637.0</ele>
        <time>2017-05-27T08:26:16.186Z</time>
      </trkpt>
      <trkpt lat="39.93209833" lon="-0.45178833">
        <ele>637.0</ele>
        <time>2017-05-27T08:26:17.187Z</time>
      </trkpt>
      <trkpt lat="39.93209833" lon="-0.45178833">
        <ele>637.0</ele>
        <time>2017-05-27T08:26:18.194Z</time>
      </trkpt>
      <trkpt lat="39.93208833" lon="-0.451675">
        <ele>637.0</ele>
        <time>2017-05-27T08:26:19.185Z</time>
      </trkpt>
      <trkpt lat="39.93208" lon="-0.45161">
        <ele>637.0</ele>
        <time>2017-05-27T08:26:20.183Z</time>
      </trkpt>
      <trkpt lat="39.93208" lon="-0.45161">
        <ele>637.0</ele>
        <time>2017-05-27T08:26:21.192Z</time>
      </trkpt>
      <trkpt lat="39.93205" lon="-0.45146667">
        <ele>636.0</ele>
        <time>2017-05-27T08:26:22.170Z</time>
      </trkpt>
      <trkpt lat="39.93202167" lon="-0.45139167">
        <ele>635.0</ele>
        <time>2017-05-27T08:26:23.175Z</time>
      </trkpt>
      <trkpt lat="39.93202167" lon="-0.45139167">
        <ele>635.0</ele>
        <time>2017-05-27T08:26:24.182Z</time>
      </trkpt>
      <trkpt lat="39.93193667" lon="-0.451255">
        <ele>633.0</ele>
        <time>2017-05-27T08:26:25.195Z</time>
      </trkpt>
      <trkpt lat="39.93193667" lon="-0.451255">
        <ele>633.0</ele>
        <time>2017-05-27T08:26:26.160Z</time>
      </trkpt>
      <trkpt lat="39.93182" lon="-0.45112667">
        <ele>631.0</ele>
        <time>2017-05-27T08:26:27.165Z</time>
      </trkpt>
      <trkpt lat="39.93182" lon="-0.45112667">
        <ele>631.0</ele>
        <time>2017-05-27T08:26:28.170Z</time>
      </trkpt>
      <trkpt lat="39.93168333" lon="-0.45101833">
        <ele>630.0</ele>
        <time>2017-05-27T08:26:29.175Z</time>
      </trkpt>
      <trkpt lat="39.93168333" lon="-0.45101833">
        <ele>630.0</ele>
        <time>2017-05-27T08:26:30.190Z</time>
      </trkpt>
      <trkpt lat="39.93154" lon="-0.45091167">
        <ele>628.0</ele>
        <time>2017-05-27T08:26:31.195Z</time>
      </trkpt>
      <trkpt lat="39.93145833" lon="-0.45087">
        <ele>627.0</ele>
        <time>2017-05-27T08:26:32.176Z</time>
      </trkpt>
      <trkpt lat="39.93145833" lon="-0.45087">
        <ele>627.0</ele>
        <time>2017-05-27T08:26:33.182Z</time>
      </trkpt>
      <trkpt lat="39.93127167" lon="-0.45084">
        <ele>626.0</ele>
        <time>2017-05-27T08:26:34.183Z</time>
      </trkpt>
      <trkpt lat="39.93117333" lon="-0.45084167">
        <ele>625.0</ele>
        <time>2017-05-27T08:26:35.166Z</time>
      </trkpt>
      <trkpt lat="39.93117333" lon="-0.45084167">
        <ele>625.0</ele>
        <time>2017-05-27T08:26:36.194Z</time>
      </trkpt>
      <trkpt lat="39.93097333" lon="-0.45085167">
        <ele>624.0</ele>
        <time>2017-05-27T08:26:37.195Z</time>
      </trkpt>
      <trkpt lat="39.93097333" lon="-0.45085167">
        <ele>624.0</ele>
        <time>2017-05-27T08:26:38.163Z</time>
      </trkpt>
      <trkpt lat="39.930785" lon="-0.45082667">
        <ele>622.0</ele>
        <time>2017-05-27T08:26:39.163Z</time>
      </trkpt>
      <trkpt lat="39.930785" lon="-0.45082667">
        <ele>622.0</ele>
        <time>2017-05-27T08:26:40.169Z</time>
      </trkpt>
      <trkpt lat="39.93063167" lon="-0.450735">
        <ele>621.0</ele>
        <time>2017-05-27T08:26:41.165Z</time>
      </trkpt>
      <trkpt lat="39.93063167" lon="-0.450735">
        <ele>621.0</ele>
        <time>2017-05-27T08:26:42.185Z</time>
      </trkpt>
      <trkpt lat="39.930495" lon="-0.450575">
        <ele>619.0</ele>
        <time>2017-05-27T08:26:43.185Z</time>
      </trkpt>
      <trkpt lat="39.930495" lon="-0.450575">
        <ele>619.0</ele>
        <time>2017-05-27T08:26:44.194Z</time>
      </trkpt>
      <trkpt lat="39.93035167" lon="-0.45039167">
        <ele>617.0</ele>
        <time>2017-05-27T08:26:45.164Z</time>
      </trkpt>
      <trkpt lat="39.93035167" lon="-0.45039167">
        <ele>617.0</ele>
        <time>2017-05-27T08:26:46.184Z</time>
      </trkpt>
      <trkpt lat="39.93021" lon="-0.45020833">
        <ele>615.0</ele>
        <time>2017-05-27T08:26:47.183Z</time>
      </trkpt>
      <trkpt lat="39.93021" lon="-0.45020833">
        <ele>615.0</ele>
        <time>2017-05-27T08:26:48.188Z</time>
      </trkpt>
      <trkpt lat="39.93008" lon="-0.45006167">
        <ele>613.0</ele>
        <time>2017-05-27T08:26:49.246Z</time>
      </trkpt>
      <trkpt lat="39.93008" lon="-0.45006167">
        <ele>613.0</ele>
        <time>2017-05-27T08:26:50.195Z</time>
      </trkpt>
      <trkpt lat="39.929955" lon="-0.45004167">
        <ele>611.0</ele>
        <time>2017-05-27T08:26:51.161Z</time>
      </trkpt>
      <trkpt lat="39.929955" lon="-0.45004167">
        <ele>611.0</ele>
        <time>2017-05-27T08:26:52.171Z</time>
      </trkpt>
      <trkpt lat="39.92988333" lon="-0.45019667">
        <ele>609.0</ele>
        <time>2017-05-27T08:26:53.186Z</time>
      </trkpt>
      <trkpt lat="39.92988333" lon="-0.45019667">
        <ele>609.0</ele>
        <time>2017-05-27T08:26:54.191Z</time>
      </trkpt>
      <trkpt lat="39.92985167" lon="-0.45041">
        <ele>606.0</ele>
        <time>2017-05-27T08:26:55.195Z</time>
      </trkpt>
      <trkpt lat="39.92985167" lon="-0.45041">
        <ele>606.0</ele>
        <time>2017-05-27T08:26:56.160Z</time>
      </trkpt>
      <trkpt lat="39.92977667" lon="-0.45060167">
        <ele>605.0</ele>
        <time>2017-05-27T08:26:57.165Z</time>
      </trkpt>
      <trkpt lat="39.92971" lon="-0.45066">
        <ele>604.0</ele>
        <time>2017-05-27T08:26:58.193Z</time>
      </trkpt>
      <trkpt lat="39.92962667" lon="-0.45068167">
        <ele>602.0</ele>
        <time>2017-05-27T08:26:59.175Z</time>
      </trkpt>
      <trkpt lat="39.92962667" lon="-0.45068167">
        <ele>602.0</ele>
        <time>2017-05-27T08:27:00.180Z</time>
      </trkpt>
      <trkpt lat="39.92946333" lon="-0.45057333">
        <ele>600.0</ele>
        <time>2017-05-27T08:27:01.195Z</time>
      </trkpt>
      <trkpt lat="39.92938833" lon="-0.450485">
        <ele>599.0</ele>
        <time>2017-05-27T08:27:02.163Z</time>
      </trkpt>
      <trkpt lat="39.92938833" lon="-0.450485">
        <ele>599.0</ele>
        <time>2017-05-27T08:27:03.187Z</time>
      </trkpt>
      <trkpt lat="39.92920833" lon="-0.450325">
        <ele>597.0</ele>
        <time>2017-05-27T08:27:04.187Z</time>
      </trkpt>
      <trkpt lat="39.92910333" lon="-0.450255">
        <ele>595.0</ele>
        <time>2017-05-27T08:27:05.195Z</time>
      </trkpt>
      <trkpt lat="39.92910333" lon="-0.450255">
        <ele>595.0</ele>
        <time>2017-05-27T08:27:06.160Z</time>
      </trkpt>
      <trkpt lat="39.928895" lon="-0.45010667">
        <ele>593.0</ele>
        <time>2017-05-27T08:27:07.169Z</time>
      </trkpt>
      <trkpt lat="39.92880333" lon="-0.45001833">
        <ele>591.0</ele>
        <time>2017-05-27T08:27:08.170Z</time>
      </trkpt>
      <trkpt lat="39.92880333" lon="-0.45001833">
        <ele>591.0</ele>
        <time>2017-05-27T08:27:09.179Z</time>
      </trkpt>
      <trkpt lat="39.92866333" lon="-0.44980167">
        <ele>589.0</ele>
        <time>2017-05-27T08:27:10.175Z</time>
      </trkpt>
      <trkpt lat="39.92860667" lon="-0.44968667">
        <ele>588.0</ele>
        <time>2017-05-27T08:27:11.195Z</time>
      </trkpt>
      <trkpt lat="39.92860667" lon="-0.44968667">
        <ele>588.0</ele>
        <time>2017-05-27T08:27:12.160Z</time>
      </trkpt>
      <trkpt lat="39.92845333" lon="-0.4495">
        <ele>586.0</ele>
        <time>2017-05-27T08:27:13.184Z</time>
      </trkpt>
      <trkpt lat="39.92835" lon="-0.44944167">
        <ele>586.0</ele>
        <time>2017-05-27T08:27:14.192Z</time>
      </trkpt>
      <trkpt lat="39.928245" lon="-0.44940667">
        <ele>584.0</ele>
        <time>2017-05-27T08:27:15.165Z</time>
      </trkpt>
      <trkpt lat="39.928245" lon="-0.44940667">
        <ele>584.0</ele>
        <time>2017-05-27T08:27:16.186Z</time>
      </trkpt>
      <trkpt lat="39.92803667" lon="-0.44933667">
        <ele>581.0</ele>
        <time>2017-05-27T08:27:17.184Z</time>
      </trkpt>
      <trkpt lat="39.92803667" lon="-0.44933667">
        <ele>581.0</ele>
        <time>2017-05-27T08:27:18.192Z</time>
      </trkpt>
      <trkpt lat="39.92784833" lon="-0.44921167">
        <ele>579.0</ele>
        <time>2017-05-27T08:27:19.159Z</time>
      </trkpt>
      <trkpt lat="39.92784833" lon="-0.44921167">
        <ele>579.0</ele>
        <time>2017-05-27T08:27:20.162Z</time>
      </trkpt>
      <trkpt lat="39.92768333" lon="-0.44899833">
        <ele>577.0</ele>
        <time>2017-05-27T08:27:21.165Z</time>
      </trkpt>
      <trkpt lat="39.92760333" lon="-0.44887833">
        <ele>576.0</ele>
        <time>2017-05-27T08:27:22.181Z</time>
      </trkpt>
      <trkpt lat="39.92752333" lon="-0.44875833">
        <ele>575.0</ele>
        <time>2017-05-27T08:27:23.185Z</time>
      </trkpt>
      <trkpt lat="39.92752333" lon="-0.44875833">
        <ele>575.0</ele>
        <time>2017-05-27T08:27:24.194Z</time>
      </trkpt>
      <trkpt lat="39.92737333" lon="-0.44847667">
        <ele>572.0</ele>
        <time>2017-05-27T08:27:25.194Z</time>
      </trkpt>
      <trkpt lat="39.92731333" lon="-0.44831667">
        <ele>571.0</ele>
        <time>2017-05-27T08:27:26.191Z</time>
      </trkpt>
      <trkpt lat="39.92731333" lon="-0.44831667">
        <ele>571.0</ele>
        <time>2017-05-27T08:27:27.156Z</time>
      </trkpt>
      <trkpt lat="39.927205" lon="-0.44800833">
        <ele>569.0</ele>
        <time>2017-05-27T08:27:28.175Z</time>
      </trkpt>
      <trkpt lat="39.927205" lon="-0.44800833">
        <ele>569.0</ele>
        <time>2017-05-27T08:27:29.196Z</time>
      </trkpt>
      <trkpt lat="39.92710333" lon="-0.44772333">
        <ele>567.0</ele>
        <time>2017-05-27T08:27:30.160Z</time>
      </trkpt>
      <trkpt lat="39.92704667" lon="-0.44758833">
        <ele>566.0</ele>
        <time>2017-05-27T08:27:31.184Z</time>
      </trkpt>
      <trkpt lat="39.92704667" lon="-0.44758833">
        <ele>566.0</ele>
        <time>2017-05-27T08:27:32.179Z</time>
      </trkpt>
      <trkpt lat="39.92689167" lon="-0.44736">
        <ele>562.0</ele>
        <time>2017-05-27T08:27:33.175Z</time>
      </trkpt>
      <trkpt lat="39.92689167" lon="-0.44736">
        <ele>562.0</ele>
        <time>2017-05-27T08:27:34.181Z</time>
      </trkpt>
      <trkpt lat="39.92669" lon="-0.44719">
        <ele>559.0</ele>
        <time>2017-05-27T08:27:35.162Z</time>
      </trkpt>
      <trkpt lat="39.92669" lon="-0.44719">
        <ele>559.0</ele>
        <time>2017-05-27T08:27:36.167Z</time>
      </trkpt>
      <trkpt lat="39.926495" lon="-0.44703167">
        <ele>558.0</ele>
        <time>2017-05-27T08:27:37.175Z</time>
      </trkpt>
      <trkpt lat="39.926495" lon="-0.44703167">
        <ele>558.0</ele>
        <time>2017-05-27T08:27:38.189Z</time>
      </trkpt>
      <trkpt lat="39.92634667" lon="-0.44683167">
        <ele>557.0</ele>
        <time>2017-05-27T08:27:39.159Z</time>
      </trkpt>
      <trkpt lat="39.92629667" lon="-0.44671">
        <ele>556.0</ele>
        <time>2017-05-27T08:27:40.185Z</time>
      </trkpt>
      <trkpt lat="39.92629667" lon="-0.44671">
        <ele>556.0</ele>
        <time>2017-05-27T08:27:41.194Z</time>
      </trkpt>
      <trkpt lat="39.926235" lon="-0.44644833">
        <ele>555.0</ele>
        <time>2017-05-27T08:27:42.196Z</time>
      </trkpt>
      <trkpt lat="39.926235" lon="-0.44644833">
        <ele>555.0</ele>
        <time>2017-05-27T08:27:43.160Z</time>
      </trkpt>
      <trkpt lat="39.92618" lon="-0.446185">
        <ele>554.0</ele>
        <time>2017-05-27T08:27:44.175Z</time>
      </trkpt>
      <trkpt lat="39.92618" lon="-0.446185">
        <ele>554.0</ele>
        <time>2017-05-27T08:27:45.191Z</time>
      </trkpt>
      <trkpt lat="39.92606333" lon="-0.44595">
        <ele>553.0</ele>
        <time>2017-05-27T08:27:46.184Z</time>
      </trkpt>
      <trkpt lat="39.925975" lon="-0.44585667">
        <ele>552.0</ele>
        <time>2017-05-27T08:27:47.185Z</time>
      </trkpt>
      <trkpt lat="39.925975" lon="-0.44585667">
        <ele>552.0</ele>
        <time>2017-05-27T08:27:48.156Z</time>
      </trkpt>
      <trkpt lat="39.92576667" lon="-0.44571667">
        <ele>550.0</ele>
        <time>2017-05-27T08:27:49.175Z</time>
      </trkpt>
      <trkpt lat="39.92565667" lon="-0.44565667">
        <ele>549.0</ele>
        <time>2017-05-27T08:27:50.184Z</time>
      </trkpt>
      <trkpt lat="39.92565667" lon="-0.44565667">
        <ele>549.0</ele>
        <time>2017-05-27T08:27:51.192Z</time>
      </trkpt>
      <trkpt lat="39.92542833" lon="-0.445555">
        <ele>547.0</ele>
        <time>2017-05-27T08:27:52.170Z</time>
      </trkpt>
      <trkpt lat="39.92530667" lon="-0.44553167">
        <ele>546.0</ele>
        <time>2017-05-27T08:27:53.174Z</time>
      </trkpt>
      <trkpt lat="39.92530667" lon="-0.44553167">
        <ele>546.0</ele>
        <time>2017-05-27T08:27:54.180Z</time>
      </trkpt>
      <trkpt lat="39.92505667" lon="-0.44555">
        <ele>544.0</ele>
        <time>2017-05-27T08:27:55.169Z</time>
      </trkpt>
      <trkpt lat="39.92505667" lon="-0.44555">
        <ele>544.0</ele>
        <time>2017-05-27T08:27:56.189Z</time>
      </trkpt>
      <trkpt lat="39.92481833" lon="-0.44564833">
        <ele>543.0</ele>
        <time>2017-05-27T08:27:57.186Z</time>
      </trkpt>
      <trkpt lat="39.92481833" lon="-0.44564833">
        <ele>543.0</ele>
        <time>2017-05-27T08:27:58.192Z</time>
      </trkpt>
      <trkpt lat="39.92460667" lon="-0.44574667">
        <ele>541.0</ele>
        <time>2017-05-27T08:27:59.179Z</time>
      </trkpt>
      <trkpt lat="39.92460667" lon="-0.44574667">
        <ele>541.0</ele>
        <time>2017-05-27T08:28:00.185Z</time>
      </trkpt>
      <trkpt lat="39.92440833" lon="-0.44577667">
        <ele>540.0</ele>
        <time>2017-05-27T08:28:01.168Z</time>
      </trkpt>
      <trkpt lat="39.92431" lon="-0.445755">
        <ele>540.0</ele>
        <time>2017-05-27T08:28:02.165Z</time>
      </trkpt>
      <trkpt lat="39.92431" lon="-0.445755">
        <ele>540.0</ele>
        <time>2017-05-27T08:28:03.183Z</time>
      </trkpt>
      <trkpt lat="39.92413667" lon="-0.44563">
        <ele>538.0</ele>
        <time>2017-05-27T08:28:04.185Z</time>
      </trkpt>
      <trkpt lat="39.92413667" lon="-0.44563">
        <ele>538.0</ele>
        <time>2017-05-27T08:28:05.195Z</time>
      </trkpt>
      <trkpt lat="39.92403167" lon="-0.44541333">
        <ele>537.0</ele>
        <time>2017-05-27T08:28:06.164Z</time>
      </trkpt>
      <trkpt lat="39.92403167" lon="-0.44541333">
        <ele>537.0</ele>
        <time>2017-05-27T08:28:07.168Z</time>
      </trkpt>
      <trkpt lat="39.923985" lon="-0.44516667">
        <ele>536.0</ele>
        <time>2017-05-27T08:28:08.168Z</time>
      </trkpt>
      <trkpt lat="39.92396167" lon="-0.44504333">
        <ele>536.0</ele>
        <time>2017-05-27T08:28:09.165Z</time>
      </trkpt>
      <trkpt lat="39.92396167" lon="-0.44504333">
        <ele>536.0</ele>
        <time>2017-05-27T08:28:10.171Z</time>
      </trkpt>
      <trkpt lat="39.92386833" lon="-0.44483">
        <ele>535.0</ele>
        <time>2017-05-27T08:28:11.196Z</time>
      </trkpt>
      <trkpt lat="39.92386833" lon="-0.44483">
        <ele>535.0</ele>
        <time>2017-05-27T08:28:12.172Z</time>
      </trkpt>
      <trkpt lat="39.92371" lon="-0.44469">
        <ele>534.0</ele>
        <time>2017-05-27T08:28:13.182Z</time>
      </trkpt>
      <trkpt lat="39.92363" lon="-0.44462667">
        <ele>533.0</ele>
        <time>2017-05-27T08:28:14.191Z</time>
      </trkpt>
      <trkpt lat="39.92355" lon="-0.44456167">
        <ele>533.0</ele>
        <time>2017-05-27T08:28:15.200Z</time>
      </trkpt>
      <trkpt lat="39.92355" lon="-0.44456167">
        <ele>533.0</ele>
        <time>2017-05-27T08:28:16.178Z</time>
      </trkpt>
      <trkpt lat="39.92339333" lon="-0.444435">
        <ele>531.0</ele>
        <time>2017-05-27T08:28:17.165Z</time>
      </trkpt>
      <trkpt lat="39.92339333" lon="-0.444435">
        <ele>531.0</ele>
        <time>2017-05-27T08:28:18.180Z</time>
      </trkpt>
      <trkpt lat="39.92323667" lon="-0.44431">
        <ele>531.0</ele>
        <time>2017-05-27T08:28:19.175Z</time>
      </trkpt>
      <trkpt lat="39.92316167" lon="-0.444245">
        <ele>530.0</ele>
        <time>2017-05-27T08:28:20.175Z</time>
      </trkpt>
      <trkpt lat="39.92316167" lon="-0.444245">
        <ele>530.0</ele>
        <time>2017-05-27T08:28:21.180Z</time>
      </trkpt>
      <trkpt lat="39.92303" lon="-0.44408333">
        <ele>530.0</ele>
        <time>2017-05-27T08:28:22.179Z</time>
      </trkpt>
      <trkpt lat="39.92297333" lon="-0.443985">
        <ele>529.0</ele>
        <time>2017-05-27T08:28:23.179Z</time>
      </trkpt>
      <trkpt lat="39.92297333" lon="-0.443985">
        <ele>529.0</ele>
        <time>2017-05-27T08:28:24.184Z</time>
      </trkpt>
      <trkpt lat="39.92286" lon="-0.44378667">
        <ele>529.0</ele>
        <time>2017-05-27T08:28:25.176Z</time>
      </trkpt>
      <trkpt lat="39.92286" lon="-0.44378667">
        <ele>529.0</ele>
        <time>2017-05-27T08:28:26.184Z</time>
      </trkpt>
      <trkpt lat="39.92274" lon="-0.44358333">
        <ele>528.0</ele>
        <time>2017-05-27T08:28:27.194Z</time>
      </trkpt>
      <trkpt lat="39.92274" lon="-0.44358333">
        <ele>528.0</ele>
        <time>2017-05-27T08:28:28.160Z</time>
      </trkpt>
      <trkpt lat="39.92261667" lon="-0.44337333">
        <ele>526.0</ele>
        <time>2017-05-27T08:28:29.194Z</time>
      </trkpt>
      <trkpt lat="39.92261667" lon="-0.44337333">
        <ele>526.0</ele>
        <time>2017-05-27T08:28:30.160Z</time>
      </trkpt>
      <trkpt lat="39.92249167" lon="-0.44315667">
        <ele>525.0</ele>
        <time>2017-05-27T08:28:31.194Z</time>
      </trkpt>
      <trkpt lat="39.92242667" lon="-0.44304833">
        <ele>524.0</ele>
        <time>2017-05-27T08:28:32.162Z</time>
      </trkpt>
      <trkpt lat="39.92242667" lon="-0.44304833">
        <ele>524.0</ele>
        <time>2017-05-27T08:28:33.171Z</time>
      </trkpt>
      <trkpt lat="39.92229333" lon="-0.44283167">
        <ele>523.0</ele>
        <time>2017-05-27T08:28:34.176Z</time>
      </trkpt>
      <trkpt lat="39.92222667" lon="-0.44272167">
        <ele>522.0</ele>
        <time>2017-05-27T08:28:35.165Z</time>
      </trkpt>
      <trkpt lat="39.92222667" lon="-0.44272167">
        <ele>522.0</ele>
        <time>2017-05-27T08:28:36.183Z</time>
      </trkpt>
      <trkpt lat="39.92209" lon="-0.44249333">
        <ele>520.0</ele>
        <time>2017-05-27T08:28:37.181Z</time>
      </trkpt>
      <trkpt lat="39.92209" lon="-0.44249333">
        <ele>520.0</ele>
        <time>2017-05-27T08:28:38.187Z</time>
      </trkpt>
      <trkpt lat="39.92195333" lon="-0.44228167">
        <ele>519.0</ele>
        <time>2017-05-27T08:28:39.168Z</time>
      </trkpt>
      <trkpt lat="39.92195333" lon="-0.44228167">
        <ele>519.0</ele>
        <time>2017-05-27T08:28:40.174Z</time>
      </trkpt>
      <trkpt lat="39.921795" lon="-0.44211167">
        <ele>517.0</ele>
        <time>2017-05-27T08:28:41.169Z</time>
      </trkpt>
      <trkpt lat="39.92172333" lon="-0.44202333">
        <ele>517.0</ele>
        <time>2017-05-27T08:28:42.184Z</time>
      </trkpt>
      <trkpt lat="39.92172333" lon="-0.44202333">
        <ele>517.0</ele>
        <time>2017-05-27T08:28:43.195Z</time>
      </trkpt>
      <trkpt lat="39.92164" lon="-0.44180667">
        <ele>515.0</ele>
        <time>2017-05-27T08:28:44.192Z</time>
      </trkpt>
      <trkpt lat="39.92164" lon="-0.44180667">
        <ele>515.0</ele>
        <time>2017-05-27T08:28:45.157Z</time>
      </trkpt>
      <trkpt lat="39.921585" lon="-0.441565">
        <ele>513.0</ele>
        <time>2017-05-27T08:28:46.190Z</time>
      </trkpt>
      <trkpt lat="39.92153333" lon="-0.44146">
        <ele>513.0</ele>
        <time>2017-05-27T08:28:47.180Z</time>
      </trkpt>
      <trkpt lat="39.92153333" lon="-0.44146">
        <ele>513.0</ele>
        <time>2017-05-27T08:28:48.186Z</time>
      </trkpt>
      <trkpt lat="39.92137" lon="-0.44130833">
        <ele>511.0</ele>
        <time>2017-05-27T08:28:49.175Z</time>
      </trkpt>
      <trkpt lat="39.92127833" lon="-0.44125333">
        <ele>510.0</ele>
        <time>2017-05-27T08:28:50.182Z</time>
      </trkpt>
      <trkpt lat="39.921185" lon="-0.44120333">
        <ele>509.0</ele>
        <time>2017-05-27T08:28:51.175Z</time>
      </trkpt>
      <trkpt lat="39.921185" lon="-0.44120333">
        <ele>509.0</ele>
        <time>2017-05-27T08:28:52.180Z</time>
      </trkpt>
      <trkpt lat="39.92100167" lon="-0.441105">
        <ele>508.0</ele>
        <time>2017-05-27T08:28:53.168Z</time>
      </trkpt>
      <trkpt lat="39.92100167" lon="-0.441105">
        <ele>508.0</ele>
        <time>2017-05-27T08:28:54.173Z</time>
      </trkpt>
      <trkpt lat="39.92081167" lon="-0.44101333">
        <ele>508.0</ele>
        <time>2017-05-27T08:28:55.166Z</time>
      </trkpt>
      <trkpt lat="39.92081167" lon="-0.44101333">
        <ele>508.0</ele>
        <time>2017-05-27T08:28:56.188Z</time>
      </trkpt>
      <trkpt lat="39.92061667" lon="-0.44093">
        <ele>507.0</ele>
        <time>2017-05-27T08:28:57.185Z</time>
      </trkpt>
      <trkpt lat="39.92061667" lon="-0.44093">
        <ele>507.0</ele>
        <time>2017-05-27T08:28:58.194Z</time>
      </trkpt>
      <trkpt lat="39.92041667" lon="-0.44085">
        <ele>507.0</ele>
        <time>2017-05-27T08:28:59.160Z</time>
      </trkpt>
      <trkpt lat="39.92041667" lon="-0.44085">
        <ele>507.0</ele>
        <time>2017-05-27T08:29:00.180Z</time>
      </trkpt>
      <trkpt lat="39.92021333" lon="-0.44076833">
        <ele>505.0</ele>
        <time>2017-05-27T08:29:01.177Z</time>
      </trkpt>
      <trkpt lat="39.92021333" lon="-0.44076833">
        <ele>505.0</ele>
        <time>2017-05-27T08:29:02.172Z</time>
      </trkpt>
      <trkpt lat="39.92000667" lon="-0.440685">
        <ele>504.0</ele>
        <time>2017-05-27T08:29:03.176Z</time>
      </trkpt>
      <trkpt lat="39.92000667" lon="-0.440685">
        <ele>504.0</ele>
        <time>2017-05-27T08:29:04.182Z</time>
      </trkpt>
      <trkpt lat="39.91979667" lon="-0.44060167">
        <ele>503.0</ele>
        <time>2017-05-27T08:29:05.177Z</time>
      </trkpt>
      <trkpt lat="39.91979667" lon="-0.44060167">
        <ele>503.0</ele>
        <time>2017-05-27T08:29:06.171Z</time>
      </trkpt>
      <trkpt lat="39.91959333" lon="-0.44052667">
        <ele>502.0</ele>
        <time>2017-05-27T08:29:07.165Z</time>
      </trkpt>
      <trkpt lat="39.91949833" lon="-0.44049">
        <ele>501.0</ele>
        <time>2017-05-27T08:29:08.184Z</time>
      </trkpt>
      <trkpt lat="39.91949833" lon="-0.44049">
        <ele>501.0</ele>
        <time>2017-05-27T08:29:09.194Z</time>
      </trkpt>
      <trkpt lat="39.919325" lon="-0.44038667">
        <ele>499.0</ele>
        <time>2017-05-27T08:29:10.179Z</time>
      </trkpt>
      <trkpt lat="39.919325" lon="-0.44038667">
        <ele>499.0</ele>
        <time>2017-05-27T08:29:11.185Z</time>
      </trkpt>
      <trkpt lat="39.919195" lon="-0.440215">
        <ele>497.0</ele>
        <time>2017-05-27T08:29:12.177Z</time>
      </trkpt>
      <trkpt lat="39.919195" lon="-0.440215">
        <ele>497.0</ele>
        <time>2017-05-27T08:29:13.176Z</time>
      </trkpt>
      <trkpt lat="39.91908" lon="-0.440025">
        <ele>495.0</ele>
        <time>2017-05-27T08:29:14.165Z</time>
      </trkpt>
      <trkpt lat="39.91901167" lon="-0.439955">
        <ele>494.0</ele>
        <time>2017-05-27T08:29:15.168Z</time>
      </trkpt>
      <trkpt lat="39.91901167" lon="-0.439955">
        <ele>494.0</ele>
        <time>2017-05-27T08:29:16.178Z</time>
      </trkpt>
      <trkpt lat="39.91884167" lon="-0.439855">
        <ele>492.0</ele>
        <time>2017-05-27T08:29:17.166Z</time>
      </trkpt>
      <trkpt lat="39.91884167" lon="-0.439855">
        <ele>492.0</ele>
        <time>2017-05-27T08:29:18.172Z</time>
      </trkpt>
      <trkpt lat="39.91866167" lon="-0.43978">
        <ele>490.0</ele>
        <time>2017-05-27T08:29:19.171Z</time>
      </trkpt>
      <trkpt lat="39.91866167" lon="-0.43978">
        <ele>490.0</ele>
        <time>2017-05-27T08:29:20.176Z</time>
      </trkpt>
      <trkpt lat="39.91847333" lon="-0.43969333">
        <ele>489.0</ele>
        <time>2017-05-27T08:29:21.195Z</time>
      </trkpt>
      <trkpt lat="39.91847333" lon="-0.43969333">
        <ele>489.0</ele>
        <time>2017-05-27T08:29:22.178Z</time>
      </trkpt>
      <trkpt lat="39.918275" lon="-0.439595">
        <ele>487.0</ele>
        <time>2017-05-27T08:29:23.165Z</time>
      </trkpt>
      <trkpt lat="39.918275" lon="-0.439595">
        <ele>487.0</ele>
        <time>2017-05-27T08:29:24.170Z</time>
      </trkpt>
      <trkpt lat="39.91806667" lon="-0.43950667">
        <ele>485.0</ele>
        <time>2017-05-27T08:29:25.195Z</time>
      </trkpt>
      <trkpt lat="39.91796333" lon="-0.43946">
        <ele>484.0</ele>
        <time>2017-05-27T08:29:26.195Z</time>
      </trkpt>
      <trkpt lat="39.91785667" lon="-0.43941167">
        <ele>483.0</ele>
        <time>2017-05-27T08:29:27.163Z</time>
      </trkpt>
      <trkpt lat="39.91785667" lon="-0.43941167">
        <ele>483.0</ele>
        <time>2017-05-27T08:29:28.192Z</time>
      </trkpt>
      <trkpt lat="39.91765167" lon="-0.439325">
        <ele>481.0</ele>
        <time>2017-05-27T08:29:29.158Z</time>
      </trkpt>
      <trkpt lat="39.91765167" lon="-0.439325">
        <ele>481.0</ele>
        <time>2017-05-27T08:29:30.165Z</time>
      </trkpt>
      <trkpt lat="39.91744833" lon="-0.43924833">
        <ele>479.0</ele>
        <time>2017-05-27T08:29:31.166Z</time>
      </trkpt>
      <trkpt lat="39.91744833" lon="-0.43924833">
        <ele>479.0</ele>
        <time>2017-05-27T08:29:32.165Z</time>
      </trkpt>
      <trkpt lat="39.91723667" lon="-0.439245">
        <ele>478.0</ele>
        <time>2017-05-27T08:29:33.195Z</time>
      </trkpt>
      <trkpt lat="39.91723667" lon="-0.439245">
        <ele>478.0</ele>
        <time>2017-05-27T08:29:34.160Z</time>
      </trkpt>
      <trkpt lat="39.91703833" lon="-0.439315">
        <ele>476.0</ele>
        <time>2017-05-27T08:29:35.189Z</time>
      </trkpt>
      <trkpt lat="39.91703833" lon="-0.439315">
        <ele>476.0</ele>
        <time>2017-05-27T08:29:36.157Z</time>
      </trkpt>
      <trkpt lat="39.91687667" lon="-0.43943667">
        <ele>475.0</ele>
        <time>2017-05-27T08:29:37.165Z</time>
      </trkpt>
      <trkpt lat="39.91687667" lon="-0.43943667">
        <ele>475.0</ele>
        <time>2017-05-27T08:29:38.191Z</time>
      </trkpt>
      <trkpt lat="39.91677333" lon="-0.43955333">
        <ele>475.0</ele>
        <time>2017-05-27T08:29:39.189Z</time>
      </trkpt>
      <trkpt lat="39.91677333" lon="-0.43955333">
        <ele>475.0</ele>
        <time>2017-05-27T08:29:40.171Z</time>
      </trkpt>
      <trkpt lat="39.91670333" lon="-0.43957333">
        <ele>475.0</ele>
        <time>2017-05-27T08:29:41.163Z</time>
      </trkpt>
      <trkpt lat="39.91668" lon="-0.43952833">
        <ele>475.0</ele>
        <time>2017-05-27T08:29:42.183Z</time>
      </trkpt>
      <trkpt lat="39.91668" lon="-0.43952833">
        <ele>475.0</ele>
        <time>2017-05-27T08:29:43.192Z</time>
      </trkpt>
      <trkpt lat="39.91665167" lon="-0.43940333">
        <ele>475.0</ele>
        <time>2017-05-27T08:29:44.184Z</time>
      </trkpt>
      <trkpt lat="39.91663167" lon="-0.43934167">
        <ele>475.0</ele>
        <time>2017-05-27T08:29:45.161Z</time>
      </trkpt>
      <trkpt lat="39.91663167" lon="-0.43934167">
        <ele>475.0</ele>
        <time>2017-05-27T08:29:46.157Z</time>
      </trkpt>
      <trkpt lat="39.916565" lon="-0.43922167">
        <ele>475.0</ele>
        <time>2017-05-27T08:29:47.191Z</time>
      </trkpt>
      <trkpt lat="39.916565" lon="-0.43922167">
        <ele>475.0</ele>
        <time>2017-05-27T08:29:48.156Z</time>
      </trkpt>
      <trkpt lat="39.91646833" lon="-0.439135">
        <ele>474.0</ele>
        <time>2017-05-27T08:29:49.163Z</time>
      </trkpt>
      <trkpt lat="39.916415" lon="-0.43910667">
        <ele>474.0</ele>
        <time>2017-05-27T08:29:50.175Z</time>
      </trkpt>
      <trkpt lat="39.916415" lon="-0.43910667">
        <ele>474.0</ele>
        <time>2017-05-27T08:29:51.193Z</time>
      </trkpt>
      <trkpt lat="39.916305" lon="-0.43907667">
        <ele>474.0</ele>
        <time>2017-05-27T08:29:52.156Z</time>
      </trkpt>
      <trkpt lat="39.91625" lon="-0.43908167">
        <ele>474.0</ele>
        <time>2017-05-27T08:29:53.195Z</time>
      </trkpt>
      <trkpt lat="39.91625" lon="-0.43908167">
        <ele>474.0</ele>
        <time>2017-05-27T08:29:54.160Z</time>
      </trkpt>
      <trkpt lat="39.91613333" lon="-0.43909167">
        <ele>475.0</ele>
        <time>2017-05-27T08:29:55.190Z</time>
      </trkpt>
      <trkpt lat="39.91613333" lon="-0.43909167">
        <ele>475.0</ele>
        <time>2017-05-27T08:29:56.156Z</time>
      </trkpt>
      <trkpt lat="39.91601667" lon="-0.43911333">
        <ele>476.0</ele>
        <time>2017-05-27T08:29:57.192Z</time>
      </trkpt>
      <trkpt lat="39.91601667" lon="-0.43911333">
        <ele>476.0</ele>
        <time>2017-05-27T08:29:58.157Z</time>
      </trkpt>
      <trkpt lat="39.91589667" lon="-0.439135">
        <ele>476.0</ele>
        <time>2017-05-27T08:29:59.165Z</time>
      </trkpt>
      <trkpt lat="39.91589667" lon="-0.439135">
        <ele>476.0</ele>
        <time>2017-05-27T08:30:00.183Z</time>
      </trkpt>
      <trkpt lat="39.91577667" lon="-0.43914833">
        <ele>476.0</ele>
        <time>2017-05-27T08:30:01.166Z</time>
      </trkpt>
      <trkpt lat="39.91577667" lon="-0.43914833">
        <ele>476.0</ele>
        <time>2017-05-27T08:30:02.189Z</time>
      </trkpt>
      <trkpt lat="39.915655" lon="-0.43913167">
        <ele>476.0</ele>
        <time>2017-05-27T08:30:03.183Z</time>
      </trkpt>
      <trkpt lat="39.91559667" lon="-0.439115">
        <ele>477.0</ele>
        <time>2017-05-27T08:30:04.186Z</time>
      </trkpt>
      <trkpt lat="39.91559667" lon="-0.439115">
        <ele>477.0</ele>
        <time>2017-05-27T08:30:05.156Z</time>
      </trkpt>
      <trkpt lat="39.91547833" lon="-0.43907833">
        <ele>477.0</ele>
        <time>2017-05-27T08:30:06.189Z</time>
      </trkpt>
      <trkpt lat="39.91547833" lon="-0.43907833">
        <ele>477.0</ele>
        <time>2017-05-27T08:30:07.195Z</time>
      </trkpt>
      <trkpt lat="39.91537" lon="-0.43902833">
        <ele>477.0</ele>
        <time>2017-05-27T08:30:08.181Z</time>
      </trkpt>
      <trkpt lat="39.91537" lon="-0.43902833">
        <ele>477.0</ele>
        <time>2017-05-27T08:30:09.195Z</time>
      </trkpt>
      <trkpt lat="39.91526167" lon="-0.43898">
        <ele>477.0</ele>
        <time>2017-05-27T08:30:10.186Z</time>
      </trkpt>
      <trkpt lat="39.91520833" lon="-0.43895167">
        <ele>477.0</ele>
        <time>2017-05-27T08:30:11.182Z</time>
      </trkpt>
      <trkpt lat="39.91520833" lon="-0.43895167">
        <ele>477.0</ele>
        <time>2017-05-27T08:30:12.193Z</time>
      </trkpt>
      <trkpt lat="39.91510833" lon="-0.438885">
        <ele>477.0</ele>
        <time>2017-05-27T08:30:13.195Z</time>
      </trkpt>
      <trkpt lat="39.91505833" lon="-0.43884667">
        <ele>477.0</ele>
        <time>2017-05-27T08:30:14.175Z</time>
      </trkpt>
      <trkpt lat="39.91505833" lon="-0.43884667">
        <ele>477.0</ele>
        <time>2017-05-27T08:30:15.180Z</time>
      </trkpt>
      <trkpt lat="39.91495333" lon="-0.43876833">
        <ele>477.0</ele>
        <time>2017-05-27T08:30:16.166Z</time>
      </trkpt>
      <trkpt lat="39.91490333" lon="-0.43872167">
        <ele>477.0</ele>
        <time>2017-05-27T08:30:17.195Z</time>
      </trkpt>
      <trkpt lat="39.91490333" lon="-0.43872167">
        <ele>477.0</ele>
        <time>2017-05-27T08:30:18.160Z</time>
      </trkpt>
      <trkpt lat="39.9148" lon="-0.43865">
        <ele>477.0</ele>
        <time>2017-05-27T08:30:19.163Z</time>
      </trkpt>
      <trkpt lat="39.9148" lon="-0.43865">
        <ele>477.0</ele>
        <time>2017-05-27T08:30:20.168Z</time>
      </trkpt>
      <trkpt lat="39.91467833" lon="-0.43862833">
        <ele>477.0</ele>
        <time>2017-05-27T08:30:21.194Z</time>
      </trkpt>
      <trkpt lat="39.91467833" lon="-0.43862833">
        <ele>477.0</ele>
        <time>2017-05-27T08:30:22.159Z</time>
      </trkpt>
      <trkpt lat="39.91455667" lon="-0.43864833">
        <ele>477.0</ele>
        <time>2017-05-27T08:30:23.195Z</time>
      </trkpt>
      <trkpt lat="39.91455667" lon="-0.43864833">
        <ele>477.0</ele>
        <time>2017-05-27T08:30:24.162Z</time>
      </trkpt>
      <trkpt lat="39.91444167" lon="-0.43868333">
        <ele>478.0</ele>
        <time>2017-05-27T08:30:25.156Z</time>
      </trkpt>
      <trkpt lat="39.91438667" lon="-0.43870667">
        <ele>478.0</ele>
        <time>2017-05-27T08:30:26.188Z</time>
      </trkpt>
      <trkpt lat="39.91438667" lon="-0.43870667">
        <ele>478.0</ele>
        <time>2017-05-27T08:30:27.195Z</time>
      </trkpt>
      <trkpt lat="39.914275" lon="-0.43874667">
        <ele>478.0</ele>
        <time>2017-05-27T08:30:28.190Z</time>
      </trkpt>
      <trkpt lat="39.91422" lon="-0.43877">
        <ele>479.0</ele>
        <time>2017-05-27T08:30:29.175Z</time>
      </trkpt>
      <trkpt lat="39.91422" lon="-0.43877">
        <ele>479.0</ele>
        <time>2017-05-27T08:30:30.189Z</time>
      </trkpt>
      <trkpt lat="39.91411833" lon="-0.438825">
        <ele>479.0</ele>
        <time>2017-05-27T08:30:31.178Z</time>
      </trkpt>
      <trkpt lat="39.91411833" lon="-0.438825">
        <ele>479.0</ele>
        <time>2017-05-27T08:30:32.184Z</time>
      </trkpt>
      <trkpt lat="39.91403333" lon="-0.43890333">
        <ele>479.0</ele>
        <time>2017-05-27T08:30:33.185Z</time>
      </trkpt>
      <trkpt lat="39.91403333" lon="-0.43890333">
        <ele>479.0</ele>
        <time>2017-05-27T08:30:34.191Z</time>
      </trkpt>
      <trkpt lat="39.91397333" lon="-0.438995">
        <ele>480.0</ele>
        <time>2017-05-27T08:30:35.195Z</time>
      </trkpt>
      <trkpt lat="39.91397333" lon="-0.438995">
        <ele>480.0</ele>
        <time>2017-05-27T08:30:36.161Z</time>
      </trkpt>
      <trkpt lat="39.913925" lon="-0.43909333">
        <ele>479.0</ele>
        <time>2017-05-27T08:30:37.159Z</time>
      </trkpt>
      <trkpt lat="39.913925" lon="-0.43909333">
        <ele>479.0</ele>
        <time>2017-05-27T08:30:38.164Z</time>
      </trkpt>
      <trkpt lat="39.91385167" lon="-0.43916667">
        <ele>479.0</ele>
        <time>2017-05-27T08:30:39.164Z</time>
      </trkpt>
      <trkpt lat="39.91380167" lon="-0.43917333">
        <ele>480.0</ele>
        <time>2017-05-27T08:30:40.185Z</time>
      </trkpt>
      <trkpt lat="39.91375333" lon="-0.43915833">
        <ele>480.0</ele>
        <time>2017-05-27T08:30:41.195Z</time>
      </trkpt>
      <trkpt lat="39.91375333" lon="-0.43915833">
        <ele>480.0</ele>
        <time>2017-05-27T08:30:42.166Z</time>
      </trkpt>
      <trkpt lat="39.91365833" lon="-0.43912167">
        <ele>480.0</ele>
        <time>2017-05-27T08:30:43.165Z</time>
      </trkpt>
      <trkpt lat="39.91365833" lon="-0.43912167">
        <ele>480.0</ele>
        <time>2017-05-27T08:30:44.170Z</time>
      </trkpt>
      <trkpt lat="39.91357167" lon="-0.43911">
        <ele>481.0</ele>
        <time>2017-05-27T08:30:45.165Z</time>
      </trkpt>
      <trkpt lat="39.91357167" lon="-0.43911">
        <ele>481.0</ele>
        <time>2017-05-27T08:30:46.170Z</time>
      </trkpt>
      <trkpt lat="39.91348333" lon="-0.43911">
        <ele>481.0</ele>
        <time>2017-05-27T08:30:47.167Z</time>
      </trkpt>
      <trkpt lat="39.91348333" lon="-0.43911">
        <ele>481.0</ele>
        <time>2017-05-27T08:30:48.172Z</time>
      </trkpt>
      <trkpt lat="39.91339333" lon="-0.43913">
        <ele>481.0</ele>
        <time>2017-05-27T08:30:49.182Z</time>
      </trkpt>
      <trkpt lat="39.91339333" lon="-0.43913">
        <ele>481.0</ele>
        <time>2017-05-27T08:30:50.191Z</time>
      </trkpt>
      <trkpt lat="39.91330333" lon="-0.43915833">
        <ele>481.0</ele>
        <time>2017-05-27T08:30:51.185Z</time>
      </trkpt>
      <trkpt lat="39.91330333" lon="-0.43915833">
        <ele>481.0</ele>
        <time>2017-05-27T08:30:52.194Z</time>
      </trkpt>
      <trkpt lat="39.91321167" lon="-0.43919833">
        <ele>481.0</ele>
        <time>2017-05-27T08:30:53.179Z</time>
      </trkpt>
      <trkpt lat="39.91321167" lon="-0.43919833">
        <ele>481.0</ele>
        <time>2017-05-27T08:30:54.185Z</time>
      </trkpt>
      <trkpt lat="39.91312667" lon="-0.43924167">
        <ele>481.0</ele>
        <time>2017-05-27T08:30:55.192Z</time>
      </trkpt>
      <trkpt lat="39.91312667" lon="-0.43924167">
        <ele>481.0</ele>
        <time>2017-05-27T08:30:56.157Z</time>
      </trkpt>
      <trkpt lat="39.91304167" lon="-0.439285">
        <ele>481.0</ele>
        <time>2017-05-27T08:30:57.179Z</time>
      </trkpt>
      <trkpt lat="39.91304167" lon="-0.439285">
        <ele>481.0</ele>
        <time>2017-05-27T08:30:58.185Z</time>
      </trkpt>
      <trkpt lat="39.912955" lon="-0.43933167">
        <ele>481.0</ele>
        <time>2017-05-27T08:30:59.171Z</time>
      </trkpt>
      <trkpt lat="39.912955" lon="-0.43933167">
        <ele>481.0</ele>
        <time>2017-05-27T08:31:00.177Z</time>
      </trkpt>
      <trkpt lat="39.912865" lon="-0.43938">
        <ele>481.0</ele>
        <time>2017-05-27T08:31:01.177Z</time>
      </trkpt>
      <trkpt lat="39.912865" lon="-0.43938">
        <ele>481.0</ele>
        <time>2017-05-27T08:31:02.193Z</time>
      </trkpt>
      <trkpt lat="39.912775" lon="-0.43942667">
        <ele>481.0</ele>
        <time>2017-05-27T08:31:03.156Z</time>
      </trkpt>
      <trkpt lat="39.912775" lon="-0.43942667">
        <ele>481.0</ele>
        <time>2017-05-27T08:31:04.177Z</time>
      </trkpt>
      <trkpt lat="39.91268" lon="-0.43947">
        <ele>481.0</ele>
        <time>2017-05-27T08:31:05.166Z</time>
      </trkpt>
      <trkpt lat="39.91268" lon="-0.43947">
        <ele>481.0</ele>
        <time>2017-05-27T08:31:06.177Z</time>
      </trkpt>
      <trkpt lat="39.912585" lon="-0.43951167">
        <ele>482.0</ele>
        <time>2017-05-27T08:31:07.170Z</time>
      </trkpt>
      <trkpt lat="39.912585" lon="-0.43951167">
        <ele>482.0</ele>
        <time>2017-05-27T08:31:08.180Z</time>
      </trkpt>
      <trkpt lat="39.91248833" lon="-0.43955167">
        <ele>483.0</ele>
        <time>2017-05-27T08:31:09.188Z</time>
      </trkpt>
      <trkpt lat="39.91248833" lon="-0.43955167">
        <ele>483.0</ele>
        <time>2017-05-27T08:31:10.194Z</time>
      </trkpt>
      <trkpt lat="39.91239167" lon="-0.43959167">
        <ele>483.0</ele>
        <time>2017-05-27T08:31:11.193Z</time>
      </trkpt>
      <trkpt lat="39.91239167" lon="-0.43959167">
        <ele>483.0</ele>
        <time>2017-05-27T08:31:12.170Z</time>
      </trkpt>
      <trkpt lat="39.91230333" lon="-0.43962833">
        <ele>483.0</ele>
        <time>2017-05-27T08:31:13.182Z</time>
      </trkpt>
      <trkpt lat="39.91225333" lon="-0.43964333">
        <ele>483.0</ele>
        <time>2017-05-27T08:31:14.158Z</time>
      </trkpt>
      <trkpt lat="39.91225333" lon="-0.43964333">
        <ele>483.0</ele>
        <time>2017-05-27T08:31:15.163Z</time>
      </trkpt>
      <trkpt lat="39.91215333" lon="-0.43965667">
        <ele>483.0</ele>
        <time>2017-05-27T08:31:16.158Z</time>
      </trkpt>
      <trkpt lat="39.91210333" lon="-0.43965167">
        <ele>483.0</ele>
        <time>2017-05-27T08:31:17.165Z</time>
      </trkpt>
      <trkpt lat="39.91210333" lon="-0.43965167">
        <ele>483.0</ele>
        <time>2017-05-27T08:31:18.169Z</time>
      </trkpt>
      <trkpt lat="39.91201" lon="-0.43960333">
        <ele>483.0</ele>
        <time>2017-05-27T08:31:19.172Z</time>
      </trkpt>
      <trkpt lat="39.91201" lon="-0.43960333">
        <ele>483.0</ele>
        <time>2017-05-27T08:31:20.193Z</time>
      </trkpt>
      <trkpt lat="39.91194167" lon="-0.43951">
        <ele>483.0</ele>
        <time>2017-05-27T08:31:21.185Z</time>
      </trkpt>
      <trkpt lat="39.91194167" lon="-0.43951">
        <ele>483.0</ele>
        <time>2017-05-27T08:31:22.193Z</time>
      </trkpt>
      <trkpt lat="39.91191167" lon="-0.43938667">
        <ele>483.0</ele>
        <time>2017-05-27T08:31:23.185Z</time>
      </trkpt>
      <trkpt lat="39.91191167" lon="-0.43938667">
        <ele>483.0</ele>
        <time>2017-05-27T08:31:24.195Z</time>
      </trkpt>
      <trkpt lat="39.91192167" lon="-0.43925167">
        <ele>483.0</ele>
        <time>2017-05-27T08:31:25.161Z</time>
      </trkpt>
      <trkpt lat="39.91193167" lon="-0.439185">
        <ele>484.0</ele>
        <time>2017-05-27T08:31:26.181Z</time>
      </trkpt>
      <trkpt lat="39.91193167" lon="-0.439185">
        <ele>484.0</ele>
        <time>2017-05-27T08:31:27.195Z</time>
      </trkpt>
      <trkpt lat="39.91195833" lon="-0.43905333">
        <ele>483.0</ele>
        <time>2017-05-27T08:31:28.195Z</time>
      </trkpt>
      <trkpt lat="39.911975" lon="-0.43898833">
        <ele>483.0</ele>
        <time>2017-05-27T08:31:29.194Z</time>
      </trkpt>
      <trkpt lat="39.911975" lon="-0.43898833">
        <ele>483.0</ele>
        <time>2017-05-27T08:31:30.159Z</time>
      </trkpt>
      <trkpt lat="39.91201167" lon="-0.43885833">
        <ele>483.0</ele>
        <time>2017-05-27T08:31:31.190Z</time>
      </trkpt>
      <trkpt lat="39.91201167" lon="-0.43885833">
        <ele>483.0</ele>
        <time>2017-05-27T08:31:32.195Z</time>
      </trkpt>
      <trkpt lat="39.91204833" lon="-0.43872833">
        <ele>483.0</ele>
        <time>2017-05-27T08:31:33.185Z</time>
      </trkpt>
      <trkpt lat="39.91204833" lon="-0.43872833">
        <ele>483.0</ele>
        <time>2017-05-27T08:31:34.195Z</time>
      </trkpt>
      <trkpt lat="39.91208167" lon="-0.43859833">
        <ele>483.0</ele>
        <time>2017-05-27T08:31:35.172Z</time>
      </trkpt>
      <trkpt lat="39.91208167" lon="-0.43859833">
        <ele>483.0</ele>
        <time>2017-05-27T08:31:36.177Z</time>
      </trkpt>
      <trkpt lat="39.91212" lon="-0.43846833">
        <ele>483.0</ele>
        <time>2017-05-27T08:31:37.177Z</time>
      </trkpt>
      <trkpt lat="39.91212" lon="-0.43846833">
        <ele>483.0</ele>
        <time>2017-05-27T08:31:38.195Z</time>
      </trkpt>
      <trkpt lat="39.912155" lon="-0.43833167">
        <ele>482.0</ele>
        <time>2017-05-27T08:31:39.195Z</time>
      </trkpt>
      <trkpt lat="39.912155" lon="-0.43833167">
        <ele>482.0</ele>
        <time>2017-05-27T08:31:40.172Z</time>
      </trkpt>
      <trkpt lat="39.91219333" lon="-0.43819167">
        <ele>482.0</ele>
        <time>2017-05-27T08:31:41.159Z</time>
      </trkpt>
      <trkpt lat="39.91219333" lon="-0.43819167">
        <ele>482.0</ele>
        <time>2017-05-27T08:31:42.171Z</time>
      </trkpt>
      <trkpt lat="39.912225" lon="-0.43804167">
        <ele>482.0</ele>
        <time>2017-05-27T08:31:43.179Z</time>
      </trkpt>
      <trkpt lat="39.912225" lon="-0.43804167">
        <ele>482.0</ele>
        <time>2017-05-27T08:31:44.185Z</time>
      </trkpt>
      <trkpt lat="39.91226167" lon="-0.43788667">
        <ele>481.0</ele>
        <time>2017-05-27T08:31:45.180Z</time>
      </trkpt>
      <trkpt lat="39.912285" lon="-0.43780833">
        <ele>481.0</ele>
        <time>2017-05-27T08:31:46.172Z</time>
      </trkpt>
      <trkpt lat="39.912285" lon="-0.43780833">
        <ele>481.0</ele>
        <time>2017-05-27T08:31:47.195Z</time>
      </trkpt>
      <trkpt lat="39.91234167" lon="-0.43764833">
        <ele>481.0</ele>
        <time>2017-05-27T08:31:48.161Z</time>
      </trkpt>
      <trkpt lat="39.91234167" lon="-0.43764833">
        <ele>481.0</ele>
        <time>2017-05-27T08:31:49.157Z</time>
      </trkpt>
      <trkpt lat="39.91242" lon="-0.437495">
        <ele>480.0</ele>
        <time>2017-05-27T08:31:50.181Z</time>
      </trkpt>
      <trkpt lat="39.912465" lon="-0.43742">
        <ele>480.0</ele>
        <time>2017-05-27T08:31:51.158Z</time>
      </trkpt>
      <trkpt lat="39.912465" lon="-0.43742">
        <ele>480.0</ele>
        <time>2017-05-27T08:31:52.164Z</time>
      </trkpt>
      <trkpt lat="39.91256333" lon="-0.437275">
        <ele>479.0</ele>
        <time>2017-05-27T08:31:53.162Z</time>
      </trkpt>
      <trkpt lat="39.91256333" lon="-0.437275">
        <ele>479.0</ele>
        <time>2017-05-27T08:31:54.169Z</time>
      </trkpt>
      <trkpt lat="39.91266833" lon="-0.43712667">
        <ele>479.0</ele>
        <time>2017-05-27T08:31:55.169Z</time>
      </trkpt>
      <trkpt lat="39.91271333" lon="-0.43704167">
        <ele>478.0</ele>
        <time>2017-05-27T08:31:56.180Z</time>
      </trkpt>
      <trkpt lat="39.91271333" lon="-0.43704167">
        <ele>478.0</ele>
        <time>2017-05-27T08:31:57.156Z</time>
      </trkpt>
      <trkpt lat="39.91279333" lon="-0.43685667">
        <ele>478.0</ele>
        <time>2017-05-27T08:31:58.184Z</time>
      </trkpt>
      <trkpt lat="39.91283333" lon="-0.436765">
        <ele>478.0</ele>
        <time>2017-05-27T08:31:59.195Z</time>
      </trkpt>
      <trkpt lat="39.91283333" lon="-0.436765">
        <ele>478.0</ele>
        <time>2017-05-27T08:32:00.160Z</time>
      </trkpt>
      <trkpt lat="39.91291" lon="-0.43658167">
        <ele>477.0</ele>
        <time>2017-05-27T08:32:01.177Z</time>
      </trkpt>
      <trkpt lat="39.91291" lon="-0.43658167">
        <ele>477.0</ele>
        <time>2017-05-27T08:32:02.165Z</time>
      </trkpt>
      <trkpt lat="39.91298333" lon="-0.43639833">
        <ele>477.0</ele>
        <time>2017-05-27T08:32:03.164Z</time>
      </trkpt>
      <trkpt lat="39.91302" lon="-0.43631">
        <ele>477.0</ele>
        <time>2017-05-27T08:32:04.194Z</time>
      </trkpt>
      <trkpt lat="39.91305333" lon="-0.43622167">
        <ele>476.0</ele>
        <time>2017-05-27T08:32:05.187Z</time>
      </trkpt>
      <trkpt lat="39.91305333" lon="-0.43622167">
        <ele>476.0</ele>
        <time>2017-05-27T08:32:06.168Z</time>
      </trkpt>
      <trkpt lat="39.91312" lon="-0.43605167">
        <ele>476.0</ele>
        <time>2017-05-27T08:32:07.165Z</time>
      </trkpt>
      <trkpt lat="39.91312" lon="-0.43605167">
        <ele>476.0</ele>
        <time>2017-05-27T08:32:08.177Z</time>
      </trkpt>
      <trkpt lat="39.91318" lon="-0.43587667">
        <ele>476.0</ele>
        <time>2017-05-27T08:32:09.156Z</time>
      </trkpt>
      <trkpt lat="39.91318" lon="-0.43587667">
        <ele>476.0</ele>
        <time>2017-05-27T08:32:10.181Z</time>
      </trkpt>
      <trkpt lat="39.91323333" lon="-0.4357">
        <ele>476.0</ele>
        <time>2017-05-27T08:32:11.174Z</time>
      </trkpt>
      <trkpt lat="39.91323333" lon="-0.4357">
        <ele>476.0</ele>
        <time>2017-05-27T08:32:12.160Z</time>
      </trkpt>
      <trkpt lat="39.91326667" lon="-0.43552667">
        <ele>477.0</ele>
        <time>2017-05-27T08:32:13.186Z</time>
      </trkpt>
      <trkpt lat="39.913275" lon="-0.43544167">
        <ele>477.0</ele>
        <time>2017-05-27T08:32:14.195Z</time>
      </trkpt>
      <trkpt lat="39.913275" lon="-0.43544167">
        <ele>477.0</ele>
        <time>2017-05-27T08:32:15.160Z</time>
      </trkpt>
      <trkpt lat="39.91328167" lon="-0.43527333">
        <ele>477.0</ele>
        <time>2017-05-27T08:32:16.172Z</time>
      </trkpt>
      <trkpt lat="39.91328333" lon="-0.43519">
        <ele>477.0</ele>
        <time>2017-05-27T08:32:17.185Z</time>
      </trkpt>
      <trkpt lat="39.91328333" lon="-0.43519">
        <ele>477.0</ele>
        <time>2017-05-27T08:32:18.190Z</time>
      </trkpt>
      <trkpt lat="39.91329667" lon="-0.43502667">
        <ele>477.0</ele>
        <time>2017-05-27T08:32:19.181Z</time>
      </trkpt>
      <trkpt lat="39.91329667" lon="-0.43502667">
        <ele>477.0</ele>
        <time>2017-05-27T08:32:20.186Z</time>
      </trkpt>
      <trkpt lat="39.91330667" lon="-0.43486167">
        <ele>477.0</ele>
        <time>2017-05-27T08:32:21.172Z</time>
      </trkpt>
      <trkpt lat="39.91330833" lon="-0.43478">
        <ele>477.0</ele>
        <time>2017-05-27T08:32:22.176Z</time>
      </trkpt>
      <trkpt lat="39.91330833" lon="-0.43478">
        <ele>477.0</ele>
        <time>2017-05-27T08:32:23.182Z</time>
      </trkpt>
      <trkpt lat="39.91331667" lon="-0.43461667">
        <ele>478.0</ele>
        <time>2017-05-27T08:32:24.156Z</time>
      </trkpt>
      <trkpt lat="39.91331667" lon="-0.43461667">
        <ele>478.0</ele>
        <time>2017-05-27T08:32:25.180Z</time>
      </trkpt>
      <trkpt lat="39.91332333" lon="-0.43446333">
        <ele>478.0</ele>
        <time>2017-05-27T08:32:26.159Z</time>
      </trkpt>
      <trkpt lat="39.91332167" lon="-0.43438833">
        <ele>478.0</ele>
        <time>2017-05-27T08:32:27.190Z</time>
      </trkpt>
      <trkpt lat="39.91332167" lon="-0.43438833">
        <ele>478.0</ele>
        <time>2017-05-27T08:32:28.168Z</time>
      </trkpt>
      <trkpt lat="39.913295" lon="-0.43422667">
        <ele>478.0</ele>
        <time>2017-05-27T08:32:29.194Z</time>
      </trkpt>
      <trkpt lat="39.913295" lon="-0.43422667">
        <ele>478.0</ele>
        <time>2017-05-27T08:32:30.170Z</time>
      </trkpt>
      <trkpt lat="39.91326833" lon="-0.43407">
        <ele>478.0</ele>
        <time>2017-05-27T08:32:31.159Z</time>
      </trkpt>
      <trkpt lat="39.91326833" lon="-0.43407">
        <ele>478.0</ele>
        <time>2017-05-27T08:32:32.164Z</time>
      </trkpt>
      <trkpt lat="39.913235" lon="-0.43391">
        <ele>478.0</ele>
        <time>2017-05-27T08:32:33.199Z</time>
      </trkpt>
      <trkpt lat="39.913235" lon="-0.43391">
        <ele>478.0</ele>
        <time>2017-05-27T08:32:34.169Z</time>
      </trkpt>
      <trkpt lat="39.9132" lon="-0.43375167">
        <ele>478.0</ele>
        <time>2017-05-27T08:32:35.156Z</time>
      </trkpt>
      <trkpt lat="39.9132" lon="-0.43375167">
        <ele>478.0</ele>
        <time>2017-05-27T08:32:36.179Z</time>
      </trkpt>
      <trkpt lat="39.91316167" lon="-0.43359833">
        <ele>478.0</ele>
        <time>2017-05-27T08:32:37.195Z</time>
      </trkpt>
      <trkpt lat="39.91316167" lon="-0.43359833">
        <ele>478.0</ele>
        <time>2017-05-27T08:32:38.167Z</time>
      </trkpt>
      <trkpt lat="39.91311333" lon="-0.43344333">
        <ele>478.0</ele>
        <time>2017-05-27T08:32:39.195Z</time>
      </trkpt>
      <trkpt lat="39.91308833" lon="-0.433365">
        <ele>478.0</ele>
        <time>2017-05-27T08:32:40.185Z</time>
      </trkpt>
      <trkpt lat="39.91306333" lon="-0.43329">
        <ele>477.0</ele>
        <time>2017-05-27T08:32:41.172Z</time>
      </trkpt>
      <trkpt lat="39.91306333" lon="-0.43329">
        <ele>477.0</ele>
        <time>2017-05-27T08:32:42.192Z</time>
      </trkpt>
      <trkpt lat="39.91301667" lon="-0.43313667">
        <ele>477.0</ele>
        <time>2017-05-27T08:32:43.188Z</time>
      </trkpt>
      <trkpt lat="39.91301667" lon="-0.43313667">
        <ele>477.0</ele>
        <time>2017-05-27T08:32:44.169Z</time>
      </trkpt>
      <trkpt lat="39.91297833" lon="-0.43297333">
        <ele>477.0</ele>
        <time>2017-05-27T08:32:45.159Z</time>
      </trkpt>
      <trkpt lat="39.91297833" lon="-0.43297333">
        <ele>477.0</ele>
        <time>2017-05-27T08:32:46.164Z</time>
      </trkpt>
      <trkpt lat="39.91294333" lon="-0.43281">
        <ele>476.0</ele>
        <time>2017-05-27T08:32:47.163Z</time>
      </trkpt>
      <trkpt lat="39.91294333" lon="-0.43281">
        <ele>476.0</ele>
        <time>2017-05-27T08:32:48.171Z</time>
      </trkpt>
      <trkpt lat="39.91291667" lon="-0.432645">
        <ele>476.0</ele>
        <time>2017-05-27T08:32:49.157Z</time>
      </trkpt>
      <trkpt lat="39.912905" lon="-0.43255833">
        <ele>476.0</ele>
        <time>2017-05-27T08:32:50.165Z</time>
      </trkpt>
      <trkpt lat="39.912905" lon="-0.43255833">
        <ele>476.0</ele>
        <time>2017-05-27T08:32:51.182Z</time>
      </trkpt>
      <trkpt lat="39.91289" lon="-0.43238833">
        <ele>476.0</ele>
        <time>2017-05-27T08:32:52.176Z</time>
      </trkpt>
      <trkpt lat="39.91288667" lon="-0.43230667">
        <ele>476.0</ele>
        <time>2017-05-27T08:32:53.192Z</time>
      </trkpt>
      <trkpt lat="39.91288667" lon="-0.43230667">
        <ele>476.0</ele>
        <time>2017-05-27T08:32:54.166Z</time>
      </trkpt>
      <trkpt lat="39.91289167" lon="-0.43214333">
        <ele>476.0</ele>
        <time>2017-05-27T08:32:55.164Z</time>
      </trkpt>
      <trkpt lat="39.91289167" lon="-0.43214333">
        <ele>476.0</ele>
        <time>2017-05-27T08:32:56.175Z</time>
      </trkpt>
      <trkpt lat="39.912905" lon="-0.43198667">
        <ele>476.0</ele>
        <time>2017-05-27T08:32:57.178Z</time>
      </trkpt>
      <trkpt lat="39.912905" lon="-0.43198667">
        <ele>476.0</ele>
        <time>2017-05-27T08:32:58.158Z</time>
      </trkpt>
      <trkpt lat="39.91291833" lon="-0.43183833">
        <ele>476.0</ele>
        <time>2017-05-27T08:32:59.190Z</time>
      </trkpt>
      <trkpt lat="39.91291833" lon="-0.43183833">
        <ele>476.0</ele>
        <time>2017-05-27T08:33:00.164Z</time>
      </trkpt>
      <trkpt lat="39.91294" lon="-0.43168333">
        <ele>477.0</ele>
        <time>2017-05-27T08:33:01.194Z</time>
      </trkpt>
      <trkpt lat="39.91294" lon="-0.43168333">
        <ele>477.0</ele>
        <time>2017-05-27T08:33:02.172Z</time>
      </trkpt>
      <trkpt lat="39.91296667" lon="-0.431535">
        <ele>477.0</ele>
        <time>2017-05-27T08:33:03.173Z</time>
      </trkpt>
      <trkpt lat="39.91296667" lon="-0.431535">
        <ele>477.0</ele>
        <time>2017-05-27T08:33:04.195Z</time>
      </trkpt>
      <trkpt lat="39.913005" lon="-0.43139">
        <ele>477.0</ele>
        <time>2017-05-27T08:33:05.194Z</time>
      </trkpt>
      <trkpt lat="39.913005" lon="-0.43139">
        <ele>477.0</ele>
        <time>2017-05-27T08:33:06.175Z</time>
      </trkpt>
      <trkpt lat="39.913045" lon="-0.43124">
        <ele>477.0</ele>
        <time>2017-05-27T08:33:07.172Z</time>
      </trkpt>
      <trkpt lat="39.913045" lon="-0.43124">
        <ele>477.0</ele>
        <time>2017-05-27T08:33:08.158Z</time>
      </trkpt>
      <trkpt lat="39.91308333" lon="-0.43108333">
        <ele>477.0</ele>
        <time>2017-05-27T08:33:09.185Z</time>
      </trkpt>
      <trkpt lat="39.91308333" lon="-0.43108333">
        <ele>477.0</ele>
        <time>2017-05-27T08:33:10.165Z</time>
      </trkpt>
      <trkpt lat="39.91311167" lon="-0.43092333">
        <ele>477.0</ele>
        <time>2017-05-27T08:33:11.167Z</time>
      </trkpt>
      <trkpt lat="39.91311167" lon="-0.43092333">
        <ele>477.0</ele>
        <time>2017-05-27T08:33:12.172Z</time>
      </trkpt>
      <trkpt lat="39.913125" lon="-0.43075333">
        <ele>476.0</ele>
        <time>2017-05-27T08:33:13.188Z</time>
      </trkpt>
      <trkpt lat="39.91312833" lon="-0.43066333">
        <ele>476.0</ele>
        <time>2017-05-27T08:33:14.195Z</time>
      </trkpt>
      <trkpt lat="39.91312833" lon="-0.43066333">
        <ele>476.0</ele>
        <time>2017-05-27T08:33:15.173Z</time>
      </trkpt>
      <trkpt lat="39.91312" lon="-0.43048333">
        <ele>475.0</ele>
        <time>2017-05-27T08:33:16.172Z</time>
      </trkpt>
      <trkpt lat="39.91312" lon="-0.43048333">
        <ele>475.0</ele>
        <time>2017-05-27T08:33:17.177Z</time>
      </trkpt>
      <trkpt lat="39.91307333" lon="-0.43030667">
        <ele>475.0</ele>
        <time>2017-05-27T08:33:18.176Z</time>
      </trkpt>
      <trkpt lat="39.91307333" lon="-0.43030667">
        <ele>475.0</ele>
        <time>2017-05-27T08:33:19.156Z</time>
      </trkpt>
      <trkpt lat="39.91300833" lon="-0.43014">
        <ele>476.0</ele>
        <time>2017-05-27T08:33:20.184Z</time>
      </trkpt>
      <trkpt lat="39.91300833" lon="-0.43014">
        <ele>476.0</ele>
        <time>2017-05-27T08:33:21.171Z</time>
      </trkpt>
      <trkpt lat="39.91297" lon="-0.42996833">
        <ele>477.0</ele>
        <time>2017-05-27T08:33:22.179Z</time>
      </trkpt>
      <trkpt lat="39.91296333" lon="-0.42988167">
        <ele>477.0</ele>
        <time>2017-05-27T08:33:23.185Z</time>
      </trkpt>
      <trkpt lat="39.91296333" lon="-0.42988167">
        <ele>477.0</ele>
        <time>2017-05-27T08:33:24.192Z</time>
      </trkpt>
      <trkpt lat="39.91295167" lon="-0.42971167">
        <ele>477.0</ele>
        <time>2017-05-27T08:33:25.183Z</time>
      </trkpt>
      <trkpt lat="39.91295167" lon="-0.42971167">
        <ele>477.0</ele>
        <time>2017-05-27T08:33:26.156Z</time>
      </trkpt>
      <trkpt lat="39.91294333" lon="-0.42954333">
        <ele>477.0</ele>
        <time>2017-05-27T08:33:27.185Z</time>
      </trkpt>
      <trkpt lat="39.91294333" lon="-0.42954333">
        <ele>477.0</ele>
        <time>2017-05-27T08:33:28.162Z</time>
      </trkpt>
      <trkpt lat="39.91293833" lon="-0.42937833">
        <ele>477.0</ele>
        <time>2017-05-27T08:33:29.175Z</time>
      </trkpt>
      <trkpt lat="39.91293833" lon="-0.42937833">
        <ele>477.0</ele>
        <time>2017-05-27T08:33:30.186Z</time>
      </trkpt>
      <trkpt lat="39.91293667" lon="-0.42921667">
        <ele>478.0</ele>
        <time>2017-05-27T08:33:31.193Z</time>
      </trkpt>
      <trkpt lat="39.91293667" lon="-0.42921667">
        <ele>478.0</ele>
        <time>2017-05-27T08:33:32.158Z</time>
      </trkpt>
      <trkpt lat="39.912935" lon="-0.42906167">
        <ele>478.0</ele>
        <time>2017-05-27T08:33:33.172Z</time>
      </trkpt>
      <trkpt lat="39.912935" lon="-0.42906167">
        <ele>478.0</ele>
        <time>2017-05-27T08:33:34.177Z</time>
      </trkpt>
      <trkpt lat="39.91293833" lon="-0.428905">
        <ele>478.0</ele>
        <time>2017-05-27T08:33:35.178Z</time>
      </trkpt>
      <trkpt lat="39.91293833" lon="-0.428905">
        <ele>478.0</ele>
        <time>2017-05-27T08:33:36.183Z</time>
      </trkpt>
      <trkpt lat="39.91294333" lon="-0.42875167">
        <ele>478.0</ele>
        <time>2017-05-27T08:33:37.185Z</time>
      </trkpt>
      <trkpt lat="39.91294333" lon="-0.42875167">
        <ele>478.0</ele>
        <time>2017-05-27T08:33:38.192Z</time>
      </trkpt>
      <trkpt lat="39.91295667" lon="-0.428595">
        <ele>478.0</ele>
        <time>2017-05-27T08:33:39.175Z</time>
      </trkpt>
      <trkpt lat="39.91297" lon="-0.42851833">
        <ele>478.0</ele>
        <time>2017-05-27T08:33:40.174Z</time>
      </trkpt>
      <trkpt lat="39.91297" lon="-0.42851833">
        <ele>478.0</ele>
        <time>2017-05-27T08:33:41.181Z</time>
      </trkpt>
      <trkpt lat="39.913" lon="-0.42836833">
        <ele>478.0</ele>
        <time>2017-05-27T08:33:42.183Z</time>
      </trkpt>
      <trkpt lat="39.913015" lon="-0.42829167">
        <ele>478.0</ele>
        <time>2017-05-27T08:33:43.192Z</time>
      </trkpt>
      <trkpt lat="39.913015" lon="-0.42829167">
        <ele>478.0</ele>
        <time>2017-05-27T08:33:44.156Z</time>
      </trkpt>
      <trkpt lat="39.91304167" lon="-0.42814167">
        <ele>478.0</ele>
        <time>2017-05-27T08:33:45.181Z</time>
      </trkpt>
      <trkpt lat="39.91304167" lon="-0.42814167">
        <ele>478.0</ele>
        <time>2017-05-27T08:33:46.192Z</time>
      </trkpt>
      <trkpt lat="39.91305667" lon="-0.42799167">
        <ele>478.0</ele>
        <time>2017-05-27T08:33:47.183Z</time>
      </trkpt>
      <trkpt lat="39.91305667" lon="-0.42799167">
        <ele>478.0</ele>
        <time>2017-05-27T08:33:48.177Z</time>
      </trkpt>
      <trkpt lat="39.91305667" lon="-0.42783833">
        <ele>479.0</ele>
        <time>2017-05-27T08:33:49.166Z</time>
      </trkpt>
      <trkpt lat="39.91305667" lon="-0.42783833">
        <ele>479.0</ele>
        <time>2017-05-27T08:33:50.170Z</time>
      </trkpt>
      <trkpt lat="39.913045" lon="-0.427685">
        <ele>479.0</ele>
        <time>2017-05-27T08:33:51.162Z</time>
      </trkpt>
      <trkpt lat="39.913045" lon="-0.427685">
        <ele>479.0</ele>
        <time>2017-05-27T08:33:52.175Z</time>
      </trkpt>
      <trkpt lat="39.91303333" lon="-0.42753333">
        <ele>479.0</ele>
        <time>2017-05-27T08:33:53.171Z</time>
      </trkpt>
      <trkpt lat="39.91303333" lon="-0.42753333">
        <ele>479.0</ele>
        <time>2017-05-27T08:33:54.177Z</time>
      </trkpt>
      <trkpt lat="39.913015" lon="-0.42738333">
        <ele>479.0</ele>
        <time>2017-05-27T08:33:55.169Z</time>
      </trkpt>
      <trkpt lat="39.913015" lon="-0.42738333">
        <ele>479.0</ele>
        <time>2017-05-27T08:33:56.188Z</time>
      </trkpt>
      <trkpt lat="39.912995" lon="-0.42723833">
        <ele>479.0</ele>
        <time>2017-05-27T08:33:57.181Z</time>
      </trkpt>
      <trkpt lat="39.912995" lon="-0.42723833">
        <ele>479.0</ele>
        <time>2017-05-27T08:33:58.162Z</time>
      </trkpt>
      <trkpt lat="39.91297167" lon="-0.427095">
        <ele>479.0</ele>
        <time>2017-05-27T08:33:59.161Z</time>
      </trkpt>
      <trkpt lat="39.91297167" lon="-0.427095">
        <ele>479.0</ele>
        <time>2017-05-27T08:34:00.182Z</time>
      </trkpt>
      <trkpt lat="39.912945" lon="-0.42695167">
        <ele>479.0</ele>
        <time>2017-05-27T08:34:01.183Z</time>
      </trkpt>
      <trkpt lat="39.912945" lon="-0.42695167">
        <ele>479.0</ele>
        <time>2017-05-27T08:34:02.159Z</time>
      </trkpt>
      <trkpt lat="39.91291167" lon="-0.42681">
        <ele>479.0</ele>
        <time>2017-05-27T08:34:03.160Z</time>
      </trkpt>
      <trkpt lat="39.91291167" lon="-0.42681">
        <ele>479.0</ele>
        <time>2017-05-27T08:34:04.183Z</time>
      </trkpt>
      <trkpt lat="39.91287667" lon="-0.42667">
        <ele>479.0</ele>
        <time>2017-05-27T08:34:05.187Z</time>
      </trkpt>
      <trkpt lat="39.91287667" lon="-0.42667">
        <ele>479.0</ele>
        <time>2017-05-27T08:34:06.168Z</time>
      </trkpt>
      <trkpt lat="39.91284" lon="-0.42652833">
        <ele>479.0</ele>
        <time>2017-05-27T08:34:07.159Z</time>
      </trkpt>
      <trkpt lat="39.91284" lon="-0.42652833">
        <ele>479.0</ele>
        <time>2017-05-27T08:34:08.169Z</time>
      </trkpt>
      <trkpt lat="39.912795" lon="-0.42639667">
        <ele>479.0</ele>
        <time>2017-05-27T08:34:09.194Z</time>
      </trkpt>
      <trkpt lat="39.912795" lon="-0.42639667">
        <ele>479.0</ele>
        <time>2017-05-27T08:34:10.159Z</time>
      </trkpt>
      <trkpt lat="39.91274167" lon="-0.42627167">
        <ele>479.0</ele>
        <time>2017-05-27T08:34:11.170Z</time>
      </trkpt>
      <trkpt lat="39.91274167" lon="-0.42627167">
        <ele>479.0</ele>
        <time>2017-05-27T08:34:12.176Z</time>
      </trkpt>
      <trkpt lat="39.91269167" lon="-0.42614833">
        <ele>480.0</ele>
        <time>2017-05-27T08:34:13.191Z</time>
      </trkpt>
      <trkpt lat="39.91269167" lon="-0.42614833">
        <ele>480.0</ele>
        <time>2017-05-27T08:34:14.192Z</time>
      </trkpt>
      <trkpt lat="39.91264833" lon="-0.42603">
        <ele>480.0</ele>
        <time>2017-05-27T08:34:15.189Z</time>
      </trkpt>
      <trkpt lat="39.91264833" lon="-0.42603">
        <ele>480.0</ele>
        <time>2017-05-27T08:34:16.195Z</time>
      </trkpt>
      <trkpt lat="39.91261" lon="-0.42590667">
        <ele>480.0</ele>
        <time>2017-05-27T08:34:17.195Z</time>
      </trkpt>
      <trkpt lat="39.91261" lon="-0.42590667">
        <ele>480.0</ele>
        <time>2017-05-27T08:34:18.160Z</time>
      </trkpt>
      <trkpt lat="39.912575" lon="-0.425775">
        <ele>481.0</ele>
        <time>2017-05-27T08:34:19.161Z</time>
      </trkpt>
      <trkpt lat="39.912575" lon="-0.425775">
        <ele>481.0</ele>
        <time>2017-05-27T08:34:20.166Z</time>
      </trkpt>
      <trkpt lat="39.91253833" lon="-0.42565">
        <ele>481.0</ele>
        <time>2017-05-27T08:34:21.158Z</time>
      </trkpt>
      <trkpt lat="39.91252167" lon="-0.42559167">
        <ele>481.0</ele>
        <time>2017-05-27T08:34:22.163Z</time>
      </trkpt>
      <trkpt lat="39.91250333" lon="-0.42553">
        <ele>481.0</ele>
        <time>2017-05-27T08:34:23.172Z</time>
      </trkpt>
      <trkpt lat="39.91250333" lon="-0.42553">
        <ele>481.0</ele>
        <time>2017-05-27T08:34:24.178Z</time>
      </trkpt>
      <trkpt lat="39.91247" lon="-0.42540667">
        <ele>482.0</ele>
        <time>2017-05-27T08:34:25.183Z</time>
      </trkpt>
      <trkpt lat="39.91247" lon="-0.42540667">
        <ele>482.0</ele>
        <time>2017-05-27T08:34:26.159Z</time>
      </trkpt>
      <trkpt lat="39.91243833" lon="-0.42528667">
        <ele>483.0</ele>
        <time>2017-05-27T08:34:27.159Z</time>
      </trkpt>
      <trkpt lat="39.91242167" lon="-0.42523">
        <ele>483.0</ele>
        <time>2017-05-27T08:34:28.157Z</time>
      </trkpt>
      <trkpt lat="39.91242167" lon="-0.42523">
        <ele>483.0</ele>
        <time>2017-05-27T08:34:29.194Z</time>
      </trkpt>
      <trkpt lat="39.91239" lon="-0.42512">
        <ele>484.0</ele>
        <time>2017-05-27T08:34:30.163Z</time>
      </trkpt>
      <trkpt lat="39.91239" lon="-0.42512">
        <ele>484.0</ele>
        <time>2017-05-27T08:34:31.178Z</time>
      </trkpt>
      <trkpt lat="39.91236167" lon="-0.42500333">
        <ele>484.0</ele>
        <time>2017-05-27T08:34:32.175Z</time>
      </trkpt>
      <trkpt lat="39.91236167" lon="-0.42500333">
        <ele>484.0</ele>
        <time>2017-05-27T08:34:33.158Z</time>
      </trkpt>
      <trkpt lat="39.91233" lon="-0.424885">
        <ele>485.0</ele>
        <time>2017-05-27T08:34:34.191Z</time>
      </trkpt>
      <trkpt lat="39.912315" lon="-0.424825">
        <ele>485.0</ele>
        <time>2017-05-27T08:34:35.159Z</time>
      </trkpt>
      <trkpt lat="39.912315" lon="-0.424825">
        <ele>485.0</ele>
        <time>2017-05-27T08:34:36.164Z</time>
      </trkpt>
      <trkpt lat="39.91228667" lon="-0.42470833">
        <ele>485.0</ele>
        <time>2017-05-27T08:34:37.192Z</time>
      </trkpt>
      <trkpt lat="39.91228667" lon="-0.42470833">
        <ele>485.0</ele>
        <time>2017-05-27T08:34:38.157Z</time>
      </trkpt>
      <trkpt lat="39.91225" lon="-0.424595">
        <ele>485.0</ele>
        <time>2017-05-27T08:34:39.179Z</time>
      </trkpt>
      <trkpt lat="39.91223" lon="-0.42453833">
        <ele>485.0</ele>
        <time>2017-05-27T08:34:40.166Z</time>
      </trkpt>
      <trkpt lat="39.91220667" lon="-0.424485">
        <ele>486.0</ele>
        <time>2017-05-27T08:34:41.195Z</time>
      </trkpt>
      <trkpt lat="39.91220667" lon="-0.424485">
        <ele>486.0</ele>
        <time>2017-05-27T08:34:42.160Z</time>
      </trkpt>
      <trkpt lat="39.91215" lon="-0.424385">
        <ele>486.0</ele>
        <time>2017-05-27T08:34:43.175Z</time>
      </trkpt>
      <trkpt lat="39.91215" lon="-0.424385">
        <ele>486.0</ele>
        <time>2017-05-27T08:34:44.195Z</time>
      </trkpt>
      <trkpt lat="39.91208667" lon="-0.42429333">
        <ele>486.0</ele>
        <time>2017-05-27T08:34:45.191Z</time>
      </trkpt>
      <trkpt lat="39.91208667" lon="-0.42429333">
        <ele>486.0</ele>
        <time>2017-05-27T08:34:46.158Z</time>
      </trkpt>
      <trkpt lat="39.91201833" lon="-0.42421">
        <ele>486.0</ele>
        <time>2017-05-27T08:34:47.165Z</time>
      </trkpt>
      <trkpt lat="39.91201833" lon="-0.42421">
        <ele>486.0</ele>
        <time>2017-05-27T08:34:48.179Z</time>
      </trkpt>
      <trkpt lat="39.911945" lon="-0.424135">
        <ele>486.0</ele>
        <time>2017-05-27T08:34:49.191Z</time>
      </trkpt>
      <trkpt lat="39.911945" lon="-0.424135">
        <ele>486.0</ele>
        <time>2017-05-27T08:34:50.157Z</time>
      </trkpt>
      <trkpt lat="39.91187" lon="-0.42406333">
        <ele>486.0</ele>
        <time>2017-05-27T08:34:51.195Z</time>
      </trkpt>
      <trkpt lat="39.91187" lon="-0.42406333">
        <ele>486.0</ele>
        <time>2017-05-27T08:34:52.160Z</time>
      </trkpt>
      <trkpt lat="39.91179333" lon="-0.42399">
        <ele>486.0</ele>
        <time>2017-05-27T08:34:53.168Z</time>
      </trkpt>
      <trkpt lat="39.91179333" lon="-0.42399">
        <ele>486.0</ele>
        <time>2017-05-27T08:34:54.192Z</time>
      </trkpt>
      <trkpt lat="39.91171667" lon="-0.42390833">
        <ele>486.0</ele>
        <time>2017-05-27T08:34:55.160Z</time>
      </trkpt>
      <trkpt lat="39.91171667" lon="-0.42390833">
        <ele>486.0</ele>
        <time>2017-05-27T08:34:56.181Z</time>
      </trkpt>
      <trkpt lat="39.91164167" lon="-0.42383167">
        <ele>487.0</ele>
        <time>2017-05-27T08:34:57.183Z</time>
      </trkpt>
      <trkpt lat="39.91164167" lon="-0.42383167">
        <ele>487.0</ele>
        <time>2017-05-27T08:34:58.192Z</time>
      </trkpt>
      <trkpt lat="39.91157" lon="-0.42375833">
        <ele>487.0</ele>
        <time>2017-05-27T08:34:59.187Z</time>
      </trkpt>
      <trkpt lat="39.91157" lon="-0.42375833">
        <ele>487.0</ele>
        <time>2017-05-27T08:35:00.193Z</time>
      </trkpt>
      <trkpt lat="39.91150333" lon="-0.42369">
        <ele>487.0</ele>
        <time>2017-05-27T08:35:01.182Z</time>
      </trkpt>
      <trkpt lat="39.91150333" lon="-0.42369">
        <ele>487.0</ele>
        <time>2017-05-27T08:35:02.190Z</time>
      </trkpt>
      <trkpt lat="39.91143833" lon="-0.42362833">
        <ele>487.0</ele>
        <time>2017-05-27T08:35:03.184Z</time>
      </trkpt>
      <trkpt lat="39.91140833" lon="-0.42359833">
        <ele>487.0</ele>
        <time>2017-05-27T08:35:04.170Z</time>
      </trkpt>
      <trkpt lat="39.91140833" lon="-0.42359833">
        <ele>487.0</ele>
        <time>2017-05-27T08:35:05.179Z</time>
      </trkpt>
      <trkpt lat="39.911345" lon="-0.423535">
        <ele>488.0</ele>
        <time>2017-05-27T08:35:06.167Z</time>
      </trkpt>
      <trkpt lat="39.911345" lon="-0.423535">
        <ele>488.0</ele>
        <time>2017-05-27T08:35:07.173Z</time>
      </trkpt>
      <trkpt lat="39.91128333" lon="-0.42347">
        <ele>488.0</ele>
        <time>2017-05-27T08:35:08.188Z</time>
      </trkpt>
      <trkpt lat="39.91125333" lon="-0.42344">
        <ele>488.0</ele>
        <time>2017-05-27T08:35:09.185Z</time>
      </trkpt>
      <trkpt lat="39.911225" lon="-0.42340833">
        <ele>488.0</ele>
        <time>2017-05-27T08:35:10.185Z</time>
      </trkpt>
      <trkpt lat="39.911225" lon="-0.42340833">
        <ele>488.0</ele>
        <time>2017-05-27T08:35:11.195Z</time>
      </trkpt>
      <trkpt lat="39.91116667" lon="-0.42335167">
        <ele>488.0</ele>
        <time>2017-05-27T08:35:12.195Z</time>
      </trkpt>
      <trkpt lat="39.91116667" lon="-0.42335167">
        <ele>488.0</ele>
        <time>2017-05-27T08:35:13.170Z</time>
      </trkpt>
      <trkpt lat="39.91111167" lon="-0.423295">
        <ele>489.0</ele>
        <time>2017-05-27T08:35:14.184Z</time>
      </trkpt>
      <trkpt lat="39.91111167" lon="-0.423295">
        <ele>489.0</ele>
        <time>2017-05-27T08:35:15.192Z</time>
      </trkpt>
      <trkpt lat="39.91105833" lon="-0.423245">
        <ele>490.0</ele>
        <time>2017-05-27T08:35:16.187Z</time>
      </trkpt>
      <trkpt lat="39.91103167" lon="-0.42322167">
        <ele>490.0</ele>
        <time>2017-05-27T08:35:17.165Z</time>
      </trkpt>
      <trkpt lat="39.911005" lon="-0.42319667">
        <ele>490.0</ele>
        <time>2017-05-27T08:35:18.170Z</time>
      </trkpt>
      <trkpt lat="39.911005" lon="-0.42319667">
        <ele>490.0</ele>
        <time>2017-05-27T08:35:19.176Z</time>
      </trkpt>
      <trkpt lat="39.91095" lon="-0.42315">
        <ele>491.0</ele>
        <time>2017-05-27T08:35:20.189Z</time>
      </trkpt>
      <trkpt lat="39.91095" lon="-0.42315">
        <ele>491.0</ele>
        <time>2017-05-27T08:35:21.195Z</time>
      </trkpt>
      <trkpt lat="39.91089667" lon="-0.423105">
        <ele>491.0</ele>
        <time>2017-05-27T08:35:22.165Z</time>
      </trkpt>
      <trkpt lat="39.91089667" lon="-0.423105">
        <ele>491.0</ele>
        <time>2017-05-27T08:35:23.179Z</time>
      </trkpt>
      <trkpt lat="39.91084333" lon="-0.42306167">
        <ele>491.0</ele>
        <time>2017-05-27T08:35:24.186Z</time>
      </trkpt>
      <trkpt lat="39.91081667" lon="-0.42303833">
        <ele>491.0</ele>
        <time>2017-05-27T08:35:25.185Z</time>
      </trkpt>
      <trkpt lat="39.91079" lon="-0.42301333">
        <ele>492.0</ele>
        <time>2017-05-27T08:35:26.188Z</time>
      </trkpt>
      <trkpt lat="39.91079" lon="-0.42301333">
        <ele>492.0</ele>
        <time>2017-05-27T08:35:27.194Z</time>
      </trkpt>
      <trkpt lat="39.91073" lon="-0.42297">
        <ele>492.0</ele>
        <time>2017-05-27T08:35:28.192Z</time>
      </trkpt>
      <trkpt lat="39.9107" lon="-0.42295">
        <ele>492.0</ele>
        <time>2017-05-27T08:35:29.187Z</time>
      </trkpt>
      <trkpt lat="39.9107" lon="-0.42295">
        <ele>492.0</ele>
        <time>2017-05-27T08:35:30.194Z</time>
      </trkpt>
      <trkpt lat="39.91064333" lon="-0.42290333">
        <ele>493.0</ele>
        <time>2017-05-27T08:35:31.195Z</time>
      </trkpt>
      <trkpt lat="39.91064333" lon="-0.42290333">
        <ele>493.0</ele>
        <time>2017-05-27T08:35:32.160Z</time>
      </trkpt>
      <trkpt lat="39.91058833" lon="-0.42286333">
        <ele>493.0</ele>
        <time>2017-05-27T08:35:33.173Z</time>
      </trkpt>
      <trkpt lat="39.91056333" lon="-0.42283833">
        <ele>493.0</ele>
        <time>2017-05-27T08:35:34.185Z</time>
      </trkpt>
      <trkpt lat="39.91056333" lon="-0.42283833">
        <ele>493.0</ele>
        <time>2017-05-27T08:35:35.164Z</time>
      </trkpt>
      <trkpt lat="39.91051333" lon="-0.42278667">
        <ele>494.0</ele>
        <time>2017-05-27T08:35:36.190Z</time>
      </trkpt>
      <trkpt lat="39.91051333" lon="-0.42278667">
        <ele>494.0</ele>
        <time>2017-05-27T08:35:37.156Z</time>
      </trkpt>
      <trkpt lat="39.91045833" lon="-0.42273833">
        <ele>494.0</ele>
        <time>2017-05-27T08:35:38.188Z</time>
      </trkpt>
      <trkpt lat="39.91045833" lon="-0.42273833">
        <ele>494.0</ele>
        <time>2017-05-27T08:35:39.195Z</time>
      </trkpt>
      <trkpt lat="39.910405" lon="-0.42269333">
        <ele>495.0</ele>
        <time>2017-05-27T08:35:40.193Z</time>
      </trkpt>
      <trkpt lat="39.91037833" lon="-0.42267167">
        <ele>495.0</ele>
        <time>2017-05-27T08:35:41.194Z</time>
      </trkpt>
      <trkpt lat="39.91037833" lon="-0.42267167">
        <ele>495.0</ele>
        <time>2017-05-27T08:35:42.159Z</time>
      </trkpt>
      <trkpt lat="39.91032833" lon="-0.42262667">
        <ele>496.0</ele>
        <time>2017-05-27T08:35:43.185Z</time>
      </trkpt>
      <trkpt lat="39.91032833" lon="-0.42262667">
        <ele>496.0</ele>
        <time>2017-05-27T08:35:44.167Z</time>
      </trkpt>
      <trkpt lat="39.91028167" lon="-0.42258">
        <ele>497.0</ele>
        <time>2017-05-27T08:35:45.162Z</time>
      </trkpt>
      <trkpt lat="39.91025833" lon="-0.422555">
        <ele>497.0</ele>
        <time>2017-05-27T08:35:46.187Z</time>
      </trkpt>
      <trkpt lat="39.91025833" lon="-0.422555">
        <ele>497.0</ele>
        <time>2017-05-27T08:35:47.194Z</time>
      </trkpt>
      <trkpt lat="39.91021333" lon="-0.42251167">
        <ele>498.0</ele>
        <time>2017-05-27T08:35:48.185Z</time>
      </trkpt>
      <trkpt lat="39.91021333" lon="-0.42251167">
        <ele>498.0</ele>
        <time>2017-05-27T08:35:49.192Z</time>
      </trkpt>
      <trkpt lat="39.91017" lon="-0.42246667">
        <ele>499.0</ele>
        <time>2017-05-27T08:35:50.161Z</time>
      </trkpt>
      <trkpt lat="39.91017" lon="-0.42246667">
        <ele>499.0</ele>
        <time>2017-05-27T08:35:51.164Z</time>
      </trkpt>
      <trkpt lat="39.91012667" lon="-0.42242">
        <ele>499.0</ele>
        <time>2017-05-27T08:35:52.171Z</time>
      </trkpt>
      <trkpt lat="39.91010333" lon="-0.42240167">
        <ele>500.0</ele>
        <time>2017-05-27T08:35:53.188Z</time>
      </trkpt>
      <trkpt lat="39.91010333" lon="-0.42240167">
        <ele>500.0</ele>
        <time>2017-05-27T08:35:54.195Z</time>
      </trkpt>
      <trkpt lat="39.91006667" lon="-0.42236333">
        <ele>500.0</ele>
        <time>2017-05-27T08:35:55.158Z</time>
      </trkpt>
      <trkpt lat="39.91006667" lon="-0.42236333">
        <ele>500.0</ele>
        <time>2017-05-27T08:35:56.163Z</time>
      </trkpt>
      <trkpt lat="39.910025" lon="-0.422325">
        <ele>501.0</ele>
        <time>2017-05-27T08:35:57.159Z</time>
      </trkpt>
      <trkpt lat="39.91000333" lon="-0.422305">
        <ele>501.0</ele>
        <time>2017-05-27T08:35:58.163Z</time>
      </trkpt>
      <trkpt lat="39.90998333" lon="-0.42228167">
        <ele>501.0</ele>
        <time>2017-05-27T08:35:59.164Z</time>
      </trkpt>
      <trkpt lat="39.90998333" lon="-0.42228167">
        <ele>501.0</ele>
        <time>2017-05-27T08:36:00.169Z</time>
      </trkpt>
      <trkpt lat="39.90994333" lon="-0.42224167">
        <ele>502.0</ele>
        <time>2017-05-27T08:36:01.185Z</time>
      </trkpt>
      <trkpt lat="39.90994333" lon="-0.42224167">
        <ele>502.0</ele>
        <time>2017-05-27T08:36:02.156Z</time>
      </trkpt>
      <trkpt lat="39.90990333" lon="-0.42220333">
        <ele>502.0</ele>
        <time>2017-05-27T08:36:03.165Z</time>
      </trkpt>
      <trkpt lat="39.90990333" lon="-0.42220333">
        <ele>502.0</ele>
        <time>2017-05-27T08:36:04.170Z</time>
      </trkpt>
      <trkpt lat="39.90986333" lon="-0.42216">
        <ele>503.0</ele>
        <time>2017-05-27T08:36:05.188Z</time>
      </trkpt>
      <trkpt lat="39.909845" lon="-0.42214">
        <ele>503.0</ele>
        <time>2017-05-27T08:36:06.156Z</time>
      </trkpt>
      <trkpt lat="39.909845" lon="-0.42214">
        <ele>503.0</ele>
        <time>2017-05-27T08:36:07.162Z</time>
      </trkpt>
      <trkpt lat="39.90980667" lon="-0.4221">
        <ele>504.0</ele>
        <time>2017-05-27T08:36:08.181Z</time>
      </trkpt>
      <trkpt lat="39.90980667" lon="-0.4221">
        <ele>504.0</ele>
        <time>2017-05-27T08:36:09.186Z</time>
      </trkpt>
      <trkpt lat="39.90976833" lon="-0.42206">
        <ele>504.0</ele>
        <time>2017-05-27T08:36:10.175Z</time>
      </trkpt>
      <trkpt lat="39.90974833" lon="-0.42203833">
        <ele>505.0</ele>
        <time>2017-05-27T08:36:11.195Z</time>
      </trkpt>
      <trkpt lat="39.90974833" lon="-0.42203833">
        <ele>505.0</ele>
        <time>2017-05-27T08:36:12.161Z</time>
      </trkpt>
      <trkpt lat="39.90971" lon="-0.42199667">
        <ele>505.0</ele>
        <time>2017-05-27T08:36:13.192Z</time>
      </trkpt>
      <trkpt lat="39.90969333" lon="-0.42197667">
        <ele>505.0</ele>
        <time>2017-05-27T08:36:14.189Z</time>
      </trkpt>
      <trkpt lat="39.90969333" lon="-0.42197667">
        <ele>505.0</ele>
        <time>2017-05-27T08:36:15.194Z</time>
      </trkpt>
      <trkpt lat="39.90965833" lon="-0.42193667">
        <ele>506.0</ele>
        <time>2017-05-27T08:36:16.159Z</time>
      </trkpt>
      <trkpt lat="39.90964167" lon="-0.421915">
        <ele>506.0</ele>
        <time>2017-05-27T08:36:17.180Z</time>
      </trkpt>
      <trkpt lat="39.90964167" lon="-0.421915">
        <ele>506.0</ele>
        <time>2017-05-27T08:36:18.185Z</time>
      </trkpt>
      <trkpt lat="39.90960833" lon="-0.421875">
        <ele>506.0</ele>
        <time>2017-05-27T08:36:19.159Z</time>
      </trkpt>
      <trkpt lat="39.90960833" lon="-0.421875">
        <ele>506.0</ele>
        <time>2017-05-27T08:36:20.170Z</time>
      </trkpt>
      <trkpt lat="39.909575" lon="-0.42183667">
        <ele>507.0</ele>
        <time>2017-05-27T08:36:21.162Z</time>
      </trkpt>
      <trkpt lat="39.90955833" lon="-0.42181667">
        <ele>507.0</ele>
        <time>2017-05-27T08:36:22.195Z</time>
      </trkpt>
      <trkpt lat="39.90954167" lon="-0.42179667">
        <ele>507.0</ele>
        <time>2017-05-27T08:36:23.188Z</time>
      </trkpt>
      <trkpt lat="39.90954167" lon="-0.42179667">
        <ele>507.0</ele>
        <time>2017-05-27T08:36:24.194Z</time>
      </trkpt>
      <trkpt lat="39.90950333" lon="-0.42176667">
        <ele>507.0</ele>
        <time>2017-05-27T08:36:25.189Z</time>
      </trkpt>
      <trkpt lat="39.90948333" lon="-0.42175">
        <ele>507.0</ele>
        <time>2017-05-27T08:36:26.188Z</time>
      </trkpt>
      <trkpt lat="39.90948333" lon="-0.42175">
        <ele>507.0</ele>
        <time>2017-05-27T08:36:27.195Z</time>
      </trkpt>
      <trkpt lat="39.909445" lon="-0.42171">
        <ele>507.0</ele>
        <time>2017-05-27T08:36:28.190Z</time>
      </trkpt>
      <trkpt lat="39.909445" lon="-0.42171">
        <ele>507.0</ele>
        <time>2017-05-27T08:36:29.196Z</time>
      </trkpt>
      <trkpt lat="39.90940833" lon="-0.42166833">
        <ele>507.0</ele>
        <time>2017-05-27T08:36:30.165Z</time>
      </trkpt>
      <trkpt lat="39.90940833" lon="-0.42166833">
        <ele>507.0</ele>
        <time>2017-05-27T08:36:31.170Z</time>
      </trkpt>
      <trkpt lat="39.90937167" lon="-0.42162667">
        <ele>508.0</ele>
        <time>2017-05-27T08:36:32.187Z</time>
      </trkpt>
      <trkpt lat="39.90937167" lon="-0.42162667">
        <ele>508.0</ele>
        <time>2017-05-27T08:36:33.156Z</time>
      </trkpt>
      <trkpt lat="39.90933833" lon="-0.42158167">
        <ele>508.0</ele>
        <time>2017-05-27T08:36:34.169Z</time>
      </trkpt>
      <trkpt lat="39.90932" lon="-0.42156">
        <ele>508.0</ele>
        <time>2017-05-27T08:36:35.165Z</time>
      </trkpt>
      <trkpt lat="39.90932" lon="-0.42156">
        <ele>508.0</ele>
        <time>2017-05-27T08:36:36.172Z</time>
      </trkpt>
      <trkpt lat="39.90928667" lon="-0.421515">
        <ele>509.0</ele>
        <time>2017-05-27T08:36:37.176Z</time>
      </trkpt>
      <trkpt lat="39.90928667" lon="-0.421515">
        <ele>509.0</ele>
        <time>2017-05-27T08:36:38.181Z</time>
      </trkpt>
      <trkpt lat="39.90925333" lon="-0.42147333">
        <ele>509.0</ele>
        <time>2017-05-27T08:36:39.165Z</time>
      </trkpt>
      <trkpt lat="39.909235" lon="-0.42145333">
        <ele>509.0</ele>
        <time>2017-05-27T08:36:40.193Z</time>
      </trkpt>
      <trkpt lat="39.90921667" lon="-0.42143333">
        <ele>509.0</ele>
        <time>2017-05-27T08:36:41.165Z</time>
      </trkpt>
      <trkpt lat="39.90921667" lon="-0.42143333">
        <ele>509.0</ele>
        <time>2017-05-27T08:36:42.184Z</time>
      </trkpt>
      <trkpt lat="39.90917833" lon="-0.42139167">
        <ele>509.0</ele>
        <time>2017-05-27T08:36:43.187Z</time>
      </trkpt>
      <trkpt lat="39.90917833" lon="-0.42139167">
        <ele>509.0</ele>
        <time>2017-05-27T08:36:44.195Z</time>
      </trkpt>
      <trkpt lat="39.90914" lon="-0.42135">
        <ele>509.0</ele>
        <time>2017-05-27T08:36:45.162Z</time>
      </trkpt>
      <trkpt lat="39.90912" lon="-0.42132833">
        <ele>510.0</ele>
        <time>2017-05-27T08:36:46.185Z</time>
      </trkpt>
      <trkpt lat="39.90910167" lon="-0.421305">
        <ele>510.0</ele>
        <time>2017-05-27T08:36:47.195Z</time>
      </trkpt>
      <trkpt lat="39.90910167" lon="-0.421305">
        <ele>510.0</ele>
        <time>2017-05-27T08:36:48.168Z</time>
      </trkpt>
      <trkpt lat="39.909065" lon="-0.42125833">
        <ele>510.0</ele>
        <time>2017-05-27T08:36:49.185Z</time>
      </trkpt>
      <trkpt lat="39.909065" lon="-0.42125833">
        <ele>510.0</ele>
        <time>2017-05-27T08:36:50.194Z</time>
      </trkpt>
      <trkpt lat="39.90902667" lon="-0.421215">
        <ele>510.0</ele>
        <time>2017-05-27T08:36:51.175Z</time>
      </trkpt>
      <trkpt lat="39.90902667" lon="-0.421215">
        <ele>510.0</ele>
        <time>2017-05-27T08:36:52.157Z</time>
      </trkpt>
      <trkpt lat="39.90898833" lon="-0.42117167">
        <ele>510.0</ele>
        <time>2017-05-27T08:36:53.168Z</time>
      </trkpt>
      <trkpt lat="39.90898833" lon="-0.42117167">
        <ele>510.0</ele>
        <time>2017-05-27T08:36:54.174Z</time>
      </trkpt>
      <trkpt lat="39.90895" lon="-0.42112667">
        <ele>511.0</ele>
        <time>2017-05-27T08:36:55.183Z</time>
      </trkpt>
      <trkpt lat="39.90893" lon="-0.42110667">
        <ele>511.0</ele>
        <time>2017-05-27T08:36:56.175Z</time>
      </trkpt>
      <trkpt lat="39.90893" lon="-0.42110667">
        <ele>511.0</ele>
        <time>2017-05-27T08:36:57.180Z</time>
      </trkpt>
      <trkpt lat="39.90889333" lon="-0.42106167">
        <ele>511.0</ele>
        <time>2017-05-27T08:36:58.187Z</time>
      </trkpt>
      <trkpt lat="39.90887667" lon="-0.42103667">
        <ele>511.0</ele>
        <time>2017-05-27T08:36:59.160Z</time>
      </trkpt>
      <trkpt lat="39.90887667" lon="-0.42103667">
        <ele>511.0</ele>
        <time>2017-05-27T08:37:00.165Z</time>
      </trkpt>
      <trkpt lat="39.90884167" lon="-0.42098667">
        <ele>511.0</ele>
        <time>2017-05-27T08:37:01.195Z</time>
      </trkpt>
      <trkpt lat="39.90884167" lon="-0.42098667">
        <ele>511.0</ele>
        <time>2017-05-27T08:37:02.160Z</time>
      </trkpt>
      <trkpt lat="39.90880667" lon="-0.42093167">
        <ele>512.0</ele>
        <time>2017-05-27T08:37:03.175Z</time>
      </trkpt>
      <trkpt lat="39.90879" lon="-0.420905">
        <ele>512.0</ele>
        <time>2017-05-27T08:37:04.175Z</time>
      </trkpt>
      <trkpt lat="39.90879" lon="-0.420905">
        <ele>512.0</ele>
        <time>2017-05-27T08:37:05.180Z</time>
      </trkpt>
      <trkpt lat="39.90875833" lon="-0.42085">
        <ele>512.0</ele>
        <time>2017-05-27T08:37:06.164Z</time>
      </trkpt>
      <trkpt lat="39.908745" lon="-0.42082167">
        <ele>512.0</ele>
        <time>2017-05-27T08:37:07.162Z</time>
      </trkpt>
      <trkpt lat="39.908745" lon="-0.42082167">
        <ele>512.0</ele>
        <time>2017-05-27T08:37:08.167Z</time>
      </trkpt>
      <trkpt lat="39.90871667" lon="-0.42076">
        <ele>512.0</ele>
        <time>2017-05-27T08:37:09.171Z</time>
      </trkpt>
      <trkpt lat="39.908705" lon="-0.42072667">
        <ele>512.0</ele>
        <time>2017-05-27T08:37:10.176Z</time>
      </trkpt>
      <trkpt lat="39.908705" lon="-0.42072667">
        <ele>512.0</ele>
        <time>2017-05-27T08:37:11.156Z</time>
      </trkpt>
      <trkpt lat="39.90867833" lon="-0.42065833">
        <ele>512.0</ele>
        <time>2017-05-27T08:37:12.168Z</time>
      </trkpt>
      <trkpt lat="39.90867833" lon="-0.42065833">
        <ele>512.0</ele>
        <time>2017-05-27T08:37:13.196Z</time>
      </trkpt>
      <trkpt lat="39.90866" lon="-0.42058167">
        <ele>513.0</ele>
        <time>2017-05-27T08:37:14.158Z</time>
      </trkpt>
      <trkpt lat="39.90865167" lon="-0.42054333">
        <ele>513.0</ele>
        <time>2017-05-27T08:37:15.157Z</time>
      </trkpt>
      <trkpt lat="39.90864333" lon="-0.42050167">
        <ele>513.0</ele>
        <time>2017-05-27T08:37:16.165Z</time>
      </trkpt>
      <trkpt lat="39.90864333" lon="-0.42050167">
        <ele>513.0</ele>
        <time>2017-05-27T08:37:17.170Z</time>
      </trkpt>
      <trkpt lat="39.90863" lon="-0.42041333">
        <ele>513.0</ele>
        <time>2017-05-27T08:37:18.158Z</time>
      </trkpt>
      <trkpt lat="39.90863" lon="-0.42041333">
        <ele>513.0</ele>
        <time>2017-05-27T08:37:19.171Z</time>
      </trkpt>
      <trkpt lat="39.90862167" lon="-0.42032">
        <ele>513.0</ele>
        <time>2017-05-27T08:37:20.196Z</time>
      </trkpt>
      <trkpt lat="39.90862167" lon="-0.42032">
        <ele>513.0</ele>
        <time>2017-05-27T08:37:21.161Z</time>
      </trkpt>
      <trkpt lat="39.90862" lon="-0.42023167">
        <ele>513.0</ele>
        <time>2017-05-27T08:37:22.170Z</time>
      </trkpt>
      <trkpt lat="39.90861833" lon="-0.42019">
        <ele>513.0</ele>
        <time>2017-05-27T08:37:23.177Z</time>
      </trkpt>
      <trkpt lat="39.90861833" lon="-0.42019">
        <ele>513.0</ele>
        <time>2017-05-27T08:37:24.182Z</time>
      </trkpt>
      <trkpt lat="39.90861667" lon="-0.42010833">
        <ele>514.0</ele>
        <time>2017-05-27T08:37:25.169Z</time>
      </trkpt>
      <trkpt lat="39.90861667" lon="-0.42010833">
        <ele>514.0</ele>
        <time>2017-05-27T08:37:26.174Z</time>
      </trkpt>
      <trkpt lat="39.90862167" lon="-0.42002">
        <ele>513.0</ele>
        <time>2017-05-27T08:37:27.176Z</time>
      </trkpt>
      <trkpt lat="39.90862167" lon="-0.42002">
        <ele>513.0</ele>
        <time>2017-05-27T08:37:28.182Z</time>
      </trkpt>
      <trkpt lat="39.908625" lon="-0.41992333">
        <ele>514.0</ele>
        <time>2017-05-27T08:37:29.185Z</time>
      </trkpt>
      <trkpt lat="39.908625" lon="-0.41992333">
        <ele>514.0</ele>
        <time>2017-05-27T08:37:30.190Z</time>
      </trkpt>
      <trkpt lat="39.90863" lon="-0.41982833">
        <ele>514.0</ele>
        <time>2017-05-27T08:37:31.157Z</time>
      </trkpt>
      <trkpt lat="39.90863167" lon="-0.41978167">
        <ele>514.0</ele>
        <time>2017-05-27T08:37:32.182Z</time>
      </trkpt>
      <trkpt lat="39.90863333" lon="-0.41973333">
        <ele>514.0</ele>
        <time>2017-05-27T08:37:33.190Z</time>
      </trkpt>
      <trkpt lat="39.90863333" lon="-0.41973333">
        <ele>514.0</ele>
        <time>2017-05-27T08:37:34.169Z</time>
      </trkpt>
      <trkpt lat="39.90864" lon="-0.41963833">
        <ele>514.0</ele>
        <time>2017-05-27T08:37:35.175Z</time>
      </trkpt>
      <trkpt lat="39.90864" lon="-0.41963833">
        <ele>514.0</ele>
        <time>2017-05-27T08:37:36.180Z</time>
      </trkpt>
      <trkpt lat="39.90864333" lon="-0.41954333">
        <ele>514.0</ele>
        <time>2017-05-27T08:37:37.184Z</time>
      </trkpt>
      <trkpt lat="39.90864333" lon="-0.41954333">
        <ele>514.0</ele>
        <time>2017-05-27T08:37:38.191Z</time>
      </trkpt>
      <trkpt lat="39.90865167" lon="-0.41945">
        <ele>514.0</ele>
        <time>2017-05-27T08:37:39.163Z</time>
      </trkpt>
      <trkpt lat="39.90865167" lon="-0.41945">
        <ele>514.0</ele>
        <time>2017-05-27T08:37:40.182Z</time>
      </trkpt>
      <trkpt lat="39.90866167" lon="-0.41935667">
        <ele>514.0</ele>
        <time>2017-05-27T08:37:41.188Z</time>
      </trkpt>
      <trkpt lat="39.90866167" lon="-0.41935667">
        <ele>514.0</ele>
        <time>2017-05-27T08:37:42.194Z</time>
      </trkpt>
      <trkpt lat="39.90867667" lon="-0.41926167">
        <ele>514.0</ele>
        <time>2017-05-27T08:37:43.165Z</time>
      </trkpt>
      <trkpt lat="39.90867667" lon="-0.41926167">
        <ele>514.0</ele>
        <time>2017-05-27T08:37:44.170Z</time>
      </trkpt>
      <trkpt lat="39.908695" lon="-0.41916833">
        <ele>514.0</ele>
        <time>2017-05-27T08:37:45.163Z</time>
      </trkpt>
      <trkpt lat="39.908695" lon="-0.41916833">
        <ele>514.0</ele>
        <time>2017-05-27T08:37:46.169Z</time>
      </trkpt>
      <trkpt lat="39.90872167" lon="-0.41907333">
        <ele>514.0</ele>
        <time>2017-05-27T08:37:47.185Z</time>
      </trkpt>
      <trkpt lat="39.90872167" lon="-0.41907333">
        <ele>514.0</ele>
        <time>2017-05-27T08:37:48.194Z</time>
      </trkpt>
      <trkpt lat="39.908755" lon="-0.41897833">
        <ele>514.0</ele>
        <time>2017-05-27T08:37:49.158Z</time>
      </trkpt>
      <trkpt lat="39.90877167" lon="-0.41893333">
        <ele>514.0</ele>
        <time>2017-05-27T08:37:50.164Z</time>
      </trkpt>
      <trkpt lat="39.90877167" lon="-0.41893333">
        <ele>514.0</ele>
        <time>2017-05-27T08:37:51.175Z</time>
      </trkpt>
      <trkpt lat="39.90880833" lon="-0.41884667">
        <ele>514.0</ele>
        <time>2017-05-27T08:37:52.179Z</time>
      </trkpt>
      <trkpt lat="39.90882667" lon="-0.418805">
        <ele>514.0</ele>
        <time>2017-05-27T08:37:53.185Z</time>
      </trkpt>
      <trkpt lat="39.90882667" lon="-0.418805">
        <ele>514.0</ele>
        <time>2017-05-27T08:37:54.192Z</time>
      </trkpt>
      <trkpt lat="39.90886833" lon="-0.41871667">
        <ele>514.0</ele>
        <time>2017-05-27T08:37:55.185Z</time>
      </trkpt>
      <trkpt lat="39.90886833" lon="-0.41871667">
        <ele>514.0</ele>
        <time>2017-05-27T08:37:56.192Z</time>
      </trkpt>
      <trkpt lat="39.908915" lon="-0.41862667">
        <ele>514.0</ele>
        <time>2017-05-27T08:37:57.194Z</time>
      </trkpt>
      <trkpt lat="39.908915" lon="-0.41862667">
        <ele>514.0</ele>
        <time>2017-05-27T08:37:58.160Z</time>
      </trkpt>
      <trkpt lat="39.90896667" lon="-0.41853333">
        <ele>514.0</ele>
        <time>2017-05-27T08:37:59.163Z</time>
      </trkpt>
      <trkpt lat="39.90896667" lon="-0.41853333">
        <ele>514.0</ele>
        <time>2017-05-27T08:38:00.173Z</time>
      </trkpt>
      <trkpt lat="39.90901667" lon="-0.41843">
        <ele>514.0</ele>
        <time>2017-05-27T08:38:01.172Z</time>
      </trkpt>
      <trkpt lat="39.90901667" lon="-0.41843">
        <ele>514.0</ele>
        <time>2017-05-27T08:38:02.178Z</time>
      </trkpt>
      <trkpt lat="39.909075" lon="-0.41832667">
        <ele>513.0</ele>
        <time>2017-05-27T08:38:03.191Z</time>
      </trkpt>
      <trkpt lat="39.909075" lon="-0.41832667">
        <ele>513.0</ele>
        <time>2017-05-27T08:38:04.156Z</time>
      </trkpt>
      <trkpt lat="39.90912833" lon="-0.418225">
        <ele>513.0</ele>
        <time>2017-05-27T08:38:05.190Z</time>
      </trkpt>
      <trkpt lat="39.90912833" lon="-0.418225">
        <ele>513.0</ele>
        <time>2017-05-27T08:38:06.195Z</time>
      </trkpt>
      <trkpt lat="39.90918167" lon="-0.418115">
        <ele>513.0</ele>
        <time>2017-05-27T08:38:07.165Z</time>
      </trkpt>
      <trkpt lat="39.90918167" lon="-0.418115">
        <ele>513.0</ele>
        <time>2017-05-27T08:38:08.170Z</time>
      </trkpt>
      <trkpt lat="39.90924833" lon="-0.417995">
        <ele>513.0</ele>
        <time>2017-05-27T08:38:09.162Z</time>
      </trkpt>
      <trkpt lat="39.90924833" lon="-0.417995">
        <ele>513.0</ele>
        <time>2017-05-27T08:38:10.167Z</time>
      </trkpt>
      <trkpt lat="39.90931" lon="-0.41787167">
        <ele>512.0</ele>
        <time>2017-05-27T08:38:11.165Z</time>
      </trkpt>
      <trkpt lat="39.90931" lon="-0.41787167">
        <ele>512.0</ele>
        <time>2017-05-27T08:38:12.170Z</time>
      </trkpt>
      <trkpt lat="39.90936167" lon="-0.41773167">
        <ele>512.0</ele>
        <time>2017-05-27T08:38:13.157Z</time>
      </trkpt>
      <trkpt lat="39.90938167" lon="-0.41765667">
        <ele>512.0</ele>
        <time>2017-05-27T08:38:14.192Z</time>
      </trkpt>
      <trkpt lat="39.90938167" lon="-0.41765667">
        <ele>512.0</ele>
        <time>2017-05-27T08:38:15.172Z</time>
      </trkpt>
      <trkpt lat="39.90942" lon="-0.41750667">
        <ele>512.0</ele>
        <time>2017-05-27T08:38:16.185Z</time>
      </trkpt>
      <trkpt lat="39.90944" lon="-0.417435">
        <ele>512.0</ele>
        <time>2017-05-27T08:38:17.194Z</time>
      </trkpt>
      <trkpt lat="39.90944" lon="-0.417435">
        <ele>512.0</ele>
        <time>2017-05-27T08:38:18.159Z</time>
      </trkpt>
      <trkpt lat="39.909475" lon="-0.41728667">
        <ele>511.0</ele>
        <time>2017-05-27T08:38:19.165Z</time>
      </trkpt>
      <trkpt lat="39.909475" lon="-0.41728667">
        <ele>511.0</ele>
        <time>2017-05-27T08:38:20.184Z</time>
      </trkpt>
      <trkpt lat="39.909505" lon="-0.41713333">
        <ele>512.0</ele>
        <time>2017-05-27T08:38:21.195Z</time>
      </trkpt>
      <trkpt lat="39.909505" lon="-0.41713333">
        <ele>512.0</ele>
        <time>2017-05-27T08:38:22.192Z</time>
      </trkpt>
      <trkpt lat="39.90953333" lon="-0.41698167">
        <ele>512.0</ele>
        <time>2017-05-27T08:38:23.195Z</time>
      </trkpt>
      <trkpt lat="39.90954833" lon="-0.41690833">
        <ele>512.0</ele>
        <time>2017-05-27T08:38:24.161Z</time>
      </trkpt>
      <trkpt lat="39.90954833" lon="-0.41690833">
        <ele>512.0</ele>
        <time>2017-05-27T08:38:25.167Z</time>
      </trkpt>
      <trkpt lat="39.90958333" lon="-0.41676167">
        <ele>512.0</ele>
        <time>2017-05-27T08:38:26.171Z</time>
      </trkpt>
      <trkpt lat="39.90958333" lon="-0.41676167">
        <ele>512.0</ele>
        <time>2017-05-27T08:38:27.176Z</time>
      </trkpt>
      <trkpt lat="39.90961" lon="-0.41661833">
        <ele>513.0</ele>
        <time>2017-05-27T08:38:28.187Z</time>
      </trkpt>
      <trkpt lat="39.90962167" lon="-0.41655">
        <ele>513.0</ele>
        <time>2017-05-27T08:38:29.175Z</time>
      </trkpt>
      <trkpt lat="39.90963333" lon="-0.41648333">
        <ele>513.0</ele>
        <time>2017-05-27T08:38:30.180Z</time>
      </trkpt>
      <trkpt lat="39.90963333" lon="-0.41648333">
        <ele>513.0</ele>
        <time>2017-05-27T08:38:31.186Z</time>
      </trkpt>
      <trkpt lat="39.90966" lon="-0.41635333">
        <ele>514.0</ele>
        <time>2017-05-27T08:38:32.175Z</time>
      </trkpt>
      <trkpt lat="39.90966" lon="-0.41635333">
        <ele>514.0</ele>
        <time>2017-05-27T08:38:33.182Z</time>
      </trkpt>
      <trkpt lat="39.90968667" lon="-0.41622833">
        <ele>514.0</ele>
        <time>2017-05-27T08:38:34.185Z</time>
      </trkpt>
      <trkpt lat="39.90970167" lon="-0.41616833">
        <ele>514.0</ele>
        <time>2017-05-27T08:38:35.181Z</time>
      </trkpt>
      <trkpt lat="39.909715" lon="-0.41610833">
        <ele>514.0</ele>
        <time>2017-05-27T08:38:36.186Z</time>
      </trkpt>
      <trkpt lat="39.909715" lon="-0.41610833">
        <ele>514.0</ele>
        <time>2017-05-27T08:38:37.156Z</time>
      </trkpt>
      <trkpt lat="39.90974333" lon="-0.41598833">
        <ele>515.0</ele>
        <time>2017-05-27T08:38:38.157Z</time>
      </trkpt>
      <trkpt lat="39.90974333" lon="-0.41598833">
        <ele>515.0</ele>
        <time>2017-05-27T08:38:39.162Z</time>
      </trkpt>
      <trkpt lat="39.90977333" lon="-0.41587667">
        <ele>516.0</ele>
        <time>2017-05-27T08:38:40.180Z</time>
      </trkpt>
      <trkpt lat="39.909785" lon="-0.41582333">
        <ele>516.0</ele>
        <time>2017-05-27T08:38:41.183Z</time>
      </trkpt>
      <trkpt lat="39.909785" lon="-0.41582333">
        <ele>516.0</ele>
        <time>2017-05-27T08:38:42.189Z</time>
      </trkpt>
      <trkpt lat="39.909815" lon="-0.41571833">
        <ele>516.0</ele>
        <time>2017-05-27T08:38:43.191Z</time>
      </trkpt>
      <trkpt lat="39.909815" lon="-0.41571833">
        <ele>516.0</ele>
        <time>2017-05-27T08:38:44.156Z</time>
      </trkpt>
      <trkpt lat="39.909845" lon="-0.41562">
        <ele>517.0</ele>
        <time>2017-05-27T08:38:45.173Z</time>
      </trkpt>
      <trkpt lat="39.90985667" lon="-0.41557167">
        <ele>517.0</ele>
        <time>2017-05-27T08:38:46.165Z</time>
      </trkpt>
      <trkpt lat="39.90985667" lon="-0.41557167">
        <ele>517.0</ele>
        <time>2017-05-27T08:38:47.172Z</time>
      </trkpt>
      <trkpt lat="39.90987667" lon="-0.41547">
        <ele>517.0</ele>
        <time>2017-05-27T08:38:48.191Z</time>
      </trkpt>
      <trkpt lat="39.90987667" lon="-0.41547">
        <ele>517.0</ele>
        <time>2017-05-27T08:38:49.156Z</time>
      </trkpt>
      <trkpt lat="39.90990167" lon="-0.41536833">
        <ele>517.0</ele>
        <time>2017-05-27T08:38:50.165Z</time>
      </trkpt>
      <trkpt lat="39.909915" lon="-0.41531667">
        <ele>518.0</ele>
        <time>2017-05-27T08:38:51.182Z</time>
      </trkpt>
      <trkpt lat="39.909915" lon="-0.41531667">
        <ele>518.0</ele>
        <time>2017-05-27T08:38:52.194Z</time>
      </trkpt>
      <trkpt lat="39.90993667" lon="-0.415215">
        <ele>518.0</ele>
        <time>2017-05-27T08:38:53.185Z</time>
      </trkpt>
      <trkpt lat="39.90993667" lon="-0.415215">
        <ele>518.0</ele>
        <time>2017-05-27T08:38:54.190Z</time>
      </trkpt>
      <trkpt lat="39.90995167" lon="-0.415115">
        <ele>518.0</ele>
        <time>2017-05-27T08:38:55.187Z</time>
      </trkpt>
      <trkpt lat="39.90995167" lon="-0.415115">
        <ele>518.0</ele>
        <time>2017-05-27T08:38:56.193Z</time>
      </trkpt>
      <trkpt lat="39.909965" lon="-0.41501667">
        <ele>519.0</ele>
        <time>2017-05-27T08:38:57.188Z</time>
      </trkpt>
      <trkpt lat="39.909965" lon="-0.41501667">
        <ele>519.0</ele>
        <time>2017-05-27T08:38:58.193Z</time>
      </trkpt>
      <trkpt lat="39.90998167" lon="-0.41491667">
        <ele>520.0</ele>
        <time>2017-05-27T08:38:59.185Z</time>
      </trkpt>
      <trkpt lat="39.90998167" lon="-0.41491667">
        <ele>520.0</ele>
        <time>2017-05-27T08:39:00.195Z</time>
      </trkpt>
      <trkpt lat="39.90999333" lon="-0.41481833">
        <ele>520.0</ele>
        <time>2017-05-27T08:39:01.195Z</time>
      </trkpt>
      <trkpt lat="39.90999333" lon="-0.41481833">
        <ele>520.0</ele>
        <time>2017-05-27T08:39:02.178Z</time>
      </trkpt>
      <trkpt lat="39.91000167" lon="-0.41472167">
        <ele>520.0</ele>
        <time>2017-05-27T08:39:03.195Z</time>
      </trkpt>
      <trkpt lat="39.910005" lon="-0.41467333">
        <ele>520.0</ele>
        <time>2017-05-27T08:39:04.162Z</time>
      </trkpt>
      <trkpt lat="39.910005" lon="-0.41467333">
        <ele>520.0</ele>
        <time>2017-05-27T08:39:05.167Z</time>
      </trkpt>
      <trkpt lat="39.910005" lon="-0.41458">
        <ele>521.0</ele>
        <time>2017-05-27T08:39:06.181Z</time>
      </trkpt>
      <trkpt lat="39.910005" lon="-0.41458">
        <ele>521.0</ele>
        <time>2017-05-27T08:39:07.165Z</time>
      </trkpt>
      <trkpt lat="39.90999833" lon="-0.41448167">
        <ele>521.0</ele>
        <time>2017-05-27T08:39:08.175Z</time>
      </trkpt>
      <trkpt lat="39.90999833" lon="-0.41448167">
        <ele>521.0</ele>
        <time>2017-05-27T08:39:09.195Z</time>
      </trkpt>
      <trkpt lat="39.90999" lon="-0.41438333">
        <ele>521.0</ele>
        <time>2017-05-27T08:39:10.165Z</time>
      </trkpt>
      <trkpt lat="39.909985" lon="-0.414335">
        <ele>521.0</ele>
        <time>2017-05-27T08:39:11.175Z</time>
      </trkpt>
      <trkpt lat="39.909985" lon="-0.414335">
        <ele>521.0</ele>
        <time>2017-05-27T08:39:12.180Z</time>
      </trkpt>
      <trkpt lat="39.90997333" lon="-0.41423667">
        <ele>522.0</ele>
        <time>2017-05-27T08:39:13.195Z</time>
      </trkpt>
      <trkpt lat="39.90997333" lon="-0.41423667">
        <ele>522.0</ele>
        <time>2017-05-27T08:39:14.192Z</time>
      </trkpt>
      <trkpt lat="39.90995333" lon="-0.414135">
        <ele>522.0</ele>
        <time>2017-05-27T08:39:15.194Z</time>
      </trkpt>
      <trkpt lat="39.90995333" lon="-0.414135">
        <ele>522.0</ele>
        <time>2017-05-27T08:39:16.159Z</time>
      </trkpt>
      <trkpt lat="39.90992833" lon="-0.41403667">
        <ele>523.0</ele>
        <time>2017-05-27T08:39:17.175Z</time>
      </trkpt>
      <trkpt lat="39.90992833" lon="-0.41403667">
        <ele>523.0</ele>
        <time>2017-05-27T08:39:18.180Z</time>
      </trkpt>
      <trkpt lat="39.9099" lon="-0.41394333">
        <ele>523.0</ele>
        <time>2017-05-27T08:39:19.184Z</time>
      </trkpt>
      <trkpt lat="39.9099" lon="-0.41394333">
        <ele>523.0</ele>
        <time>2017-05-27T08:39:20.157Z</time>
      </trkpt>
      <trkpt lat="39.90986833" lon="-0.41385333">
        <ele>523.0</ele>
        <time>2017-05-27T08:39:21.182Z</time>
      </trkpt>
      <trkpt lat="39.90986833" lon="-0.41385333">
        <ele>523.0</ele>
        <time>2017-05-27T08:39:22.188Z</time>
      </trkpt>
      <trkpt lat="39.90982833" lon="-0.41376833">
        <ele>524.0</ele>
        <time>2017-05-27T08:39:23.195Z</time>
      </trkpt>
      <trkpt lat="39.90982833" lon="-0.41376833">
        <ele>524.0</ele>
        <time>2017-05-27T08:39:24.160Z</time>
      </trkpt>
      <trkpt lat="39.909775" lon="-0.41369167">
        <ele>524.0</ele>
        <time>2017-05-27T08:39:25.165Z</time>
      </trkpt>
      <trkpt lat="39.909775" lon="-0.41369167">
        <ele>524.0</ele>
        <time>2017-05-27T08:39:26.181Z</time>
      </trkpt>
      <trkpt lat="39.90971833" lon="-0.41362167">
        <ele>525.0</ele>
        <time>2017-05-27T08:39:27.185Z</time>
      </trkpt>
      <trkpt lat="39.90971833" lon="-0.41362167">
        <ele>525.0</ele>
        <time>2017-05-27T08:39:28.195Z</time>
      </trkpt>
      <trkpt lat="39.90966" lon="-0.41355667">
        <ele>525.0</ele>
        <time>2017-05-27T08:39:29.190Z</time>
      </trkpt>
      <trkpt lat="39.90966" lon="-0.41355667">
        <ele>525.0</ele>
        <time>2017-05-27T08:39:30.195Z</time>
      </trkpt>
      <trkpt lat="39.90960333" lon="-0.41349667">
        <ele>525.0</ele>
        <time>2017-05-27T08:39:31.161Z</time>
      </trkpt>
      <trkpt lat="39.90960333" lon="-0.41349667">
        <ele>525.0</ele>
        <time>2017-05-27T08:39:32.188Z</time>
      </trkpt>
      <trkpt lat="39.909545" lon="-0.41343667">
        <ele>526.0</ele>
        <time>2017-05-27T08:39:33.165Z</time>
      </trkpt>
      <trkpt lat="39.909545" lon="-0.41343667">
        <ele>526.0</ele>
        <time>2017-05-27T08:39:34.170Z</time>
      </trkpt>
      <trkpt lat="39.90948667" lon="-0.41337667">
        <ele>526.0</ele>
        <time>2017-05-27T08:39:35.170Z</time>
      </trkpt>
      <trkpt lat="39.90948667" lon="-0.41337667">
        <ele>526.0</ele>
        <time>2017-05-27T08:39:36.175Z</time>
      </trkpt>
      <trkpt lat="39.90942833" lon="-0.41331833">
        <ele>526.0</ele>
        <time>2017-05-27T08:39:37.165Z</time>
      </trkpt>
      <trkpt lat="39.90942833" lon="-0.41331833">
        <ele>526.0</ele>
        <time>2017-05-27T08:39:38.173Z</time>
      </trkpt>
      <trkpt lat="39.90937167" lon="-0.41326">
        <ele>527.0</ele>
        <time>2017-05-27T08:39:39.187Z</time>
      </trkpt>
      <trkpt lat="39.90937167" lon="-0.41326">
        <ele>527.0</ele>
        <time>2017-05-27T08:39:40.192Z</time>
      </trkpt>
      <trkpt lat="39.90931667" lon="-0.4132">
        <ele>527.0</ele>
        <time>2017-05-27T08:39:41.156Z</time>
      </trkpt>
      <trkpt lat="39.90931667" lon="-0.4132">
        <ele>527.0</ele>
        <time>2017-05-27T08:39:42.175Z</time>
      </trkpt>
      <trkpt lat="39.909265" lon="-0.41313333">
        <ele>528.0</ele>
        <time>2017-05-27T08:39:43.185Z</time>
      </trkpt>
      <trkpt lat="39.909265" lon="-0.41313333">
        <ele>528.0</ele>
        <time>2017-05-27T08:39:44.194Z</time>
      </trkpt>
      <trkpt lat="39.90921667" lon="-0.41306333">
        <ele>528.0</ele>
        <time>2017-05-27T08:39:45.193Z</time>
      </trkpt>
      <trkpt lat="39.90919333" lon="-0.41302833">
        <ele>528.0</ele>
        <time>2017-05-27T08:39:46.168Z</time>
      </trkpt>
      <trkpt lat="39.90919333" lon="-0.41302833">
        <ele>528.0</ele>
        <time>2017-05-27T08:39:47.173Z</time>
      </trkpt>
      <trkpt lat="39.90915333" lon="-0.412955">
        <ele>529.0</ele>
        <time>2017-05-27T08:39:48.165Z</time>
      </trkpt>
      <trkpt lat="39.90915333" lon="-0.412955">
        <ele>529.0</ele>
        <time>2017-05-27T08:39:49.170Z</time>
      </trkpt>
      <trkpt lat="39.90912833" lon="-0.412865">
        <ele>529.0</ele>
        <time>2017-05-27T08:39:50.175Z</time>
      </trkpt>
      <trkpt lat="39.90912833" lon="-0.412865">
        <ele>529.0</ele>
        <time>2017-05-27T08:39:51.180Z</time>
      </trkpt>
      <trkpt lat="39.90911667" lon="-0.41277167">
        <ele>530.0</ele>
        <time>2017-05-27T08:39:52.187Z</time>
      </trkpt>
      <trkpt lat="39.90911167" lon="-0.412725">
        <ele>530.0</ele>
        <time>2017-05-27T08:39:53.165Z</time>
      </trkpt>
      <trkpt lat="39.90911167" lon="-0.412725">
        <ele>530.0</ele>
        <time>2017-05-27T08:39:54.184Z</time>
      </trkpt>
      <trkpt lat="39.90911167" lon="-0.41263667">
        <ele>530.0</ele>
        <time>2017-05-27T08:39:55.193Z</time>
      </trkpt>
      <trkpt lat="39.90911667" lon="-0.41259167">
        <ele>531.0</ele>
        <time>2017-05-27T08:39:56.193Z</time>
      </trkpt>
      <trkpt lat="39.90911667" lon="-0.41259167">
        <ele>531.0</ele>
        <time>2017-05-27T08:39:57.159Z</time>
      </trkpt>
      <trkpt lat="39.909135" lon="-0.412505">
        <ele>531.0</ele>
        <time>2017-05-27T08:39:58.195Z</time>
      </trkpt>
      <trkpt lat="39.90914833" lon="-0.41246167">
        <ele>531.0</ele>
        <time>2017-05-27T08:39:59.195Z</time>
      </trkpt>
      <trkpt lat="39.90914833" lon="-0.41246167">
        <ele>531.0</ele>
        <time>2017-05-27T08:40:00.160Z</time>
      </trkpt>
      <trkpt lat="39.90917667" lon="-0.412375">
        <ele>531.0</ele>
        <time>2017-05-27T08:40:01.166Z</time>
      </trkpt>
      <trkpt lat="39.90919333" lon="-0.412335">
        <ele>531.0</ele>
        <time>2017-05-27T08:40:02.173Z</time>
      </trkpt>
      <trkpt lat="39.90919333" lon="-0.412335">
        <ele>531.0</ele>
        <time>2017-05-27T08:40:03.181Z</time>
      </trkpt>
      <trkpt lat="39.909225" lon="-0.41225">
        <ele>532.0</ele>
        <time>2017-05-27T08:40:04.156Z</time>
      </trkpt>
      <trkpt lat="39.90924333" lon="-0.41220667">
        <ele>532.0</ele>
        <time>2017-05-27T08:40:05.169Z</time>
      </trkpt>
      <trkpt lat="39.90924333" lon="-0.41220667">
        <ele>532.0</ele>
        <time>2017-05-27T08:40:06.177Z</time>
      </trkpt>
      <trkpt lat="39.90927667" lon="-0.41211667">
        <ele>533.0</ele>
        <time>2017-05-27T08:40:07.184Z</time>
      </trkpt>
      <trkpt lat="39.90929167" lon="-0.41207167">
        <ele>533.0</ele>
        <time>2017-05-27T08:40:08.192Z</time>
      </trkpt>
      <trkpt lat="39.90929167" lon="-0.41207167">
        <ele>533.0</ele>
        <time>2017-05-27T08:40:09.157Z</time>
      </trkpt>
      <trkpt lat="39.90932333" lon="-0.411985">
        <ele>533.0</ele>
        <time>2017-05-27T08:40:10.162Z</time>
      </trkpt>
      <trkpt lat="39.90933667" lon="-0.41194">
        <ele>533.0</ele>
        <time>2017-05-27T08:40:11.195Z</time>
      </trkpt>
      <trkpt lat="39.90935" lon="-0.411895">
        <ele>533.0</ele>
        <time>2017-05-27T08:40:12.161Z</time>
      </trkpt>
      <trkpt lat="39.90935" lon="-0.411895">
        <ele>533.0</ele>
        <time>2017-05-27T08:40:13.157Z</time>
      </trkpt>
      <trkpt lat="39.90936833" lon="-0.41180333">
        <ele>534.0</ele>
        <time>2017-05-27T08:40:14.185Z</time>
      </trkpt>
      <trkpt lat="39.90937667" lon="-0.41175667">
        <ele>534.0</ele>
        <time>2017-05-27T08:40:15.168Z</time>
      </trkpt>
      <trkpt lat="39.90937667" lon="-0.41175667">
        <ele>534.0</ele>
        <time>2017-05-27T08:40:16.188Z</time>
      </trkpt>
      <trkpt lat="39.90938667" lon="-0.411665">
        <ele>535.0</ele>
        <time>2017-05-27T08:40:17.165Z</time>
      </trkpt>
      <trkpt lat="39.90938667" lon="-0.411665">
        <ele>535.0</ele>
        <time>2017-05-27T08:40:18.170Z</time>
      </trkpt>
      <trkpt lat="39.90938833" lon="-0.41157333">
        <ele>535.0</ele>
        <time>2017-05-27T08:40:19.195Z</time>
      </trkpt>
      <trkpt lat="39.90938833" lon="-0.41157333">
        <ele>535.0</ele>
        <time>2017-05-27T08:40:20.188Z</time>
      </trkpt>
      <trkpt lat="39.90938" lon="-0.41147667">
        <ele>535.0</ele>
        <time>2017-05-27T08:40:21.165Z</time>
      </trkpt>
      <trkpt lat="39.90938" lon="-0.41147667">
        <ele>535.0</ele>
        <time>2017-05-27T08:40:22.170Z</time>
      </trkpt>
      <trkpt lat="39.90935833" lon="-0.41138333">
        <ele>535.0</ele>
        <time>2017-05-27T08:40:23.158Z</time>
      </trkpt>
      <trkpt lat="39.90935833" lon="-0.41138333">
        <ele>535.0</ele>
        <time>2017-05-27T08:40:24.163Z</time>
      </trkpt>
      <trkpt lat="39.909325" lon="-0.41130667">
        <ele>535.0</ele>
        <time>2017-05-27T08:40:25.175Z</time>
      </trkpt>
      <trkpt lat="39.909325" lon="-0.41130667">
        <ele>535.0</ele>
        <time>2017-05-27T08:40:26.180Z</time>
      </trkpt>
      <trkpt lat="39.90928167" lon="-0.41123333">
        <ele>535.0</ele>
        <time>2017-05-27T08:40:27.185Z</time>
      </trkpt>
      <trkpt lat="39.90928167" lon="-0.41123333">
        <ele>535.0</ele>
        <time>2017-05-27T08:40:28.160Z</time>
      </trkpt>
      <trkpt lat="39.90923833" lon="-0.411165">
        <ele>536.0</ele>
        <time>2017-05-27T08:40:29.185Z</time>
      </trkpt>
      <trkpt lat="39.90923833" lon="-0.411165">
        <ele>536.0</ele>
        <time>2017-05-27T08:40:30.194Z</time>
      </trkpt>
      <trkpt lat="39.90919333" lon="-0.4111">
        <ele>536.0</ele>
        <time>2017-05-27T08:40:31.191Z</time>
      </trkpt>
      <trkpt lat="39.90919333" lon="-0.4111">
        <ele>536.0</ele>
        <time>2017-05-27T08:40:32.156Z</time>
      </trkpt>
      <trkpt lat="39.90914667" lon="-0.41104333">
        <ele>537.0</ele>
        <time>2017-05-27T08:40:33.193Z</time>
      </trkpt>
      <trkpt lat="39.90914667" lon="-0.41104333">
        <ele>537.0</ele>
        <time>2017-05-27T08:40:34.158Z</time>
      </trkpt>
      <trkpt lat="39.90910333" lon="-0.41098833">
        <ele>537.0</ele>
        <time>2017-05-27T08:40:35.195Z</time>
      </trkpt>
      <trkpt lat="39.90910333" lon="-0.41098833">
        <ele>537.0</ele>
        <time>2017-05-27T08:40:36.160Z</time>
      </trkpt>
      <trkpt lat="39.90906667" lon="-0.41092667">
        <ele>538.0</ele>
        <time>2017-05-27T08:40:37.163Z</time>
      </trkpt>
      <trkpt lat="39.90906667" lon="-0.41092667">
        <ele>538.0</ele>
        <time>2017-05-27T08:40:38.168Z</time>
      </trkpt>
      <trkpt lat="39.90903333" lon="-0.410865">
        <ele>538.0</ele>
        <time>2017-05-27T08:40:39.165Z</time>
      </trkpt>
      <trkpt lat="39.90903333" lon="-0.410865">
        <ele>538.0</ele>
        <time>2017-05-27T08:40:40.170Z</time>
      </trkpt>
      <trkpt lat="39.90900833" lon="-0.41079667">
        <ele>539.0</ele>
        <time>2017-05-27T08:40:41.164Z</time>
      </trkpt>
      <trkpt lat="39.90900833" lon="-0.41079667">
        <ele>539.0</ele>
        <time>2017-05-27T08:40:42.184Z</time>
      </trkpt>
      <trkpt lat="39.90899333" lon="-0.41072167">
        <ele>539.0</ele>
        <time>2017-05-27T08:40:43.193Z</time>
      </trkpt>
      <trkpt lat="39.90899333" lon="-0.41072167">
        <ele>539.0</ele>
        <time>2017-05-27T08:40:44.158Z</time>
      </trkpt>
      <trkpt lat="39.90898667" lon="-0.41064333">
        <ele>540.0</ele>
        <time>2017-05-27T08:40:45.195Z</time>
      </trkpt>
      <trkpt lat="39.90898667" lon="-0.41064333">
        <ele>540.0</ele>
        <time>2017-05-27T08:40:46.160Z</time>
      </trkpt>
      <trkpt lat="39.90899167" lon="-0.41055833">
        <ele>540.0</ele>
        <time>2017-05-27T08:40:47.191Z</time>
      </trkpt>
      <trkpt lat="39.90899167" lon="-0.41055833">
        <ele>540.0</ele>
        <time>2017-05-27T08:40:48.167Z</time>
      </trkpt>
      <trkpt lat="39.909005" lon="-0.41047167">
        <ele>540.0</ele>
        <time>2017-05-27T08:40:49.170Z</time>
      </trkpt>
      <trkpt lat="39.90901667" lon="-0.41043">
        <ele>540.0</ele>
        <time>2017-05-27T08:40:50.175Z</time>
      </trkpt>
      <trkpt lat="39.90901667" lon="-0.41043">
        <ele>540.0</ele>
        <time>2017-05-27T08:40:51.180Z</time>
      </trkpt>
      <trkpt lat="39.90903167" lon="-0.41034">
        <ele>541.0</ele>
        <time>2017-05-27T08:40:52.187Z</time>
      </trkpt>
      <trkpt lat="39.90903833" lon="-0.410295">
        <ele>541.0</ele>
        <time>2017-05-27T08:40:53.169Z</time>
      </trkpt>
      <trkpt lat="39.90903833" lon="-0.410295">
        <ele>541.0</ele>
        <time>2017-05-27T08:40:54.194Z</time>
      </trkpt>
      <trkpt lat="39.90906833" lon="-0.41020167">
        <ele>541.0</ele>
        <time>2017-05-27T08:40:55.193Z</time>
      </trkpt>
      <trkpt lat="39.90906833" lon="-0.41020167">
        <ele>541.0</ele>
        <time>2017-05-27T08:40:56.158Z</time>
      </trkpt>
      <trkpt lat="39.90909333" lon="-0.41010833">
        <ele>541.0</ele>
        <time>2017-05-27T08:40:57.165Z</time>
      </trkpt>
      <trkpt lat="39.90909333" lon="-0.41010833">
        <ele>541.0</ele>
        <time>2017-05-27T08:40:58.182Z</time>
      </trkpt>
      <trkpt lat="39.90912" lon="-0.410015">
        <ele>541.0</ele>
        <time>2017-05-27T08:40:59.194Z</time>
      </trkpt>
      <trkpt lat="39.90913333" lon="-0.40997">
        <ele>541.0</ele>
        <time>2017-05-27T08:41:00.160Z</time>
      </trkpt>
      <trkpt lat="39.90913333" lon="-0.40997">
        <ele>541.0</ele>
        <time>2017-05-27T08:41:01.166Z</time>
      </trkpt>
      <trkpt lat="39.90916167" lon="-0.40988">
        <ele>541.0</ele>
        <time>2017-05-27T08:41:02.172Z</time>
      </trkpt>
      <trkpt lat="39.90916167" lon="-0.40988">
        <ele>541.0</ele>
        <time>2017-05-27T08:41:03.193Z</time>
      </trkpt>
      <trkpt lat="39.90918667" lon="-0.40979">
        <ele>540.0</ele>
        <time>2017-05-27T08:41:04.192Z</time>
      </trkpt>
      <trkpt lat="39.90918667" lon="-0.40979">
        <ele>540.0</ele>
        <time>2017-05-27T08:41:05.157Z</time>
      </trkpt>
      <trkpt lat="39.90921333" lon="-0.4097">
        <ele>540.0</ele>
        <time>2017-05-27T08:41:06.195Z</time>
      </trkpt>
      <trkpt lat="39.90921333" lon="-0.4097">
        <ele>540.0</ele>
        <time>2017-05-27T08:41:07.160Z</time>
      </trkpt>
      <trkpt lat="39.909235" lon="-0.409605">
        <ele>540.0</ele>
        <time>2017-05-27T08:41:08.194Z</time>
      </trkpt>
      <trkpt lat="39.909235" lon="-0.409605">
        <ele>540.0</ele>
        <time>2017-05-27T08:41:09.159Z</time>
      </trkpt>
      <trkpt lat="39.90925167" lon="-0.40950833">
        <ele>541.0</ele>
        <time>2017-05-27T08:41:10.163Z</time>
      </trkpt>
      <trkpt lat="39.90926" lon="-0.40945833">
        <ele>541.0</ele>
        <time>2017-05-27T08:41:11.185Z</time>
      </trkpt>
      <trkpt lat="39.909265" lon="-0.40941">
        <ele>541.0</ele>
        <time>2017-05-27T08:41:12.190Z</time>
      </trkpt>
      <trkpt lat="39.909265" lon="-0.40941">
        <ele>541.0</ele>
        <time>2017-05-27T08:41:13.167Z</time>
      </trkpt>
      <trkpt lat="39.909275" lon="-0.40931667">
        <ele>541.0</ele>
        <time>2017-05-27T08:41:14.185Z</time>
      </trkpt>
      <trkpt lat="39.90927333" lon="-0.40926833">
        <ele>541.0</ele>
        <time>2017-05-27T08:41:15.188Z</time>
      </trkpt>
      <trkpt lat="39.90927333" lon="-0.40926833">
        <ele>541.0</ele>
        <time>2017-05-27T08:41:16.193Z</time>
      </trkpt>
      <trkpt lat="39.90927167" lon="-0.40917167">
        <ele>542.0</ele>
        <time>2017-05-27T08:41:17.195Z</time>
      </trkpt>
      <trkpt lat="39.90927167" lon="-0.40917167">
        <ele>542.0</ele>
        <time>2017-05-27T08:41:18.162Z</time>
      </trkpt>
      <trkpt lat="39.90926667" lon="-0.40907">
        <ele>542.0</ele>
        <time>2017-05-27T08:41:19.180Z</time>
      </trkpt>
      <trkpt lat="39.90926667" lon="-0.40907">
        <ele>542.0</ele>
        <time>2017-05-27T08:41:20.194Z</time>
      </trkpt>
      <trkpt lat="39.909265" lon="-0.40897">
        <ele>542.0</ele>
        <time>2017-05-27T08:41:21.195Z</time>
      </trkpt>
      <trkpt lat="39.909265" lon="-0.40892">
        <ele>542.0</ele>
        <time>2017-05-27T08:41:22.158Z</time>
      </trkpt>
      <trkpt lat="39.909265" lon="-0.40892">
        <ele>542.0</ele>
        <time>2017-05-27T08:41:23.175Z</time>
      </trkpt>
      <trkpt lat="39.90926167" lon="-0.40882167">
        <ele>542.0</ele>
        <time>2017-05-27T08:41:24.181Z</time>
      </trkpt>
      <trkpt lat="39.90926167" lon="-0.40877333">
        <ele>543.0</ele>
        <time>2017-05-27T08:41:25.195Z</time>
      </trkpt>
      <trkpt lat="39.90926167" lon="-0.40877333">
        <ele>543.0</ele>
        <time>2017-05-27T08:41:26.160Z</time>
      </trkpt>
      <trkpt lat="39.90926333" lon="-0.40867667">
        <ele>543.0</ele>
        <time>2017-05-27T08:41:27.165Z</time>
      </trkpt>
      <trkpt lat="39.90926333" lon="-0.40867667">
        <ele>543.0</ele>
        <time>2017-05-27T08:41:28.170Z</time>
      </trkpt>
      <trkpt lat="39.90926333" lon="-0.40858333">
        <ele>543.0</ele>
        <time>2017-05-27T08:41:29.187Z</time>
      </trkpt>
      <trkpt lat="39.90926333" lon="-0.40858333">
        <ele>543.0</ele>
        <time>2017-05-27T08:41:30.195Z</time>
      </trkpt>
      <trkpt lat="39.90925833" lon="-0.40849167">
        <ele>544.0</ele>
        <time>2017-05-27T08:41:31.157Z</time>
      </trkpt>
      <trkpt lat="39.90925833" lon="-0.40849167">
        <ele>544.0</ele>
        <time>2017-05-27T08:41:32.168Z</time>
      </trkpt>
      <trkpt lat="39.90926" lon="-0.40840167">
        <ele>544.0</ele>
        <time>2017-05-27T08:41:33.182Z</time>
      </trkpt>
      <trkpt lat="39.90926167" lon="-0.40835833">
        <ele>544.0</ele>
        <time>2017-05-27T08:41:34.185Z</time>
      </trkpt>
      <trkpt lat="39.90926167" lon="-0.408315">
        <ele>544.0</ele>
        <time>2017-05-27T08:41:35.169Z</time>
      </trkpt>
      <trkpt lat="39.90926167" lon="-0.408315">
        <ele>544.0</ele>
        <time>2017-05-27T08:41:36.180Z</time>
      </trkpt>
      <trkpt lat="39.90926167" lon="-0.40822833">
        <ele>545.0</ele>
        <time>2017-05-27T08:41:37.165Z</time>
      </trkpt>
      <trkpt lat="39.90926167" lon="-0.40822833">
        <ele>545.0</ele>
        <time>2017-05-27T08:41:38.170Z</time>
      </trkpt>
      <trkpt lat="39.90926333" lon="-0.40814333">
        <ele>545.0</ele>
        <time>2017-05-27T08:41:39.185Z</time>
      </trkpt>
      <trkpt lat="39.90926667" lon="-0.40810167">
        <ele>545.0</ele>
        <time>2017-05-27T08:41:40.156Z</time>
      </trkpt>
      <trkpt lat="39.90926667" lon="-0.40810167">
        <ele>545.0</ele>
        <time>2017-05-27T08:41:41.175Z</time>
      </trkpt>
      <trkpt lat="39.909275" lon="-0.40801667">
        <ele>546.0</ele>
        <time>2017-05-27T08:41:42.195Z</time>
      </trkpt>
      <trkpt lat="39.90928" lon="-0.40797333">
        <ele>546.0</ele>
        <time>2017-05-27T08:41:43.165Z</time>
      </trkpt>
      <trkpt lat="39.90928" lon="-0.40797333">
        <ele>546.0</ele>
        <time>2017-05-27T08:41:44.162Z</time>
      </trkpt>
      <trkpt lat="39.90929667" lon="-0.40788833">
        <ele>547.0</ele>
        <time>2017-05-27T08:41:45.161Z</time>
      </trkpt>
      <trkpt lat="39.90930167" lon="-0.40784833">
        <ele>547.0</ele>
        <time>2017-05-27T08:41:46.187Z</time>
      </trkpt>
      <trkpt lat="39.90931333" lon="-0.40781">
        <ele>547.0</ele>
        <time>2017-05-27T08:41:47.191Z</time>
      </trkpt>
      <trkpt lat="39.90931333" lon="-0.40781">
        <ele>547.0</ele>
        <time>2017-05-27T08:41:48.156Z</time>
      </trkpt>
      <trkpt lat="39.90934833" lon="-0.40773833">
        <ele>547.0</ele>
        <time>2017-05-27T08:41:49.175Z</time>
      </trkpt>
      <trkpt lat="39.90934833" lon="-0.40773833">
        <ele>547.0</ele>
        <time>2017-05-27T08:41:50.180Z</time>
      </trkpt>
      <trkpt lat="39.90939" lon="-0.40766833">
        <ele>547.0</ele>
        <time>2017-05-27T08:41:51.184Z</time>
      </trkpt>
      <trkpt lat="39.90939" lon="-0.40766833">
        <ele>547.0</ele>
        <time>2017-05-27T08:41:52.191Z</time>
      </trkpt>
      <trkpt lat="39.90943167" lon="-0.40760167">
        <ele>547.0</ele>
        <time>2017-05-27T08:41:53.165Z</time>
      </trkpt>
      <trkpt lat="39.90943167" lon="-0.40760167">
        <ele>547.0</ele>
        <time>2017-05-27T08:41:54.184Z</time>
      </trkpt>
      <trkpt lat="39.90948" lon="-0.40754167">
        <ele>547.0</ele>
        <time>2017-05-27T08:41:55.192Z</time>
      </trkpt>
      <trkpt lat="39.90948" lon="-0.40754167">
        <ele>547.0</ele>
        <time>2017-05-27T08:41:56.161Z</time>
      </trkpt>
      <trkpt lat="39.90953" lon="-0.40748333">
        <ele>547.0</ele>
        <time>2017-05-27T08:41:57.165Z</time>
      </trkpt>
      <trkpt lat="39.90953" lon="-0.40748333">
        <ele>547.0</ele>
        <time>2017-05-27T08:41:58.184Z</time>
      </trkpt>
      <trkpt lat="39.90958167" lon="-0.40743">
        <ele>548.0</ele>
        <time>2017-05-27T08:41:59.185Z</time>
      </trkpt>
      <trkpt lat="39.90958167" lon="-0.40743">
        <ele>548.0</ele>
        <time>2017-05-27T08:42:00.161Z</time>
      </trkpt>
      <trkpt lat="39.90963667" lon="-0.40737833">
        <ele>548.0</ele>
        <time>2017-05-27T08:42:01.175Z</time>
      </trkpt>
      <trkpt lat="39.90963667" lon="-0.40737833">
        <ele>548.0</ele>
        <time>2017-05-27T08:42:02.195Z</time>
      </trkpt>
      <trkpt lat="39.90969833" lon="-0.40733333">
        <ele>548.0</ele>
        <time>2017-05-27T08:42:03.193Z</time>
      </trkpt>
      <trkpt lat="39.90969833" lon="-0.40733333">
        <ele>548.0</ele>
        <time>2017-05-27T08:42:04.158Z</time>
      </trkpt>
      <trkpt lat="39.909755" lon="-0.40728167">
        <ele>548.0</ele>
        <time>2017-05-27T08:42:05.195Z</time>
      </trkpt>
      <trkpt lat="39.909755" lon="-0.40728167">
        <ele>548.0</ele>
        <time>2017-05-27T08:42:06.160Z</time>
      </trkpt>
      <trkpt lat="39.909815" lon="-0.40723333">
        <ele>548.0</ele>
        <time>2017-05-27T08:42:07.172Z</time>
      </trkpt>
      <trkpt lat="39.90984333" lon="-0.40720833">
        <ele>548.0</ele>
        <time>2017-05-27T08:42:08.182Z</time>
      </trkpt>
      <trkpt lat="39.90984333" lon="-0.40720833">
        <ele>548.0</ele>
        <time>2017-05-27T08:42:09.161Z</time>
      </trkpt>
      <trkpt lat="39.909895" lon="-0.40715333">
        <ele>548.0</ele>
        <time>2017-05-27T08:42:10.171Z</time>
      </trkpt>
      <trkpt lat="39.90992333" lon="-0.40712833">
        <ele>548.0</ele>
        <time>2017-05-27T08:42:11.169Z</time>
      </trkpt>
      <trkpt lat="39.90992333" lon="-0.40712833">
        <ele>548.0</ele>
        <time>2017-05-27T08:42:12.174Z</time>
      </trkpt>
      <trkpt lat="39.90997167" lon="-0.40707333">
        <ele>548.0</ele>
        <time>2017-05-27T08:42:13.185Z</time>
      </trkpt>
      <trkpt lat="39.909995" lon="-0.40704">
        <ele>549.0</ele>
        <time>2017-05-27T08:42:14.165Z</time>
      </trkpt>
      <trkpt lat="39.909995" lon="-0.40704">
        <ele>549.0</ele>
        <time>2017-05-27T08:42:15.184Z</time>
      </trkpt>
      <trkpt lat="39.91004" lon="-0.40697167">
        <ele>549.0</ele>
        <time>2017-05-27T08:42:16.186Z</time>
      </trkpt>
      <trkpt lat="39.91006" lon="-0.40694667">
        <ele>549.0</ele>
        <time>2017-05-27T08:42:17.175Z</time>
      </trkpt>
      <trkpt lat="39.91006" lon="-0.40694667">
        <ele>549.0</ele>
        <time>2017-05-27T08:42:18.191Z</time>
      </trkpt>
      <trkpt lat="39.91010667" lon="-0.40688">
        <ele>549.0</ele>
        <time>2017-05-27T08:42:19.165Z</time>
      </trkpt>
      <trkpt lat="39.91010667" lon="-0.40688">
        <ele>549.0</ele>
        <time>2017-05-27T08:42:20.184Z</time>
      </trkpt>
      <trkpt lat="39.91014667" lon="-0.40681333">
        <ele>549.0</ele>
        <time>2017-05-27T08:42:21.163Z</time>
      </trkpt>
      <trkpt lat="39.91014667" lon="-0.40681333">
        <ele>549.0</ele>
        <time>2017-05-27T08:42:22.182Z</time>
      </trkpt>
      <trkpt lat="39.91018333" lon="-0.40674833">
        <ele>549.0</ele>
        <time>2017-05-27T08:42:23.189Z</time>
      </trkpt>
      <trkpt lat="39.91018333" lon="-0.40674833">
        <ele>549.0</ele>
        <time>2017-05-27T08:42:24.195Z</time>
      </trkpt>
      <trkpt lat="39.91021833" lon="-0.40667833">
        <ele>549.0</ele>
        <time>2017-05-27T08:42:25.165Z</time>
      </trkpt>
      <trkpt lat="39.91021833" lon="-0.40667833">
        <ele>549.0</ele>
        <time>2017-05-27T08:42:26.173Z</time>
      </trkpt>
      <trkpt lat="39.91025167" lon="-0.40660333">
        <ele>549.0</ele>
        <time>2017-05-27T08:42:27.185Z</time>
      </trkpt>
      <trkpt lat="39.91026833" lon="-0.406565">
        <ele>549.0</ele>
        <time>2017-05-27T08:42:28.169Z</time>
      </trkpt>
      <trkpt lat="39.91026833" lon="-0.406565">
        <ele>549.0</ele>
        <time>2017-05-27T08:42:29.182Z</time>
      </trkpt>
      <trkpt lat="39.910295" lon="-0.40648667">
        <ele>550.0</ele>
        <time>2017-05-27T08:42:30.165Z</time>
      </trkpt>
      <trkpt lat="39.910295" lon="-0.40648667">
        <ele>550.0</ele>
        <time>2017-05-27T08:42:31.173Z</time>
      </trkpt>
      <trkpt lat="39.910315" lon="-0.40639667">
        <ele>550.0</ele>
        <time>2017-05-27T08:42:32.175Z</time>
      </trkpt>
      <trkpt lat="39.910315" lon="-0.40639667">
        <ele>550.0</ele>
        <time>2017-05-27T08:42:33.193Z</time>
      </trkpt>
      <trkpt lat="39.91033667" lon="-0.40630833">
        <ele>550.0</ele>
        <time>2017-05-27T08:42:34.195Z</time>
      </trkpt>
      <trkpt lat="39.91033667" lon="-0.40630833">
        <ele>550.0</ele>
        <time>2017-05-27T08:42:35.160Z</time>
      </trkpt>
      <trkpt lat="39.91035667" lon="-0.40622167">
        <ele>551.0</ele>
        <time>2017-05-27T08:42:36.183Z</time>
      </trkpt>
      <trkpt lat="39.91035667" lon="-0.40622167">
        <ele>551.0</ele>
        <time>2017-05-27T08:42:37.194Z</time>
      </trkpt>
      <trkpt lat="39.91037333" lon="-0.406135">
        <ele>551.0</ele>
        <time>2017-05-27T08:42:38.166Z</time>
      </trkpt>
      <trkpt lat="39.91037333" lon="-0.406135">
        <ele>551.0</ele>
        <time>2017-05-27T08:42:39.188Z</time>
      </trkpt>
      <trkpt lat="39.91038833" lon="-0.40605167">
        <ele>552.0</ele>
        <time>2017-05-27T08:42:40.185Z</time>
      </trkpt>
      <trkpt lat="39.910395" lon="-0.40601167">
        <ele>552.0</ele>
        <time>2017-05-27T08:42:41.195Z</time>
      </trkpt>
      <trkpt lat="39.910395" lon="-0.40601167">
        <ele>552.0</ele>
        <time>2017-05-27T08:42:42.174Z</time>
      </trkpt>
      <trkpt lat="39.91040167" lon="-0.40592833">
        <ele>552.0</ele>
        <time>2017-05-27T08:42:43.195Z</time>
      </trkpt>
      <trkpt lat="39.91040167" lon="-0.40592833">
        <ele>552.0</ele>
        <time>2017-05-27T08:42:44.160Z</time>
      </trkpt>
      <trkpt lat="39.910415" lon="-0.40584667">
        <ele>552.0</ele>
        <time>2017-05-27T08:42:45.169Z</time>
      </trkpt>
      <trkpt lat="39.910415" lon="-0.40584667">
        <ele>552.0</ele>
        <time>2017-05-27T08:42:46.187Z</time>
      </trkpt>
      <trkpt lat="39.91042833" lon="-0.405765">
        <ele>553.0</ele>
        <time>2017-05-27T08:42:47.175Z</time>
      </trkpt>
      <trkpt lat="39.91042833" lon="-0.405765">
        <ele>553.0</ele>
        <time>2017-05-27T08:42:48.192Z</time>
      </trkpt>
      <trkpt lat="39.91043667" lon="-0.40568167">
        <ele>553.0</ele>
        <time>2017-05-27T08:42:49.188Z</time>
      </trkpt>
      <trkpt lat="39.91043667" lon="-0.40568167">
        <ele>553.0</ele>
        <time>2017-05-27T08:42:50.195Z</time>
      </trkpt>
      <trkpt lat="39.910445" lon="-0.40559333">
        <ele>553.0</ele>
        <time>2017-05-27T08:42:51.186Z</time>
      </trkpt>
      <trkpt lat="39.91044833" lon="-0.40554833">
        <ele>553.0</ele>
        <time>2017-05-27T08:42:52.189Z</time>
      </trkpt>
      <trkpt lat="39.91044833" lon="-0.40554833">
        <ele>553.0</ele>
        <time>2017-05-27T08:42:53.195Z</time>
      </trkpt>
      <trkpt lat="39.91045167" lon="-0.40545667">
        <ele>554.0</ele>
        <time>2017-05-27T08:42:54.195Z</time>
      </trkpt>
      <trkpt lat="39.91045167" lon="-0.40545667">
        <ele>554.0</ele>
        <time>2017-05-27T08:42:55.163Z</time>
      </trkpt>
      <trkpt lat="39.91046" lon="-0.40535833">
        <ele>554.0</ele>
        <time>2017-05-27T08:42:56.175Z</time>
      </trkpt>
      <trkpt lat="39.91046" lon="-0.40535833">
        <ele>554.0</ele>
        <time>2017-05-27T08:42:57.180Z</time>
      </trkpt>
      <trkpt lat="39.91045167" lon="-0.40526667">
        <ele>555.0</ele>
        <time>2017-05-27T08:42:58.175Z</time>
      </trkpt>
      <trkpt lat="39.91045167" lon="-0.40526667">
        <ele>555.0</ele>
        <time>2017-05-27T08:42:59.185Z</time>
      </trkpt>
      <trkpt lat="39.91044667" lon="-0.40517667">
        <ele>555.0</ele>
        <time>2017-05-27T08:43:00.185Z</time>
      </trkpt>
      <trkpt lat="39.91044667" lon="-0.40517667">
        <ele>555.0</ele>
        <time>2017-05-27T08:43:01.159Z</time>
      </trkpt>
      <trkpt lat="39.910445" lon="-0.40508833">
        <ele>555.0</ele>
        <time>2017-05-27T08:43:02.165Z</time>
      </trkpt>
      <trkpt lat="39.910445" lon="-0.40508833">
        <ele>555.0</ele>
        <time>2017-05-27T08:43:03.195Z</time>
      </trkpt>
      <trkpt lat="39.91044167" lon="-0.40499667">
        <ele>556.0</ele>
        <time>2017-05-27T08:43:04.165Z</time>
      </trkpt>
      <trkpt lat="39.91043833" lon="-0.40495167">
        <ele>556.0</ele>
        <time>2017-05-27T08:43:05.175Z</time>
      </trkpt>
      <trkpt lat="39.91043833" lon="-0.40495167">
        <ele>556.0</ele>
        <time>2017-05-27T08:43:06.180Z</time>
      </trkpt>
      <trkpt lat="39.91043" lon="-0.40486333">
        <ele>556.0</ele>
        <time>2017-05-27T08:43:07.175Z</time>
      </trkpt>
      <trkpt lat="39.91043" lon="-0.40486333">
        <ele>556.0</ele>
        <time>2017-05-27T08:43:08.156Z</time>
      </trkpt>
      <trkpt lat="39.91042167" lon="-0.40477333">
        <ele>557.0</ele>
        <time>2017-05-27T08:43:09.164Z</time>
      </trkpt>
      <trkpt lat="39.91042167" lon="-0.40477333">
        <ele>557.0</ele>
        <time>2017-05-27T08:43:10.184Z</time>
      </trkpt>
      <trkpt lat="39.91040667" lon="-0.404685">
        <ele>557.0</ele>
        <time>2017-05-27T08:43:11.165Z</time>
      </trkpt>
      <trkpt lat="39.91040667" lon="-0.404685">
        <ele>557.0</ele>
        <time>2017-05-27T08:43:12.175Z</time>
      </trkpt>
      <trkpt lat="39.91039" lon="-0.40459667">
        <ele>557.0</ele>
        <time>2017-05-27T08:43:13.185Z</time>
      </trkpt>
      <trkpt lat="39.91038167" lon="-0.404555">
        <ele>558.0</ele>
        <time>2017-05-27T08:43:14.195Z</time>
      </trkpt>
      <trkpt lat="39.91037333" lon="-0.40451">
        <ele>558.0</ele>
        <time>2017-05-27T08:43:15.165Z</time>
      </trkpt>
      <trkpt lat="39.91037333" lon="-0.40451">
        <ele>558.0</ele>
        <time>2017-05-27T08:43:16.184Z</time>
      </trkpt>
      <trkpt lat="39.91035167" lon="-0.40442333">
        <ele>558.0</ele>
        <time>2017-05-27T08:43:17.175Z</time>
      </trkpt>
      <trkpt lat="39.91035167" lon="-0.40442333">
        <ele>558.0</ele>
        <time>2017-05-27T08:43:18.185Z</time>
      </trkpt>
      <trkpt lat="39.910325" lon="-0.40434">
        <ele>558.0</ele>
        <time>2017-05-27T08:43:19.193Z</time>
      </trkpt>
      <trkpt lat="39.91031167" lon="-0.40429833">
        <ele>559.0</ele>
        <time>2017-05-27T08:43:20.168Z</time>
      </trkpt>
      <trkpt lat="39.91031167" lon="-0.40429833">
        <ele>559.0</ele>
        <time>2017-05-27T08:43:21.182Z</time>
      </trkpt>
      <trkpt lat="39.91028667" lon="-0.40421333">
        <ele>559.0</ele>
        <time>2017-05-27T08:43:22.195Z</time>
      </trkpt>
      <trkpt lat="39.91028667" lon="-0.40421333">
        <ele>559.0</ele>
        <time>2017-05-27T08:43:23.159Z</time>
      </trkpt>
      <trkpt lat="39.91025833" lon="-0.40413167">
        <ele>559.0</ele>
        <time>2017-05-27T08:43:24.175Z</time>
      </trkpt>
      <trkpt lat="39.91024667" lon="-0.40409">
        <ele>560.0</ele>
        <time>2017-05-27T08:43:25.192Z</time>
      </trkpt>
      <trkpt lat="39.91024667" lon="-0.40409">
        <ele>560.0</ele>
        <time>2017-05-27T08:43:26.156Z</time>
      </trkpt>
      <trkpt lat="39.91022333" lon="-0.40401">
        <ele>560.0</ele>
        <time>2017-05-27T08:43:27.194Z</time>
      </trkpt>
      <trkpt lat="39.91022333" lon="-0.40401">
        <ele>560.0</ele>
        <time>2017-05-27T08:43:28.159Z</time>
      </trkpt>
      <trkpt lat="39.9102" lon="-0.40392833">
        <ele>560.0</ele>
        <time>2017-05-27T08:43:29.161Z</time>
      </trkpt>
      <trkpt lat="39.9102" lon="-0.40392833">
        <ele>560.0</ele>
        <time>2017-05-27T08:43:30.172Z</time>
      </trkpt>
      <trkpt lat="39.91017167" lon="-0.40384833">
        <ele>560.0</ele>
        <time>2017-05-27T08:43:31.185Z</time>
      </trkpt>
      <trkpt lat="39.91015833" lon="-0.40380667">
        <ele>561.0</ele>
        <time>2017-05-27T08:43:32.180Z</time>
      </trkpt>
      <trkpt lat="39.91015833" lon="-0.40380667">
        <ele>561.0</ele>
        <time>2017-05-27T08:43:33.185Z</time>
      </trkpt>
      <trkpt lat="39.910135" lon="-0.40372">
        <ele>561.0</ele>
        <time>2017-05-27T08:43:34.158Z</time>
      </trkpt>
      <trkpt lat="39.91012333" lon="-0.40367667">
        <ele>561.0</ele>
        <time>2017-05-27T08:43:35.175Z</time>
      </trkpt>
      <trkpt lat="39.91012333" lon="-0.40367667">
        <ele>561.0</ele>
        <time>2017-05-27T08:43:36.189Z</time>
      </trkpt>
      <trkpt lat="39.91010333" lon="-0.40359">
        <ele>561.0</ele>
        <time>2017-05-27T08:43:37.195Z</time>
      </trkpt>
      <trkpt lat="39.910095" lon="-0.40354667">
        <ele>561.0</ele>
        <time>2017-05-27T08:43:38.195Z</time>
      </trkpt>
      <trkpt lat="39.910095" lon="-0.40354667">
        <ele>561.0</ele>
        <time>2017-05-27T08:43:39.160Z</time>
      </trkpt>
      <trkpt lat="39.91008833" lon="-0.40346">
        <ele>562.0</ele>
        <time>2017-05-27T08:43:40.165Z</time>
      </trkpt>
      <trkpt lat="39.91008833" lon="-0.403415">
        <ele>562.0</ele>
        <time>2017-05-27T08:43:41.169Z</time>
      </trkpt>
      <trkpt lat="39.91008833" lon="-0.403415">
        <ele>562.0</ele>
        <time>2017-05-27T08:43:42.183Z</time>
      </trkpt>
      <trkpt lat="39.910095" lon="-0.40332833">
        <ele>563.0</ele>
        <time>2017-05-27T08:43:43.185Z</time>
      </trkpt>
      <trkpt lat="39.910095" lon="-0.40332833">
        <ele>563.0</ele>
        <time>2017-05-27T08:43:44.194Z</time>
      </trkpt>
      <trkpt lat="39.91010833" lon="-0.40324333">
        <ele>563.0</ele>
        <time>2017-05-27T08:43:45.192Z</time>
      </trkpt>
      <trkpt lat="39.91010833" lon="-0.40324333">
        <ele>563.0</ele>
        <time>2017-05-27T08:43:46.157Z</time>
      </trkpt>
      <trkpt lat="39.91013333" lon="-0.403165">
        <ele>563.0</ele>
        <time>2017-05-27T08:43:47.174Z</time>
      </trkpt>
      <trkpt lat="39.91013333" lon="-0.403165">
        <ele>563.0</ele>
        <time>2017-05-27T08:43:48.180Z</time>
      </trkpt>
      <trkpt lat="39.91016333" lon="-0.40308667">
        <ele>563.0</ele>
        <time>2017-05-27T08:43:49.185Z</time>
      </trkpt>
      <trkpt lat="39.91018" lon="-0.40304833">
        <ele>564.0</ele>
        <time>2017-05-27T08:43:50.165Z</time>
      </trkpt>
      <trkpt lat="39.91018" lon="-0.40304833">
        <ele>564.0</ele>
        <time>2017-05-27T08:43:51.179Z</time>
      </trkpt>
      <trkpt lat="39.91021167" lon="-0.40297167">
        <ele>564.0</ele>
        <time>2017-05-27T08:43:52.195Z</time>
      </trkpt>
      <trkpt lat="39.91021167" lon="-0.40297167">
        <ele>564.0</ele>
        <time>2017-05-27T08:43:53.160Z</time>
      </trkpt>
      <trkpt lat="39.91024333" lon="-0.40289167">
        <ele>565.0</ele>
        <time>2017-05-27T08:43:54.175Z</time>
      </trkpt>
      <trkpt lat="39.91024333" lon="-0.40289167">
        <ele>565.0</ele>
        <time>2017-05-27T08:43:55.183Z</time>
      </trkpt>
      <trkpt lat="39.91027" lon="-0.402815">
        <ele>565.0</ele>
        <time>2017-05-27T08:43:56.185Z</time>
      </trkpt>
      <trkpt lat="39.91027" lon="-0.402815">
        <ele>565.0</ele>
        <time>2017-05-27T08:43:57.193Z</time>
      </trkpt>
      <trkpt lat="39.91029667" lon="-0.40273833">
        <ele>565.0</ele>
        <time>2017-05-27T08:43:58.165Z</time>
      </trkpt>
      <trkpt lat="39.91029667" lon="-0.40273833">
        <ele>565.0</ele>
        <time>2017-05-27T08:43:59.185Z</time>
      </trkpt>
      <trkpt lat="39.91032" lon="-0.40265833">
        <ele>566.0</ele>
        <time>2017-05-27T08:44:00.195Z</time>
      </trkpt>
      <trkpt lat="39.91032" lon="-0.40265833">
        <ele>566.0</ele>
        <time>2017-05-27T08:44:01.174Z</time>
      </trkpt>
      <trkpt lat="39.91034333" lon="-0.40258167">
        <ele>566.0</ele>
        <time>2017-05-27T08:44:02.165Z</time>
      </trkpt>
      <trkpt lat="39.91035167" lon="-0.40254167">
        <ele>566.0</ele>
        <time>2017-05-27T08:44:03.192Z</time>
      </trkpt>
      <trkpt lat="39.91035167" lon="-0.40254167">
        <ele>566.0</ele>
        <time>2017-05-27T08:44:04.157Z</time>
      </trkpt>
      <trkpt lat="39.91036667" lon="-0.40246667">
        <ele>566.0</ele>
        <time>2017-05-27T08:44:05.175Z</time>
      </trkpt>
      <trkpt lat="39.91036667" lon="-0.40246667">
        <ele>566.0</ele>
        <time>2017-05-27T08:44:06.195Z</time>
      </trkpt>
      <trkpt lat="39.91038" lon="-0.40239333">
        <ele>567.0</ele>
        <time>2017-05-27T08:44:07.177Z</time>
      </trkpt>
      <trkpt lat="39.91038" lon="-0.40239333">
        <ele>567.0</ele>
        <time>2017-05-27T08:44:08.182Z</time>
      </trkpt>
      <trkpt lat="39.910385" lon="-0.40232">
        <ele>567.0</ele>
        <time>2017-05-27T08:44:09.193Z</time>
      </trkpt>
      <trkpt lat="39.910385" lon="-0.40228167">
        <ele>568.0</ele>
        <time>2017-05-27T08:44:10.185Z</time>
      </trkpt>
      <trkpt lat="39.910385" lon="-0.40228167">
        <ele>568.0</ele>
        <time>2017-05-27T08:44:11.192Z</time>
      </trkpt>
      <trkpt lat="39.91038667" lon="-0.40220833">
        <ele>568.0</ele>
        <time>2017-05-27T08:44:12.165Z</time>
      </trkpt>
      <trkpt lat="39.91038667" lon="-0.40220833">
        <ele>568.0</ele>
        <time>2017-05-27T08:44:13.192Z</time>
      </trkpt>
      <trkpt lat="39.91038833" lon="-0.40213167">
        <ele>569.0</ele>
        <time>2017-05-27T08:44:14.166Z</time>
      </trkpt>
      <trkpt lat="39.91038833" lon="-0.402095">
        <ele>569.0</ele>
        <time>2017-05-27T08:44:15.164Z</time>
      </trkpt>
      <trkpt lat="39.91038833" lon="-0.402095">
        <ele>569.0</ele>
        <time>2017-05-27T08:44:16.185Z</time>
      </trkpt>
      <trkpt lat="39.91038833" lon="-0.40201833">
        <ele>569.0</ele>
        <time>2017-05-27T08:44:17.185Z</time>
      </trkpt>
      <trkpt lat="39.910395" lon="-0.40198333">
        <ele>569.0</ele>
        <time>2017-05-27T08:44:18.163Z</time>
      </trkpt>
      <trkpt lat="39.910395" lon="-0.40198333">
        <ele>569.0</ele>
        <time>2017-05-27T08:44:19.169Z</time>
      </trkpt>
      <trkpt lat="39.91040667" lon="-0.40190667">
        <ele>570.0</ele>
        <time>2017-05-27T08:44:20.185Z</time>
      </trkpt>
      <trkpt lat="39.91041333" lon="-0.40186833">
        <ele>570.0</ele>
        <time>2017-05-27T08:44:21.184Z</time>
      </trkpt>
      <trkpt lat="39.91041333" lon="-0.40186833">
        <ele>570.0</ele>
        <time>2017-05-27T08:44:22.195Z</time>
      </trkpt>
      <trkpt lat="39.91042833" lon="-0.40179667">
        <ele>570.0</ele>
        <time>2017-05-27T08:44:23.196Z</time>
      </trkpt>
      <trkpt lat="39.91042833" lon="-0.40179667">
        <ele>570.0</ele>
        <time>2017-05-27T08:44:24.160Z</time>
      </trkpt>
      <trkpt lat="39.91045" lon="-0.401725">
        <ele>571.0</ele>
        <time>2017-05-27T08:44:25.159Z</time>
      </trkpt>
      <trkpt lat="39.91045" lon="-0.401725">
        <ele>571.0</ele>
        <time>2017-05-27T08:44:26.179Z</time>
      </trkpt>
      <trkpt lat="39.91048" lon="-0.40165667">
        <ele>571.0</ele>
        <time>2017-05-27T08:44:27.194Z</time>
      </trkpt>
      <trkpt lat="39.91048" lon="-0.40165667">
        <ele>571.0</ele>
        <time>2017-05-27T08:44:28.159Z</time>
      </trkpt>
      <trkpt lat="39.91051667" lon="-0.401595">
        <ele>571.0</ele>
        <time>2017-05-27T08:44:29.185Z</time>
      </trkpt>
      <trkpt lat="39.91051667" lon="-0.401595">
        <ele>571.0</ele>
        <time>2017-05-27T08:44:30.193Z</time>
      </trkpt>
      <trkpt lat="39.910555" lon="-0.40153833">
        <ele>571.0</ele>
        <time>2017-05-27T08:44:31.185Z</time>
      </trkpt>
      <trkpt lat="39.91057167" lon="-0.40151">
        <ele>571.0</ele>
        <time>2017-05-27T08:44:32.165Z</time>
      </trkpt>
      <trkpt lat="39.91059167" lon="-0.40148167">
        <ele>571.0</ele>
        <time>2017-05-27T08:44:33.194Z</time>
      </trkpt>
      <trkpt lat="39.91059167" lon="-0.40148167">
        <ele>571.0</ele>
        <time>2017-05-27T08:44:34.159Z</time>
      </trkpt>
      <trkpt lat="39.91063167" lon="-0.40142167">
        <ele>572.0</ele>
        <time>2017-05-27T08:44:35.195Z</time>
      </trkpt>
      <trkpt lat="39.91063167" lon="-0.40142167">
        <ele>572.0</ele>
        <time>2017-05-27T08:44:36.169Z</time>
      </trkpt>
      <trkpt lat="39.91067167" lon="-0.40136">
        <ele>572.0</ele>
        <time>2017-05-27T08:44:37.171Z</time>
      </trkpt>
      <trkpt lat="39.91069167" lon="-0.40133">
        <ele>572.0</ele>
        <time>2017-05-27T08:44:38.158Z</time>
      </trkpt>
      <trkpt lat="39.91069167" lon="-0.40133">
        <ele>572.0</ele>
        <time>2017-05-27T08:44:39.177Z</time>
      </trkpt>
      <trkpt lat="39.91073333" lon="-0.40127167">
        <ele>572.0</ele>
        <time>2017-05-27T08:44:40.185Z</time>
      </trkpt>
      <trkpt lat="39.910755" lon="-0.401245">
        <ele>572.0</ele>
        <time>2017-05-27T08:44:41.165Z</time>
      </trkpt>
      <trkpt lat="39.910755" lon="-0.401245">
        <ele>572.0</ele>
        <time>2017-05-27T08:44:42.196Z</time>
      </trkpt>
      <trkpt lat="39.91079833" lon="-0.40118833">
        <ele>573.0</ele>
        <time>2017-05-27T08:44:43.181Z</time>
      </trkpt>
      <trkpt lat="39.91081833" lon="-0.40115833">
        <ele>573.0</ele>
        <time>2017-05-27T08:44:44.195Z</time>
      </trkpt>
      <trkpt lat="39.91081833" lon="-0.40115833">
        <ele>573.0</ele>
        <time>2017-05-27T08:44:45.160Z</time>
      </trkpt>
      <trkpt lat="39.91086" lon="-0.40110167">
        <ele>573.0</ele>
        <time>2017-05-27T08:44:46.183Z</time>
      </trkpt>
      <trkpt lat="39.91088" lon="-0.401075">
        <ele>573.0</ele>
        <time>2017-05-27T08:44:47.189Z</time>
      </trkpt>
      <trkpt lat="39.91090167" lon="-0.40104667">
        <ele>573.0</ele>
        <time>2017-05-27T08:44:48.156Z</time>
      </trkpt>
      <trkpt lat="39.91090167" lon="-0.40104667">
        <ele>573.0</ele>
        <time>2017-05-27T08:44:49.165Z</time>
      </trkpt>
      <trkpt lat="39.91094167" lon="-0.40099333">
        <ele>573.0</ele>
        <time>2017-05-27T08:44:50.175Z</time>
      </trkpt>
      <trkpt lat="39.91096167" lon="-0.400965">
        <ele>574.0</ele>
        <time>2017-05-27T08:44:51.193Z</time>
      </trkpt>
      <trkpt lat="39.91098333" lon="-0.40093833">
        <ele>574.0</ele>
        <time>2017-05-27T08:44:52.187Z</time>
      </trkpt>
      <trkpt lat="39.91098333" lon="-0.40093833">
        <ele>574.0</ele>
        <time>2017-05-27T08:44:53.194Z</time>
      </trkpt>
      <trkpt lat="39.91102833" lon="-0.400885">
        <ele>574.0</ele>
        <time>2017-05-27T08:44:54.195Z</time>
      </trkpt>
      <trkpt lat="39.91102833" lon="-0.400885">
        <ele>574.0</ele>
        <time>2017-05-27T08:44:55.160Z</time>
      </trkpt>
      <trkpt lat="39.91107333" lon="-0.40083333">
        <ele>575.0</ele>
        <time>2017-05-27T08:44:56.169Z</time>
      </trkpt>
      <trkpt lat="39.911095" lon="-0.40080667">
        <ele>575.0</ele>
        <time>2017-05-27T08:44:57.185Z</time>
      </trkpt>
      <trkpt lat="39.911095" lon="-0.40080667">
        <ele>575.0</ele>
        <time>2017-05-27T08:44:58.193Z</time>
      </trkpt>
      <trkpt lat="39.91113833" lon="-0.40075333">
        <ele>575.0</ele>
        <time>2017-05-27T08:44:59.165Z</time>
      </trkpt>
      <trkpt lat="39.91113833" lon="-0.40075333">
        <ele>575.0</ele>
        <time>2017-05-27T08:45:00.170Z</time>
      </trkpt>
      <trkpt lat="39.91118" lon="-0.40070167">
        <ele>576.0</ele>
        <time>2017-05-27T08:45:01.168Z</time>
      </trkpt>
      <trkpt lat="39.9112" lon="-0.400675">
        <ele>576.0</ele>
        <time>2017-05-27T08:45:02.175Z</time>
      </trkpt>
      <trkpt lat="39.9112" lon="-0.400675">
        <ele>576.0</ele>
        <time>2017-05-27T08:45:03.192Z</time>
      </trkpt>
      <trkpt lat="39.91124333" lon="-0.400625">
        <ele>576.0</ele>
        <time>2017-05-27T08:45:04.195Z</time>
      </trkpt>
      <trkpt lat="39.91124333" lon="-0.400625">
        <ele>576.0</ele>
        <time>2017-05-27T08:45:05.186Z</time>
      </trkpt>
      <trkpt lat="39.91129" lon="-0.40058">
        <ele>576.0</ele>
        <time>2017-05-27T08:45:06.185Z</time>
      </trkpt>
      <trkpt lat="39.91129" lon="-0.40058">
        <ele>576.0</ele>
        <time>2017-05-27T08:45:07.190Z</time>
      </trkpt>
      <trkpt lat="39.91133667" lon="-0.40053667">
        <ele>576.0</ele>
        <time>2017-05-27T08:45:08.160Z</time>
      </trkpt>
      <trkpt lat="39.91133667" lon="-0.40053667">
        <ele>576.0</ele>
        <time>2017-05-27T08:45:09.177Z</time>
      </trkpt>
      <trkpt lat="39.91138" lon="-0.400485">
        <ele>577.0</ele>
        <time>2017-05-27T08:45:10.175Z</time>
      </trkpt>
      <trkpt lat="39.91140167" lon="-0.40045667">
        <ele>577.0</ele>
        <time>2017-05-27T08:45:11.166Z</time>
      </trkpt>
      <trkpt lat="39.911425" lon="-0.400435">
        <ele>577.0</ele>
        <time>2017-05-27T08:45:12.188Z</time>
      </trkpt>
      <trkpt lat="39.911425" lon="-0.400435">
        <ele>577.0</ele>
        <time>2017-05-27T08:45:13.164Z</time>
      </trkpt>
      <trkpt lat="39.911475" lon="-0.400395">
        <ele>578.0</ele>
        <time>2017-05-27T08:45:14.180Z</time>
      </trkpt>
      <trkpt lat="39.911475" lon="-0.400395">
        <ele>578.0</ele>
        <time>2017-05-27T08:45:15.186Z</time>
      </trkpt>
      <trkpt lat="39.91152333" lon="-0.40034667">
        <ele>578.0</ele>
        <time>2017-05-27T08:45:16.190Z</time>
      </trkpt>
      <trkpt lat="39.91152333" lon="-0.40034667">
        <ele>578.0</ele>
        <time>2017-05-27T08:45:17.156Z</time>
      </trkpt>
      <trkpt lat="39.91156833" lon="-0.4003">
        <ele>578.0</ele>
        <time>2017-05-27T08:45:18.195Z</time>
      </trkpt>
      <trkpt lat="39.91156833" lon="-0.4003">
        <ele>578.0</ele>
        <time>2017-05-27T08:45:19.162Z</time>
      </trkpt>
      <trkpt lat="39.911615" lon="-0.40025333">
        <ele>579.0</ele>
        <time>2017-05-27T08:45:20.169Z</time>
      </trkpt>
      <trkpt lat="39.91163833" lon="-0.40023333">
        <ele>579.0</ele>
        <time>2017-05-27T08:45:21.177Z</time>
      </trkpt>
      <trkpt lat="39.91163833" lon="-0.40023333">
        <ele>579.0</ele>
        <time>2017-05-27T08:45:22.156Z</time>
      </trkpt>
      <trkpt lat="39.91168333" lon="-0.40018667">
        <ele>579.0</ele>
        <time>2017-05-27T08:45:23.165Z</time>
      </trkpt>
      <trkpt lat="39.91168333" lon="-0.40018667">
        <ele>579.0</ele>
        <time>2017-05-27T08:45:24.179Z</time>
      </trkpt>
      <trkpt lat="39.91172333" lon="-0.400135">
        <ele>580.0</ele>
        <time>2017-05-27T08:45:25.180Z</time>
      </trkpt>
      <trkpt lat="39.91174167" lon="-0.40010667">
        <ele>580.0</ele>
        <time>2017-05-27T08:45:26.192Z</time>
      </trkpt>
      <trkpt lat="39.91174167" lon="-0.40010667">
        <ele>580.0</ele>
        <time>2017-05-27T08:45:27.182Z</time>
      </trkpt>
      <trkpt lat="39.91177333" lon="-0.400055">
        <ele>581.0</ele>
        <time>2017-05-27T08:45:28.165Z</time>
      </trkpt>
      <trkpt lat="39.91179333" lon="-0.40002833">
        <ele>581.0</ele>
        <time>2017-05-27T08:45:29.182Z</time>
      </trkpt>
      <trkpt lat="39.91179333" lon="-0.40002833">
        <ele>581.0</ele>
        <time>2017-05-27T08:45:30.161Z</time>
      </trkpt>
      <trkpt lat="39.91182667" lon="-0.39996833">
        <ele>581.0</ele>
        <time>2017-05-27T08:45:31.164Z</time>
      </trkpt>
      <trkpt lat="39.911845" lon="-0.39994333">
        <ele>581.0</ele>
        <time>2017-05-27T08:45:32.172Z</time>
      </trkpt>
      <trkpt lat="39.911845" lon="-0.39994333">
        <ele>581.0</ele>
        <time>2017-05-27T08:45:33.156Z</time>
      </trkpt>
      <trkpt lat="39.91187667" lon="-0.39988333">
        <ele>582.0</ele>
        <time>2017-05-27T08:45:34.164Z</time>
      </trkpt>
      <trkpt lat="39.91189" lon="-0.39985167">
        <ele>582.0</ele>
        <time>2017-05-27T08:45:35.193Z</time>
      </trkpt>
      <trkpt lat="39.91189" lon="-0.39985167">
        <ele>582.0</ele>
        <time>2017-05-27T08:45:36.158Z</time>
      </trkpt>
      <trkpt lat="39.91190833" lon="-0.39978667">
        <ele>582.0</ele>
        <time>2017-05-27T08:45:37.177Z</time>
      </trkpt>
      <trkpt lat="39.91190833" lon="-0.39978667">
        <ele>582.0</ele>
        <time>2017-05-27T08:45:38.192Z</time>
      </trkpt>
      <trkpt lat="39.91192833" lon="-0.39972167">
        <ele>583.0</ele>
        <time>2017-05-27T08:45:39.174Z</time>
      </trkpt>
      <trkpt lat="39.91192833" lon="-0.39972167">
        <ele>583.0</ele>
        <time>2017-05-27T08:45:40.195Z</time>
      </trkpt>
      <trkpt lat="39.91195167" lon="-0.39965833">
        <ele>583.0</ele>
        <time>2017-05-27T08:45:41.170Z</time>
      </trkpt>
      <trkpt lat="39.91195167" lon="-0.39965833">
        <ele>583.0</ele>
        <time>2017-05-27T08:45:42.175Z</time>
      </trkpt>
      <trkpt lat="39.91197" lon="-0.39959">
        <ele>583.0</ele>
        <time>2017-05-27T08:45:43.185Z</time>
      </trkpt>
      <trkpt lat="39.91197" lon="-0.39959">
        <ele>583.0</ele>
        <time>2017-05-27T08:45:44.192Z</time>
      </trkpt>
      <trkpt lat="39.91199" lon="-0.39952667">
        <ele>584.0</ele>
        <time>2017-05-27T08:45:45.165Z</time>
      </trkpt>
      <trkpt lat="39.91199" lon="-0.39952667">
        <ele>584.0</ele>
        <time>2017-05-27T08:45:46.185Z</time>
      </trkpt>
      <trkpt lat="39.912015" lon="-0.39946333">
        <ele>584.0</ele>
        <time>2017-05-27T08:45:47.162Z</time>
      </trkpt>
      <trkpt lat="39.912015" lon="-0.39946333">
        <ele>584.0</ele>
        <time>2017-05-27T08:45:48.167Z</time>
      </trkpt>
      <trkpt lat="39.91203333" lon="-0.39940167">
        <ele>585.0</ele>
        <time>2017-05-27T08:45:49.175Z</time>
      </trkpt>
      <trkpt lat="39.91203333" lon="-0.39940167">
        <ele>585.0</ele>
        <time>2017-05-27T08:45:50.157Z</time>
      </trkpt>
      <trkpt lat="39.91206" lon="-0.39935">
        <ele>585.0</ele>
        <time>2017-05-27T08:45:51.165Z</time>
      </trkpt>
      <trkpt lat="39.91206" lon="-0.39935">
        <ele>585.0</ele>
        <time>2017-05-27T08:45:52.170Z</time>
      </trkpt>
      <trkpt lat="39.9121" lon="-0.39930667">
        <ele>586.0</ele>
        <time>2017-05-27T08:45:53.192Z</time>
      </trkpt>
      <trkpt lat="39.9121" lon="-0.39930667">
        <ele>586.0</ele>
        <time>2017-05-27T08:45:54.171Z</time>
      </trkpt>
      <trkpt lat="39.91214333" lon="-0.39926833">
        <ele>586.0</ele>
        <time>2017-05-27T08:45:55.195Z</time>
      </trkpt>
      <trkpt lat="39.91214333" lon="-0.39926833">
        <ele>586.0</ele>
        <time>2017-05-27T08:45:56.171Z</time>
      </trkpt>
      <trkpt lat="39.91218833" lon="-0.399235">
        <ele>587.0</ele>
        <time>2017-05-27T08:45:57.185Z</time>
      </trkpt>
      <trkpt lat="39.91220833" lon="-0.39922167">
        <ele>587.0</ele>
        <time>2017-05-27T08:45:58.186Z</time>
      </trkpt>
      <trkpt lat="39.91223333" lon="-0.39921333">
        <ele>588.0</ele>
        <time>2017-05-27T08:45:59.185Z</time>
      </trkpt>
      <trkpt lat="39.91223333" lon="-0.39921333">
        <ele>588.0</ele>
        <time>2017-05-27T08:46:00.190Z</time>
      </trkpt>
      <trkpt lat="39.912285" lon="-0.399195">
        <ele>588.0</ele>
        <time>2017-05-27T08:46:01.193Z</time>
      </trkpt>
      <trkpt lat="39.912285" lon="-0.399195">
        <ele>588.0</ele>
        <time>2017-05-27T08:46:02.158Z</time>
      </trkpt>
      <trkpt lat="39.91233333" lon="-0.39918333">
        <ele>589.0</ele>
        <time>2017-05-27T08:46:03.162Z</time>
      </trkpt>
      <trkpt lat="39.91233333" lon="-0.39918333">
        <ele>589.0</ele>
        <time>2017-05-27T08:46:04.169Z</time>
      </trkpt>
      <trkpt lat="39.91238" lon="-0.39917667">
        <ele>589.0</ele>
        <time>2017-05-27T08:46:05.183Z</time>
      </trkpt>
      <trkpt lat="39.91238" lon="-0.39917667">
        <ele>589.0</ele>
        <time>2017-05-27T08:46:06.160Z</time>
      </trkpt>
      <trkpt lat="39.91242667" lon="-0.39916667">
        <ele>589.0</ele>
        <time>2017-05-27T08:46:07.165Z</time>
      </trkpt>
      <trkpt lat="39.91244833" lon="-0.39916333">
        <ele>590.0</ele>
        <time>2017-05-27T08:46:08.157Z</time>
      </trkpt>
      <trkpt lat="39.91244833" lon="-0.39916333">
        <ele>590.0</ele>
        <time>2017-05-27T08:46:09.175Z</time>
      </trkpt>
      <trkpt lat="39.91249167" lon="-0.39915833">
        <ele>590.0</ele>
        <time>2017-05-27T08:46:10.187Z</time>
      </trkpt>
      <trkpt lat="39.912515" lon="-0.39915833">
        <ele>590.0</ele>
        <time>2017-05-27T08:46:11.164Z</time>
      </trkpt>
      <trkpt lat="39.912515" lon="-0.39915833">
        <ele>590.0</ele>
        <time>2017-05-27T08:46:12.187Z</time>
      </trkpt>
      <trkpt lat="39.912565" lon="-0.39915667">
        <ele>590.0</ele>
        <time>2017-05-27T08:46:13.178Z</time>
      </trkpt>
      <trkpt lat="39.91259167" lon="-0.39916167">
        <ele>590.0</ele>
        <time>2017-05-27T08:46:14.156Z</time>
      </trkpt>
      <trkpt lat="39.91261833" lon="-0.39916333">
        <ele>590.0</ele>
        <time>2017-05-27T08:46:15.165Z</time>
      </trkpt>
      <trkpt lat="39.91261833" lon="-0.39916333">
        <ele>590.0</ele>
        <time>2017-05-27T08:46:16.170Z</time>
      </trkpt>
      <trkpt lat="39.91266667" lon="-0.39915667">
        <ele>590.0</ele>
        <time>2017-05-27T08:46:17.195Z</time>
      </trkpt>
      <trkpt lat="39.91266667" lon="-0.39915667">
        <ele>590.0</ele>
        <time>2017-05-27T08:46:18.174Z</time>
      </trkpt>
      <trkpt lat="39.91271833" lon="-0.39914667">
        <ele>590.0</ele>
        <time>2017-05-27T08:46:19.195Z</time>
      </trkpt>
      <trkpt lat="39.912745" lon="-0.399135">
        <ele>590.0</ele>
        <time>2017-05-27T08:46:20.159Z</time>
      </trkpt>
      <trkpt lat="39.912745" lon="-0.399135">
        <ele>590.0</ele>
        <time>2017-05-27T08:46:21.166Z</time>
      </trkpt>
      <trkpt lat="39.91278833" lon="-0.39911">
        <ele>590.0</ele>
        <time>2017-05-27T08:46:22.162Z</time>
      </trkpt>
      <trkpt lat="39.91278833" lon="-0.39911">
        <ele>590.0</ele>
        <time>2017-05-27T08:46:23.191Z</time>
      </trkpt>
      <trkpt lat="39.91283" lon="-0.39908">
        <ele>590.0</ele>
        <time>2017-05-27T08:46:24.174Z</time>
      </trkpt>
      <trkpt lat="39.91283" lon="-0.39908">
        <ele>590.0</ele>
        <time>2017-05-27T08:46:25.179Z</time>
      </trkpt>
      <trkpt lat="39.91286667" lon="-0.399035">
        <ele>591.0</ele>
        <time>2017-05-27T08:46:26.194Z</time>
      </trkpt>
      <trkpt lat="39.91286667" lon="-0.399035">
        <ele>591.0</ele>
        <time>2017-05-27T08:46:27.177Z</time>
      </trkpt>
      <trkpt lat="39.912905" lon="-0.39900167">
        <ele>591.0</ele>
        <time>2017-05-27T08:46:28.187Z</time>
      </trkpt>
      <trkpt lat="39.912905" lon="-0.39900167">
        <ele>591.0</ele>
        <time>2017-05-27T08:46:29.164Z</time>
      </trkpt>
      <trkpt lat="39.91294" lon="-0.39895667">
        <ele>592.0</ele>
        <time>2017-05-27T08:46:30.175Z</time>
      </trkpt>
      <trkpt lat="39.91294" lon="-0.39895667">
        <ele>592.0</ele>
        <time>2017-05-27T08:46:31.195Z</time>
      </trkpt>
      <trkpt lat="39.91298333" lon="-0.39891833">
        <ele>594.0</ele>
        <time>2017-05-27T08:46:32.185Z</time>
      </trkpt>
      <trkpt lat="39.91298333" lon="-0.39891833">
        <ele>594.0</ele>
        <time>2017-05-27T08:46:33.195Z</time>
      </trkpt>
      <trkpt lat="39.913025" lon="-0.398885">
        <ele>595.0</ele>
        <time>2017-05-27T08:46:34.190Z</time>
      </trkpt>
      <trkpt lat="39.91304833" lon="-0.398875">
        <ele>596.0</ele>
        <time>2017-05-27T08:46:35.156Z</time>
      </trkpt>
      <trkpt lat="39.91304833" lon="-0.398875">
        <ele>596.0</ele>
        <time>2017-05-27T08:46:36.161Z</time>
      </trkpt>
      <trkpt lat="39.91309833" lon="-0.39886167">
        <ele>596.0</ele>
        <time>2017-05-27T08:46:37.185Z</time>
      </trkpt>
      <trkpt lat="39.91312333" lon="-0.39885833">
        <ele>596.0</ele>
        <time>2017-05-27T08:46:38.160Z</time>
      </trkpt>
      <trkpt lat="39.913155" lon="-0.39886333">
        <ele>596.0</ele>
        <time>2017-05-27T08:46:39.171Z</time>
      </trkpt>
      <trkpt lat="39.913155" lon="-0.39886333">
        <ele>596.0</ele>
        <time>2017-05-27T08:46:40.186Z</time>
      </trkpt>
      <trkpt lat="39.913205" lon="-0.39886">
        <ele>597.0</ele>
        <time>2017-05-27T08:46:41.195Z</time>
      </trkpt>
      <trkpt lat="39.913205" lon="-0.39886">
        <ele>597.0</ele>
        <time>2017-05-27T08:46:42.165Z</time>
      </trkpt>
      <trkpt lat="39.91324833" lon="-0.39886">
        <ele>597.0</ele>
        <time>2017-05-27T08:46:43.169Z</time>
      </trkpt>
      <trkpt lat="39.91327" lon="-0.398865">
        <ele>598.0</ele>
        <time>2017-05-27T08:46:44.165Z</time>
      </trkpt>
      <trkpt lat="39.91329333" lon="-0.39886833">
        <ele>598.0</ele>
        <time>2017-05-27T08:46:45.175Z</time>
      </trkpt>
      <trkpt lat="39.91329333" lon="-0.39886833">
        <ele>598.0</ele>
        <time>2017-05-27T08:46:46.180Z</time>
      </trkpt>
      <trkpt lat="39.913335" lon="-0.39888667">
        <ele>598.0</ele>
        <time>2017-05-27T08:46:47.176Z</time>
      </trkpt>
      <trkpt lat="39.913335" lon="-0.39888667">
        <ele>598.0</ele>
        <time>2017-05-27T08:46:48.164Z</time>
      </trkpt>
      <trkpt lat="39.91338" lon="-0.39889167">
        <ele>599.0</ele>
        <time>2017-05-27T08:46:49.195Z</time>
      </trkpt>
      <trkpt lat="39.913405" lon="-0.39889">
        <ele>599.0</ele>
        <time>2017-05-27T08:46:50.195Z</time>
      </trkpt>
      <trkpt lat="39.91342833" lon="-0.39888833">
        <ele>599.0</ele>
        <time>2017-05-27T08:46:51.192Z</time>
      </trkpt>
      <trkpt lat="39.91342833" lon="-0.39888833">
        <ele>599.0</ele>
        <time>2017-05-27T08:46:52.157Z</time>
      </trkpt>
      <trkpt lat="39.91347667" lon="-0.39890667">
        <ele>599.0</ele>
        <time>2017-05-27T08:46:53.194Z</time>
      </trkpt>
      <trkpt lat="39.91347667" lon="-0.39890667">
        <ele>599.0</ele>
        <time>2017-05-27T08:46:54.159Z</time>
      </trkpt>
      <trkpt lat="39.91352167" lon="-0.398915">
        <ele>600.0</ele>
        <time>2017-05-27T08:46:55.177Z</time>
      </trkpt>
      <trkpt lat="39.91352167" lon="-0.398915">
        <ele>600.0</ele>
        <time>2017-05-27T08:46:56.185Z</time>
      </trkpt>
      <trkpt lat="39.91356667" lon="-0.39893">
        <ele>601.0</ele>
        <time>2017-05-27T08:46:57.165Z</time>
      </trkpt>
      <trkpt lat="39.91359167" lon="-0.39893833">
        <ele>601.0</ele>
        <time>2017-05-27T08:46:58.176Z</time>
      </trkpt>
      <trkpt lat="39.91359167" lon="-0.39893833">
        <ele>601.0</ele>
        <time>2017-05-27T08:46:59.181Z</time>
      </trkpt>
      <trkpt lat="39.913635" lon="-0.39895">
        <ele>602.0</ele>
        <time>2017-05-27T08:47:00.165Z</time>
      </trkpt>
      <trkpt lat="39.913635" lon="-0.39895">
        <ele>602.0</ele>
        <time>2017-05-27T08:47:01.170Z</time>
      </trkpt>
      <trkpt lat="39.91368167" lon="-0.39896333">
        <ele>602.0</ele>
        <time>2017-05-27T08:47:02.166Z</time>
      </trkpt>
      <trkpt lat="39.91368167" lon="-0.39896333">
        <ele>602.0</ele>
        <time>2017-05-27T08:47:03.195Z</time>
      </trkpt>
      <trkpt lat="39.91372833" lon="-0.398985">
        <ele>602.0</ele>
        <time>2017-05-27T08:47:04.170Z</time>
      </trkpt>
      <trkpt lat="39.91375" lon="-0.39899">
        <ele>602.0</ele>
        <time>2017-05-27T08:47:05.185Z</time>
      </trkpt>
      <trkpt lat="39.91375" lon="-0.39899">
        <ele>602.0</ele>
        <time>2017-05-27T08:47:06.165Z</time>
      </trkpt>
      <trkpt lat="39.91379333" lon="-0.399">
        <ele>602.0</ele>
        <time>2017-05-27T08:47:07.175Z</time>
      </trkpt>
      <trkpt lat="39.91379333" lon="-0.399">
        <ele>602.0</ele>
        <time>2017-05-27T08:47:08.183Z</time>
      </trkpt>
      <trkpt lat="39.91383667" lon="-0.39900833">
        <ele>603.0</ele>
        <time>2017-05-27T08:47:09.195Z</time>
      </trkpt>
      <trkpt lat="39.91385667" lon="-0.39900833">
        <ele>604.0</ele>
        <time>2017-05-27T08:47:10.169Z</time>
      </trkpt>
      <trkpt lat="39.91385667" lon="-0.39900833">
        <ele>604.0</ele>
        <time>2017-05-27T08:47:11.174Z</time>
      </trkpt>
      <trkpt lat="39.91389833" lon="-0.399015">
        <ele>604.0</ele>
        <time>2017-05-27T08:47:12.193Z</time>
      </trkpt>
      <trkpt lat="39.91389833" lon="-0.399015">
        <ele>604.0</ele>
        <time>2017-05-27T08:47:13.170Z</time>
      </trkpt>
      <trkpt lat="39.91394333" lon="-0.39902333">
        <ele>605.0</ele>
        <time>2017-05-27T08:47:14.178Z</time>
      </trkpt>
      <trkpt lat="39.91396667" lon="-0.39902667">
        <ele>605.0</ele>
        <time>2017-05-27T08:47:15.185Z</time>
      </trkpt>
      <trkpt lat="39.91396667" lon="-0.39902667">
        <ele>605.0</ele>
        <time>2017-05-27T08:47:16.192Z</time>
      </trkpt>
      <trkpt lat="39.91401333" lon="-0.399035">
        <ele>605.0</ele>
        <time>2017-05-27T08:47:17.190Z</time>
      </trkpt>
      <trkpt lat="39.91401333" lon="-0.399035">
        <ele>605.0</ele>
        <time>2017-05-27T08:47:18.156Z</time>
      </trkpt>
      <trkpt lat="39.91405" lon="-0.39906">
        <ele>605.0</ele>
        <time>2017-05-27T08:47:19.187Z</time>
      </trkpt>
      <trkpt lat="39.91405" lon="-0.39906">
        <ele>605.0</ele>
        <time>2017-05-27T08:47:20.194Z</time>
      </trkpt>
      <trkpt lat="39.91409" lon="-0.39907">
        <ele>605.0</ele>
        <time>2017-05-27T08:47:21.173Z</time>
      </trkpt>
      <trkpt lat="39.91409" lon="-0.39907">
        <ele>605.0</ele>
        <time>2017-05-27T08:47:22.178Z</time>
      </trkpt>
      <trkpt lat="39.91413167" lon="-0.39905667">
        <ele>606.0</ele>
        <time>2017-05-27T08:47:23.195Z</time>
      </trkpt>
      <trkpt lat="39.91413167" lon="-0.39905667">
        <ele>606.0</ele>
        <time>2017-05-27T08:47:24.160Z</time>
      </trkpt>
      <trkpt lat="39.91417333" lon="-0.39905333">
        <ele>607.0</ele>
        <time>2017-05-27T08:47:25.165Z</time>
      </trkpt>
      <trkpt lat="39.91417333" lon="-0.39905333">
        <ele>607.0</ele>
        <time>2017-05-27T08:47:26.170Z</time>
      </trkpt>
      <trkpt lat="39.91421333" lon="-0.39905833">
        <ele>607.0</ele>
        <time>2017-05-27T08:47:27.165Z</time>
      </trkpt>
      <trkpt lat="39.91421333" lon="-0.39905833">
        <ele>607.0</ele>
        <time>2017-05-27T08:47:28.171Z</time>
      </trkpt>
      <trkpt lat="39.914255" lon="-0.39905667">
        <ele>608.0</ele>
        <time>2017-05-27T08:47:29.177Z</time>
      </trkpt>
      <trkpt lat="39.914255" lon="-0.39905667">
        <ele>608.0</ele>
        <time>2017-05-27T08:47:30.182Z</time>
      </trkpt>
      <trkpt lat="39.91429" lon="-0.39904333">
        <ele>608.0</ele>
        <time>2017-05-27T08:47:31.157Z</time>
      </trkpt>
      <trkpt lat="39.91431" lon="-0.39904">
        <ele>608.0</ele>
        <time>2017-05-27T08:47:32.171Z</time>
      </trkpt>
      <trkpt lat="39.91431" lon="-0.39904">
        <ele>608.0</ele>
        <time>2017-05-27T08:47:33.183Z</time>
      </trkpt>
      <trkpt lat="39.914345" lon="-0.39903">
        <ele>608.0</ele>
        <time>2017-05-27T08:47:34.167Z</time>
      </trkpt>
      <trkpt lat="39.91436333" lon="-0.399025">
        <ele>608.0</ele>
        <time>2017-05-27T08:47:35.166Z</time>
      </trkpt>
      <trkpt lat="39.91436333" lon="-0.399025">
        <ele>608.0</ele>
        <time>2017-05-27T08:47:36.177Z</time>
      </trkpt>
      <trkpt lat="39.9144" lon="-0.39902">
        <ele>609.0</ele>
        <time>2017-05-27T08:47:37.188Z</time>
      </trkpt>
      <trkpt lat="39.91442" lon="-0.39902">
        <ele>609.0</ele>
        <time>2017-05-27T08:47:38.195Z</time>
      </trkpt>
      <trkpt lat="39.91442" lon="-0.39902">
        <ele>609.0</ele>
        <time>2017-05-27T08:47:39.160Z</time>
      </trkpt>
      <trkpt lat="39.91446" lon="-0.39900833">
        <ele>609.0</ele>
        <time>2017-05-27T08:47:40.159Z</time>
      </trkpt>
      <trkpt lat="39.91446" lon="-0.39900833">
        <ele>609.0</ele>
        <time>2017-05-27T08:47:41.185Z</time>
      </trkpt>
      <trkpt lat="39.91449833" lon="-0.39899667">
        <ele>610.0</ele>
        <time>2017-05-27T08:47:42.187Z</time>
      </trkpt>
      <trkpt lat="39.91449833" lon="-0.39899667">
        <ele>610.0</ele>
        <time>2017-05-27T08:47:43.193Z</time>
      </trkpt>
      <trkpt lat="39.91453667" lon="-0.39898667">
        <ele>610.0</ele>
        <time>2017-05-27T08:47:44.195Z</time>
      </trkpt>
      <trkpt lat="39.91453667" lon="-0.39898667">
        <ele>610.0</ele>
        <time>2017-05-27T08:47:45.171Z</time>
      </trkpt>
      <trkpt lat="39.914575" lon="-0.39896833">
        <ele>611.0</ele>
        <time>2017-05-27T08:47:46.167Z</time>
      </trkpt>
      <trkpt lat="39.914575" lon="-0.39896833">
        <ele>611.0</ele>
        <time>2017-05-27T08:47:47.172Z</time>
      </trkpt>
      <trkpt lat="39.91461333" lon="-0.39894833">
        <ele>612.0</ele>
        <time>2017-05-27T08:47:48.165Z</time>
      </trkpt>
      <trkpt lat="39.91461333" lon="-0.39894833">
        <ele>612.0</ele>
        <time>2017-05-27T08:47:49.170Z</time>
      </trkpt>
      <trkpt lat="39.91465333" lon="-0.39890667">
        <ele>613.0</ele>
        <time>2017-05-27T08:47:50.185Z</time>
      </trkpt>
      <trkpt lat="39.91465333" lon="-0.39890667">
        <ele>613.0</ele>
        <time>2017-05-27T08:47:51.195Z</time>
      </trkpt>
      <trkpt lat="39.914685" lon="-0.398885">
        <ele>614.0</ele>
        <time>2017-05-27T08:47:52.187Z</time>
      </trkpt>
      <trkpt lat="39.9147" lon="-0.39887667">
        <ele>615.0</ele>
        <time>2017-05-27T08:47:53.194Z</time>
      </trkpt>
      <trkpt lat="39.9147" lon="-0.39887667">
        <ele>615.0</ele>
        <time>2017-05-27T08:47:54.159Z</time>
      </trkpt>
      <trkpt lat="39.91473833" lon="-0.39886667">
        <ele>615.0</ele>
        <time>2017-05-27T08:47:55.160Z</time>
      </trkpt>
      <trkpt lat="39.91475667" lon="-0.39885833">
        <ele>616.0</ele>
        <time>2017-05-27T08:47:56.166Z</time>
      </trkpt>
      <trkpt lat="39.91475667" lon="-0.39885833">
        <ele>616.0</ele>
        <time>2017-05-27T08:47:57.170Z</time>
      </trkpt>
      <trkpt lat="39.91478833" lon="-0.39884">
        <ele>617.0</ele>
        <time>2017-05-27T08:47:58.193Z</time>
      </trkpt>
      <trkpt lat="39.91480333" lon="-0.39883333">
        <ele>617.0</ele>
        <time>2017-05-27T08:47:59.165Z</time>
      </trkpt>
      <trkpt lat="39.91480333" lon="-0.39883333">
        <ele>617.0</ele>
        <time>2017-05-27T08:48:00.170Z</time>
      </trkpt>
      <trkpt lat="39.91483333" lon="-0.39881">
        <ele>618.0</ele>
        <time>2017-05-27T08:48:01.183Z</time>
      </trkpt>
      <trkpt lat="39.91485" lon="-0.39880167">
        <ele>619.0</ele>
        <time>2017-05-27T08:48:02.170Z</time>
      </trkpt>
      <trkpt lat="39.91486667" lon="-0.39879333">
        <ele>619.0</ele>
        <time>2017-05-27T08:48:03.195Z</time>
      </trkpt>
      <trkpt lat="39.91486667" lon="-0.39879333">
        <ele>619.0</ele>
        <time>2017-05-27T08:48:04.179Z</time>
      </trkpt>
      <trkpt lat="39.91489667" lon="-0.39877667">
        <ele>620.0</ele>
        <time>2017-05-27T08:48:05.172Z</time>
      </trkpt>
      <trkpt lat="39.91490833" lon="-0.398765">
        <ele>621.0</ele>
        <time>2017-05-27T08:48:06.178Z</time>
      </trkpt>
      <trkpt lat="39.91490833" lon="-0.398765">
        <ele>621.0</ele>
        <time>2017-05-27T08:48:07.184Z</time>
      </trkpt>
      <trkpt lat="39.91494167" lon="-0.39874667">
        <ele>622.0</ele>
        <time>2017-05-27T08:48:08.179Z</time>
      </trkpt>
      <trkpt lat="39.91494167" lon="-0.39874667">
        <ele>622.0</ele>
        <time>2017-05-27T08:48:09.194Z</time>
      </trkpt>
      <trkpt lat="39.91497333" lon="-0.398725">
        <ele>622.0</ele>
        <time>2017-05-27T08:48:10.187Z</time>
      </trkpt>
      <trkpt lat="39.91499" lon="-0.39871333">
        <ele>622.0</ele>
        <time>2017-05-27T08:48:11.157Z</time>
      </trkpt>
      <trkpt lat="39.91499" lon="-0.39871333">
        <ele>622.0</ele>
        <time>2017-05-27T08:48:12.162Z</time>
      </trkpt>
      <trkpt lat="39.91502667" lon="-0.39869833">
        <ele>623.0</ele>
        <time>2017-05-27T08:48:13.165Z</time>
      </trkpt>
      <trkpt lat="39.91502667" lon="-0.39869833">
        <ele>623.0</ele>
        <time>2017-05-27T08:48:14.175Z</time>
      </trkpt>
      <trkpt lat="39.91506167" lon="-0.39868333">
        <ele>623.0</ele>
        <time>2017-05-27T08:48:15.185Z</time>
      </trkpt>
      <trkpt lat="39.91506167" lon="-0.39868333">
        <ele>623.0</ele>
        <time>2017-05-27T08:48:16.193Z</time>
      </trkpt>
      <trkpt lat="39.915095" lon="-0.39866333">
        <ele>624.0</ele>
        <time>2017-05-27T08:48:17.195Z</time>
      </trkpt>
      <trkpt lat="39.915095" lon="-0.39866333">
        <ele>624.0</ele>
        <time>2017-05-27T08:48:18.160Z</time>
      </trkpt>
      <trkpt lat="39.91513" lon="-0.39865333">
        <ele>625.0</ele>
        <time>2017-05-27T08:48:19.163Z</time>
      </trkpt>
      <trkpt lat="39.91514833" lon="-0.39864167">
        <ele>625.0</ele>
        <time>2017-05-27T08:48:20.185Z</time>
      </trkpt>
      <trkpt lat="39.91514833" lon="-0.39864167">
        <ele>625.0</ele>
        <time>2017-05-27T08:48:21.193Z</time>
      </trkpt>
      <trkpt lat="39.91519333" lon="-0.39863">
        <ele>625.0</ele>
        <time>2017-05-27T08:48:22.176Z</time>
      </trkpt>
      <trkpt lat="39.91519333" lon="-0.39863">
        <ele>625.0</ele>
        <time>2017-05-27T08:48:23.167Z</time>
      </trkpt>
      <trkpt lat="39.91523" lon="-0.39862167">
        <ele>625.0</ele>
        <time>2017-05-27T08:48:24.175Z</time>
      </trkpt>
      <trkpt lat="39.91523" lon="-0.39862167">
        <ele>625.0</ele>
        <time>2017-05-27T08:48:25.181Z</time>
      </trkpt>
      <trkpt lat="39.91527167" lon="-0.39862167">
        <ele>625.0</ele>
        <time>2017-05-27T08:48:26.182Z</time>
      </trkpt>
      <trkpt lat="39.91527167" lon="-0.39862167">
        <ele>625.0</ele>
        <time>2017-05-27T08:48:27.188Z</time>
      </trkpt>
      <trkpt lat="39.91531167" lon="-0.39862667">
        <ele>625.0</ele>
        <time>2017-05-27T08:48:28.165Z</time>
      </trkpt>
      <trkpt lat="39.91533" lon="-0.39863">
        <ele>625.0</ele>
        <time>2017-05-27T08:48:29.159Z</time>
      </trkpt>
      <trkpt lat="39.91533" lon="-0.39863">
        <ele>625.0</ele>
        <time>2017-05-27T08:48:30.179Z</time>
      </trkpt>
      <trkpt lat="39.91537333" lon="-0.39864333">
        <ele>626.0</ele>
        <time>2017-05-27T08:48:31.175Z</time>
      </trkpt>
      <trkpt lat="39.91539333" lon="-0.39865">
        <ele>626.0</ele>
        <time>2017-05-27T08:48:32.185Z</time>
      </trkpt>
      <trkpt lat="39.91539333" lon="-0.39865">
        <ele>626.0</ele>
        <time>2017-05-27T08:48:33.157Z</time>
      </trkpt>
      <trkpt lat="39.91543333" lon="-0.398665">
        <ele>626.0</ele>
        <time>2017-05-27T08:48:34.163Z</time>
      </trkpt>
      <trkpt lat="39.91543333" lon="-0.398665">
        <ele>626.0</ele>
        <time>2017-05-27T08:48:35.168Z</time>
      </trkpt>
      <trkpt lat="39.91547167" lon="-0.39867167">
        <ele>626.0</ele>
        <time>2017-05-27T08:48:36.173Z</time>
      </trkpt>
      <trkpt lat="39.91547167" lon="-0.39867167">
        <ele>626.0</ele>
        <time>2017-05-27T08:48:37.179Z</time>
      </trkpt>
      <trkpt lat="39.91550833" lon="-0.398685">
        <ele>626.0</ele>
        <time>2017-05-27T08:48:38.182Z</time>
      </trkpt>
      <trkpt lat="39.91550833" lon="-0.398685">
        <ele>626.0</ele>
        <time>2017-05-27T08:48:39.192Z</time>
      </trkpt>
      <trkpt lat="39.915545" lon="-0.39870333">
        <ele>627.0</ele>
        <time>2017-05-27T08:48:40.161Z</time>
      </trkpt>
      <trkpt lat="39.91556833" lon="-0.39871333">
        <ele>626.0</ele>
        <time>2017-05-27T08:48:41.185Z</time>
      </trkpt>
      <trkpt lat="39.91556833" lon="-0.39871333">
        <ele>626.0</ele>
        <time>2017-05-27T08:48:42.192Z</time>
      </trkpt>
      <trkpt lat="39.91561333" lon="-0.39874">
        <ele>626.0</ele>
        <time>2017-05-27T08:48:43.162Z</time>
      </trkpt>
      <trkpt lat="39.915635" lon="-0.39875">
        <ele>626.0</ele>
        <time>2017-05-27T08:48:44.185Z</time>
      </trkpt>
      <trkpt lat="39.915635" lon="-0.39875">
        <ele>626.0</ele>
        <time>2017-05-27T08:48:45.193Z</time>
      </trkpt>
      <trkpt lat="39.91568" lon="-0.39876667">
        <ele>626.0</ele>
        <time>2017-05-27T08:48:46.187Z</time>
      </trkpt>
      <trkpt lat="39.91568" lon="-0.39876667">
        <ele>626.0</ele>
        <time>2017-05-27T08:48:47.195Z</time>
      </trkpt>
      <trkpt lat="39.915725" lon="-0.39878">
        <ele>626.0</ele>
        <time>2017-05-27T08:48:48.161Z</time>
      </trkpt>
      <trkpt lat="39.915725" lon="-0.39878">
        <ele>626.0</ele>
        <time>2017-05-27T08:48:49.166Z</time>
      </trkpt>
      <trkpt lat="39.91576833" lon="-0.39878333">
        <ele>626.0</ele>
        <time>2017-05-27T08:48:50.181Z</time>
      </trkpt>
      <trkpt lat="39.91576833" lon="-0.39878333">
        <ele>626.0</ele>
        <time>2017-05-27T08:48:51.194Z</time>
      </trkpt>
      <trkpt lat="39.91581" lon="-0.39878833">
        <ele>626.0</ele>
        <time>2017-05-27T08:48:52.170Z</time>
      </trkpt>
      <trkpt lat="39.91581" lon="-0.39878833">
        <ele>626.0</ele>
        <time>2017-05-27T08:48:53.167Z</time>
      </trkpt>
      <trkpt lat="39.91585" lon="-0.39879">
        <ele>626.0</ele>
        <time>2017-05-27T08:48:54.185Z</time>
      </trkpt>
      <trkpt lat="39.91585" lon="-0.39879">
        <ele>626.0</ele>
        <time>2017-05-27T08:48:55.193Z</time>
      </trkpt>
      <trkpt lat="39.91588667" lon="-0.398785">
        <ele>626.0</ele>
        <time>2017-05-27T08:48:56.198Z</time>
      </trkpt>
      <trkpt lat="39.91588667" lon="-0.398785">
        <ele>626.0</ele>
        <time>2017-05-27T08:48:57.163Z</time>
      </trkpt>
      <trkpt lat="39.91593" lon="-0.39876333">
        <ele>627.0</ele>
        <time>2017-05-27T08:48:58.165Z</time>
      </trkpt>
      <trkpt lat="39.91593" lon="-0.39876333">
        <ele>627.0</ele>
        <time>2017-05-27T08:48:59.174Z</time>
      </trkpt>
      <trkpt lat="39.91597667" lon="-0.39873833">
        <ele>628.0</ele>
        <time>2017-05-27T08:49:00.185Z</time>
      </trkpt>
      <trkpt lat="39.91597667" lon="-0.39873833">
        <ele>628.0</ele>
        <time>2017-05-27T08:49:01.162Z</time>
      </trkpt>
      <trkpt lat="39.91601333" lon="-0.39869833">
        <ele>628.0</ele>
        <time>2017-05-27T08:49:02.165Z</time>
      </trkpt>
      <trkpt lat="39.91603167" lon="-0.39867833">
        <ele>628.0</ele>
        <time>2017-05-27T08:49:03.195Z</time>
      </trkpt>
      <trkpt lat="39.91603167" lon="-0.39867833">
        <ele>628.0</ele>
        <time>2017-05-27T08:49:04.160Z</time>
      </trkpt>
      <trkpt lat="39.91606833" lon="-0.398645">
        <ele>628.0</ele>
        <time>2017-05-27T08:49:05.175Z</time>
      </trkpt>
      <trkpt lat="39.91606833" lon="-0.398645">
        <ele>628.0</ele>
        <time>2017-05-27T08:49:06.182Z</time>
      </trkpt>
      <trkpt lat="39.9161" lon="-0.39859667">
        <ele>629.0</ele>
        <time>2017-05-27T08:49:07.165Z</time>
      </trkpt>
      <trkpt lat="39.9161" lon="-0.39859667">
        <ele>629.0</ele>
        <time>2017-05-27T08:49:08.184Z</time>
      </trkpt>
      <trkpt lat="39.916135" lon="-0.39855167">
        <ele>630.0</ele>
        <time>2017-05-27T08:49:09.164Z</time>
      </trkpt>
      <trkpt lat="39.916135" lon="-0.39855167">
        <ele>630.0</ele>
        <time>2017-05-27T08:49:10.184Z</time>
      </trkpt>
      <trkpt lat="39.916165" lon="-0.39851">
        <ele>630.0</ele>
        <time>2017-05-27T08:49:11.178Z</time>
      </trkpt>
      <trkpt lat="39.916165" lon="-0.39851">
        <ele>630.0</ele>
        <time>2017-05-27T08:49:12.194Z</time>
      </trkpt>
      <trkpt lat="39.91618667" lon="-0.39846">
        <ele>630.0</ele>
        <time>2017-05-27T08:49:13.195Z</time>
      </trkpt>
      <trkpt lat="39.916195" lon="-0.398435">
        <ele>630.0</ele>
        <time>2017-05-27T08:49:14.185Z</time>
      </trkpt>
      <trkpt lat="39.916195" lon="-0.398435">
        <ele>630.0</ele>
        <time>2017-05-27T08:49:15.157Z</time>
      </trkpt>
      <trkpt lat="39.91621167" lon="-0.39838333">
        <ele>631.0</ele>
        <time>2017-05-27T08:49:16.163Z</time>
      </trkpt>
      <trkpt lat="39.91621833" lon="-0.39835667">
        <ele>631.0</ele>
        <time>2017-05-27T08:49:17.175Z</time>
      </trkpt>
      <trkpt lat="39.91621833" lon="-0.39835667">
        <ele>631.0</ele>
        <time>2017-05-27T08:49:18.192Z</time>
      </trkpt>
      <trkpt lat="39.91622833" lon="-0.39830167">
        <ele>630.0</ele>
        <time>2017-05-27T08:49:19.195Z</time>
      </trkpt>
      <trkpt lat="39.91622833" lon="-0.39830167">
        <ele>630.0</ele>
        <time>2017-05-27T08:49:20.160Z</time>
      </trkpt>
      <trkpt lat="39.91623833" lon="-0.39824833">
        <ele>631.0</ele>
        <time>2017-05-27T08:49:21.165Z</time>
      </trkpt>
      <trkpt lat="39.91623833" lon="-0.39824833">
        <ele>631.0</ele>
        <time>2017-05-27T08:49:22.187Z</time>
      </trkpt>
      <trkpt lat="39.91623833" lon="-0.39818333">
        <ele>631.0</ele>
        <time>2017-05-27T08:49:23.194Z</time>
      </trkpt>
      <trkpt lat="39.91623833" lon="-0.39818333">
        <ele>631.0</ele>
        <time>2017-05-27T08:49:24.159Z</time>
      </trkpt>
      <trkpt lat="39.91623667" lon="-0.39812167">
        <ele>631.0</ele>
        <time>2017-05-27T08:49:25.188Z</time>
      </trkpt>
      <trkpt lat="39.91623667" lon="-0.39812167">
        <ele>631.0</ele>
        <time>2017-05-27T08:49:26.194Z</time>
      </trkpt>
      <trkpt lat="39.91625" lon="-0.39806333">
        <ele>632.0</ele>
        <time>2017-05-27T08:49:27.191Z</time>
      </trkpt>
      <trkpt lat="39.916255" lon="-0.39803667">
        <ele>632.0</ele>
        <time>2017-05-27T08:49:28.175Z</time>
      </trkpt>
      <trkpt lat="39.91625833" lon="-0.39801333">
        <ele>632.0</ele>
        <time>2017-05-27T08:49:29.195Z</time>
      </trkpt>
      <trkpt lat="39.91625833" lon="-0.39801333">
        <ele>632.0</ele>
        <time>2017-05-27T08:49:30.170Z</time>
      </trkpt>
      <trkpt lat="39.91626" lon="-0.39796333">
        <ele>632.0</ele>
        <time>2017-05-27T08:49:31.183Z</time>
      </trkpt>
      <trkpt lat="39.91626" lon="-0.39796333">
        <ele>632.0</ele>
        <time>2017-05-27T08:49:32.192Z</time>
      </trkpt>
      <trkpt lat="39.91626167" lon="-0.39791167">
        <ele>633.0</ele>
        <time>2017-05-27T08:49:33.159Z</time>
      </trkpt>
      <trkpt lat="39.91626" lon="-0.397885">
        <ele>633.0</ele>
        <time>2017-05-27T08:49:34.172Z</time>
      </trkpt>
      <trkpt lat="39.91626167" lon="-0.39785833">
        <ele>634.0</ele>
        <time>2017-05-27T08:49:35.195Z</time>
      </trkpt>
      <trkpt lat="39.91626167" lon="-0.39785833">
        <ele>634.0</ele>
        <time>2017-05-27T08:49:36.160Z</time>
      </trkpt>
      <trkpt lat="39.91626167" lon="-0.39780667">
        <ele>634.0</ele>
        <time>2017-05-27T08:49:37.171Z</time>
      </trkpt>
      <trkpt lat="39.91626167" lon="-0.39780667">
        <ele>634.0</ele>
        <time>2017-05-27T08:49:38.176Z</time>
      </trkpt>
      <trkpt lat="39.91626167" lon="-0.39775333">
        <ele>635.0</ele>
        <time>2017-05-27T08:49:39.185Z</time>
      </trkpt>
      <trkpt lat="39.91626333" lon="-0.39773">
        <ele>635.0</ele>
        <time>2017-05-27T08:49:40.188Z</time>
      </trkpt>
      <trkpt lat="39.916265" lon="-0.397705">
        <ele>635.0</ele>
        <time>2017-05-27T08:49:41.165Z</time>
      </trkpt>
      <trkpt lat="39.916265" lon="-0.397705">
        <ele>635.0</ele>
        <time>2017-05-27T08:49:42.176Z</time>
      </trkpt>
      <trkpt lat="39.91627" lon="-0.39765667">
        <ele>636.0</ele>
        <time>2017-05-27T08:49:43.171Z</time>
      </trkpt>
      <trkpt lat="39.91627" lon="-0.39765667">
        <ele>636.0</ele>
        <time>2017-05-27T08:49:44.177Z</time>
      </trkpt>
      <trkpt lat="39.91627" lon="-0.39757">
        <ele>637.0</ele>
        <time>2017-05-27T08:49:45.161Z</time>
      </trkpt>
      <trkpt lat="39.91627" lon="-0.39757">
        <ele>637.0</ele>
        <time>2017-05-27T08:49:46.178Z</time>
      </trkpt>
      <trkpt lat="39.91626833" lon="-0.39752667">
        <ele>638.0</ele>
        <time>2017-05-27T08:49:47.189Z</time>
      </trkpt>
      <trkpt lat="39.91626667" lon="-0.39750333">
        <ele>638.0</ele>
        <time>2017-05-27T08:49:48.193Z</time>
      </trkpt>
      <trkpt lat="39.91626667" lon="-0.39750333">
        <ele>638.0</ele>
        <time>2017-05-27T08:49:49.186Z</time>
      </trkpt>
      <trkpt lat="39.91626833" lon="-0.397455">
        <ele>638.0</ele>
        <time>2017-05-27T08:49:50.162Z</time>
      </trkpt>
      <trkpt lat="39.91626833" lon="-0.397455">
        <ele>638.0</ele>
        <time>2017-05-27T08:49:51.189Z</time>
      </trkpt>
      <trkpt lat="39.91627" lon="-0.39740167">
        <ele>639.0</ele>
        <time>2017-05-27T08:49:52.164Z</time>
      </trkpt>
      <trkpt lat="39.91627" lon="-0.39740167">
        <ele>639.0</ele>
        <time>2017-05-27T08:49:53.187Z</time>
      </trkpt>
      <trkpt lat="39.91627667" lon="-0.39734667">
        <ele>639.0</ele>
        <time>2017-05-27T08:49:54.168Z</time>
      </trkpt>
      <trkpt lat="39.91627667" lon="-0.39734667">
        <ele>639.0</ele>
        <time>2017-05-27T08:49:55.165Z</time>
      </trkpt>
      <trkpt lat="39.91628" lon="-0.39729833">
        <ele>639.0</ele>
        <time>2017-05-27T08:49:56.175Z</time>
      </trkpt>
      <trkpt lat="39.91628" lon="-0.39727333">
        <ele>640.0</ele>
        <time>2017-05-27T08:49:57.179Z</time>
      </trkpt>
      <trkpt lat="39.91628" lon="-0.39727333">
        <ele>640.0</ele>
        <time>2017-05-27T08:49:58.157Z</time>
      </trkpt>
      <trkpt lat="39.916285" lon="-0.39722167">
        <ele>640.0</ele>
        <time>2017-05-27T08:49:59.176Z</time>
      </trkpt>
      <trkpt lat="39.916285" lon="-0.39722167">
        <ele>640.0</ele>
        <time>2017-05-27T08:50:00.156Z</time>
      </trkpt>
      <trkpt lat="39.91628167" lon="-0.39717">
        <ele>640.0</ele>
        <time>2017-05-27T08:50:01.169Z</time>
      </trkpt>
      <trkpt lat="39.91628167" lon="-0.39717">
        <ele>640.0</ele>
        <time>2017-05-27T08:50:02.166Z</time>
      </trkpt>
      <trkpt lat="39.916285" lon="-0.39712">
        <ele>640.0</ele>
        <time>2017-05-27T08:50:03.179Z</time>
      </trkpt>
      <trkpt lat="39.916285" lon="-0.39712">
        <ele>640.0</ele>
        <time>2017-05-27T08:50:04.175Z</time>
      </trkpt>
      <trkpt lat="39.91628167" lon="-0.39707167">
        <ele>641.0</ele>
        <time>2017-05-27T08:50:05.189Z</time>
      </trkpt>
      <trkpt lat="39.91628167" lon="-0.397045">
        <ele>641.0</ele>
        <time>2017-05-27T08:50:06.161Z</time>
      </trkpt>
      <trkpt lat="39.91628167" lon="-0.397045">
        <ele>641.0</ele>
        <time>2017-05-27T08:50:07.167Z</time>
      </trkpt>
      <trkpt lat="39.91628333" lon="-0.39699833">
        <ele>641.0</ele>
        <time>2017-05-27T08:50:08.178Z</time>
      </trkpt>
      <trkpt lat="39.91628333" lon="-0.39697333">
        <ele>641.0</ele>
        <time>2017-05-27T08:50:09.159Z</time>
      </trkpt>
      <trkpt lat="39.91628333" lon="-0.39697333">
        <ele>641.0</ele>
        <time>2017-05-27T08:50:10.185Z</time>
      </trkpt>
      <trkpt lat="39.916285" lon="-0.39692333">
        <ele>642.0</ele>
        <time>2017-05-27T08:50:11.156Z</time>
      </trkpt>
      <trkpt lat="39.916285" lon="-0.39692333">
        <ele>642.0</ele>
        <time>2017-05-27T08:50:12.166Z</time>
      </trkpt>
      <trkpt lat="39.916285" lon="-0.39687333">
        <ele>643.0</ele>
        <time>2017-05-27T08:50:13.161Z</time>
      </trkpt>
      <trkpt lat="39.91628333" lon="-0.39684667">
        <ele>643.0</ele>
        <time>2017-05-27T08:50:14.190Z</time>
      </trkpt>
      <trkpt lat="39.91628333" lon="-0.39682333">
        <ele>643.0</ele>
        <time>2017-05-27T08:50:15.163Z</time>
      </trkpt>
      <trkpt lat="39.91628333" lon="-0.39682333">
        <ele>643.0</ele>
        <time>2017-05-27T08:50:16.172Z</time>
      </trkpt>
      <trkpt lat="39.91628167" lon="-0.39677333">
        <ele>643.0</ele>
        <time>2017-05-27T08:50:17.194Z</time>
      </trkpt>
      <trkpt lat="39.91628167" lon="-0.39677333">
        <ele>643.0</ele>
        <time>2017-05-27T08:50:18.194Z</time>
      </trkpt>
      <trkpt lat="39.916285" lon="-0.396725">
        <ele>644.0</ele>
        <time>2017-05-27T08:50:19.179Z</time>
      </trkpt>
      <trkpt lat="39.91628833" lon="-0.39669833">
        <ele>644.0</ele>
        <time>2017-05-27T08:50:20.188Z</time>
      </trkpt>
      <trkpt lat="39.91629167" lon="-0.396675">
        <ele>644.0</ele>
        <time>2017-05-27T08:50:21.168Z</time>
      </trkpt>
      <trkpt lat="39.91629167" lon="-0.396675">
        <ele>644.0</ele>
        <time>2017-05-27T08:50:22.158Z</time>
      </trkpt>
      <trkpt lat="39.91630167" lon="-0.39661833">
        <ele>645.0</ele>
        <time>2017-05-27T08:50:23.174Z</time>
      </trkpt>
      <trkpt lat="39.91630167" lon="-0.39661833">
        <ele>645.0</ele>
        <time>2017-05-27T08:50:24.156Z</time>
      </trkpt>
      <trkpt lat="39.9163" lon="-0.39657">
        <ele>645.0</ele>
        <time>2017-05-27T08:50:25.167Z</time>
      </trkpt>
      <trkpt lat="39.9163" lon="-0.39657">
        <ele>645.0</ele>
        <time>2017-05-27T08:50:26.157Z</time>
      </trkpt>
      <trkpt lat="39.916295" lon="-0.39651667">
        <ele>646.0</ele>
        <time>2017-05-27T08:50:27.167Z</time>
      </trkpt>
      <trkpt lat="39.916295" lon="-0.39651667">
        <ele>646.0</ele>
        <time>2017-05-27T08:50:28.166Z</time>
      </trkpt>
      <trkpt lat="39.91629167" lon="-0.39646667">
        <ele>646.0</ele>
        <time>2017-05-27T08:50:29.192Z</time>
      </trkpt>
      <trkpt lat="39.91629167" lon="-0.39646667">
        <ele>646.0</ele>
        <time>2017-05-27T08:50:30.180Z</time>
      </trkpt>
      <trkpt lat="39.91629333" lon="-0.396415">
        <ele>646.0</ele>
        <time>2017-05-27T08:50:31.193Z</time>
      </trkpt>
      <trkpt lat="39.91629667" lon="-0.39639333">
        <ele>647.0</ele>
        <time>2017-05-27T08:50:32.168Z</time>
      </trkpt>
      <trkpt lat="39.91629833" lon="-0.39637">
        <ele>647.0</ele>
        <time>2017-05-27T08:50:33.163Z</time>
      </trkpt>
      <trkpt lat="39.91629833" lon="-0.39637">
        <ele>647.0</ele>
        <time>2017-05-27T08:50:34.162Z</time>
      </trkpt>
      <trkpt lat="39.91630167" lon="-0.39632">
        <ele>647.0</ele>
        <time>2017-05-27T08:50:35.185Z</time>
      </trkpt>
      <trkpt lat="39.91630167" lon="-0.39632">
        <ele>647.0</ele>
        <time>2017-05-27T08:50:36.193Z</time>
      </trkpt>
      <trkpt lat="39.91630833" lon="-0.39627333">
        <ele>648.0</ele>
        <time>2017-05-27T08:50:37.166Z</time>
      </trkpt>
      <trkpt lat="39.91631" lon="-0.39625">
        <ele>648.0</ele>
        <time>2017-05-27T08:50:38.180Z</time>
      </trkpt>
      <trkpt lat="39.91631" lon="-0.39625">
        <ele>648.0</ele>
        <time>2017-05-27T08:50:39.186Z</time>
      </trkpt>
      <trkpt lat="39.91631333" lon="-0.39620167">
        <ele>649.0</ele>
        <time>2017-05-27T08:50:40.165Z</time>
      </trkpt>
      <trkpt lat="39.91631333" lon="-0.39620167">
        <ele>649.0</ele>
        <time>2017-05-27T08:50:41.157Z</time>
      </trkpt>
      <trkpt lat="39.91631667" lon="-0.39615167">
        <ele>649.0</ele>
        <time>2017-05-27T08:50:42.170Z</time>
      </trkpt>
      <trkpt lat="39.91632167" lon="-0.39612833">
        <ele>650.0</ele>
        <time>2017-05-27T08:50:43.182Z</time>
      </trkpt>
      <trkpt lat="39.91632167" lon="-0.39612833">
        <ele>650.0</ele>
        <time>2017-05-27T08:50:44.187Z</time>
      </trkpt>
      <trkpt lat="39.91632667" lon="-0.39608">
        <ele>650.0</ele>
        <time>2017-05-27T08:50:45.158Z</time>
      </trkpt>
      <trkpt lat="39.91632667" lon="-0.39608">
        <ele>650.0</ele>
        <time>2017-05-27T08:50:46.189Z</time>
      </trkpt>
      <trkpt lat="39.916325" lon="-0.39603333">
        <ele>651.0</ele>
        <time>2017-05-27T08:50:47.169Z</time>
      </trkpt>
      <trkpt lat="39.916325" lon="-0.39603333">
        <ele>651.0</ele>
        <time>2017-05-27T08:50:48.166Z</time>
      </trkpt>
      <trkpt lat="39.91632" lon="-0.39598333">
        <ele>651.0</ele>
        <time>2017-05-27T08:50:49.177Z</time>
      </trkpt>
      <trkpt lat="39.91631833" lon="-0.39595833">
        <ele>651.0</ele>
        <time>2017-05-27T08:50:50.189Z</time>
      </trkpt>
      <trkpt lat="39.91631833" lon="-0.39595833">
        <ele>651.0</ele>
        <time>2017-05-27T08:50:51.184Z</time>
      </trkpt>
      <trkpt lat="39.91632167" lon="-0.39591333">
        <ele>652.0</ele>
        <time>2017-05-27T08:50:52.194Z</time>
      </trkpt>
      <trkpt lat="39.91632333" lon="-0.39588333">
        <ele>652.0</ele>
        <time>2017-05-27T08:50:53.160Z</time>
      </trkpt>
      <trkpt lat="39.91632333" lon="-0.39588333">
        <ele>652.0</ele>
        <time>2017-05-27T08:50:54.162Z</time>
      </trkpt>
      <trkpt lat="39.91632667" lon="-0.39583">
        <ele>653.0</ele>
        <time>2017-05-27T08:50:55.172Z</time>
      </trkpt>
      <trkpt lat="39.91632833" lon="-0.395805">
        <ele>653.0</ele>
        <time>2017-05-27T08:50:56.161Z</time>
      </trkpt>
      <trkpt lat="39.91632833" lon="-0.395805">
        <ele>653.0</ele>
        <time>2017-05-27T08:50:57.176Z</time>
      </trkpt>
      <trkpt lat="39.91632167" lon="-0.395755">
        <ele>653.0</ele>
        <time>2017-05-27T08:50:58.186Z</time>
      </trkpt>
      <trkpt lat="39.91632167" lon="-0.395755">
        <ele>653.0</ele>
        <time>2017-05-27T08:50:59.183Z</time>
      </trkpt>
      <trkpt lat="39.91631667" lon="-0.39570667">
        <ele>653.0</ele>
        <time>2017-05-27T08:51:00.195Z</time>
      </trkpt>
      <trkpt lat="39.91631667" lon="-0.39570667">
        <ele>653.0</ele>
        <time>2017-05-27T08:51:01.170Z</time>
      </trkpt>
      <trkpt lat="39.91631667" lon="-0.39570667">
        <ele>653.0</ele>
        <time>2017-05-27T08:51:02.189Z</time>
      </trkpt>
      <trkpt lat="39.91631167" lon="-0.39565333">
        <ele>654.0</ele>
        <time>2017-05-27T08:51:03.157Z</time>
      </trkpt>
      <trkpt lat="39.91631667" lon="-0.39560333">
        <ele>654.0</ele>
        <time>2017-05-27T08:51:04.165Z</time>
      </trkpt>
      <trkpt lat="39.91631667" lon="-0.39560333">
        <ele>654.0</ele>
        <time>2017-05-27T08:51:05.187Z</time>
      </trkpt>
      <trkpt lat="39.91632333" lon="-0.39555">
        <ele>654.0</ele>
        <time>2017-05-27T08:51:06.159Z</time>
      </trkpt>
      <trkpt lat="39.91632333" lon="-0.39555">
        <ele>654.0</ele>
        <time>2017-05-27T08:51:07.156Z</time>
      </trkpt>
      <trkpt lat="39.91633333" lon="-0.3955">
        <ele>655.0</ele>
        <time>2017-05-27T08:51:08.168Z</time>
      </trkpt>
      <trkpt lat="39.91633833" lon="-0.39547333">
        <ele>655.0</ele>
        <time>2017-05-27T08:51:09.189Z</time>
      </trkpt>
      <trkpt lat="39.91633833" lon="-0.39547333">
        <ele>655.0</ele>
        <time>2017-05-27T08:51:10.166Z</time>
      </trkpt>
      <trkpt lat="39.91635" lon="-0.39542167">
        <ele>655.0</ele>
        <time>2017-05-27T08:51:11.174Z</time>
      </trkpt>
      <trkpt lat="39.91635333" lon="-0.39539833">
        <ele>655.0</ele>
        <time>2017-05-27T08:51:12.162Z</time>
      </trkpt>
      <trkpt lat="39.91635333" lon="-0.39539833">
        <ele>655.0</ele>
        <time>2017-05-27T08:51:13.191Z</time>
      </trkpt>
      <trkpt lat="39.91635667" lon="-0.39535">
        <ele>655.0</ele>
        <time>2017-05-27T08:51:14.187Z</time>
      </trkpt>
      <trkpt lat="39.91635167" lon="-0.39532333">
        <ele>655.0</ele>
        <time>2017-05-27T08:51:15.159Z</time>
      </trkpt>
      <trkpt lat="39.91635167" lon="-0.39532333">
        <ele>655.0</ele>
        <time>2017-05-27T08:51:16.172Z</time>
      </trkpt>
      <trkpt lat="39.91635667" lon="-0.39527833">
        <ele>655.0</ele>
        <time>2017-05-27T08:51:17.191Z</time>
      </trkpt>
      <trkpt lat="39.91635667" lon="-0.39527833">
        <ele>655.0</ele>
        <time>2017-05-27T08:51:18.185Z</time>
      </trkpt>
      <trkpt lat="39.91636667" lon="-0.39523">
        <ele>655.0</ele>
        <time>2017-05-27T08:51:19.196Z</time>
      </trkpt>
      <trkpt lat="39.91636667" lon="-0.39523">
        <ele>655.0</ele>
        <time>2017-05-27T08:51:20.156Z</time>
      </trkpt>
      <trkpt lat="39.91638" lon="-0.39517667">
        <ele>655.0</ele>
        <time>2017-05-27T08:51:21.190Z</time>
      </trkpt>
      <trkpt lat="39.91638" lon="-0.39517667">
        <ele>655.0</ele>
        <time>2017-05-27T08:51:22.161Z</time>
      </trkpt>
      <trkpt lat="39.91639" lon="-0.395125">
        <ele>655.0</ele>
        <time>2017-05-27T08:51:23.173Z</time>
      </trkpt>
      <trkpt lat="39.91639" lon="-0.395125">
        <ele>655.0</ele>
        <time>2017-05-27T08:51:24.166Z</time>
      </trkpt>
      <trkpt lat="39.91640333" lon="-0.39507667">
        <ele>655.0</ele>
        <time>2017-05-27T08:51:25.183Z</time>
      </trkpt>
      <trkpt lat="39.91640333" lon="-0.39507667">
        <ele>655.0</ele>
        <time>2017-05-27T08:51:26.177Z</time>
      </trkpt>
      <trkpt lat="39.916405" lon="-0.39503167">
        <ele>655.0</ele>
        <time>2017-05-27T08:51:27.187Z</time>
      </trkpt>
      <trkpt lat="39.916405" lon="-0.39503167">
        <ele>655.0</ele>
        <time>2017-05-27T08:51:28.169Z</time>
      </trkpt>
      <trkpt lat="39.9164" lon="-0.39497833">
        <ele>655.0</ele>
        <time>2017-05-27T08:51:29.186Z</time>
      </trkpt>
      <trkpt lat="39.9164" lon="-0.39497833">
        <ele>655.0</ele>
        <time>2017-05-27T08:51:30.169Z</time>
      </trkpt>
      <trkpt lat="39.91639667" lon="-0.39492167">
        <ele>655.0</ele>
        <time>2017-05-27T08:51:31.186Z</time>
      </trkpt>
      <trkpt lat="39.91639333" lon="-0.39489167">
        <ele>655.0</ele>
        <time>2017-05-27T08:51:32.173Z</time>
      </trkpt>
      <trkpt lat="39.91638667" lon="-0.39486167">
        <ele>655.0</ele>
        <time>2017-05-27T08:51:33.159Z</time>
      </trkpt>
      <trkpt lat="39.91638667" lon="-0.39486167">
        <ele>655.0</ele>
        <time>2017-05-27T08:51:34.186Z</time>
      </trkpt>
      <trkpt lat="39.91637833" lon="-0.39480333">
        <ele>655.0</ele>
        <time>2017-05-27T08:51:35.197Z</time>
      </trkpt>
      <trkpt lat="39.91637833" lon="-0.39480333">
        <ele>655.0</ele>
        <time>2017-05-27T08:51:36.184Z</time>
      </trkpt>
      <trkpt lat="39.91636833" lon="-0.39474">
        <ele>655.0</ele>
        <time>2017-05-27T08:51:37.162Z</time>
      </trkpt>
      <trkpt lat="39.91636333" lon="-0.39471167">
        <ele>655.0</ele>
        <time>2017-05-27T08:51:38.159Z</time>
      </trkpt>
      <trkpt lat="39.91636" lon="-0.39468">
        <ele>655.0</ele>
        <time>2017-05-27T08:51:39.174Z</time>
      </trkpt>
      <trkpt lat="39.91636" lon="-0.39468">
        <ele>655.0</ele>
        <time>2017-05-27T08:51:40.156Z</time>
      </trkpt>
      <trkpt lat="39.91635167" lon="-0.39461833">
        <ele>656.0</ele>
        <time>2017-05-27T08:51:41.156Z</time>
      </trkpt>
      <trkpt lat="39.91635" lon="-0.39459">
        <ele>656.0</ele>
        <time>2017-05-27T08:51:42.168Z</time>
      </trkpt>
      <trkpt lat="39.91635" lon="-0.39459">
        <ele>656.0</ele>
        <time>2017-05-27T08:51:43.156Z</time>
      </trkpt>
      <trkpt lat="39.91635167" lon="-0.39453333">
        <ele>657.0</ele>
        <time>2017-05-27T08:51:44.166Z</time>
      </trkpt>
      <trkpt lat="39.91635167" lon="-0.39453333">
        <ele>657.0</ele>
        <time>2017-05-27T08:51:45.182Z</time>
      </trkpt>
      <trkpt lat="39.91635167" lon="-0.394505">
        <ele>657.0</ele>
        <time>2017-05-27T08:51:46.192Z</time>
      </trkpt>
      <trkpt lat="39.91634833" lon="-0.39444667">
        <ele>658.0</ele>
        <time>2017-05-27T08:51:47.160Z</time>
      </trkpt>
      <trkpt lat="39.91634833" lon="-0.39444667">
        <ele>658.0</ele>
        <time>2017-05-27T08:51:48.185Z</time>
      </trkpt>
      <trkpt lat="39.91634333" lon="-0.39439">
        <ele>658.0</ele>
        <time>2017-05-27T08:51:49.169Z</time>
      </trkpt>
      <trkpt lat="39.91634333" lon="-0.39439">
        <ele>658.0</ele>
        <time>2017-05-27T08:51:50.181Z</time>
      </trkpt>
      <trkpt lat="39.91634" lon="-0.39433333">
        <ele>659.0</ele>
        <time>2017-05-27T08:51:51.164Z</time>
      </trkpt>
      <trkpt lat="39.91634" lon="-0.39433333">
        <ele>659.0</ele>
        <time>2017-05-27T08:51:52.177Z</time>
      </trkpt>
      <trkpt lat="39.91633833" lon="-0.39427667">
        <ele>660.0</ele>
        <time>2017-05-27T08:51:53.190Z</time>
      </trkpt>
      <trkpt lat="39.91633833" lon="-0.39427667">
        <ele>660.0</ele>
        <time>2017-05-27T08:51:54.191Z</time>
      </trkpt>
      <trkpt lat="39.91633" lon="-0.39422833">
        <ele>661.0</ele>
        <time>2017-05-27T08:51:55.160Z</time>
      </trkpt>
      <trkpt lat="39.91633" lon="-0.39422833">
        <ele>661.0</ele>
        <time>2017-05-27T08:51:56.184Z</time>
      </trkpt>
      <trkpt lat="39.91630833" lon="-0.39418333">
        <ele>661.0</ele>
        <time>2017-05-27T08:51:57.160Z</time>
      </trkpt>
      <trkpt lat="39.91630833" lon="-0.39418333">
        <ele>661.0</ele>
        <time>2017-05-27T08:51:58.189Z</time>
      </trkpt>
      <trkpt lat="39.91628667" lon="-0.39412667">
        <ele>661.0</ele>
        <time>2017-05-27T08:51:59.164Z</time>
      </trkpt>
      <trkpt lat="39.91628667" lon="-0.39412667">
        <ele>661.0</ele>
        <time>2017-05-27T08:52:00.183Z</time>
      </trkpt>
      <trkpt lat="39.91627167" lon="-0.39406833">
        <ele>662.0</ele>
        <time>2017-05-27T08:52:01.193Z</time>
      </trkpt>
      <trkpt lat="39.91627167" lon="-0.39406833">
        <ele>662.0</ele>
        <time>2017-05-27T08:52:02.165Z</time>
      </trkpt>
      <trkpt lat="39.91625333" lon="-0.39401333">
        <ele>662.0</ele>
        <time>2017-05-27T08:52:03.172Z</time>
      </trkpt>
      <trkpt lat="39.91625333" lon="-0.39401333">
        <ele>662.0</ele>
        <time>2017-05-27T08:52:04.170Z</time>
      </trkpt>
      <trkpt lat="39.91623833" lon="-0.39396">
        <ele>663.0</ele>
        <time>2017-05-27T08:52:05.188Z</time>
      </trkpt>
      <trkpt lat="39.91623833" lon="-0.39396">
        <ele>663.0</ele>
        <time>2017-05-27T08:52:06.172Z</time>
      </trkpt>
      <trkpt lat="39.91623" lon="-0.39390167">
        <ele>663.0</ele>
        <time>2017-05-27T08:52:07.176Z</time>
      </trkpt>
      <trkpt lat="39.916225" lon="-0.39387667">
        <ele>663.0</ele>
        <time>2017-05-27T08:52:08.190Z</time>
      </trkpt>
      <trkpt lat="39.91622167" lon="-0.39385">
        <ele>663.0</ele>
        <time>2017-05-27T08:52:09.189Z</time>
      </trkpt>
      <trkpt lat="39.91622167" lon="-0.39385">
        <ele>663.0</ele>
        <time>2017-05-27T08:52:10.184Z</time>
      </trkpt>
      <trkpt lat="39.91622167" lon="-0.39379667">
        <ele>663.0</ele>
        <time>2017-05-27T08:52:11.167Z</time>
      </trkpt>
      <trkpt lat="39.91622167" lon="-0.39379667">
        <ele>663.0</ele>
        <time>2017-05-27T08:52:12.166Z</time>
      </trkpt>
      <trkpt lat="39.916225" lon="-0.39375333">
        <ele>663.0</ele>
        <time>2017-05-27T08:52:13.189Z</time>
      </trkpt>
      <trkpt lat="39.916225" lon="-0.39375333">
        <ele>663.0</ele>
        <time>2017-05-27T08:52:14.170Z</time>
      </trkpt>
      <trkpt lat="39.91623" lon="-0.39370833">
        <ele>664.0</ele>
        <time>2017-05-27T08:52:15.188Z</time>
      </trkpt>
      <trkpt lat="39.91623" lon="-0.39370833">
        <ele>664.0</ele>
        <time>2017-05-27T08:52:16.176Z</time>
      </trkpt>
      <trkpt lat="39.91622833" lon="-0.39365833">
        <ele>664.0</ele>
        <time>2017-05-27T08:52:17.185Z</time>
      </trkpt>
      <trkpt lat="39.91622833" lon="-0.39365833">
        <ele>664.0</ele>
        <time>2017-05-27T08:52:18.169Z</time>
      </trkpt>
      <trkpt lat="39.91621667" lon="-0.39361167">
        <ele>665.0</ele>
        <time>2017-05-27T08:52:19.159Z</time>
      </trkpt>
      <trkpt lat="39.91621167" lon="-0.39358833">
        <ele>665.0</ele>
        <time>2017-05-27T08:52:20.191Z</time>
      </trkpt>
      <trkpt lat="39.91621167" lon="-0.39358833">
        <ele>665.0</ele>
        <time>2017-05-27T08:52:21.183Z</time>
      </trkpt>
      <trkpt lat="39.91620667" lon="-0.39353667">
        <ele>665.0</ele>
        <time>2017-05-27T08:52:22.192Z</time>
      </trkpt>
      <trkpt lat="39.91620333" lon="-0.39351167">
        <ele>665.0</ele>
        <time>2017-05-27T08:52:23.182Z</time>
      </trkpt>
      <trkpt lat="39.91620333" lon="-0.39351167">
        <ele>665.0</ele>
        <time>2017-05-27T08:52:24.186Z</time>
      </trkpt>
      <trkpt lat="39.91619333" lon="-0.39345833">
        <ele>666.0</ele>
        <time>2017-05-27T08:52:25.169Z</time>
      </trkpt>
      <trkpt lat="39.91619333" lon="-0.39345833">
        <ele>666.0</ele>
        <time>2017-05-27T08:52:26.181Z</time>
      </trkpt>
      <trkpt lat="39.91618333" lon="-0.393395">
        <ele>666.0</ele>
        <time>2017-05-27T08:52:27.196Z</time>
      </trkpt>
      <trkpt lat="39.91618333" lon="-0.393395">
        <ele>666.0</ele>
        <time>2017-05-27T08:52:28.191Z</time>
      </trkpt>
      <trkpt lat="39.91617333" lon="-0.39334333">
        <ele>666.0</ele>
        <time>2017-05-27T08:52:29.164Z</time>
      </trkpt>
      <trkpt lat="39.916165" lon="-0.39332333">
        <ele>667.0</ele>
        <time>2017-05-27T08:52:30.159Z</time>
      </trkpt>
      <trkpt lat="39.916165" lon="-0.39332333">
        <ele>667.0</ele>
        <time>2017-05-27T08:52:31.183Z</time>
      </trkpt>
      <trkpt lat="39.91615167" lon="-0.39327667">
        <ele>667.0</ele>
        <time>2017-05-27T08:52:32.194Z</time>
      </trkpt>
      <trkpt lat="39.91615167" lon="-0.39327667">
        <ele>667.0</ele>
        <time>2017-05-27T08:52:33.185Z</time>
      </trkpt>
      <trkpt lat="39.91613333" lon="-0.39323333">
        <ele>667.0</ele>
        <time>2017-05-27T08:52:34.166Z</time>
      </trkpt>
      <trkpt lat="39.91613333" lon="-0.39323333">
        <ele>667.0</ele>
        <time>2017-05-27T08:52:35.187Z</time>
      </trkpt>
      <trkpt lat="39.91611167" lon="-0.393195">
        <ele>668.0</ele>
        <time>2017-05-27T08:52:36.162Z</time>
      </trkpt>
      <trkpt lat="39.91610333" lon="-0.39317667">
        <ele>668.0</ele>
        <time>2017-05-27T08:52:37.186Z</time>
      </trkpt>
      <trkpt lat="39.91610333" lon="-0.39317667">
        <ele>668.0</ele>
        <time>2017-05-27T08:52:38.192Z</time>
      </trkpt>
      <trkpt lat="39.91608167" lon="-0.39314333">
        <ele>668.0</ele>
        <time>2017-05-27T08:52:39.167Z</time>
      </trkpt>
      <trkpt lat="39.91606667" lon="-0.39312667">
        <ele>669.0</ele>
        <time>2017-05-27T08:52:40.210Z</time>
      </trkpt>
      <trkpt lat="39.91606667" lon="-0.39312667">
        <ele>669.0</ele>
        <time>2017-05-27T08:52:41.189Z</time>
      </trkpt>
      <trkpt lat="39.91603667" lon="-0.39309667">
        <ele>669.0</ele>
        <time>2017-05-27T08:52:42.163Z</time>
      </trkpt>
      <trkpt lat="39.91601833" lon="-0.393085">
        <ele>669.0</ele>
        <time>2017-05-27T08:52:43.194Z</time>
      </trkpt>
      <trkpt lat="39.91601833" lon="-0.393085">
        <ele>669.0</ele>
        <time>2017-05-27T08:52:44.160Z</time>
      </trkpt>
      <trkpt lat="39.91598333" lon="-0.393065">
        <ele>669.0</ele>
        <time>2017-05-27T08:52:45.158Z</time>
      </trkpt>
      <trkpt lat="39.91598333" lon="-0.393065">
        <ele>669.0</ele>
        <time>2017-05-27T08:52:46.192Z</time>
      </trkpt>
      <trkpt lat="39.915945" lon="-0.39304833">
        <ele>670.0</ele>
        <time>2017-05-27T08:52:47.171Z</time>
      </trkpt>
      <trkpt lat="39.915945" lon="-0.39304833">
        <ele>670.0</ele>
        <time>2017-05-27T08:52:48.166Z</time>
      </trkpt>
      <trkpt lat="39.915905" lon="-0.39303333">
        <ele>670.0</ele>
        <time>2017-05-27T08:52:49.182Z</time>
      </trkpt>
      <trkpt lat="39.915885" lon="-0.39302833">
        <ele>670.0</ele>
        <time>2017-05-27T08:52:50.166Z</time>
      </trkpt>
      <trkpt lat="39.915865" lon="-0.39302">
        <ele>671.0</ele>
        <time>2017-05-27T08:52:51.185Z</time>
      </trkpt>
      <trkpt lat="39.915865" lon="-0.39302">
        <ele>671.0</ele>
        <time>2017-05-27T08:52:52.173Z</time>
      </trkpt>
      <trkpt lat="39.91582833" lon="-0.39300833">
        <ele>672.0</ele>
        <time>2017-05-27T08:52:53.191Z</time>
      </trkpt>
      <trkpt lat="39.91580833" lon="-0.39300167">
        <ele>672.0</ele>
        <time>2017-05-27T08:52:54.170Z</time>
      </trkpt>
      <trkpt lat="39.91580833" lon="-0.39300167">
        <ele>672.0</ele>
        <time>2017-05-27T08:52:55.163Z</time>
      </trkpt>
      <trkpt lat="39.91577667" lon="-0.39299333">
        <ele>673.0</ele>
        <time>2017-05-27T08:52:56.178Z</time>
      </trkpt>
      <trkpt lat="39.91577667" lon="-0.39299333">
        <ele>673.0</ele>
        <time>2017-05-27T08:52:57.181Z</time>
      </trkpt>
      <trkpt lat="39.91575333" lon="-0.39298333">
        <ele>674.0</ele>
        <time>2017-05-27T08:52:58.190Z</time>
      </trkpt>
      <trkpt lat="39.91575333" lon="-0.39298333">
        <ele>674.0</ele>
        <time>2017-05-27T08:52:59.183Z</time>
      </trkpt>
      <trkpt lat="39.91572833" lon="-0.39297667">
        <ele>675.0</ele>
        <time>2017-05-27T08:53:00.192Z</time>
      </trkpt>
      <trkpt lat="39.91572833" lon="-0.39297667">
        <ele>675.0</ele>
        <time>2017-05-27T08:53:01.156Z</time>
      </trkpt>
      <trkpt lat="39.91570667" lon="-0.39298667">
        <ele>676.0</ele>
        <time>2017-05-27T08:53:02.168Z</time>
      </trkpt>
      <trkpt lat="39.91568833" lon="-0.39298">
        <ele>677.0</ele>
        <time>2017-05-27T08:53:03.171Z</time>
      </trkpt>
      <trkpt lat="39.91568833" lon="-0.39298">
        <ele>677.0</ele>
        <time>2017-05-27T08:53:04.183Z</time>
      </trkpt>
      <trkpt lat="39.91565667" lon="-0.39296333">
        <ele>678.0</ele>
        <time>2017-05-27T08:53:05.195Z</time>
      </trkpt>
      <trkpt lat="39.91563833" lon="-0.39295833">
        <ele>678.0</ele>
        <time>2017-05-27T08:53:06.193Z</time>
      </trkpt>
      <trkpt lat="39.91563833" lon="-0.39295833">
        <ele>678.0</ele>
        <time>2017-05-27T08:53:07.187Z</time>
      </trkpt>
      <trkpt lat="39.915595" lon="-0.39295">
        <ele>679.0</ele>
        <time>2017-05-27T08:53:08.197Z</time>
      </trkpt>
      <trkpt lat="39.915595" lon="-0.39295">
        <ele>679.0</ele>
        <time>2017-05-27T08:53:09.183Z</time>
      </trkpt>
      <trkpt lat="39.91555333" lon="-0.39294333">
        <ele>680.0</ele>
        <time>2017-05-27T08:53:10.157Z</time>
      </trkpt>
      <trkpt lat="39.91555333" lon="-0.39294333">
        <ele>680.0</ele>
        <time>2017-05-27T08:53:11.187Z</time>
      </trkpt>
      <trkpt lat="39.91551" lon="-0.39292">
        <ele>681.0</ele>
        <time>2017-05-27T08:53:12.160Z</time>
      </trkpt>
      <trkpt lat="39.91551" lon="-0.39292">
        <ele>681.0</ele>
        <time>2017-05-27T08:53:13.157Z</time>
      </trkpt>
      <trkpt lat="39.91546667" lon="-0.39289167">
        <ele>682.0</ele>
        <time>2017-05-27T08:53:14.186Z</time>
      </trkpt>
      <trkpt lat="39.91544667" lon="-0.39287667">
        <ele>682.0</ele>
        <time>2017-05-27T08:53:15.168Z</time>
      </trkpt>
      <trkpt lat="39.91544667" lon="-0.39287667">
        <ele>682.0</ele>
        <time>2017-05-27T08:53:16.193Z</time>
      </trkpt>
      <trkpt lat="39.91541333" lon="-0.39284833">
        <ele>683.0</ele>
        <time>2017-05-27T08:53:17.165Z</time>
      </trkpt>
      <trkpt lat="39.91540167" lon="-0.39283333">
        <ele>683.0</ele>
        <time>2017-05-27T08:53:18.177Z</time>
      </trkpt>
      <trkpt lat="39.91540167" lon="-0.39283333">
        <ele>683.0</ele>
        <time>2017-05-27T08:53:19.188Z</time>
      </trkpt>
      <trkpt lat="39.91537667" lon="-0.392805">
        <ele>684.0</ele>
        <time>2017-05-27T08:53:20.163Z</time>
      </trkpt>
      <trkpt lat="39.91537667" lon="-0.392805">
        <ele>684.0</ele>
        <time>2017-05-27T08:53:21.183Z</time>
      </trkpt>
      <trkpt lat="39.915355" lon="-0.39277667">
        <ele>684.0</ele>
        <time>2017-05-27T08:53:22.175Z</time>
      </trkpt>
      <trkpt lat="39.915345" lon="-0.39276">
        <ele>684.0</ele>
        <time>2017-05-27T08:53:23.165Z</time>
      </trkpt>
      <trkpt lat="39.915345" lon="-0.39276">
        <ele>684.0</ele>
        <time>2017-05-27T08:53:24.161Z</time>
      </trkpt>
      <trkpt lat="39.91532333" lon="-0.39272167">
        <ele>685.0</ele>
        <time>2017-05-27T08:53:25.172Z</time>
      </trkpt>
      <trkpt lat="39.91532333" lon="-0.39272167">
        <ele>685.0</ele>
        <time>2017-05-27T08:53:26.196Z</time>
      </trkpt>
      <trkpt lat="39.915305" lon="-0.39268">
        <ele>685.0</ele>
        <time>2017-05-27T08:53:27.166Z</time>
      </trkpt>
      <trkpt lat="39.915305" lon="-0.39268">
        <ele>685.0</ele>
        <time>2017-05-27T08:53:28.192Z</time>
      </trkpt>
      <trkpt lat="39.91527833" lon="-0.39263667">
        <ele>685.0</ele>
        <time>2017-05-27T08:53:29.168Z</time>
      </trkpt>
      <trkpt lat="39.91527833" lon="-0.39263667">
        <ele>685.0</ele>
        <time>2017-05-27T08:53:30.186Z</time>
      </trkpt>
      <trkpt lat="39.91526167" lon="-0.39258333">
        <ele>685.0</ele>
        <time>2017-05-27T08:53:31.160Z</time>
      </trkpt>
      <trkpt lat="39.91526167" lon="-0.39258333">
        <ele>685.0</ele>
        <time>2017-05-27T08:53:32.186Z</time>
      </trkpt>
      <trkpt lat="39.91524167" lon="-0.39253833">
        <ele>685.0</ele>
        <time>2017-05-27T08:53:33.156Z</time>
      </trkpt>
      <trkpt lat="39.91524167" lon="-0.39253833">
        <ele>685.0</ele>
        <time>2017-05-27T08:53:34.187Z</time>
      </trkpt>
      <trkpt lat="39.91523" lon="-0.39248833">
        <ele>685.0</ele>
        <time>2017-05-27T08:53:35.196Z</time>
      </trkpt>
      <trkpt lat="39.915225" lon="-0.392465">
        <ele>686.0</ele>
        <time>2017-05-27T08:53:36.163Z</time>
      </trkpt>
      <trkpt lat="39.915225" lon="-0.392465">
        <ele>686.0</ele>
        <time>2017-05-27T08:53:37.156Z</time>
      </trkpt>
      <trkpt lat="39.915225" lon="-0.39241">
        <ele>686.0</ele>
        <time>2017-05-27T08:53:38.167Z</time>
      </trkpt>
      <trkpt lat="39.915225" lon="-0.39241">
        <ele>686.0</ele>
        <time>2017-05-27T08:53:39.167Z</time>
      </trkpt>
      <trkpt lat="39.91523" lon="-0.39235333">
        <ele>687.0</ele>
        <time>2017-05-27T08:53:40.176Z</time>
      </trkpt>
      <trkpt lat="39.91523" lon="-0.39235333">
        <ele>687.0</ele>
        <time>2017-05-27T08:53:41.158Z</time>
      </trkpt>
      <trkpt lat="39.91524" lon="-0.3923">
        <ele>688.0</ele>
        <time>2017-05-27T08:53:42.168Z</time>
      </trkpt>
      <trkpt lat="39.91524" lon="-0.3923">
        <ele>688.0</ele>
        <time>2017-05-27T08:53:43.166Z</time>
      </trkpt>
      <trkpt lat="39.915245" lon="-0.392245">
        <ele>688.0</ele>
        <time>2017-05-27T08:53:44.178Z</time>
      </trkpt>
      <trkpt lat="39.91524833" lon="-0.39221833">
        <ele>688.0</ele>
        <time>2017-05-27T08:53:45.161Z</time>
      </trkpt>
      <trkpt lat="39.91524833" lon="-0.39221833">
        <ele>688.0</ele>
        <time>2017-05-27T08:53:46.156Z</time>
      </trkpt>
      <trkpt lat="39.91525333" lon="-0.392165">
        <ele>688.0</ele>
        <time>2017-05-27T08:53:47.173Z</time>
      </trkpt>
      <trkpt lat="39.91525333" lon="-0.392165">
        <ele>688.0</ele>
        <time>2017-05-27T08:53:48.166Z</time>
      </trkpt>
      <trkpt lat="39.91525833" lon="-0.392115">
        <ele>688.0</ele>
        <time>2017-05-27T08:53:49.175Z</time>
      </trkpt>
      <trkpt lat="39.91525833" lon="-0.392115">
        <ele>688.0</ele>
        <time>2017-05-27T08:53:50.166Z</time>
      </trkpt>
      <trkpt lat="39.915265" lon="-0.39206">
        <ele>688.0</ele>
        <time>2017-05-27T08:53:51.177Z</time>
      </trkpt>
      <trkpt lat="39.915265" lon="-0.39206">
        <ele>688.0</ele>
        <time>2017-05-27T08:53:52.194Z</time>
      </trkpt>
      <trkpt lat="39.91526833" lon="-0.39201167">
        <ele>689.0</ele>
        <time>2017-05-27T08:53:53.163Z</time>
      </trkpt>
      <trkpt lat="39.91527" lon="-0.39198667">
        <ele>689.0</ele>
        <time>2017-05-27T08:53:54.175Z</time>
      </trkpt>
      <trkpt lat="39.91527" lon="-0.39198667">
        <ele>689.0</ele>
        <time>2017-05-27T08:53:55.160Z</time>
      </trkpt>
      <trkpt lat="39.91526833" lon="-0.39193833">
        <ele>689.0</ele>
        <time>2017-05-27T08:53:56.176Z</time>
      </trkpt>
      <trkpt lat="39.91526333" lon="-0.391915">
        <ele>689.0</ele>
        <time>2017-05-27T08:53:57.173Z</time>
      </trkpt>
      <trkpt lat="39.91526333" lon="-0.391915">
        <ele>689.0</ele>
        <time>2017-05-27T08:53:58.187Z</time>
      </trkpt>
      <trkpt lat="39.915245" lon="-0.39186833">
        <ele>690.0</ele>
        <time>2017-05-27T08:53:59.157Z</time>
      </trkpt>
      <trkpt lat="39.91523833" lon="-0.39184667">
        <ele>690.0</ele>
        <time>2017-05-27T08:54:00.177Z</time>
      </trkpt>
      <trkpt lat="39.91523833" lon="-0.39184667">
        <ele>690.0</ele>
        <time>2017-05-27T08:54:01.156Z</time>
      </trkpt>
      <trkpt lat="39.91523833" lon="-0.39184667">
        <ele>690.0</ele>
        <time>2017-05-27T08:54:02.182Z</time>
      </trkpt>
      <trkpt lat="39.91520667" lon="-0.391805">
        <ele>690.0</ele>
        <time>2017-05-27T08:54:03.192Z</time>
      </trkpt>
      <trkpt lat="39.91517333" lon="-0.39176833">
        <ele>691.0</ele>
        <time>2017-05-27T08:54:04.164Z</time>
      </trkpt>
      <trkpt lat="39.91517333" lon="-0.39176833">
        <ele>691.0</ele>
        <time>2017-05-27T08:54:05.177Z</time>
      </trkpt>
      <trkpt lat="39.91514833" lon="-0.391735">
        <ele>691.0</ele>
        <time>2017-05-27T08:54:06.189Z</time>
      </trkpt>
      <trkpt lat="39.91514833" lon="-0.391735">
        <ele>691.0</ele>
        <time>2017-05-27T08:54:07.192Z</time>
      </trkpt>
      <trkpt lat="39.91511667" lon="-0.391715">
        <ele>692.0</ele>
        <time>2017-05-27T08:54:08.162Z</time>
      </trkpt>
      <trkpt lat="39.91511667" lon="-0.391715">
        <ele>692.0</ele>
        <time>2017-05-27T08:54:09.156Z</time>
      </trkpt>
      <trkpt lat="39.91508333" lon="-0.391695">
        <ele>692.0</ele>
        <time>2017-05-27T08:54:10.167Z</time>
      </trkpt>
      <trkpt lat="39.91508333" lon="-0.391695">
        <ele>692.0</ele>
        <time>2017-05-27T08:54:11.180Z</time>
      </trkpt>
      <trkpt lat="39.915045" lon="-0.391685">
        <ele>692.0</ele>
        <time>2017-05-27T08:54:12.192Z</time>
      </trkpt>
      <trkpt lat="39.915045" lon="-0.391685">
        <ele>692.0</ele>
        <time>2017-05-27T08:54:13.164Z</time>
      </trkpt>
      <trkpt lat="39.91500667" lon="-0.39167333">
        <ele>692.0</ele>
        <time>2017-05-27T08:54:14.175Z</time>
      </trkpt>
      <trkpt lat="39.91498667" lon="-0.39167667">
        <ele>693.0</ele>
        <time>2017-05-27T08:54:15.177Z</time>
      </trkpt>
      <trkpt lat="39.91498667" lon="-0.39167667">
        <ele>693.0</ele>
        <time>2017-05-27T08:54:16.184Z</time>
      </trkpt>
      <trkpt lat="39.91494833" lon="-0.39168">
        <ele>693.0</ele>
        <time>2017-05-27T08:54:17.192Z</time>
      </trkpt>
      <trkpt lat="39.91493" lon="-0.39167833">
        <ele>693.0</ele>
        <time>2017-05-27T08:54:18.158Z</time>
      </trkpt>
      <trkpt lat="39.91493" lon="-0.39167833">
        <ele>693.0</ele>
        <time>2017-05-27T08:54:19.162Z</time>
      </trkpt>
      <trkpt lat="39.914895" lon="-0.39168333">
        <ele>694.0</ele>
        <time>2017-05-27T08:54:20.174Z</time>
      </trkpt>
      <trkpt lat="39.914895" lon="-0.39168333">
        <ele>694.0</ele>
        <time>2017-05-27T08:54:21.166Z</time>
      </trkpt>
      <trkpt lat="39.91486" lon="-0.391695">
        <ele>695.0</ele>
        <time>2017-05-27T08:54:22.181Z</time>
      </trkpt>
      <trkpt lat="39.91484" lon="-0.3917">
        <ele>695.0</ele>
        <time>2017-05-27T08:54:23.162Z</time>
      </trkpt>
      <trkpt lat="39.914825" lon="-0.39170833">
        <ele>695.0</ele>
        <time>2017-05-27T08:54:24.162Z</time>
      </trkpt>
      <trkpt lat="39.914825" lon="-0.39170833">
        <ele>695.0</ele>
        <time>2017-05-27T08:54:25.157Z</time>
      </trkpt>
      <trkpt lat="39.91479" lon="-0.39171833">
        <ele>696.0</ele>
        <time>2017-05-27T08:54:26.177Z</time>
      </trkpt>
      <trkpt lat="39.91477333" lon="-0.39172167">
        <ele>696.0</ele>
        <time>2017-05-27T08:54:27.188Z</time>
      </trkpt>
      <trkpt lat="39.91477333" lon="-0.39172167">
        <ele>696.0</ele>
        <time>2017-05-27T08:54:28.187Z</time>
      </trkpt>
      <trkpt lat="39.91473833" lon="-0.39172833">
        <ele>696.0</ele>
        <time>2017-05-27T08:54:29.196Z</time>
      </trkpt>
      <trkpt lat="39.91473833" lon="-0.39172833">
        <ele>696.0</ele>
        <time>2017-05-27T08:54:30.156Z</time>
      </trkpt>
      <trkpt lat="39.91469833" lon="-0.391715">
        <ele>696.0</ele>
        <time>2017-05-27T08:54:31.171Z</time>
      </trkpt>
      <trkpt lat="39.91469833" lon="-0.391715">
        <ele>696.0</ele>
        <time>2017-05-27T08:54:32.174Z</time>
      </trkpt>
      <trkpt lat="39.91466833" lon="-0.39172667">
        <ele>697.0</ele>
        <time>2017-05-27T08:54:33.186Z</time>
      </trkpt>
      <trkpt lat="39.91465167" lon="-0.39173167">
        <ele>697.0</ele>
        <time>2017-05-27T08:54:34.192Z</time>
      </trkpt>
      <trkpt lat="39.91465167" lon="-0.39173167">
        <ele>697.0</ele>
        <time>2017-05-27T08:54:35.187Z</time>
      </trkpt>
      <trkpt lat="39.91462167" lon="-0.391735">
        <ele>697.0</ele>
        <time>2017-05-27T08:54:36.162Z</time>
      </trkpt>
      <trkpt lat="39.91462167" lon="-0.391735">
        <ele>697.0</ele>
        <time>2017-05-27T08:54:37.173Z</time>
      </trkpt>
      <trkpt lat="39.91458" lon="-0.39173">
        <ele>698.0</ele>
        <time>2017-05-27T08:54:38.187Z</time>
      </trkpt>
      <trkpt lat="39.91456" lon="-0.391725">
        <ele>698.0</ele>
        <time>2017-05-27T08:54:39.156Z</time>
      </trkpt>
      <trkpt lat="39.91456" lon="-0.391725">
        <ele>698.0</ele>
        <time>2017-05-27T08:54:40.157Z</time>
      </trkpt>
      <trkpt lat="39.91452167" lon="-0.391705">
        <ele>698.0</ele>
        <time>2017-05-27T08:54:41.168Z</time>
      </trkpt>
      <trkpt lat="39.91450167" lon="-0.39169667">
        <ele>698.0</ele>
        <time>2017-05-27T08:54:42.160Z</time>
      </trkpt>
      <trkpt lat="39.91450167" lon="-0.39169667">
        <ele>698.0</ele>
        <time>2017-05-27T08:54:43.167Z</time>
      </trkpt>
      <trkpt lat="39.914465" lon="-0.39167333">
        <ele>699.0</ele>
        <time>2017-05-27T08:54:44.173Z</time>
      </trkpt>
      <trkpt lat="39.914445" lon="-0.39165833">
        <ele>699.0</ele>
        <time>2017-05-27T08:54:45.173Z</time>
      </trkpt>
      <trkpt lat="39.914445" lon="-0.39165833">
        <ele>699.0</ele>
        <time>2017-05-27T08:54:46.181Z</time>
      </trkpt>
      <trkpt lat="39.91440667" lon="-0.39163167">
        <ele>699.0</ele>
        <time>2017-05-27T08:54:47.167Z</time>
      </trkpt>
      <trkpt lat="39.91440667" lon="-0.39163167">
        <ele>699.0</ele>
        <time>2017-05-27T08:54:48.163Z</time>
      </trkpt>
      <trkpt lat="39.91437167" lon="-0.39160333">
        <ele>699.0</ele>
        <time>2017-05-27T08:54:49.174Z</time>
      </trkpt>
      <trkpt lat="39.914355" lon="-0.39158833">
        <ele>699.0</ele>
        <time>2017-05-27T08:54:50.157Z</time>
      </trkpt>
      <trkpt lat="39.914355" lon="-0.39158833">
        <ele>699.0</ele>
        <time>2017-05-27T08:54:51.166Z</time>
      </trkpt>
      <trkpt lat="39.914325" lon="-0.39155167">
        <ele>699.0</ele>
        <time>2017-05-27T08:54:52.175Z</time>
      </trkpt>
      <trkpt lat="39.914325" lon="-0.39155167">
        <ele>699.0</ele>
        <time>2017-05-27T08:54:53.178Z</time>
      </trkpt>
      <trkpt lat="39.91430333" lon="-0.39151333">
        <ele>700.0</ele>
        <time>2017-05-27T08:54:54.196Z</time>
      </trkpt>
      <trkpt lat="39.91429333" lon="-0.39149333">
        <ele>700.0</ele>
        <time>2017-05-27T08:54:55.175Z</time>
      </trkpt>
      <trkpt lat="39.91429333" lon="-0.39149333">
        <ele>700.0</ele>
        <time>2017-05-27T08:54:56.187Z</time>
      </trkpt>
      <trkpt lat="39.914275" lon="-0.39144833">
        <ele>700.0</ele>
        <time>2017-05-27T08:54:57.156Z</time>
      </trkpt>
      <trkpt lat="39.914275" lon="-0.39144833">
        <ele>700.0</ele>
        <time>2017-05-27T08:54:58.187Z</time>
      </trkpt>
      <trkpt lat="39.914265" lon="-0.39139833">
        <ele>700.0</ele>
        <time>2017-05-27T08:54:59.162Z</time>
      </trkpt>
      <trkpt lat="39.91426167" lon="-0.39137167">
        <ele>700.0</ele>
        <time>2017-05-27T08:55:00.162Z</time>
      </trkpt>
      <trkpt lat="39.91426167" lon="-0.39137167">
        <ele>700.0</ele>
        <time>2017-05-27T08:55:01.190Z</time>
      </trkpt>
      <trkpt lat="39.91425833" lon="-0.39131">
        <ele>700.0</ele>
        <time>2017-05-27T08:55:02.168Z</time>
      </trkpt>
      <trkpt lat="39.914255" lon="-0.39128">
        <ele>700.0</ele>
        <time>2017-05-27T08:55:03.161Z</time>
      </trkpt>
      <trkpt lat="39.914255" lon="-0.39128">
        <ele>700.0</ele>
        <time>2017-05-27T08:55:04.183Z</time>
      </trkpt>
      <trkpt lat="39.91425" lon="-0.39122667">
        <ele>701.0</ele>
        <time>2017-05-27T08:55:05.161Z</time>
      </trkpt>
      <trkpt lat="39.91425" lon="-0.39122667">
        <ele>701.0</ele>
        <time>2017-05-27T08:55:06.191Z</time>
      </trkpt>
      <trkpt lat="39.914255" lon="-0.39117167">
        <ele>701.0</ele>
        <time>2017-05-27T08:55:07.168Z</time>
      </trkpt>
      <trkpt lat="39.91425333" lon="-0.39114667">
        <ele>701.0</ele>
        <time>2017-05-27T08:55:08.168Z</time>
      </trkpt>
      <trkpt lat="39.91425333" lon="-0.39112667">
        <ele>701.0</ele>
        <time>2017-05-27T08:55:09.168Z</time>
      </trkpt>
      <trkpt lat="39.91425333" lon="-0.39112667">
        <ele>701.0</ele>
        <time>2017-05-27T08:55:10.195Z</time>
      </trkpt>
      <trkpt lat="39.91424833" lon="-0.391075">
        <ele>701.0</ele>
        <time>2017-05-27T08:55:11.163Z</time>
      </trkpt>
      <trkpt lat="39.91424833" lon="-0.391075">
        <ele>701.0</ele>
        <time>2017-05-27T08:55:12.156Z</time>
      </trkpt>
      <trkpt lat="39.91425" lon="-0.39102167">
        <ele>701.0</ele>
        <time>2017-05-27T08:55:13.193Z</time>
      </trkpt>
      <trkpt lat="39.91425167" lon="-0.390995">
        <ele>701.0</ele>
        <time>2017-05-27T08:55:14.161Z</time>
      </trkpt>
      <trkpt lat="39.91425167" lon="-0.39096833">
        <ele>701.0</ele>
        <time>2017-05-27T08:55:15.159Z</time>
      </trkpt>
      <trkpt lat="39.91425167" lon="-0.39096833">
        <ele>701.0</ele>
        <time>2017-05-27T08:55:16.183Z</time>
      </trkpt>
      <trkpt lat="39.91424667" lon="-0.39091333">
        <ele>702.0</ele>
        <time>2017-05-27T08:55:17.177Z</time>
      </trkpt>
      <trkpt lat="39.91424667" lon="-0.39091333">
        <ele>702.0</ele>
        <time>2017-05-27T08:55:18.164Z</time>
      </trkpt>
      <trkpt lat="39.91423833" lon="-0.39085833">
        <ele>702.0</ele>
        <time>2017-05-27T08:55:19.188Z</time>
      </trkpt>
      <trkpt lat="39.91423833" lon="-0.39085833">
        <ele>702.0</ele>
        <time>2017-05-27T08:55:20.157Z</time>
      </trkpt>
      <trkpt lat="39.91423" lon="-0.39080833">
        <ele>702.0</ele>
        <time>2017-05-27T08:55:21.166Z</time>
      </trkpt>
      <trkpt lat="39.91423" lon="-0.39080833">
        <ele>702.0</ele>
        <time>2017-05-27T08:55:22.166Z</time>
      </trkpt>
      <trkpt lat="39.91422167" lon="-0.39076667">
        <ele>703.0</ele>
        <time>2017-05-27T08:55:23.176Z</time>
      </trkpt>
      <trkpt lat="39.914215" lon="-0.39074833">
        <ele>703.0</ele>
        <time>2017-05-27T08:55:24.196Z</time>
      </trkpt>
      <trkpt lat="39.914215" lon="-0.39074833">
        <ele>703.0</ele>
        <time>2017-05-27T08:55:25.187Z</time>
      </trkpt>
      <trkpt lat="39.91419667" lon="-0.39070667">
        <ele>703.0</ele>
        <time>2017-05-27T08:55:26.162Z</time>
      </trkpt>
      <trkpt lat="39.91419667" lon="-0.39070667">
        <ele>703.0</ele>
        <time>2017-05-27T08:55:27.156Z</time>
      </trkpt>
      <trkpt lat="39.91417833" lon="-0.39066167">
        <ele>703.0</ele>
        <time>2017-05-27T08:55:28.169Z</time>
      </trkpt>
      <trkpt lat="39.91417833" lon="-0.39066167">
        <ele>703.0</ele>
        <time>2017-05-27T08:55:29.190Z</time>
      </trkpt>
      <trkpt lat="39.91416167" lon="-0.390615">
        <ele>704.0</ele>
        <time>2017-05-27T08:55:30.184Z</time>
      </trkpt>
      <trkpt lat="39.91416167" lon="-0.390615">
        <ele>704.0</ele>
        <time>2017-05-27T08:55:31.176Z</time>
      </trkpt>
      <trkpt lat="39.91414" lon="-0.390565">
        <ele>704.0</ele>
        <time>2017-05-27T08:55:32.187Z</time>
      </trkpt>
      <trkpt lat="39.91413333" lon="-0.39053667">
        <ele>704.0</ele>
        <time>2017-05-27T08:55:33.177Z</time>
      </trkpt>
      <trkpt lat="39.91413333" lon="-0.39053667">
        <ele>704.0</ele>
        <time>2017-05-27T08:55:34.161Z</time>
      </trkpt>
      <trkpt lat="39.91410833" lon="-0.39048833">
        <ele>704.0</ele>
        <time>2017-05-27T08:55:35.170Z</time>
      </trkpt>
      <trkpt lat="39.91409333" lon="-0.390465">
        <ele>705.0</ele>
        <time>2017-05-27T08:55:36.162Z</time>
      </trkpt>
      <trkpt lat="39.91409333" lon="-0.390465">
        <ele>705.0</ele>
        <time>2017-05-27T08:55:37.180Z</time>
      </trkpt>
      <trkpt lat="39.91406167" lon="-0.39041667">
        <ele>705.0</ele>
        <time>2017-05-27T08:55:38.193Z</time>
      </trkpt>
      <trkpt lat="39.91405167" lon="-0.39038833">
        <ele>705.0</ele>
        <time>2017-05-27T08:55:39.167Z</time>
      </trkpt>
      <trkpt lat="39.91405167" lon="-0.39038833">
        <ele>705.0</ele>
        <time>2017-05-27T08:55:40.185Z</time>
      </trkpt>
      <trkpt lat="39.91403167" lon="-0.39033333">
        <ele>705.0</ele>
        <time>2017-05-27T08:55:41.173Z</time>
      </trkpt>
      <trkpt lat="39.91402167" lon="-0.39030833">
        <ele>705.0</ele>
        <time>2017-05-27T08:55:42.195Z</time>
      </trkpt>
      <trkpt lat="39.91402167" lon="-0.39030833">
        <ele>705.0</ele>
        <time>2017-05-27T08:55:43.177Z</time>
      </trkpt>
      <trkpt lat="39.91400667" lon="-0.39025667">
        <ele>706.0</ele>
        <time>2017-05-27T08:55:44.166Z</time>
      </trkpt>
      <trkpt lat="39.91400667" lon="-0.39025667">
        <ele>706.0</ele>
        <time>2017-05-27T08:55:45.158Z</time>
      </trkpt>
      <trkpt lat="39.91398667" lon="-0.390205">
        <ele>706.0</ele>
        <time>2017-05-27T08:55:46.177Z</time>
      </trkpt>
      <trkpt lat="39.91397667" lon="-0.39018">
        <ele>706.0</ele>
        <time>2017-05-27T08:55:47.187Z</time>
      </trkpt>
      <trkpt lat="39.91397667" lon="-0.39018">
        <ele>706.0</ele>
        <time>2017-05-27T08:55:48.167Z</time>
      </trkpt>
      <trkpt lat="39.91395667" lon="-0.39013167">
        <ele>706.0</ele>
        <time>2017-05-27T08:55:49.180Z</time>
      </trkpt>
      <trkpt lat="39.91395667" lon="-0.39013167">
        <ele>706.0</ele>
        <time>2017-05-27T08:55:50.167Z</time>
      </trkpt>
      <trkpt lat="39.91393667" lon="-0.39008167">
        <ele>707.0</ele>
        <time>2017-05-27T08:55:51.176Z</time>
      </trkpt>
      <trkpt lat="39.91393667" lon="-0.39008167">
        <ele>707.0</ele>
        <time>2017-05-27T08:55:52.187Z</time>
      </trkpt>
      <trkpt lat="39.91391667" lon="-0.390025">
        <ele>707.0</ele>
        <time>2017-05-27T08:55:53.160Z</time>
      </trkpt>
      <trkpt lat="39.91391667" lon="-0.390025">
        <ele>707.0</ele>
        <time>2017-05-27T08:55:54.180Z</time>
      </trkpt>
      <trkpt lat="39.91389833" lon="-0.38996667">
        <ele>707.0</ele>
        <time>2017-05-27T08:55:55.162Z</time>
      </trkpt>
      <trkpt lat="39.91389" lon="-0.38994">
        <ele>707.0</ele>
        <time>2017-05-27T08:55:56.191Z</time>
      </trkpt>
      <trkpt lat="39.91389" lon="-0.38994">
        <ele>707.0</ele>
        <time>2017-05-27T08:55:57.184Z</time>
      </trkpt>
      <trkpt lat="39.91387667" lon="-0.3899">
        <ele>707.0</ele>
        <time>2017-05-27T08:55:58.194Z</time>
      </trkpt>
      <trkpt lat="39.91387667" lon="-0.3899">
        <ele>707.0</ele>
        <time>2017-05-27T08:55:59.189Z</time>
      </trkpt>
      <trkpt lat="39.913855" lon="-0.38985">
        <ele>707.0</ele>
        <time>2017-05-27T08:56:00.184Z</time>
      </trkpt>
      <trkpt lat="39.91384" lon="-0.38982333">
        <ele>707.0</ele>
        <time>2017-05-27T08:56:01.172Z</time>
      </trkpt>
      <trkpt lat="39.91384" lon="-0.38982333">
        <ele>707.0</ele>
        <time>2017-05-27T08:56:02.156Z</time>
      </trkpt>
      <trkpt lat="39.91381333" lon="-0.38975167">
        <ele>708.0</ele>
        <time>2017-05-27T08:56:03.174Z</time>
      </trkpt>
      <trkpt lat="39.91381333" lon="-0.38975167">
        <ele>708.0</ele>
        <time>2017-05-27T08:56:04.182Z</time>
      </trkpt>
      <trkpt lat="39.91377833" lon="-0.389695">
        <ele>708.0</ele>
        <time>2017-05-27T08:56:05.193Z</time>
      </trkpt>
      <trkpt lat="39.91377833" lon="-0.389695">
        <ele>708.0</ele>
        <time>2017-05-27T08:56:06.156Z</time>
      </trkpt>
      <trkpt lat="39.913755" lon="-0.38963667">
        <ele>708.0</ele>
        <time>2017-05-27T08:56:07.168Z</time>
      </trkpt>
      <trkpt lat="39.913755" lon="-0.38963667">
        <ele>708.0</ele>
        <time>2017-05-27T08:56:08.195Z</time>
      </trkpt>
      <trkpt lat="39.91373333" lon="-0.38958333">
        <ele>708.0</ele>
        <time>2017-05-27T08:56:09.178Z</time>
      </trkpt>
      <trkpt lat="39.91373333" lon="-0.38958333">
        <ele>708.0</ele>
        <time>2017-05-27T08:56:10.156Z</time>
      </trkpt>
      <trkpt lat="39.91370833" lon="-0.389535">
        <ele>709.0</ele>
        <time>2017-05-27T08:56:11.168Z</time>
      </trkpt>
      <trkpt lat="39.91370833" lon="-0.389535">
        <ele>709.0</ele>
        <time>2017-05-27T08:56:12.191Z</time>
      </trkpt>
      <trkpt lat="39.913685" lon="-0.389485">
        <ele>709.0</ele>
        <time>2017-05-27T08:56:13.176Z</time>
      </trkpt>
      <trkpt lat="39.913685" lon="-0.389485">
        <ele>709.0</ele>
        <time>2017-05-27T08:56:14.166Z</time>
      </trkpt>
      <trkpt lat="39.91365833" lon="-0.38943833">
        <ele>709.0</ele>
        <time>2017-05-27T08:56:15.178Z</time>
      </trkpt>
      <trkpt lat="39.91365833" lon="-0.38943833">
        <ele>709.0</ele>
        <time>2017-05-27T08:56:16.180Z</time>
      </trkpt>
      <trkpt lat="39.91363667" lon="-0.38939167">
        <ele>709.0</ele>
        <time>2017-05-27T08:56:17.195Z</time>
      </trkpt>
      <trkpt lat="39.91363667" lon="-0.38939167">
        <ele>709.0</ele>
        <time>2017-05-27T08:56:18.166Z</time>
      </trkpt>
      <trkpt lat="39.91361833" lon="-0.38934333">
        <ele>709.0</ele>
        <time>2017-05-27T08:56:19.179Z</time>
      </trkpt>
      <trkpt lat="39.91361833" lon="-0.38934333">
        <ele>709.0</ele>
        <time>2017-05-27T08:56:20.190Z</time>
      </trkpt>
      <trkpt lat="39.91359833" lon="-0.38929">
        <ele>709.0</ele>
        <time>2017-05-27T08:56:21.166Z</time>
      </trkpt>
      <trkpt lat="39.91359833" lon="-0.38929">
        <ele>709.0</ele>
        <time>2017-05-27T08:56:22.195Z</time>
      </trkpt>
      <trkpt lat="39.913575" lon="-0.38924833">
        <ele>709.0</ele>
        <time>2017-05-27T08:56:23.163Z</time>
      </trkpt>
      <trkpt lat="39.913575" lon="-0.38924833">
        <ele>709.0</ele>
        <time>2017-05-27T08:56:24.194Z</time>
      </trkpt>
      <trkpt lat="39.91355" lon="-0.38920167">
        <ele>709.0</ele>
        <time>2017-05-27T08:56:25.181Z</time>
      </trkpt>
      <trkpt lat="39.91355" lon="-0.38920167">
        <ele>709.0</ele>
        <time>2017-05-27T08:56:26.184Z</time>
      </trkpt>
      <trkpt lat="39.91352833" lon="-0.38915167">
        <ele>710.0</ele>
        <time>2017-05-27T08:56:27.194Z</time>
      </trkpt>
      <trkpt lat="39.91352833" lon="-0.38915167">
        <ele>710.0</ele>
        <time>2017-05-27T08:56:28.174Z</time>
      </trkpt>
      <trkpt lat="39.91350167" lon="-0.38910167">
        <ele>710.0</ele>
        <time>2017-05-27T08:56:29.183Z</time>
      </trkpt>
      <trkpt lat="39.91348667" lon="-0.38907667">
        <ele>710.0</ele>
        <time>2017-05-27T08:56:30.163Z</time>
      </trkpt>
      <trkpt lat="39.91348667" lon="-0.38907667">
        <ele>710.0</ele>
        <time>2017-05-27T08:56:31.184Z</time>
      </trkpt>
      <trkpt lat="39.913455" lon="-0.38902667">
        <ele>710.0</ele>
        <time>2017-05-27T08:56:32.163Z</time>
      </trkpt>
      <trkpt lat="39.91344" lon="-0.38900167">
        <ele>711.0</ele>
        <time>2017-05-27T08:56:33.174Z</time>
      </trkpt>
      <trkpt lat="39.91344" lon="-0.38900167">
        <ele>711.0</ele>
        <time>2017-05-27T08:56:34.183Z</time>
      </trkpt>
      <trkpt lat="39.91340167" lon="-0.38894333">
        <ele>711.0</ele>
        <time>2017-05-27T08:56:35.193Z</time>
      </trkpt>
      <trkpt lat="39.91340167" lon="-0.38894333">
        <ele>711.0</ele>
        <time>2017-05-27T08:56:36.192Z</time>
      </trkpt>
      <trkpt lat="39.91336667" lon="-0.38890167">
        <ele>711.0</ele>
        <time>2017-05-27T08:56:37.166Z</time>
      </trkpt>
      <trkpt lat="39.91336667" lon="-0.38890167">
        <ele>711.0</ele>
        <time>2017-05-27T08:56:38.167Z</time>
      </trkpt>
      <trkpt lat="39.913325" lon="-0.38886833">
        <ele>711.0</ele>
        <time>2017-05-27T08:56:39.177Z</time>
      </trkpt>
      <trkpt lat="39.913325" lon="-0.38886833">
        <ele>711.0</ele>
        <time>2017-05-27T08:56:40.175Z</time>
      </trkpt>
      <trkpt lat="39.91328667" lon="-0.38883">
        <ele>711.0</ele>
        <time>2017-05-27T08:56:41.192Z</time>
      </trkpt>
      <trkpt lat="39.91328667" lon="-0.38883">
        <ele>711.0</ele>
        <time>2017-05-27T08:56:42.162Z</time>
      </trkpt>
      <trkpt lat="39.91324833" lon="-0.38879167">
        <ele>712.0</ele>
        <time>2017-05-27T08:56:43.171Z</time>
      </trkpt>
      <trkpt lat="39.91324833" lon="-0.38879167">
        <ele>712.0</ele>
        <time>2017-05-27T08:56:44.182Z</time>
      </trkpt>
      <trkpt lat="39.91320833" lon="-0.38876167">
        <ele>712.0</ele>
        <time>2017-05-27T08:56:45.195Z</time>
      </trkpt>
      <trkpt lat="39.91320833" lon="-0.38876167">
        <ele>712.0</ele>
        <time>2017-05-27T08:56:46.190Z</time>
      </trkpt>
      <trkpt lat="39.91317" lon="-0.38873667">
        <ele>713.0</ele>
        <time>2017-05-27T08:56:47.159Z</time>
      </trkpt>
      <trkpt lat="39.91317" lon="-0.38873667">
        <ele>713.0</ele>
        <time>2017-05-27T08:56:48.171Z</time>
      </trkpt>
      <trkpt lat="39.913135" lon="-0.3887">
        <ele>714.0</ele>
        <time>2017-05-27T08:56:49.192Z</time>
      </trkpt>
      <trkpt lat="39.913135" lon="-0.3887">
        <ele>714.0</ele>
        <time>2017-05-27T08:56:50.192Z</time>
      </trkpt>
      <trkpt lat="39.913105" lon="-0.38865667">
        <ele>714.0</ele>
        <time>2017-05-27T08:56:51.162Z</time>
      </trkpt>
      <trkpt lat="39.913105" lon="-0.38865667">
        <ele>714.0</ele>
        <time>2017-05-27T08:56:52.161Z</time>
      </trkpt>
      <trkpt lat="39.91307167" lon="-0.38861">
        <ele>714.0</ele>
        <time>2017-05-27T08:56:53.175Z</time>
      </trkpt>
      <trkpt lat="39.91307167" lon="-0.38861">
        <ele>714.0</ele>
        <time>2017-05-27T08:56:54.162Z</time>
      </trkpt>
      <trkpt lat="39.91303833" lon="-0.38855333">
        <ele>714.0</ele>
        <time>2017-05-27T08:56:55.172Z</time>
      </trkpt>
      <trkpt lat="39.91303833" lon="-0.38855333">
        <ele>714.0</ele>
        <time>2017-05-27T08:56:56.157Z</time>
      </trkpt>
      <trkpt lat="39.91300833" lon="-0.3885">
        <ele>714.0</ele>
        <time>2017-05-27T08:56:57.166Z</time>
      </trkpt>
      <trkpt lat="39.91300833" lon="-0.3885">
        <ele>714.0</ele>
        <time>2017-05-27T08:56:58.190Z</time>
      </trkpt>
      <trkpt lat="39.912975" lon="-0.38843667">
        <ele>714.0</ele>
        <time>2017-05-27T08:56:59.162Z</time>
      </trkpt>
      <trkpt lat="39.912975" lon="-0.38843667">
        <ele>714.0</ele>
        <time>2017-05-27T08:57:00.182Z</time>
      </trkpt>
      <trkpt lat="39.91294667" lon="-0.388365">
        <ele>714.0</ele>
        <time>2017-05-27T08:57:01.191Z</time>
      </trkpt>
      <trkpt lat="39.91294667" lon="-0.388365">
        <ele>714.0</ele>
        <time>2017-05-27T08:57:02.187Z</time>
      </trkpt>
      <trkpt lat="39.91292167" lon="-0.38828333">
        <ele>714.0</ele>
        <time>2017-05-27T08:57:03.160Z</time>
      </trkpt>
      <trkpt lat="39.91292167" lon="-0.38828333">
        <ele>714.0</ele>
        <time>2017-05-27T08:57:04.157Z</time>
      </trkpt>
      <trkpt lat="39.91289333" lon="-0.388195">
        <ele>713.0</ele>
        <time>2017-05-27T08:57:05.168Z</time>
      </trkpt>
      <trkpt lat="39.91289333" lon="-0.388195">
        <ele>713.0</ele>
        <time>2017-05-27T08:57:06.187Z</time>
      </trkpt>
      <trkpt lat="39.91286333" lon="-0.38808167">
        <ele>713.0</ele>
        <time>2017-05-27T08:57:07.158Z</time>
      </trkpt>
      <trkpt lat="39.91286333" lon="-0.38808167">
        <ele>713.0</ele>
        <time>2017-05-27T08:57:08.188Z</time>
      </trkpt>
      <trkpt lat="39.91284667" lon="-0.38794">
        <ele>712.0</ele>
        <time>2017-05-27T08:57:09.160Z</time>
      </trkpt>
      <trkpt lat="39.91284667" lon="-0.38794">
        <ele>712.0</ele>
        <time>2017-05-27T08:57:10.156Z</time>
      </trkpt>
      <trkpt lat="39.91282833" lon="-0.38777833">
        <ele>711.0</ele>
        <time>2017-05-27T08:57:11.167Z</time>
      </trkpt>
      <trkpt lat="39.91282833" lon="-0.38777833">
        <ele>711.0</ele>
        <time>2017-05-27T08:57:12.187Z</time>
      </trkpt>
      <trkpt lat="39.912805" lon="-0.38759167">
        <ele>710.0</ele>
        <time>2017-05-27T08:57:13.171Z</time>
      </trkpt>
      <trkpt lat="39.91279333" lon="-0.38748667">
        <ele>709.0</ele>
        <time>2017-05-27T08:57:14.174Z</time>
      </trkpt>
      <trkpt lat="39.91279333" lon="-0.38748667">
        <ele>709.0</ele>
        <time>2017-05-27T08:57:15.188Z</time>
      </trkpt>
      <trkpt lat="39.91278667" lon="-0.38726167">
        <ele>708.0</ele>
        <time>2017-05-27T08:57:16.160Z</time>
      </trkpt>
      <trkpt lat="39.91278667" lon="-0.38726167">
        <ele>708.0</ele>
        <time>2017-05-27T08:57:17.158Z</time>
      </trkpt>
      <trkpt lat="39.91276" lon="-0.387015">
        <ele>706.0</ele>
        <time>2017-05-27T08:57:18.168Z</time>
      </trkpt>
      <trkpt lat="39.91274667" lon="-0.38688333">
        <ele>705.0</ele>
        <time>2017-05-27T08:57:19.187Z</time>
      </trkpt>
      <trkpt lat="39.91274667" lon="-0.38688333">
        <ele>705.0</ele>
        <time>2017-05-27T08:57:20.193Z</time>
      </trkpt>
      <trkpt lat="39.912725" lon="-0.38660667">
        <ele>703.0</ele>
        <time>2017-05-27T08:57:21.180Z</time>
      </trkpt>
      <trkpt lat="39.912725" lon="-0.38660667">
        <ele>703.0</ele>
        <time>2017-05-27T08:57:22.158Z</time>
      </trkpt>
      <trkpt lat="39.91271833" lon="-0.386315">
        <ele>701.0</ele>
        <time>2017-05-27T08:57:23.172Z</time>
      </trkpt>
      <trkpt lat="39.91271833" lon="-0.386315">
        <ele>701.0</ele>
        <time>2017-05-27T08:57:24.156Z</time>
      </trkpt>
      <trkpt lat="39.91271167" lon="-0.38600333">
        <ele>699.0</ele>
        <time>2017-05-27T08:57:25.190Z</time>
      </trkpt>
      <trkpt lat="39.91270333" lon="-0.38584">
        <ele>698.0</ele>
        <time>2017-05-27T08:57:26.188Z</time>
      </trkpt>
      <trkpt lat="39.912685" lon="-0.38567167">
        <ele>697.0</ele>
        <time>2017-05-27T08:57:27.157Z</time>
      </trkpt>
      <trkpt lat="39.912685" lon="-0.38567167">
        <ele>697.0</ele>
        <time>2017-05-27T08:57:28.172Z</time>
      </trkpt>
      <trkpt lat="39.91263" lon="-0.38532333">
        <ele>695.0</ele>
        <time>2017-05-27T08:57:29.194Z</time>
      </trkpt>
      <trkpt lat="39.91263" lon="-0.38532333">
        <ele>695.0</ele>
        <time>2017-05-27T08:57:30.181Z</time>
      </trkpt>
      <trkpt lat="39.91256833" lon="-0.38497833">
        <ele>693.0</ele>
        <time>2017-05-27T08:57:31.194Z</time>
      </trkpt>
      <trkpt lat="39.91256833" lon="-0.38497833">
        <ele>693.0</ele>
        <time>2017-05-27T08:57:32.157Z</time>
      </trkpt>
      <trkpt lat="39.91252" lon="-0.38463667">
        <ele>690.0</ele>
        <time>2017-05-27T08:57:33.189Z</time>
      </trkpt>
      <trkpt lat="39.91252" lon="-0.38463667">
        <ele>690.0</ele>
        <time>2017-05-27T08:57:34.187Z</time>
      </trkpt>
      <trkpt lat="39.91247333" lon="-0.384295">
        <ele>688.0</ele>
        <time>2017-05-27T08:57:35.195Z</time>
      </trkpt>
      <trkpt lat="39.91247333" lon="-0.384295">
        <ele>688.0</ele>
        <time>2017-05-27T08:57:36.172Z</time>
      </trkpt>
      <trkpt lat="39.91242667" lon="-0.38395833">
        <ele>687.0</ele>
        <time>2017-05-27T08:57:37.197Z</time>
      </trkpt>
      <trkpt lat="39.91239667" lon="-0.38379833">
        <ele>686.0</ele>
        <time>2017-05-27T08:57:38.188Z</time>
      </trkpt>
      <trkpt lat="39.91236333" lon="-0.38365">
        <ele>685.0</ele>
        <time>2017-05-27T08:57:39.174Z</time>
      </trkpt>
      <trkpt lat="39.91236333" lon="-0.38365">
        <ele>685.0</ele>
        <time>2017-05-27T08:57:40.180Z</time>
      </trkpt>
      <trkpt lat="39.91227" lon="-0.38338">
        <ele>683.0</ele>
        <time>2017-05-27T08:57:41.189Z</time>
      </trkpt>
      <trkpt lat="39.91223" lon="-0.38323167">
        <ele>683.0</ele>
        <time>2017-05-27T08:57:42.177Z</time>
      </trkpt>
      <trkpt lat="39.91223" lon="-0.38323167">
        <ele>683.0</ele>
        <time>2017-05-27T08:57:43.187Z</time>
      </trkpt>
      <trkpt lat="39.91224833" lon="-0.38292833">
        <ele>680.0</ele>
        <time>2017-05-27T08:57:44.156Z</time>
      </trkpt>
      <trkpt lat="39.91228167" lon="-0.38277333">
        <ele>679.0</ele>
        <time>2017-05-27T08:57:45.174Z</time>
      </trkpt>
      <trkpt lat="39.91228167" lon="-0.38277333">
        <ele>679.0</ele>
        <time>2017-05-27T08:57:46.168Z</time>
      </trkpt>
      <trkpt lat="39.912335" lon="-0.382445">
        <ele>675.0</ele>
        <time>2017-05-27T08:57:47.176Z</time>
      </trkpt>
      <trkpt lat="39.912335" lon="-0.382445">
        <ele>675.0</ele>
        <time>2017-05-27T08:57:48.164Z</time>
      </trkpt>
      <trkpt lat="39.91238667" lon="-0.38209833">
        <ele>672.0</ele>
        <time>2017-05-27T08:57:49.176Z</time>
      </trkpt>
      <trkpt lat="39.91238667" lon="-0.38209833">
        <ele>672.0</ele>
        <time>2017-05-27T08:57:50.167Z</time>
      </trkpt>
      <trkpt lat="39.91244333" lon="-0.38175167">
        <ele>670.0</ele>
        <time>2017-05-27T08:57:51.177Z</time>
      </trkpt>
      <trkpt lat="39.91244333" lon="-0.38175167">
        <ele>670.0</ele>
        <time>2017-05-27T08:57:52.182Z</time>
      </trkpt>
      <trkpt lat="39.91249667" lon="-0.38140833">
        <ele>667.0</ele>
        <time>2017-05-27T08:57:53.157Z</time>
      </trkpt>
      <trkpt lat="39.91249667" lon="-0.38140833">
        <ele>667.0</ele>
        <time>2017-05-27T08:57:54.156Z</time>
      </trkpt>
      <trkpt lat="39.91251833" lon="-0.38105">
        <ele>664.0</ele>
        <time>2017-05-27T08:57:55.164Z</time>
      </trkpt>
      <trkpt lat="39.91251833" lon="-0.38105">
        <ele>664.0</ele>
        <time>2017-05-27T08:57:56.191Z</time>
      </trkpt>
      <trkpt lat="39.91249333" lon="-0.380685">
        <ele>662.0</ele>
        <time>2017-05-27T08:57:57.160Z</time>
      </trkpt>
      <trkpt lat="39.91249333" lon="-0.380685">
        <ele>662.0</ele>
        <time>2017-05-27T08:57:58.173Z</time>
      </trkpt>
      <trkpt lat="39.91249667" lon="-0.380325">
        <ele>659.0</ele>
        <time>2017-05-27T08:57:59.184Z</time>
      </trkpt>
      <trkpt lat="39.91249667" lon="-0.380325">
        <ele>659.0</ele>
        <time>2017-05-27T08:58:00.186Z</time>
      </trkpt>
      <trkpt lat="39.91251" lon="-0.37999167">
        <ele>656.0</ele>
        <time>2017-05-27T08:58:01.168Z</time>
      </trkpt>
      <trkpt lat="39.91251" lon="-0.37999167">
        <ele>656.0</ele>
        <time>2017-05-27T08:58:02.186Z</time>
      </trkpt>
      <trkpt lat="39.91251" lon="-0.37969167">
        <ele>653.0</ele>
        <time>2017-05-27T08:58:03.156Z</time>
      </trkpt>
      <trkpt lat="39.91249667" lon="-0.379545">
        <ele>653.0</ele>
        <time>2017-05-27T08:58:04.172Z</time>
      </trkpt>
      <trkpt lat="39.91249667" lon="-0.379545">
        <ele>653.0</ele>
        <time>2017-05-27T08:58:05.163Z</time>
      </trkpt>
      <trkpt lat="39.912455" lon="-0.37929">
        <ele>650.0</ele>
        <time>2017-05-27T08:58:06.177Z</time>
      </trkpt>
      <trkpt lat="39.91245833" lon="-0.37919167">
        <ele>649.0</ele>
        <time>2017-05-27T08:58:07.174Z</time>
      </trkpt>
      <trkpt lat="39.91245833" lon="-0.37919167">
        <ele>649.0</ele>
        <time>2017-05-27T08:58:08.181Z</time>
      </trkpt>
      <trkpt lat="39.91250667" lon="-0.37905667">
        <ele>647.0</ele>
        <time>2017-05-27T08:58:09.189Z</time>
      </trkpt>
      <trkpt lat="39.91250667" lon="-0.37905667">
        <ele>647.0</ele>
        <time>2017-05-27T08:58:10.182Z</time>
      </trkpt>
      <trkpt lat="39.91261" lon="-0.37910333">
        <ele>645.0</ele>
        <time>2017-05-27T08:58:11.194Z</time>
      </trkpt>
      <trkpt lat="39.91264833" lon="-0.379185">
        <ele>644.0</ele>
        <time>2017-05-27T08:58:12.177Z</time>
      </trkpt>
      <trkpt lat="39.91264833" lon="-0.379185">
        <ele>644.0</ele>
        <time>2017-05-27T08:58:13.157Z</time>
      </trkpt>
      <trkpt lat="39.912695" lon="-0.37938833">
        <ele>642.0</ele>
        <time>2017-05-27T08:58:14.193Z</time>
      </trkpt>
      <trkpt lat="39.91271833" lon="-0.379495">
        <ele>642.0</ele>
        <time>2017-05-27T08:58:15.170Z</time>
      </trkpt>
      <trkpt lat="39.91271833" lon="-0.379495">
        <ele>642.0</ele>
        <time>2017-05-27T08:58:16.182Z</time>
      </trkpt>
      <trkpt lat="39.91279" lon="-0.37971833">
        <ele>640.0</ele>
        <time>2017-05-27T08:58:17.192Z</time>
      </trkpt>
      <trkpt lat="39.91283167" lon="-0.37983333">
        <ele>640.0</ele>
        <time>2017-05-27T08:58:18.177Z</time>
      </trkpt>
      <trkpt lat="39.91283167" lon="-0.37983333">
        <ele>640.0</ele>
        <time>2017-05-27T08:58:19.186Z</time>
      </trkpt>
      <trkpt lat="39.91291333" lon="-0.38006">
        <ele>638.0</ele>
        <time>2017-05-27T08:58:20.168Z</time>
      </trkpt>
      <trkpt lat="39.91291333" lon="-0.38006">
        <ele>638.0</ele>
        <time>2017-05-27T08:58:21.181Z</time>
      </trkpt>
      <trkpt lat="39.913035" lon="-0.38020333">
        <ele>637.0</ele>
        <time>2017-05-27T08:58:22.193Z</time>
      </trkpt>
      <trkpt lat="39.913035" lon="-0.38020333">
        <ele>637.0</ele>
        <time>2017-05-27T08:58:23.164Z</time>
      </trkpt>
      <trkpt lat="39.91315333" lon="-0.38017833">
        <ele>635.0</ele>
        <time>2017-05-27T08:58:24.178Z</time>
      </trkpt>
      <trkpt lat="39.91315333" lon="-0.38017833">
        <ele>635.0</ele>
        <time>2017-05-27T08:58:25.166Z</time>
      </trkpt>
      <trkpt lat="39.91316833" lon="-0.38001833">
        <ele>634.0</ele>
        <time>2017-05-27T08:58:26.176Z</time>
      </trkpt>
      <trkpt lat="39.91314167" lon="-0.37993333">
        <ele>633.0</ele>
        <time>2017-05-27T08:58:27.158Z</time>
      </trkpt>
      <trkpt lat="39.91314167" lon="-0.37993333">
        <ele>633.0</ele>
        <time>2017-05-27T08:58:28.165Z</time>
      </trkpt>
      <trkpt lat="39.91307" lon="-0.379755">
        <ele>632.0</ele>
        <time>2017-05-27T08:58:29.175Z</time>
      </trkpt>
      <trkpt lat="39.91307" lon="-0.379755">
        <ele>632.0</ele>
        <time>2017-05-27T08:58:30.184Z</time>
      </trkpt>
      <trkpt lat="39.913" lon="-0.37955167">
        <ele>631.0</ele>
        <time>2017-05-27T08:58:31.159Z</time>
      </trkpt>
      <trkpt lat="39.91298" lon="-0.379435">
        <ele>630.0</ele>
        <time>2017-05-27T08:58:32.166Z</time>
      </trkpt>
      <trkpt lat="39.912965" lon="-0.37930833">
        <ele>629.0</ele>
        <time>2017-05-27T08:58:33.188Z</time>
      </trkpt>
      <trkpt lat="39.912965" lon="-0.37930833">
        <ele>629.0</ele>
        <time>2017-05-27T08:58:34.187Z</time>
      </trkpt>
      <trkpt lat="39.91295167" lon="-0.379035">
        <ele>627.0</ele>
        <time>2017-05-27T08:58:35.159Z</time>
      </trkpt>
      <trkpt lat="39.91295333" lon="-0.37889167">
        <ele>626.0</ele>
        <time>2017-05-27T08:58:36.158Z</time>
      </trkpt>
      <trkpt lat="39.91295333" lon="-0.37889167">
        <ele>626.0</ele>
        <time>2017-05-27T08:58:37.156Z</time>
      </trkpt>
      <trkpt lat="39.91289333" lon="-0.378595">
        <ele>624.0</ele>
        <time>2017-05-27T08:58:38.172Z</time>
      </trkpt>
      <trkpt lat="39.91284333" lon="-0.37845167">
        <ele>623.0</ele>
        <time>2017-05-27T08:58:39.186Z</time>
      </trkpt>
      <trkpt lat="39.91284333" lon="-0.37845167">
        <ele>623.0</ele>
        <time>2017-05-27T08:58:40.156Z</time>
      </trkpt>
      <trkpt lat="39.91274167" lon="-0.37815333">
        <ele>621.0</ele>
        <time>2017-05-27T08:58:41.165Z</time>
      </trkpt>
      <trkpt lat="39.91274167" lon="-0.37815333">
        <ele>621.0</ele>
        <time>2017-05-27T08:58:42.185Z</time>
      </trkpt>
      <trkpt lat="39.91267333" lon="-0.377815">
        <ele>618.0</ele>
        <time>2017-05-27T08:58:43.197Z</time>
      </trkpt>
      <trkpt lat="39.91267333" lon="-0.377815">
        <ele>618.0</ele>
        <time>2017-05-27T08:58:44.186Z</time>
      </trkpt>
      <trkpt lat="39.91264333" lon="-0.37744667">
        <ele>615.0</ele>
        <time>2017-05-27T08:58:45.162Z</time>
      </trkpt>
      <trkpt lat="39.91264333" lon="-0.37744667">
        <ele>615.0</ele>
        <time>2017-05-27T08:58:46.189Z</time>
      </trkpt>
      <trkpt lat="39.912645" lon="-0.37707167">
        <ele>612.0</ele>
        <time>2017-05-27T08:58:47.195Z</time>
      </trkpt>
      <trkpt lat="39.912645" lon="-0.37707167">
        <ele>612.0</ele>
        <time>2017-05-27T08:58:48.185Z</time>
      </trkpt>
      <trkpt lat="39.91266" lon="-0.37670833">
        <ele>609.0</ele>
        <time>2017-05-27T08:58:49.195Z</time>
      </trkpt>
      <trkpt lat="39.91266" lon="-0.37670833">
        <ele>609.0</ele>
        <time>2017-05-27T08:58:50.184Z</time>
      </trkpt>
      <trkpt lat="39.91266" lon="-0.37670833">
        <ele>609.0</ele>
        <time>2017-05-27T08:58:51.179Z</time>
      </trkpt>
      <trkpt lat="39.91263333" lon="-0.37635167">
        <ele>606.0</ele>
        <time>2017-05-27T08:58:52.172Z</time>
      </trkpt>
      <trkpt lat="39.9126" lon="-0.37601">
        <ele>604.0</ele>
        <time>2017-05-27T08:58:53.195Z</time>
      </trkpt>
      <trkpt lat="39.9126" lon="-0.37601">
        <ele>604.0</ele>
        <time>2017-05-27T08:58:54.159Z</time>
      </trkpt>
      <trkpt lat="39.91255833" lon="-0.37568">
        <ele>601.0</ele>
        <time>2017-05-27T08:58:55.167Z</time>
      </trkpt>
      <trkpt lat="39.91253333" lon="-0.37552">
        <ele>600.0</ele>
        <time>2017-05-27T08:58:56.184Z</time>
      </trkpt>
      <trkpt lat="39.91250333" lon="-0.37537833">
        <ele>599.0</ele>
        <time>2017-05-27T08:58:57.195Z</time>
      </trkpt>
      <trkpt lat="39.91250333" lon="-0.37537833">
        <ele>599.0</ele>
        <time>2017-05-27T08:58:58.168Z</time>
      </trkpt>
      <trkpt lat="39.91239" lon="-0.37515333">
        <ele>597.0</ele>
        <time>2017-05-27T08:58:59.179Z</time>
      </trkpt>
      <trkpt lat="39.91239" lon="-0.37515333">
        <ele>597.0</ele>
        <time>2017-05-27T08:59:00.163Z</time>
      </trkpt>
      <trkpt lat="39.91223167" lon="-0.37497833">
        <ele>595.0</ele>
        <time>2017-05-27T08:59:01.176Z</time>
      </trkpt>
      <trkpt lat="39.91223167" lon="-0.37497833">
        <ele>595.0</ele>
        <time>2017-05-27T08:59:02.171Z</time>
      </trkpt>
      <trkpt lat="39.91211167" lon="-0.37477167">
        <ele>594.0</ele>
        <time>2017-05-27T08:59:03.189Z</time>
      </trkpt>
      <trkpt lat="39.91211167" lon="-0.37477167">
        <ele>594.0</ele>
        <time>2017-05-27T08:59:04.183Z</time>
      </trkpt>
      <trkpt lat="39.91211667" lon="-0.37452333">
        <ele>593.0</ele>
        <time>2017-05-27T08:59:05.157Z</time>
      </trkpt>
      <trkpt lat="39.91214" lon="-0.37440833">
        <ele>593.0</ele>
        <time>2017-05-27T08:59:06.170Z</time>
      </trkpt>
      <trkpt lat="39.91214" lon="-0.37440833">
        <ele>593.0</ele>
        <time>2017-05-27T08:59:07.182Z</time>
      </trkpt>
      <trkpt lat="39.91217667" lon="-0.374165">
        <ele>592.0</ele>
        <time>2017-05-27T08:59:08.182Z</time>
      </trkpt>
      <trkpt lat="39.91218333" lon="-0.37403667">
        <ele>591.0</ele>
        <time>2017-05-27T08:59:09.175Z</time>
      </trkpt>
      <trkpt lat="39.91218333" lon="-0.37403667">
        <ele>591.0</ele>
        <time>2017-05-27T08:59:10.180Z</time>
      </trkpt>
      <trkpt lat="39.91215667" lon="-0.373775">
        <ele>590.0</ele>
        <time>2017-05-27T08:59:11.192Z</time>
      </trkpt>
      <trkpt lat="39.91212667" lon="-0.37364">
        <ele>589.0</ele>
        <time>2017-05-27T08:59:12.181Z</time>
      </trkpt>
      <trkpt lat="39.91212667" lon="-0.37364">
        <ele>589.0</ele>
        <time>2017-05-27T08:59:13.166Z</time>
      </trkpt>
      <trkpt lat="39.91205833" lon="-0.373365">
        <ele>588.0</ele>
        <time>2017-05-27T08:59:14.187Z</time>
      </trkpt>
      <trkpt lat="39.91202833" lon="-0.37322833">
        <ele>587.0</ele>
        <time>2017-05-27T08:59:15.190Z</time>
      </trkpt>
      <trkpt lat="39.91202833" lon="-0.37322833">
        <ele>587.0</ele>
        <time>2017-05-27T08:59:16.183Z</time>
      </trkpt>
      <trkpt lat="39.91198167" lon="-0.372955">
        <ele>586.0</ele>
        <time>2017-05-27T08:59:17.194Z</time>
      </trkpt>
      <trkpt lat="39.91198167" lon="-0.372955">
        <ele>586.0</ele>
        <time>2017-05-27T08:59:18.196Z</time>
      </trkpt>
      <trkpt lat="39.91196" lon="-0.372685">
        <ele>585.0</ele>
        <time>2017-05-27T08:59:19.167Z</time>
      </trkpt>
      <trkpt lat="39.91196" lon="-0.372685">
        <ele>585.0</ele>
        <time>2017-05-27T08:59:20.172Z</time>
      </trkpt>
      <trkpt lat="39.91191833" lon="-0.37240833">
        <ele>584.0</ele>
        <time>2017-05-27T08:59:21.182Z</time>
      </trkpt>
      <trkpt lat="39.91191833" lon="-0.37240833">
        <ele>584.0</ele>
        <time>2017-05-27T08:59:22.189Z</time>
      </trkpt>
      <trkpt lat="39.91186167" lon="-0.37213">
        <ele>582.0</ele>
        <time>2017-05-27T08:59:23.161Z</time>
      </trkpt>
      <trkpt lat="39.911845" lon="-0.37199">
        <ele>582.0</ele>
        <time>2017-05-27T08:59:24.184Z</time>
      </trkpt>
      <trkpt lat="39.911845" lon="-0.37199">
        <ele>582.0</ele>
        <time>2017-05-27T08:59:25.158Z</time>
      </trkpt>
      <trkpt lat="39.911895" lon="-0.371715">
        <ele>580.0</ele>
        <time>2017-05-27T08:59:26.168Z</time>
      </trkpt>
      <trkpt lat="39.91194667" lon="-0.37157833">
        <ele>579.0</ele>
        <time>2017-05-27T08:59:27.190Z</time>
      </trkpt>
      <trkpt lat="39.91194667" lon="-0.37157833">
        <ele>579.0</ele>
        <time>2017-05-27T08:59:28.184Z</time>
      </trkpt>
      <trkpt lat="39.91208" lon="-0.371325">
        <ele>577.0</ele>
        <time>2017-05-27T08:59:29.156Z</time>
      </trkpt>
      <trkpt lat="39.91208" lon="-0.371325">
        <ele>577.0</ele>
        <time>2017-05-27T08:59:30.186Z</time>
      </trkpt>
      <trkpt lat="39.91220167" lon="-0.37106667">
        <ele>574.0</ele>
        <time>2017-05-27T08:59:31.194Z</time>
      </trkpt>
      <trkpt lat="39.91225667" lon="-0.37093333">
        <ele>573.0</ele>
        <time>2017-05-27T08:59:32.164Z</time>
      </trkpt>
      <trkpt lat="39.91229167" lon="-0.37079167">
        <ele>572.0</ele>
        <time>2017-05-27T08:59:33.177Z</time>
      </trkpt>
      <trkpt lat="39.91229167" lon="-0.37079167">
        <ele>572.0</ele>
        <time>2017-05-27T08:59:34.169Z</time>
      </trkpt>
      <trkpt lat="39.91226333" lon="-0.370495">
        <ele>569.0</ele>
        <time>2017-05-27T08:59:35.186Z</time>
      </trkpt>
      <trkpt lat="39.91222167" lon="-0.37034833">
        <ele>569.0</ele>
        <time>2017-05-27T08:59:36.182Z</time>
      </trkpt>
      <trkpt lat="39.91222167" lon="-0.37034833">
        <ele>569.0</ele>
        <time>2017-05-27T08:59:37.187Z</time>
      </trkpt>
      <trkpt lat="39.91212167" lon="-0.37006667">
        <ele>566.0</ele>
        <time>2017-05-27T08:59:38.196Z</time>
      </trkpt>
      <trkpt lat="39.91208167" lon="-0.36994667">
        <ele>565.0</ele>
        <time>2017-05-27T08:59:39.193Z</time>
      </trkpt>
      <trkpt lat="39.91208167" lon="-0.36994667">
        <ele>565.0</ele>
        <time>2017-05-27T08:59:40.177Z</time>
      </trkpt>
      <trkpt lat="39.912045" lon="-0.36975167">
        <ele>563.0</ele>
        <time>2017-05-27T08:59:41.192Z</time>
      </trkpt>
      <trkpt lat="39.91205833" lon="-0.36966667">
        <ele>562.0</ele>
        <time>2017-05-27T08:59:42.190Z</time>
      </trkpt>
      <trkpt lat="39.91205833" lon="-0.36966667">
        <ele>562.0</ele>
        <time>2017-05-27T08:59:43.183Z</time>
      </trkpt>
      <trkpt lat="39.91214833" lon="-0.36957833">
        <ele>561.0</ele>
        <time>2017-05-27T08:59:44.195Z</time>
      </trkpt>
      <trkpt lat="39.91214833" lon="-0.36957833">
        <ele>561.0</ele>
        <time>2017-05-27T08:59:45.157Z</time>
      </trkpt>
      <trkpt lat="39.912285" lon="-0.36963">
        <ele>559.0</ele>
        <time>2017-05-27T08:59:46.165Z</time>
      </trkpt>
      <trkpt lat="39.912285" lon="-0.36963">
        <ele>559.0</ele>
        <time>2017-05-27T08:59:47.177Z</time>
      </trkpt>
      <trkpt lat="39.91242167" lon="-0.36973167">
        <ele>558.0</ele>
        <time>2017-05-27T08:59:48.186Z</time>
      </trkpt>
      <trkpt lat="39.912495" lon="-0.36978667">
        <ele>557.0</ele>
        <time>2017-05-27T08:59:49.185Z</time>
      </trkpt>
      <trkpt lat="39.912495" lon="-0.36978667">
        <ele>557.0</ele>
        <time>2017-05-27T08:59:50.190Z</time>
      </trkpt>
      <trkpt lat="39.91265333" lon="-0.36991333">
        <ele>556.0</ele>
        <time>2017-05-27T08:59:51.163Z</time>
      </trkpt>
      <trkpt lat="39.91265333" lon="-0.36991333">
        <ele>556.0</ele>
        <time>2017-05-27T08:59:52.191Z</time>
      </trkpt>
      <trkpt lat="39.91281" lon="-0.37007333">
        <ele>555.0</ele>
        <time>2017-05-27T08:59:53.161Z</time>
      </trkpt>
      <trkpt lat="39.91288667" lon="-0.37016167">
        <ele>554.0</ele>
        <time>2017-05-27T08:59:54.189Z</time>
      </trkpt>
      <trkpt lat="39.91288667" lon="-0.37016167">
        <ele>554.0</ele>
        <time>2017-05-27T08:59:55.177Z</time>
      </trkpt>
      <trkpt lat="39.91304333" lon="-0.37034667">
        <ele>553.0</ele>
        <time>2017-05-27T08:59:56.192Z</time>
      </trkpt>
      <trkpt lat="39.91312333" lon="-0.37044333">
        <ele>553.0</ele>
        <time>2017-05-27T08:59:57.191Z</time>
      </trkpt>
      <trkpt lat="39.91312333" lon="-0.37044333">
        <ele>553.0</ele>
        <time>2017-05-27T08:59:58.188Z</time>
      </trkpt>
      <trkpt lat="39.91328333" lon="-0.37063833">
        <ele>552.0</ele>
        <time>2017-05-27T08:59:59.163Z</time>
      </trkpt>
      <trkpt lat="39.91328333" lon="-0.37063833">
        <ele>552.0</ele>
        <time>2017-05-27T09:00:00.193Z</time>
      </trkpt>
      <trkpt lat="39.91343667" lon="-0.37083">
        <ele>551.0</ele>
        <time>2017-05-27T09:00:01.161Z</time>
      </trkpt>
      <trkpt lat="39.91343667" lon="-0.37083">
        <ele>551.0</ele>
        <time>2017-05-27T09:00:02.180Z</time>
      </trkpt>
      <trkpt lat="39.91343667" lon="-0.37083">
        <ele>551.0</ele>
        <time>2017-05-27T09:00:03.196Z</time>
      </trkpt>
      <trkpt lat="39.91358" lon="-0.37102667">
        <ele>551.0</ele>
        <time>2017-05-27T09:00:04.183Z</time>
      </trkpt>
      <trkpt lat="39.91369333" lon="-0.37124">
        <ele>550.0</ele>
        <time>2017-05-27T09:00:05.194Z</time>
      </trkpt>
      <trkpt lat="39.91374" lon="-0.37135167">
        <ele>550.0</ele>
        <time>2017-05-27T09:00:06.174Z</time>
      </trkpt>
      <trkpt lat="39.91378833" lon="-0.37147167">
        <ele>550.0</ele>
        <time>2017-05-27T09:00:07.171Z</time>
      </trkpt>
      <trkpt lat="39.91378833" lon="-0.37147167">
        <ele>550.0</ele>
        <time>2017-05-27T09:00:08.178Z</time>
      </trkpt>
      <trkpt lat="39.91386" lon="-0.37172167">
        <ele>549.0</ele>
        <time>2017-05-27T09:00:09.190Z</time>
      </trkpt>
      <trkpt lat="39.91386" lon="-0.37172167">
        <ele>549.0</ele>
        <time>2017-05-27T09:00:10.159Z</time>
      </trkpt>
      <trkpt lat="39.91393" lon="-0.37198667">
        <ele>548.0</ele>
        <time>2017-05-27T09:00:11.171Z</time>
      </trkpt>
      <trkpt lat="39.91393" lon="-0.37198667">
        <ele>548.0</ele>
        <time>2017-05-27T09:00:12.165Z</time>
      </trkpt>
      <trkpt lat="39.91398333" lon="-0.37225">
        <ele>547.0</ele>
        <time>2017-05-27T09:00:13.161Z</time>
      </trkpt>
      <trkpt lat="39.91398333" lon="-0.37225">
        <ele>547.0</ele>
        <time>2017-05-27T09:00:14.196Z</time>
      </trkpt>
      <trkpt lat="39.91401333" lon="-0.37248667">
        <ele>546.0</ele>
        <time>2017-05-27T09:00:15.168Z</time>
      </trkpt>
      <trkpt lat="39.91401333" lon="-0.37248667">
        <ele>546.0</ele>
        <time>2017-05-27T09:00:16.157Z</time>
      </trkpt>
      <trkpt lat="39.91405833" lon="-0.37269833">
        <ele>545.0</ele>
        <time>2017-05-27T09:00:17.168Z</time>
      </trkpt>
      <trkpt lat="39.91410667" lon="-0.37279">
        <ele>545.0</ele>
        <time>2017-05-27T09:00:18.195Z</time>
      </trkpt>
      <trkpt lat="39.91410667" lon="-0.37279">
        <ele>545.0</ele>
        <time>2017-05-27T09:00:19.157Z</time>
      </trkpt>
      <trkpt lat="39.914265" lon="-0.37290667">
        <ele>544.0</ele>
        <time>2017-05-27T09:00:20.167Z</time>
      </trkpt>
      <trkpt lat="39.914265" lon="-0.37290667">
        <ele>544.0</ele>
        <time>2017-05-27T09:00:21.179Z</time>
      </trkpt>
      <trkpt lat="39.91445667" lon="-0.37294333">
        <ele>542.0</ele>
        <time>2017-05-27T09:00:22.186Z</time>
      </trkpt>
      <trkpt lat="39.91445667" lon="-0.37294333">
        <ele>542.0</ele>
        <time>2017-05-27T09:00:23.164Z</time>
      </trkpt>
      <trkpt lat="39.914655" lon="-0.372875">
        <ele>542.0</ele>
        <time>2017-05-27T09:00:24.174Z</time>
      </trkpt>
      <trkpt lat="39.914655" lon="-0.372875">
        <ele>542.0</ele>
        <time>2017-05-27T09:00:25.165Z</time>
      </trkpt>
      <trkpt lat="39.91479667" lon="-0.37272167">
        <ele>541.0</ele>
        <time>2017-05-27T09:00:26.175Z</time>
      </trkpt>
      <trkpt lat="39.91484833" lon="-0.37263167">
        <ele>541.0</ele>
        <time>2017-05-27T09:00:27.179Z</time>
      </trkpt>
      <trkpt lat="39.91484833" lon="-0.37263167">
        <ele>541.0</ele>
        <time>2017-05-27T09:00:28.162Z</time>
      </trkpt>
      <trkpt lat="39.91492167" lon="-0.37244667">
        <ele>541.0</ele>
        <time>2017-05-27T09:00:29.174Z</time>
      </trkpt>
      <trkpt lat="39.91494833" lon="-0.37235167">
        <ele>541.0</ele>
        <time>2017-05-27T09:00:30.174Z</time>
      </trkpt>
      <trkpt lat="39.91494833" lon="-0.37235167">
        <ele>541.0</ele>
        <time>2017-05-27T09:00:31.177Z</time>
      </trkpt>
      <trkpt lat="39.91499667" lon="-0.37216">
        <ele>541.0</ele>
        <time>2017-05-27T09:00:32.185Z</time>
      </trkpt>
      <trkpt lat="39.91501667" lon="-0.37206833">
        <ele>541.0</ele>
        <time>2017-05-27T09:00:33.165Z</time>
      </trkpt>
      <trkpt lat="39.91501667" lon="-0.37206833">
        <ele>541.0</ele>
        <time>2017-05-27T09:00:34.185Z</time>
      </trkpt>
      <trkpt lat="39.91504333" lon="-0.37187833">
        <ele>542.0</ele>
        <time>2017-05-27T09:00:35.193Z</time>
      </trkpt>
      <trkpt lat="39.91504333" lon="-0.37187833">
        <ele>542.0</ele>
        <time>2017-05-27T09:00:36.181Z</time>
      </trkpt>
      <trkpt lat="39.91505833" lon="-0.371695">
        <ele>542.0</ele>
        <time>2017-05-27T09:00:37.193Z</time>
      </trkpt>
      <trkpt lat="39.91505833" lon="-0.371695">
        <ele>542.0</ele>
        <time>2017-05-27T09:00:38.187Z</time>
      </trkpt>
      <trkpt lat="39.91505667" lon="-0.37152333">
        <ele>542.0</ele>
        <time>2017-05-27T09:00:39.195Z</time>
      </trkpt>
      <trkpt lat="39.91505667" lon="-0.37152333">
        <ele>542.0</ele>
        <time>2017-05-27T09:00:40.194Z</time>
      </trkpt>
      <trkpt lat="39.91505333" lon="-0.37135833">
        <ele>542.0</ele>
        <time>2017-05-27T09:00:41.167Z</time>
      </trkpt>
      <trkpt lat="39.91505333" lon="-0.37135833">
        <ele>542.0</ele>
        <time>2017-05-27T09:00:42.180Z</time>
      </trkpt>
      <trkpt lat="39.915065" lon="-0.37118333">
        <ele>543.0</ele>
        <time>2017-05-27T09:00:43.192Z</time>
      </trkpt>
      <trkpt lat="39.915065" lon="-0.37118333">
        <ele>543.0</ele>
        <time>2017-05-27T09:00:44.184Z</time>
      </trkpt>
      <trkpt lat="39.915085" lon="-0.37100833">
        <ele>543.0</ele>
        <time>2017-05-27T09:00:45.195Z</time>
      </trkpt>
      <trkpt lat="39.915085" lon="-0.37100833">
        <ele>543.0</ele>
        <time>2017-05-27T09:00:46.180Z</time>
      </trkpt>
      <trkpt lat="39.91511667" lon="-0.37083667">
        <ele>543.0</ele>
        <time>2017-05-27T09:00:47.194Z</time>
      </trkpt>
      <trkpt lat="39.91511667" lon="-0.37083667">
        <ele>543.0</ele>
        <time>2017-05-27T09:00:48.166Z</time>
      </trkpt>
      <trkpt lat="39.91516333" lon="-0.37066667">
        <ele>543.0</ele>
        <time>2017-05-27T09:00:49.186Z</time>
      </trkpt>
      <trkpt lat="39.91519667" lon="-0.37058333">
        <ele>543.0</ele>
        <time>2017-05-27T09:00:50.163Z</time>
      </trkpt>
      <trkpt lat="39.91523333" lon="-0.37050167">
        <ele>543.0</ele>
        <time>2017-05-27T09:00:51.193Z</time>
      </trkpt>
      <trkpt lat="39.91523333" lon="-0.37050167">
        <ele>543.0</ele>
        <time>2017-05-27T09:00:52.180Z</time>
      </trkpt>
      <trkpt lat="39.915305" lon="-0.37033833">
        <ele>543.0</ele>
        <time>2017-05-27T09:00:53.194Z</time>
      </trkpt>
      <trkpt lat="39.91534333" lon="-0.37026">
        <ele>543.0</ele>
        <time>2017-05-27T09:00:54.168Z</time>
      </trkpt>
      <trkpt lat="39.91534333" lon="-0.37026">
        <ele>543.0</ele>
        <time>2017-05-27T09:00:55.191Z</time>
      </trkpt>
      <trkpt lat="39.91540167" lon="-0.3701">
        <ele>543.0</ele>
        <time>2017-05-27T09:00:56.159Z</time>
      </trkpt>
      <trkpt lat="39.91541833" lon="-0.37001333">
        <ele>543.0</ele>
        <time>2017-05-27T09:00:57.162Z</time>
      </trkpt>
      <trkpt lat="39.91541833" lon="-0.37001333">
        <ele>543.0</ele>
        <time>2017-05-27T09:00:58.163Z</time>
      </trkpt>
      <trkpt lat="39.91544" lon="-0.36983167">
        <ele>543.0</ele>
        <time>2017-05-27T09:00:59.174Z</time>
      </trkpt>
      <trkpt lat="39.91544" lon="-0.36983167">
        <ele>543.0</ele>
        <time>2017-05-27T09:01:00.183Z</time>
      </trkpt>
      <trkpt lat="39.91544" lon="-0.36964167">
        <ele>543.0</ele>
        <time>2017-05-27T09:01:01.196Z</time>
      </trkpt>
      <trkpt lat="39.91544" lon="-0.36964167">
        <ele>543.0</ele>
        <time>2017-05-27T09:01:02.186Z</time>
      </trkpt>
      <trkpt lat="39.91542" lon="-0.36945833">
        <ele>543.0</ele>
        <time>2017-05-27T09:01:03.196Z</time>
      </trkpt>
      <trkpt lat="39.91542" lon="-0.36945833">
        <ele>543.0</ele>
        <time>2017-05-27T09:01:04.156Z</time>
      </trkpt>
      <trkpt lat="39.91537667" lon="-0.369275">
        <ele>542.0</ele>
        <time>2017-05-27T09:01:05.166Z</time>
      </trkpt>
      <trkpt lat="39.91537667" lon="-0.369275">
        <ele>542.0</ele>
        <time>2017-05-27T09:01:06.161Z</time>
      </trkpt>
      <trkpt lat="39.91530333" lon="-0.36908833">
        <ele>542.0</ele>
        <time>2017-05-27T09:01:07.171Z</time>
      </trkpt>
      <trkpt lat="39.91530333" lon="-0.36908833">
        <ele>542.0</ele>
        <time>2017-05-27T09:01:08.187Z</time>
      </trkpt>
      <trkpt lat="39.91523" lon="-0.36889833">
        <ele>542.0</ele>
        <time>2017-05-27T09:01:09.157Z</time>
      </trkpt>
      <trkpt lat="39.91523" lon="-0.36889833">
        <ele>542.0</ele>
        <time>2017-05-27T09:01:10.195Z</time>
      </trkpt>
      <trkpt lat="39.91523" lon="-0.36889833">
        <ele>542.0</ele>
        <time>2017-05-27T09:01:11.182Z</time>
      </trkpt>
      <trkpt lat="39.915175" lon="-0.36870833">
        <ele>542.0</ele>
        <time>2017-05-27T09:01:12.159Z</time>
      </trkpt>
      <trkpt lat="39.91514333" lon="-0.36852333">
        <ele>542.0</ele>
        <time>2017-05-27T09:01:13.184Z</time>
      </trkpt>
      <trkpt lat="39.91514333" lon="-0.36852333">
        <ele>542.0</ele>
        <time>2017-05-27T09:01:14.170Z</time>
      </trkpt>
      <trkpt lat="39.91513333" lon="-0.36834167">
        <ele>542.0</ele>
        <time>2017-05-27T09:01:15.192Z</time>
      </trkpt>
      <trkpt lat="39.91513333" lon="-0.36834167">
        <ele>542.0</ele>
        <time>2017-05-27T09:01:16.176Z</time>
      </trkpt>
      <trkpt lat="39.91516333" lon="-0.36817667">
        <ele>542.0</ele>
        <time>2017-05-27T09:01:17.199Z</time>
      </trkpt>
      <trkpt lat="39.9152" lon="-0.36810667">
        <ele>541.0</ele>
        <time>2017-05-27T09:01:18.188Z</time>
      </trkpt>
      <trkpt lat="39.9152" lon="-0.36810667">
        <ele>541.0</ele>
        <time>2017-05-27T09:01:19.160Z</time>
      </trkpt>
      <trkpt lat="39.915295" lon="-0.36798833">
        <ele>541.0</ele>
        <time>2017-05-27T09:01:20.196Z</time>
      </trkpt>
      <trkpt lat="39.915345" lon="-0.36793667">
        <ele>541.0</ele>
        <time>2017-05-27T09:01:21.157Z</time>
      </trkpt>
      <trkpt lat="39.915345" lon="-0.36793667">
        <ele>541.0</ele>
        <time>2017-05-27T09:01:22.168Z</time>
      </trkpt>
      <trkpt lat="39.91546" lon="-0.36785">
        <ele>541.0</ele>
        <time>2017-05-27T09:01:23.178Z</time>
      </trkpt>
      <trkpt lat="39.91546" lon="-0.36785">
        <ele>541.0</ele>
        <time>2017-05-27T09:01:24.164Z</time>
      </trkpt>
      <trkpt lat="39.915575" lon="-0.36776667">
        <ele>541.0</ele>
        <time>2017-05-27T09:01:25.175Z</time>
      </trkpt>
      <trkpt lat="39.915575" lon="-0.36776667">
        <ele>541.0</ele>
        <time>2017-05-27T09:01:26.193Z</time>
      </trkpt>
      <trkpt lat="39.91567333" lon="-0.36765">
        <ele>541.0</ele>
        <time>2017-05-27T09:01:27.168Z</time>
      </trkpt>
      <trkpt lat="39.91567333" lon="-0.36765">
        <ele>541.0</ele>
        <time>2017-05-27T09:01:28.184Z</time>
      </trkpt>
      <trkpt lat="39.91567333" lon="-0.36765">
        <ele>541.0</ele>
        <time>2017-05-27T09:01:29.180Z</time>
      </trkpt>
      <trkpt lat="39.91578333" lon="-0.36743167">
        <ele>542.0</ele>
        <time>2017-05-27T09:01:30.175Z</time>
      </trkpt>
      <trkpt lat="39.91578333" lon="-0.36743167">
        <ele>542.0</ele>
        <time>2017-05-27T09:01:31.183Z</time>
      </trkpt>
      <trkpt lat="39.91583833" lon="-0.367275">
        <ele>542.0</ele>
        <time>2017-05-27T09:01:32.195Z</time>
      </trkpt>
      <trkpt lat="39.91583833" lon="-0.367275">
        <ele>542.0</ele>
        <time>2017-05-27T09:01:33.181Z</time>
      </trkpt>
      <trkpt lat="39.915895" lon="-0.367125">
        <ele>542.0</ele>
        <time>2017-05-27T09:01:34.193Z</time>
      </trkpt>
      <trkpt lat="39.915895" lon="-0.367125">
        <ele>542.0</ele>
        <time>2017-05-27T09:01:35.181Z</time>
      </trkpt>
      <trkpt lat="39.91594667" lon="-0.36698167">
        <ele>542.0</ele>
        <time>2017-05-27T09:01:36.194Z</time>
      </trkpt>
      <trkpt lat="39.91594667" lon="-0.36698167">
        <ele>542.0</ele>
        <time>2017-05-27T09:01:37.166Z</time>
      </trkpt>
      <trkpt lat="39.915995" lon="-0.36684333">
        <ele>542.0</ele>
        <time>2017-05-27T09:01:38.179Z</time>
      </trkpt>
      <trkpt lat="39.91601833" lon="-0.36677667">
        <ele>542.0</ele>
        <time>2017-05-27T09:01:39.163Z</time>
      </trkpt>
      <trkpt lat="39.91601833" lon="-0.36677667">
        <ele>542.0</ele>
        <time>2017-05-27T09:01:40.157Z</time>
      </trkpt>
      <trkpt lat="39.91605" lon="-0.36662833">
        <ele>542.0</ele>
        <time>2017-05-27T09:01:41.166Z</time>
      </trkpt>
      <trkpt lat="39.916055" lon="-0.36654833">
        <ele>542.0</ele>
        <time>2017-05-27T09:01:42.193Z</time>
      </trkpt>
      <trkpt lat="39.916055" lon="-0.36654833">
        <ele>542.0</ele>
        <time>2017-05-27T09:01:43.166Z</time>
      </trkpt>
      <trkpt lat="39.916035" lon="-0.36637167">
        <ele>541.0</ele>
        <time>2017-05-27T09:01:44.174Z</time>
      </trkpt>
      <trkpt lat="39.916005" lon="-0.36628333">
        <ele>541.0</ele>
        <time>2017-05-27T09:01:45.187Z</time>
      </trkpt>
      <trkpt lat="39.916005" lon="-0.36628333">
        <ele>541.0</ele>
        <time>2017-05-27T09:01:46.166Z</time>
      </trkpt>
      <trkpt lat="39.91592" lon="-0.36611167">
        <ele>540.0</ele>
        <time>2017-05-27T09:01:47.179Z</time>
      </trkpt>
      <trkpt lat="39.91592" lon="-0.36611167">
        <ele>540.0</ele>
        <time>2017-05-27T09:01:48.166Z</time>
      </trkpt>
      <trkpt lat="39.91592" lon="-0.36611167">
        <ele>540.0</ele>
        <time>2017-05-27T09:01:49.175Z</time>
      </trkpt>
      <trkpt lat="39.91583333" lon="-0.36592333">
        <ele>538.0</ele>
        <time>2017-05-27T09:01:50.184Z</time>
      </trkpt>
      <trkpt lat="39.91577167" lon="-0.36571167">
        <ele>537.0</ele>
        <time>2017-05-27T09:01:51.168Z</time>
      </trkpt>
      <trkpt lat="39.91577167" lon="-0.36571167">
        <ele>537.0</ele>
        <time>2017-05-27T09:01:52.160Z</time>
      </trkpt>
      <trkpt lat="39.91572667" lon="-0.36549333">
        <ele>536.0</ele>
        <time>2017-05-27T09:01:53.170Z</time>
      </trkpt>
      <trkpt lat="39.915705" lon="-0.36538167">
        <ele>535.0</ele>
        <time>2017-05-27T09:01:54.161Z</time>
      </trkpt>
      <trkpt lat="39.915705" lon="-0.36538167">
        <ele>535.0</ele>
        <time>2017-05-27T09:01:55.183Z</time>
      </trkpt>
      <trkpt lat="39.91568333" lon="-0.365145">
        <ele>534.0</ele>
        <time>2017-05-27T09:01:56.159Z</time>
      </trkpt>
      <trkpt lat="39.91568333" lon="-0.365145">
        <ele>534.0</ele>
        <time>2017-05-27T09:01:57.163Z</time>
      </trkpt>
      <trkpt lat="39.91570667" lon="-0.36489333">
        <ele>532.0</ele>
        <time>2017-05-27T09:01:58.171Z</time>
      </trkpt>
      <trkpt lat="39.91570667" lon="-0.36489333">
        <ele>532.0</ele>
        <time>2017-05-27T09:01:59.156Z</time>
      </trkpt>
      <trkpt lat="39.91579" lon="-0.36465">
        <ele>531.0</ele>
        <time>2017-05-27T09:02:00.173Z</time>
      </trkpt>
      <trkpt lat="39.91579" lon="-0.36465">
        <ele>531.0</ele>
        <time>2017-05-27T09:02:01.166Z</time>
      </trkpt>
      <trkpt lat="39.91591667" lon="-0.36443667">
        <ele>529.0</ele>
        <time>2017-05-27T09:02:02.178Z</time>
      </trkpt>
      <trkpt lat="39.91600333" lon="-0.36435">
        <ele>528.0</ele>
        <time>2017-05-27T09:02:03.157Z</time>
      </trkpt>
      <trkpt lat="39.91600333" lon="-0.36435">
        <ele>528.0</ele>
        <time>2017-05-27T09:02:04.187Z</time>
      </trkpt>
      <trkpt lat="39.9162" lon="-0.36422833">
        <ele>526.0</ele>
        <time>2017-05-27T09:02:05.156Z</time>
      </trkpt>
      <trkpt lat="39.9162" lon="-0.36422833">
        <ele>526.0</ele>
        <time>2017-05-27T09:02:06.156Z</time>
      </trkpt>
      <trkpt lat="39.91638667" lon="-0.36411">
        <ele>525.0</ele>
        <time>2017-05-27T09:02:07.165Z</time>
      </trkpt>
      <trkpt lat="39.91647833" lon="-0.36404">
        <ele>524.0</ele>
        <time>2017-05-27T09:02:08.161Z</time>
      </trkpt>
      <trkpt lat="39.91647833" lon="-0.36404">
        <ele>524.0</ele>
        <time>2017-05-27T09:02:09.182Z</time>
      </trkpt>
      <trkpt lat="39.91656833" lon="-0.36396667">
        <ele>523.0</ele>
        <time>2017-05-27T09:02:10.184Z</time>
      </trkpt>
      <trkpt lat="39.91674333" lon="-0.36381667">
        <ele>522.0</ele>
        <time>2017-05-27T09:02:11.156Z</time>
      </trkpt>
      <trkpt lat="39.91674333" lon="-0.36381667">
        <ele>522.0</ele>
        <time>2017-05-27T09:02:12.160Z</time>
      </trkpt>
      <trkpt lat="39.91690833" lon="-0.36366167">
        <ele>520.0</ele>
        <time>2017-05-27T09:02:13.183Z</time>
      </trkpt>
      <trkpt lat="39.91697333" lon="-0.36356167">
        <ele>520.0</ele>
        <time>2017-05-27T09:02:14.189Z</time>
      </trkpt>
      <trkpt lat="39.91697333" lon="-0.36356167">
        <ele>520.0</ele>
        <time>2017-05-27T09:02:15.166Z</time>
      </trkpt>
      <trkpt lat="39.91703167" lon="-0.36329833">
        <ele>518.0</ele>
        <time>2017-05-27T09:02:16.176Z</time>
      </trkpt>
      <trkpt lat="39.91703167" lon="-0.36329833">
        <ele>518.0</ele>
        <time>2017-05-27T09:02:17.156Z</time>
      </trkpt>
      <trkpt lat="39.91705" lon="-0.36303">
        <ele>516.0</ele>
        <time>2017-05-27T09:02:18.167Z</time>
      </trkpt>
      <trkpt lat="39.91705" lon="-0.36303">
        <ele>516.0</ele>
        <time>2017-05-27T09:02:19.162Z</time>
      </trkpt>
      <trkpt lat="39.91703667" lon="-0.36278">
        <ele>515.0</ele>
        <time>2017-05-27T09:02:20.177Z</time>
      </trkpt>
      <trkpt lat="39.91703667" lon="-0.36278">
        <ele>515.0</ele>
        <time>2017-05-27T09:02:21.166Z</time>
      </trkpt>
      <trkpt lat="39.91694167" lon="-0.36259333">
        <ele>515.0</ele>
        <time>2017-05-27T09:02:22.176Z</time>
      </trkpt>
      <trkpt lat="39.91694167" lon="-0.36259333">
        <ele>515.0</ele>
        <time>2017-05-27T09:02:23.169Z</time>
      </trkpt>
      <trkpt lat="39.91677167" lon="-0.362525">
        <ele>514.0</ele>
        <time>2017-05-27T09:02:24.177Z</time>
      </trkpt>
      <trkpt lat="39.91677167" lon="-0.362525">
        <ele>514.0</ele>
        <time>2017-05-27T09:02:25.156Z</time>
      </trkpt>
      <trkpt lat="39.91658667" lon="-0.36257667">
        <ele>514.0</ele>
        <time>2017-05-27T09:02:26.168Z</time>
      </trkpt>
      <trkpt lat="39.91658667" lon="-0.36257667">
        <ele>514.0</ele>
        <time>2017-05-27T09:02:27.167Z</time>
      </trkpt>
      <trkpt lat="39.91642" lon="-0.3627">
        <ele>513.0</ele>
        <time>2017-05-27T09:02:28.175Z</time>
      </trkpt>
      <trkpt lat="39.91642" lon="-0.3627">
        <ele>513.0</ele>
        <time>2017-05-27T09:02:29.156Z</time>
      </trkpt>
      <trkpt lat="39.91626833" lon="-0.362865">
        <ele>513.0</ele>
        <time>2017-05-27T09:02:30.167Z</time>
      </trkpt>
      <trkpt lat="39.91626833" lon="-0.362865">
        <ele>513.0</ele>
        <time>2017-05-27T09:02:31.177Z</time>
      </trkpt>
      <trkpt lat="39.916095" lon="-0.36299333">
        <ele>512.0</ele>
        <time>2017-05-27T09:02:32.190Z</time>
      </trkpt>
      <trkpt lat="39.916095" lon="-0.36299333">
        <ele>512.0</ele>
        <time>2017-05-27T09:02:33.156Z</time>
      </trkpt>
      <trkpt lat="39.915895" lon="-0.36306167">
        <ele>511.0</ele>
        <time>2017-05-27T09:02:34.166Z</time>
      </trkpt>
      <trkpt lat="39.915895" lon="-0.36306167">
        <ele>511.0</ele>
        <time>2017-05-27T09:02:35.183Z</time>
      </trkpt>
      <trkpt lat="39.91569667" lon="-0.36306333">
        <ele>510.0</ele>
        <time>2017-05-27T09:02:36.158Z</time>
      </trkpt>
      <trkpt lat="39.91569667" lon="-0.36306333">
        <ele>510.0</ele>
        <time>2017-05-27T09:02:37.191Z</time>
      </trkpt>
      <trkpt lat="39.91553667" lon="-0.36298">
        <ele>509.0</ele>
        <time>2017-05-27T09:02:38.162Z</time>
      </trkpt>
      <trkpt lat="39.91547167" lon="-0.36288">
        <ele>508.0</ele>
        <time>2017-05-27T09:02:39.162Z</time>
      </trkpt>
      <trkpt lat="39.91547167" lon="-0.36288">
        <ele>508.0</ele>
        <time>2017-05-27T09:02:40.156Z</time>
      </trkpt>
      <trkpt lat="39.91539667" lon="-0.36264">
        <ele>506.0</ele>
        <time>2017-05-27T09:02:41.176Z</time>
      </trkpt>
      <trkpt lat="39.91539667" lon="-0.36264">
        <ele>506.0</ele>
        <time>2017-05-27T09:02:42.183Z</time>
      </trkpt>
      <trkpt lat="39.915345" lon="-0.36237">
        <ele>504.0</ele>
        <time>2017-05-27T09:02:43.156Z</time>
      </trkpt>
      <trkpt lat="39.915345" lon="-0.36237">
        <ele>504.0</ele>
        <time>2017-05-27T09:02:44.185Z</time>
      </trkpt>
      <trkpt lat="39.915315" lon="-0.36208667">
        <ele>502.0</ele>
        <time>2017-05-27T09:02:45.194Z</time>
      </trkpt>
      <trkpt lat="39.915315" lon="-0.36208667">
        <ele>502.0</ele>
        <time>2017-05-27T09:02:46.196Z</time>
      </trkpt>
      <trkpt lat="39.91536" lon="-0.36180333">
        <ele>501.0</ele>
        <time>2017-05-27T09:02:47.166Z</time>
      </trkpt>
      <trkpt lat="39.91542333" lon="-0.36168167">
        <ele>500.0</ele>
        <time>2017-05-27T09:02:48.194Z</time>
      </trkpt>
      <trkpt lat="39.91542333" lon="-0.36168167">
        <ele>500.0</ele>
        <time>2017-05-27T09:02:49.186Z</time>
      </trkpt>
      <trkpt lat="39.91556" lon="-0.36144833">
        <ele>499.0</ele>
        <time>2017-05-27T09:02:50.196Z</time>
      </trkpt>
      <trkpt lat="39.91562667" lon="-0.36132667">
        <ele>498.0</ele>
        <time>2017-05-27T09:02:51.169Z</time>
      </trkpt>
      <trkpt lat="39.91562667" lon="-0.36132667">
        <ele>498.0</ele>
        <time>2017-05-27T09:02:52.192Z</time>
      </trkpt>
      <trkpt lat="39.91574333" lon="-0.36106167">
        <ele>496.0</ele>
        <time>2017-05-27T09:02:53.160Z</time>
      </trkpt>
      <trkpt lat="39.91579833" lon="-0.36092667">
        <ele>496.0</ele>
        <time>2017-05-27T09:02:54.174Z</time>
      </trkpt>
      <trkpt lat="39.91579833" lon="-0.36092667">
        <ele>496.0</ele>
        <time>2017-05-27T09:02:55.183Z</time>
      </trkpt>
      <trkpt lat="39.91590833" lon="-0.36064833">
        <ele>494.0</ele>
        <time>2017-05-27T09:02:56.157Z</time>
      </trkpt>
      <trkpt lat="39.91590833" lon="-0.36064833">
        <ele>494.0</ele>
        <time>2017-05-27T09:02:57.166Z</time>
      </trkpt>
      <trkpt lat="39.916015" lon="-0.360365">
        <ele>492.0</ele>
        <time>2017-05-27T09:02:58.176Z</time>
      </trkpt>
      <trkpt lat="39.916015" lon="-0.360365">
        <ele>492.0</ele>
        <time>2017-05-27T09:02:59.157Z</time>
      </trkpt>
      <trkpt lat="39.91610667" lon="-0.36007833">
        <ele>491.0</ele>
        <time>2017-05-27T09:03:00.168Z</time>
      </trkpt>
      <trkpt lat="39.91614833" lon="-0.35993333">
        <ele>490.0</ele>
        <time>2017-05-27T09:03:01.157Z</time>
      </trkpt>
      <trkpt lat="39.91614833" lon="-0.35993333">
        <ele>490.0</ele>
        <time>2017-05-27T09:03:02.163Z</time>
      </trkpt>
      <trkpt lat="39.91622167" lon="-0.35964833">
        <ele>488.0</ele>
        <time>2017-05-27T09:03:03.176Z</time>
      </trkpt>
      <trkpt lat="39.91622167" lon="-0.35964833">
        <ele>488.0</ele>
        <time>2017-05-27T09:03:04.189Z</time>
      </trkpt>
      <trkpt lat="39.916265" lon="-0.359365">
        <ele>487.0</ele>
        <time>2017-05-27T09:03:05.173Z</time>
      </trkpt>
      <trkpt lat="39.916265" lon="-0.359365">
        <ele>487.0</ele>
        <time>2017-05-27T09:03:06.184Z</time>
      </trkpt>
      <trkpt lat="39.91629333" lon="-0.35908167">
        <ele>485.0</ele>
        <time>2017-05-27T09:03:07.197Z</time>
      </trkpt>
      <trkpt lat="39.916315" lon="-0.35894167">
        <ele>484.0</ele>
        <time>2017-05-27T09:03:08.161Z</time>
      </trkpt>
      <trkpt lat="39.91635" lon="-0.35880333">
        <ele>483.0</ele>
        <time>2017-05-27T09:03:09.165Z</time>
      </trkpt>
      <trkpt lat="39.91635" lon="-0.35880333">
        <ele>483.0</ele>
        <time>2017-05-27T09:03:10.186Z</time>
      </trkpt>
      <trkpt lat="39.91647833" lon="-0.35856">
        <ele>481.0</ele>
        <time>2017-05-27T09:03:11.166Z</time>
      </trkpt>
      <trkpt lat="39.91647833" lon="-0.35856">
        <ele>481.0</ele>
        <time>2017-05-27T09:03:12.156Z</time>
      </trkpt>
      <trkpt lat="39.91647833" lon="-0.35856">
        <ele>481.0</ele>
        <time>2017-05-27T09:03:13.172Z</time>
      </trkpt>
      <trkpt lat="39.91662833" lon="-0.35834">
        <ele>479.0</ele>
        <time>2017-05-27T09:03:14.166Z</time>
      </trkpt>
      <trkpt lat="39.91677667" lon="-0.35812167">
        <ele>477.0</ele>
        <time>2017-05-27T09:03:15.173Z</time>
      </trkpt>
      <trkpt lat="39.91677667" lon="-0.35812167">
        <ele>477.0</ele>
        <time>2017-05-27T09:03:16.164Z</time>
      </trkpt>
      <trkpt lat="39.91690833" lon="-0.35789">
        <ele>475.0</ele>
        <time>2017-05-27T09:03:17.187Z</time>
      </trkpt>
      <trkpt lat="39.91690833" lon="-0.35789">
        <ele>475.0</ele>
        <time>2017-05-27T09:03:18.185Z</time>
      </trkpt>
      <trkpt lat="39.91700167" lon="-0.357615">
        <ele>473.0</ele>
        <time>2017-05-27T09:03:19.160Z</time>
      </trkpt>
      <trkpt lat="39.91700167" lon="-0.357615">
        <ele>473.0</ele>
        <time>2017-05-27T09:03:20.181Z</time>
      </trkpt>
      <trkpt lat="39.91705" lon="-0.35731">
        <ele>471.0</ele>
        <time>2017-05-27T09:03:21.190Z</time>
      </trkpt>
      <trkpt lat="39.91705" lon="-0.35731">
        <ele>471.0</ele>
        <time>2017-05-27T09:03:22.166Z</time>
      </trkpt>
      <trkpt lat="39.91705" lon="-0.35731">
        <ele>471.0</ele>
        <time>2017-05-27T09:03:23.182Z</time>
      </trkpt>
      <trkpt lat="39.91707667" lon="-0.35700167">
        <ele>469.0</ele>
        <time>2017-05-27T09:03:24.186Z</time>
      </trkpt>
      <trkpt lat="39.91711667" lon="-0.35671333">
        <ele>468.0</ele>
        <time>2017-05-27T09:03:25.160Z</time>
      </trkpt>
      <trkpt lat="39.917145" lon="-0.35658167">
        <ele>467.0</ele>
        <time>2017-05-27T09:03:26.162Z</time>
      </trkpt>
      <trkpt lat="39.917145" lon="-0.35658167">
        <ele>467.0</ele>
        <time>2017-05-27T09:03:27.195Z</time>
      </trkpt>
      <trkpt lat="39.91721333" lon="-0.35634">
        <ele>465.0</ele>
        <time>2017-05-27T09:03:28.170Z</time>
      </trkpt>
      <trkpt lat="39.91721333" lon="-0.35634">
        <ele>465.0</ele>
        <time>2017-05-27T09:03:29.184Z</time>
      </trkpt>
      <trkpt lat="39.91722333" lon="-0.35609833">
        <ele>464.0</ele>
        <time>2017-05-27T09:03:30.161Z</time>
      </trkpt>
      <trkpt lat="39.91722333" lon="-0.35609833">
        <ele>464.0</ele>
        <time>2017-05-27T09:03:31.187Z</time>
      </trkpt>
      <trkpt lat="39.91718" lon="-0.35588167">
        <ele>463.0</ele>
        <time>2017-05-27T09:03:32.156Z</time>
      </trkpt>
      <trkpt lat="39.91716167" lon="-0.35579167">
        <ele>462.0</ele>
        <time>2017-05-27T09:03:33.192Z</time>
      </trkpt>
      <trkpt lat="39.91716167" lon="-0.35579167">
        <ele>462.0</ele>
        <time>2017-05-27T09:03:34.187Z</time>
      </trkpt>
      <trkpt lat="39.917145" lon="-0.355655">
        <ele>462.0</ele>
        <time>2017-05-27T09:03:35.158Z</time>
      </trkpt>
      <trkpt lat="39.917145" lon="-0.355655">
        <ele>462.0</ele>
        <time>2017-05-27T09:03:36.156Z</time>
      </trkpt>
      <trkpt lat="39.91712167" lon="-0.35556667">
        <ele>462.0</ele>
        <time>2017-05-27T09:03:37.173Z</time>
      </trkpt>
      <trkpt lat="39.91712167" lon="-0.35556667">
        <ele>462.0</ele>
        <time>2017-05-27T09:03:38.166Z</time>
      </trkpt>
      <trkpt lat="39.91705" lon="-0.355515">
        <ele>462.0</ele>
        <time>2017-05-27T09:03:39.177Z</time>
      </trkpt>
      <trkpt lat="39.91701333" lon="-0.35549833">
        <ele>463.0</ele>
        <time>2017-05-27T09:03:40.172Z</time>
      </trkpt>
      <trkpt lat="39.91701333" lon="-0.35549833">
        <ele>463.0</ele>
        <time>2017-05-27T09:03:41.165Z</time>
      </trkpt>
      <trkpt lat="39.91694833" lon="-0.35545833">
        <ele>463.0</ele>
        <time>2017-05-27T09:03:42.200Z</time>
      </trkpt>
      <trkpt lat="39.91694833" lon="-0.35545833">
        <ele>463.0</ele>
        <time>2017-05-27T09:03:43.168Z</time>
      </trkpt>
      <trkpt lat="39.9169" lon="-0.35540667">
        <ele>463.0</ele>
        <time>2017-05-27T09:03:44.182Z</time>
      </trkpt>
      <trkpt lat="39.91687667" lon="-0.35538167">
        <ele>463.0</ele>
        <time>2017-05-27T09:03:45.157Z</time>
      </trkpt>
      <trkpt lat="39.91687667" lon="-0.35538167">
        <ele>463.0</ele>
        <time>2017-05-27T09:03:46.165Z</time>
      </trkpt>
      <trkpt lat="39.91683167" lon="-0.355335">
        <ele>463.0</ele>
        <time>2017-05-27T09:03:47.182Z</time>
      </trkpt>
      <trkpt lat="39.91683167" lon="-0.355335">
        <ele>463.0</ele>
        <time>2017-05-27T09:03:48.193Z</time>
      </trkpt>
      <trkpt lat="39.91678833" lon="-0.35529167">
        <ele>464.0</ele>
        <time>2017-05-27T09:03:49.174Z</time>
      </trkpt>
      <trkpt lat="39.91678833" lon="-0.35529167">
        <ele>464.0</ele>
        <time>2017-05-27T09:03:50.194Z</time>
      </trkpt>
      <trkpt lat="39.916745" lon="-0.35524833">
        <ele>464.0</ele>
        <time>2017-05-27T09:03:51.168Z</time>
      </trkpt>
      <trkpt lat="39.916745" lon="-0.35524833">
        <ele>464.0</ele>
        <time>2017-05-27T09:03:52.184Z</time>
      </trkpt>
      <trkpt lat="39.916695" lon="-0.35520333">
        <ele>464.0</ele>
        <time>2017-05-27T09:03:53.161Z</time>
      </trkpt>
      <trkpt lat="39.916695" lon="-0.35520333">
        <ele>464.0</ele>
        <time>2017-05-27T09:03:54.181Z</time>
      </trkpt>
      <trkpt lat="39.916645" lon="-0.35515">
        <ele>465.0</ele>
        <time>2017-05-27T09:03:55.165Z</time>
      </trkpt>
      <trkpt lat="39.916645" lon="-0.35515">
        <ele>465.0</ele>
        <time>2017-05-27T09:03:56.165Z</time>
      </trkpt>
      <trkpt lat="39.91660333" lon="-0.35508667">
        <ele>465.0</ele>
        <time>2017-05-27T09:03:57.175Z</time>
      </trkpt>
      <trkpt lat="39.91660333" lon="-0.35508667">
        <ele>465.0</ele>
        <time>2017-05-27T09:03:58.165Z</time>
      </trkpt>
      <trkpt lat="39.91656667" lon="-0.35501833">
        <ele>465.0</ele>
        <time>2017-05-27T09:03:59.195Z</time>
      </trkpt>
      <trkpt lat="39.91656667" lon="-0.35501833">
        <ele>465.0</ele>
        <time>2017-05-27T09:04:00.173Z</time>
      </trkpt>
      <trkpt lat="39.91653167" lon="-0.35494833">
        <ele>466.0</ele>
        <time>2017-05-27T09:04:01.164Z</time>
      </trkpt>
      <trkpt lat="39.91653167" lon="-0.35494833">
        <ele>466.0</ele>
        <time>2017-05-27T09:04:02.170Z</time>
      </trkpt>
      <trkpt lat="39.91649667" lon="-0.35487833">
        <ele>466.0</ele>
        <time>2017-05-27T09:04:03.165Z</time>
      </trkpt>
      <trkpt lat="39.91649667" lon="-0.35487833">
        <ele>466.0</ele>
        <time>2017-05-27T09:04:04.162Z</time>
      </trkpt>
      <trkpt lat="39.91644333" lon="-0.35484333">
        <ele>467.0</ele>
        <time>2017-05-27T09:04:05.184Z</time>
      </trkpt>
      <trkpt lat="39.91641" lon="-0.354845">
        <ele>467.0</ele>
        <time>2017-05-27T09:04:06.168Z</time>
      </trkpt>
      <trkpt lat="39.91641" lon="-0.354845">
        <ele>467.0</ele>
        <time>2017-05-27T09:04:07.162Z</time>
      </trkpt>
      <trkpt lat="39.91637667" lon="-0.354875">
        <ele>467.0</ele>
        <time>2017-05-27T09:04:08.160Z</time>
      </trkpt>
      <trkpt lat="39.91635833" lon="-0.35488667">
        <ele>467.0</ele>
        <time>2017-05-27T09:04:09.176Z</time>
      </trkpt>
      <trkpt lat="39.91635833" lon="-0.35488667">
        <ele>467.0</ele>
        <time>2017-05-27T09:04:10.156Z</time>
      </trkpt>
      <trkpt lat="39.91632" lon="-0.35490333">
        <ele>468.0</ele>
        <time>2017-05-27T09:04:11.165Z</time>
      </trkpt>
      <trkpt lat="39.91630167" lon="-0.35491">
        <ele>468.0</ele>
        <time>2017-05-27T09:04:12.175Z</time>
      </trkpt>
      <trkpt lat="39.91630167" lon="-0.35491">
        <ele>468.0</ele>
        <time>2017-05-27T09:04:13.163Z</time>
      </trkpt>
      <trkpt lat="39.91626" lon="-0.35492333">
        <ele>468.0</ele>
        <time>2017-05-27T09:04:14.194Z</time>
      </trkpt>
      <trkpt lat="39.91623833" lon="-0.354895">
        <ele>469.0</ele>
        <time>2017-05-27T09:04:15.179Z</time>
      </trkpt>
      <trkpt lat="39.91623833" lon="-0.354895">
        <ele>469.0</ele>
        <time>2017-05-27T09:04:16.157Z</time>
      </trkpt>
      <trkpt lat="39.916205" lon="-0.354895">
        <ele>469.0</ele>
        <time>2017-05-27T09:04:17.165Z</time>
      </trkpt>
      <trkpt lat="39.916205" lon="-0.354895">
        <ele>469.0</ele>
        <time>2017-05-27T09:04:18.174Z</time>
      </trkpt>
      <trkpt lat="39.91616333" lon="-0.354905">
        <ele>469.0</ele>
        <time>2017-05-27T09:04:19.158Z</time>
      </trkpt>
      <trkpt lat="39.91613667" lon="-0.35491833">
        <ele>469.0</ele>
        <time>2017-05-27T09:04:20.156Z</time>
      </trkpt>
      <trkpt lat="39.91613667" lon="-0.35491833">
        <ele>469.0</ele>
        <time>2017-05-27T09:04:21.174Z</time>
      </trkpt>
      <trkpt lat="39.916105" lon="-0.354945">
        <ele>470.0</ele>
        <time>2017-05-27T09:04:22.188Z</time>
      </trkpt>
      <trkpt lat="39.91605667" lon="-0.35498333">
        <ele>470.0</ele>
        <time>2017-05-27T09:04:23.157Z</time>
      </trkpt>
      <trkpt lat="39.91602" lon="-0.355">
        <ele>470.0</ele>
        <time>2017-05-27T09:04:24.186Z</time>
      </trkpt>
      <trkpt lat="39.91602" lon="-0.355">
        <ele>470.0</ele>
        <time>2017-05-27T09:04:25.191Z</time>
      </trkpt>
      <trkpt lat="39.915945" lon="-0.354965">
        <ele>470.0</ele>
        <time>2017-05-27T09:04:26.157Z</time>
      </trkpt>
      <trkpt lat="39.915945" lon="-0.354965">
        <ele>470.0</ele>
        <time>2017-05-27T09:04:27.195Z</time>
      </trkpt>
      <trkpt lat="39.91589667" lon="-0.35488">
        <ele>470.0</ele>
        <time>2017-05-27T09:04:28.165Z</time>
      </trkpt>
      <trkpt lat="39.91588" lon="-0.35484833">
        <ele>470.0</ele>
        <time>2017-05-27T09:04:29.165Z</time>
      </trkpt>
      <trkpt lat="39.91588" lon="-0.35484833">
        <ele>470.0</ele>
        <time>2017-05-27T09:04:30.159Z</time>
      </trkpt>
      <trkpt lat="39.91583833" lon="-0.35472333">
        <ele>470.0</ele>
        <time>2017-05-27T09:04:31.164Z</time>
      </trkpt>
      <trkpt lat="39.91581833" lon="-0.35467167">
        <ele>470.0</ele>
        <time>2017-05-27T09:04:32.188Z</time>
      </trkpt>
      <trkpt lat="39.91580167" lon="-0.35463167">
        <ele>470.0</ele>
        <time>2017-05-27T09:04:33.158Z</time>
      </trkpt>
      <trkpt lat="39.91580167" lon="-0.35463167">
        <ele>470.0</ele>
        <time>2017-05-27T09:04:34.165Z</time>
      </trkpt>
      <trkpt lat="39.91577667" lon="-0.35456167">
        <ele>470.0</ele>
        <time>2017-05-27T09:04:35.172Z</time>
      </trkpt>
      <trkpt lat="39.91577667" lon="-0.35456167">
        <ele>470.0</ele>
        <time>2017-05-27T09:04:36.160Z</time>
      </trkpt>
      <trkpt lat="39.91577" lon="-0.35449667">
        <ele>470.0</ele>
        <time>2017-05-27T09:04:37.183Z</time>
      </trkpt>
      <trkpt lat="39.91577" lon="-0.35449667">
        <ele>470.0</ele>
        <time>2017-05-27T09:04:38.191Z</time>
      </trkpt>
      <trkpt lat="39.91577" lon="-0.35449667">
        <ele>470.0</ele>
        <time>2017-05-27T09:04:39.201Z</time>
      </trkpt>
      <trkpt lat="39.91576167" lon="-0.35442833">
        <ele>469.0</ele>
        <time>2017-05-27T09:04:40.177Z</time>
      </trkpt>
      <trkpt lat="39.91576833" lon="-0.35440667">
        <ele>468.0</ele>
        <time>2017-05-27T09:04:41.187Z</time>
      </trkpt>
      <trkpt lat="39.91576667" lon="-0.354385">
        <ele>468.0</ele>
        <time>2017-05-27T09:04:42.170Z</time>
      </trkpt>
      <trkpt lat="39.91576667" lon="-0.354385">
        <ele>468.0</ele>
        <time>2017-05-27T09:04:43.188Z</time>
      </trkpt>
      <trkpt lat="39.91578833" lon="-0.35436333">
        <ele>467.0</ele>
        <time>2017-05-27T09:04:44.157Z</time>
      </trkpt>
      <trkpt lat="39.91578833" lon="-0.35436333">
        <ele>467.0</ele>
        <time>2017-05-27T09:04:45.176Z</time>
      </trkpt>
      <trkpt lat="39.91580333" lon="-0.35434833">
        <ele>467.0</ele>
        <time>2017-05-27T09:04:46.168Z</time>
      </trkpt>
      <trkpt lat="39.91580333" lon="-0.35434833">
        <ele>467.0</ele>
        <time>2017-05-27T09:04:47.160Z</time>
      </trkpt>
      <trkpt lat="39.91580667" lon="-0.35434667">
        <ele>467.0</ele>
        <time>2017-05-27T09:04:48.167Z</time>
      </trkpt>
      <trkpt lat="39.91580333" lon="-0.35434333">
        <ele>467.0</ele>
        <time>2017-05-27T09:04:49.162Z</time>
      </trkpt>
      <trkpt lat="39.91580333" lon="-0.35434333">
        <ele>467.0</ele>
        <time>2017-05-27T09:04:50.191Z</time>
      </trkpt>
      <trkpt lat="39.91580333" lon="-0.35434333">
        <ele>467.0</ele>
        <time>2017-05-27T09:04:51.180Z</time>
      </trkpt>
      <trkpt lat="39.91580333" lon="-0.35434333">
        <ele>467.0</ele>
        <time>2017-05-27T09:04:52.165Z</time>
      </trkpt>
      <trkpt lat="39.91580333" lon="-0.35434333">
        <ele>467.0</ele>
        <time>2017-05-27T09:04:53.165Z</time>
      </trkpt>
      <trkpt lat="39.91578667" lon="-0.354295">
        <ele>467.0</ele>
        <time>2017-05-27T09:04:54.166Z</time>
      </trkpt>
      <trkpt lat="39.91578667" lon="-0.354295">
        <ele>467.0</ele>
        <time>2017-05-27T09:04:55.165Z</time>
      </trkpt>
      <trkpt lat="39.91578667" lon="-0.354295">
        <ele>467.0</ele>
        <time>2017-05-27T09:04:56.168Z</time>
      </trkpt>
      <trkpt lat="39.91577667" lon="-0.35429833">
        <ele>468.0</ele>
        <time>2017-05-27T09:04:57.162Z</time>
      </trkpt>
      <trkpt lat="39.91577667" lon="-0.35429833">
        <ele>468.0</ele>
        <time>2017-05-27T09:04:58.182Z</time>
      </trkpt>
      <trkpt lat="39.91577667" lon="-0.35429833">
        <ele>468.0</ele>
        <time>2017-05-27T09:04:59.188Z</time>
      </trkpt>
      <trkpt lat="39.91577667" lon="-0.35429833">
        <ele>468.0</ele>
        <time>2017-05-27T09:05:00.193Z</time>
      </trkpt>
      <trkpt lat="39.91577667" lon="-0.35429833">
        <ele>468.0</ele>
        <time>2017-05-27T09:05:01.160Z</time>
      </trkpt>
      <trkpt lat="39.91577667" lon="-0.35429833">
        <ele>468.0</ele>
        <time>2017-05-27T09:05:02.193Z</time>
      </trkpt>
      <trkpt lat="39.91577667" lon="-0.35429833">
        <ele>468.0</ele>
        <time>2017-05-27T09:05:03.167Z</time>
      </trkpt>
      <trkpt lat="39.915765" lon="-0.35421167">
        <ele>475.0</ele>
        <time>2017-05-27T09:05:04.195Z</time>
      </trkpt>
      <trkpt lat="39.915765" lon="-0.35421167">
        <ele>475.0</ele>
        <time>2017-05-27T09:05:05.180Z</time>
      </trkpt>
      <trkpt lat="39.915765" lon="-0.35421167">
        <ele>475.0</ele>
        <time>2017-05-27T09:05:06.185Z</time>
      </trkpt>
      <trkpt lat="39.915765" lon="-0.35421167">
        <ele>475.0</ele>
        <time>2017-05-27T09:05:07.191Z</time>
      </trkpt>
      <trkpt lat="39.915765" lon="-0.35421167">
        <ele>475.0</ele>
        <time>2017-05-27T09:05:08.156Z</time>
      </trkpt>
      <trkpt lat="39.91582" lon="-0.35417">
        <ele>477.0</ele>
        <time>2017-05-27T09:58:39.513Z</time>
      </trkpt>
      <trkpt lat="39.91582" lon="-0.35417">
        <ele>477.0</ele>
        <time>2017-05-27T09:58:40.503Z</time>
      </trkpt>
      <trkpt lat="39.91582" lon="-0.35417">
        <ele>477.0</ele>
        <time>2017-05-27T09:58:41.525Z</time>
      </trkpt>
      <trkpt lat="39.91582" lon="-0.35417">
        <ele>477.0</ele>
        <time>2017-05-27T09:58:42.515Z</time>
      </trkpt>
      <trkpt lat="39.91582" lon="-0.35417">
        <ele>477.0</ele>
        <time>2017-05-27T09:58:43.527Z</time>
      </trkpt>
      <trkpt lat="39.91582" lon="-0.35417">
        <ele>477.0</ele>
        <time>2017-05-27T09:58:44.515Z</time>
      </trkpt>
      <trkpt lat="39.91582" lon="-0.35417">
        <ele>477.0</ele>
        <time>2017-05-27T09:58:45.508Z</time>
      </trkpt>
      <trkpt lat="39.91582" lon="-0.35417">
        <ele>477.0</ele>
        <time>2017-05-27T09:58:46.507Z</time>
      </trkpt>
      <trkpt lat="39.91582" lon="-0.35417">
        <ele>477.0</ele>
        <time>2017-05-27T09:58:47.517Z</time>
      </trkpt>
      <trkpt lat="39.91582" lon="-0.35417">
        <ele>477.0</ele>
        <time>2017-05-27T09:58:48.526Z</time>
      </trkpt>
      <trkpt lat="39.91582" lon="-0.35417">
        <ele>477.0</ele>
        <time>2017-05-27T09:58:49.501Z</time>
      </trkpt>
      <trkpt lat="39.91582" lon="-0.35417">
        <ele>477.0</ele>
        <time>2017-05-27T09:58:50.496Z</time>
      </trkpt>
      <trkpt lat="39.91582" lon="-0.35417">
        <ele>477.0</ele>
        <time>2017-05-27T09:58:51.494Z</time>
      </trkpt>
      <trkpt lat="39.91582" lon="-0.35417">
        <ele>477.0</ele>
        <time>2017-05-27T09:58:52.527Z</time>
      </trkpt>
      <trkpt lat="39.91582" lon="-0.35417">
        <ele>477.0</ele>
        <time>2017-05-27T09:58:53.519Z</time>
      </trkpt>
      <trkpt lat="39.91582" lon="-0.35417">
        <ele>477.0</ele>
        <time>2017-05-27T09:58:54.520Z</time>
      </trkpt>
      <trkpt lat="39.91582" lon="-0.35417">
        <ele>477.0</ele>
        <time>2017-05-27T09:58:55.516Z</time>
      </trkpt>
      <trkpt lat="39.91582" lon="-0.35417">
        <ele>477.0</ele>
        <time>2017-05-27T09:58:56.519Z</time>
      </trkpt>
      <trkpt lat="39.91582" lon="-0.35417">
        <ele>477.0</ele>
        <time>2017-05-27T09:58:57.513Z</time>
      </trkpt>
      <trkpt lat="39.91582" lon="-0.35417">
        <ele>477.0</ele>
        <time>2017-05-27T09:58:58.519Z</time>
      </trkpt>
      <trkpt lat="39.91582" lon="-0.35417">
        <ele>477.0</ele>
        <time>2017-05-27T09:58:59.513Z</time>
      </trkpt>
      <trkpt lat="39.91582" lon="-0.35417">
        <ele>477.0</ele>
        <time>2017-05-27T09:59:00.497Z</time>
      </trkpt>
      <trkpt lat="39.91582" lon="-0.35417">
        <ele>477.0</ele>
        <time>2017-05-27T09:59:01.497Z</time>
      </trkpt>
      <trkpt lat="39.91582" lon="-0.35417">
        <ele>477.0</ele>
        <time>2017-05-27T09:59:02.527Z</time>
      </trkpt>
      <trkpt lat="39.91582" lon="-0.35417">
        <ele>477.0</ele>
        <time>2017-05-27T09:59:03.525Z</time>
      </trkpt>
      <trkpt lat="39.91582" lon="-0.35417">
        <ele>477.0</ele>
        <time>2017-05-27T09:59:04.516Z</time>
      </trkpt>
      <trkpt lat="39.91582" lon="-0.35417">
        <ele>477.0</ele>
        <time>2017-05-27T09:59:05.506Z</time>
      </trkpt>
      <trkpt lat="39.91582" lon="-0.35417">
        <ele>477.0</ele>
        <time>2017-05-27T09:59:06.512Z</time>
      </trkpt>
      <trkpt lat="39.91582" lon="-0.35417">
        <ele>477.0</ele>
        <time>2017-05-27T09:59:07.520Z</time>
      </trkpt>
      <trkpt lat="39.91582" lon="-0.35417">
        <ele>477.0</ele>
        <time>2017-05-27T09:59:08.514Z</time>
      </trkpt>
      <trkpt lat="39.91582" lon="-0.35417">
        <ele>477.0</ele>
        <time>2017-05-27T09:59:09.515Z</time>
      </trkpt>
      <trkpt lat="39.91582" lon="-0.35417">
        <ele>477.0</ele>
        <time>2017-05-27T09:59:10.506Z</time>
      </trkpt>
      <trkpt lat="39.91582" lon="-0.35417">
        <ele>477.0</ele>
        <time>2017-05-27T09:59:11.497Z</time>
      </trkpt>
      <trkpt lat="39.91582" lon="-0.35417">
        <ele>477.0</ele>
        <time>2017-05-27T09:59:12.493Z</time>
      </trkpt>
      <trkpt lat="39.91582" lon="-0.35417">
        <ele>477.0</ele>
        <time>2017-05-27T09:59:13.519Z</time>
      </trkpt>
      <trkpt lat="39.91582" lon="-0.35417">
        <ele>477.0</ele>
        <time>2017-05-27T09:59:14.515Z</time>
      </trkpt>
      <trkpt lat="39.91582" lon="-0.35417">
        <ele>477.0</ele>
        <time>2017-05-27T09:59:15.511Z</time>
      </trkpt>
      <trkpt lat="39.91582" lon="-0.35417">
        <ele>477.0</ele>
        <time>2017-05-27T09:59:16.519Z</time>
      </trkpt>
      <trkpt lat="39.91582" lon="-0.35417">
        <ele>477.0</ele>
        <time>2017-05-27T09:59:17.507Z</time>
      </trkpt>
      <trkpt lat="39.91582" lon="-0.35417">
        <ele>477.0</ele>
        <time>2017-05-27T09:59:18.495Z</time>
      </trkpt>
      <trkpt lat="39.91582" lon="-0.35417">
        <ele>477.0</ele>
        <time>2017-05-27T09:59:19.499Z</time>
      </trkpt>
      <trkpt lat="39.91582" lon="-0.35417">
        <ele>477.0</ele>
        <time>2017-05-27T09:59:20.531Z</time>
      </trkpt>
      <trkpt lat="39.91582" lon="-0.35417">
        <ele>477.0</ele>
        <time>2017-05-27T09:59:21.523Z</time>
      </trkpt>
      <trkpt lat="39.91582" lon="-0.35417">
        <ele>477.0</ele>
        <time>2017-05-27T09:59:22.510Z</time>
      </trkpt>
      <trkpt lat="39.91582" lon="-0.35417">
        <ele>477.0</ele>
        <time>2017-05-27T09:59:23.494Z</time>
      </trkpt>
      <trkpt lat="39.91582" lon="-0.35417">
        <ele>477.0</ele>
        <time>2017-05-27T09:59:24.492Z</time>
      </trkpt>
      <trkpt lat="39.91582" lon="-0.35417">
        <ele>477.0</ele>
        <time>2017-05-27T09:59:25.520Z</time>
      </trkpt>
      <trkpt lat="39.91582" lon="-0.35417">
        <ele>477.0</ele>
        <time>2017-05-27T09:59:26.508Z</time>
      </trkpt>
      <trkpt lat="39.91582" lon="-0.35417">
        <ele>477.0</ele>
        <time>2017-05-27T09:59:27.502Z</time>
      </trkpt>
      <trkpt lat="39.91582" lon="-0.35417">
        <ele>477.0</ele>
        <time>2017-05-27T09:59:28.505Z</time>
      </trkpt>
      <trkpt lat="39.91582" lon="-0.35417">
        <ele>477.0</ele>
        <time>2017-05-27T09:59:29.492Z</time>
      </trkpt>
      <trkpt lat="39.91582" lon="-0.35417">
        <ele>477.0</ele>
        <time>2017-05-27T09:59:30.520Z</time>
      </trkpt>
      <trkpt lat="39.91582" lon="-0.35417">
        <ele>477.0</ele>
        <time>2017-05-27T09:59:31.508Z</time>
      </trkpt>
      <trkpt lat="39.91582" lon="-0.35417">
        <ele>477.0</ele>
        <time>2017-05-27T09:59:32.519Z</time>
      </trkpt>
      <trkpt lat="39.91582" lon="-0.35417">
        <ele>477.0</ele>
        <time>2017-05-27T09:59:33.493Z</time>
      </trkpt>
      <trkpt lat="39.91582" lon="-0.35417">
        <ele>477.0</ele>
        <time>2017-05-27T09:59:34.519Z</time>
      </trkpt>
      <trkpt lat="39.91582" lon="-0.35417">
        <ele>477.0</ele>
        <time>2017-05-27T09:59:35.527Z</time>
      </trkpt>
      <trkpt lat="39.91582" lon="-0.35417">
        <ele>477.0</ele>
        <time>2017-05-27T09:59:36.512Z</time>
      </trkpt>
      <trkpt lat="39.91582" lon="-0.35417">
        <ele>477.0</ele>
        <time>2017-05-27T09:59:37.503Z</time>
      </trkpt>
      <trkpt lat="39.91582" lon="-0.35417">
        <ele>477.0</ele>
        <time>2017-05-27T09:59:38.528Z</time>
      </trkpt>
      <trkpt lat="39.91582" lon="-0.35417">
        <ele>477.0</ele>
        <time>2017-05-27T09:59:39.519Z</time>
      </trkpt>
      <trkpt lat="39.91582" lon="-0.35417">
        <ele>477.0</ele>
        <time>2017-05-27T09:59:40.522Z</time>
      </trkpt>
      <trkpt lat="39.91582" lon="-0.35417">
        <ele>477.0</ele>
        <time>2017-05-27T09:59:41.509Z</time>
      </trkpt>
      <trkpt lat="39.91582" lon="-0.35417">
        <ele>477.0</ele>
        <time>2017-05-27T09:59:42.511Z</time>
      </trkpt>
      <trkpt lat="39.91582" lon="-0.35417">
        <ele>477.0</ele>
        <time>2017-05-27T09:59:43.493Z</time>
      </trkpt>
      <trkpt lat="39.91582" lon="-0.35417">
        <ele>477.0</ele>
        <time>2017-05-27T09:59:44.525Z</time>
      </trkpt>
      <trkpt lat="39.91582" lon="-0.35417">
        <ele>477.0</ele>
        <time>2017-05-27T09:59:45.520Z</time>
      </trkpt>
      <trkpt lat="39.91582" lon="-0.35417">
        <ele>477.0</ele>
        <time>2017-05-27T09:59:46.508Z</time>
      </trkpt>
      <trkpt lat="39.91582" lon="-0.35417">
        <ele>477.0</ele>
        <time>2017-05-27T09:59:47.508Z</time>
      </trkpt>
      <trkpt lat="39.91582" lon="-0.35417">
        <ele>477.0</ele>
        <time>2017-05-27T09:59:48.502Z</time>
      </trkpt>
      <trkpt lat="39.91582" lon="-0.35417">
        <ele>477.0</ele>
        <time>2017-05-27T09:59:49.495Z</time>
      </trkpt>
      <trkpt lat="39.91582" lon="-0.35417">
        <ele>477.0</ele>
        <time>2017-05-27T09:59:50.519Z</time>
      </trkpt>
      <trkpt lat="39.91582" lon="-0.35417">
        <ele>477.0</ele>
        <time>2017-05-27T09:59:51.523Z</time>
      </trkpt>
      <trkpt lat="39.91582" lon="-0.35417">
        <ele>477.0</ele>
        <time>2017-05-27T09:59:52.510Z</time>
      </trkpt>
      <trkpt lat="39.91582" lon="-0.35417">
        <ele>477.0</ele>
        <time>2017-05-27T09:59:53.494Z</time>
      </trkpt>
      <trkpt lat="39.91582" lon="-0.35417">
        <ele>477.0</ele>
        <time>2017-05-27T09:59:54.522Z</time>
      </trkpt>
      <trkpt lat="39.91582" lon="-0.35417">
        <ele>477.0</ele>
        <time>2017-05-27T09:59:55.521Z</time>
      </trkpt>
      <trkpt lat="39.91582" lon="-0.35417">
        <ele>477.0</ele>
        <time>2017-05-27T09:59:56.507Z</time>
      </trkpt>
      <trkpt lat="39.91582" lon="-0.35417">
        <ele>477.0</ele>
        <time>2017-05-27T09:59:57.492Z</time>
      </trkpt>
      <trkpt lat="39.91582" lon="-0.35417">
        <ele>477.0</ele>
        <time>2017-05-27T09:59:58.516Z</time>
      </trkpt>
      <trkpt lat="39.91582" lon="-0.35417">
        <ele>477.0</ele>
        <time>2017-05-27T09:59:59.521Z</time>
      </trkpt>
      <trkpt lat="39.91582" lon="-0.35417">
        <ele>477.0</ele>
        <time>2017-05-27T10:00:00.510Z</time>
      </trkpt>
      <trkpt lat="39.91582" lon="-0.35417">
        <ele>477.0</ele>
        <time>2017-05-27T10:00:01.494Z</time>
      </trkpt>
      <trkpt lat="39.91582" lon="-0.35417">
        <ele>477.0</ele>
        <time>2017-05-27T10:00:02.519Z</time>
      </trkpt>
      <trkpt lat="39.91582" lon="-0.35417">
        <ele>477.0</ele>
        <time>2017-05-27T10:00:03.517Z</time>
      </trkpt>
      <trkpt lat="39.91582" lon="-0.35417">
        <ele>477.0</ele>
        <time>2017-05-27T10:00:04.510Z</time>
      </trkpt>
      <trkpt lat="39.91582" lon="-0.35417">
        <ele>477.0</ele>
        <time>2017-05-27T10:00:05.517Z</time>
      </trkpt>
      <trkpt lat="39.91582" lon="-0.35417">
        <ele>477.0</ele>
        <time>2017-05-27T10:00:06.520Z</time>
      </trkpt>
      <trkpt lat="39.91582" lon="-0.35417">
        <ele>477.0</ele>
        <time>2017-05-27T10:00:07.503Z</time>
      </trkpt>
      <trkpt lat="39.91582" lon="-0.35417">
        <ele>477.0</ele>
        <time>2017-05-27T10:00:08.519Z</time>
      </trkpt>
      <trkpt lat="39.91582" lon="-0.35417">
        <ele>477.0</ele>
        <time>2017-05-27T10:00:09.528Z</time>
      </trkpt>
      <trkpt lat="39.91582" lon="-0.35417">
        <ele>477.0</ele>
        <time>2017-05-27T10:00:10.530Z</time>
      </trkpt>
      <trkpt lat="39.91577833" lon="-0.35427667">
        <ele>477.0</ele>
        <time>2017-05-27T10:00:11.495Z</time>
      </trkpt>
      <trkpt lat="39.91577833" lon="-0.35427667">
        <ele>477.0</ele>
        <time>2017-05-27T10:00:12.528Z</time>
      </trkpt>
      <trkpt lat="39.91578167" lon="-0.35428333">
        <ele>477.0</ele>
        <time>2017-05-27T10:00:13.530Z</time>
      </trkpt>
      <trkpt lat="39.91578167" lon="-0.35428333">
        <ele>477.0</ele>
        <time>2017-05-27T10:00:14.496Z</time>
      </trkpt>
      <trkpt lat="39.91578" lon="-0.35428667">
        <ele>477.0</ele>
        <time>2017-05-27T10:00:15.511Z</time>
      </trkpt>
      <trkpt lat="39.91578" lon="-0.35428667">
        <ele>477.0</ele>
        <time>2017-05-27T10:00:16.521Z</time>
      </trkpt>
      <trkpt lat="39.91578" lon="-0.35428667">
        <ele>477.0</ele>
        <time>2017-05-27T10:00:17.523Z</time>
      </trkpt>
      <trkpt lat="39.91578" lon="-0.35428667">
        <ele>477.0</ele>
        <time>2017-05-27T10:00:18.519Z</time>
      </trkpt>
      <trkpt lat="39.91578" lon="-0.35428667">
        <ele>477.0</ele>
        <time>2017-05-27T10:00:19.493Z</time>
      </trkpt>
      <trkpt lat="39.91578" lon="-0.35428667">
        <ele>477.0</ele>
        <time>2017-05-27T10:00:20.519Z</time>
      </trkpt>
      <trkpt lat="39.91578" lon="-0.35428667">
        <ele>477.0</ele>
        <time>2017-05-27T10:00:21.519Z</time>
      </trkpt>
      <trkpt lat="39.91578" lon="-0.35428667">
        <ele>477.0</ele>
        <time>2017-05-27T10:00:22.528Z</time>
      </trkpt>
      <trkpt lat="39.91578" lon="-0.35428667">
        <ele>477.0</ele>
        <time>2017-05-27T10:00:23.523Z</time>
      </trkpt>
      <trkpt lat="39.91578" lon="-0.35428667">
        <ele>477.0</ele>
        <time>2017-05-27T10:00:24.519Z</time>
      </trkpt>
      <trkpt lat="39.91578" lon="-0.35428667">
        <ele>477.0</ele>
        <time>2017-05-27T10:00:25.525Z</time>
      </trkpt>
      <trkpt lat="39.91578" lon="-0.35428667">
        <ele>477.0</ele>
        <time>2017-05-27T10:00:26.517Z</time>
      </trkpt>
      <trkpt lat="39.91578" lon="-0.35428667">
        <ele>477.0</ele>
        <time>2017-05-27T10:00:27.520Z</time>
      </trkpt>
      <trkpt lat="39.91578" lon="-0.35428667">
        <ele>477.0</ele>
        <time>2017-05-27T10:00:28.517Z</time>
      </trkpt>
      <trkpt lat="39.91578" lon="-0.35428667">
        <ele>477.0</ele>
        <time>2017-05-27T10:00:29.519Z</time>
      </trkpt>
      <trkpt lat="39.91578" lon="-0.35428667">
        <ele>477.0</ele>
        <time>2017-05-27T10:00:30.517Z</time>
      </trkpt>
      <trkpt lat="39.91578" lon="-0.35428667">
        <ele>477.0</ele>
        <time>2017-05-27T10:00:31.522Z</time>
      </trkpt>
      <trkpt lat="39.91578" lon="-0.35428667">
        <ele>477.0</ele>
        <time>2017-05-27T10:00:32.503Z</time>
      </trkpt>
      <trkpt lat="39.91578" lon="-0.35428667">
        <ele>477.0</ele>
        <time>2017-05-27T10:00:33.522Z</time>
      </trkpt>
      <trkpt lat="39.91578" lon="-0.35428667">
        <ele>477.0</ele>
        <time>2017-05-27T10:00:34.497Z</time>
      </trkpt>
      <trkpt lat="39.91578" lon="-0.35428667">
        <ele>477.0</ele>
        <time>2017-05-27T10:00:35.514Z</time>
      </trkpt>
      <trkpt lat="39.91578" lon="-0.35428667">
        <ele>477.0</ele>
        <time>2017-05-27T10:00:36.530Z</time>
      </trkpt>
      <trkpt lat="39.91578" lon="-0.35428667">
        <ele>477.0</ele>
        <time>2017-05-27T10:00:37.510Z</time>
      </trkpt>
      <trkpt lat="39.91578" lon="-0.35428667">
        <ele>477.0</ele>
        <time>2017-05-27T10:00:38.528Z</time>
      </trkpt>
      <trkpt lat="39.91578" lon="-0.35428667">
        <ele>477.0</ele>
        <time>2017-05-27T10:00:39.517Z</time>
      </trkpt>
      <trkpt lat="39.91578" lon="-0.35428667">
        <ele>477.0</ele>
        <time>2017-05-27T10:00:40.523Z</time>
      </trkpt>
      <trkpt lat="39.91578" lon="-0.35428667">
        <ele>477.0</ele>
        <time>2017-05-27T10:00:41.499Z</time>
      </trkpt>
      <trkpt lat="39.91578" lon="-0.35428667">
        <ele>477.0</ele>
        <time>2017-05-27T10:00:42.508Z</time>
      </trkpt>
      <trkpt lat="39.91578" lon="-0.35428667">
        <ele>477.0</ele>
        <time>2017-05-27T10:00:43.515Z</time>
      </trkpt>
      <trkpt lat="39.91578" lon="-0.35428667">
        <ele>477.0</ele>
        <time>2017-05-27T10:00:44.495Z</time>
      </trkpt>
      <trkpt lat="39.91578" lon="-0.35428667">
        <ele>477.0</ele>
        <time>2017-05-27T10:00:45.519Z</time>
      </trkpt>
      <trkpt lat="39.91578" lon="-0.35428667">
        <ele>477.0</ele>
        <time>2017-05-27T10:00:46.517Z</time>
      </trkpt>
      <trkpt lat="39.91578" lon="-0.35428667">
        <ele>477.0</ele>
        <time>2017-05-27T10:00:47.520Z</time>
      </trkpt>
      <trkpt lat="39.91578" lon="-0.35428667">
        <ele>477.0</ele>
        <time>2017-05-27T10:00:48.526Z</time>
      </trkpt>
      <trkpt lat="39.91578" lon="-0.35428667">
        <ele>477.0</ele>
        <time>2017-05-27T10:00:49.519Z</time>
      </trkpt>
      <trkpt lat="39.91578" lon="-0.35428667">
        <ele>477.0</ele>
        <time>2017-05-27T10:00:50.521Z</time>
      </trkpt>
      <trkpt lat="39.91578" lon="-0.35428667">
        <ele>477.0</ele>
        <time>2017-05-27T10:00:51.519Z</time>
      </trkpt>
      <trkpt lat="39.91578" lon="-0.35428667">
        <ele>477.0</ele>
        <time>2017-05-27T10:00:52.504Z</time>
      </trkpt>
      <trkpt lat="39.91578" lon="-0.35428667">
        <ele>477.0</ele>
        <time>2017-05-27T10:00:53.491Z</time>
      </trkpt>
      <trkpt lat="39.91578" lon="-0.35428667">
        <ele>477.0</ele>
        <time>2017-05-27T10:00:54.514Z</time>
      </trkpt>
      <trkpt lat="39.91578" lon="-0.35428667">
        <ele>477.0</ele>
        <time>2017-05-27T10:00:55.499Z</time>
      </trkpt>
      <trkpt lat="39.91578" lon="-0.35428667">
        <ele>477.0</ele>
        <time>2017-05-27T10:00:56.529Z</time>
      </trkpt>
      <trkpt lat="39.91578" lon="-0.35428667">
        <ele>477.0</ele>
        <time>2017-05-27T10:00:57.519Z</time>
      </trkpt>
      <trkpt lat="39.91578" lon="-0.35428667">
        <ele>477.0</ele>
        <time>2017-05-27T10:00:58.520Z</time>
      </trkpt>
      <trkpt lat="39.91578" lon="-0.35428667">
        <ele>477.0</ele>
        <time>2017-05-27T10:00:59.519Z</time>
      </trkpt>
      <trkpt lat="39.91578" lon="-0.35428667">
        <ele>477.0</ele>
        <time>2017-05-27T10:01:00.502Z</time>
      </trkpt>
      <trkpt lat="39.91578" lon="-0.35428667">
        <ele>477.0</ele>
        <time>2017-05-27T10:01:01.526Z</time>
      </trkpt>
      <trkpt lat="39.91578" lon="-0.35428667">
        <ele>477.0</ele>
        <time>2017-05-27T10:01:02.497Z</time>
      </trkpt>
      <trkpt lat="39.91578" lon="-0.35428667">
        <ele>477.0</ele>
        <time>2017-05-27T10:01:03.524Z</time>
      </trkpt>
      <trkpt lat="39.91578" lon="-0.35428667">
        <ele>477.0</ele>
        <time>2017-05-27T10:01:04.520Z</time>
      </trkpt>
      <trkpt lat="39.91578" lon="-0.35428667">
        <ele>477.0</ele>
        <time>2017-05-27T10:01:05.517Z</time>
      </trkpt>
      <trkpt lat="39.91578" lon="-0.35428667">
        <ele>477.0</ele>
        <time>2017-05-27T10:01:06.497Z</time>
      </trkpt>
      <trkpt lat="39.91578" lon="-0.35428667">
        <ele>477.0</ele>
        <time>2017-05-27T10:01:07.520Z</time>
      </trkpt>
      <trkpt lat="39.91578" lon="-0.35428667">
        <ele>477.0</ele>
        <time>2017-05-27T10:01:08.517Z</time>
      </trkpt>
      <trkpt lat="39.91578" lon="-0.35428667">
        <ele>477.0</ele>
        <time>2017-05-27T10:01:09.520Z</time>
      </trkpt>
      <trkpt lat="39.91578" lon="-0.35428667">
        <ele>477.0</ele>
        <time>2017-05-27T10:01:10.515Z</time>
      </trkpt>
      <trkpt lat="39.91578" lon="-0.35428667">
        <ele>477.0</ele>
        <time>2017-05-27T10:01:11.496Z</time>
      </trkpt>
      <trkpt lat="39.91578" lon="-0.35428667">
        <ele>477.0</ele>
        <time>2017-05-27T10:01:12.519Z</time>
      </trkpt>
      <trkpt lat="39.91578" lon="-0.35428667">
        <ele>477.0</ele>
        <time>2017-05-27T10:01:13.513Z</time>
      </trkpt>
      <trkpt lat="39.91578" lon="-0.35428667">
        <ele>477.0</ele>
        <time>2017-05-27T10:01:14.494Z</time>
      </trkpt>
      <trkpt lat="39.91578" lon="-0.35428667">
        <ele>477.0</ele>
        <time>2017-05-27T10:01:15.519Z</time>
      </trkpt>
      <trkpt lat="39.91578" lon="-0.35428667">
        <ele>477.0</ele>
        <time>2017-05-27T10:01:16.517Z</time>
      </trkpt>
      <trkpt lat="39.91578" lon="-0.35428667">
        <ele>477.0</ele>
        <time>2017-05-27T10:01:17.520Z</time>
      </trkpt>
      <trkpt lat="39.91578" lon="-0.35428667">
        <ele>477.0</ele>
        <time>2017-05-27T10:01:18.517Z</time>
      </trkpt>
      <trkpt lat="39.91578" lon="-0.35428667">
        <ele>477.0</ele>
        <time>2017-05-27T10:01:19.520Z</time>
      </trkpt>
      <trkpt lat="39.91578" lon="-0.35428667">
        <ele>477.0</ele>
        <time>2017-05-27T10:01:20.517Z</time>
      </trkpt>
      <trkpt lat="39.91578" lon="-0.35428667">
        <ele>477.0</ele>
        <time>2017-05-27T10:01:21.526Z</time>
      </trkpt>
      <trkpt lat="39.91578" lon="-0.35428667">
        <ele>477.0</ele>
        <time>2017-05-27T10:01:22.495Z</time>
      </trkpt>
      <trkpt lat="39.91578" lon="-0.35428667">
        <ele>477.0</ele>
        <time>2017-05-27T10:01:23.508Z</time>
      </trkpt>
      <trkpt lat="39.91578" lon="-0.35428667">
        <ele>477.0</ele>
        <time>2017-05-27T10:01:24.502Z</time>
      </trkpt>
      <trkpt lat="39.91578" lon="-0.35428667">
        <ele>477.0</ele>
        <time>2017-05-27T10:01:25.530Z</time>
      </trkpt>
      <trkpt lat="39.91578" lon="-0.35428667">
        <ele>477.0</ele>
        <time>2017-05-27T10:01:26.516Z</time>
      </trkpt>
      <trkpt lat="39.91578" lon="-0.35428667">
        <ele>477.0</ele>
        <time>2017-05-27T10:01:27.528Z</time>
      </trkpt>
      <trkpt lat="39.91578" lon="-0.35428667">
        <ele>477.0</ele>
        <time>2017-05-27T10:01:28.515Z</time>
      </trkpt>
      <trkpt lat="39.91578" lon="-0.35428667">
        <ele>477.0</ele>
        <time>2017-05-27T10:01:29.505Z</time>
      </trkpt>
      <trkpt lat="39.91578" lon="-0.35428667">
        <ele>477.0</ele>
        <time>2017-05-27T10:01:30.491Z</time>
      </trkpt>
      <trkpt lat="39.91578" lon="-0.35428667">
        <ele>477.0</ele>
        <time>2017-05-27T10:01:31.517Z</time>
      </trkpt>
      <trkpt lat="39.91578" lon="-0.35428667">
        <ele>477.0</ele>
        <time>2017-05-27T10:01:32.508Z</time>
      </trkpt>
      <trkpt lat="39.91578" lon="-0.35428667">
        <ele>477.0</ele>
        <time>2017-05-27T10:01:33.527Z</time>
      </trkpt>
      <trkpt lat="39.91578" lon="-0.35428667">
        <ele>477.0</ele>
        <time>2017-05-27T10:01:34.511Z</time>
      </trkpt>
      <trkpt lat="39.91578" lon="-0.35428667">
        <ele>477.0</ele>
        <time>2017-05-27T10:01:35.502Z</time>
      </trkpt>
      <trkpt lat="39.91578" lon="-0.35428667">
        <ele>477.0</ele>
        <time>2017-05-27T10:01:36.529Z</time>
      </trkpt>
      <trkpt lat="39.91578" lon="-0.35428667">
        <ele>477.0</ele>
        <time>2017-05-27T10:01:37.517Z</time>
      </trkpt>
      <trkpt lat="39.91578" lon="-0.35428667">
        <ele>477.0</ele>
        <time>2017-05-27T10:01:38.521Z</time>
      </trkpt>
      <trkpt lat="39.91578" lon="-0.35428667">
        <ele>477.0</ele>
        <time>2017-05-27T10:01:39.524Z</time>
      </trkpt>
      <trkpt lat="39.91578" lon="-0.35428667">
        <ele>477.0</ele>
        <time>2017-05-27T10:01:40.521Z</time>
      </trkpt>
      <trkpt lat="39.91578" lon="-0.35428667">
        <ele>477.0</ele>
        <time>2017-05-27T10:01:41.506Z</time>
      </trkpt>
      <trkpt lat="39.91578" lon="-0.35428667">
        <ele>477.0</ele>
        <time>2017-05-27T10:01:42.494Z</time>
      </trkpt>
      <trkpt lat="39.91578" lon="-0.35428667">
        <ele>477.0</ele>
        <time>2017-05-27T10:01:43.514Z</time>
      </trkpt>
      <trkpt lat="39.91578" lon="-0.35428667">
        <ele>477.0</ele>
        <time>2017-05-27T10:01:44.502Z</time>
      </trkpt>
      <trkpt lat="39.91578" lon="-0.35428667">
        <ele>477.0</ele>
        <time>2017-05-27T10:01:45.527Z</time>
      </trkpt>
      <trkpt lat="39.91578" lon="-0.35428667">
        <ele>477.0</ele>
        <time>2017-05-27T10:01:46.521Z</time>
      </trkpt>
      <trkpt lat="39.91578" lon="-0.35428667">
        <ele>477.0</ele>
        <time>2017-05-27T10:01:47.528Z</time>
      </trkpt>
      <trkpt lat="39.91578" lon="-0.35428667">
        <ele>477.0</ele>
        <time>2017-05-27T10:01:48.524Z</time>
      </trkpt>
      <trkpt lat="39.91578" lon="-0.35428667">
        <ele>477.0</ele>
        <time>2017-05-27T10:01:49.529Z</time>
      </trkpt>
      <trkpt lat="39.91578" lon="-0.35428667">
        <ele>477.0</ele>
        <time>2017-05-27T10:01:50.512Z</time>
      </trkpt>
      <trkpt lat="39.91578" lon="-0.35428667">
        <ele>477.0</ele>
        <time>2017-05-27T10:01:51.497Z</time>
      </trkpt>
      <trkpt lat="39.91578" lon="-0.35428667">
        <ele>477.0</ele>
        <time>2017-05-27T10:01:52.527Z</time>
      </trkpt>
      <trkpt lat="39.91578" lon="-0.35428667">
        <ele>477.0</ele>
        <time>2017-05-27T10:01:53.521Z</time>
      </trkpt>
      <trkpt lat="39.91578" lon="-0.35428667">
        <ele>477.0</ele>
        <time>2017-05-27T10:01:54.527Z</time>
      </trkpt>
      <trkpt lat="39.91578" lon="-0.35428667">
        <ele>477.0</ele>
        <time>2017-05-27T10:01:55.514Z</time>
      </trkpt>
      <trkpt lat="39.91578" lon="-0.35428667">
        <ele>477.0</ele>
        <time>2017-05-27T10:01:56.502Z</time>
      </trkpt>
      <trkpt lat="39.91578" lon="-0.35428667">
        <ele>477.0</ele>
        <time>2017-05-27T10:01:57.491Z</time>
      </trkpt>
      <trkpt lat="39.91578" lon="-0.35428667">
        <ele>477.0</ele>
        <time>2017-05-27T10:01:58.520Z</time>
      </trkpt>
      <trkpt lat="39.91578" lon="-0.35428667">
        <ele>477.0</ele>
        <time>2017-05-27T10:01:59.521Z</time>
      </trkpt>
      <trkpt lat="39.91578" lon="-0.35428667">
        <ele>477.0</ele>
        <time>2017-05-27T10:02:00.519Z</time>
      </trkpt>
      <trkpt lat="39.91578" lon="-0.35428667">
        <ele>477.0</ele>
        <time>2017-05-27T10:02:01.517Z</time>
      </trkpt>
      <trkpt lat="39.91578" lon="-0.35428667">
        <ele>477.0</ele>
        <time>2017-05-27T10:02:02.495Z</time>
      </trkpt>
      <trkpt lat="39.91578" lon="-0.35428667">
        <ele>477.0</ele>
        <time>2017-05-27T10:02:03.504Z</time>
      </trkpt>
      <trkpt lat="39.91578" lon="-0.35428667">
        <ele>477.0</ele>
        <time>2017-05-27T10:02:04.514Z</time>
      </trkpt>
      <trkpt lat="39.91578" lon="-0.35428667">
        <ele>477.0</ele>
        <time>2017-05-27T10:02:05.520Z</time>
      </trkpt>
      <trkpt lat="39.91578" lon="-0.35428667">
        <ele>477.0</ele>
        <time>2017-05-27T10:02:06.512Z</time>
      </trkpt>
      <trkpt lat="39.91578" lon="-0.35428667">
        <ele>477.0</ele>
        <time>2017-05-27T10:02:07.519Z</time>
      </trkpt>
      <trkpt lat="39.91578" lon="-0.35428667">
        <ele>477.0</ele>
        <time>2017-05-27T10:02:08.509Z</time>
      </trkpt>
      <trkpt lat="39.91578" lon="-0.35428667">
        <ele>477.0</ele>
        <time>2017-05-27T10:02:09.492Z</time>
      </trkpt>
      <trkpt lat="39.91578" lon="-0.35428667">
        <ele>477.0</ele>
        <time>2017-05-27T10:02:10.530Z</time>
      </trkpt>
      <trkpt lat="39.91578" lon="-0.35428667">
        <ele>477.0</ele>
        <time>2017-05-27T10:02:11.513Z</time>
      </trkpt>
      <trkpt lat="39.91578" lon="-0.35428667">
        <ele>477.0</ele>
        <time>2017-05-27T10:02:12.503Z</time>
      </trkpt>
      <trkpt lat="39.91578" lon="-0.35428667">
        <ele>477.0</ele>
        <time>2017-05-27T10:02:13.496Z</time>
      </trkpt>
      <trkpt lat="39.91578" lon="-0.35428667">
        <ele>477.0</ele>
        <time>2017-05-27T10:02:14.528Z</time>
      </trkpt>
      <trkpt lat="39.91578" lon="-0.35428667">
        <ele>477.0</ele>
        <time>2017-05-27T10:02:15.525Z</time>
      </trkpt>
      <trkpt lat="39.91578" lon="-0.35428667">
        <ele>477.0</ele>
        <time>2017-05-27T10:02:16.513Z</time>
      </trkpt>
      <trkpt lat="39.91578" lon="-0.35428667">
        <ele>477.0</ele>
        <time>2017-05-27T10:02:17.519Z</time>
      </trkpt>
      <trkpt lat="39.91578" lon="-0.35428667">
        <ele>477.0</ele>
        <time>2017-05-27T10:02:18.516Z</time>
      </trkpt>
      <trkpt lat="39.91578" lon="-0.35428667">
        <ele>477.0</ele>
        <time>2017-05-27T10:02:19.522Z</time>
      </trkpt>
      <trkpt lat="39.91578" lon="-0.35428667">
        <ele>477.0</ele>
        <time>2017-05-27T10:02:20.511Z</time>
      </trkpt>
      <trkpt lat="39.91578" lon="-0.35428667">
        <ele>477.0</ele>
        <time>2017-05-27T10:02:21.521Z</time>
      </trkpt>
      <trkpt lat="39.91578" lon="-0.35428667">
        <ele>477.0</ele>
        <time>2017-05-27T10:02:22.513Z</time>
      </trkpt>
      <trkpt lat="39.91578" lon="-0.35428667">
        <ele>477.0</ele>
        <time>2017-05-27T10:02:23.495Z</time>
      </trkpt>
      <trkpt lat="39.91578" lon="-0.35428667">
        <ele>477.0</ele>
        <time>2017-05-27T10:02:24.529Z</time>
      </trkpt>
      <trkpt lat="39.91578" lon="-0.35428667">
        <ele>477.0</ele>
        <time>2017-05-27T10:02:25.525Z</time>
      </trkpt>
      <trkpt lat="39.91578" lon="-0.35428667">
        <ele>477.0</ele>
        <time>2017-05-27T10:02:26.520Z</time>
      </trkpt>
      <trkpt lat="39.91578" lon="-0.35428667">
        <ele>477.0</ele>
        <time>2017-05-27T10:02:27.513Z</time>
      </trkpt>
      <trkpt lat="39.91578" lon="-0.35428667">
        <ele>477.0</ele>
        <time>2017-05-27T10:02:28.513Z</time>
      </trkpt>
      <trkpt lat="39.91578" lon="-0.35428667">
        <ele>477.0</ele>
        <time>2017-05-27T10:02:29.521Z</time>
      </trkpt>
      <trkpt lat="39.91578" lon="-0.35428667">
        <ele>477.0</ele>
        <time>2017-05-27T10:02:30.519Z</time>
      </trkpt>
      <trkpt lat="39.91578" lon="-0.35428667">
        <ele>477.0</ele>
        <time>2017-05-27T10:02:31.516Z</time>
      </trkpt>
      <trkpt lat="39.91578" lon="-0.35428667">
        <ele>477.0</ele>
        <time>2017-05-27T10:02:32.516Z</time>
      </trkpt>
      <trkpt lat="39.91578" lon="-0.35428667">
        <ele>477.0</ele>
        <time>2017-05-27T10:02:33.524Z</time>
      </trkpt>
      <trkpt lat="39.91578" lon="-0.35428667">
        <ele>477.0</ele>
        <time>2017-05-27T10:02:34.512Z</time>
      </trkpt>
      <trkpt lat="39.91578" lon="-0.35428667">
        <ele>477.0</ele>
        <time>2017-05-27T10:02:35.520Z</time>
      </trkpt>
      <trkpt lat="39.91578" lon="-0.35428667">
        <ele>477.0</ele>
        <time>2017-05-27T10:02:36.517Z</time>
      </trkpt>
      <trkpt lat="39.91578" lon="-0.35428667">
        <ele>477.0</ele>
        <time>2017-05-27T10:02:37.525Z</time>
      </trkpt>
      <trkpt lat="39.91578" lon="-0.35428667">
        <ele>477.0</ele>
        <time>2017-05-27T10:02:38.526Z</time>
      </trkpt>
      <trkpt lat="39.91578" lon="-0.35428667">
        <ele>477.0</ele>
        <time>2017-05-27T10:02:39.496Z</time>
      </trkpt>
      <trkpt lat="39.91578" lon="-0.35428667">
        <ele>477.0</ele>
        <time>2017-05-27T10:02:40.491Z</time>
      </trkpt>
      <trkpt lat="39.91578" lon="-0.35428667">
        <ele>477.0</ele>
        <time>2017-05-27T10:02:41.516Z</time>
      </trkpt>
      <trkpt lat="39.91578" lon="-0.35428667">
        <ele>477.0</ele>
        <time>2017-05-27T10:02:42.494Z</time>
      </trkpt>
      <trkpt lat="39.91578" lon="-0.35428667">
        <ele>477.0</ele>
        <time>2017-05-27T10:02:43.519Z</time>
      </trkpt>
      <trkpt lat="39.91578" lon="-0.35428667">
        <ele>477.0</ele>
        <time>2017-05-27T10:02:44.493Z</time>
      </trkpt>
      <trkpt lat="39.91578" lon="-0.35428667">
        <ele>477.0</ele>
        <time>2017-05-27T10:02:45.522Z</time>
      </trkpt>
      <trkpt lat="39.91578" lon="-0.35428667">
        <ele>477.0</ele>
        <time>2017-05-27T10:02:46.509Z</time>
      </trkpt>
      <trkpt lat="39.91578" lon="-0.35428667">
        <ele>477.0</ele>
        <time>2017-05-27T10:02:47.505Z</time>
      </trkpt>
      <trkpt lat="39.91578" lon="-0.35428667">
        <ele>477.0</ele>
        <time>2017-05-27T10:02:48.494Z</time>
      </trkpt>
      <trkpt lat="39.91578" lon="-0.35428667">
        <ele>477.0</ele>
        <time>2017-05-27T10:02:49.521Z</time>
      </trkpt>
      <trkpt lat="39.91578" lon="-0.35428667">
        <ele>477.0</ele>
        <time>2017-05-27T10:02:50.526Z</time>
      </trkpt>
      <trkpt lat="39.91578" lon="-0.35428667">
        <ele>477.0</ele>
        <time>2017-05-27T10:02:51.516Z</time>
      </trkpt>
      <trkpt lat="39.91578" lon="-0.35428667">
        <ele>477.0</ele>
        <time>2017-05-27T10:02:52.527Z</time>
      </trkpt>
      <trkpt lat="39.915775" lon="-0.35416833">
        <ele>481.0</ele>
        <time>2017-05-27T10:02:53.519Z</time>
      </trkpt>
      <trkpt lat="39.915775" lon="-0.35416833">
        <ele>481.0</ele>
        <time>2017-05-27T10:02:54.507Z</time>
      </trkpt>
      <trkpt lat="39.915775" lon="-0.35417">
        <ele>481.0</ele>
        <time>2017-05-27T10:02:55.493Z</time>
      </trkpt>
      <trkpt lat="39.915775" lon="-0.35417">
        <ele>481.0</ele>
        <time>2017-05-27T10:02:56.521Z</time>
      </trkpt>
      <trkpt lat="39.91577833" lon="-0.35417333">
        <ele>480.0</ele>
        <time>2017-05-27T10:02:57.530Z</time>
      </trkpt>
      <trkpt lat="39.91577833" lon="-0.35417333">
        <ele>480.0</ele>
        <time>2017-05-27T10:02:58.514Z</time>
      </trkpt>
      <trkpt lat="39.91577833" lon="-0.35417333">
        <ele>480.0</ele>
        <time>2017-05-27T10:02:59.528Z</time>
      </trkpt>
      <trkpt lat="39.91577833" lon="-0.35417333">
        <ele>480.0</ele>
        <time>2017-05-27T10:03:00.513Z</time>
      </trkpt>
      <trkpt lat="39.91577833" lon="-0.35417333">
        <ele>480.0</ele>
        <time>2017-05-27T10:03:01.523Z</time>
      </trkpt>
      <trkpt lat="39.91577833" lon="-0.35417333">
        <ele>480.0</ele>
        <time>2017-05-27T10:03:02.516Z</time>
      </trkpt>
      <trkpt lat="39.91577833" lon="-0.35417333">
        <ele>480.0</ele>
        <time>2017-05-27T10:03:03.529Z</time>
      </trkpt>
      <trkpt lat="39.91577833" lon="-0.35417333">
        <ele>480.0</ele>
        <time>2017-05-27T10:03:04.522Z</time>
      </trkpt>
      <trkpt lat="39.91577833" lon="-0.35417333">
        <ele>480.0</ele>
        <time>2017-05-27T10:03:05.510Z</time>
      </trkpt>
      <trkpt lat="39.91577833" lon="-0.35417333">
        <ele>480.0</ele>
        <time>2017-05-27T10:03:06.517Z</time>
      </trkpt>
      <trkpt lat="39.91577833" lon="-0.35417333">
        <ele>480.0</ele>
        <time>2017-05-27T10:03:07.521Z</time>
      </trkpt>
      <trkpt lat="39.91577833" lon="-0.35417333">
        <ele>480.0</ele>
        <time>2017-05-27T10:03:08.507Z</time>
      </trkpt>
      <trkpt lat="39.91577833" lon="-0.35417333">
        <ele>480.0</ele>
        <time>2017-05-27T10:03:09.517Z</time>
      </trkpt>
      <trkpt lat="39.91577833" lon="-0.35417333">
        <ele>480.0</ele>
        <time>2017-05-27T10:03:10.513Z</time>
      </trkpt>
      <trkpt lat="39.91577833" lon="-0.35417333">
        <ele>480.0</ele>
        <time>2017-05-27T10:03:11.509Z</time>
      </trkpt>
      <trkpt lat="39.91577833" lon="-0.35417333">
        <ele>480.0</ele>
        <time>2017-05-27T10:03:12.513Z</time>
      </trkpt>
      <trkpt lat="39.91577833" lon="-0.35417333">
        <ele>480.0</ele>
        <time>2017-05-27T10:03:13.505Z</time>
      </trkpt>
      <trkpt lat="39.91577833" lon="-0.35417333">
        <ele>480.0</ele>
        <time>2017-05-27T10:03:14.495Z</time>
      </trkpt>
      <trkpt lat="39.91577833" lon="-0.35417333">
        <ele>480.0</ele>
        <time>2017-05-27T10:03:15.527Z</time>
      </trkpt>
      <trkpt lat="39.91577833" lon="-0.35417333">
        <ele>480.0</ele>
        <time>2017-05-27T10:03:16.526Z</time>
      </trkpt>
      <trkpt lat="39.91577833" lon="-0.35417333">
        <ele>480.0</ele>
        <time>2017-05-27T10:03:17.514Z</time>
      </trkpt>
      <trkpt lat="39.91577833" lon="-0.35417333">
        <ele>480.0</ele>
        <time>2017-05-27T10:03:18.522Z</time>
      </trkpt>
      <trkpt lat="39.91577833" lon="-0.35417333">
        <ele>480.0</ele>
        <time>2017-05-27T10:03:19.524Z</time>
      </trkpt>
      <trkpt lat="39.91577833" lon="-0.35417333">
        <ele>480.0</ele>
        <time>2017-05-27T10:03:20.491Z</time>
      </trkpt>
      <trkpt lat="39.91577833" lon="-0.35417333">
        <ele>480.0</ele>
        <time>2017-05-27T10:03:21.522Z</time>
      </trkpt>
      <trkpt lat="39.91577833" lon="-0.35417333">
        <ele>480.0</ele>
        <time>2017-05-27T10:03:22.529Z</time>
      </trkpt>
      <trkpt lat="39.91577833" lon="-0.35417333">
        <ele>480.0</ele>
        <time>2017-05-27T10:03:23.526Z</time>
      </trkpt>
      <trkpt lat="39.91577833" lon="-0.35417333">
        <ele>480.0</ele>
        <time>2017-05-27T10:03:24.529Z</time>
      </trkpt>
      <trkpt lat="39.91577833" lon="-0.35417333">
        <ele>480.0</ele>
        <time>2017-05-27T10:03:25.526Z</time>
      </trkpt>
      <trkpt lat="39.91577833" lon="-0.35417333">
        <ele>480.0</ele>
        <time>2017-05-27T10:03:26.530Z</time>
      </trkpt>
      <trkpt lat="39.91577833" lon="-0.35417333">
        <ele>480.0</ele>
        <time>2017-05-27T10:03:27.516Z</time>
      </trkpt>
      <trkpt lat="39.91577833" lon="-0.35417333">
        <ele>480.0</ele>
        <time>2017-05-27T10:03:28.520Z</time>
      </trkpt>
      <trkpt lat="39.91577833" lon="-0.35417333">
        <ele>480.0</ele>
        <time>2017-05-27T10:03:29.515Z</time>
      </trkpt>
      <trkpt lat="39.91577833" lon="-0.35417333">
        <ele>480.0</ele>
        <time>2017-05-27T10:03:30.500Z</time>
      </trkpt>
      <trkpt lat="39.91577833" lon="-0.35417333">
        <ele>480.0</ele>
        <time>2017-05-27T10:03:31.516Z</time>
      </trkpt>
      <trkpt lat="39.91577833" lon="-0.35417333">
        <ele>480.0</ele>
        <time>2017-05-27T10:03:32.510Z</time>
      </trkpt>
      <trkpt lat="39.91577833" lon="-0.35417333">
        <ele>480.0</ele>
        <time>2017-05-27T10:03:33.491Z</time>
      </trkpt>
      <trkpt lat="39.91577833" lon="-0.35417333">
        <ele>480.0</ele>
        <time>2017-05-27T10:03:34.495Z</time>
      </trkpt>
      <trkpt lat="39.91577833" lon="-0.35417333">
        <ele>480.0</ele>
        <time>2017-05-27T10:03:35.526Z</time>
      </trkpt>
      <trkpt lat="39.91577833" lon="-0.35417333">
        <ele>480.0</ele>
        <time>2017-05-27T10:03:36.511Z</time>
      </trkpt>
      <trkpt lat="39.91577833" lon="-0.35417333">
        <ele>480.0</ele>
        <time>2017-05-27T10:03:37.496Z</time>
      </trkpt>
      <trkpt lat="39.91577833" lon="-0.35417333">
        <ele>480.0</ele>
        <time>2017-05-27T10:03:38.522Z</time>
      </trkpt>
      <trkpt lat="39.91577833" lon="-0.35417333">
        <ele>480.0</ele>
        <time>2017-05-27T10:03:39.506Z</time>
      </trkpt>
      <trkpt lat="39.91577833" lon="-0.35417333">
        <ele>480.0</ele>
        <time>2017-05-27T10:03:40.530Z</time>
      </trkpt>
      <trkpt lat="39.91577833" lon="-0.35417333">
        <ele>480.0</ele>
        <time>2017-05-27T10:03:41.527Z</time>
      </trkpt>
      <trkpt lat="39.91577833" lon="-0.35417333">
        <ele>480.0</ele>
        <time>2017-05-27T10:03:42.528Z</time>
      </trkpt>
      <trkpt lat="39.91577833" lon="-0.35417333">
        <ele>480.0</ele>
        <time>2017-05-27T10:03:43.525Z</time>
      </trkpt>
      <trkpt lat="39.91577833" lon="-0.35417333">
        <ele>480.0</ele>
        <time>2017-05-27T10:03:44.513Z</time>
      </trkpt>
      <trkpt lat="39.91577833" lon="-0.35417333">
        <ele>480.0</ele>
        <time>2017-05-27T10:03:45.521Z</time>
      </trkpt>
      <trkpt lat="39.91577833" lon="-0.35417333">
        <ele>480.0</ele>
        <time>2017-05-27T10:03:46.521Z</time>
      </trkpt>
      <trkpt lat="39.91577833" lon="-0.35417333">
        <ele>480.0</ele>
        <time>2017-05-27T10:03:47.516Z</time>
      </trkpt>
      <trkpt lat="39.91577833" lon="-0.35417333">
        <ele>480.0</ele>
        <time>2017-05-27T10:03:48.492Z</time>
      </trkpt>
      <trkpt lat="39.91577833" lon="-0.35417333">
        <ele>480.0</ele>
        <time>2017-05-27T10:03:49.524Z</time>
      </trkpt>
      <trkpt lat="39.91578167" lon="-0.35429">
        <ele>479.0</ele>
        <time>2017-05-27T10:03:50.527Z</time>
      </trkpt>
      <trkpt lat="39.91578167" lon="-0.354295">
        <ele>479.0</ele>
        <time>2017-05-27T10:03:51.524Z</time>
      </trkpt>
      <trkpt lat="39.91578167" lon="-0.354295">
        <ele>479.0</ele>
        <time>2017-05-27T10:03:52.521Z</time>
      </trkpt>
      <trkpt lat="39.91577833" lon="-0.35431667">
        <ele>479.0</ele>
        <time>2017-05-27T10:03:53.520Z</time>
      </trkpt>
      <trkpt lat="39.91577833" lon="-0.35431667">
        <ele>479.0</ele>
        <time>2017-05-27T10:03:54.519Z</time>
      </trkpt>
      <trkpt lat="39.91577833" lon="-0.35431667">
        <ele>479.0</ele>
        <time>2017-05-27T10:03:55.506Z</time>
      </trkpt>
      <trkpt lat="39.91577833" lon="-0.35431667">
        <ele>479.0</ele>
        <time>2017-05-27T10:03:56.506Z</time>
      </trkpt>
      <trkpt lat="39.91577833" lon="-0.35431667">
        <ele>479.0</ele>
        <time>2017-05-27T10:03:57.494Z</time>
      </trkpt>
      <trkpt lat="39.91577833" lon="-0.35431667">
        <ele>479.0</ele>
        <time>2017-05-27T10:03:58.523Z</time>
      </trkpt>
      <trkpt lat="39.91577833" lon="-0.35431667">
        <ele>479.0</ele>
        <time>2017-05-27T10:03:59.511Z</time>
      </trkpt>
      <trkpt lat="39.91577833" lon="-0.35431667">
        <ele>479.0</ele>
        <time>2017-05-27T10:04:00.495Z</time>
      </trkpt>
      <trkpt lat="39.91577833" lon="-0.35431667">
        <ele>479.0</ele>
        <time>2017-05-27T10:04:01.527Z</time>
      </trkpt>
      <trkpt lat="39.91577833" lon="-0.35431667">
        <ele>479.0</ele>
        <time>2017-05-27T10:04:02.516Z</time>
      </trkpt>
      <trkpt lat="39.91577833" lon="-0.35431667">
        <ele>479.0</ele>
        <time>2017-05-27T10:04:03.509Z</time>
      </trkpt>
      <trkpt lat="39.91577833" lon="-0.35431667">
        <ele>479.0</ele>
        <time>2017-05-27T10:04:04.498Z</time>
      </trkpt>
      <trkpt lat="39.91577833" lon="-0.35431667">
        <ele>479.0</ele>
        <time>2017-05-27T10:04:05.515Z</time>
      </trkpt>
      <trkpt lat="39.91577833" lon="-0.35431667">
        <ele>479.0</ele>
        <time>2017-05-27T10:04:06.519Z</time>
      </trkpt>
      <trkpt lat="39.91577833" lon="-0.35431667">
        <ele>479.0</ele>
        <time>2017-05-27T10:04:07.519Z</time>
      </trkpt>
      <trkpt lat="39.91577833" lon="-0.35431667">
        <ele>479.0</ele>
        <time>2017-05-27T10:04:08.507Z</time>
      </trkpt>
      <trkpt lat="39.91577833" lon="-0.35431667">
        <ele>479.0</ele>
        <time>2017-05-27T10:04:09.493Z</time>
      </trkpt>
      <trkpt lat="39.91577833" lon="-0.35431667">
        <ele>479.0</ele>
        <time>2017-05-27T10:04:10.516Z</time>
      </trkpt>
      <trkpt lat="39.91577833" lon="-0.35431667">
        <ele>479.0</ele>
        <time>2017-05-27T10:04:11.520Z</time>
      </trkpt>
      <trkpt lat="39.91577833" lon="-0.35431667">
        <ele>479.0</ele>
        <time>2017-05-27T10:04:12.516Z</time>
      </trkpt>
      <trkpt lat="39.91577833" lon="-0.35431667">
        <ele>479.0</ele>
        <time>2017-05-27T10:04:13.528Z</time>
      </trkpt>
      <trkpt lat="39.91577833" lon="-0.35431667">
        <ele>479.0</ele>
        <time>2017-05-27T10:04:14.516Z</time>
      </trkpt>
      <trkpt lat="39.91577833" lon="-0.35431667">
        <ele>479.0</ele>
        <time>2017-05-27T10:04:15.520Z</time>
      </trkpt>
      <trkpt lat="39.91577833" lon="-0.35431667">
        <ele>479.0</ele>
        <time>2017-05-27T10:04:16.527Z</time>
      </trkpt>
      <trkpt lat="39.91577833" lon="-0.35431667">
        <ele>479.0</ele>
        <time>2017-05-27T10:04:17.519Z</time>
      </trkpt>
      <trkpt lat="39.91577833" lon="-0.35431667">
        <ele>479.0</ele>
        <time>2017-05-27T10:04:18.491Z</time>
      </trkpt>
      <trkpt lat="39.91577833" lon="-0.35431667">
        <ele>479.0</ele>
        <time>2017-05-27T10:04:19.526Z</time>
      </trkpt>
      <trkpt lat="39.91577833" lon="-0.35431667">
        <ele>479.0</ele>
        <time>2017-05-27T10:04:20.510Z</time>
      </trkpt>
      <trkpt lat="39.91577833" lon="-0.35431667">
        <ele>479.0</ele>
        <time>2017-05-27T10:04:21.516Z</time>
      </trkpt>
      <trkpt lat="39.91577833" lon="-0.35431667">
        <ele>479.0</ele>
        <time>2017-05-27T10:04:22.515Z</time>
      </trkpt>
      <trkpt lat="39.91577833" lon="-0.35431667">
        <ele>479.0</ele>
        <time>2017-05-27T10:04:23.504Z</time>
      </trkpt>
      <trkpt lat="39.91577833" lon="-0.35431667">
        <ele>479.0</ele>
        <time>2017-05-27T10:04:24.493Z</time>
      </trkpt>
      <trkpt lat="39.91577833" lon="-0.35431667">
        <ele>479.0</ele>
        <time>2017-05-27T10:04:25.530Z</time>
      </trkpt>
      <trkpt lat="39.91577833" lon="-0.35431667">
        <ele>479.0</ele>
        <time>2017-05-27T10:04:26.528Z</time>
      </trkpt>
      <trkpt lat="39.91577833" lon="-0.35431667">
        <ele>479.0</ele>
        <time>2017-05-27T10:04:27.514Z</time>
      </trkpt>
      <trkpt lat="39.91577833" lon="-0.35431667">
        <ele>479.0</ele>
        <time>2017-05-27T10:04:28.522Z</time>
      </trkpt>
      <trkpt lat="39.91577833" lon="-0.35431667">
        <ele>479.0</ele>
        <time>2017-05-27T10:04:29.515Z</time>
      </trkpt>
      <trkpt lat="39.91577833" lon="-0.35431667">
        <ele>479.0</ele>
        <time>2017-05-27T10:04:30.525Z</time>
      </trkpt>
      <trkpt lat="39.91577833" lon="-0.35431667">
        <ele>479.0</ele>
        <time>2017-05-27T10:04:31.519Z</time>
      </trkpt>
      <trkpt lat="39.91577833" lon="-0.35431667">
        <ele>479.0</ele>
        <time>2017-05-27T10:04:32.512Z</time>
      </trkpt>
      <trkpt lat="39.91577833" lon="-0.35431667">
        <ele>479.0</ele>
        <time>2017-05-27T10:04:33.499Z</time>
      </trkpt>
      <trkpt lat="39.91577833" lon="-0.35431667">
        <ele>479.0</ele>
        <time>2017-05-27T10:04:34.527Z</time>
      </trkpt>
      <trkpt lat="39.91577833" lon="-0.35431667">
        <ele>479.0</ele>
        <time>2017-05-27T10:04:35.529Z</time>
      </trkpt>
      <trkpt lat="39.91577833" lon="-0.35431667">
        <ele>479.0</ele>
        <time>2017-05-27T10:04:36.520Z</time>
      </trkpt>
      <trkpt lat="39.91577833" lon="-0.35431667">
        <ele>479.0</ele>
        <time>2017-05-27T10:04:37.509Z</time>
      </trkpt>
      <trkpt lat="39.91577833" lon="-0.35431667">
        <ele>479.0</ele>
        <time>2017-05-27T10:04:38.495Z</time>
      </trkpt>
      <trkpt lat="39.91577833" lon="-0.35431667">
        <ele>479.0</ele>
        <time>2017-05-27T10:04:39.524Z</time>
      </trkpt>
      <trkpt lat="39.91577833" lon="-0.35431667">
        <ele>479.0</ele>
        <time>2017-05-27T10:04:40.514Z</time>
      </trkpt>
      <trkpt lat="39.91577833" lon="-0.35431667">
        <ele>479.0</ele>
        <time>2017-05-27T10:04:41.528Z</time>
      </trkpt>
      <trkpt lat="39.91577833" lon="-0.35431667">
        <ele>479.0</ele>
        <time>2017-05-27T10:04:42.520Z</time>
      </trkpt>
      <trkpt lat="39.91577833" lon="-0.35431667">
        <ele>479.0</ele>
        <time>2017-05-27T10:04:43.529Z</time>
      </trkpt>
      <trkpt lat="39.91577833" lon="-0.35431667">
        <ele>479.0</ele>
        <time>2017-05-27T10:04:44.517Z</time>
      </trkpt>
      <trkpt lat="39.91577833" lon="-0.35431667">
        <ele>479.0</ele>
        <time>2017-05-27T10:04:45.506Z</time>
      </trkpt>
      <trkpt lat="39.91577833" lon="-0.35431667">
        <ele>479.0</ele>
        <time>2017-05-27T10:04:46.501Z</time>
      </trkpt>
      <trkpt lat="39.91577833" lon="-0.35431667">
        <ele>479.0</ele>
        <time>2017-05-27T10:04:47.529Z</time>
      </trkpt>
      <trkpt lat="39.91577833" lon="-0.35431667">
        <ele>479.0</ele>
        <time>2017-05-27T10:04:48.527Z</time>
      </trkpt>
      <trkpt lat="39.91577833" lon="-0.35431667">
        <ele>479.0</ele>
        <time>2017-05-27T10:04:49.514Z</time>
      </trkpt>
      <trkpt lat="39.91577833" lon="-0.35431667">
        <ele>479.0</ele>
        <time>2017-05-27T10:04:50.521Z</time>
      </trkpt>
      <trkpt lat="39.91577833" lon="-0.35431667">
        <ele>479.0</ele>
        <time>2017-05-27T10:04:51.513Z</time>
      </trkpt>
      <trkpt lat="39.91577833" lon="-0.35431667">
        <ele>479.0</ele>
        <time>2017-05-27T10:04:52.527Z</time>
      </trkpt>
      <trkpt lat="39.91577833" lon="-0.35431667">
        <ele>479.0</ele>
        <time>2017-05-27T10:04:53.513Z</time>
      </trkpt>
      <trkpt lat="39.91577833" lon="-0.35431667">
        <ele>479.0</ele>
        <time>2017-05-27T10:04:54.519Z</time>
      </trkpt>
      <trkpt lat="39.91577833" lon="-0.35431667">
        <ele>479.0</ele>
        <time>2017-05-27T10:04:55.514Z</time>
      </trkpt>
      <trkpt lat="39.91577833" lon="-0.35431667">
        <ele>479.0</ele>
        <time>2017-05-27T10:04:56.515Z</time>
      </trkpt>
      <trkpt lat="39.91577833" lon="-0.35431667">
        <ele>479.0</ele>
        <time>2017-05-27T10:04:57.526Z</time>
      </trkpt>
      <trkpt lat="39.91577833" lon="-0.35431667">
        <ele>479.0</ele>
        <time>2017-05-27T10:04:58.512Z</time>
      </trkpt>
      <trkpt lat="39.91577833" lon="-0.35431667">
        <ele>479.0</ele>
        <time>2017-05-27T10:04:59.502Z</time>
      </trkpt>
      <trkpt lat="39.91577833" lon="-0.35431667">
        <ele>479.0</ele>
        <time>2017-05-27T10:05:00.503Z</time>
      </trkpt>
      <trkpt lat="39.91577833" lon="-0.35431667">
        <ele>479.0</ele>
        <time>2017-05-27T10:05:01.530Z</time>
      </trkpt>
      <trkpt lat="39.91577833" lon="-0.35431667">
        <ele>479.0</ele>
        <time>2017-05-27T10:05:02.521Z</time>
      </trkpt>
      <trkpt lat="39.91577833" lon="-0.35431667">
        <ele>479.0</ele>
        <time>2017-05-27T10:05:03.509Z</time>
      </trkpt>
      <trkpt lat="39.91577833" lon="-0.35431667">
        <ele>479.0</ele>
        <time>2017-05-27T10:05:04.503Z</time>
      </trkpt>
      <trkpt lat="39.91577833" lon="-0.35431667">
        <ele>479.0</ele>
        <time>2017-05-27T10:05:05.491Z</time>
      </trkpt>
      <trkpt lat="39.91577833" lon="-0.35431667">
        <ele>479.0</ele>
        <time>2017-05-27T10:05:06.493Z</time>
      </trkpt>
      <trkpt lat="39.91577833" lon="-0.35431667">
        <ele>479.0</ele>
        <time>2017-05-27T10:05:07.516Z</time>
      </trkpt>
      <trkpt lat="39.91577833" lon="-0.35431667">
        <ele>479.0</ele>
        <time>2017-05-27T10:05:08.502Z</time>
      </trkpt>
      <trkpt lat="39.91577833" lon="-0.35431667">
        <ele>479.0</ele>
        <time>2017-05-27T10:05:09.529Z</time>
      </trkpt>
      <trkpt lat="39.91577833" lon="-0.35431667">
        <ele>479.0</ele>
        <time>2017-05-27T10:05:10.526Z</time>
      </trkpt>
      <trkpt lat="39.91577833" lon="-0.35431667">
        <ele>479.0</ele>
        <time>2017-05-27T10:05:11.515Z</time>
      </trkpt>
      <trkpt lat="39.91577833" lon="-0.35431667">
        <ele>479.0</ele>
        <time>2017-05-27T10:05:12.515Z</time>
      </trkpt>
      <trkpt lat="39.91577833" lon="-0.35431667">
        <ele>479.0</ele>
        <time>2017-05-27T10:05:13.503Z</time>
      </trkpt>
      <trkpt lat="39.91577833" lon="-0.35431667">
        <ele>479.0</ele>
        <time>2017-05-27T10:05:14.529Z</time>
      </trkpt>
      <trkpt lat="39.91577833" lon="-0.35431667">
        <ele>479.0</ele>
        <time>2017-05-27T10:05:15.524Z</time>
      </trkpt>
      <trkpt lat="39.91577833" lon="-0.35431667">
        <ele>479.0</ele>
        <time>2017-05-27T10:05:16.491Z</time>
      </trkpt>
      <trkpt lat="39.91577833" lon="-0.35431667">
        <ele>479.0</ele>
        <time>2017-05-27T10:05:17.527Z</time>
      </trkpt>
      <trkpt lat="39.91577833" lon="-0.35431667">
        <ele>479.0</ele>
        <time>2017-05-27T10:05:18.516Z</time>
      </trkpt>
      <trkpt lat="39.91577833" lon="-0.35431667">
        <ele>479.0</ele>
        <time>2017-05-27T10:05:19.505Z</time>
      </trkpt>
      <trkpt lat="39.91577833" lon="-0.35431667">
        <ele>479.0</ele>
        <time>2017-05-27T10:05:20.530Z</time>
      </trkpt>
      <trkpt lat="39.91577833" lon="-0.35431667">
        <ele>479.0</ele>
        <time>2017-05-27T10:05:21.521Z</time>
      </trkpt>
      <trkpt lat="39.91577833" lon="-0.35431667">
        <ele>479.0</ele>
        <time>2017-05-27T10:05:22.508Z</time>
      </trkpt>
      <trkpt lat="39.91577833" lon="-0.35431667">
        <ele>479.0</ele>
        <time>2017-05-27T10:05:23.520Z</time>
      </trkpt>
      <trkpt lat="39.91577833" lon="-0.35431667">
        <ele>479.0</ele>
        <time>2017-05-27T10:05:24.493Z</time>
      </trkpt>
      <trkpt lat="39.91577833" lon="-0.35431667">
        <ele>479.0</ele>
        <time>2017-05-27T10:05:25.514Z</time>
      </trkpt>
      <trkpt lat="39.91577833" lon="-0.35431667">
        <ele>479.0</ele>
        <time>2017-05-27T10:05:26.502Z</time>
      </trkpt>
      <trkpt lat="39.91577833" lon="-0.35431667">
        <ele>479.0</ele>
        <time>2017-05-27T10:05:27.529Z</time>
      </trkpt>
      <trkpt lat="39.91577833" lon="-0.35431667">
        <ele>479.0</ele>
        <time>2017-05-27T10:05:28.515Z</time>
      </trkpt>
      <trkpt lat="39.91577833" lon="-0.35431667">
        <ele>479.0</ele>
        <time>2017-05-27T10:05:29.524Z</time>
      </trkpt>
      <trkpt lat="39.91577833" lon="-0.35431667">
        <ele>479.0</ele>
        <time>2017-05-27T10:05:30.509Z</time>
      </trkpt>
      <trkpt lat="39.91577833" lon="-0.35431667">
        <ele>479.0</ele>
        <time>2017-05-27T10:05:31.498Z</time>
      </trkpt>
      <trkpt lat="39.91577833" lon="-0.35431667">
        <ele>479.0</ele>
        <time>2017-05-27T10:05:32.528Z</time>
      </trkpt>
      <trkpt lat="39.91577833" lon="-0.35431667">
        <ele>479.0</ele>
        <time>2017-05-27T10:05:33.526Z</time>
      </trkpt>
      <trkpt lat="39.91577833" lon="-0.35431667">
        <ele>479.0</ele>
        <time>2017-05-27T10:05:34.513Z</time>
      </trkpt>
      <trkpt lat="39.91577833" lon="-0.35431667">
        <ele>479.0</ele>
        <time>2017-05-27T10:05:35.508Z</time>
      </trkpt>
      <trkpt lat="39.91577833" lon="-0.35431667">
        <ele>479.0</ele>
        <time>2017-05-27T10:05:36.523Z</time>
      </trkpt>
      <trkpt lat="39.91577833" lon="-0.35431667">
        <ele>479.0</ele>
        <time>2017-05-27T10:05:37.517Z</time>
      </trkpt>
      <trkpt lat="39.91582167" lon="-0.354215">
        <ele>478.0</ele>
        <time>2017-05-27T10:05:38.508Z</time>
      </trkpt>
      <trkpt lat="39.91582167" lon="-0.354215">
        <ele>478.0</ele>
        <time>2017-05-27T10:05:39.520Z</time>
      </trkpt>
      <trkpt lat="39.91582" lon="-0.35421">
        <ele>478.0</ele>
        <time>2017-05-27T10:05:40.529Z</time>
      </trkpt>
      <trkpt lat="39.91582" lon="-0.35421">
        <ele>478.0</ele>
        <time>2017-05-27T10:05:41.514Z</time>
      </trkpt>
      <trkpt lat="39.91581833" lon="-0.35421">
        <ele>477.0</ele>
        <time>2017-05-27T10:05:42.528Z</time>
      </trkpt>
      <trkpt lat="39.91581833" lon="-0.35421">
        <ele>477.0</ele>
        <time>2017-05-27T10:05:43.496Z</time>
      </trkpt>
      <trkpt lat="39.91581833" lon="-0.35421">
        <ele>477.0</ele>
        <time>2017-05-27T10:05:44.521Z</time>
      </trkpt>
      <trkpt lat="39.91581833" lon="-0.35421">
        <ele>477.0</ele>
        <time>2017-05-27T10:05:45.491Z</time>
      </trkpt>
      <trkpt lat="39.91581833" lon="-0.35421">
        <ele>477.0</ele>
        <time>2017-05-27T10:05:46.507Z</time>
      </trkpt>
      <trkpt lat="39.91581833" lon="-0.35421">
        <ele>477.0</ele>
        <time>2017-05-27T10:05:47.493Z</time>
      </trkpt>
      <trkpt lat="39.91581833" lon="-0.35421">
        <ele>477.0</ele>
        <time>2017-05-27T10:05:48.530Z</time>
      </trkpt>
      <trkpt lat="39.91581833" lon="-0.35421">
        <ele>477.0</ele>
        <time>2017-05-27T10:05:49.512Z</time>
      </trkpt>
      <trkpt lat="39.91581833" lon="-0.35421">
        <ele>477.0</ele>
        <time>2017-05-27T10:05:50.506Z</time>
      </trkpt>
      <trkpt lat="39.91581833" lon="-0.35421">
        <ele>477.0</ele>
        <time>2017-05-27T10:05:51.491Z</time>
      </trkpt>
      <trkpt lat="39.91581833" lon="-0.35421">
        <ele>477.0</ele>
        <time>2017-05-27T10:05:52.528Z</time>
      </trkpt>
      <trkpt lat="39.91581833" lon="-0.35421">
        <ele>477.0</ele>
        <time>2017-05-27T10:05:53.516Z</time>
      </trkpt>
      <trkpt lat="39.91581833" lon="-0.35421">
        <ele>477.0</ele>
        <time>2017-05-27T10:05:54.526Z</time>
      </trkpt>
      <trkpt lat="39.91581833" lon="-0.35421">
        <ele>477.0</ele>
        <time>2017-05-27T10:05:55.509Z</time>
      </trkpt>
      <trkpt lat="39.91581833" lon="-0.35421">
        <ele>477.0</ele>
        <time>2017-05-27T10:05:56.508Z</time>
      </trkpt>
      <trkpt lat="39.91581833" lon="-0.35421">
        <ele>477.0</ele>
        <time>2017-05-27T10:05:57.521Z</time>
      </trkpt>
      <trkpt lat="39.91581833" lon="-0.35421">
        <ele>477.0</ele>
        <time>2017-05-27T10:05:58.510Z</time>
      </trkpt>
      <trkpt lat="39.91581833" lon="-0.35421">
        <ele>477.0</ele>
        <time>2017-05-27T10:05:59.494Z</time>
      </trkpt>
      <trkpt lat="39.91581833" lon="-0.35421">
        <ele>477.0</ele>
        <time>2017-05-27T10:06:00.519Z</time>
      </trkpt>
      <trkpt lat="39.91581833" lon="-0.35421">
        <ele>477.0</ele>
        <time>2017-05-27T10:06:01.503Z</time>
      </trkpt>
      <trkpt lat="39.91581833" lon="-0.35421">
        <ele>477.0</ele>
        <time>2017-05-27T10:06:02.528Z</time>
      </trkpt>
      <trkpt lat="39.91581833" lon="-0.35421">
        <ele>477.0</ele>
        <time>2017-05-27T10:06:03.521Z</time>
      </trkpt>
      <trkpt lat="39.91581833" lon="-0.35421">
        <ele>477.0</ele>
        <time>2017-05-27T10:06:04.510Z</time>
      </trkpt>
      <trkpt lat="39.91581833" lon="-0.35421">
        <ele>477.0</ele>
        <time>2017-05-27T10:06:05.495Z</time>
      </trkpt>
      <trkpt lat="39.91581833" lon="-0.35421">
        <ele>477.0</ele>
        <time>2017-05-27T10:06:06.528Z</time>
      </trkpt>
      <trkpt lat="39.91581833" lon="-0.35421">
        <ele>477.0</ele>
        <time>2017-05-27T10:06:07.526Z</time>
      </trkpt>
      <trkpt lat="39.91581833" lon="-0.35421">
        <ele>477.0</ele>
        <time>2017-05-27T10:06:08.522Z</time>
      </trkpt>
      <trkpt lat="39.91581833" lon="-0.35421">
        <ele>477.0</ele>
        <time>2017-05-27T10:06:09.519Z</time>
      </trkpt>
      <trkpt lat="39.91581833" lon="-0.35421">
        <ele>477.0</ele>
        <time>2017-05-27T10:06:10.509Z</time>
      </trkpt>
      <trkpt lat="39.91581833" lon="-0.35421">
        <ele>477.0</ele>
        <time>2017-05-27T10:06:11.522Z</time>
      </trkpt>
      <trkpt lat="39.91581833" lon="-0.35421">
        <ele>477.0</ele>
        <time>2017-05-27T10:06:12.512Z</time>
      </trkpt>
      <trkpt lat="39.91581833" lon="-0.35421">
        <ele>477.0</ele>
        <time>2017-05-27T10:06:13.497Z</time>
      </trkpt>
      <trkpt lat="39.91581833" lon="-0.35421">
        <ele>477.0</ele>
        <time>2017-05-27T10:06:14.521Z</time>
      </trkpt>
      <trkpt lat="39.91581833" lon="-0.35421">
        <ele>477.0</ele>
        <time>2017-05-27T10:06:15.528Z</time>
      </trkpt>
      <trkpt lat="39.91581833" lon="-0.35421">
        <ele>477.0</ele>
        <time>2017-05-27T10:06:16.522Z</time>
      </trkpt>
      <trkpt lat="39.91581833" lon="-0.35421">
        <ele>477.0</ele>
        <time>2017-05-27T10:06:17.511Z</time>
      </trkpt>
      <trkpt lat="39.91581833" lon="-0.35421">
        <ele>477.0</ele>
        <time>2017-05-27T10:06:18.508Z</time>
      </trkpt>
      <trkpt lat="39.91581833" lon="-0.35421">
        <ele>477.0</ele>
        <time>2017-05-27T10:06:19.493Z</time>
      </trkpt>
      <trkpt lat="39.91581833" lon="-0.35421">
        <ele>477.0</ele>
        <time>2017-05-27T10:06:20.517Z</time>
      </trkpt>
      <trkpt lat="39.91581833" lon="-0.35421">
        <ele>477.0</ele>
        <time>2017-05-27T10:06:21.504Z</time>
      </trkpt>
      <trkpt lat="39.91581833" lon="-0.35421">
        <ele>477.0</ele>
        <time>2017-05-27T10:06:22.496Z</time>
      </trkpt>
      <trkpt lat="39.91581833" lon="-0.35421">
        <ele>477.0</ele>
        <time>2017-05-27T10:06:23.526Z</time>
      </trkpt>
      <trkpt lat="39.91581833" lon="-0.35421">
        <ele>477.0</ele>
        <time>2017-05-27T10:06:24.527Z</time>
      </trkpt>
      <trkpt lat="39.91581833" lon="-0.35421">
        <ele>477.0</ele>
        <time>2017-05-27T10:06:25.514Z</time>
      </trkpt>
      <trkpt lat="39.91581833" lon="-0.35421">
        <ele>477.0</ele>
        <time>2017-05-27T10:06:26.507Z</time>
      </trkpt>
      <trkpt lat="39.91581833" lon="-0.35421">
        <ele>477.0</ele>
        <time>2017-05-27T10:06:27.519Z</time>
      </trkpt>
      <trkpt lat="39.91581833" lon="-0.35421">
        <ele>477.0</ele>
        <time>2017-05-27T10:06:28.509Z</time>
      </trkpt>
      <trkpt lat="39.91581833" lon="-0.35421">
        <ele>477.0</ele>
        <time>2017-05-27T10:06:29.523Z</time>
      </trkpt>
      <trkpt lat="39.91581833" lon="-0.35421">
        <ele>477.0</ele>
        <time>2017-05-27T10:06:30.525Z</time>
      </trkpt>
      <trkpt lat="39.91581833" lon="-0.35421">
        <ele>477.0</ele>
        <time>2017-05-27T10:06:31.522Z</time>
      </trkpt>
      <trkpt lat="39.91581833" lon="-0.35421">
        <ele>477.0</ele>
        <time>2017-05-27T10:06:32.516Z</time>
      </trkpt>
      <trkpt lat="39.91581833" lon="-0.35421">
        <ele>477.0</ele>
        <time>2017-05-27T10:06:33.515Z</time>
      </trkpt>
      <trkpt lat="39.91581833" lon="-0.35421">
        <ele>477.0</ele>
        <time>2017-05-27T10:06:34.516Z</time>
      </trkpt>
      <trkpt lat="39.91581833" lon="-0.35421">
        <ele>477.0</ele>
        <time>2017-05-27T10:06:35.504Z</time>
      </trkpt>
      <trkpt lat="39.91581833" lon="-0.35421">
        <ele>477.0</ele>
        <time>2017-05-27T10:06:36.493Z</time>
      </trkpt>
      <trkpt lat="39.91581833" lon="-0.35421">
        <ele>477.0</ele>
        <time>2017-05-27T10:06:37.530Z</time>
      </trkpt>
      <trkpt lat="39.91581833" lon="-0.35421">
        <ele>477.0</ele>
        <time>2017-05-27T10:06:38.516Z</time>
      </trkpt>
      <trkpt lat="39.91581833" lon="-0.35421">
        <ele>477.0</ele>
        <time>2017-05-27T10:06:39.524Z</time>
      </trkpt>
      <trkpt lat="39.91581833" lon="-0.35421">
        <ele>477.0</ele>
        <time>2017-05-27T10:06:40.527Z</time>
      </trkpt>
      <trkpt lat="39.91581833" lon="-0.35421">
        <ele>477.0</ele>
        <time>2017-05-27T10:06:41.511Z</time>
      </trkpt>
      <trkpt lat="39.91581833" lon="-0.35421">
        <ele>477.0</ele>
        <time>2017-05-27T10:06:42.504Z</time>
      </trkpt>
      <trkpt lat="39.91581833" lon="-0.35421">
        <ele>477.0</ele>
        <time>2017-05-27T10:06:43.526Z</time>
      </trkpt>
      <trkpt lat="39.91581833" lon="-0.35421">
        <ele>477.0</ele>
        <time>2017-05-27T10:06:44.513Z</time>
      </trkpt>
      <trkpt lat="39.91581833" lon="-0.35421">
        <ele>477.0</ele>
        <time>2017-05-27T10:06:45.513Z</time>
      </trkpt>
      <trkpt lat="39.91581833" lon="-0.35421">
        <ele>477.0</ele>
        <time>2017-05-27T10:06:46.501Z</time>
      </trkpt>
      <trkpt lat="39.91581833" lon="-0.35421">
        <ele>477.0</ele>
        <time>2017-05-27T10:06:47.515Z</time>
      </trkpt>
      <trkpt lat="39.91581833" lon="-0.35421">
        <ele>477.0</ele>
        <time>2017-05-27T10:06:48.502Z</time>
      </trkpt>
      <trkpt lat="39.91581833" lon="-0.35421">
        <ele>477.0</ele>
        <time>2017-05-27T10:06:49.528Z</time>
      </trkpt>
      <trkpt lat="39.91581833" lon="-0.35421">
        <ele>477.0</ele>
        <time>2017-05-27T10:06:50.526Z</time>
      </trkpt>
      <trkpt lat="39.91581833" lon="-0.35421">
        <ele>477.0</ele>
        <time>2017-05-27T10:06:51.525Z</time>
      </trkpt>
      <trkpt lat="39.91581833" lon="-0.35421">
        <ele>477.0</ele>
        <time>2017-05-27T10:06:52.509Z</time>
      </trkpt>
      <trkpt lat="39.91581833" lon="-0.35421">
        <ele>477.0</ele>
        <time>2017-05-27T10:06:53.494Z</time>
      </trkpt>
      <trkpt lat="39.91581833" lon="-0.35421">
        <ele>477.0</ele>
        <time>2017-05-27T10:06:54.521Z</time>
      </trkpt>
      <trkpt lat="39.91581833" lon="-0.35421">
        <ele>477.0</ele>
        <time>2017-05-27T10:06:55.530Z</time>
      </trkpt>
      <trkpt lat="39.91581833" lon="-0.35421">
        <ele>477.0</ele>
        <time>2017-05-27T10:06:56.521Z</time>
      </trkpt>
      <trkpt lat="39.91581833" lon="-0.35421">
        <ele>477.0</ele>
        <time>2017-05-27T10:06:57.513Z</time>
      </trkpt>
      <trkpt lat="39.91581833" lon="-0.35421">
        <ele>477.0</ele>
        <time>2017-05-27T10:06:58.502Z</time>
      </trkpt>
      <trkpt lat="39.91581833" lon="-0.35421">
        <ele>477.0</ele>
        <time>2017-05-27T10:06:59.495Z</time>
      </trkpt>
      <trkpt lat="39.91581833" lon="-0.35421">
        <ele>477.0</ele>
        <time>2017-05-27T10:07:00.521Z</time>
      </trkpt>
      <trkpt lat="39.91581833" lon="-0.35421">
        <ele>477.0</ele>
        <time>2017-05-27T10:07:01.505Z</time>
      </trkpt>
      <trkpt lat="39.91581833" lon="-0.35421">
        <ele>477.0</ele>
        <time>2017-05-27T10:07:02.529Z</time>
      </trkpt>
      <trkpt lat="39.91581833" lon="-0.35421">
        <ele>477.0</ele>
        <time>2017-05-27T10:07:03.523Z</time>
      </trkpt>
      <trkpt lat="39.91581833" lon="-0.35421">
        <ele>477.0</ele>
        <time>2017-05-27T10:07:04.509Z</time>
      </trkpt>
      <trkpt lat="39.91581833" lon="-0.35421">
        <ele>477.0</ele>
        <time>2017-05-27T10:07:05.502Z</time>
      </trkpt>
      <trkpt lat="39.91581833" lon="-0.35421">
        <ele>477.0</ele>
        <time>2017-05-27T10:07:06.529Z</time>
      </trkpt>
      <trkpt lat="39.91581833" lon="-0.35421">
        <ele>477.0</ele>
        <time>2017-05-27T10:07:07.516Z</time>
      </trkpt>
      <trkpt lat="39.91581833" lon="-0.35421">
        <ele>477.0</ele>
        <time>2017-05-27T10:07:08.507Z</time>
      </trkpt>
      <trkpt lat="39.91581833" lon="-0.35421">
        <ele>477.0</ele>
        <time>2017-05-27T10:07:09.530Z</time>
      </trkpt>
      <trkpt lat="39.91581833" lon="-0.35421">
        <ele>477.0</ele>
        <time>2017-05-27T10:07:10.523Z</time>
      </trkpt>
      <trkpt lat="39.91581833" lon="-0.35421">
        <ele>477.0</ele>
        <time>2017-05-27T10:07:11.502Z</time>
      </trkpt>
      <trkpt lat="39.91581833" lon="-0.35421">
        <ele>477.0</ele>
        <time>2017-05-27T10:07:12.528Z</time>
      </trkpt>
      <trkpt lat="39.91581833" lon="-0.35421">
        <ele>477.0</ele>
        <time>2017-05-27T10:07:13.524Z</time>
      </trkpt>
      <trkpt lat="39.91581833" lon="-0.35421">
        <ele>477.0</ele>
        <time>2017-05-27T10:07:14.510Z</time>
      </trkpt>
      <trkpt lat="39.91581833" lon="-0.35421">
        <ele>477.0</ele>
        <time>2017-05-27T10:07:15.496Z</time>
      </trkpt>
      <trkpt lat="39.91581833" lon="-0.35421">
        <ele>477.0</ele>
        <time>2017-05-27T10:07:16.522Z</time>
      </trkpt>
      <trkpt lat="39.91581833" lon="-0.35421">
        <ele>477.0</ele>
        <time>2017-05-27T10:07:17.512Z</time>
      </trkpt>
      <trkpt lat="39.91581833" lon="-0.35421">
        <ele>477.0</ele>
        <time>2017-05-27T10:07:18.520Z</time>
      </trkpt>
      <trkpt lat="39.91581833" lon="-0.35421">
        <ele>477.0</ele>
        <time>2017-05-27T10:07:19.508Z</time>
      </trkpt>
      <trkpt lat="39.91581833" lon="-0.35421">
        <ele>477.0</ele>
        <time>2017-05-27T10:07:20.517Z</time>
      </trkpt>
      <trkpt lat="39.91581833" lon="-0.35421">
        <ele>477.0</ele>
        <time>2017-05-27T10:07:21.499Z</time>
      </trkpt>
      <trkpt lat="39.91581833" lon="-0.35421">
        <ele>477.0</ele>
        <time>2017-05-27T10:07:22.528Z</time>
      </trkpt>
      <trkpt lat="39.91581833" lon="-0.35421">
        <ele>477.0</ele>
        <time>2017-05-27T10:07:23.514Z</time>
      </trkpt>
      <trkpt lat="39.91581833" lon="-0.35421">
        <ele>477.0</ele>
        <time>2017-05-27T10:07:24.528Z</time>
      </trkpt>
      <trkpt lat="39.91581833" lon="-0.35421">
        <ele>477.0</ele>
        <time>2017-05-27T10:07:25.514Z</time>
      </trkpt>
      <trkpt lat="39.91581833" lon="-0.35421">
        <ele>477.0</ele>
        <time>2017-05-27T10:07:26.504Z</time>
      </trkpt>
      <trkpt lat="39.91581833" lon="-0.35421">
        <ele>477.0</ele>
        <time>2017-05-27T10:07:27.497Z</time>
      </trkpt>
      <trkpt lat="39.91581833" lon="-0.35421">
        <ele>477.0</ele>
        <time>2017-05-27T10:07:28.527Z</time>
      </trkpt>
      <trkpt lat="39.91581833" lon="-0.35421">
        <ele>477.0</ele>
        <time>2017-05-27T10:07:29.513Z</time>
      </trkpt>
      <trkpt lat="39.91581833" lon="-0.35421">
        <ele>477.0</ele>
        <time>2017-05-27T10:07:30.527Z</time>
      </trkpt>
      <trkpt lat="39.91581833" lon="-0.35421">
        <ele>477.0</ele>
        <time>2017-05-27T10:07:31.528Z</time>
      </trkpt>
      <trkpt lat="39.91581833" lon="-0.35421">
        <ele>477.0</ele>
        <time>2017-05-27T10:07:32.497Z</time>
      </trkpt>
      <trkpt lat="39.91581833" lon="-0.35421">
        <ele>477.0</ele>
        <time>2017-05-27T10:07:33.525Z</time>
      </trkpt>
      <trkpt lat="39.91581833" lon="-0.35421">
        <ele>477.0</ele>
        <time>2017-05-27T10:07:34.516Z</time>
      </trkpt>
      <trkpt lat="39.91581833" lon="-0.35421">
        <ele>477.0</ele>
        <time>2017-05-27T10:07:35.504Z</time>
      </trkpt>
      <trkpt lat="39.91581833" lon="-0.35421">
        <ele>477.0</ele>
        <time>2017-05-27T10:07:36.529Z</time>
      </trkpt>
      <trkpt lat="39.91581833" lon="-0.35421">
        <ele>477.0</ele>
        <time>2017-05-27T10:07:37.493Z</time>
      </trkpt>
      <trkpt lat="39.91581833" lon="-0.35421">
        <ele>477.0</ele>
        <time>2017-05-27T10:07:38.521Z</time>
      </trkpt>
      <trkpt lat="39.91581833" lon="-0.35421">
        <ele>477.0</ele>
        <time>2017-05-27T10:07:39.491Z</time>
      </trkpt>
      <trkpt lat="39.91581833" lon="-0.35421">
        <ele>477.0</ele>
        <time>2017-05-27T10:07:40.520Z</time>
      </trkpt>
      <trkpt lat="39.91581833" lon="-0.35421">
        <ele>477.0</ele>
        <time>2017-05-27T10:07:41.520Z</time>
      </trkpt>
      <trkpt lat="39.91581833" lon="-0.35421">
        <ele>477.0</ele>
        <time>2017-05-27T10:07:42.504Z</time>
      </trkpt>
      <trkpt lat="39.91581833" lon="-0.35421">
        <ele>477.0</ele>
        <time>2017-05-27T10:07:43.523Z</time>
      </trkpt>
      <trkpt lat="39.91581833" lon="-0.35421">
        <ele>477.0</ele>
        <time>2017-05-27T10:07:44.511Z</time>
      </trkpt>
      <trkpt lat="39.91581833" lon="-0.35421">
        <ele>477.0</ele>
        <time>2017-05-27T10:07:45.525Z</time>
      </trkpt>
      <trkpt lat="39.91581833" lon="-0.35421">
        <ele>477.0</ele>
        <time>2017-05-27T10:07:46.511Z</time>
      </trkpt>
      <trkpt lat="39.91581833" lon="-0.35421">
        <ele>477.0</ele>
        <time>2017-05-27T10:07:47.505Z</time>
      </trkpt>
      <trkpt lat="39.91581833" lon="-0.35421">
        <ele>477.0</ele>
        <time>2017-05-27T10:07:48.493Z</time>
      </trkpt>
      <trkpt lat="39.91581833" lon="-0.35421">
        <ele>477.0</ele>
        <time>2017-05-27T10:07:49.520Z</time>
      </trkpt>
      <trkpt lat="39.91581833" lon="-0.35421">
        <ele>477.0</ele>
        <time>2017-05-27T10:07:50.527Z</time>
      </trkpt>
      <trkpt lat="39.91581833" lon="-0.35421">
        <ele>477.0</ele>
        <time>2017-05-27T10:07:51.528Z</time>
      </trkpt>
      <trkpt lat="39.91581833" lon="-0.35421">
        <ele>477.0</ele>
        <time>2017-05-27T10:07:52.514Z</time>
      </trkpt>
      <trkpt lat="39.91581833" lon="-0.35421">
        <ele>477.0</ele>
        <time>2017-05-27T10:07:53.498Z</time>
      </trkpt>
      <trkpt lat="39.91581833" lon="-0.35421">
        <ele>477.0</ele>
        <time>2017-05-27T10:07:54.523Z</time>
      </trkpt>
      <trkpt lat="39.91581833" lon="-0.35421">
        <ele>477.0</ele>
        <time>2017-05-27T10:07:55.512Z</time>
      </trkpt>
      <trkpt lat="39.91581833" lon="-0.35421">
        <ele>477.0</ele>
        <time>2017-05-27T10:07:56.500Z</time>
      </trkpt>
      <trkpt lat="39.91581833" lon="-0.35421">
        <ele>477.0</ele>
        <time>2017-05-27T10:07:57.491Z</time>
      </trkpt>
      <trkpt lat="39.91581833" lon="-0.35421">
        <ele>477.0</ele>
        <time>2017-05-27T10:07:58.514Z</time>
      </trkpt>
      <trkpt lat="39.91581833" lon="-0.35421">
        <ele>477.0</ele>
        <time>2017-05-27T10:07:59.522Z</time>
      </trkpt>
      <trkpt lat="39.91581833" lon="-0.35421">
        <ele>477.0</ele>
        <time>2017-05-27T10:08:00.522Z</time>
      </trkpt>
      <trkpt lat="39.91581833" lon="-0.35421">
        <ele>477.0</ele>
        <time>2017-05-27T10:08:01.507Z</time>
      </trkpt>
      <trkpt lat="39.91581833" lon="-0.35421">
        <ele>477.0</ele>
        <time>2017-05-27T10:08:02.498Z</time>
      </trkpt>
      <trkpt lat="39.91581833" lon="-0.35421">
        <ele>477.0</ele>
        <time>2017-05-27T10:08:03.525Z</time>
      </trkpt>
      <trkpt lat="39.91581833" lon="-0.35421">
        <ele>477.0</ele>
        <time>2017-05-27T10:08:04.520Z</time>
      </trkpt>
      <trkpt lat="39.91581833" lon="-0.35421">
        <ele>477.0</ele>
        <time>2017-05-27T10:08:05.512Z</time>
      </trkpt>
      <trkpt lat="39.91581833" lon="-0.35421">
        <ele>477.0</ele>
        <time>2017-05-27T10:08:06.522Z</time>
      </trkpt>
      <trkpt lat="39.91581833" lon="-0.35421">
        <ele>477.0</ele>
        <time>2017-05-27T10:08:07.524Z</time>
      </trkpt>
      <trkpt lat="39.91581833" lon="-0.35421">
        <ele>477.0</ele>
        <time>2017-05-27T10:08:08.512Z</time>
      </trkpt>
      <trkpt lat="39.91581833" lon="-0.35421">
        <ele>477.0</ele>
        <time>2017-05-27T10:08:09.496Z</time>
      </trkpt>
      <trkpt lat="39.91581833" lon="-0.35421">
        <ele>477.0</ele>
        <time>2017-05-27T10:08:10.526Z</time>
      </trkpt>
      <trkpt lat="39.91581833" lon="-0.35421">
        <ele>477.0</ele>
        <time>2017-05-27T10:08:11.528Z</time>
      </trkpt>
      <trkpt lat="39.91581833" lon="-0.35421">
        <ele>477.0</ele>
        <time>2017-05-27T10:08:12.517Z</time>
      </trkpt>
      <trkpt lat="39.91581833" lon="-0.35421">
        <ele>477.0</ele>
        <time>2017-05-27T10:08:13.528Z</time>
      </trkpt>
      <trkpt lat="39.91581833" lon="-0.35421">
        <ele>477.0</ele>
        <time>2017-05-27T10:08:14.514Z</time>
      </trkpt>
      <trkpt lat="39.91581833" lon="-0.35421">
        <ele>477.0</ele>
        <time>2017-05-27T10:08:15.519Z</time>
      </trkpt>
      <trkpt lat="39.91581833" lon="-0.35421">
        <ele>477.0</ele>
        <time>2017-05-27T10:08:16.519Z</time>
      </trkpt>
      <trkpt lat="39.91581833" lon="-0.35421">
        <ele>477.0</ele>
        <time>2017-05-27T10:08:17.493Z</time>
      </trkpt>
      <trkpt lat="39.91581833" lon="-0.35421">
        <ele>477.0</ele>
        <time>2017-05-27T10:08:18.527Z</time>
      </trkpt>
      <trkpt lat="39.91581833" lon="-0.35421">
        <ele>477.0</ele>
        <time>2017-05-27T10:08:19.527Z</time>
      </trkpt>
      <trkpt lat="39.91581833" lon="-0.35421">
        <ele>477.0</ele>
        <time>2017-05-27T10:08:20.513Z</time>
      </trkpt>
      <trkpt lat="39.91581833" lon="-0.35421">
        <ele>477.0</ele>
        <time>2017-05-27T10:08:21.497Z</time>
      </trkpt>
      <trkpt lat="39.91581833" lon="-0.35421">
        <ele>477.0</ele>
        <time>2017-05-27T10:08:22.528Z</time>
      </trkpt>
      <trkpt lat="39.91581833" lon="-0.35421">
        <ele>477.0</ele>
        <time>2017-05-27T10:08:23.520Z</time>
      </trkpt>
      <trkpt lat="39.91581833" lon="-0.35421">
        <ele>477.0</ele>
        <time>2017-05-27T10:08:24.511Z</time>
      </trkpt>
      <trkpt lat="39.91581833" lon="-0.35421">
        <ele>477.0</ele>
        <time>2017-05-27T10:08:25.526Z</time>
      </trkpt>
      <trkpt lat="39.91581833" lon="-0.35421">
        <ele>477.0</ele>
        <time>2017-05-27T10:08:26.511Z</time>
      </trkpt>
      <trkpt lat="39.91581833" lon="-0.35421">
        <ele>477.0</ele>
        <time>2017-05-27T10:08:27.502Z</time>
      </trkpt>
      <trkpt lat="39.91581833" lon="-0.35421">
        <ele>477.0</ele>
        <time>2017-05-27T10:08:28.522Z</time>
      </trkpt>
      <trkpt lat="39.91581833" lon="-0.35421">
        <ele>477.0</ele>
        <time>2017-05-27T10:08:29.530Z</time>
      </trkpt>
      <trkpt lat="39.91581833" lon="-0.35421">
        <ele>477.0</ele>
        <time>2017-05-27T10:08:30.526Z</time>
      </trkpt>
      <trkpt lat="39.91581833" lon="-0.35421">
        <ele>477.0</ele>
        <time>2017-05-27T10:08:31.513Z</time>
      </trkpt>
      <trkpt lat="39.91581833" lon="-0.35421">
        <ele>477.0</ele>
        <time>2017-05-27T10:08:32.503Z</time>
      </trkpt>
      <trkpt lat="39.91581833" lon="-0.35421">
        <ele>477.0</ele>
        <time>2017-05-27T10:08:33.515Z</time>
      </trkpt>
      <trkpt lat="39.91581833" lon="-0.35421">
        <ele>477.0</ele>
        <time>2017-05-27T10:08:34.507Z</time>
      </trkpt>
      <trkpt lat="39.91581833" lon="-0.35421">
        <ele>477.0</ele>
        <time>2017-05-27T10:08:35.493Z</time>
      </trkpt>
      <trkpt lat="39.91581833" lon="-0.35421">
        <ele>477.0</ele>
        <time>2017-05-27T10:08:36.529Z</time>
      </trkpt>
      <trkpt lat="39.91581833" lon="-0.35421">
        <ele>477.0</ele>
        <time>2017-05-27T10:08:37.517Z</time>
      </trkpt>
      <trkpt lat="39.91581833" lon="-0.35421">
        <ele>477.0</ele>
        <time>2017-05-27T10:08:38.524Z</time>
      </trkpt>
      <trkpt lat="39.91581833" lon="-0.35421">
        <ele>477.0</ele>
        <time>2017-05-27T10:08:39.530Z</time>
      </trkpt>
      <trkpt lat="39.91581833" lon="-0.35421">
        <ele>477.0</ele>
        <time>2017-05-27T10:08:40.515Z</time>
      </trkpt>
      <trkpt lat="39.91581833" lon="-0.35421">
        <ele>477.0</ele>
        <time>2017-05-27T10:08:41.521Z</time>
      </trkpt>
      <trkpt lat="39.91581833" lon="-0.35421">
        <ele>477.0</ele>
        <time>2017-05-27T10:08:42.528Z</time>
      </trkpt>
      <trkpt lat="39.91581833" lon="-0.35421">
        <ele>477.0</ele>
        <time>2017-05-27T10:08:43.513Z</time>
      </trkpt>
      <trkpt lat="39.91581833" lon="-0.35421">
        <ele>477.0</ele>
        <time>2017-05-27T10:08:44.501Z</time>
      </trkpt>
      <trkpt lat="39.91581833" lon="-0.35421">
        <ele>477.0</ele>
        <time>2017-05-27T10:08:45.527Z</time>
      </trkpt>
      <trkpt lat="39.91581833" lon="-0.35421">
        <ele>477.0</ele>
        <time>2017-05-27T10:08:46.522Z</time>
      </trkpt>
      <trkpt lat="39.91581833" lon="-0.35421">
        <ele>477.0</ele>
        <time>2017-05-27T10:08:47.516Z</time>
      </trkpt>
      <trkpt lat="39.91581833" lon="-0.35421">
        <ele>477.0</ele>
        <time>2017-05-27T10:08:48.512Z</time>
      </trkpt>
      <trkpt lat="39.91581833" lon="-0.35421">
        <ele>477.0</ele>
        <time>2017-05-27T10:08:49.521Z</time>
      </trkpt>
      <trkpt lat="39.91581833" lon="-0.35421">
        <ele>477.0</ele>
        <time>2017-05-27T10:08:50.527Z</time>
      </trkpt>
      <trkpt lat="39.91581833" lon="-0.35421">
        <ele>477.0</ele>
        <time>2017-05-27T10:08:51.520Z</time>
      </trkpt>
      <trkpt lat="39.91581833" lon="-0.35421">
        <ele>477.0</ele>
        <time>2017-05-27T10:08:52.515Z</time>
      </trkpt>
      <trkpt lat="39.91581833" lon="-0.35421">
        <ele>477.0</ele>
        <time>2017-05-27T10:08:53.511Z</time>
      </trkpt>
      <trkpt lat="39.91581833" lon="-0.35421">
        <ele>477.0</ele>
        <time>2017-05-27T10:08:54.510Z</time>
      </trkpt>
      <trkpt lat="39.91581833" lon="-0.35421">
        <ele>477.0</ele>
        <time>2017-05-27T10:08:55.511Z</time>
      </trkpt>
      <trkpt lat="39.91581833" lon="-0.35421">
        <ele>477.0</ele>
        <time>2017-05-27T10:08:56.503Z</time>
      </trkpt>
      <trkpt lat="39.91581833" lon="-0.35421">
        <ele>477.0</ele>
        <time>2017-05-27T10:08:57.491Z</time>
      </trkpt>
      <trkpt lat="39.91581833" lon="-0.35421">
        <ele>477.0</ele>
        <time>2017-05-27T10:08:58.520Z</time>
      </trkpt>
      <trkpt lat="39.91581833" lon="-0.35421">
        <ele>477.0</ele>
        <time>2017-05-27T10:08:59.520Z</time>
      </trkpt>
      <trkpt lat="39.91581833" lon="-0.35421">
        <ele>477.0</ele>
        <time>2017-05-27T10:09:00.516Z</time>
      </trkpt>
      <trkpt lat="39.91581833" lon="-0.35421">
        <ele>477.0</ele>
        <time>2017-05-27T10:09:01.519Z</time>
      </trkpt>
      <trkpt lat="39.91581833" lon="-0.35421">
        <ele>477.0</ele>
        <time>2017-05-27T10:09:02.514Z</time>
      </trkpt>
      <trkpt lat="39.91581833" lon="-0.35421">
        <ele>477.0</ele>
        <time>2017-05-27T10:09:03.516Z</time>
      </trkpt>
      <trkpt lat="39.91581833" lon="-0.35421">
        <ele>477.0</ele>
        <time>2017-05-27T10:09:04.509Z</time>
      </trkpt>
      <trkpt lat="39.91581833" lon="-0.35421">
        <ele>477.0</ele>
        <time>2017-05-27T10:09:05.504Z</time>
      </trkpt>
      <trkpt lat="39.91581833" lon="-0.35421">
        <ele>477.0</ele>
        <time>2017-05-27T10:09:06.526Z</time>
      </trkpt>
      <trkpt lat="39.91581833" lon="-0.35421">
        <ele>477.0</ele>
        <time>2017-05-27T10:09:07.521Z</time>
      </trkpt>
      <trkpt lat="39.91581833" lon="-0.35421">
        <ele>477.0</ele>
        <time>2017-05-27T10:09:08.517Z</time>
      </trkpt>
      <trkpt lat="39.91581833" lon="-0.35421">
        <ele>477.0</ele>
        <time>2017-05-27T10:09:09.520Z</time>
      </trkpt>
      <trkpt lat="39.91581833" lon="-0.35421">
        <ele>477.0</ele>
        <time>2017-05-27T10:09:10.491Z</time>
      </trkpt>
      <trkpt lat="39.91581833" lon="-0.35421">
        <ele>477.0</ele>
        <time>2017-05-27T10:09:11.521Z</time>
      </trkpt>
      <trkpt lat="39.91581833" lon="-0.35421">
        <ele>477.0</ele>
        <time>2017-05-27T10:09:12.519Z</time>
      </trkpt>
      <trkpt lat="39.91581833" lon="-0.35421">
        <ele>477.0</ele>
        <time>2017-05-27T10:09:13.509Z</time>
      </trkpt>
      <trkpt lat="39.91581833" lon="-0.35421">
        <ele>477.0</ele>
        <time>2017-05-27T10:09:14.495Z</time>
      </trkpt>
      <trkpt lat="39.91581833" lon="-0.35421">
        <ele>477.0</ele>
        <time>2017-05-27T10:09:15.528Z</time>
      </trkpt>
      <trkpt lat="39.91581833" lon="-0.35421">
        <ele>477.0</ele>
        <time>2017-05-27T10:09:16.513Z</time>
      </trkpt>
      <trkpt lat="39.91581833" lon="-0.35421">
        <ele>477.0</ele>
        <time>2017-05-27T10:09:17.525Z</time>
      </trkpt>
      <trkpt lat="39.91581833" lon="-0.35421">
        <ele>477.0</ele>
        <time>2017-05-27T10:09:18.493Z</time>
      </trkpt>
      <trkpt lat="39.91581833" lon="-0.35421">
        <ele>477.0</ele>
        <time>2017-05-27T10:09:19.519Z</time>
      </trkpt>
      <trkpt lat="39.91581833" lon="-0.35421">
        <ele>477.0</ele>
        <time>2017-05-27T10:09:20.520Z</time>
      </trkpt>
      <trkpt lat="39.91581833" lon="-0.35421">
        <ele>477.0</ele>
        <time>2017-05-27T10:09:21.519Z</time>
      </trkpt>
      <trkpt lat="39.91581833" lon="-0.35421">
        <ele>477.0</ele>
        <time>2017-05-27T10:09:22.513Z</time>
      </trkpt>
      <trkpt lat="39.91581833" lon="-0.35421">
        <ele>477.0</ele>
        <time>2017-05-27T10:09:23.530Z</time>
      </trkpt>
      <trkpt lat="39.91581833" lon="-0.35421">
        <ele>477.0</ele>
        <time>2017-05-27T10:09:24.516Z</time>
      </trkpt>
      <trkpt lat="39.91581833" lon="-0.35421">
        <ele>477.0</ele>
        <time>2017-05-27T10:09:25.517Z</time>
      </trkpt>
      <trkpt lat="39.91581833" lon="-0.35421">
        <ele>477.0</ele>
        <time>2017-05-27T10:09:26.514Z</time>
      </trkpt>
      <trkpt lat="39.91581833" lon="-0.35421">
        <ele>477.0</ele>
        <time>2017-05-27T10:09:27.499Z</time>
      </trkpt>
      <trkpt lat="39.91581833" lon="-0.35421">
        <ele>477.0</ele>
        <time>2017-05-27T10:09:28.527Z</time>
      </trkpt>
      <trkpt lat="39.91581833" lon="-0.35421">
        <ele>477.0</ele>
        <time>2017-05-27T10:09:29.529Z</time>
      </trkpt>
      <trkpt lat="39.91581833" lon="-0.35421">
        <ele>477.0</ele>
        <time>2017-05-27T10:09:30.512Z</time>
      </trkpt>
      <trkpt lat="39.91581833" lon="-0.35421">
        <ele>477.0</ele>
        <time>2017-05-27T10:09:31.528Z</time>
      </trkpt>
      <trkpt lat="39.91581833" lon="-0.35421">
        <ele>477.0</ele>
        <time>2017-05-27T10:09:32.516Z</time>
      </trkpt>
      <trkpt lat="39.91581833" lon="-0.35421">
        <ele>477.0</ele>
        <time>2017-05-27T10:09:33.521Z</time>
      </trkpt>
      <trkpt lat="39.91581833" lon="-0.35421">
        <ele>477.0</ele>
        <time>2017-05-27T10:09:34.516Z</time>
      </trkpt>
      <trkpt lat="39.91581833" lon="-0.35421">
        <ele>477.0</ele>
        <time>2017-05-27T10:09:35.519Z</time>
      </trkpt>
      <trkpt lat="39.91581833" lon="-0.35421">
        <ele>477.0</ele>
        <time>2017-05-27T10:09:36.530Z</time>
      </trkpt>
      <trkpt lat="39.91581833" lon="-0.35421">
        <ele>477.0</ele>
        <time>2017-05-27T10:09:37.515Z</time>
      </trkpt>
      <trkpt lat="39.91581833" lon="-0.35421">
        <ele>477.0</ele>
        <time>2017-05-27T10:09:38.510Z</time>
      </trkpt>
      <trkpt lat="39.91581833" lon="-0.35421">
        <ele>477.0</ele>
        <time>2017-05-27T10:09:39.521Z</time>
      </trkpt>
      <trkpt lat="39.91581833" lon="-0.35421">
        <ele>477.0</ele>
        <time>2017-05-27T10:09:40.510Z</time>
      </trkpt>
      <trkpt lat="39.91581833" lon="-0.35421">
        <ele>477.0</ele>
        <time>2017-05-27T10:09:41.526Z</time>
      </trkpt>
      <trkpt lat="39.91581833" lon="-0.35421">
        <ele>477.0</ele>
        <time>2017-05-27T10:09:42.515Z</time>
      </trkpt>
      <trkpt lat="39.91581833" lon="-0.35421">
        <ele>477.0</ele>
        <time>2017-05-27T10:09:43.510Z</time>
      </trkpt>
      <trkpt lat="39.91581833" lon="-0.35421">
        <ele>477.0</ele>
        <time>2017-05-27T10:09:44.495Z</time>
      </trkpt>
      <trkpt lat="39.91581833" lon="-0.35421">
        <ele>477.0</ele>
        <time>2017-05-27T10:09:45.519Z</time>
      </trkpt>
      <trkpt lat="39.91581833" lon="-0.35421">
        <ele>477.0</ele>
        <time>2017-05-27T10:09:46.519Z</time>
      </trkpt>
      <trkpt lat="39.91581833" lon="-0.35421">
        <ele>477.0</ele>
        <time>2017-05-27T10:09:47.510Z</time>
      </trkpt>
      <trkpt lat="39.91581833" lon="-0.35421">
        <ele>477.0</ele>
        <time>2017-05-27T10:09:48.496Z</time>
      </trkpt>
      <trkpt lat="39.91581833" lon="-0.35421">
        <ele>477.0</ele>
        <time>2017-05-27T10:09:49.497Z</time>
      </trkpt>
      <trkpt lat="39.91581833" lon="-0.35421">
        <ele>477.0</ele>
        <time>2017-05-27T10:09:50.521Z</time>
      </trkpt>
      <trkpt lat="39.91581833" lon="-0.35421">
        <ele>477.0</ele>
        <time>2017-05-27T10:09:51.525Z</time>
      </trkpt>
      <trkpt lat="39.91581833" lon="-0.35421">
        <ele>477.0</ele>
        <time>2017-05-27T10:09:52.514Z</time>
      </trkpt>
      <trkpt lat="39.91581833" lon="-0.35421">
        <ele>477.0</ele>
        <time>2017-05-27T10:09:53.520Z</time>
      </trkpt>
      <trkpt lat="39.91581833" lon="-0.35421">
        <ele>477.0</ele>
        <time>2017-05-27T10:09:54.492Z</time>
      </trkpt>
      <trkpt lat="39.91581833" lon="-0.35421">
        <ele>477.0</ele>
        <time>2017-05-27T10:09:55.492Z</time>
      </trkpt>
      <trkpt lat="39.91581833" lon="-0.35421">
        <ele>477.0</ele>
        <time>2017-05-27T10:09:56.517Z</time>
      </trkpt>
      <trkpt lat="39.91581833" lon="-0.35421">
        <ele>477.0</ele>
        <time>2017-05-27T10:09:57.527Z</time>
      </trkpt>
      <trkpt lat="39.91581833" lon="-0.35421">
        <ele>477.0</ele>
        <time>2017-05-27T10:09:58.517Z</time>
      </trkpt>
      <trkpt lat="39.91581833" lon="-0.35421">
        <ele>477.0</ele>
        <time>2017-05-27T10:09:59.491Z</time>
      </trkpt>
      <trkpt lat="39.91581833" lon="-0.35421">
        <ele>477.0</ele>
        <time>2017-05-27T10:10:00.522Z</time>
      </trkpt>
      <trkpt lat="39.91581833" lon="-0.35421">
        <ele>477.0</ele>
        <time>2017-05-27T10:10:01.521Z</time>
      </trkpt>
      <trkpt lat="39.91581833" lon="-0.35421">
        <ele>477.0</ele>
        <time>2017-05-27T10:10:02.491Z</time>
      </trkpt>
      <trkpt lat="39.91581833" lon="-0.35421">
        <ele>477.0</ele>
        <time>2017-05-27T10:10:03.497Z</time>
      </trkpt>
      <trkpt lat="39.91581833" lon="-0.35421">
        <ele>477.0</ele>
        <time>2017-05-27T10:10:04.505Z</time>
      </trkpt>
      <trkpt lat="39.91581833" lon="-0.35421">
        <ele>477.0</ele>
        <time>2017-05-27T10:10:05.492Z</time>
      </trkpt>
      <trkpt lat="39.91581833" lon="-0.35421">
        <ele>477.0</ele>
        <time>2017-05-27T10:10:06.519Z</time>
      </trkpt>
      <trkpt lat="39.91581833" lon="-0.35421">
        <ele>477.0</ele>
        <time>2017-05-27T10:10:07.504Z</time>
      </trkpt>
      <trkpt lat="39.91581833" lon="-0.35421">
        <ele>477.0</ele>
        <time>2017-05-27T10:10:08.517Z</time>
      </trkpt>
      <trkpt lat="39.91581833" lon="-0.35421">
        <ele>477.0</ele>
        <time>2017-05-27T10:10:09.514Z</time>
      </trkpt>
      <trkpt lat="39.91582167" lon="-0.35433167">
        <ele>475.0</ele>
        <time>2017-05-27T10:10:10.504Z</time>
      </trkpt>
      <trkpt lat="39.91581833" lon="-0.35433667">
        <ele>475.0</ele>
        <time>2017-05-27T10:10:11.529Z</time>
      </trkpt>
      <trkpt lat="39.91581833" lon="-0.35433667">
        <ele>475.0</ele>
        <time>2017-05-27T10:10:12.498Z</time>
      </trkpt>
      <trkpt lat="39.91581833" lon="-0.35433167">
        <ele>476.0</ele>
        <time>2017-05-27T10:10:13.528Z</time>
      </trkpt>
      <trkpt lat="39.91581833" lon="-0.35433167">
        <ele>476.0</ele>
        <time>2017-05-27T10:10:14.514Z</time>
      </trkpt>
      <trkpt lat="39.91581833" lon="-0.35433167">
        <ele>476.0</ele>
        <time>2017-05-27T10:10:15.517Z</time>
      </trkpt>
      <trkpt lat="39.91581833" lon="-0.35433167">
        <ele>476.0</ele>
        <time>2017-05-27T10:10:16.515Z</time>
      </trkpt>
      <trkpt lat="39.91581833" lon="-0.35433167">
        <ele>476.0</ele>
        <time>2017-05-27T10:10:17.505Z</time>
      </trkpt>
      <trkpt lat="39.91581833" lon="-0.35433167">
        <ele>476.0</ele>
        <time>2017-05-27T10:10:18.530Z</time>
      </trkpt>
      <trkpt lat="39.91581833" lon="-0.35433167">
        <ele>476.0</ele>
        <time>2017-05-27T10:10:19.525Z</time>
      </trkpt>
      <trkpt lat="39.91581833" lon="-0.35433167">
        <ele>476.0</ele>
        <time>2017-05-27T10:10:20.519Z</time>
      </trkpt>
      <trkpt lat="39.91581833" lon="-0.35433167">
        <ele>476.0</ele>
        <time>2017-05-27T10:10:21.513Z</time>
      </trkpt>
      <trkpt lat="39.91581833" lon="-0.35433167">
        <ele>476.0</ele>
        <time>2017-05-27T10:10:22.504Z</time>
      </trkpt>
      <trkpt lat="39.91581833" lon="-0.35433167">
        <ele>476.0</ele>
        <time>2017-05-27T10:10:23.521Z</time>
      </trkpt>
      <trkpt lat="39.91581833" lon="-0.35433167">
        <ele>476.0</ele>
        <time>2017-05-27T10:10:24.524Z</time>
      </trkpt>
      <trkpt lat="39.91581833" lon="-0.35433167">
        <ele>476.0</ele>
        <time>2017-05-27T10:10:25.509Z</time>
      </trkpt>
      <trkpt lat="39.91581833" lon="-0.35433167">
        <ele>476.0</ele>
        <time>2017-05-27T10:10:26.493Z</time>
      </trkpt>
      <trkpt lat="39.91581833" lon="-0.35433167">
        <ele>476.0</ele>
        <time>2017-05-27T10:10:27.517Z</time>
      </trkpt>
      <trkpt lat="39.91581833" lon="-0.35433167">
        <ele>476.0</ele>
        <time>2017-05-27T10:10:28.510Z</time>
      </trkpt>
      <trkpt lat="39.91581833" lon="-0.35433167">
        <ele>476.0</ele>
        <time>2017-05-27T10:10:29.500Z</time>
      </trkpt>
      <trkpt lat="39.91581833" lon="-0.35433167">
        <ele>476.0</ele>
        <time>2017-05-27T10:10:30.514Z</time>
      </trkpt>
      <trkpt lat="39.91581833" lon="-0.35433167">
        <ele>476.0</ele>
        <time>2017-05-27T10:10:31.501Z</time>
      </trkpt>
      <trkpt lat="39.91581833" lon="-0.35433167">
        <ele>476.0</ele>
        <time>2017-05-27T10:10:32.495Z</time>
      </trkpt>
      <trkpt lat="39.91581833" lon="-0.35433167">
        <ele>476.0</ele>
        <time>2017-05-27T10:10:33.526Z</time>
      </trkpt>
      <trkpt lat="39.91581833" lon="-0.35433167">
        <ele>476.0</ele>
        <time>2017-05-27T10:10:34.512Z</time>
      </trkpt>
      <trkpt lat="39.91581833" lon="-0.35433167">
        <ele>476.0</ele>
        <time>2017-05-27T10:10:35.497Z</time>
      </trkpt>
      <trkpt lat="39.91581833" lon="-0.35433167">
        <ele>476.0</ele>
        <time>2017-05-27T10:10:36.520Z</time>
      </trkpt>
      <trkpt lat="39.91581833" lon="-0.35433167">
        <ele>476.0</ele>
        <time>2017-05-27T10:10:37.504Z</time>
      </trkpt>
      <trkpt lat="39.91581833" lon="-0.35433167">
        <ele>476.0</ele>
        <time>2017-05-27T10:10:38.495Z</time>
      </trkpt>
      <trkpt lat="39.91581833" lon="-0.35433167">
        <ele>476.0</ele>
        <time>2017-05-27T10:10:39.519Z</time>
      </trkpt>
      <trkpt lat="39.91581833" lon="-0.35433167">
        <ele>476.0</ele>
        <time>2017-05-27T10:10:40.515Z</time>
      </trkpt>
      <trkpt lat="39.91581833" lon="-0.35433167">
        <ele>476.0</ele>
        <time>2017-05-27T10:10:41.504Z</time>
      </trkpt>
      <trkpt lat="39.91581833" lon="-0.35433167">
        <ele>476.0</ele>
        <time>2017-05-27T10:10:42.498Z</time>
      </trkpt>
      <trkpt lat="39.91581833" lon="-0.35433167">
        <ele>476.0</ele>
        <time>2017-05-27T10:10:43.521Z</time>
      </trkpt>
      <trkpt lat="39.91581833" lon="-0.35433167">
        <ele>476.0</ele>
        <time>2017-05-27T10:10:44.503Z</time>
      </trkpt>
      <trkpt lat="39.91581833" lon="-0.35433167">
        <ele>476.0</ele>
        <time>2017-05-27T10:10:45.511Z</time>
      </trkpt>
      <trkpt lat="39.91581833" lon="-0.35433167">
        <ele>476.0</ele>
        <time>2017-05-27T10:10:46.520Z</time>
      </trkpt>
      <trkpt lat="39.91581833" lon="-0.35433167">
        <ele>476.0</ele>
        <time>2017-05-27T10:10:47.513Z</time>
      </trkpt>
      <trkpt lat="39.91581833" lon="-0.35433167">
        <ele>476.0</ele>
        <time>2017-05-27T10:10:48.513Z</time>
      </trkpt>
      <trkpt lat="39.91581833" lon="-0.35433167">
        <ele>476.0</ele>
        <time>2017-05-27T10:10:49.526Z</time>
      </trkpt>
      <trkpt lat="39.91581833" lon="-0.35433167">
        <ele>476.0</ele>
        <time>2017-05-27T10:10:50.513Z</time>
      </trkpt>
      <trkpt lat="39.91581833" lon="-0.35433167">
        <ele>476.0</ele>
        <time>2017-05-27T10:10:51.495Z</time>
      </trkpt>
      <trkpt lat="39.91581833" lon="-0.35433167">
        <ele>476.0</ele>
        <time>2017-05-27T10:10:52.517Z</time>
      </trkpt>
      <trkpt lat="39.91581833" lon="-0.35433167">
        <ele>476.0</ele>
        <time>2017-05-27T10:10:53.520Z</time>
      </trkpt>
      <trkpt lat="39.91581833" lon="-0.35433167">
        <ele>476.0</ele>
        <time>2017-05-27T10:10:54.526Z</time>
      </trkpt>
      <trkpt lat="39.91581833" lon="-0.35433167">
        <ele>476.0</ele>
        <time>2017-05-27T10:10:55.493Z</time>
      </trkpt>
      <trkpt lat="39.91581833" lon="-0.35433167">
        <ele>476.0</ele>
        <time>2017-05-27T10:10:56.507Z</time>
      </trkpt>
      <trkpt lat="39.91581833" lon="-0.35433167">
        <ele>476.0</ele>
        <time>2017-05-27T10:10:57.492Z</time>
      </trkpt>
      <trkpt lat="39.91581833" lon="-0.35433167">
        <ele>476.0</ele>
        <time>2017-05-27T10:10:58.513Z</time>
      </trkpt>
      <trkpt lat="39.91581833" lon="-0.35433167">
        <ele>476.0</ele>
        <time>2017-05-27T10:10:59.504Z</time>
      </trkpt>
      <trkpt lat="39.91581833" lon="-0.35433167">
        <ele>476.0</ele>
        <time>2017-05-27T10:11:00.528Z</time>
      </trkpt>
      <trkpt lat="39.91581833" lon="-0.35433167">
        <ele>476.0</ele>
        <time>2017-05-27T10:11:01.516Z</time>
      </trkpt>
      <trkpt lat="39.91581833" lon="-0.35433167">
        <ele>476.0</ele>
        <time>2017-05-27T10:11:02.515Z</time>
      </trkpt>
      <trkpt lat="39.91581833" lon="-0.35433167">
        <ele>476.0</ele>
        <time>2017-05-27T10:11:03.516Z</time>
      </trkpt>
      <trkpt lat="39.91581833" lon="-0.35433167">
        <ele>476.0</ele>
        <time>2017-05-27T10:11:04.508Z</time>
      </trkpt>
      <trkpt lat="39.91578333" lon="-0.35421667">
        <ele>480.0</ele>
        <time>2017-05-27T10:11:05.491Z</time>
      </trkpt>
      <trkpt lat="39.91578333" lon="-0.35421667">
        <ele>480.0</ele>
        <time>2017-05-27T10:11:06.517Z</time>
      </trkpt>
      <trkpt lat="39.91578167" lon="-0.35420667">
        <ele>480.0</ele>
        <time>2017-05-27T10:11:07.496Z</time>
      </trkpt>
      <trkpt lat="39.91578167" lon="-0.35420667">
        <ele>480.0</ele>
        <time>2017-05-27T10:11:08.517Z</time>
      </trkpt>
      <trkpt lat="39.91578167" lon="-0.35420667">
        <ele>480.0</ele>
        <time>2017-05-27T10:11:09.495Z</time>
      </trkpt>
      <trkpt lat="39.91578167" lon="-0.35420667">
        <ele>480.0</ele>
        <time>2017-05-27T10:11:10.517Z</time>
      </trkpt>
      <trkpt lat="39.91578167" lon="-0.35420667">
        <ele>480.0</ele>
        <time>2017-05-27T10:11:11.520Z</time>
      </trkpt>
      <trkpt lat="39.91578167" lon="-0.35420667">
        <ele>480.0</ele>
        <time>2017-05-27T10:11:12.497Z</time>
      </trkpt>
      <trkpt lat="39.91578167" lon="-0.35420667">
        <ele>480.0</ele>
        <time>2017-05-27T10:11:13.519Z</time>
      </trkpt>
      <trkpt lat="39.91578167" lon="-0.35420667">
        <ele>480.0</ele>
        <time>2017-05-27T10:11:14.519Z</time>
      </trkpt>
      <trkpt lat="39.91578167" lon="-0.35420667">
        <ele>480.0</ele>
        <time>2017-05-27T10:11:15.517Z</time>
      </trkpt>
      <trkpt lat="39.91578167" lon="-0.35420667">
        <ele>480.0</ele>
        <time>2017-05-27T10:11:16.517Z</time>
      </trkpt>
      <trkpt lat="39.91578167" lon="-0.35420667">
        <ele>480.0</ele>
        <time>2017-05-27T10:11:17.519Z</time>
      </trkpt>
      <trkpt lat="39.91578167" lon="-0.35420667">
        <ele>480.0</ele>
        <time>2017-05-27T10:11:18.517Z</time>
      </trkpt>
      <trkpt lat="39.91578167" lon="-0.35420667">
        <ele>480.0</ele>
        <time>2017-05-27T10:11:19.500Z</time>
      </trkpt>
      <trkpt lat="39.91578167" lon="-0.35420667">
        <ele>480.0</ele>
        <time>2017-05-27T10:11:20.519Z</time>
      </trkpt>
      <trkpt lat="39.91578167" lon="-0.35420667">
        <ele>480.0</ele>
        <time>2017-05-27T10:11:21.521Z</time>
      </trkpt>
      <trkpt lat="39.91578167" lon="-0.35420667">
        <ele>480.0</ele>
        <time>2017-05-27T10:11:22.521Z</time>
      </trkpt>
      <trkpt lat="39.91578167" lon="-0.35420667">
        <ele>480.0</ele>
        <time>2017-05-27T10:11:23.517Z</time>
      </trkpt>
      <trkpt lat="39.91578167" lon="-0.35420667">
        <ele>480.0</ele>
        <time>2017-05-27T10:11:24.505Z</time>
      </trkpt>
      <trkpt lat="39.91578167" lon="-0.35420667">
        <ele>480.0</ele>
        <time>2017-05-27T10:11:25.526Z</time>
      </trkpt>
      <trkpt lat="39.91578167" lon="-0.35420667">
        <ele>480.0</ele>
        <time>2017-05-27T10:11:26.522Z</time>
      </trkpt>
      <trkpt lat="39.91578167" lon="-0.35420667">
        <ele>480.0</ele>
        <time>2017-05-27T10:11:27.495Z</time>
      </trkpt>
      <trkpt lat="39.91578167" lon="-0.35420667">
        <ele>480.0</ele>
        <time>2017-05-27T10:11:28.519Z</time>
      </trkpt>
      <trkpt lat="39.91578167" lon="-0.35420667">
        <ele>480.0</ele>
        <time>2017-05-27T10:11:29.521Z</time>
      </trkpt>
      <trkpt lat="39.91578167" lon="-0.35420667">
        <ele>480.0</ele>
        <time>2017-05-27T10:11:30.495Z</time>
      </trkpt>
      <trkpt lat="39.91578167" lon="-0.35420667">
        <ele>480.0</ele>
        <time>2017-05-27T10:11:31.525Z</time>
      </trkpt>
      <trkpt lat="39.91578167" lon="-0.35420667">
        <ele>480.0</ele>
        <time>2017-05-27T10:11:32.506Z</time>
      </trkpt>
      <trkpt lat="39.91578167" lon="-0.35420667">
        <ele>480.0</ele>
        <time>2017-05-27T10:11:33.512Z</time>
      </trkpt>
      <trkpt lat="39.91578167" lon="-0.35420667">
        <ele>480.0</ele>
        <time>2017-05-27T10:11:34.518Z</time>
      </trkpt>
      <trkpt lat="39.91578167" lon="-0.35420667">
        <ele>480.0</ele>
        <time>2017-05-27T10:11:35.496Z</time>
      </trkpt>
      <trkpt lat="39.91577167" lon="-0.35429333">
        <ele>491.0</ele>
        <time>2017-05-27T10:11:36.502Z</time>
      </trkpt>
      <trkpt lat="39.91571333" lon="-0.35418">
        <ele>476.0</ele>
        <time>2017-05-27T10:11:37.498Z</time>
      </trkpt>
      <trkpt lat="39.91571333" lon="-0.35418">
        <ele>476.0</ele>
        <time>2017-05-27T10:11:38.493Z</time>
      </trkpt>
      <trkpt lat="39.91571333" lon="-0.35418">
        <ele>476.0</ele>
        <time>2017-05-27T10:11:39.497Z</time>
      </trkpt>
      <trkpt lat="39.91571333" lon="-0.35418">
        <ele>476.0</ele>
        <time>2017-05-27T10:11:40.491Z</time>
      </trkpt>
      <trkpt lat="39.91571333" lon="-0.35418">
        <ele>476.0</ele>
        <time>2017-05-27T10:11:41.518Z</time>
      </trkpt>
      <trkpt lat="39.91571333" lon="-0.35418">
        <ele>476.0</ele>
        <time>2017-05-27T10:11:42.496Z</time>
      </trkpt>
      <trkpt lat="39.91571333" lon="-0.35418">
        <ele>476.0</ele>
        <time>2017-05-27T10:11:43.502Z</time>
      </trkpt>
      <trkpt lat="39.91571333" lon="-0.35418">
        <ele>476.0</ele>
        <time>2017-05-27T10:11:44.508Z</time>
      </trkpt>
      <trkpt lat="39.91571333" lon="-0.35418">
        <ele>476.0</ele>
        <time>2017-05-27T10:11:45.515Z</time>
      </trkpt>
      <trkpt lat="39.91571333" lon="-0.35418">
        <ele>476.0</ele>
        <time>2017-05-27T10:11:46.525Z</time>
      </trkpt>
      <trkpt lat="39.91571333" lon="-0.35418">
        <ele>476.0</ele>
        <time>2017-05-27T10:11:47.491Z</time>
      </trkpt>
      <trkpt lat="39.91571333" lon="-0.35418">
        <ele>476.0</ele>
        <time>2017-05-27T10:11:48.496Z</time>
      </trkpt>
      <trkpt lat="39.91571333" lon="-0.35418">
        <ele>476.0</ele>
        <time>2017-05-27T10:11:49.495Z</time>
      </trkpt>
      <trkpt lat="39.91571333" lon="-0.35418">
        <ele>476.0</ele>
        <time>2017-05-27T10:11:50.511Z</time>
      </trkpt>
      <trkpt lat="39.91571333" lon="-0.35418">
        <ele>476.0</ele>
        <time>2017-05-27T10:11:51.527Z</time>
      </trkpt>
      <trkpt lat="39.91571333" lon="-0.35418">
        <ele>476.0</ele>
        <time>2017-05-27T10:11:52.496Z</time>
      </trkpt>
      <trkpt lat="39.91571333" lon="-0.35418">
        <ele>476.0</ele>
        <time>2017-05-27T10:11:53.496Z</time>
      </trkpt>
      <trkpt lat="39.91571333" lon="-0.35418">
        <ele>476.0</ele>
        <time>2017-05-27T10:11:54.496Z</time>
      </trkpt>
      <trkpt lat="39.91571333" lon="-0.35418">
        <ele>476.0</ele>
        <time>2017-05-27T10:11:55.495Z</time>
      </trkpt>
      <trkpt lat="39.91571333" lon="-0.35418">
        <ele>476.0</ele>
        <time>2017-05-27T10:11:56.500Z</time>
      </trkpt>
      <trkpt lat="39.91571333" lon="-0.35418">
        <ele>476.0</ele>
        <time>2017-05-27T10:11:57.493Z</time>
      </trkpt>
      <trkpt lat="39.91571333" lon="-0.35418">
        <ele>476.0</ele>
        <time>2017-05-27T10:11:58.493Z</time>
      </trkpt>
      <trkpt lat="39.91571333" lon="-0.35418">
        <ele>476.0</ele>
        <time>2017-05-27T10:11:59.491Z</time>
      </trkpt>
      <trkpt lat="39.91571333" lon="-0.35418">
        <ele>476.0</ele>
        <time>2017-05-27T10:12:00.509Z</time>
      </trkpt>
      <trkpt lat="39.91571333" lon="-0.35418">
        <ele>476.0</ele>
        <time>2017-05-27T10:12:01.495Z</time>
      </trkpt>
      <trkpt lat="39.91571333" lon="-0.35418">
        <ele>476.0</ele>
        <time>2017-05-27T10:12:02.509Z</time>
      </trkpt>
      <trkpt lat="39.91571333" lon="-0.35418">
        <ele>476.0</ele>
        <time>2017-05-27T10:12:03.513Z</time>
      </trkpt>
      <trkpt lat="39.91571333" lon="-0.35418">
        <ele>476.0</ele>
        <time>2017-05-27T10:12:04.523Z</time>
      </trkpt>
      <trkpt lat="39.91571333" lon="-0.35418">
        <ele>476.0</ele>
        <time>2017-05-27T10:12:05.530Z</time>
      </trkpt>
      <trkpt lat="39.91571333" lon="-0.35418">
        <ele>476.0</ele>
        <time>2017-05-27T10:12:06.496Z</time>
      </trkpt>
      <trkpt lat="39.91571333" lon="-0.35418">
        <ele>476.0</ele>
        <time>2017-05-27T10:12:07.502Z</time>
      </trkpt>
      <trkpt lat="39.91571333" lon="-0.35418">
        <ele>476.0</ele>
        <time>2017-05-27T10:12:08.515Z</time>
      </trkpt>
      <trkpt lat="39.91571333" lon="-0.35418">
        <ele>476.0</ele>
        <time>2017-05-27T10:12:09.501Z</time>
      </trkpt>
      <trkpt lat="39.91571333" lon="-0.35418">
        <ele>476.0</ele>
        <time>2017-05-27T10:12:10.496Z</time>
      </trkpt>
      <trkpt lat="39.91571333" lon="-0.35418">
        <ele>476.0</ele>
        <time>2017-05-27T10:12:11.493Z</time>
      </trkpt>
      <trkpt lat="39.91571333" lon="-0.35418">
        <ele>476.0</ele>
        <time>2017-05-27T10:12:12.523Z</time>
      </trkpt>
      <trkpt lat="39.91571333" lon="-0.35418">
        <ele>476.0</ele>
        <time>2017-05-27T10:12:13.504Z</time>
      </trkpt>
      <trkpt lat="39.91571333" lon="-0.35418">
        <ele>476.0</ele>
        <time>2017-05-27T10:12:14.526Z</time>
      </trkpt>
      <trkpt lat="39.91571333" lon="-0.35418">
        <ele>476.0</ele>
        <time>2017-05-27T10:12:15.512Z</time>
      </trkpt>
      <trkpt lat="39.91571333" lon="-0.35418">
        <ele>476.0</ele>
        <time>2017-05-27T10:12:16.499Z</time>
      </trkpt>
      <trkpt lat="39.91571333" lon="-0.35418">
        <ele>476.0</ele>
        <time>2017-05-27T10:12:17.493Z</time>
      </trkpt>
      <trkpt lat="39.91571333" lon="-0.35418">
        <ele>476.0</ele>
        <time>2017-05-27T10:12:18.530Z</time>
      </trkpt>
      <trkpt lat="39.91571333" lon="-0.35418">
        <ele>476.0</ele>
        <time>2017-05-27T10:12:19.491Z</time>
      </trkpt>
      <trkpt lat="39.91571333" lon="-0.35418">
        <ele>476.0</ele>
        <time>2017-05-27T10:12:20.510Z</time>
      </trkpt>
      <trkpt lat="39.91571333" lon="-0.35418">
        <ele>476.0</ele>
        <time>2017-05-27T10:12:21.494Z</time>
      </trkpt>
      <trkpt lat="39.91571333" lon="-0.35418">
        <ele>476.0</ele>
        <time>2017-05-27T10:12:22.495Z</time>
      </trkpt>
      <trkpt lat="39.91571333" lon="-0.35418">
        <ele>476.0</ele>
        <time>2017-05-27T10:12:23.496Z</time>
      </trkpt>
      <trkpt lat="39.91571333" lon="-0.35418">
        <ele>476.0</ele>
        <time>2017-05-27T10:12:24.504Z</time>
      </trkpt>
      <trkpt lat="39.91571333" lon="-0.35418">
        <ele>476.0</ele>
        <time>2017-05-27T10:12:25.530Z</time>
      </trkpt>
      <trkpt lat="39.91571333" lon="-0.35418">
        <ele>476.0</ele>
        <time>2017-05-27T10:12:26.510Z</time>
      </trkpt>
      <trkpt lat="39.91571333" lon="-0.35418">
        <ele>476.0</ele>
        <time>2017-05-27T10:12:27.495Z</time>
      </trkpt>
      <trkpt lat="39.91571333" lon="-0.35418">
        <ele>476.0</ele>
        <time>2017-05-27T10:12:28.497Z</time>
      </trkpt>
      <trkpt lat="39.91571333" lon="-0.35418">
        <ele>476.0</ele>
        <time>2017-05-27T10:12:29.493Z</time>
      </trkpt>
      <trkpt lat="39.91571333" lon="-0.35418">
        <ele>476.0</ele>
        <time>2017-05-27T10:12:30.495Z</time>
      </trkpt>
      <trkpt lat="39.91571333" lon="-0.35418">
        <ele>476.0</ele>
        <time>2017-05-27T10:12:31.495Z</time>
      </trkpt>
      <trkpt lat="39.91571333" lon="-0.35418">
        <ele>476.0</ele>
        <time>2017-05-27T10:12:32.496Z</time>
      </trkpt>
      <trkpt lat="39.91571333" lon="-0.35418">
        <ele>476.0</ele>
        <time>2017-05-27T10:12:33.495Z</time>
      </trkpt>
      <trkpt lat="39.91571333" lon="-0.35418">
        <ele>476.0</ele>
        <time>2017-05-27T10:12:34.495Z</time>
      </trkpt>
      <trkpt lat="39.91571333" lon="-0.35418">
        <ele>476.0</ele>
        <time>2017-05-27T10:12:35.493Z</time>
      </trkpt>
      <trkpt lat="39.91571333" lon="-0.35418">
        <ele>476.0</ele>
        <time>2017-05-27T10:12:36.495Z</time>
      </trkpt>
      <trkpt lat="39.91562833" lon="-0.35412">
        <ele>472.0</ele>
        <time>2017-05-27T10:12:37.495Z</time>
      </trkpt>
      <trkpt lat="39.91562833" lon="-0.35412">
        <ele>472.0</ele>
        <time>2017-05-27T10:12:38.497Z</time>
      </trkpt>
      <trkpt lat="39.9157" lon="-0.35407833">
        <ele>471.0</ele>
        <time>2017-05-27T10:12:39.496Z</time>
      </trkpt>
      <trkpt lat="39.9157" lon="-0.35407833">
        <ele>471.0</ele>
        <time>2017-05-27T10:12:40.503Z</time>
      </trkpt>
      <trkpt lat="39.91568667" lon="-0.35404167">
        <ele>470.0</ele>
        <time>2017-05-27T10:12:41.509Z</time>
      </trkpt>
      <trkpt lat="39.91568667" lon="-0.35404167">
        <ele>470.0</ele>
        <time>2017-05-27T10:12:42.495Z</time>
      </trkpt>
      <trkpt lat="39.91562667" lon="-0.354025">
        <ele>470.0</ele>
        <time>2017-05-27T10:12:43.512Z</time>
      </trkpt>
      <trkpt lat="39.91559667" lon="-0.35402667">
        <ele>470.0</ele>
        <time>2017-05-27T10:12:44.496Z</time>
      </trkpt>
      <trkpt lat="39.91559667" lon="-0.35402667">
        <ele>470.0</ele>
        <time>2017-05-27T10:12:45.493Z</time>
      </trkpt>
      <trkpt lat="39.91554333" lon="-0.35405">
        <ele>469.0</ele>
        <time>2017-05-27T10:12:46.508Z</time>
      </trkpt>
      <trkpt lat="39.91554333" lon="-0.35405">
        <ele>469.0</ele>
        <time>2017-05-27T10:12:47.530Z</time>
      </trkpt>
      <trkpt lat="39.91550167" lon="-0.35405833">
        <ele>469.0</ele>
        <time>2017-05-27T10:12:48.500Z</time>
      </trkpt>
      <trkpt lat="39.91550167" lon="-0.35405833">
        <ele>469.0</ele>
        <time>2017-05-27T10:12:49.501Z</time>
      </trkpt>
      <trkpt lat="39.91547" lon="-0.35405167">
        <ele>469.0</ele>
        <time>2017-05-27T10:12:50.525Z</time>
      </trkpt>
      <trkpt lat="39.91547" lon="-0.35405167">
        <ele>469.0</ele>
        <time>2017-05-27T10:12:51.506Z</time>
      </trkpt>
      <trkpt lat="39.91544333" lon="-0.35404833">
        <ele>468.0</ele>
        <time>2017-05-27T10:12:52.528Z</time>
      </trkpt>
      <trkpt lat="39.91542667" lon="-0.35404833">
        <ele>468.0</ele>
        <time>2017-05-27T10:12:53.496Z</time>
      </trkpt>
      <trkpt lat="39.91542667" lon="-0.35404833">
        <ele>468.0</ele>
        <time>2017-05-27T10:12:54.493Z</time>
      </trkpt>
      <trkpt lat="39.91539333" lon="-0.354045">
        <ele>467.0</ele>
        <time>2017-05-27T10:12:55.491Z</time>
      </trkpt>
      <trkpt lat="39.91539333" lon="-0.354045">
        <ele>467.0</ele>
        <time>2017-05-27T10:12:56.498Z</time>
      </trkpt>
      <trkpt lat="39.91536167" lon="-0.35401167">
        <ele>467.0</ele>
        <time>2017-05-27T10:12:57.528Z</time>
      </trkpt>
      <trkpt lat="39.91535667" lon="-0.35397667">
        <ele>467.0</ele>
        <time>2017-05-27T10:12:58.499Z</time>
      </trkpt>
      <trkpt lat="39.91535667" lon="-0.35397667">
        <ele>467.0</ele>
        <time>2017-05-27T10:12:59.529Z</time>
      </trkpt>
      <trkpt lat="39.91536" lon="-0.353895">
        <ele>465.0</ele>
        <time>2017-05-27T10:13:00.505Z</time>
      </trkpt>
      <trkpt lat="39.91536" lon="-0.353895">
        <ele>465.0</ele>
        <time>2017-05-27T10:13:01.530Z</time>
      </trkpt>
      <trkpt lat="39.91536833" lon="-0.35379667">
        <ele>465.0</ele>
        <time>2017-05-27T10:13:02.505Z</time>
      </trkpt>
      <trkpt lat="39.91537833" lon="-0.35374333">
        <ele>464.0</ele>
        <time>2017-05-27T10:13:03.495Z</time>
      </trkpt>
      <trkpt lat="39.91537833" lon="-0.35374333">
        <ele>464.0</ele>
        <time>2017-05-27T10:13:04.493Z</time>
      </trkpt>
      <trkpt lat="39.91539333" lon="-0.35364">
        <ele>464.0</ele>
        <time>2017-05-27T10:13:05.514Z</time>
      </trkpt>
      <trkpt lat="39.91539333" lon="-0.35364">
        <ele>464.0</ele>
        <time>2017-05-27T10:13:06.497Z</time>
      </trkpt>
      <trkpt lat="39.91540333" lon="-0.35354">
        <ele>463.0</ele>
        <time>2017-05-27T10:13:07.514Z</time>
      </trkpt>
      <trkpt lat="39.91540667" lon="-0.35349333">
        <ele>463.0</ele>
        <time>2017-05-27T10:13:08.509Z</time>
      </trkpt>
      <trkpt lat="39.91540667" lon="-0.35349333">
        <ele>463.0</ele>
        <time>2017-05-27T10:13:09.493Z</time>
      </trkpt>
      <trkpt lat="39.91542" lon="-0.3534">
        <ele>463.0</ele>
        <time>2017-05-27T10:13:10.515Z</time>
      </trkpt>
      <trkpt lat="39.91542833" lon="-0.35335333">
        <ele>463.0</ele>
        <time>2017-05-27T10:13:11.525Z</time>
      </trkpt>
      <trkpt lat="39.91544" lon="-0.35331">
        <ele>463.0</ele>
        <time>2017-05-27T10:13:12.507Z</time>
      </trkpt>
      <trkpt lat="39.91544" lon="-0.35331">
        <ele>463.0</ele>
        <time>2017-05-27T10:13:13.494Z</time>
      </trkpt>
      <trkpt lat="39.91545167" lon="-0.35323167">
        <ele>462.0</ele>
        <time>2017-05-27T10:13:14.526Z</time>
      </trkpt>
      <trkpt lat="39.91545167" lon="-0.35323167">
        <ele>462.0</ele>
        <time>2017-05-27T10:13:15.508Z</time>
      </trkpt>
      <trkpt lat="39.915475" lon="-0.35314833">
        <ele>462.0</ele>
        <time>2017-05-27T10:13:16.520Z</time>
      </trkpt>
      <trkpt lat="39.915475" lon="-0.35314833">
        <ele>462.0</ele>
        <time>2017-05-27T10:13:17.502Z</time>
      </trkpt>
      <trkpt lat="39.91548833" lon="-0.35306">
        <ele>462.0</ele>
        <time>2017-05-27T10:13:18.515Z</time>
      </trkpt>
      <trkpt lat="39.91548833" lon="-0.35306">
        <ele>462.0</ele>
        <time>2017-05-27T10:13:19.523Z</time>
      </trkpt>
      <trkpt lat="39.9155" lon="-0.35297833">
        <ele>462.0</ele>
        <time>2017-05-27T10:13:20.491Z</time>
      </trkpt>
      <trkpt lat="39.91550667" lon="-0.35294">
        <ele>462.0</ele>
        <time>2017-05-27T10:13:21.524Z</time>
      </trkpt>
      <trkpt lat="39.915515" lon="-0.3529">
        <ele>462.0</ele>
        <time>2017-05-27T10:13:22.502Z</time>
      </trkpt>
      <trkpt lat="39.915515" lon="-0.3529">
        <ele>462.0</ele>
        <time>2017-05-27T10:13:23.495Z</time>
      </trkpt>
      <trkpt lat="39.91552667" lon="-0.35282833">
        <ele>462.0</ele>
        <time>2017-05-27T10:13:24.507Z</time>
      </trkpt>
      <trkpt lat="39.91552667" lon="-0.35282833">
        <ele>462.0</ele>
        <time>2017-05-27T10:13:25.494Z</time>
      </trkpt>
      <trkpt lat="39.91554" lon="-0.35276">
        <ele>463.0</ele>
        <time>2017-05-27T10:13:26.515Z</time>
      </trkpt>
      <trkpt lat="39.91554" lon="-0.35276">
        <ele>463.0</ele>
        <time>2017-05-27T10:13:27.497Z</time>
      </trkpt>
      <trkpt lat="39.91555" lon="-0.35269667">
        <ele>463.0</ele>
        <time>2017-05-27T10:13:28.495Z</time>
      </trkpt>
      <trkpt lat="39.91555" lon="-0.35269667">
        <ele>463.0</ele>
        <time>2017-05-27T10:13:29.493Z</time>
      </trkpt>
      <trkpt lat="39.91556333" lon="-0.35262833">
        <ele>462.0</ele>
        <time>2017-05-27T10:13:30.515Z</time>
      </trkpt>
      <trkpt lat="39.91556333" lon="-0.35262833">
        <ele>462.0</ele>
        <time>2017-05-27T10:13:31.497Z</time>
      </trkpt>
      <trkpt lat="39.91557333" lon="-0.352565">
        <ele>462.0</ele>
        <time>2017-05-27T10:13:32.534Z</time>
      </trkpt>
      <trkpt lat="39.91557333" lon="-0.352565">
        <ele>462.0</ele>
        <time>2017-05-27T10:13:33.495Z</time>
      </trkpt>
      <trkpt lat="39.91557" lon="-0.352505">
        <ele>463.0</ele>
        <time>2017-05-27T10:13:34.517Z</time>
      </trkpt>
      <trkpt lat="39.91557833" lon="-0.35247167">
        <ele>463.0</ele>
        <time>2017-05-27T10:13:35.516Z</time>
      </trkpt>
      <trkpt lat="39.91557833" lon="-0.35247167">
        <ele>463.0</ele>
        <time>2017-05-27T10:13:36.498Z</time>
      </trkpt>
      <trkpt lat="39.91559" lon="-0.35240667">
        <ele>463.0</ele>
        <time>2017-05-27T10:13:37.501Z</time>
      </trkpt>
      <trkpt lat="39.91559" lon="-0.35240667">
        <ele>463.0</ele>
        <time>2017-05-27T10:13:38.497Z</time>
      </trkpt>
      <trkpt lat="39.915605" lon="-0.35234">
        <ele>463.0</ele>
        <time>2017-05-27T10:13:39.498Z</time>
      </trkpt>
      <trkpt lat="39.91561" lon="-0.35230833">
        <ele>463.0</ele>
        <time>2017-05-27T10:13:40.518Z</time>
      </trkpt>
      <trkpt lat="39.91561" lon="-0.35230833">
        <ele>463.0</ele>
        <time>2017-05-27T10:13:41.495Z</time>
      </trkpt>
      <trkpt lat="39.915625" lon="-0.35223167">
        <ele>463.0</ele>
        <time>2017-05-27T10:13:42.525Z</time>
      </trkpt>
      <trkpt lat="39.91562167" lon="-0.35219667">
        <ele>464.0</ele>
        <time>2017-05-27T10:13:43.515Z</time>
      </trkpt>
      <trkpt lat="39.91562167" lon="-0.35219667">
        <ele>464.0</ele>
        <time>2017-05-27T10:13:44.497Z</time>
      </trkpt>
      <trkpt lat="39.915615" lon="-0.35212667">
        <ele>464.0</ele>
        <time>2017-05-27T10:13:45.520Z</time>
      </trkpt>
      <trkpt lat="39.915615" lon="-0.35212667">
        <ele>464.0</ele>
        <time>2017-05-27T10:13:46.497Z</time>
      </trkpt>
      <trkpt lat="39.91561" lon="-0.35206">
        <ele>464.0</ele>
        <time>2017-05-27T10:13:47.509Z</time>
      </trkpt>
      <trkpt lat="39.91561" lon="-0.35206">
        <ele>464.0</ele>
        <time>2017-05-27T10:13:48.495Z</time>
      </trkpt>
      <trkpt lat="39.9156" lon="-0.35199">
        <ele>464.0</ele>
        <time>2017-05-27T10:13:49.517Z</time>
      </trkpt>
      <trkpt lat="39.9156" lon="-0.35199">
        <ele>464.0</ele>
        <time>2017-05-27T10:13:50.499Z</time>
      </trkpt>
      <trkpt lat="39.91558167" lon="-0.35191333">
        <ele>463.0</ele>
        <time>2017-05-27T10:13:51.521Z</time>
      </trkpt>
      <trkpt lat="39.91556833" lon="-0.35187167">
        <ele>463.0</ele>
        <time>2017-05-27T10:13:52.506Z</time>
      </trkpt>
      <trkpt lat="39.91556833" lon="-0.35187167">
        <ele>463.0</ele>
        <time>2017-05-27T10:13:53.507Z</time>
      </trkpt>
      <trkpt lat="39.91554" lon="-0.35177">
        <ele>463.0</ele>
        <time>2017-05-27T10:13:54.508Z</time>
      </trkpt>
      <trkpt lat="39.91554" lon="-0.35177">
        <ele>463.0</ele>
        <time>2017-05-27T10:13:55.494Z</time>
      </trkpt>
      <trkpt lat="39.91550667" lon="-0.35166833">
        <ele>463.0</ele>
        <time>2017-05-27T10:13:56.523Z</time>
      </trkpt>
      <trkpt lat="39.91550667" lon="-0.35166833">
        <ele>463.0</ele>
        <time>2017-05-27T10:13:57.505Z</time>
      </trkpt>
      <trkpt lat="39.91547667" lon="-0.35155167">
        <ele>463.0</ele>
        <time>2017-05-27T10:13:58.493Z</time>
      </trkpt>
      <trkpt lat="39.91547667" lon="-0.35155167">
        <ele>463.0</ele>
        <time>2017-05-27T10:13:59.528Z</time>
      </trkpt>
      <trkpt lat="39.91547" lon="-0.351415">
        <ele>462.0</ele>
        <time>2017-05-27T10:14:00.502Z</time>
      </trkpt>
      <trkpt lat="39.91547833" lon="-0.35134167">
        <ele>462.0</ele>
        <time>2017-05-27T10:14:01.527Z</time>
      </trkpt>
      <trkpt lat="39.91547833" lon="-0.35134167">
        <ele>462.0</ele>
        <time>2017-05-27T10:14:02.508Z</time>
      </trkpt>
      <trkpt lat="39.91552333" lon="-0.35119167">
        <ele>462.0</ele>
        <time>2017-05-27T10:14:03.495Z</time>
      </trkpt>
      <trkpt lat="39.91555333" lon="-0.35111667">
        <ele>462.0</ele>
        <time>2017-05-27T10:14:04.507Z</time>
      </trkpt>
      <trkpt lat="39.91555333" lon="-0.35111667">
        <ele>462.0</ele>
        <time>2017-05-27T10:14:05.530Z</time>
      </trkpt>
      <trkpt lat="39.91561667" lon="-0.35096667">
        <ele>461.0</ele>
        <time>2017-05-27T10:14:06.495Z</time>
      </trkpt>
      <trkpt lat="39.91561667" lon="-0.35096667">
        <ele>461.0</ele>
        <time>2017-05-27T10:14:07.494Z</time>
      </trkpt>
      <trkpt lat="39.91568" lon="-0.35081667">
        <ele>460.0</ele>
        <time>2017-05-27T10:14:08.525Z</time>
      </trkpt>
      <trkpt lat="39.91568" lon="-0.35081667">
        <ele>460.0</ele>
        <time>2017-05-27T10:14:09.507Z</time>
      </trkpt>
      <trkpt lat="39.91574167" lon="-0.35065833">
        <ele>459.0</ele>
        <time>2017-05-27T10:14:10.512Z</time>
      </trkpt>
      <trkpt lat="39.91574167" lon="-0.35065833">
        <ele>459.0</ele>
        <time>2017-05-27T10:14:11.514Z</time>
      </trkpt>
      <trkpt lat="39.91580167" lon="-0.350495">
        <ele>458.0</ele>
        <time>2017-05-27T10:14:12.519Z</time>
      </trkpt>
      <trkpt lat="39.91580167" lon="-0.350495">
        <ele>458.0</ele>
        <time>2017-05-27T10:14:13.505Z</time>
      </trkpt>
      <trkpt lat="39.91586167" lon="-0.350315">
        <ele>457.0</ele>
        <time>2017-05-27T10:14:14.516Z</time>
      </trkpt>
      <trkpt lat="39.91586167" lon="-0.350315">
        <ele>457.0</ele>
        <time>2017-05-27T10:14:15.498Z</time>
      </trkpt>
      <trkpt lat="39.915835" lon="-0.35011833">
        <ele>456.0</ele>
        <time>2017-05-27T10:14:16.508Z</time>
      </trkpt>
      <trkpt lat="39.915785" lon="-0.35003667">
        <ele>456.0</ele>
        <time>2017-05-27T10:14:17.505Z</time>
      </trkpt>
      <trkpt lat="39.915785" lon="-0.35003667">
        <ele>456.0</ele>
        <time>2017-05-27T10:14:18.493Z</time>
      </trkpt>
      <trkpt lat="39.91568167" lon="-0.34987833">
        <ele>455.0</ele>
        <time>2017-05-27T10:14:19.519Z</time>
      </trkpt>
      <trkpt lat="39.91568167" lon="-0.34987833">
        <ele>455.0</ele>
        <time>2017-05-27T10:14:20.503Z</time>
      </trkpt>
      <trkpt lat="39.91562" lon="-0.34969167">
        <ele>454.0</ele>
        <time>2017-05-27T10:14:21.524Z</time>
      </trkpt>
      <trkpt lat="39.91561833" lon="-0.34958833">
        <ele>454.0</ele>
        <time>2017-05-27T10:14:22.507Z</time>
      </trkpt>
      <trkpt lat="39.91561833" lon="-0.34958833">
        <ele>454.0</ele>
        <time>2017-05-27T10:14:23.499Z</time>
      </trkpt>
      <trkpt lat="39.915655" lon="-0.34938833">
        <ele>453.0</ele>
        <time>2017-05-27T10:14:24.524Z</time>
      </trkpt>
      <trkpt lat="39.915685" lon="-0.34929167">
        <ele>453.0</ele>
        <time>2017-05-27T10:14:25.512Z</time>
      </trkpt>
      <trkpt lat="39.91571667" lon="-0.34919333">
        <ele>453.0</ele>
        <time>2017-05-27T10:14:26.508Z</time>
      </trkpt>
      <trkpt lat="39.91571667" lon="-0.34919333">
        <ele>453.0</ele>
        <time>2017-05-27T10:14:27.493Z</time>
      </trkpt>
      <trkpt lat="39.91578167" lon="-0.34899833">
        <ele>452.0</ele>
        <time>2017-05-27T10:14:28.519Z</time>
      </trkpt>
      <trkpt lat="39.91578167" lon="-0.34899833">
        <ele>452.0</ele>
        <time>2017-05-27T10:14:29.514Z</time>
      </trkpt>
      <trkpt lat="39.91584167" lon="-0.34881">
        <ele>451.0</ele>
        <time>2017-05-27T10:14:30.502Z</time>
      </trkpt>
      <trkpt lat="39.91586667" lon="-0.348715">
        <ele>451.0</ele>
        <time>2017-05-27T10:14:31.528Z</time>
      </trkpt>
      <trkpt lat="39.91586667" lon="-0.348715">
        <ele>451.0</ele>
        <time>2017-05-27T10:14:32.510Z</time>
      </trkpt>
      <trkpt lat="39.91591333" lon="-0.34851667">
        <ele>451.0</ele>
        <time>2017-05-27T10:14:33.525Z</time>
      </trkpt>
      <trkpt lat="39.915935" lon="-0.34841833">
        <ele>450.0</ele>
        <time>2017-05-27T10:14:34.505Z</time>
      </trkpt>
      <trkpt lat="39.915935" lon="-0.34841833">
        <ele>450.0</ele>
        <time>2017-05-27T10:14:35.530Z</time>
      </trkpt>
      <trkpt lat="39.91597667" lon="-0.34821833">
        <ele>450.0</ele>
        <time>2017-05-27T10:14:36.499Z</time>
      </trkpt>
      <trkpt lat="39.91597667" lon="-0.34821833">
        <ele>450.0</ele>
        <time>2017-05-27T10:14:37.495Z</time>
      </trkpt>
      <trkpt lat="39.91602667" lon="-0.34801667">
        <ele>449.0</ele>
        <time>2017-05-27T10:14:38.525Z</time>
      </trkpt>
      <trkpt lat="39.91602667" lon="-0.34801667">
        <ele>449.0</ele>
        <time>2017-05-27T10:14:39.528Z</time>
      </trkpt>
      <trkpt lat="39.91606833" lon="-0.34780333">
        <ele>448.0</ele>
        <time>2017-05-27T10:14:40.509Z</time>
      </trkpt>
      <trkpt lat="39.91606833" lon="-0.34780333">
        <ele>448.0</ele>
        <time>2017-05-27T10:14:41.495Z</time>
      </trkpt>
      <trkpt lat="39.91609333" lon="-0.34757">
        <ele>448.0</ele>
        <time>2017-05-27T10:14:42.518Z</time>
      </trkpt>
      <trkpt lat="39.91609333" lon="-0.34757">
        <ele>448.0</ele>
        <time>2017-05-27T10:14:43.515Z</time>
      </trkpt>
      <trkpt lat="39.91607667" lon="-0.34733833">
        <ele>447.0</ele>
        <time>2017-05-27T10:14:44.523Z</time>
      </trkpt>
      <trkpt lat="39.91606833" lon="-0.34722333">
        <ele>446.0</ele>
        <time>2017-05-27T10:14:45.508Z</time>
      </trkpt>
      <trkpt lat="39.91606833" lon="-0.34722333">
        <ele>446.0</ele>
        <time>2017-05-27T10:14:46.493Z</time>
      </trkpt>
      <trkpt lat="39.916075" lon="-0.347015">
        <ele>446.0</ele>
        <time>2017-05-27T10:14:47.512Z</time>
      </trkpt>
      <trkpt lat="39.916075" lon="-0.347015">
        <ele>446.0</ele>
        <time>2017-05-27T10:14:48.507Z</time>
      </trkpt>
      <trkpt lat="39.91612667" lon="-0.346845">
        <ele>446.0</ele>
        <time>2017-05-27T10:14:49.498Z</time>
      </trkpt>
      <trkpt lat="39.91618167" lon="-0.346765">
        <ele>446.0</ele>
        <time>2017-05-27T10:14:50.499Z</time>
      </trkpt>
      <trkpt lat="39.91618167" lon="-0.346765">
        <ele>446.0</ele>
        <time>2017-05-27T10:14:51.508Z</time>
      </trkpt>
      <trkpt lat="39.91630833" lon="-0.34662333">
        <ele>445.0</ele>
        <time>2017-05-27T10:14:52.497Z</time>
      </trkpt>
      <trkpt lat="39.916375" lon="-0.34655833">
        <ele>444.0</ele>
        <time>2017-05-27T10:14:53.510Z</time>
      </trkpt>
      <trkpt lat="39.916375" lon="-0.34655833">
        <ele>444.0</ele>
        <time>2017-05-27T10:14:54.517Z</time>
      </trkpt>
      <trkpt lat="39.91647833" lon="-0.34639167">
        <ele>444.0</ele>
        <time>2017-05-27T10:14:55.528Z</time>
      </trkpt>
      <trkpt lat="39.91651333" lon="-0.34629333">
        <ele>444.0</ele>
        <time>2017-05-27T10:14:56.505Z</time>
      </trkpt>
      <trkpt lat="39.91654833" lon="-0.34619167">
        <ele>444.0</ele>
        <time>2017-05-27T10:14:57.515Z</time>
      </trkpt>
      <trkpt lat="39.91654833" lon="-0.34619167">
        <ele>444.0</ele>
        <time>2017-05-27T10:14:58.500Z</time>
      </trkpt>
      <trkpt lat="39.91661333" lon="-0.34599167">
        <ele>443.0</ele>
        <time>2017-05-27T10:14:59.510Z</time>
      </trkpt>
      <trkpt lat="39.916645" lon="-0.345895">
        <ele>443.0</ele>
        <time>2017-05-27T10:15:00.495Z</time>
      </trkpt>
      <trkpt lat="39.916645" lon="-0.345895">
        <ele>443.0</ele>
        <time>2017-05-27T10:15:01.529Z</time>
      </trkpt>
      <trkpt lat="39.91672167" lon="-0.34570167">
        <ele>442.0</ele>
        <time>2017-05-27T10:15:02.525Z</time>
      </trkpt>
      <trkpt lat="39.91672167" lon="-0.34570167">
        <ele>442.0</ele>
        <time>2017-05-27T10:15:03.492Z</time>
      </trkpt>
      <trkpt lat="39.91681" lon="-0.34551167">
        <ele>441.0</ele>
        <time>2017-05-27T10:15:04.504Z</time>
      </trkpt>
      <trkpt lat="39.91685333" lon="-0.345415">
        <ele>440.0</ele>
        <time>2017-05-27T10:15:05.518Z</time>
      </trkpt>
      <trkpt lat="39.91685333" lon="-0.345415">
        <ele>440.0</ele>
        <time>2017-05-27T10:15:06.503Z</time>
      </trkpt>
      <trkpt lat="39.91694167" lon="-0.34521667">
        <ele>439.0</ele>
        <time>2017-05-27T10:15:07.507Z</time>
      </trkpt>
      <trkpt lat="39.91694167" lon="-0.34521667">
        <ele>439.0</ele>
        <time>2017-05-27T10:15:08.496Z</time>
      </trkpt>
      <trkpt lat="39.91703167" lon="-0.34501667">
        <ele>438.0</ele>
        <time>2017-05-27T10:15:09.520Z</time>
      </trkpt>
      <trkpt lat="39.91703167" lon="-0.34501667">
        <ele>438.0</ele>
        <time>2017-05-27T10:15:10.506Z</time>
      </trkpt>
      <trkpt lat="39.91712" lon="-0.34481">
        <ele>437.0</ele>
        <time>2017-05-27T10:15:11.528Z</time>
      </trkpt>
      <trkpt lat="39.917155" lon="-0.34470167">
        <ele>436.0</ele>
        <time>2017-05-27T10:15:12.511Z</time>
      </trkpt>
      <trkpt lat="39.917155" lon="-0.34470167">
        <ele>436.0</ele>
        <time>2017-05-27T10:15:13.496Z</time>
      </trkpt>
      <trkpt lat="39.91718" lon="-0.34445333">
        <ele>435.0</ele>
        <time>2017-05-27T10:15:14.502Z</time>
      </trkpt>
      <trkpt lat="39.91718" lon="-0.34445333">
        <ele>435.0</ele>
        <time>2017-05-27T10:15:15.528Z</time>
      </trkpt>
      <trkpt lat="39.91716333" lon="-0.34418167">
        <ele>434.0</ele>
        <time>2017-05-27T10:15:16.525Z</time>
      </trkpt>
      <trkpt lat="39.91716333" lon="-0.34418167">
        <ele>434.0</ele>
        <time>2017-05-27T10:15:17.510Z</time>
      </trkpt>
      <trkpt lat="39.91717667" lon="-0.34390667">
        <ele>433.0</ele>
        <time>2017-05-27T10:15:18.509Z</time>
      </trkpt>
      <trkpt lat="39.917185" lon="-0.34377">
        <ele>432.0</ele>
        <time>2017-05-27T10:15:19.518Z</time>
      </trkpt>
      <trkpt lat="39.917185" lon="-0.34377">
        <ele>432.0</ele>
        <time>2017-05-27T10:15:20.502Z</time>
      </trkpt>
      <trkpt lat="39.91716333" lon="-0.34348833">
        <ele>431.0</ele>
        <time>2017-05-27T10:15:21.524Z</time>
      </trkpt>
      <trkpt lat="39.91712333" lon="-0.34336">
        <ele>431.0</ele>
        <time>2017-05-27T10:15:22.493Z</time>
      </trkpt>
      <trkpt lat="39.91712333" lon="-0.34336">
        <ele>431.0</ele>
        <time>2017-05-27T10:15:23.503Z</time>
      </trkpt>
      <trkpt lat="39.91699" lon="-0.343135">
        <ele>430.0</ele>
        <time>2017-05-27T10:15:24.509Z</time>
      </trkpt>
      <trkpt lat="39.91691833" lon="-0.34304">
        <ele>429.0</ele>
        <time>2017-05-27T10:15:25.505Z</time>
      </trkpt>
      <trkpt lat="39.91691833" lon="-0.34304">
        <ele>429.0</ele>
        <time>2017-05-27T10:15:26.496Z</time>
      </trkpt>
      <trkpt lat="39.91680833" lon="-0.34283167">
        <ele>429.0</ele>
        <time>2017-05-27T10:15:27.511Z</time>
      </trkpt>
      <trkpt lat="39.91680833" lon="-0.34283167">
        <ele>429.0</ele>
        <time>2017-05-27T10:15:28.493Z</time>
      </trkpt>
      <trkpt lat="39.916755" lon="-0.342575">
        <ele>428.0</ele>
        <time>2017-05-27T10:15:29.506Z</time>
      </trkpt>
      <trkpt lat="39.916735" lon="-0.34244333">
        <ele>427.0</ele>
        <time>2017-05-27T10:15:30.491Z</time>
      </trkpt>
      <trkpt lat="39.916735" lon="-0.34244333">
        <ele>427.0</ele>
        <time>2017-05-27T10:15:31.495Z</time>
      </trkpt>
      <trkpt lat="39.91669333" lon="-0.34218833">
        <ele>427.0</ele>
        <time>2017-05-27T10:15:32.517Z</time>
      </trkpt>
      <trkpt lat="39.91669333" lon="-0.34218833">
        <ele>427.0</ele>
        <time>2017-05-27T10:15:33.506Z</time>
      </trkpt>
      <trkpt lat="39.91664667" lon="-0.341945">
        <ele>426.0</ele>
        <time>2017-05-27T10:15:34.523Z</time>
      </trkpt>
      <trkpt lat="39.916625" lon="-0.34182167">
        <ele>426.0</ele>
        <time>2017-05-27T10:15:35.530Z</time>
      </trkpt>
      <trkpt lat="39.916625" lon="-0.34182167">
        <ele>426.0</ele>
        <time>2017-05-27T10:15:36.528Z</time>
      </trkpt>
      <trkpt lat="39.91660667" lon="-0.34158167">
        <ele>426.0</ele>
        <time>2017-05-27T10:15:37.502Z</time>
      </trkpt>
      <trkpt lat="39.91660667" lon="-0.34158167">
        <ele>426.0</ele>
        <time>2017-05-27T10:15:38.498Z</time>
      </trkpt>
      <trkpt lat="39.91666667" lon="-0.34136">
        <ele>425.0</ele>
        <time>2017-05-27T10:15:39.522Z</time>
      </trkpt>
      <trkpt lat="39.91666667" lon="-0.34136">
        <ele>425.0</ele>
        <time>2017-05-27T10:15:40.505Z</time>
      </trkpt>
      <trkpt lat="39.91681333" lon="-0.34120333">
        <ele>425.0</ele>
        <time>2017-05-27T10:15:41.522Z</time>
      </trkpt>
      <trkpt lat="39.91681333" lon="-0.34120333">
        <ele>425.0</ele>
        <time>2017-05-27T10:15:42.505Z</time>
      </trkpt>
      <trkpt lat="39.91700833" lon="-0.34114667">
        <ele>424.0</ele>
        <time>2017-05-27T10:15:43.520Z</time>
      </trkpt>
      <trkpt lat="39.91711167" lon="-0.34113833">
        <ele>423.0</ele>
        <time>2017-05-27T10:15:44.529Z</time>
      </trkpt>
      <trkpt lat="39.91711167" lon="-0.34113833">
        <ele>423.0</ele>
        <time>2017-05-27T10:15:45.493Z</time>
      </trkpt>
      <trkpt lat="39.917295" lon="-0.34109833">
        <ele>422.0</ele>
        <time>2017-05-27T10:15:46.512Z</time>
      </trkpt>
      <trkpt lat="39.917295" lon="-0.34109833">
        <ele>422.0</ele>
        <time>2017-05-27T10:15:47.495Z</time>
      </trkpt>
      <trkpt lat="39.91742167" lon="-0.34092">
        <ele>420.0</ele>
        <time>2017-05-27T10:15:48.509Z</time>
      </trkpt>
      <trkpt lat="39.91742167" lon="-0.34092">
        <ele>420.0</ele>
        <time>2017-05-27T10:15:49.495Z</time>
      </trkpt>
      <trkpt lat="39.917445" lon="-0.34066833">
        <ele>420.0</ele>
        <time>2017-05-27T10:15:50.501Z</time>
      </trkpt>
      <trkpt lat="39.917445" lon="-0.34066833">
        <ele>420.0</ele>
        <time>2017-05-27T10:15:51.530Z</time>
      </trkpt>
      <trkpt lat="39.91746" lon="-0.340415">
        <ele>418.0</ele>
        <time>2017-05-27T10:15:52.516Z</time>
      </trkpt>
      <trkpt lat="39.91749833" lon="-0.340305">
        <ele>417.0</ele>
        <time>2017-05-27T10:15:53.526Z</time>
      </trkpt>
      <trkpt lat="39.91756333" lon="-0.340215">
        <ele>417.0</ele>
        <time>2017-05-27T10:15:54.492Z</time>
      </trkpt>
      <trkpt lat="39.91756333" lon="-0.340215">
        <ele>417.0</ele>
        <time>2017-05-27T10:15:55.494Z</time>
      </trkpt>
      <trkpt lat="39.91773333" lon="-0.34012333">
        <ele>416.0</ele>
        <time>2017-05-27T10:15:56.513Z</time>
      </trkpt>
      <trkpt lat="39.91773333" lon="-0.34012333">
        <ele>416.0</ele>
        <time>2017-05-27T10:15:57.520Z</time>
      </trkpt>
      <trkpt lat="39.91791833" lon="-0.34013333">
        <ele>415.0</ele>
        <time>2017-05-27T10:15:58.526Z</time>
      </trkpt>
      <trkpt lat="39.91800333" lon="-0.340165">
        <ele>414.0</ele>
        <time>2017-05-27T10:15:59.492Z</time>
      </trkpt>
      <trkpt lat="39.91800333" lon="-0.340165">
        <ele>414.0</ele>
        <time>2017-05-27T10:16:00.525Z</time>
      </trkpt>
      <trkpt lat="39.91815833" lon="-0.34020333">
        <ele>413.0</ele>
        <time>2017-05-27T10:16:01.528Z</time>
      </trkpt>
      <trkpt lat="39.91821667" lon="-0.340145">
        <ele>412.0</ele>
        <time>2017-05-27T10:16:02.528Z</time>
      </trkpt>
      <trkpt lat="39.91821667" lon="-0.340145">
        <ele>412.0</ele>
        <time>2017-05-27T10:16:03.493Z</time>
      </trkpt>
      <trkpt lat="39.91826833" lon="-0.33994667">
        <ele>411.0</ele>
        <time>2017-05-27T10:16:04.512Z</time>
      </trkpt>
      <trkpt lat="39.91826833" lon="-0.33994667">
        <ele>411.0</ele>
        <time>2017-05-27T10:16:05.493Z</time>
      </trkpt>
      <trkpt lat="39.918285" lon="-0.33972833">
        <ele>410.0</ele>
        <time>2017-05-27T10:16:06.515Z</time>
      </trkpt>
      <trkpt lat="39.91830167" lon="-0.33963333">
        <ele>409.0</ele>
        <time>2017-05-27T10:16:07.499Z</time>
      </trkpt>
      <trkpt lat="39.91833333" lon="-0.33953833">
        <ele>408.0</ele>
        <time>2017-05-27T10:16:08.528Z</time>
      </trkpt>
      <trkpt lat="39.91833333" lon="-0.33953833">
        <ele>408.0</ele>
        <time>2017-05-27T10:16:09.502Z</time>
      </trkpt>
      <trkpt lat="39.91843" lon="-0.339345">
        <ele>407.0</ele>
        <time>2017-05-27T10:16:10.508Z</time>
      </trkpt>
      <trkpt lat="39.91843" lon="-0.339345">
        <ele>407.0</ele>
        <time>2017-05-27T10:16:11.491Z</time>
      </trkpt>
      <trkpt lat="39.91854833" lon="-0.339175">
        <ele>407.0</ele>
        <time>2017-05-27T10:16:12.526Z</time>
      </trkpt>
      <trkpt lat="39.91854833" lon="-0.339175">
        <ele>407.0</ele>
        <time>2017-05-27T10:16:13.509Z</time>
      </trkpt>
      <trkpt lat="39.91869167" lon="-0.33901333">
        <ele>406.0</ele>
        <time>2017-05-27T10:16:14.514Z</time>
      </trkpt>
      <trkpt lat="39.91869167" lon="-0.33901333">
        <ele>406.0</ele>
        <time>2017-05-27T10:16:15.497Z</time>
      </trkpt>
      <trkpt lat="39.91881667" lon="-0.33882667">
        <ele>405.0</ele>
        <time>2017-05-27T10:16:16.508Z</time>
      </trkpt>
      <trkpt lat="39.91881667" lon="-0.33882667">
        <ele>405.0</ele>
        <time>2017-05-27T10:16:17.494Z</time>
      </trkpt>
      <trkpt lat="39.918895" lon="-0.33857167">
        <ele>404.0</ele>
        <time>2017-05-27T10:16:18.522Z</time>
      </trkpt>
      <trkpt lat="39.918895" lon="-0.33857167">
        <ele>404.0</ele>
        <time>2017-05-27T10:16:19.511Z</time>
      </trkpt>
      <trkpt lat="39.91889667" lon="-0.33830833">
        <ele>404.0</ele>
        <time>2017-05-27T10:16:20.518Z</time>
      </trkpt>
      <trkpt lat="39.91889667" lon="-0.33830833">
        <ele>404.0</ele>
        <time>2017-05-27T10:16:21.501Z</time>
      </trkpt>
      <trkpt lat="39.91890667" lon="-0.338055">
        <ele>403.0</ele>
        <time>2017-05-27T10:16:22.509Z</time>
      </trkpt>
      <trkpt lat="39.91890667" lon="-0.338055">
        <ele>403.0</ele>
        <time>2017-05-27T10:16:23.516Z</time>
      </trkpt>
      <trkpt lat="39.91896" lon="-0.33781167">
        <ele>403.0</ele>
        <time>2017-05-27T10:16:24.509Z</time>
      </trkpt>
      <trkpt lat="39.91900333" lon="-0.33769833">
        <ele>403.0</ele>
        <time>2017-05-27T10:16:25.526Z</time>
      </trkpt>
      <trkpt lat="39.91905333" lon="-0.33758833">
        <ele>403.0</ele>
        <time>2017-05-27T10:16:26.503Z</time>
      </trkpt>
      <trkpt lat="39.91905333" lon="-0.33758833">
        <ele>403.0</ele>
        <time>2017-05-27T10:16:27.509Z</time>
      </trkpt>
      <trkpt lat="39.91916333" lon="-0.33738333">
        <ele>403.0</ele>
        <time>2017-05-27T10:16:28.498Z</time>
      </trkpt>
      <trkpt lat="39.91916333" lon="-0.33738333">
        <ele>403.0</ele>
        <time>2017-05-27T10:16:29.504Z</time>
      </trkpt>
      <trkpt lat="39.919275" lon="-0.33717833">
        <ele>402.0</ele>
        <time>2017-05-27T10:16:30.520Z</time>
      </trkpt>
      <trkpt lat="39.919275" lon="-0.33717833">
        <ele>402.0</ele>
        <time>2017-05-27T10:16:31.527Z</time>
      </trkpt>
      <trkpt lat="39.919385" lon="-0.33697">
        <ele>401.0</ele>
        <time>2017-05-27T10:16:32.514Z</time>
      </trkpt>
      <trkpt lat="39.919385" lon="-0.33697">
        <ele>401.0</ele>
        <time>2017-05-27T10:16:33.522Z</time>
      </trkpt>
      <trkpt lat="39.919495" lon="-0.33676">
        <ele>400.0</ele>
        <time>2017-05-27T10:16:34.498Z</time>
      </trkpt>
      <trkpt lat="39.919495" lon="-0.33676">
        <ele>400.0</ele>
        <time>2017-05-27T10:16:35.506Z</time>
      </trkpt>
      <trkpt lat="39.919605" lon="-0.33653833">
        <ele>400.0</ele>
        <time>2017-05-27T10:16:36.530Z</time>
      </trkpt>
      <trkpt lat="39.919605" lon="-0.33653833">
        <ele>400.0</ele>
        <time>2017-05-27T10:16:37.502Z</time>
      </trkpt>
      <trkpt lat="39.91969833" lon="-0.33630333">
        <ele>399.0</ele>
        <time>2017-05-27T10:16:38.526Z</time>
      </trkpt>
      <trkpt lat="39.91969833" lon="-0.33630333">
        <ele>399.0</ele>
        <time>2017-05-27T10:16:39.514Z</time>
      </trkpt>
      <trkpt lat="39.91974" lon="-0.33603333">
        <ele>398.0</ele>
        <time>2017-05-27T10:16:40.495Z</time>
      </trkpt>
      <trkpt lat="39.91974" lon="-0.33603333">
        <ele>398.0</ele>
        <time>2017-05-27T10:16:41.502Z</time>
      </trkpt>
      <trkpt lat="39.91975333" lon="-0.33575">
        <ele>398.0</ele>
        <time>2017-05-27T10:16:42.525Z</time>
      </trkpt>
      <trkpt lat="39.91975333" lon="-0.33575">
        <ele>398.0</ele>
        <time>2017-05-27T10:16:43.499Z</time>
      </trkpt>
      <trkpt lat="39.91976667" lon="-0.33546667">
        <ele>397.0</ele>
        <time>2017-05-27T10:16:44.529Z</time>
      </trkpt>
      <trkpt lat="39.919775" lon="-0.33533">
        <ele>397.0</ele>
        <time>2017-05-27T10:16:45.528Z</time>
      </trkpt>
      <trkpt lat="39.919775" lon="-0.33533">
        <ele>397.0</ele>
        <time>2017-05-27T10:16:46.494Z</time>
      </trkpt>
      <trkpt lat="39.919795" lon="-0.33507833">
        <ele>396.0</ele>
        <time>2017-05-27T10:16:47.524Z</time>
      </trkpt>
      <trkpt lat="39.919795" lon="-0.33507833">
        <ele>396.0</ele>
        <time>2017-05-27T10:16:48.493Z</time>
      </trkpt>
      <trkpt lat="39.91986333" lon="-0.33486">
        <ele>395.0</ele>
        <time>2017-05-27T10:16:49.518Z</time>
      </trkpt>
      <trkpt lat="39.91992833" lon="-0.334775">
        <ele>395.0</ele>
        <time>2017-05-27T10:16:50.494Z</time>
      </trkpt>
      <trkpt lat="39.91992833" lon="-0.334775">
        <ele>395.0</ele>
        <time>2017-05-27T10:16:51.503Z</time>
      </trkpt>
      <trkpt lat="39.92010333" lon="-0.33469167">
        <ele>395.0</ele>
        <time>2017-05-27T10:16:52.495Z</time>
      </trkpt>
      <trkpt lat="39.9202" lon="-0.33469">
        <ele>394.0</ele>
        <time>2017-05-27T10:16:53.519Z</time>
      </trkpt>
      <trkpt lat="39.92029833" lon="-0.33470667">
        <ele>394.0</ele>
        <time>2017-05-27T10:16:54.529Z</time>
      </trkpt>
      <trkpt lat="39.92029833" lon="-0.33470667">
        <ele>394.0</ele>
        <time>2017-05-27T10:16:55.497Z</time>
      </trkpt>
      <trkpt lat="39.92049833" lon="-0.33477">
        <ele>392.0</ele>
        <time>2017-05-27T10:16:56.514Z</time>
      </trkpt>
      <trkpt lat="39.92049833" lon="-0.33477">
        <ele>392.0</ele>
        <time>2017-05-27T10:16:57.523Z</time>
      </trkpt>
      <trkpt lat="39.92070167" lon="-0.334855">
        <ele>391.0</ele>
        <time>2017-05-27T10:16:58.528Z</time>
      </trkpt>
      <trkpt lat="39.92081167" lon="-0.334885">
        <ele>390.0</ele>
        <time>2017-05-27T10:16:59.502Z</time>
      </trkpt>
      <trkpt lat="39.92081167" lon="-0.334885">
        <ele>390.0</ele>
        <time>2017-05-27T10:17:00.512Z</time>
      </trkpt>
      <trkpt lat="39.921035" lon="-0.33491">
        <ele>389.0</ele>
        <time>2017-05-27T10:17:01.494Z</time>
      </trkpt>
      <trkpt lat="39.921035" lon="-0.33491">
        <ele>389.0</ele>
        <time>2017-05-27T10:17:02.503Z</time>
      </trkpt>
      <trkpt lat="39.92126333" lon="-0.33493833">
        <ele>388.0</ele>
        <time>2017-05-27T10:17:03.525Z</time>
      </trkpt>
      <trkpt lat="39.92126333" lon="-0.33493833">
        <ele>388.0</ele>
        <time>2017-05-27T10:17:04.524Z</time>
      </trkpt>
      <trkpt lat="39.92149667" lon="-0.334965">
        <ele>387.0</ele>
        <time>2017-05-27T10:17:05.506Z</time>
      </trkpt>
      <trkpt lat="39.92161" lon="-0.334985">
        <ele>387.0</ele>
        <time>2017-05-27T10:17:06.516Z</time>
      </trkpt>
      <trkpt lat="39.92161" lon="-0.334985">
        <ele>387.0</ele>
        <time>2017-05-27T10:17:07.525Z</time>
      </trkpt>
      <trkpt lat="39.92183667" lon="-0.33505167">
        <ele>386.0</ele>
        <time>2017-05-27T10:17:08.509Z</time>
      </trkpt>
      <trkpt lat="39.92183667" lon="-0.33505167">
        <ele>386.0</ele>
        <time>2017-05-27T10:17:09.521Z</time>
      </trkpt>
      <trkpt lat="39.92206" lon="-0.33515">
        <ele>385.0</ele>
        <time>2017-05-27T10:17:10.500Z</time>
      </trkpt>
      <trkpt lat="39.92217333" lon="-0.33519833">
        <ele>384.0</ele>
        <time>2017-05-27T10:17:11.520Z</time>
      </trkpt>
      <trkpt lat="39.92227833" lon="-0.335235">
        <ele>384.0</ele>
        <time>2017-05-27T10:17:12.529Z</time>
      </trkpt>
      <trkpt lat="39.92227833" lon="-0.335235">
        <ele>384.0</ele>
        <time>2017-05-27T10:17:13.497Z</time>
      </trkpt>
      <trkpt lat="39.92249167" lon="-0.33522">
        <ele>383.0</ele>
        <time>2017-05-27T10:17:14.511Z</time>
      </trkpt>
      <trkpt lat="39.92249167" lon="-0.33522">
        <ele>383.0</ele>
        <time>2017-05-27T10:17:15.522Z</time>
      </trkpt>
      <trkpt lat="39.92268" lon="-0.33519667">
        <ele>382.0</ele>
        <time>2017-05-27T10:17:16.502Z</time>
      </trkpt>
      <trkpt lat="39.92277333" lon="-0.33523167">
        <ele>381.0</ele>
        <time>2017-05-27T10:17:17.527Z</time>
      </trkpt>
      <trkpt lat="39.92277333" lon="-0.33523167">
        <ele>381.0</ele>
        <time>2017-05-27T10:17:18.496Z</time>
      </trkpt>
      <trkpt lat="39.922945" lon="-0.335395">
        <ele>380.0</ele>
        <time>2017-05-27T10:17:19.518Z</time>
      </trkpt>
      <trkpt lat="39.922945" lon="-0.335395">
        <ele>380.0</ele>
        <time>2017-05-27T10:17:20.525Z</time>
      </trkpt>
      <trkpt lat="39.92306667" lon="-0.33563">
        <ele>378.0</ele>
        <time>2017-05-27T10:17:21.504Z</time>
      </trkpt>
      <trkpt lat="39.92311667" lon="-0.33576167">
        <ele>378.0</ele>
        <time>2017-05-27T10:17:22.523Z</time>
      </trkpt>
      <trkpt lat="39.92311667" lon="-0.33576167">
        <ele>378.0</ele>
        <time>2017-05-27T10:17:23.492Z</time>
      </trkpt>
      <trkpt lat="39.92320333" lon="-0.336035">
        <ele>377.0</ele>
        <time>2017-05-27T10:17:24.522Z</time>
      </trkpt>
      <trkpt lat="39.92320333" lon="-0.336035">
        <ele>377.0</ele>
        <time>2017-05-27T10:17:25.529Z</time>
      </trkpt>
      <trkpt lat="39.92332333" lon="-0.33630167">
        <ele>375.0</ele>
        <time>2017-05-27T10:17:26.508Z</time>
      </trkpt>
      <trkpt lat="39.92332333" lon="-0.33630167">
        <ele>375.0</ele>
        <time>2017-05-27T10:17:27.515Z</time>
      </trkpt>
      <trkpt lat="39.923485" lon="-0.33653">
        <ele>374.0</ele>
        <time>2017-05-27T10:17:28.530Z</time>
      </trkpt>
      <trkpt lat="39.923485" lon="-0.33653">
        <ele>374.0</ele>
        <time>2017-05-27T10:17:29.497Z</time>
      </trkpt>
      <trkpt lat="39.92369333" lon="-0.33669833">
        <ele>373.0</ele>
        <time>2017-05-27T10:17:30.518Z</time>
      </trkpt>
      <trkpt lat="39.923805" lon="-0.33677">
        <ele>373.0</ele>
        <time>2017-05-27T10:17:31.502Z</time>
      </trkpt>
      <trkpt lat="39.923805" lon="-0.33677">
        <ele>373.0</ele>
        <time>2017-05-27T10:17:32.509Z</time>
      </trkpt>
      <trkpt lat="39.92403833" lon="-0.33688667">
        <ele>372.0</ele>
        <time>2017-05-27T10:17:33.524Z</time>
      </trkpt>
      <trkpt lat="39.92416667" lon="-0.33692">
        <ele>372.0</ele>
        <time>2017-05-27T10:17:34.496Z</time>
      </trkpt>
      <trkpt lat="39.92416667" lon="-0.33692">
        <ele>372.0</ele>
        <time>2017-05-27T10:17:35.503Z</time>
      </trkpt>
      <trkpt lat="39.92443167" lon="-0.33692333">
        <ele>371.0</ele>
        <time>2017-05-27T10:17:36.494Z</time>
      </trkpt>
      <trkpt lat="39.92443167" lon="-0.33692333">
        <ele>371.0</ele>
        <time>2017-05-27T10:17:37.501Z</time>
      </trkpt>
      <trkpt lat="39.92468" lon="-0.33688667">
        <ele>370.0</ele>
        <time>2017-05-27T10:17:38.520Z</time>
      </trkpt>
      <trkpt lat="39.92468" lon="-0.33688667">
        <ele>370.0</ele>
        <time>2017-05-27T10:17:39.504Z</time>
      </trkpt>
      <trkpt lat="39.92491667" lon="-0.33685333">
        <ele>369.0</ele>
        <time>2017-05-27T10:17:40.491Z</time>
      </trkpt>
      <trkpt lat="39.92491667" lon="-0.33685333">
        <ele>369.0</ele>
        <time>2017-05-27T10:17:41.498Z</time>
      </trkpt>
      <trkpt lat="39.92515" lon="-0.336845">
        <ele>368.0</ele>
        <time>2017-05-27T10:17:42.510Z</time>
      </trkpt>
      <trkpt lat="39.92515" lon="-0.336845">
        <ele>368.0</ele>
        <time>2017-05-27T10:17:43.495Z</time>
      </trkpt>
      <trkpt lat="39.92537167" lon="-0.33693">
        <ele>366.0</ele>
        <time>2017-05-27T10:17:44.520Z</time>
      </trkpt>
      <trkpt lat="39.92537167" lon="-0.33693">
        <ele>366.0</ele>
        <time>2017-05-27T10:17:45.527Z</time>
      </trkpt>
      <trkpt lat="39.92557333" lon="-0.33708333">
        <ele>365.0</ele>
        <time>2017-05-27T10:17:46.500Z</time>
      </trkpt>
      <trkpt lat="39.92567333" lon="-0.337155">
        <ele>365.0</ele>
        <time>2017-05-27T10:17:47.529Z</time>
      </trkpt>
      <trkpt lat="39.92567333" lon="-0.337155">
        <ele>365.0</ele>
        <time>2017-05-27T10:17:48.496Z</time>
      </trkpt>
      <trkpt lat="39.92588167" lon="-0.33730333">
        <ele>363.0</ele>
        <time>2017-05-27T10:17:49.516Z</time>
      </trkpt>
      <trkpt lat="39.92598833" lon="-0.33737667">
        <ele>362.0</ele>
        <time>2017-05-27T10:17:50.512Z</time>
      </trkpt>
      <trkpt lat="39.92598833" lon="-0.33737667">
        <ele>362.0</ele>
        <time>2017-05-27T10:17:51.520Z</time>
      </trkpt>
      <trkpt lat="39.92619" lon="-0.33752333">
        <ele>361.0</ele>
        <time>2017-05-27T10:17:52.501Z</time>
      </trkpt>
      <trkpt lat="39.92628667" lon="-0.337595">
        <ele>361.0</ele>
        <time>2017-05-27T10:17:53.511Z</time>
      </trkpt>
      <trkpt lat="39.92628667" lon="-0.337595">
        <ele>361.0</ele>
        <time>2017-05-27T10:17:54.518Z</time>
      </trkpt>
      <trkpt lat="39.92648" lon="-0.337735">
        <ele>359.0</ele>
        <time>2017-05-27T10:17:55.518Z</time>
      </trkpt>
      <trkpt lat="39.92648" lon="-0.337735">
        <ele>359.0</ele>
        <time>2017-05-27T10:17:56.525Z</time>
      </trkpt>
      <trkpt lat="39.92666833" lon="-0.337875">
        <ele>358.0</ele>
        <time>2017-05-27T10:17:57.507Z</time>
      </trkpt>
      <trkpt lat="39.92666833" lon="-0.337875">
        <ele>358.0</ele>
        <time>2017-05-27T10:17:58.513Z</time>
      </trkpt>
      <trkpt lat="39.92686167" lon="-0.33801">
        <ele>357.0</ele>
        <time>2017-05-27T10:17:59.527Z</time>
      </trkpt>
      <trkpt lat="39.92695333" lon="-0.33807833">
        <ele>357.0</ele>
        <time>2017-05-27T10:18:00.494Z</time>
      </trkpt>
      <trkpt lat="39.92695333" lon="-0.33807833">
        <ele>357.0</ele>
        <time>2017-05-27T10:18:01.500Z</time>
      </trkpt>
      <trkpt lat="39.92712333" lon="-0.33824833">
        <ele>355.0</ele>
        <time>2017-05-27T10:18:02.529Z</time>
      </trkpt>
      <trkpt lat="39.92712333" lon="-0.33824833">
        <ele>355.0</ele>
        <time>2017-05-27T10:18:03.496Z</time>
      </trkpt>
      <trkpt lat="39.92724" lon="-0.33848333">
        <ele>353.0</ele>
        <time>2017-05-27T10:18:04.493Z</time>
      </trkpt>
      <trkpt lat="39.92724" lon="-0.33848333">
        <ele>353.0</ele>
        <time>2017-05-27T10:18:05.499Z</time>
      </trkpt>
      <trkpt lat="39.92735833" lon="-0.33872167">
        <ele>351.0</ele>
        <time>2017-05-27T10:18:06.516Z</time>
      </trkpt>
      <trkpt lat="39.92735833" lon="-0.33872167">
        <ele>351.0</ele>
        <time>2017-05-27T10:18:07.525Z</time>
      </trkpt>
      <trkpt lat="39.92756" lon="-0.33885">
        <ele>349.0</ele>
        <time>2017-05-27T10:18:08.513Z</time>
      </trkpt>
      <trkpt lat="39.92756" lon="-0.33885">
        <ele>349.0</ele>
        <time>2017-05-27T10:18:09.521Z</time>
      </trkpt>
      <trkpt lat="39.927785" lon="-0.33884">
        <ele>349.0</ele>
        <time>2017-05-27T10:18:10.493Z</time>
      </trkpt>
      <trkpt lat="39.92788167" lon="-0.33877833">
        <ele>348.0</ele>
        <time>2017-05-27T10:18:11.528Z</time>
      </trkpt>
      <trkpt lat="39.92788167" lon="-0.33877833">
        <ele>348.0</ele>
        <time>2017-05-27T10:18:12.494Z</time>
      </trkpt>
      <trkpt lat="39.92800167" lon="-0.33856667">
        <ele>347.0</ele>
        <time>2017-05-27T10:18:13.512Z</time>
      </trkpt>
      <trkpt lat="39.928035" lon="-0.33844667">
        <ele>347.0</ele>
        <time>2017-05-27T10:18:14.526Z</time>
      </trkpt>
      <trkpt lat="39.928035" lon="-0.33844667">
        <ele>347.0</ele>
        <time>2017-05-27T10:18:15.492Z</time>
      </trkpt>
      <trkpt lat="39.92808833" lon="-0.33822">
        <ele>346.0</ele>
        <time>2017-05-27T10:18:16.508Z</time>
      </trkpt>
      <trkpt lat="39.92811833" lon="-0.33811167">
        <ele>346.0</ele>
        <time>2017-05-27T10:18:17.530Z</time>
      </trkpt>
      <trkpt lat="39.92811833" lon="-0.33811167">
        <ele>346.0</ele>
        <time>2017-05-27T10:18:18.496Z</time>
      </trkpt>
      <trkpt lat="39.92816833" lon="-0.33789833">
        <ele>345.0</ele>
        <time>2017-05-27T10:18:19.511Z</time>
      </trkpt>
      <trkpt lat="39.92816833" lon="-0.33789833">
        <ele>345.0</ele>
        <time>2017-05-27T10:18:20.523Z</time>
      </trkpt>
      <trkpt lat="39.9282" lon="-0.33768167">
        <ele>344.0</ele>
        <time>2017-05-27T10:18:21.495Z</time>
      </trkpt>
      <trkpt lat="39.9282" lon="-0.33768167">
        <ele>344.0</ele>
        <time>2017-05-27T10:18:22.502Z</time>
      </trkpt>
      <trkpt lat="39.92823167" lon="-0.33747833">
        <ele>343.0</ele>
        <time>2017-05-27T10:18:23.497Z</time>
      </trkpt>
      <trkpt lat="39.92825833" lon="-0.33738333">
        <ele>343.0</ele>
        <time>2017-05-27T10:18:24.503Z</time>
      </trkpt>
      <trkpt lat="39.92825833" lon="-0.33738333">
        <ele>343.0</ele>
        <time>2017-05-27T10:18:25.509Z</time>
      </trkpt>
      <trkpt lat="39.928365" lon="-0.33723">
        <ele>343.0</ele>
        <time>2017-05-27T10:18:26.491Z</time>
      </trkpt>
      <trkpt lat="39.928365" lon="-0.33723">
        <ele>343.0</ele>
        <time>2017-05-27T10:18:27.497Z</time>
      </trkpt>
      <trkpt lat="39.928535" lon="-0.33711333">
        <ele>343.0</ele>
        <time>2017-05-27T10:18:28.512Z</time>
      </trkpt>
      <trkpt lat="39.928535" lon="-0.33711333">
        <ele>343.0</ele>
        <time>2017-05-27T10:18:29.519Z</time>
      </trkpt>
      <trkpt lat="39.92871" lon="-0.33703667">
        <ele>342.0</ele>
        <time>2017-05-27T10:18:30.504Z</time>
      </trkpt>
      <trkpt lat="39.92880167" lon="-0.33700667">
        <ele>342.0</ele>
        <time>2017-05-27T10:18:31.518Z</time>
      </trkpt>
      <trkpt lat="39.92880167" lon="-0.33700667">
        <ele>342.0</ele>
        <time>2017-05-27T10:18:32.524Z</time>
      </trkpt>
      <trkpt lat="39.92898667" lon="-0.336965">
        <ele>341.0</ele>
        <time>2017-05-27T10:18:33.502Z</time>
      </trkpt>
      <trkpt lat="39.92898667" lon="-0.336965">
        <ele>341.0</ele>
        <time>2017-05-27T10:18:34.508Z</time>
      </trkpt>
      <trkpt lat="39.929175" lon="-0.336935">
        <ele>340.0</ele>
        <time>2017-05-27T10:18:35.528Z</time>
      </trkpt>
      <trkpt lat="39.929175" lon="-0.336935">
        <ele>340.0</ele>
        <time>2017-05-27T10:18:36.493Z</time>
      </trkpt>
      <trkpt lat="39.92936833" lon="-0.33689667">
        <ele>340.0</ele>
        <time>2017-05-27T10:18:37.529Z</time>
      </trkpt>
      <trkpt lat="39.92946333" lon="-0.336885">
        <ele>339.0</ele>
        <time>2017-05-27T10:18:38.503Z</time>
      </trkpt>
      <trkpt lat="39.92946333" lon="-0.336885">
        <ele>339.0</ele>
        <time>2017-05-27T10:18:39.522Z</time>
      </trkpt>
      <trkpt lat="39.92967333" lon="-0.33686667">
        <ele>339.0</ele>
        <time>2017-05-27T10:18:40.506Z</time>
      </trkpt>
      <trkpt lat="39.92967333" lon="-0.33686667">
        <ele>339.0</ele>
        <time>2017-05-27T10:18:41.513Z</time>
      </trkpt>
      <trkpt lat="39.92988" lon="-0.33683333">
        <ele>339.0</ele>
        <time>2017-05-27T10:18:42.517Z</time>
      </trkpt>
      <trkpt lat="39.92988" lon="-0.33683333">
        <ele>339.0</ele>
        <time>2017-05-27T10:18:43.525Z</time>
      </trkpt>
      <trkpt lat="39.93009" lon="-0.33681333">
        <ele>338.0</ele>
        <time>2017-05-27T10:18:44.514Z</time>
      </trkpt>
      <trkpt lat="39.93009" lon="-0.33681333">
        <ele>338.0</ele>
        <time>2017-05-27T10:18:45.523Z</time>
      </trkpt>
      <trkpt lat="39.93029333" lon="-0.33681">
        <ele>338.0</ele>
        <time>2017-05-27T10:18:46.492Z</time>
      </trkpt>
      <trkpt lat="39.93038667" lon="-0.33682167">
        <ele>338.0</ele>
        <time>2017-05-27T10:18:47.514Z</time>
      </trkpt>
      <trkpt lat="39.93038667" lon="-0.33682167">
        <ele>338.0</ele>
        <time>2017-05-27T10:18:48.521Z</time>
      </trkpt>
      <trkpt lat="39.93056833" lon="-0.33686833">
        <ele>338.0</ele>
        <time>2017-05-27T10:18:49.504Z</time>
      </trkpt>
      <trkpt lat="39.93065333" lon="-0.33689333">
        <ele>338.0</ele>
        <time>2017-05-27T10:18:50.516Z</time>
      </trkpt>
      <trkpt lat="39.93065333" lon="-0.33689333">
        <ele>338.0</ele>
        <time>2017-05-27T10:18:51.524Z</time>
      </trkpt>
      <trkpt lat="39.93080167" lon="-0.336935">
        <ele>337.0</ele>
        <time>2017-05-27T10:18:52.496Z</time>
      </trkpt>
      <trkpt lat="39.93080167" lon="-0.336935">
        <ele>337.0</ele>
        <time>2017-05-27T10:18:53.502Z</time>
      </trkpt>
      <trkpt lat="39.93094833" lon="-0.33699167">
        <ele>338.0</ele>
        <time>2017-05-27T10:18:54.516Z</time>
      </trkpt>
      <trkpt lat="39.93102333" lon="-0.33704">
        <ele>337.0</ele>
        <time>2017-05-27T10:18:55.492Z</time>
      </trkpt>
      <trkpt lat="39.93102333" lon="-0.33704">
        <ele>337.0</ele>
        <time>2017-05-27T10:18:56.497Z</time>
      </trkpt>
      <trkpt lat="39.931175" lon="-0.33714">
        <ele>338.0</ele>
        <time>2017-05-27T10:18:57.513Z</time>
      </trkpt>
      <trkpt lat="39.93125167" lon="-0.33719167">
        <ele>337.0</ele>
        <time>2017-05-27T10:18:58.491Z</time>
      </trkpt>
      <trkpt lat="39.93125167" lon="-0.33719167">
        <ele>337.0</ele>
        <time>2017-05-27T10:18:59.497Z</time>
      </trkpt>
      <trkpt lat="39.93140667" lon="-0.33729167">
        <ele>337.0</ele>
        <time>2017-05-27T10:19:00.510Z</time>
      </trkpt>
      <trkpt lat="39.93140667" lon="-0.33729167">
        <ele>337.0</ele>
        <time>2017-05-27T10:19:01.516Z</time>
      </trkpt>
      <trkpt lat="39.93155333" lon="-0.33737667">
        <ele>338.0</ele>
        <time>2017-05-27T10:19:02.511Z</time>
      </trkpt>
      <trkpt lat="39.93162833" lon="-0.33741167">
        <ele>338.0</ele>
        <time>2017-05-27T10:19:03.495Z</time>
      </trkpt>
      <trkpt lat="39.93162833" lon="-0.33741167">
        <ele>338.0</ele>
        <time>2017-05-27T10:19:04.501Z</time>
      </trkpt>
      <trkpt lat="39.93178333" lon="-0.33745167">
        <ele>339.0</ele>
        <time>2017-05-27T10:19:05.518Z</time>
      </trkpt>
      <trkpt lat="39.93178333" lon="-0.33745167">
        <ele>339.0</ele>
        <time>2017-05-27T10:19:06.526Z</time>
      </trkpt>
      <trkpt lat="39.93193333" lon="-0.33747333">
        <ele>339.0</ele>
        <time>2017-05-27T10:19:07.493Z</time>
      </trkpt>
      <trkpt lat="39.932005" lon="-0.33748">
        <ele>339.0</ele>
        <time>2017-05-27T10:19:08.518Z</time>
      </trkpt>
      <trkpt lat="39.932005" lon="-0.33748">
        <ele>339.0</ele>
        <time>2017-05-27T10:19:09.503Z</time>
      </trkpt>
      <trkpt lat="39.93214333" lon="-0.3375">
        <ele>339.0</ele>
        <time>2017-05-27T10:19:10.510Z</time>
      </trkpt>
      <trkpt lat="39.93214333" lon="-0.3375">
        <ele>339.0</ele>
        <time>2017-05-27T10:19:11.519Z</time>
      </trkpt>
      <trkpt lat="39.93227333" lon="-0.33751833">
        <ele>340.0</ele>
        <time>2017-05-27T10:19:12.495Z</time>
      </trkpt>
      <trkpt lat="39.932325" lon="-0.33751667">
        <ele>341.0</ele>
        <time>2017-05-27T10:19:13.527Z</time>
      </trkpt>
      <trkpt lat="39.93238" lon="-0.33751333">
        <ele>342.0</ele>
        <time>2017-05-27T10:19:14.491Z</time>
      </trkpt>
      <trkpt lat="39.93238" lon="-0.33751333">
        <ele>342.0</ele>
        <time>2017-05-27T10:19:15.493Z</time>
      </trkpt>
      <trkpt lat="39.93249" lon="-0.33750333">
        <ele>344.0</ele>
        <time>2017-05-27T10:19:16.506Z</time>
      </trkpt>
      <trkpt lat="39.93249" lon="-0.33750333">
        <ele>344.0</ele>
        <time>2017-05-27T10:19:17.530Z</time>
      </trkpt>
      <trkpt lat="39.93260333" lon="-0.33746333">
        <ele>345.0</ele>
        <time>2017-05-27T10:19:18.517Z</time>
      </trkpt>
      <trkpt lat="39.932655" lon="-0.337425">
        <ele>346.0</ele>
        <time>2017-05-27T10:19:19.500Z</time>
      </trkpt>
      <trkpt lat="39.932655" lon="-0.337425">
        <ele>346.0</ele>
        <time>2017-05-27T10:19:20.496Z</time>
      </trkpt>
      <trkpt lat="39.93275333" lon="-0.337345">
        <ele>347.0</ele>
        <time>2017-05-27T10:19:21.508Z</time>
      </trkpt>
      <trkpt lat="39.932805" lon="-0.33729833">
        <ele>347.0</ele>
        <time>2017-05-27T10:19:22.512Z</time>
      </trkpt>
      <trkpt lat="39.932805" lon="-0.33729833">
        <ele>347.0</ele>
        <time>2017-05-27T10:19:23.497Z</time>
      </trkpt>
      <trkpt lat="39.93290667" lon="-0.33719167">
        <ele>347.0</ele>
        <time>2017-05-27T10:19:24.505Z</time>
      </trkpt>
      <trkpt lat="39.932965" lon="-0.33716333">
        <ele>347.0</ele>
        <time>2017-05-27T10:19:25.525Z</time>
      </trkpt>
      <trkpt lat="39.932965" lon="-0.33716333">
        <ele>347.0</ele>
        <time>2017-05-27T10:19:26.515Z</time>
      </trkpt>
      <trkpt lat="39.93307333" lon="-0.33705167">
        <ele>347.0</ele>
        <time>2017-05-27T10:19:27.521Z</time>
      </trkpt>
      <trkpt lat="39.933115" lon="-0.33699">
        <ele>347.0</ele>
        <time>2017-05-27T10:19:28.522Z</time>
      </trkpt>
      <trkpt lat="39.933115" lon="-0.33699">
        <ele>347.0</ele>
        <time>2017-05-27T10:19:29.505Z</time>
      </trkpt>
      <trkpt lat="39.93318333" lon="-0.33687">
        <ele>347.0</ele>
        <time>2017-05-27T10:19:30.508Z</time>
      </trkpt>
      <trkpt lat="39.93321167" lon="-0.33678833">
        <ele>347.0</ele>
        <time>2017-05-27T10:19:31.506Z</time>
      </trkpt>
      <trkpt lat="39.93323333" lon="-0.33671167">
        <ele>348.0</ele>
        <time>2017-05-27T10:19:32.525Z</time>
      </trkpt>
      <trkpt lat="39.93323333" lon="-0.33671167">
        <ele>348.0</ele>
        <time>2017-05-27T10:19:33.507Z</time>
      </trkpt>
      <trkpt lat="39.93326667" lon="-0.33655">
        <ele>348.0</ele>
        <time>2017-05-27T10:19:34.509Z</time>
      </trkpt>
      <trkpt lat="39.93328333" lon="-0.33646">
        <ele>348.0</ele>
        <time>2017-05-27T10:19:35.519Z</time>
      </trkpt>
      <trkpt lat="39.93330167" lon="-0.33637167">
        <ele>349.0</ele>
        <time>2017-05-27T10:19:36.515Z</time>
      </trkpt>
      <trkpt lat="39.93330167" lon="-0.33637167">
        <ele>349.0</ele>
        <time>2017-05-27T10:19:37.497Z</time>
      </trkpt>
      <trkpt lat="39.93337" lon="-0.33621167">
        <ele>349.0</ele>
        <time>2017-05-27T10:19:38.525Z</time>
      </trkpt>
      <trkpt lat="39.93337" lon="-0.33621167">
        <ele>349.0</ele>
        <time>2017-05-27T10:19:39.516Z</time>
      </trkpt>
      <trkpt lat="39.933455" lon="-0.33605833">
        <ele>349.0</ele>
        <time>2017-05-27T10:19:40.495Z</time>
      </trkpt>
      <trkpt lat="39.93350333" lon="-0.33599333">
        <ele>350.0</ele>
        <time>2017-05-27T10:19:41.529Z</time>
      </trkpt>
      <trkpt lat="39.93350333" lon="-0.33599333">
        <ele>350.0</ele>
        <time>2017-05-27T10:19:42.529Z</time>
      </trkpt>
      <trkpt lat="39.93361833" lon="-0.335895">
        <ele>350.0</ele>
        <time>2017-05-27T10:19:43.519Z</time>
      </trkpt>
      <trkpt lat="39.93368333" lon="-0.33585833">
        <ele>350.0</ele>
        <time>2017-05-27T10:19:44.495Z</time>
      </trkpt>
      <trkpt lat="39.93368333" lon="-0.33585833">
        <ele>350.0</ele>
        <time>2017-05-27T10:19:45.492Z</time>
      </trkpt>
      <trkpt lat="39.93381" lon="-0.335795">
        <ele>350.0</ele>
        <time>2017-05-27T10:19:46.512Z</time>
      </trkpt>
      <trkpt lat="39.93381" lon="-0.335795">
        <ele>350.0</ele>
        <time>2017-05-27T10:19:47.495Z</time>
      </trkpt>
      <trkpt lat="39.93393" lon="-0.335755">
        <ele>350.0</ele>
        <time>2017-05-27T10:19:48.509Z</time>
      </trkpt>
      <trkpt lat="39.93399" lon="-0.33574167">
        <ele>350.0</ele>
        <time>2017-05-27T10:19:49.515Z</time>
      </trkpt>
      <trkpt lat="39.93404667" lon="-0.33572333">
        <ele>350.0</ele>
        <time>2017-05-27T10:19:50.512Z</time>
      </trkpt>
      <trkpt lat="39.93404667" lon="-0.33572333">
        <ele>350.0</ele>
        <time>2017-05-27T10:19:51.496Z</time>
      </trkpt>
      <trkpt lat="39.93417167" lon="-0.33569667">
        <ele>349.0</ele>
        <time>2017-05-27T10:19:52.494Z</time>
      </trkpt>
      <trkpt lat="39.93422833" lon="-0.33567833">
        <ele>349.0</ele>
        <time>2017-05-27T10:19:53.525Z</time>
      </trkpt>
      <trkpt lat="39.93422833" lon="-0.33567833">
        <ele>349.0</ele>
        <time>2017-05-27T10:19:54.508Z</time>
      </trkpt>
      <trkpt lat="39.93434333" lon="-0.33564167">
        <ele>348.0</ele>
        <time>2017-05-27T10:19:55.511Z</time>
      </trkpt>
      <trkpt lat="39.93440833" lon="-0.335635">
        <ele>348.0</ele>
        <time>2017-05-27T10:19:56.495Z</time>
      </trkpt>
      <trkpt lat="39.93440833" lon="-0.335635">
        <ele>348.0</ele>
        <time>2017-05-27T10:19:57.525Z</time>
      </trkpt>
      <trkpt lat="39.934515" lon="-0.3356">
        <ele>348.0</ele>
        <time>2017-05-27T10:19:58.493Z</time>
      </trkpt>
      <trkpt lat="39.934515" lon="-0.3356">
        <ele>348.0</ele>
        <time>2017-05-27T10:19:59.492Z</time>
      </trkpt>
      <trkpt lat="39.93464167" lon="-0.33556">
        <ele>348.0</ele>
        <time>2017-05-27T10:20:00.495Z</time>
      </trkpt>
      <trkpt lat="39.93464167" lon="-0.33556">
        <ele>348.0</ele>
        <time>2017-05-27T10:20:01.501Z</time>
      </trkpt>
      <trkpt lat="39.93476" lon="-0.335495">
        <ele>347.0</ele>
        <time>2017-05-27T10:20:02.508Z</time>
      </trkpt>
      <trkpt lat="39.93476" lon="-0.335495">
        <ele>347.0</ele>
        <time>2017-05-27T10:20:03.492Z</time>
      </trkpt>
      <trkpt lat="39.93485667" lon="-0.33540833">
        <ele>346.0</ele>
        <time>2017-05-27T10:20:04.518Z</time>
      </trkpt>
      <trkpt lat="39.93485667" lon="-0.33540833">
        <ele>346.0</ele>
        <time>2017-05-27T10:20:05.504Z</time>
      </trkpt>
      <trkpt lat="39.93493833" lon="-0.33530833">
        <ele>346.0</ele>
        <time>2017-05-27T10:20:06.516Z</time>
      </trkpt>
      <trkpt lat="39.93493833" lon="-0.33530833">
        <ele>346.0</ele>
        <time>2017-05-27T10:20:07.500Z</time>
      </trkpt>
      <trkpt lat="39.93501167" lon="-0.335205">
        <ele>345.0</ele>
        <time>2017-05-27T10:20:08.510Z</time>
      </trkpt>
      <trkpt lat="39.93501167" lon="-0.335205">
        <ele>345.0</ele>
        <time>2017-05-27T10:20:09.493Z</time>
      </trkpt>
      <trkpt lat="39.935075" lon="-0.33510333">
        <ele>345.0</ele>
        <time>2017-05-27T10:20:10.504Z</time>
      </trkpt>
      <trkpt lat="39.935075" lon="-0.33510333">
        <ele>345.0</ele>
        <time>2017-05-27T10:20:11.492Z</time>
      </trkpt>
      <trkpt lat="39.93514167" lon="-0.335">
        <ele>344.0</ele>
        <time>2017-05-27T10:20:12.505Z</time>
      </trkpt>
      <trkpt lat="39.93514167" lon="-0.335">
        <ele>344.0</ele>
        <time>2017-05-27T10:20:13.527Z</time>
      </trkpt>
      <trkpt lat="39.93522833" lon="-0.33492667">
        <ele>344.0</ele>
        <time>2017-05-27T10:20:14.495Z</time>
      </trkpt>
      <trkpt lat="39.93522833" lon="-0.33492667">
        <ele>344.0</ele>
        <time>2017-05-27T10:20:15.501Z</time>
      </trkpt>
      <trkpt lat="39.93532833" lon="-0.33488">
        <ele>344.0</ele>
        <time>2017-05-27T10:20:16.516Z</time>
      </trkpt>
      <trkpt lat="39.93532833" lon="-0.33488">
        <ele>344.0</ele>
        <time>2017-05-27T10:20:17.497Z</time>
      </trkpt>
      <trkpt lat="39.93541" lon="-0.33484667">
        <ele>344.0</ele>
        <time>2017-05-27T10:20:18.491Z</time>
      </trkpt>
      <trkpt lat="39.93545333" lon="-0.334845">
        <ele>344.0</ele>
        <time>2017-05-27T10:20:19.501Z</time>
      </trkpt>
      <trkpt lat="39.93545333" lon="-0.334845">
        <ele>344.0</ele>
        <time>2017-05-27T10:20:20.507Z</time>
      </trkpt>
      <trkpt lat="39.93555667" lon="-0.33486">
        <ele>344.0</ele>
        <time>2017-05-27T10:20:21.514Z</time>
      </trkpt>
      <trkpt lat="39.93555667" lon="-0.33486">
        <ele>344.0</ele>
        <time>2017-05-27T10:20:22.497Z</time>
      </trkpt>
      <trkpt lat="39.93566833" lon="-0.3349">
        <ele>344.0</ele>
        <time>2017-05-27T10:20:23.508Z</time>
      </trkpt>
      <trkpt lat="39.93572333" lon="-0.33492167">
        <ele>344.0</ele>
        <time>2017-05-27T10:20:24.495Z</time>
      </trkpt>
      <trkpt lat="39.93572333" lon="-0.33492167">
        <ele>344.0</ele>
        <time>2017-05-27T10:20:25.501Z</time>
      </trkpt>
      <trkpt lat="39.93583333" lon="-0.33498">
        <ele>344.0</ele>
        <time>2017-05-27T10:20:26.514Z</time>
      </trkpt>
      <trkpt lat="39.93583333" lon="-0.33498">
        <ele>344.0</ele>
        <time>2017-05-27T10:20:27.494Z</time>
      </trkpt>
      <trkpt lat="39.93596" lon="-0.33504167">
        <ele>344.0</ele>
        <time>2017-05-27T10:20:28.501Z</time>
      </trkpt>
      <trkpt lat="39.93596" lon="-0.33504167">
        <ele>344.0</ele>
        <time>2017-05-27T10:20:29.493Z</time>
      </trkpt>
      <trkpt lat="39.93605667" lon="-0.33510833">
        <ele>343.0</ele>
        <time>2017-05-27T10:20:30.519Z</time>
      </trkpt>
      <trkpt lat="39.93605667" lon="-0.33510833">
        <ele>343.0</ele>
        <time>2017-05-27T10:20:31.507Z</time>
      </trkpt>
      <trkpt lat="39.93616" lon="-0.33514167">
        <ele>343.0</ele>
        <time>2017-05-27T10:20:32.525Z</time>
      </trkpt>
      <trkpt lat="39.93616" lon="-0.33514167">
        <ele>343.0</ele>
        <time>2017-05-27T10:20:33.515Z</time>
      </trkpt>
      <trkpt lat="39.93626333" lon="-0.33514">
        <ele>343.0</ele>
        <time>2017-05-27T10:20:34.515Z</time>
      </trkpt>
      <trkpt lat="39.93626333" lon="-0.33514">
        <ele>343.0</ele>
        <time>2017-05-27T10:20:35.497Z</time>
      </trkpt>
      <trkpt lat="39.93635667" lon="-0.335085">
        <ele>343.0</ele>
        <time>2017-05-27T10:20:36.514Z</time>
      </trkpt>
      <trkpt lat="39.93635667" lon="-0.335085">
        <ele>343.0</ele>
        <time>2017-05-27T10:20:37.498Z</time>
      </trkpt>
      <trkpt lat="39.93645167" lon="-0.33501167">
        <ele>343.0</ele>
        <time>2017-05-27T10:20:38.497Z</time>
      </trkpt>
      <trkpt lat="39.93645167" lon="-0.33501167">
        <ele>343.0</ele>
        <time>2017-05-27T10:20:39.493Z</time>
      </trkpt>
      <trkpt lat="39.93654167" lon="-0.33493667">
        <ele>343.0</ele>
        <time>2017-05-27T10:20:40.615Z</time>
      </trkpt>
      <trkpt lat="39.93654167" lon="-0.33493667">
        <ele>343.0</ele>
        <time>2017-05-27T10:20:41.492Z</time>
      </trkpt>
      <trkpt lat="39.93665167" lon="-0.33487333">
        <ele>343.0</ele>
        <time>2017-05-27T10:20:42.508Z</time>
      </trkpt>
      <trkpt lat="39.93671167" lon="-0.334845">
        <ele>342.0</ele>
        <time>2017-05-27T10:20:43.493Z</time>
      </trkpt>
      <trkpt lat="39.93677167" lon="-0.33481667">
        <ele>342.0</ele>
        <time>2017-05-27T10:20:44.509Z</time>
      </trkpt>
      <trkpt lat="39.93677167" lon="-0.33481667">
        <ele>342.0</ele>
        <time>2017-05-27T10:20:45.516Z</time>
      </trkpt>
      <trkpt lat="39.93688833" lon="-0.33475167">
        <ele>342.0</ele>
        <time>2017-05-27T10:20:46.499Z</time>
      </trkpt>
      <trkpt lat="39.93688833" lon="-0.33475167">
        <ele>342.0</ele>
        <time>2017-05-27T10:20:47.522Z</time>
      </trkpt>
      <trkpt lat="39.93700833" lon="-0.33467667">
        <ele>342.0</ele>
        <time>2017-05-27T10:20:48.511Z</time>
      </trkpt>
      <trkpt lat="39.93700833" lon="-0.33467667">
        <ele>342.0</ele>
        <time>2017-05-27T10:20:49.520Z</time>
      </trkpt>
      <trkpt lat="39.93712833" lon="-0.33459167">
        <ele>341.0</ele>
        <time>2017-05-27T10:20:50.495Z</time>
      </trkpt>
      <trkpt lat="39.93712833" lon="-0.33459167">
        <ele>341.0</ele>
        <time>2017-05-27T10:20:51.502Z</time>
      </trkpt>
      <trkpt lat="39.93723167" lon="-0.33448">
        <ele>341.0</ele>
        <time>2017-05-27T10:20:52.518Z</time>
      </trkpt>
      <trkpt lat="39.93723167" lon="-0.33448">
        <ele>341.0</ele>
        <time>2017-05-27T10:20:53.525Z</time>
      </trkpt>
      <trkpt lat="39.93733167" lon="-0.33434333">
        <ele>341.0</ele>
        <time>2017-05-27T10:20:54.506Z</time>
      </trkpt>
      <trkpt lat="39.93733167" lon="-0.33434333">
        <ele>341.0</ele>
        <time>2017-05-27T10:20:55.512Z</time>
      </trkpt>
      <trkpt lat="39.93743167" lon="-0.3342">
        <ele>340.0</ele>
        <time>2017-05-27T10:20:56.528Z</time>
      </trkpt>
      <trkpt lat="39.93743167" lon="-0.3342">
        <ele>340.0</ele>
        <time>2017-05-27T10:20:57.520Z</time>
      </trkpt>
      <trkpt lat="39.93754167" lon="-0.33405">
        <ele>340.0</ele>
        <time>2017-05-27T10:20:58.522Z</time>
      </trkpt>
      <trkpt lat="39.93754167" lon="-0.33405">
        <ele>340.0</ele>
        <time>2017-05-27T10:20:59.528Z</time>
      </trkpt>
      <trkpt lat="39.93763" lon="-0.33389">
        <ele>340.0</ele>
        <time>2017-05-27T10:21:00.509Z</time>
      </trkpt>
      <trkpt lat="39.93765667" lon="-0.33380333">
        <ele>340.0</ele>
        <time>2017-05-27T10:21:01.494Z</time>
      </trkpt>
      <trkpt lat="39.93765667" lon="-0.33380333">
        <ele>340.0</ele>
        <time>2017-05-27T10:21:02.500Z</time>
      </trkpt>
      <trkpt lat="39.93765167" lon="-0.33362">
        <ele>340.0</ele>
        <time>2017-05-27T10:21:03.529Z</time>
      </trkpt>
      <trkpt lat="39.937615" lon="-0.33355">
        <ele>340.0</ele>
        <time>2017-05-27T10:21:04.525Z</time>
      </trkpt>
      <trkpt lat="39.937615" lon="-0.33355">
        <ele>340.0</ele>
        <time>2017-05-27T10:21:05.491Z</time>
      </trkpt>
      <trkpt lat="39.93751667" lon="-0.33344333">
        <ele>340.0</ele>
        <time>2017-05-27T10:21:06.526Z</time>
      </trkpt>
      <trkpt lat="39.93747333" lon="-0.33339167">
        <ele>340.0</ele>
        <time>2017-05-27T10:21:07.507Z</time>
      </trkpt>
      <trkpt lat="39.93747333" lon="-0.33339167">
        <ele>340.0</ele>
        <time>2017-05-27T10:21:08.514Z</time>
      </trkpt>
      <trkpt lat="39.937385" lon="-0.33328">
        <ele>340.0</ele>
        <time>2017-05-27T10:21:09.506Z</time>
      </trkpt>
      <trkpt lat="39.937385" lon="-0.33328">
        <ele>340.0</ele>
        <time>2017-05-27T10:21:10.512Z</time>
      </trkpt>
      <trkpt lat="39.93729333" lon="-0.33317167">
        <ele>340.0</ele>
        <time>2017-05-27T10:21:11.495Z</time>
      </trkpt>
      <trkpt lat="39.937255" lon="-0.33311667">
        <ele>340.0</ele>
        <time>2017-05-27T10:21:12.502Z</time>
      </trkpt>
      <trkpt lat="39.937255" lon="-0.33311667">
        <ele>340.0</ele>
        <time>2017-05-27T10:21:13.493Z</time>
      </trkpt>
      <trkpt lat="39.93718167" lon="-0.333005">
        <ele>340.0</ele>
        <time>2017-05-27T10:21:14.514Z</time>
      </trkpt>
      <trkpt lat="39.93718167" lon="-0.333005">
        <ele>340.0</ele>
        <time>2017-05-27T10:21:15.523Z</time>
      </trkpt>
      <trkpt lat="39.93711167" lon="-0.33290667">
        <ele>340.0</ele>
        <time>2017-05-27T10:21:16.497Z</time>
      </trkpt>
      <trkpt lat="39.93708167" lon="-0.33285667">
        <ele>340.0</ele>
        <time>2017-05-27T10:21:17.512Z</time>
      </trkpt>
      <trkpt lat="39.93708167" lon="-0.33285667">
        <ele>340.0</ele>
        <time>2017-05-27T10:21:18.522Z</time>
      </trkpt>
      <trkpt lat="39.937015" lon="-0.33276833">
        <ele>340.0</ele>
        <time>2017-05-27T10:21:19.498Z</time>
      </trkpt>
      <trkpt lat="39.936985" lon="-0.332725">
        <ele>341.0</ele>
        <time>2017-05-27T10:21:20.530Z</time>
      </trkpt>
      <trkpt lat="39.936985" lon="-0.332725">
        <ele>341.0</ele>
        <time>2017-05-27T10:21:21.500Z</time>
      </trkpt>
      <trkpt lat="39.93693667" lon="-0.33263">
        <ele>341.0</ele>
        <time>2017-05-27T10:21:22.515Z</time>
      </trkpt>
      <trkpt lat="39.93693667" lon="-0.33263">
        <ele>341.0</ele>
        <time>2017-05-27T10:21:23.520Z</time>
      </trkpt>
      <trkpt lat="39.93689833" lon="-0.33251833">
        <ele>341.0</ele>
        <time>2017-05-27T10:21:24.496Z</time>
      </trkpt>
      <trkpt lat="39.93689833" lon="-0.33251833">
        <ele>341.0</ele>
        <time>2017-05-27T10:21:25.502Z</time>
      </trkpt>
      <trkpt lat="39.93690333" lon="-0.33238167">
        <ele>341.0</ele>
        <time>2017-05-27T10:21:26.524Z</time>
      </trkpt>
      <trkpt lat="39.93693167" lon="-0.33231667">
        <ele>341.0</ele>
        <time>2017-05-27T10:21:27.506Z</time>
      </trkpt>
      <trkpt lat="39.93693167" lon="-0.33231667">
        <ele>341.0</ele>
        <time>2017-05-27T10:21:28.512Z</time>
      </trkpt>
      <trkpt lat="39.93704333" lon="-0.33220167">
        <ele>341.0</ele>
        <time>2017-05-27T10:21:29.505Z</time>
      </trkpt>
      <trkpt lat="39.93704333" lon="-0.33220167">
        <ele>341.0</ele>
        <time>2017-05-27T10:21:30.511Z</time>
      </trkpt>
      <trkpt lat="39.93716" lon="-0.33207833">
        <ele>340.0</ele>
        <time>2017-05-27T10:21:31.530Z</time>
      </trkpt>
      <trkpt lat="39.93716" lon="-0.33207833">
        <ele>340.0</ele>
        <time>2017-05-27T10:21:32.496Z</time>
      </trkpt>
      <trkpt lat="39.93727" lon="-0.3319">
        <ele>339.0</ele>
        <time>2017-05-27T10:21:33.515Z</time>
      </trkpt>
      <trkpt lat="39.93732" lon="-0.33179667">
        <ele>339.0</ele>
        <time>2017-05-27T10:21:34.526Z</time>
      </trkpt>
      <trkpt lat="39.93732" lon="-0.33179667">
        <ele>339.0</ele>
        <time>2017-05-27T10:21:35.492Z</time>
      </trkpt>
      <trkpt lat="39.93740667" lon="-0.33157667">
        <ele>338.0</ele>
        <time>2017-05-27T10:21:36.513Z</time>
      </trkpt>
      <trkpt lat="39.93740667" lon="-0.33157667">
        <ele>338.0</ele>
        <time>2017-05-27T10:21:37.522Z</time>
      </trkpt>
      <trkpt lat="39.93749333" lon="-0.33133833">
        <ele>337.0</ele>
        <time>2017-05-27T10:21:38.496Z</time>
      </trkpt>
      <trkpt lat="39.93749333" lon="-0.33133833">
        <ele>337.0</ele>
        <time>2017-05-27T10:21:39.522Z</time>
      </trkpt>
      <trkpt lat="39.93754" lon="-0.33108">
        <ele>337.0</ele>
        <time>2017-05-27T10:21:40.510Z</time>
      </trkpt>
      <trkpt lat="39.93754" lon="-0.33108">
        <ele>337.0</ele>
        <time>2017-05-27T10:21:41.518Z</time>
      </trkpt>
      <trkpt lat="39.93753167" lon="-0.33082">
        <ele>336.0</ele>
        <time>2017-05-27T10:21:42.496Z</time>
      </trkpt>
      <trkpt lat="39.93753167" lon="-0.33082">
        <ele>336.0</ele>
        <time>2017-05-27T10:21:43.502Z</time>
      </trkpt>
      <trkpt lat="39.937545" lon="-0.330555">
        <ele>334.0</ele>
        <time>2017-05-27T10:21:44.507Z</time>
      </trkpt>
      <trkpt lat="39.937545" lon="-0.330555">
        <ele>334.0</ele>
        <time>2017-05-27T10:21:45.513Z</time>
      </trkpt>
      <trkpt lat="39.93762" lon="-0.33030833">
        <ele>332.0</ele>
        <time>2017-05-27T10:21:46.493Z</time>
      </trkpt>
      <trkpt lat="39.93768833" lon="-0.33021167">
        <ele>332.0</ele>
        <time>2017-05-27T10:21:47.509Z</time>
      </trkpt>
      <trkpt lat="39.93768833" lon="-0.33021167">
        <ele>332.0</ele>
        <time>2017-05-27T10:21:48.516Z</time>
      </trkpt>
      <trkpt lat="39.93785167" lon="-0.33005333">
        <ele>330.0</ele>
        <time>2017-05-27T10:21:49.513Z</time>
      </trkpt>
      <trkpt lat="39.93794167" lon="-0.33000333">
        <ele>329.0</ele>
        <time>2017-05-27T10:21:50.515Z</time>
      </trkpt>
      <trkpt lat="39.93794167" lon="-0.33000333">
        <ele>329.0</ele>
        <time>2017-05-27T10:21:51.522Z</time>
      </trkpt>
      <trkpt lat="39.93813" lon="-0.32991667">
        <ele>328.0</ele>
        <time>2017-05-27T10:21:52.496Z</time>
      </trkpt>
      <trkpt lat="39.93822833" lon="-0.32988167">
        <ele>327.0</ele>
        <time>2017-05-27T10:21:53.510Z</time>
      </trkpt>
      <trkpt lat="39.93822833" lon="-0.32988167">
        <ele>327.0</ele>
        <time>2017-05-27T10:21:54.516Z</time>
      </trkpt>
      <trkpt lat="39.93843333" lon="-0.329835">
        <ele>326.0</ele>
        <time>2017-05-27T10:21:55.491Z</time>
      </trkpt>
      <trkpt lat="39.93854" lon="-0.329835">
        <ele>325.0</ele>
        <time>2017-05-27T10:21:56.521Z</time>
      </trkpt>
      <trkpt lat="39.93854" lon="-0.329835">
        <ele>325.0</ele>
        <time>2017-05-27T10:21:57.527Z</time>
      </trkpt>
      <trkpt lat="39.938765" lon="-0.32988">
        <ele>323.0</ele>
        <time>2017-05-27T10:21:58.499Z</time>
      </trkpt>
      <trkpt lat="39.93888333" lon="-0.32992167">
        <ele>321.0</ele>
        <time>2017-05-27T10:21:59.515Z</time>
      </trkpt>
      <trkpt lat="39.93888333" lon="-0.32992167">
        <ele>321.0</ele>
        <time>2017-05-27T10:22:00.522Z</time>
      </trkpt>
      <trkpt lat="39.93912167" lon="-0.32999333">
        <ele>319.0</ele>
        <time>2017-05-27T10:22:01.519Z</time>
      </trkpt>
      <trkpt lat="39.939245" lon="-0.32999333">
        <ele>317.0</ele>
        <time>2017-05-27T10:22:02.500Z</time>
      </trkpt>
      <trkpt lat="39.939245" lon="-0.32999333">
        <ele>317.0</ele>
        <time>2017-05-27T10:22:03.505Z</time>
      </trkpt>
      <trkpt lat="39.93948" lon="-0.329875">
        <ele>315.0</ele>
        <time>2017-05-27T10:22:04.494Z</time>
      </trkpt>
      <trkpt lat="39.93948" lon="-0.329875">
        <ele>315.0</ele>
        <time>2017-05-27T10:22:05.499Z</time>
      </trkpt>
      <trkpt lat="39.93968667" lon="-0.32973333">
        <ele>313.0</ele>
        <time>2017-05-27T10:22:06.511Z</time>
      </trkpt>
      <trkpt lat="39.93968667" lon="-0.32973333">
        <ele>313.0</ele>
        <time>2017-05-27T10:22:07.519Z</time>
      </trkpt>
      <trkpt lat="39.93991333" lon="-0.32968">
        <ele>311.0</ele>
        <time>2017-05-27T10:22:08.526Z</time>
      </trkpt>
      <trkpt lat="39.93991333" lon="-0.32968">
        <ele>311.0</ele>
        <time>2017-05-27T10:22:09.492Z</time>
      </trkpt>
      <trkpt lat="39.94012833" lon="-0.32955167">
        <ele>309.0</ele>
        <time>2017-05-27T10:22:10.507Z</time>
      </trkpt>
      <trkpt lat="39.94012833" lon="-0.32955167">
        <ele>309.0</ele>
        <time>2017-05-27T10:22:11.513Z</time>
      </trkpt>
      <trkpt lat="39.940305" lon="-0.32933833">
        <ele>307.0</ele>
        <time>2017-05-27T10:22:12.492Z</time>
      </trkpt>
      <trkpt lat="39.94037167" lon="-0.32920833">
        <ele>306.0</ele>
        <time>2017-05-27T10:22:13.513Z</time>
      </trkpt>
      <trkpt lat="39.94041333" lon="-0.32905833">
        <ele>306.0</ele>
        <time>2017-05-27T10:22:14.530Z</time>
      </trkpt>
      <trkpt lat="39.94041333" lon="-0.32905833">
        <ele>306.0</ele>
        <time>2017-05-27T10:22:15.496Z</time>
      </trkpt>
      <trkpt lat="39.94043167" lon="-0.32876167">
        <ele>305.0</ele>
        <time>2017-05-27T10:22:16.517Z</time>
      </trkpt>
      <trkpt lat="39.94043167" lon="-0.32876167">
        <ele>305.0</ele>
        <time>2017-05-27T10:22:17.523Z</time>
      </trkpt>
      <trkpt lat="39.94046833" lon="-0.32849">
        <ele>303.0</ele>
        <time>2017-05-27T10:22:18.516Z</time>
      </trkpt>
      <trkpt lat="39.94050333" lon="-0.32836333">
        <ele>302.0</ele>
        <time>2017-05-27T10:22:19.530Z</time>
      </trkpt>
      <trkpt lat="39.94055333" lon="-0.32823833">
        <ele>302.0</ele>
        <time>2017-05-27T10:22:20.506Z</time>
      </trkpt>
      <trkpt lat="39.94055333" lon="-0.32823833">
        <ele>302.0</ele>
        <time>2017-05-27T10:22:21.512Z</time>
      </trkpt>
      <trkpt lat="39.94065833" lon="-0.32800167">
        <ele>300.0</ele>
        <time>2017-05-27T10:22:22.529Z</time>
      </trkpt>
      <trkpt lat="39.94065833" lon="-0.32800167">
        <ele>300.0</ele>
        <time>2017-05-27T10:22:23.500Z</time>
      </trkpt>
      <trkpt lat="39.94074833" lon="-0.32775833">
        <ele>299.0</ele>
        <time>2017-05-27T10:22:24.495Z</time>
      </trkpt>
      <trkpt lat="39.94074833" lon="-0.32775833">
        <ele>299.0</ele>
        <time>2017-05-27T10:22:25.500Z</time>
      </trkpt>
      <trkpt lat="39.94080167" lon="-0.327495">
        <ele>298.0</ele>
        <time>2017-05-27T10:22:26.521Z</time>
      </trkpt>
      <trkpt lat="39.94080167" lon="-0.327495">
        <ele>298.0</ele>
        <time>2017-05-27T10:22:27.528Z</time>
      </trkpt>
      <trkpt lat="39.94081167" lon="-0.32723">
        <ele>297.0</ele>
        <time>2017-05-27T10:22:28.520Z</time>
      </trkpt>
      <trkpt lat="39.94078833" lon="-0.32710833">
        <ele>296.0</ele>
        <time>2017-05-27T10:22:29.506Z</time>
      </trkpt>
      <trkpt lat="39.94078833" lon="-0.32710833">
        <ele>296.0</ele>
        <time>2017-05-27T10:22:30.513Z</time>
      </trkpt>
      <trkpt lat="39.94072" lon="-0.326895">
        <ele>296.0</ele>
        <time>2017-05-27T10:22:31.492Z</time>
      </trkpt>
      <trkpt lat="39.94068833" lon="-0.32678833">
        <ele>295.0</ele>
        <time>2017-05-27T10:22:32.522Z</time>
      </trkpt>
      <trkpt lat="39.94068833" lon="-0.32678833">
        <ele>295.0</ele>
        <time>2017-05-27T10:22:33.528Z</time>
      </trkpt>
      <trkpt lat="39.94066167" lon="-0.32656833">
        <ele>295.0</ele>
        <time>2017-05-27T10:22:34.515Z</time>
      </trkpt>
      <trkpt lat="39.94066167" lon="-0.32645833">
        <ele>294.0</ele>
        <time>2017-05-27T10:22:35.506Z</time>
      </trkpt>
      <trkpt lat="39.94066167" lon="-0.32645833">
        <ele>294.0</ele>
        <time>2017-05-27T10:22:36.512Z</time>
      </trkpt>
      <trkpt lat="39.94066167" lon="-0.32623167">
        <ele>294.0</ele>
        <time>2017-05-27T10:22:37.524Z</time>
      </trkpt>
      <trkpt lat="39.94065667" lon="-0.32611167">
        <ele>293.0</ele>
        <time>2017-05-27T10:22:38.499Z</time>
      </trkpt>
      <trkpt lat="39.94065667" lon="-0.32611167">
        <ele>293.0</ele>
        <time>2017-05-27T10:22:39.518Z</time>
      </trkpt>
      <trkpt lat="39.940625" lon="-0.32587667">
        <ele>293.0</ele>
        <time>2017-05-27T10:22:40.498Z</time>
      </trkpt>
      <trkpt lat="39.940625" lon="-0.32587667">
        <ele>293.0</ele>
        <time>2017-05-27T10:22:41.504Z</time>
      </trkpt>
      <trkpt lat="39.94059833" lon="-0.32563333">
        <ele>292.0</ele>
        <time>2017-05-27T10:22:42.525Z</time>
      </trkpt>
      <trkpt lat="39.94059833" lon="-0.32563333">
        <ele>292.0</ele>
        <time>2017-05-27T10:22:43.516Z</time>
      </trkpt>
      <trkpt lat="39.94062167" lon="-0.32538833">
        <ele>291.0</ele>
        <time>2017-05-27T10:22:44.525Z</time>
      </trkpt>
      <trkpt lat="39.94062167" lon="-0.32538833">
        <ele>291.0</ele>
        <time>2017-05-27T10:22:45.492Z</time>
      </trkpt>
      <trkpt lat="39.940715" lon="-0.32515">
        <ele>291.0</ele>
        <time>2017-05-27T10:22:46.509Z</time>
      </trkpt>
      <trkpt lat="39.940765" lon="-0.32502667">
        <ele>290.0</ele>
        <time>2017-05-27T10:22:47.518Z</time>
      </trkpt>
      <trkpt lat="39.940765" lon="-0.32502667">
        <ele>290.0</ele>
        <time>2017-05-27T10:22:48.524Z</time>
      </trkpt>
      <trkpt lat="39.940865" lon="-0.324785">
        <ele>290.0</ele>
        <time>2017-05-27T10:22:49.496Z</time>
      </trkpt>
      <trkpt lat="39.940865" lon="-0.324785">
        <ele>290.0</ele>
        <time>2017-05-27T10:22:50.502Z</time>
      </trkpt>
      <trkpt lat="39.94094833" lon="-0.324535">
        <ele>289.0</ele>
        <time>2017-05-27T10:22:51.518Z</time>
      </trkpt>
      <trkpt lat="39.94098" lon="-0.32439667">
        <ele>289.0</ele>
        <time>2017-05-27T10:22:52.500Z</time>
      </trkpt>
      <trkpt lat="39.94098" lon="-0.32439667">
        <ele>289.0</ele>
        <time>2017-05-27T10:22:53.506Z</time>
      </trkpt>
      <trkpt lat="39.94104333" lon="-0.324095">
        <ele>288.0</ele>
        <time>2017-05-27T10:22:54.526Z</time>
      </trkpt>
      <trkpt lat="39.94106833" lon="-0.32394333">
        <ele>288.0</ele>
        <time>2017-05-27T10:22:55.512Z</time>
      </trkpt>
      <trkpt lat="39.94106833" lon="-0.32394333">
        <ele>288.0</ele>
        <time>2017-05-27T10:22:56.520Z</time>
      </trkpt>
      <trkpt lat="39.94113333" lon="-0.323645">
        <ele>287.0</ele>
        <time>2017-05-27T10:22:57.501Z</time>
      </trkpt>
      <trkpt lat="39.94113333" lon="-0.323645">
        <ele>287.0</ele>
        <time>2017-05-27T10:22:58.507Z</time>
      </trkpt>
      <trkpt lat="39.941215" lon="-0.32335">
        <ele>286.0</ele>
        <time>2017-05-27T10:22:59.520Z</time>
      </trkpt>
      <trkpt lat="39.941255" lon="-0.32320333">
        <ele>285.0</ele>
        <time>2017-05-27T10:23:00.518Z</time>
      </trkpt>
      <trkpt lat="39.94129833" lon="-0.323055">
        <ele>285.0</ele>
        <time>2017-05-27T10:23:01.509Z</time>
      </trkpt>
      <trkpt lat="39.94129833" lon="-0.323055">
        <ele>285.0</ele>
        <time>2017-05-27T10:23:02.515Z</time>
      </trkpt>
      <trkpt lat="39.94139" lon="-0.32274">
        <ele>283.0</ele>
        <time>2017-05-27T10:23:03.527Z</time>
      </trkpt>
      <trkpt lat="39.94143833" lon="-0.32258167">
        <ele>282.0</ele>
        <time>2017-05-27T10:23:04.501Z</time>
      </trkpt>
      <trkpt lat="39.94143833" lon="-0.32258167">
        <ele>282.0</ele>
        <time>2017-05-27T10:23:05.507Z</time>
      </trkpt>
      <trkpt lat="39.94152667" lon="-0.32226333">
        <ele>281.0</ele>
        <time>2017-05-27T10:23:06.499Z</time>
      </trkpt>
      <trkpt lat="39.94152667" lon="-0.32226333">
        <ele>281.0</ele>
        <time>2017-05-27T10:23:07.505Z</time>
      </trkpt>
      <trkpt lat="39.94161667" lon="-0.321955">
        <ele>280.0</ele>
        <time>2017-05-27T10:23:08.495Z</time>
      </trkpt>
      <trkpt lat="39.94161667" lon="-0.321955">
        <ele>280.0</ele>
        <time>2017-05-27T10:23:09.493Z</time>
      </trkpt>
      <trkpt lat="39.94171" lon="-0.32166667">
        <ele>279.0</ele>
        <time>2017-05-27T10:23:10.503Z</time>
      </trkpt>
      <trkpt lat="39.94171" lon="-0.32166667">
        <ele>279.0</ele>
        <time>2017-05-27T10:23:11.509Z</time>
      </trkpt>
      <trkpt lat="39.94179333" lon="-0.32139333">
        <ele>278.0</ele>
        <time>2017-05-27T10:23:12.528Z</time>
      </trkpt>
      <trkpt lat="39.94179333" lon="-0.32139333">
        <ele>278.0</ele>
        <time>2017-05-27T10:23:13.495Z</time>
      </trkpt>
      <trkpt lat="39.94187333" lon="-0.32111833">
        <ele>277.0</ele>
        <time>2017-05-27T10:23:14.508Z</time>
      </trkpt>
      <trkpt lat="39.94187333" lon="-0.32111833">
        <ele>277.0</ele>
        <time>2017-05-27T10:23:15.514Z</time>
      </trkpt>
      <trkpt lat="39.94195333" lon="-0.32086167">
        <ele>277.0</ele>
        <time>2017-05-27T10:23:16.497Z</time>
      </trkpt>
      <trkpt lat="39.94198833" lon="-0.32073">
        <ele>277.0</ele>
        <time>2017-05-27T10:23:17.522Z</time>
      </trkpt>
      <trkpt lat="39.94198833" lon="-0.32073">
        <ele>277.0</ele>
        <time>2017-05-27T10:23:18.528Z</time>
      </trkpt>
      <trkpt lat="39.94205333" lon="-0.32047667">
        <ele>277.0</ele>
        <time>2017-05-27T10:23:19.508Z</time>
      </trkpt>
      <trkpt lat="39.94207833" lon="-0.32035167">
        <ele>276.0</ele>
        <time>2017-05-27T10:23:20.494Z</time>
      </trkpt>
      <trkpt lat="39.94207833" lon="-0.32035167">
        <ele>276.0</ele>
        <time>2017-05-27T10:23:21.500Z</time>
      </trkpt>
      <trkpt lat="39.94210833" lon="-0.32011">
        <ele>276.0</ele>
        <time>2017-05-27T10:23:22.510Z</time>
      </trkpt>
      <trkpt lat="39.942115" lon="-0.31999">
        <ele>276.0</ele>
        <time>2017-05-27T10:23:23.529Z</time>
      </trkpt>
      <trkpt lat="39.942115" lon="-0.31999">
        <ele>276.0</ele>
        <time>2017-05-27T10:23:24.495Z</time>
      </trkpt>
      <trkpt lat="39.94211167" lon="-0.319755">
        <ele>276.0</ele>
        <time>2017-05-27T10:23:25.507Z</time>
      </trkpt>
      <trkpt lat="39.94210167" lon="-0.31964333">
        <ele>275.0</ele>
        <time>2017-05-27T10:23:26.524Z</time>
      </trkpt>
      <trkpt lat="39.94210167" lon="-0.31964333">
        <ele>275.0</ele>
        <time>2017-05-27T10:23:27.530Z</time>
      </trkpt>
      <trkpt lat="39.94207" lon="-0.31941333">
        <ele>275.0</ele>
        <time>2017-05-27T10:23:28.505Z</time>
      </trkpt>
      <trkpt lat="39.94205333" lon="-0.31929833">
        <ele>275.0</ele>
        <time>2017-05-27T10:23:29.499Z</time>
      </trkpt>
      <trkpt lat="39.94205333" lon="-0.31929833">
        <ele>275.0</ele>
        <time>2017-05-27T10:23:30.505Z</time>
      </trkpt>
      <trkpt lat="39.94201833" lon="-0.31906833">
        <ele>275.0</ele>
        <time>2017-05-27T10:23:31.519Z</time>
      </trkpt>
      <trkpt lat="39.94201833" lon="-0.31906833">
        <ele>275.0</ele>
        <time>2017-05-27T10:23:32.526Z</time>
      </trkpt>
      <trkpt lat="39.94199167" lon="-0.31884">
        <ele>275.0</ele>
        <time>2017-05-27T10:23:33.491Z</time>
      </trkpt>
      <trkpt lat="39.94199167" lon="-0.31884">
        <ele>275.0</ele>
        <time>2017-05-27T10:23:34.497Z</time>
      </trkpt>
      <trkpt lat="39.94196167" lon="-0.31861167">
        <ele>274.0</ele>
        <time>2017-05-27T10:23:35.509Z</time>
      </trkpt>
      <trkpt lat="39.94194667" lon="-0.31849667">
        <ele>274.0</ele>
        <time>2017-05-27T10:23:36.518Z</time>
      </trkpt>
      <trkpt lat="39.94194667" lon="-0.31849667">
        <ele>274.0</ele>
        <time>2017-05-27T10:23:37.524Z</time>
      </trkpt>
      <trkpt lat="39.941915" lon="-0.31825333">
        <ele>274.0</ele>
        <time>2017-05-27T10:23:38.505Z</time>
      </trkpt>
      <trkpt lat="39.941915" lon="-0.31825333">
        <ele>274.0</ele>
        <time>2017-05-27T10:23:39.525Z</time>
      </trkpt>
      <trkpt lat="39.941895" lon="-0.31800667">
        <ele>273.0</ele>
        <time>2017-05-27T10:23:40.500Z</time>
      </trkpt>
      <trkpt lat="39.94189333" lon="-0.31789">
        <ele>273.0</ele>
        <time>2017-05-27T10:23:41.493Z</time>
      </trkpt>
      <trkpt lat="39.94189333" lon="-0.31789">
        <ele>273.0</ele>
        <time>2017-05-27T10:23:42.499Z</time>
      </trkpt>
      <trkpt lat="39.94190167" lon="-0.31766833">
        <ele>273.0</ele>
        <time>2017-05-27T10:23:43.516Z</time>
      </trkpt>
      <trkpt lat="39.94191167" lon="-0.31755833">
        <ele>272.0</ele>
        <time>2017-05-27T10:23:44.526Z</time>
      </trkpt>
      <trkpt lat="39.94191167" lon="-0.31755833">
        <ele>272.0</ele>
        <time>2017-05-27T10:23:45.492Z</time>
      </trkpt>
      <trkpt lat="39.94192667" lon="-0.31734">
        <ele>272.0</ele>
        <time>2017-05-27T10:23:46.525Z</time>
      </trkpt>
      <trkpt lat="39.94193" lon="-0.31723">
        <ele>272.0</ele>
        <time>2017-05-27T10:23:47.518Z</time>
      </trkpt>
      <trkpt lat="39.94193" lon="-0.31723">
        <ele>272.0</ele>
        <time>2017-05-27T10:23:48.525Z</time>
      </trkpt>
      <trkpt lat="39.94191833" lon="-0.31700667">
        <ele>271.0</ele>
        <time>2017-05-27T10:23:49.493Z</time>
      </trkpt>
      <trkpt lat="39.94191" lon="-0.31689167">
        <ele>270.0</ele>
        <time>2017-05-27T10:23:50.507Z</time>
      </trkpt>
      <trkpt lat="39.941905" lon="-0.31677333">
        <ele>270.0</ele>
        <time>2017-05-27T10:23:51.526Z</time>
      </trkpt>
      <trkpt lat="39.941905" lon="-0.31677333">
        <ele>270.0</ele>
        <time>2017-05-27T10:23:52.492Z</time>
      </trkpt>
      <trkpt lat="39.94194167" lon="-0.316535">
        <ele>269.0</ele>
        <time>2017-05-27T10:23:53.506Z</time>
      </trkpt>
      <trkpt lat="39.94198667" lon="-0.316425">
        <ele>268.0</ele>
        <time>2017-05-27T10:23:54.493Z</time>
      </trkpt>
      <trkpt lat="39.94198667" lon="-0.316425">
        <ele>268.0</ele>
        <time>2017-05-27T10:23:55.522Z</time>
      </trkpt>
      <trkpt lat="39.942105" lon="-0.31623167">
        <ele>267.0</ele>
        <time>2017-05-27T10:23:56.498Z</time>
      </trkpt>
      <trkpt lat="39.942105" lon="-0.31623167">
        <ele>267.0</ele>
        <time>2017-05-27T10:23:57.504Z</time>
      </trkpt>
      <trkpt lat="39.94223333" lon="-0.316045">
        <ele>266.0</ele>
        <time>2017-05-27T10:23:58.493Z</time>
      </trkpt>
      <trkpt lat="39.9423" lon="-0.31595167">
        <ele>266.0</ele>
        <time>2017-05-27T10:23:59.525Z</time>
      </trkpt>
      <trkpt lat="39.9423" lon="-0.31595167">
        <ele>266.0</ele>
        <time>2017-05-27T10:24:00.491Z</time>
      </trkpt>
      <trkpt lat="39.94243167" lon="-0.31576167">
        <ele>265.0</ele>
        <time>2017-05-27T10:24:01.525Z</time>
      </trkpt>
      <trkpt lat="39.94249667" lon="-0.31567">
        <ele>265.0</ele>
        <time>2017-05-27T10:24:02.523Z</time>
      </trkpt>
      <trkpt lat="39.94249667" lon="-0.31567">
        <ele>265.0</ele>
        <time>2017-05-27T10:24:03.529Z</time>
      </trkpt>
      <trkpt lat="39.94263" lon="-0.315485">
        <ele>264.0</ele>
        <time>2017-05-27T10:24:04.507Z</time>
      </trkpt>
      <trkpt lat="39.94269333" lon="-0.31539167">
        <ele>264.0</ele>
        <time>2017-05-27T10:24:05.529Z</time>
      </trkpt>
      <trkpt lat="39.94269333" lon="-0.31539167">
        <ele>264.0</ele>
        <time>2017-05-27T10:24:06.494Z</time>
      </trkpt>
      <trkpt lat="39.94282" lon="-0.31520833">
        <ele>263.0</ele>
        <time>2017-05-27T10:24:07.509Z</time>
      </trkpt>
      <trkpt lat="39.94288333" lon="-0.31511833">
        <ele>262.0</ele>
        <time>2017-05-27T10:24:08.525Z</time>
      </trkpt>
      <trkpt lat="39.94288333" lon="-0.31511833">
        <ele>262.0</ele>
        <time>2017-05-27T10:24:09.530Z</time>
      </trkpt>
      <trkpt lat="39.943005" lon="-0.31493667">
        <ele>262.0</ele>
        <time>2017-05-27T10:24:10.501Z</time>
      </trkpt>
      <trkpt lat="39.94306667" lon="-0.31485">
        <ele>261.0</ele>
        <time>2017-05-27T10:24:11.524Z</time>
      </trkpt>
      <trkpt lat="39.94306667" lon="-0.31485">
        <ele>261.0</ele>
        <time>2017-05-27T10:24:12.529Z</time>
      </trkpt>
      <trkpt lat="39.94319" lon="-0.31467667">
        <ele>261.0</ele>
        <time>2017-05-27T10:24:13.530Z</time>
      </trkpt>
      <trkpt lat="39.94325333" lon="-0.31459167">
        <ele>261.0</ele>
        <time>2017-05-27T10:24:14.517Z</time>
      </trkpt>
      <trkpt lat="39.94325333" lon="-0.31459167">
        <ele>261.0</ele>
        <time>2017-05-27T10:24:15.525Z</time>
      </trkpt>
      <trkpt lat="39.943375" lon="-0.31442167">
        <ele>261.0</ele>
        <time>2017-05-27T10:24:16.524Z</time>
      </trkpt>
      <trkpt lat="39.94343833" lon="-0.31433833">
        <ele>260.0</ele>
        <time>2017-05-27T10:24:17.509Z</time>
      </trkpt>
      <trkpt lat="39.94343833" lon="-0.31433833">
        <ele>260.0</ele>
        <time>2017-05-27T10:24:18.515Z</time>
      </trkpt>
      <trkpt lat="39.94357" lon="-0.31417833">
        <ele>260.0</ele>
        <time>2017-05-27T10:24:19.518Z</time>
      </trkpt>
      <trkpt lat="39.94364" lon="-0.3141">
        <ele>259.0</ele>
        <time>2017-05-27T10:24:20.521Z</time>
      </trkpt>
      <trkpt lat="39.94364" lon="-0.3141">
        <ele>259.0</ele>
        <time>2017-05-27T10:24:21.527Z</time>
      </trkpt>
      <trkpt lat="39.943785" lon="-0.313955">
        <ele>259.0</ele>
        <time>2017-05-27T10:24:22.505Z</time>
      </trkpt>
      <trkpt lat="39.94385833" lon="-0.31388333">
        <ele>258.0</ele>
        <time>2017-05-27T10:24:23.520Z</time>
      </trkpt>
      <trkpt lat="39.94385833" lon="-0.31388333">
        <ele>258.0</ele>
        <time>2017-05-27T10:24:24.527Z</time>
      </trkpt>
      <trkpt lat="39.944005" lon="-0.31374333">
        <ele>258.0</ele>
        <time>2017-05-27T10:24:25.528Z</time>
      </trkpt>
      <trkpt lat="39.944005" lon="-0.31374333">
        <ele>258.0</ele>
        <time>2017-05-27T10:24:26.494Z</time>
      </trkpt>
      <trkpt lat="39.94414833" lon="-0.31360333">
        <ele>257.0</ele>
        <time>2017-05-27T10:24:27.509Z</time>
      </trkpt>
      <trkpt lat="39.94422167" lon="-0.313535">
        <ele>257.0</ele>
        <time>2017-05-27T10:24:28.507Z</time>
      </trkpt>
      <trkpt lat="39.94422167" lon="-0.313535">
        <ele>257.0</ele>
        <time>2017-05-27T10:24:29.513Z</time>
      </trkpt>
      <trkpt lat="39.944365" lon="-0.31340333">
        <ele>257.0</ele>
        <time>2017-05-27T10:24:30.529Z</time>
      </trkpt>
      <trkpt lat="39.94443667" lon="-0.31334">
        <ele>257.0</ele>
        <time>2017-05-27T10:24:31.530Z</time>
      </trkpt>
      <trkpt lat="39.94443667" lon="-0.31334">
        <ele>257.0</ele>
        <time>2017-05-27T10:24:32.496Z</time>
      </trkpt>
      <trkpt lat="39.94457833" lon="-0.31322333">
        <ele>256.0</ele>
        <time>2017-05-27T10:24:33.496Z</time>
      </trkpt>
      <trkpt lat="39.94457833" lon="-0.31322333">
        <ele>256.0</ele>
        <time>2017-05-27T10:24:34.502Z</time>
      </trkpt>
      <trkpt lat="39.944725" lon="-0.31314333">
        <ele>256.0</ele>
        <time>2017-05-27T10:24:35.518Z</time>
      </trkpt>
      <trkpt lat="39.944725" lon="-0.31314333">
        <ele>256.0</ele>
        <time>2017-05-27T10:24:36.524Z</time>
      </trkpt>
      <trkpt lat="39.944875" lon="-0.31309667">
        <ele>255.0</ele>
        <time>2017-05-27T10:24:37.527Z</time>
      </trkpt>
      <trkpt lat="39.944875" lon="-0.31309667">
        <ele>255.0</ele>
        <time>2017-05-27T10:24:38.493Z</time>
      </trkpt>
      <trkpt lat="39.94503167" lon="-0.31305333">
        <ele>255.0</ele>
        <time>2017-05-27T10:24:39.509Z</time>
      </trkpt>
      <trkpt lat="39.94510667" lon="-0.31303333">
        <ele>255.0</ele>
        <time>2017-05-27T10:24:40.520Z</time>
      </trkpt>
      <trkpt lat="39.94518167" lon="-0.31301167">
        <ele>255.0</ele>
        <time>2017-05-27T10:24:41.501Z</time>
      </trkpt>
      <trkpt lat="39.94518167" lon="-0.31301167">
        <ele>255.0</ele>
        <time>2017-05-27T10:24:42.507Z</time>
      </trkpt>
      <trkpt lat="39.94532667" lon="-0.31297667">
        <ele>255.0</ele>
        <time>2017-05-27T10:24:43.493Z</time>
      </trkpt>
      <trkpt lat="39.945395" lon="-0.312955">
        <ele>255.0</ele>
        <time>2017-05-27T10:24:44.500Z</time>
      </trkpt>
      <trkpt lat="39.945395" lon="-0.312955">
        <ele>255.0</ele>
        <time>2017-05-27T10:24:45.506Z</time>
      </trkpt>
      <trkpt lat="39.94553333" lon="-0.3129">
        <ele>256.0</ele>
        <time>2017-05-27T10:24:46.515Z</time>
      </trkpt>
      <trkpt lat="39.94559667" lon="-0.31285833">
        <ele>256.0</ele>
        <time>2017-05-27T10:24:47.495Z</time>
      </trkpt>
      <trkpt lat="39.94559667" lon="-0.31285833">
        <ele>256.0</ele>
        <time>2017-05-27T10:24:48.501Z</time>
      </trkpt>
      <trkpt lat="39.94570667" lon="-0.31273333">
        <ele>256.0</ele>
        <time>2017-05-27T10:24:49.499Z</time>
      </trkpt>
      <trkpt lat="39.94575333" lon="-0.31265667">
        <ele>256.0</ele>
        <time>2017-05-27T10:24:50.519Z</time>
      </trkpt>
      <trkpt lat="39.94575333" lon="-0.31265667">
        <ele>256.0</ele>
        <time>2017-05-27T10:24:51.527Z</time>
      </trkpt>
      <trkpt lat="39.94582333" lon="-0.31248167">
        <ele>256.0</ele>
        <time>2017-05-27T10:24:52.515Z</time>
      </trkpt>
      <trkpt lat="39.94583333" lon="-0.31237667">
        <ele>255.0</ele>
        <time>2017-05-27T10:24:53.506Z</time>
      </trkpt>
      <trkpt lat="39.94583333" lon="-0.31237667">
        <ele>255.0</ele>
        <time>2017-05-27T10:24:54.512Z</time>
      </trkpt>
      <trkpt lat="39.94580167" lon="-0.31216833">
        <ele>255.0</ele>
        <time>2017-05-27T10:24:55.494Z</time>
      </trkpt>
      <trkpt lat="39.94580167" lon="-0.31216833">
        <ele>255.0</ele>
        <time>2017-05-27T10:24:56.500Z</time>
      </trkpt>
      <trkpt lat="39.94572" lon="-0.31198167">
        <ele>255.0</ele>
        <time>2017-05-27T10:24:57.524Z</time>
      </trkpt>
      <trkpt lat="39.94572" lon="-0.31198167">
        <ele>255.0</ele>
        <time>2017-05-27T10:24:58.530Z</time>
      </trkpt>
      <trkpt lat="39.94558167" lon="-0.31184167">
        <ele>254.0</ele>
        <time>2017-05-27T10:24:59.528Z</time>
      </trkpt>
      <trkpt lat="39.94551333" lon="-0.31177">
        <ele>254.0</ele>
        <time>2017-05-27T10:25:00.512Z</time>
      </trkpt>
      <trkpt lat="39.94551333" lon="-0.31177">
        <ele>254.0</ele>
        <time>2017-05-27T10:25:01.511Z</time>
      </trkpt>
      <trkpt lat="39.94535667" lon="-0.31163833">
        <ele>254.0</ele>
        <time>2017-05-27T10:25:02.496Z</time>
      </trkpt>
      <trkpt lat="39.94535667" lon="-0.31163833">
        <ele>254.0</ele>
        <time>2017-05-27T10:25:03.502Z</time>
      </trkpt>
      <trkpt lat="39.94522" lon="-0.311465">
        <ele>253.0</ele>
        <time>2017-05-27T10:25:04.515Z</time>
      </trkpt>
      <trkpt lat="39.94516" lon="-0.31135833">
        <ele>253.0</ele>
        <time>2017-05-27T10:25:05.504Z</time>
      </trkpt>
      <trkpt lat="39.94511333" lon="-0.31123833">
        <ele>253.0</ele>
        <time>2017-05-27T10:25:06.510Z</time>
      </trkpt>
      <trkpt lat="39.94511333" lon="-0.31123833">
        <ele>253.0</ele>
        <time>2017-05-27T10:25:07.516Z</time>
      </trkpt>
      <trkpt lat="39.945055" lon="-0.310975">
        <ele>252.0</ele>
        <time>2017-05-27T10:25:08.524Z</time>
      </trkpt>
      <trkpt lat="39.945055" lon="-0.310975">
        <ele>252.0</ele>
        <time>2017-05-27T10:25:09.530Z</time>
      </trkpt>
      <trkpt lat="39.94503833" lon="-0.31071167">
        <ele>251.0</ele>
        <time>2017-05-27T10:25:10.512Z</time>
      </trkpt>
      <trkpt lat="39.94503833" lon="-0.31071167">
        <ele>251.0</ele>
        <time>2017-05-27T10:25:11.518Z</time>
      </trkpt>
      <trkpt lat="39.94506667" lon="-0.31045333">
        <ele>250.0</ele>
        <time>2017-05-27T10:25:12.510Z</time>
      </trkpt>
      <trkpt lat="39.94506667" lon="-0.31045333">
        <ele>250.0</ele>
        <time>2017-05-27T10:25:13.516Z</time>
      </trkpt>
      <trkpt lat="39.94512333" lon="-0.31022333">
        <ele>250.0</ele>
        <time>2017-05-27T10:25:14.507Z</time>
      </trkpt>
      <trkpt lat="39.94512333" lon="-0.31022333">
        <ele>250.0</ele>
        <time>2017-05-27T10:25:15.513Z</time>
      </trkpt>
      <trkpt lat="39.94524" lon="-0.31004667">
        <ele>249.0</ele>
        <time>2017-05-27T10:25:16.503Z</time>
      </trkpt>
      <trkpt lat="39.94524" lon="-0.31004667">
        <ele>249.0</ele>
        <time>2017-05-27T10:25:17.510Z</time>
      </trkpt>
      <trkpt lat="39.94539333" lon="-0.30991833">
        <ele>249.0</ele>
        <time>2017-05-27T10:25:18.506Z</time>
      </trkpt>
      <trkpt lat="39.94539333" lon="-0.30991833">
        <ele>249.0</ele>
        <time>2017-05-27T10:25:19.512Z</time>
      </trkpt>
      <trkpt lat="39.94557167" lon="-0.30987333">
        <ele>248.0</ele>
        <time>2017-05-27T10:25:20.497Z</time>
      </trkpt>
      <trkpt lat="39.94557167" lon="-0.30987333">
        <ele>248.0</ele>
        <time>2017-05-27T10:25:21.504Z</time>
      </trkpt>
      <trkpt lat="39.94575167" lon="-0.30985333">
        <ele>248.0</ele>
        <time>2017-05-27T10:25:22.498Z</time>
      </trkpt>
      <trkpt lat="39.94575167" lon="-0.30985333">
        <ele>248.0</ele>
        <time>2017-05-27T10:25:23.505Z</time>
      </trkpt>
      <trkpt lat="39.94592667" lon="-0.30986833">
        <ele>247.0</ele>
        <time>2017-05-27T10:25:24.520Z</time>
      </trkpt>
      <trkpt lat="39.94601167" lon="-0.30989167">
        <ele>246.0</ele>
        <time>2017-05-27T10:25:25.507Z</time>
      </trkpt>
      <trkpt lat="39.94601167" lon="-0.30989167">
        <ele>246.0</ele>
        <time>2017-05-27T10:25:26.513Z</time>
      </trkpt>
      <trkpt lat="39.94615167" lon="-0.30996167">
        <ele>244.0</ele>
        <time>2017-05-27T10:25:27.507Z</time>
      </trkpt>
      <trkpt lat="39.94615167" lon="-0.30996167">
        <ele>244.0</ele>
        <time>2017-05-27T10:25:28.513Z</time>
      </trkpt>
      <trkpt lat="39.946285" lon="-0.31004167">
        <ele>242.0</ele>
        <time>2017-05-27T10:25:29.506Z</time>
      </trkpt>
      <trkpt lat="39.946285" lon="-0.31004167">
        <ele>242.0</ele>
        <time>2017-05-27T10:25:30.512Z</time>
      </trkpt>
      <trkpt lat="39.946415" lon="-0.31009167">
        <ele>241.0</ele>
        <time>2017-05-27T10:25:31.496Z</time>
      </trkpt>
      <trkpt lat="39.94646667" lon="-0.31012167">
        <ele>240.0</ele>
        <time>2017-05-27T10:25:32.531Z</time>
      </trkpt>
      <trkpt lat="39.94646667" lon="-0.31012167">
        <ele>240.0</ele>
        <time>2017-05-27T10:25:33.496Z</time>
      </trkpt>
      <trkpt lat="39.94651167" lon="-0.310255">
        <ele>238.0</ele>
        <time>2017-05-27T10:25:34.517Z</time>
      </trkpt>
      <trkpt lat="39.94651667" lon="-0.31034333">
        <ele>238.0</ele>
        <time>2017-05-27T10:25:35.492Z</time>
      </trkpt>
      <trkpt lat="39.94651667" lon="-0.31034333">
        <ele>238.0</ele>
        <time>2017-05-27T10:25:36.498Z</time>
      </trkpt>
      <trkpt lat="39.94654" lon="-0.31052">
        <ele>238.0</ele>
        <time>2017-05-27T10:25:37.518Z</time>
      </trkpt>
      <trkpt lat="39.94655833" lon="-0.31060333">
        <ele>238.0</ele>
        <time>2017-05-27T10:25:38.504Z</time>
      </trkpt>
      <trkpt lat="39.94655833" lon="-0.31060333">
        <ele>238.0</ele>
        <time>2017-05-27T10:25:39.516Z</time>
      </trkpt>
      <trkpt lat="39.94659667" lon="-0.31077167">
        <ele>237.0</ele>
        <time>2017-05-27T10:25:40.513Z</time>
      </trkpt>
      <trkpt lat="39.94659667" lon="-0.31077167">
        <ele>237.0</ele>
        <time>2017-05-27T10:25:41.522Z</time>
      </trkpt>
      <trkpt lat="39.94664" lon="-0.31093333">
        <ele>237.0</ele>
        <time>2017-05-27T10:25:42.522Z</time>
      </trkpt>
      <trkpt lat="39.94664" lon="-0.31093333">
        <ele>237.0</ele>
        <time>2017-05-27T10:25:43.493Z</time>
      </trkpt>
      <trkpt lat="39.946685" lon="-0.31107833">
        <ele>237.0</ele>
        <time>2017-05-27T10:25:44.508Z</time>
      </trkpt>
      <trkpt lat="39.946715" lon="-0.31114167">
        <ele>237.0</ele>
        <time>2017-05-27T10:25:45.500Z</time>
      </trkpt>
      <trkpt lat="39.946715" lon="-0.31114167">
        <ele>237.0</ele>
        <time>2017-05-27T10:25:46.506Z</time>
      </trkpt>
      <trkpt lat="39.94679333" lon="-0.311255">
        <ele>237.0</ele>
        <time>2017-05-27T10:25:47.524Z</time>
      </trkpt>
      <trkpt lat="39.94679333" lon="-0.311255">
        <ele>237.0</ele>
        <time>2017-05-27T10:25:48.530Z</time>
      </trkpt>
      <trkpt lat="39.94687833" lon="-0.31134333">
        <ele>237.0</ele>
        <time>2017-05-27T10:25:49.513Z</time>
      </trkpt>
      <trkpt lat="39.94687833" lon="-0.31134333">
        <ele>237.0</ele>
        <time>2017-05-27T10:25:50.526Z</time>
      </trkpt>
      <trkpt lat="39.946965" lon="-0.311425">
        <ele>237.0</ele>
        <time>2017-05-27T10:25:51.511Z</time>
      </trkpt>
      <trkpt lat="39.946965" lon="-0.311425">
        <ele>237.0</ele>
        <time>2017-05-27T10:25:52.519Z</time>
      </trkpt>
      <trkpt lat="39.94706667" lon="-0.31151">
        <ele>237.0</ele>
        <time>2017-05-27T10:25:53.510Z</time>
      </trkpt>
      <trkpt lat="39.94706667" lon="-0.31151">
        <ele>237.0</ele>
        <time>2017-05-27T10:25:54.518Z</time>
      </trkpt>
      <trkpt lat="39.94717" lon="-0.31158167">
        <ele>237.0</ele>
        <time>2017-05-27T10:25:55.512Z</time>
      </trkpt>
      <trkpt lat="39.94722" lon="-0.31161667">
        <ele>237.0</ele>
        <time>2017-05-27T10:25:56.509Z</time>
      </trkpt>
      <trkpt lat="39.94722" lon="-0.31161667">
        <ele>237.0</ele>
        <time>2017-05-27T10:25:57.514Z</time>
      </trkpt>
      <trkpt lat="39.94731667" lon="-0.31168667">
        <ele>237.0</ele>
        <time>2017-05-27T10:25:58.495Z</time>
      </trkpt>
      <trkpt lat="39.94731667" lon="-0.31168667">
        <ele>237.0</ele>
        <time>2017-05-27T10:25:59.501Z</time>
      </trkpt>
      <trkpt lat="39.94740833" lon="-0.311755">
        <ele>238.0</ele>
        <time>2017-05-27T10:26:00.530Z</time>
      </trkpt>
      <trkpt lat="39.94740833" lon="-0.311755">
        <ele>238.0</ele>
        <time>2017-05-27T10:26:01.496Z</time>
      </trkpt>
      <trkpt lat="39.94749833" lon="-0.31181833">
        <ele>238.0</ele>
        <time>2017-05-27T10:26:02.519Z</time>
      </trkpt>
      <trkpt lat="39.94749833" lon="-0.31181833">
        <ele>238.0</ele>
        <time>2017-05-27T10:26:03.526Z</time>
      </trkpt>
      <trkpt lat="39.94758167" lon="-0.31187833">
        <ele>238.0</ele>
        <time>2017-05-27T10:26:04.525Z</time>
      </trkpt>
      <trkpt lat="39.94762333" lon="-0.31189833">
        <ele>238.0</ele>
        <time>2017-05-27T10:26:05.507Z</time>
      </trkpt>
      <trkpt lat="39.94762333" lon="-0.31189833">
        <ele>238.0</ele>
        <time>2017-05-27T10:26:06.513Z</time>
      </trkpt>
      <trkpt lat="39.94770333" lon="-0.31192833">
        <ele>238.0</ele>
        <time>2017-05-27T10:26:07.528Z</time>
      </trkpt>
      <trkpt lat="39.94770333" lon="-0.31192833">
        <ele>238.0</ele>
        <time>2017-05-27T10:26:08.495Z</time>
      </trkpt>
      <trkpt lat="39.94778333" lon="-0.31195833">
        <ele>239.0</ele>
        <time>2017-05-27T10:26:09.494Z</time>
      </trkpt>
      <trkpt lat="39.94778333" lon="-0.31195833">
        <ele>239.0</ele>
        <time>2017-05-27T10:26:10.499Z</time>
      </trkpt>
      <trkpt lat="39.94786167" lon="-0.31199167">
        <ele>239.0</ele>
        <time>2017-05-27T10:26:11.514Z</time>
      </trkpt>
      <trkpt lat="39.94786167" lon="-0.31199167">
        <ele>239.0</ele>
        <time>2017-05-27T10:26:12.520Z</time>
      </trkpt>
      <trkpt lat="39.94794333" lon="-0.31202333">
        <ele>240.0</ele>
        <time>2017-05-27T10:26:13.514Z</time>
      </trkpt>
      <trkpt lat="39.94799167" lon="-0.31204">
        <ele>240.0</ele>
        <time>2017-05-27T10:26:14.512Z</time>
      </trkpt>
      <trkpt lat="39.94799167" lon="-0.31204">
        <ele>240.0</ele>
        <time>2017-05-27T10:26:15.519Z</time>
      </trkpt>
      <trkpt lat="39.94809833" lon="-0.31208">
        <ele>240.0</ele>
        <time>2017-05-27T10:26:16.515Z</time>
      </trkpt>
      <trkpt lat="39.94809833" lon="-0.31208">
        <ele>240.0</ele>
        <time>2017-05-27T10:26:17.523Z</time>
      </trkpt>
      <trkpt lat="39.94821167" lon="-0.31211833">
        <ele>240.0</ele>
        <time>2017-05-27T10:26:18.509Z</time>
      </trkpt>
      <trkpt lat="39.94821167" lon="-0.31211833">
        <ele>240.0</ele>
        <time>2017-05-27T10:26:19.515Z</time>
      </trkpt>
      <trkpt lat="39.94831833" lon="-0.31216167">
        <ele>240.0</ele>
        <time>2017-05-27T10:26:20.498Z</time>
      </trkpt>
      <trkpt lat="39.94837" lon="-0.31219">
        <ele>240.0</ele>
        <time>2017-05-27T10:26:21.495Z</time>
      </trkpt>
      <trkpt lat="39.94837" lon="-0.31219">
        <ele>240.0</ele>
        <time>2017-05-27T10:26:22.501Z</time>
      </trkpt>
      <trkpt lat="39.94847167" lon="-0.31225167">
        <ele>240.0</ele>
        <time>2017-05-27T10:26:23.520Z</time>
      </trkpt>
      <trkpt lat="39.94847167" lon="-0.31225167">
        <ele>240.0</ele>
        <time>2017-05-27T10:26:24.527Z</time>
      </trkpt>
      <trkpt lat="39.94856167" lon="-0.31233833">
        <ele>240.0</ele>
        <time>2017-05-27T10:26:25.517Z</time>
      </trkpt>
      <trkpt lat="39.94859667" lon="-0.31239167">
        <ele>240.0</ele>
        <time>2017-05-27T10:26:26.505Z</time>
      </trkpt>
      <trkpt lat="39.94859667" lon="-0.31239167">
        <ele>240.0</ele>
        <time>2017-05-27T10:26:27.511Z</time>
      </trkpt>
      <trkpt lat="39.94864833" lon="-0.31251333">
        <ele>240.0</ele>
        <time>2017-05-27T10:26:28.496Z</time>
      </trkpt>
      <trkpt lat="39.94866" lon="-0.31257833">
        <ele>240.0</ele>
        <time>2017-05-27T10:26:29.521Z</time>
      </trkpt>
      <trkpt lat="39.94866" lon="-0.31257833">
        <ele>240.0</ele>
        <time>2017-05-27T10:26:30.530Z</time>
      </trkpt>
      <trkpt lat="39.948645" lon="-0.31272167">
        <ele>239.0</ele>
        <time>2017-05-27T10:26:31.516Z</time>
      </trkpt>
      <trkpt lat="39.94863167" lon="-0.31279">
        <ele>239.0</ele>
        <time>2017-05-27T10:26:32.509Z</time>
      </trkpt>
      <trkpt lat="39.94863167" lon="-0.31279">
        <ele>239.0</ele>
        <time>2017-05-27T10:26:33.515Z</time>
      </trkpt>
      <trkpt lat="39.948595" lon="-0.31292167">
        <ele>239.0</ele>
        <time>2017-05-27T10:26:34.513Z</time>
      </trkpt>
      <trkpt lat="39.948595" lon="-0.31292167">
        <ele>239.0</ele>
        <time>2017-05-27T10:26:35.519Z</time>
      </trkpt>
      <trkpt lat="39.94854833" lon="-0.313045">
        <ele>239.0</ele>
        <time>2017-05-27T10:26:36.520Z</time>
      </trkpt>
      <trkpt lat="39.94854833" lon="-0.313045">
        <ele>239.0</ele>
        <time>2017-05-27T10:26:37.529Z</time>
      </trkpt>
      <trkpt lat="39.94850667" lon="-0.31316667">
        <ele>239.0</ele>
        <time>2017-05-27T10:26:38.509Z</time>
      </trkpt>
      <trkpt lat="39.94850667" lon="-0.31316667">
        <ele>239.0</ele>
        <time>2017-05-27T10:26:39.530Z</time>
      </trkpt>
      <trkpt lat="39.94845333" lon="-0.31328">
        <ele>238.0</ele>
        <time>2017-05-27T10:26:40.496Z</time>
      </trkpt>
      <trkpt lat="39.94842" lon="-0.313335">
        <ele>238.0</ele>
        <time>2017-05-27T10:26:41.514Z</time>
      </trkpt>
      <trkpt lat="39.94842" lon="-0.313335">
        <ele>238.0</ele>
        <time>2017-05-27T10:26:42.520Z</time>
      </trkpt>
      <trkpt lat="39.94836333" lon="-0.31344833">
        <ele>238.0</ele>
        <time>2017-05-27T10:26:43.512Z</time>
      </trkpt>
      <trkpt lat="39.94836333" lon="-0.31344833">
        <ele>238.0</ele>
        <time>2017-05-27T10:26:44.519Z</time>
      </trkpt>
      <trkpt lat="39.94830167" lon="-0.31355833">
        <ele>238.0</ele>
        <time>2017-05-27T10:26:45.529Z</time>
      </trkpt>
      <trkpt lat="39.94830167" lon="-0.31355833">
        <ele>238.0</ele>
        <time>2017-05-27T10:26:46.495Z</time>
      </trkpt>
      <trkpt lat="39.94824833" lon="-0.313665">
        <ele>239.0</ele>
        <time>2017-05-27T10:26:47.516Z</time>
      </trkpt>
      <trkpt lat="39.94824833" lon="-0.313665">
        <ele>239.0</ele>
        <time>2017-05-27T10:26:48.522Z</time>
      </trkpt>
      <trkpt lat="39.94820167" lon="-0.31376167">
        <ele>239.0</ele>
        <time>2017-05-27T10:26:49.507Z</time>
      </trkpt>
      <trkpt lat="39.94817833" lon="-0.31381167">
        <ele>239.0</ele>
        <time>2017-05-27T10:26:50.527Z</time>
      </trkpt>
      <trkpt lat="39.94817833" lon="-0.31381167">
        <ele>239.0</ele>
        <time>2017-05-27T10:26:51.493Z</time>
      </trkpt>
      <trkpt lat="39.94814" lon="-0.31390667">
        <ele>240.0</ele>
        <time>2017-05-27T10:26:52.520Z</time>
      </trkpt>
      <trkpt lat="39.94814" lon="-0.31390667">
        <ele>240.0</ele>
        <time>2017-05-27T10:26:53.526Z</time>
      </trkpt>
      <trkpt lat="39.9481" lon="-0.314">
        <ele>240.0</ele>
        <time>2017-05-27T10:26:54.506Z</time>
      </trkpt>
      <trkpt lat="39.9481" lon="-0.314">
        <ele>240.0</ele>
        <time>2017-05-27T10:26:55.512Z</time>
      </trkpt>
      <trkpt lat="39.94806167" lon="-0.31408833">
        <ele>241.0</ele>
        <time>2017-05-27T10:26:56.502Z</time>
      </trkpt>
      <trkpt lat="39.94806167" lon="-0.31408833">
        <ele>241.0</ele>
        <time>2017-05-27T10:26:57.508Z</time>
      </trkpt>
      <trkpt lat="39.94802833" lon="-0.31418">
        <ele>241.0</ele>
        <time>2017-05-27T10:26:58.492Z</time>
      </trkpt>
      <trkpt lat="39.94802833" lon="-0.31418">
        <ele>241.0</ele>
        <time>2017-05-27T10:26:59.498Z</time>
      </trkpt>
      <trkpt lat="39.948" lon="-0.31427">
        <ele>242.0</ele>
        <time>2017-05-27T10:27:00.508Z</time>
      </trkpt>
      <trkpt lat="39.948" lon="-0.31427">
        <ele>242.0</ele>
        <time>2017-05-27T10:27:01.515Z</time>
      </trkpt>
      <trkpt lat="39.947975" lon="-0.314355">
        <ele>243.0</ele>
        <time>2017-05-27T10:27:02.495Z</time>
      </trkpt>
      <trkpt lat="39.947975" lon="-0.314355">
        <ele>243.0</ele>
        <time>2017-05-27T10:27:03.501Z</time>
      </trkpt>
      <trkpt lat="39.94796" lon="-0.31445333">
        <ele>243.0</ele>
        <time>2017-05-27T10:27:04.531Z</time>
      </trkpt>
      <trkpt lat="39.947955" lon="-0.3145">
        <ele>243.0</ele>
        <time>2017-05-27T10:27:05.527Z</time>
      </trkpt>
      <trkpt lat="39.94794667" lon="-0.31454667">
        <ele>243.0</ele>
        <time>2017-05-27T10:27:06.492Z</time>
      </trkpt>
      <trkpt lat="39.94793833" lon="-0.31459333">
        <ele>244.0</ele>
        <time>2017-05-27T10:27:07.492Z</time>
      </trkpt>
      <trkpt lat="39.94793" lon="-0.31463833">
        <ele>244.0</ele>
        <time>2017-05-27T10:27:08.515Z</time>
      </trkpt>
      <trkpt lat="39.94793" lon="-0.31463833">
        <ele>244.0</ele>
        <time>2017-05-27T10:27:09.524Z</time>
      </trkpt>
      <trkpt lat="39.94791333" lon="-0.31473167">
        <ele>245.0</ele>
        <time>2017-05-27T10:27:10.512Z</time>
      </trkpt>
      <trkpt lat="39.94791333" lon="-0.31473167">
        <ele>245.0</ele>
        <time>2017-05-27T10:27:11.519Z</time>
      </trkpt>
      <trkpt lat="39.94789667" lon="-0.31482667">
        <ele>246.0</ele>
        <time>2017-05-27T10:27:12.496Z</time>
      </trkpt>
      <trkpt lat="39.94789667" lon="-0.31482667">
        <ele>246.0</ele>
        <time>2017-05-27T10:27:13.502Z</time>
      </trkpt>
      <trkpt lat="39.94788167" lon="-0.31492">
        <ele>246.0</ele>
        <time>2017-05-27T10:27:14.521Z</time>
      </trkpt>
      <trkpt lat="39.94787667" lon="-0.31496667">
        <ele>247.0</ele>
        <time>2017-05-27T10:27:15.500Z</time>
      </trkpt>
      <trkpt lat="39.94787667" lon="-0.31496667">
        <ele>247.0</ele>
        <time>2017-05-27T10:27:16.506Z</time>
      </trkpt>
      <trkpt lat="39.94786333" lon="-0.31505333">
        <ele>247.0</ele>
        <time>2017-05-27T10:27:17.511Z</time>
      </trkpt>
      <trkpt lat="39.94786333" lon="-0.31505333">
        <ele>247.0</ele>
        <time>2017-05-27T10:27:18.518Z</time>
      </trkpt>
      <trkpt lat="39.94784833" lon="-0.31514333">
        <ele>248.0</ele>
        <time>2017-05-27T10:27:19.495Z</time>
      </trkpt>
      <trkpt lat="39.94784333" lon="-0.31518833">
        <ele>248.0</ele>
        <time>2017-05-27T10:27:20.505Z</time>
      </trkpt>
      <trkpt lat="39.94784333" lon="-0.31518833">
        <ele>248.0</ele>
        <time>2017-05-27T10:27:21.511Z</time>
      </trkpt>
      <trkpt lat="39.94783" lon="-0.31527833">
        <ele>248.0</ele>
        <time>2017-05-27T10:27:22.506Z</time>
      </trkpt>
      <trkpt lat="39.94783" lon="-0.31527833">
        <ele>248.0</ele>
        <time>2017-05-27T10:27:23.512Z</time>
      </trkpt>
      <trkpt lat="39.94782167" lon="-0.31536667">
        <ele>249.0</ele>
        <time>2017-05-27T10:27:24.509Z</time>
      </trkpt>
      <trkpt lat="39.94782167" lon="-0.31536667">
        <ele>249.0</ele>
        <time>2017-05-27T10:27:25.515Z</time>
      </trkpt>
      <trkpt lat="39.94779833" lon="-0.31545">
        <ele>249.0</ele>
        <time>2017-05-27T10:27:26.495Z</time>
      </trkpt>
      <trkpt lat="39.94779833" lon="-0.31545">
        <ele>249.0</ele>
        <time>2017-05-27T10:27:27.501Z</time>
      </trkpt>
      <trkpt lat="39.94777667" lon="-0.31553">
        <ele>250.0</ele>
        <time>2017-05-27T10:27:28.497Z</time>
      </trkpt>
      <trkpt lat="39.947765" lon="-0.31557">
        <ele>250.0</ele>
        <time>2017-05-27T10:27:29.517Z</time>
      </trkpt>
      <trkpt lat="39.947765" lon="-0.31557">
        <ele>250.0</ele>
        <time>2017-05-27T10:27:30.523Z</time>
      </trkpt>
      <trkpt lat="39.94773833" lon="-0.31565167">
        <ele>251.0</ele>
        <time>2017-05-27T10:27:31.506Z</time>
      </trkpt>
      <trkpt lat="39.94773833" lon="-0.31565167">
        <ele>251.0</ele>
        <time>2017-05-27T10:27:32.512Z</time>
      </trkpt>
      <trkpt lat="39.947705" lon="-0.31572667">
        <ele>251.0</ele>
        <time>2017-05-27T10:27:33.498Z</time>
      </trkpt>
      <trkpt lat="39.947705" lon="-0.31572667">
        <ele>251.0</ele>
        <time>2017-05-27T10:27:34.515Z</time>
      </trkpt>
      <trkpt lat="39.94767333" lon="-0.31581333">
        <ele>251.0</ele>
        <time>2017-05-27T10:27:35.491Z</time>
      </trkpt>
      <trkpt lat="39.94767333" lon="-0.31581333">
        <ele>251.0</ele>
        <time>2017-05-27T10:27:36.497Z</time>
      </trkpt>
      <trkpt lat="39.94764167" lon="-0.3159">
        <ele>252.0</ele>
        <time>2017-05-27T10:27:37.527Z</time>
      </trkpt>
      <trkpt lat="39.947625" lon="-0.31594167">
        <ele>252.0</ele>
        <time>2017-05-27T10:27:38.514Z</time>
      </trkpt>
      <trkpt lat="39.947625" lon="-0.31594167">
        <ele>252.0</ele>
        <time>2017-05-27T10:27:39.494Z</time>
      </trkpt>
      <trkpt lat="39.94759333" lon="-0.31602667">
        <ele>252.0</ele>
        <time>2017-05-27T10:27:40.520Z</time>
      </trkpt>
      <trkpt lat="39.94757833" lon="-0.31607">
        <ele>252.0</ele>
        <time>2017-05-27T10:27:41.511Z</time>
      </trkpt>
      <trkpt lat="39.94757833" lon="-0.31607">
        <ele>252.0</ele>
        <time>2017-05-27T10:27:42.518Z</time>
      </trkpt>
      <trkpt lat="39.94755167" lon="-0.316155">
        <ele>252.0</ele>
        <time>2017-05-27T10:27:43.516Z</time>
      </trkpt>
      <trkpt lat="39.94754" lon="-0.31619667">
        <ele>252.0</ele>
        <time>2017-05-27T10:27:44.492Z</time>
      </trkpt>
      <trkpt lat="39.94754" lon="-0.31619667">
        <ele>252.0</ele>
        <time>2017-05-27T10:27:45.498Z</time>
      </trkpt>
      <trkpt lat="39.94751333" lon="-0.31628">
        <ele>252.0</ele>
        <time>2017-05-27T10:27:46.520Z</time>
      </trkpt>
      <trkpt lat="39.94750167" lon="-0.31632167">
        <ele>252.0</ele>
        <time>2017-05-27T10:27:47.504Z</time>
      </trkpt>
      <trkpt lat="39.94750167" lon="-0.31632167">
        <ele>252.0</ele>
        <time>2017-05-27T10:27:48.510Z</time>
      </trkpt>
      <trkpt lat="39.94747667" lon="-0.316405">
        <ele>253.0</ele>
        <time>2017-05-27T10:27:49.527Z</time>
      </trkpt>
      <trkpt lat="39.94746167" lon="-0.31644667">
        <ele>253.0</ele>
        <time>2017-05-27T10:27:50.515Z</time>
      </trkpt>
      <trkpt lat="39.94746167" lon="-0.31644667">
        <ele>253.0</ele>
        <time>2017-05-27T10:27:51.521Z</time>
      </trkpt>
      <trkpt lat="39.94743" lon="-0.31652">
        <ele>253.0</ele>
        <time>2017-05-27T10:27:52.505Z</time>
      </trkpt>
      <trkpt lat="39.94741667" lon="-0.31655667">
        <ele>254.0</ele>
        <time>2017-05-27T10:27:53.529Z</time>
      </trkpt>
      <trkpt lat="39.94741667" lon="-0.31655667">
        <ele>254.0</ele>
        <time>2017-05-27T10:27:54.495Z</time>
      </trkpt>
      <trkpt lat="39.94739333" lon="-0.31663333">
        <ele>254.0</ele>
        <time>2017-05-27T10:27:55.493Z</time>
      </trkpt>
      <trkpt lat="39.94739333" lon="-0.31663333">
        <ele>254.0</ele>
        <time>2017-05-27T10:27:56.499Z</time>
      </trkpt>
      <trkpt lat="39.94736667" lon="-0.31670833">
        <ele>254.0</ele>
        <time>2017-05-27T10:27:57.523Z</time>
      </trkpt>
      <trkpt lat="39.94736667" lon="-0.31670833">
        <ele>254.0</ele>
        <time>2017-05-27T10:27:58.529Z</time>
      </trkpt>
      <trkpt lat="39.94734" lon="-0.31678167">
        <ele>255.0</ele>
        <time>2017-05-27T10:27:59.513Z</time>
      </trkpt>
      <trkpt lat="39.94734" lon="-0.31678167">
        <ele>255.0</ele>
        <time>2017-05-27T10:28:00.521Z</time>
      </trkpt>
      <trkpt lat="39.94731333" lon="-0.316855">
        <ele>255.0</ele>
        <time>2017-05-27T10:28:01.524Z</time>
      </trkpt>
      <trkpt lat="39.9473" lon="-0.31689167">
        <ele>255.0</ele>
        <time>2017-05-27T10:28:02.507Z</time>
      </trkpt>
      <trkpt lat="39.9473" lon="-0.31689167">
        <ele>255.0</ele>
        <time>2017-05-27T10:28:03.513Z</time>
      </trkpt>
      <trkpt lat="39.94726" lon="-0.31697">
        <ele>255.0</ele>
        <time>2017-05-27T10:28:04.524Z</time>
      </trkpt>
      <trkpt lat="39.94726" lon="-0.31697">
        <ele>255.0</ele>
        <time>2017-05-27T10:28:05.530Z</time>
      </trkpt>
      <trkpt lat="39.94722333" lon="-0.31705">
        <ele>256.0</ele>
        <time>2017-05-27T10:28:06.526Z</time>
      </trkpt>
      <trkpt lat="39.94722333" lon="-0.31705">
        <ele>256.0</ele>
        <time>2017-05-27T10:28:07.492Z</time>
      </trkpt>
      <trkpt lat="39.94719" lon="-0.317125">
        <ele>256.0</ele>
        <time>2017-05-27T10:28:08.517Z</time>
      </trkpt>
      <trkpt lat="39.94719" lon="-0.317125">
        <ele>256.0</ele>
        <time>2017-05-27T10:28:09.498Z</time>
      </trkpt>
      <trkpt lat="39.94715833" lon="-0.31720167">
        <ele>257.0</ele>
        <time>2017-05-27T10:28:10.515Z</time>
      </trkpt>
      <trkpt lat="39.94715833" lon="-0.31720167">
        <ele>257.0</ele>
        <time>2017-05-27T10:28:11.520Z</time>
      </trkpt>
      <trkpt lat="39.947125" lon="-0.31727333">
        <ele>258.0</ele>
        <time>2017-05-27T10:28:12.509Z</time>
      </trkpt>
      <trkpt lat="39.94711167" lon="-0.31730833">
        <ele>258.0</ele>
        <time>2017-05-27T10:28:13.492Z</time>
      </trkpt>
      <trkpt lat="39.94711167" lon="-0.31730833">
        <ele>258.0</ele>
        <time>2017-05-27T10:28:14.499Z</time>
      </trkpt>
      <trkpt lat="39.94707833" lon="-0.31738167">
        <ele>258.0</ele>
        <time>2017-05-27T10:28:15.527Z</time>
      </trkpt>
      <trkpt lat="39.94707833" lon="-0.31738167">
        <ele>258.0</ele>
        <time>2017-05-27T10:28:16.492Z</time>
      </trkpt>
      <trkpt lat="39.94704333" lon="-0.31745667">
        <ele>259.0</ele>
        <time>2017-05-27T10:28:17.527Z</time>
      </trkpt>
      <trkpt lat="39.94704333" lon="-0.31745667">
        <ele>259.0</ele>
        <time>2017-05-27T10:28:18.493Z</time>
      </trkpt>
      <trkpt lat="39.94700667" lon="-0.31753333">
        <ele>259.0</ele>
        <time>2017-05-27T10:28:19.526Z</time>
      </trkpt>
      <trkpt lat="39.94699333" lon="-0.31757333">
        <ele>259.0</ele>
        <time>2017-05-27T10:28:20.510Z</time>
      </trkpt>
      <trkpt lat="39.94699333" lon="-0.31757333">
        <ele>259.0</ele>
        <time>2017-05-27T10:28:21.516Z</time>
      </trkpt>
      <trkpt lat="39.946965" lon="-0.31764833">
        <ele>260.0</ele>
        <time>2017-05-27T10:28:22.516Z</time>
      </trkpt>
      <trkpt lat="39.94695167" lon="-0.31768667">
        <ele>260.0</ele>
        <time>2017-05-27T10:28:23.507Z</time>
      </trkpt>
      <trkpt lat="39.94695167" lon="-0.31768667">
        <ele>260.0</ele>
        <time>2017-05-27T10:28:24.513Z</time>
      </trkpt>
      <trkpt lat="39.94693667" lon="-0.317765">
        <ele>261.0</ele>
        <time>2017-05-27T10:28:25.496Z</time>
      </trkpt>
      <trkpt lat="39.94693667" lon="-0.317765">
        <ele>261.0</ele>
        <time>2017-05-27T10:28:26.502Z</time>
      </trkpt>
      <trkpt lat="39.94693" lon="-0.31784667">
        <ele>261.0</ele>
        <time>2017-05-27T10:28:27.517Z</time>
      </trkpt>
      <trkpt lat="39.94693" lon="-0.31784667">
        <ele>261.0</ele>
        <time>2017-05-27T10:28:28.523Z</time>
      </trkpt>
      <trkpt lat="39.94693167" lon="-0.31793">
        <ele>263.0</ele>
        <time>2017-05-27T10:28:29.523Z</time>
      </trkpt>
      <trkpt lat="39.94693167" lon="-0.31793">
        <ele>263.0</ele>
        <time>2017-05-27T10:28:30.528Z</time>
      </trkpt>
      <trkpt lat="39.94693667" lon="-0.31801333">
        <ele>264.0</ele>
        <time>2017-05-27T10:28:31.524Z</time>
      </trkpt>
      <trkpt lat="39.94693833" lon="-0.318055">
        <ele>264.0</ele>
        <time>2017-05-27T10:28:32.519Z</time>
      </trkpt>
      <trkpt lat="39.94693833" lon="-0.318055">
        <ele>264.0</ele>
        <time>2017-05-27T10:28:33.525Z</time>
      </trkpt>
      <trkpt lat="39.94695333" lon="-0.31813833">
        <ele>265.0</ele>
        <time>2017-05-27T10:28:34.497Z</time>
      </trkpt>
      <trkpt lat="39.946965" lon="-0.31817833">
        <ele>265.0</ele>
        <time>2017-05-27T10:28:35.522Z</time>
      </trkpt>
      <trkpt lat="39.946965" lon="-0.31817833">
        <ele>265.0</ele>
        <time>2017-05-27T10:28:36.528Z</time>
      </trkpt>
      <trkpt lat="39.94699167" lon="-0.31826167">
        <ele>265.0</ele>
        <time>2017-05-27T10:28:37.517Z</time>
      </trkpt>
      <trkpt lat="39.94700333" lon="-0.31830333">
        <ele>266.0</ele>
        <time>2017-05-27T10:28:38.507Z</time>
      </trkpt>
      <trkpt lat="39.94700333" lon="-0.31830333">
        <ele>266.0</ele>
        <time>2017-05-27T10:28:39.527Z</time>
      </trkpt>
      <trkpt lat="39.94703167" lon="-0.31839">
        <ele>266.0</ele>
        <time>2017-05-27T10:28:40.524Z</time>
      </trkpt>
      <trkpt lat="39.94705" lon="-0.318435">
        <ele>266.0</ele>
        <time>2017-05-27T10:28:41.512Z</time>
      </trkpt>
      <trkpt lat="39.94705" lon="-0.318435">
        <ele>266.0</ele>
        <time>2017-05-27T10:28:42.518Z</time>
      </trkpt>
      <trkpt lat="39.94708833" lon="-0.31851667">
        <ele>267.0</ele>
        <time>2017-05-27T10:28:43.500Z</time>
      </trkpt>
      <trkpt lat="39.94708833" lon="-0.31851667">
        <ele>267.0</ele>
        <time>2017-05-27T10:28:44.506Z</time>
      </trkpt>
      <trkpt lat="39.94713333" lon="-0.31859167">
        <ele>267.0</ele>
        <time>2017-05-27T10:28:45.521Z</time>
      </trkpt>
      <trkpt lat="39.94713333" lon="-0.31859167">
        <ele>267.0</ele>
        <time>2017-05-27T10:28:46.527Z</time>
      </trkpt>
      <trkpt lat="39.94718167" lon="-0.31866667">
        <ele>267.0</ele>
        <time>2017-05-27T10:28:47.503Z</time>
      </trkpt>
      <trkpt lat="39.94718167" lon="-0.31866667">
        <ele>267.0</ele>
        <time>2017-05-27T10:28:48.509Z</time>
      </trkpt>
      <trkpt lat="39.94722167" lon="-0.31873833">
        <ele>267.0</ele>
        <time>2017-05-27T10:28:49.499Z</time>
      </trkpt>
      <trkpt lat="39.94724667" lon="-0.318775">
        <ele>267.0</ele>
        <time>2017-05-27T10:28:50.497Z</time>
      </trkpt>
      <trkpt lat="39.94724667" lon="-0.318775">
        <ele>267.0</ele>
        <time>2017-05-27T10:28:51.512Z</time>
      </trkpt>
      <trkpt lat="39.947285" lon="-0.318845">
        <ele>267.0</ele>
        <time>2017-05-27T10:28:52.503Z</time>
      </trkpt>
      <trkpt lat="39.94730667" lon="-0.31888667">
        <ele>267.0</ele>
        <time>2017-05-27T10:28:53.524Z</time>
      </trkpt>
      <trkpt lat="39.94730667" lon="-0.31888667">
        <ele>267.0</ele>
        <time>2017-05-27T10:28:54.530Z</time>
      </trkpt>
      <trkpt lat="39.94734" lon="-0.318975">
        <ele>267.0</ele>
        <time>2017-05-27T10:28:55.525Z</time>
      </trkpt>
      <trkpt lat="39.94734" lon="-0.318975">
        <ele>267.0</ele>
        <time>2017-05-27T10:28:56.529Z</time>
      </trkpt>
      <trkpt lat="39.94737167" lon="-0.319065">
        <ele>267.0</ele>
        <time>2017-05-27T10:28:57.524Z</time>
      </trkpt>
      <trkpt lat="39.947385" lon="-0.31911167">
        <ele>267.0</ele>
        <time>2017-05-27T10:28:58.523Z</time>
      </trkpt>
      <trkpt lat="39.9474" lon="-0.31915667">
        <ele>267.0</ele>
        <time>2017-05-27T10:28:59.519Z</time>
      </trkpt>
      <trkpt lat="39.9474" lon="-0.31915667">
        <ele>267.0</ele>
        <time>2017-05-27T10:29:00.525Z</time>
      </trkpt>
      <trkpt lat="39.94742833" lon="-0.31924833">
        <ele>267.0</ele>
        <time>2017-05-27T10:29:01.507Z</time>
      </trkpt>
      <trkpt lat="39.94744333" lon="-0.319295">
        <ele>267.0</ele>
        <time>2017-05-27T10:29:02.508Z</time>
      </trkpt>
      <trkpt lat="39.94744333" lon="-0.319295">
        <ele>267.0</ele>
        <time>2017-05-27T10:29:03.514Z</time>
      </trkpt>
      <trkpt lat="39.94746333" lon="-0.31939333">
        <ele>267.0</ele>
        <time>2017-05-27T10:29:04.500Z</time>
      </trkpt>
      <trkpt lat="39.94746833" lon="-0.31943667">
        <ele>267.0</ele>
        <time>2017-05-27T10:29:05.523Z</time>
      </trkpt>
      <trkpt lat="39.94746833" lon="-0.31943667">
        <ele>267.0</ele>
        <time>2017-05-27T10:29:06.529Z</time>
      </trkpt>
      <trkpt lat="39.94749" lon="-0.31952833">
        <ele>267.0</ele>
        <time>2017-05-27T10:29:07.510Z</time>
      </trkpt>
      <trkpt lat="39.94750167" lon="-0.31957167">
        <ele>266.0</ele>
        <time>2017-05-27T10:29:08.504Z</time>
      </trkpt>
      <trkpt lat="39.94750167" lon="-0.31957167">
        <ele>266.0</ele>
        <time>2017-05-27T10:29:09.510Z</time>
      </trkpt>
      <trkpt lat="39.94752167" lon="-0.31966">
        <ele>267.0</ele>
        <time>2017-05-27T10:29:10.508Z</time>
      </trkpt>
      <trkpt lat="39.947535" lon="-0.31970333">
        <ele>267.0</ele>
        <time>2017-05-27T10:29:11.494Z</time>
      </trkpt>
      <trkpt lat="39.947535" lon="-0.31970333">
        <ele>267.0</ele>
        <time>2017-05-27T10:29:12.500Z</time>
      </trkpt>
      <trkpt lat="39.94756" lon="-0.31978667">
        <ele>268.0</ele>
        <time>2017-05-27T10:29:13.525Z</time>
      </trkpt>
      <trkpt lat="39.947575" lon="-0.319825">
        <ele>267.0</ele>
        <time>2017-05-27T10:29:14.501Z</time>
      </trkpt>
      <trkpt lat="39.947575" lon="-0.319825">
        <ele>267.0</ele>
        <time>2017-05-27T10:29:15.508Z</time>
      </trkpt>
      <trkpt lat="39.94761167" lon="-0.319905">
        <ele>267.0</ele>
        <time>2017-05-27T10:29:16.496Z</time>
      </trkpt>
      <trkpt lat="39.94763" lon="-0.31994167">
        <ele>267.0</ele>
        <time>2017-05-27T10:29:17.524Z</time>
      </trkpt>
      <trkpt lat="39.94763" lon="-0.31994167">
        <ele>267.0</ele>
        <time>2017-05-27T10:29:18.530Z</time>
      </trkpt>
      <trkpt lat="39.94766667" lon="-0.32000667">
        <ele>267.0</ele>
        <time>2017-05-27T10:29:19.515Z</time>
      </trkpt>
      <trkpt lat="39.94768833" lon="-0.32003833">
        <ele>267.0</ele>
        <time>2017-05-27T10:29:20.496Z</time>
      </trkpt>
      <trkpt lat="39.94768833" lon="-0.32003833">
        <ele>267.0</ele>
        <time>2017-05-27T10:29:21.502Z</time>
      </trkpt>
      <trkpt lat="39.94773333" lon="-0.32009833">
        <ele>267.0</ele>
        <time>2017-05-27T10:29:22.528Z</time>
      </trkpt>
      <trkpt lat="39.94775833" lon="-0.32012667">
        <ele>267.0</ele>
        <time>2017-05-27T10:29:23.510Z</time>
      </trkpt>
      <trkpt lat="39.94775833" lon="-0.32012667">
        <ele>267.0</ele>
        <time>2017-05-27T10:29:24.516Z</time>
      </trkpt>
      <trkpt lat="39.94782167" lon="-0.32018333">
        <ele>268.0</ele>
        <time>2017-05-27T10:29:25.511Z</time>
      </trkpt>
      <trkpt lat="39.94785167" lon="-0.32021">
        <ele>269.0</ele>
        <time>2017-05-27T10:29:26.496Z</time>
      </trkpt>
      <trkpt lat="39.94785167" lon="-0.32021">
        <ele>269.0</ele>
        <time>2017-05-27T10:29:27.502Z</time>
      </trkpt>
      <trkpt lat="39.94790667" lon="-0.32025833">
        <ele>270.0</ele>
        <time>2017-05-27T10:29:28.520Z</time>
      </trkpt>
      <trkpt lat="39.947935" lon="-0.32027833">
        <ele>270.0</ele>
        <time>2017-05-27T10:29:29.516Z</time>
      </trkpt>
      <trkpt lat="39.947935" lon="-0.32027833">
        <ele>270.0</ele>
        <time>2017-05-27T10:29:30.523Z</time>
      </trkpt>
      <trkpt lat="39.94798667" lon="-0.32030833">
        <ele>271.0</ele>
        <time>2017-05-27T10:29:31.515Z</time>
      </trkpt>
      <trkpt lat="39.94801833" lon="-0.32031667">
        <ele>272.0</ele>
        <time>2017-05-27T10:29:32.505Z</time>
      </trkpt>
      <trkpt lat="39.94801833" lon="-0.32031667">
        <ele>272.0</ele>
        <time>2017-05-27T10:29:33.511Z</time>
      </trkpt>
      <trkpt lat="39.94807833" lon="-0.32033333">
        <ele>273.0</ele>
        <time>2017-05-27T10:29:34.507Z</time>
      </trkpt>
      <trkpt lat="39.94807833" lon="-0.32033333">
        <ele>273.0</ele>
        <time>2017-05-27T10:29:35.513Z</time>
      </trkpt>
      <trkpt lat="39.94813833" lon="-0.320355">
        <ele>273.0</ele>
        <time>2017-05-27T10:29:36.508Z</time>
      </trkpt>
      <trkpt lat="39.94817" lon="-0.320365">
        <ele>273.0</ele>
        <time>2017-05-27T10:29:37.495Z</time>
      </trkpt>
      <trkpt lat="39.94819833" lon="-0.32038833">
        <ele>274.0</ele>
        <time>2017-05-27T10:29:38.517Z</time>
      </trkpt>
      <trkpt lat="39.94819833" lon="-0.32038833">
        <ele>274.0</ele>
        <time>2017-05-27T10:29:39.495Z</time>
      </trkpt>
      <trkpt lat="39.94825667" lon="-0.32041833">
        <ele>274.0</ele>
        <time>2017-05-27T10:29:40.491Z</time>
      </trkpt>
      <trkpt lat="39.948285" lon="-0.32043333">
        <ele>275.0</ele>
        <time>2017-05-27T10:29:41.514Z</time>
      </trkpt>
      <trkpt lat="39.948285" lon="-0.32043333">
        <ele>275.0</ele>
        <time>2017-05-27T10:29:42.520Z</time>
      </trkpt>
      <trkpt lat="39.94834" lon="-0.32047333">
        <ele>275.0</ele>
        <time>2017-05-27T10:29:43.521Z</time>
      </trkpt>
      <trkpt lat="39.94834" lon="-0.32047333">
        <ele>275.0</ele>
        <time>2017-05-27T10:29:44.527Z</time>
      </trkpt>
      <trkpt lat="39.94839167" lon="-0.32051667">
        <ele>275.0</ele>
        <time>2017-05-27T10:29:45.508Z</time>
      </trkpt>
      <trkpt lat="39.94839167" lon="-0.32051667">
        <ele>275.0</ele>
        <time>2017-05-27T10:29:46.514Z</time>
      </trkpt>
      <trkpt lat="39.94844667" lon="-0.32056">
        <ele>275.0</ele>
        <time>2017-05-27T10:29:47.499Z</time>
      </trkpt>
      <trkpt lat="39.948475" lon="-0.32058167">
        <ele>275.0</ele>
        <time>2017-05-27T10:29:48.506Z</time>
      </trkpt>
      <trkpt lat="39.948475" lon="-0.32058167">
        <ele>275.0</ele>
        <time>2017-05-27T10:29:49.512Z</time>
      </trkpt>
      <trkpt lat="39.94852833" lon="-0.32063">
        <ele>275.0</ele>
        <time>2017-05-27T10:29:50.497Z</time>
      </trkpt>
      <trkpt lat="39.94852833" lon="-0.32063">
        <ele>275.0</ele>
        <time>2017-05-27T10:29:51.502Z</time>
      </trkpt>
      <trkpt lat="39.94858167" lon="-0.32068333">
        <ele>275.0</ele>
        <time>2017-05-27T10:29:52.503Z</time>
      </trkpt>
      <trkpt lat="39.94860667" lon="-0.32070833">
        <ele>274.0</ele>
        <time>2017-05-27T10:29:53.523Z</time>
      </trkpt>
      <trkpt lat="39.94860667" lon="-0.32070833">
        <ele>274.0</ele>
        <time>2017-05-27T10:29:54.529Z</time>
      </trkpt>
      <trkpt lat="39.94865167" lon="-0.32076167">
        <ele>274.0</ele>
        <time>2017-05-27T10:29:55.506Z</time>
      </trkpt>
      <trkpt lat="39.94867167" lon="-0.320785">
        <ele>274.0</ele>
        <time>2017-05-27T10:29:56.497Z</time>
      </trkpt>
      <trkpt lat="39.94867167" lon="-0.320785">
        <ele>274.0</ele>
        <time>2017-05-27T10:29:57.503Z</time>
      </trkpt>
      <trkpt lat="39.94871167" lon="-0.32083833">
        <ele>273.0</ele>
        <time>2017-05-27T10:29:58.527Z</time>
      </trkpt>
      <trkpt lat="39.94873167" lon="-0.32086333">
        <ele>273.0</ele>
        <time>2017-05-27T10:29:59.511Z</time>
      </trkpt>
      <trkpt lat="39.94873167" lon="-0.32086333">
        <ele>273.0</ele>
        <time>2017-05-27T10:30:00.516Z</time>
      </trkpt>
      <trkpt lat="39.948785" lon="-0.320915">
        <ele>273.0</ele>
        <time>2017-05-27T10:30:01.512Z</time>
      </trkpt>
      <trkpt lat="39.94881" lon="-0.32094">
        <ele>273.0</ele>
        <time>2017-05-27T10:30:02.497Z</time>
      </trkpt>
      <trkpt lat="39.94881" lon="-0.32094">
        <ele>273.0</ele>
        <time>2017-05-27T10:30:03.503Z</time>
      </trkpt>
      <trkpt lat="39.94885667" lon="-0.32099833">
        <ele>273.0</ele>
        <time>2017-05-27T10:30:04.529Z</time>
      </trkpt>
      <trkpt lat="39.94887833" lon="-0.32102833">
        <ele>273.0</ele>
        <time>2017-05-27T10:30:05.515Z</time>
      </trkpt>
      <trkpt lat="39.94887833" lon="-0.32102833">
        <ele>273.0</ele>
        <time>2017-05-27T10:30:06.530Z</time>
      </trkpt>
      <trkpt lat="39.948915" lon="-0.3211">
        <ele>274.0</ele>
        <time>2017-05-27T10:30:07.515Z</time>
      </trkpt>
      <trkpt lat="39.94893167" lon="-0.32113333">
        <ele>274.0</ele>
        <time>2017-05-27T10:30:08.500Z</time>
      </trkpt>
      <trkpt lat="39.94893167" lon="-0.32113333">
        <ele>274.0</ele>
        <time>2017-05-27T10:30:09.506Z</time>
      </trkpt>
      <trkpt lat="39.948975" lon="-0.32119833">
        <ele>273.0</ele>
        <time>2017-05-27T10:30:10.501Z</time>
      </trkpt>
      <trkpt lat="39.948975" lon="-0.32119833">
        <ele>273.0</ele>
        <time>2017-05-27T10:30:11.507Z</time>
      </trkpt>
      <trkpt lat="39.94901333" lon="-0.32126667">
        <ele>273.0</ele>
        <time>2017-05-27T10:30:12.503Z</time>
      </trkpt>
      <trkpt lat="39.94901333" lon="-0.32126667">
        <ele>273.0</ele>
        <time>2017-05-27T10:30:13.509Z</time>
      </trkpt>
      <trkpt lat="39.94905" lon="-0.32134">
        <ele>274.0</ele>
        <time>2017-05-27T10:30:14.497Z</time>
      </trkpt>
      <trkpt lat="39.94905" lon="-0.32134">
        <ele>274.0</ele>
        <time>2017-05-27T10:30:15.503Z</time>
      </trkpt>
      <trkpt lat="39.94908167" lon="-0.321415">
        <ele>274.0</ele>
        <time>2017-05-27T10:30:16.528Z</time>
      </trkpt>
      <trkpt lat="39.94908167" lon="-0.321415">
        <ele>274.0</ele>
        <time>2017-05-27T10:30:17.494Z</time>
      </trkpt>
      <trkpt lat="39.94911333" lon="-0.32148667">
        <ele>274.0</ele>
        <time>2017-05-27T10:30:18.528Z</time>
      </trkpt>
      <trkpt lat="39.94913" lon="-0.32152167">
        <ele>274.0</ele>
        <time>2017-05-27T10:30:19.511Z</time>
      </trkpt>
      <trkpt lat="39.94913" lon="-0.32152167">
        <ele>274.0</ele>
        <time>2017-05-27T10:30:20.517Z</time>
      </trkpt>
      <trkpt lat="39.94916" lon="-0.32159833">
        <ele>274.0</ele>
        <time>2017-05-27T10:30:21.511Z</time>
      </trkpt>
      <trkpt lat="39.94916" lon="-0.32159833">
        <ele>274.0</ele>
        <time>2017-05-27T10:30:22.517Z</time>
      </trkpt>
      <trkpt lat="39.94918833" lon="-0.321675">
        <ele>275.0</ele>
        <time>2017-05-27T10:30:23.497Z</time>
      </trkpt>
      <trkpt lat="39.94918833" lon="-0.321675">
        <ele>275.0</ele>
        <time>2017-05-27T10:30:24.503Z</time>
      </trkpt>
      <trkpt lat="39.94921667" lon="-0.32175333">
        <ele>275.0</ele>
        <time>2017-05-27T10:30:25.502Z</time>
      </trkpt>
      <trkpt lat="39.94923167" lon="-0.32179333">
        <ele>275.0</ele>
        <time>2017-05-27T10:30:26.521Z</time>
      </trkpt>
      <trkpt lat="39.94923167" lon="-0.32179333">
        <ele>275.0</ele>
        <time>2017-05-27T10:30:27.528Z</time>
      </trkpt>
      <trkpt lat="39.94925333" lon="-0.32187833">
        <ele>275.0</ele>
        <time>2017-05-27T10:30:28.514Z</time>
      </trkpt>
      <trkpt lat="39.949265" lon="-0.32192167">
        <ele>276.0</ele>
        <time>2017-05-27T10:30:29.517Z</time>
      </trkpt>
      <trkpt lat="39.949265" lon="-0.32192167">
        <ele>276.0</ele>
        <time>2017-05-27T10:30:30.523Z</time>
      </trkpt>
      <trkpt lat="39.94928333" lon="-0.32200333">
        <ele>277.0</ele>
        <time>2017-05-27T10:30:31.510Z</time>
      </trkpt>
      <trkpt lat="39.94929333" lon="-0.32204333">
        <ele>277.0</ele>
        <time>2017-05-27T10:30:32.495Z</time>
      </trkpt>
      <trkpt lat="39.94929333" lon="-0.32204333">
        <ele>277.0</ele>
        <time>2017-05-27T10:30:33.501Z</time>
      </trkpt>
      <trkpt lat="39.94930167" lon="-0.32213">
        <ele>277.0</ele>
        <time>2017-05-27T10:30:34.491Z</time>
      </trkpt>
      <trkpt lat="39.94930167" lon="-0.32213">
        <ele>277.0</ele>
        <time>2017-05-27T10:30:35.496Z</time>
      </trkpt>
      <trkpt lat="39.949305" lon="-0.32222333">
        <ele>278.0</ele>
        <time>2017-05-27T10:30:36.506Z</time>
      </trkpt>
      <trkpt lat="39.949305" lon="-0.32222333">
        <ele>278.0</ele>
        <time>2017-05-27T10:30:37.512Z</time>
      </trkpt>
      <trkpt lat="39.94929833" lon="-0.322315">
        <ele>278.0</ele>
        <time>2017-05-27T10:30:38.495Z</time>
      </trkpt>
      <trkpt lat="39.94929833" lon="-0.322315">
        <ele>278.0</ele>
        <time>2017-05-27T10:30:39.512Z</time>
      </trkpt>
      <trkpt lat="39.949305" lon="-0.32241">
        <ele>278.0</ele>
        <time>2017-05-27T10:30:40.505Z</time>
      </trkpt>
      <trkpt lat="39.94931167" lon="-0.32245667">
        <ele>278.0</ele>
        <time>2017-05-27T10:30:41.504Z</time>
      </trkpt>
      <trkpt lat="39.94931167" lon="-0.32245667">
        <ele>278.0</ele>
        <time>2017-05-27T10:30:42.510Z</time>
      </trkpt>
      <trkpt lat="39.949325" lon="-0.322545">
        <ele>279.0</ele>
        <time>2017-05-27T10:30:43.494Z</time>
      </trkpt>
      <trkpt lat="39.94933667" lon="-0.32258667">
        <ele>279.0</ele>
        <time>2017-05-27T10:30:44.526Z</time>
      </trkpt>
      <trkpt lat="39.94933667" lon="-0.32258667">
        <ele>279.0</ele>
        <time>2017-05-27T10:30:45.491Z</time>
      </trkpt>
      <trkpt lat="39.94936333" lon="-0.32267167">
        <ele>279.0</ele>
        <time>2017-05-27T10:30:46.516Z</time>
      </trkpt>
      <trkpt lat="39.94938" lon="-0.32271">
        <ele>279.0</ele>
        <time>2017-05-27T10:30:47.510Z</time>
      </trkpt>
      <trkpt lat="39.94939667" lon="-0.32274667">
        <ele>279.0</ele>
        <time>2017-05-27T10:30:48.516Z</time>
      </trkpt>
      <trkpt lat="39.94939667" lon="-0.32274667">
        <ele>279.0</ele>
        <time>2017-05-27T10:30:49.522Z</time>
      </trkpt>
      <trkpt lat="39.94943167" lon="-0.32281167">
        <ele>279.0</ele>
        <time>2017-05-27T10:30:50.502Z</time>
      </trkpt>
      <trkpt lat="39.94945" lon="-0.32284333">
        <ele>280.0</ele>
        <time>2017-05-27T10:30:51.525Z</time>
      </trkpt>
      <trkpt lat="39.94945" lon="-0.32284333">
        <ele>280.0</ele>
        <time>2017-05-27T10:30:52.491Z</time>
      </trkpt>
      <trkpt lat="39.94948167" lon="-0.32291667">
        <ele>280.0</ele>
        <time>2017-05-27T10:30:53.521Z</time>
      </trkpt>
      <trkpt lat="39.94949667" lon="-0.32295">
        <ele>280.0</ele>
        <time>2017-05-27T10:30:54.528Z</time>
      </trkpt>
      <trkpt lat="39.94949667" lon="-0.32295">
        <ele>280.0</ele>
        <time>2017-05-27T10:30:55.493Z</time>
      </trkpt>
      <trkpt lat="39.94952167" lon="-0.32301333">
        <ele>280.0</ele>
        <time>2017-05-27T10:30:56.511Z</time>
      </trkpt>
      <trkpt lat="39.94952167" lon="-0.32301333">
        <ele>280.0</ele>
        <time>2017-05-27T10:30:57.517Z</time>
      </trkpt>
      <trkpt lat="39.94954333" lon="-0.32307333">
        <ele>280.0</ele>
        <time>2017-05-27T10:30:58.527Z</time>
      </trkpt>
      <trkpt lat="39.949555" lon="-0.32310167">
        <ele>281.0</ele>
        <time>2017-05-27T10:30:59.516Z</time>
      </trkpt>
      <trkpt lat="39.949555" lon="-0.32310167">
        <ele>281.0</ele>
        <time>2017-05-27T10:31:00.522Z</time>
      </trkpt>
      <trkpt lat="39.94957167" lon="-0.32314333">
        <ele>280.0</ele>
        <time>2017-05-27T10:31:01.529Z</time>
      </trkpt>
      <trkpt lat="39.94957667" lon="-0.32315">
        <ele>280.0</ele>
        <time>2017-05-27T10:31:02.514Z</time>
      </trkpt>
      <trkpt lat="39.94957667" lon="-0.32315">
        <ele>280.0</ele>
        <time>2017-05-27T10:31:03.523Z</time>
      </trkpt>
      <trkpt lat="39.94957167" lon="-0.32316">
        <ele>280.0</ele>
        <time>2017-05-27T10:31:04.504Z</time>
      </trkpt>
      <trkpt lat="39.94957167" lon="-0.323165">
        <ele>280.0</ele>
        <time>2017-05-27T10:31:05.523Z</time>
      </trkpt>
      <trkpt lat="39.94957167" lon="-0.323165">
        <ele>280.0</ele>
        <time>2017-05-27T10:31:06.529Z</time>
      </trkpt>
      <trkpt lat="39.94957167" lon="-0.323165">
        <ele>280.0</ele>
        <time>2017-05-27T10:31:07.514Z</time>
      </trkpt>
      <trkpt lat="39.94957167" lon="-0.323165">
        <ele>280.0</ele>
        <time>2017-05-27T10:31:08.496Z</time>
      </trkpt>
      <trkpt lat="39.94957167" lon="-0.323165">
        <ele>280.0</ele>
        <time>2017-05-27T10:31:09.492Z</time>
      </trkpt>
      <trkpt lat="39.94957167" lon="-0.323165">
        <ele>280.0</ele>
        <time>2017-05-27T10:31:10.526Z</time>
      </trkpt>
      <trkpt lat="39.94957167" lon="-0.323165">
        <ele>280.0</ele>
        <time>2017-05-27T10:31:11.529Z</time>
      </trkpt>
      <trkpt lat="39.94957167" lon="-0.323165">
        <ele>280.0</ele>
        <time>2017-05-27T10:31:12.507Z</time>
      </trkpt>
      <trkpt lat="39.94957" lon="-0.323245">
        <ele>280.0</ele>
        <time>2017-05-27T10:31:13.496Z</time>
      </trkpt>
      <trkpt lat="39.94957" lon="-0.323245">
        <ele>280.0</ele>
        <time>2017-05-27T10:31:14.496Z</time>
      </trkpt>
      <trkpt lat="39.94955" lon="-0.32331667">
        <ele>280.0</ele>
        <time>2017-05-27T10:31:15.494Z</time>
      </trkpt>
      <trkpt lat="39.94955" lon="-0.32331667">
        <ele>280.0</ele>
        <time>2017-05-27T10:31:16.516Z</time>
      </trkpt>
      <trkpt lat="39.94955833" lon="-0.32337">
        <ele>279.0</ele>
        <time>2017-05-27T10:31:17.492Z</time>
      </trkpt>
      <trkpt lat="39.94956167" lon="-0.32339167">
        <ele>279.0</ele>
        <time>2017-05-27T10:31:18.513Z</time>
      </trkpt>
      <trkpt lat="39.94956167" lon="-0.32339167">
        <ele>279.0</ele>
        <time>2017-05-27T10:31:19.526Z</time>
      </trkpt>
      <trkpt lat="39.94956333" lon="-0.323445">
        <ele>280.0</ele>
        <time>2017-05-27T10:31:20.502Z</time>
      </trkpt>
      <trkpt lat="39.94956667" lon="-0.32347333">
        <ele>280.0</ele>
        <time>2017-05-27T10:31:21.529Z</time>
      </trkpt>
      <trkpt lat="39.94956667" lon="-0.32347333">
        <ele>280.0</ele>
        <time>2017-05-27T10:31:22.495Z</time>
      </trkpt>
      <trkpt lat="39.94957167" lon="-0.32352333">
        <ele>280.0</ele>
        <time>2017-05-27T10:31:23.517Z</time>
      </trkpt>
      <trkpt lat="39.94957333" lon="-0.32354833">
        <ele>280.0</ele>
        <time>2017-05-27T10:31:24.508Z</time>
      </trkpt>
      <trkpt lat="39.94957333" lon="-0.32354833">
        <ele>280.0</ele>
        <time>2017-05-27T10:31:25.516Z</time>
      </trkpt>
      <trkpt lat="39.94957667" lon="-0.3236">
        <ele>280.0</ele>
        <time>2017-05-27T10:31:26.497Z</time>
      </trkpt>
      <trkpt lat="39.94957667" lon="-0.3236">
        <ele>280.0</ele>
        <time>2017-05-27T10:31:27.511Z</time>
      </trkpt>
      <trkpt lat="39.949575" lon="-0.32365667">
        <ele>280.0</ele>
        <time>2017-05-27T10:31:28.526Z</time>
      </trkpt>
      <trkpt lat="39.949575" lon="-0.32365667">
        <ele>280.0</ele>
        <time>2017-05-27T10:31:29.521Z</time>
      </trkpt>
      <trkpt lat="39.94956833" lon="-0.32372167">
        <ele>280.0</ele>
        <time>2017-05-27T10:31:30.495Z</time>
      </trkpt>
      <trkpt lat="39.94956333" lon="-0.323755">
        <ele>280.0</ele>
        <time>2017-05-27T10:31:31.492Z</time>
      </trkpt>
      <trkpt lat="39.94955833" lon="-0.323785">
        <ele>280.0</ele>
        <time>2017-05-27T10:31:32.527Z</time>
      </trkpt>
      <trkpt lat="39.94955167" lon="-0.323815">
        <ele>280.0</ele>
        <time>2017-05-27T10:31:33.506Z</time>
      </trkpt>
      <trkpt lat="39.94955167" lon="-0.323815">
        <ele>280.0</ele>
        <time>2017-05-27T10:31:34.516Z</time>
      </trkpt>
      <trkpt lat="39.94953667" lon="-0.32387667">
        <ele>280.0</ele>
        <time>2017-05-27T10:31:35.494Z</time>
      </trkpt>
      <trkpt lat="39.949525" lon="-0.32390667">
        <ele>280.0</ele>
        <time>2017-05-27T10:31:36.513Z</time>
      </trkpt>
      <trkpt lat="39.949525" lon="-0.32390667">
        <ele>280.0</ele>
        <time>2017-05-27T10:31:37.525Z</time>
      </trkpt>
      <trkpt lat="39.9495" lon="-0.32397167">
        <ele>279.0</ele>
        <time>2017-05-27T10:31:38.500Z</time>
      </trkpt>
      <trkpt lat="39.9495" lon="-0.32397167">
        <ele>279.0</ele>
        <time>2017-05-27T10:31:39.505Z</time>
      </trkpt>
      <trkpt lat="39.94947667" lon="-0.32403833">
        <ele>279.0</ele>
        <time>2017-05-27T10:31:40.491Z</time>
      </trkpt>
      <trkpt lat="39.94947667" lon="-0.32403833">
        <ele>279.0</ele>
        <time>2017-05-27T10:31:41.502Z</time>
      </trkpt>
      <trkpt lat="39.94945667" lon="-0.32409833">
        <ele>279.0</ele>
        <time>2017-05-27T10:31:42.514Z</time>
      </trkpt>
      <trkpt lat="39.94945667" lon="-0.32409833">
        <ele>279.0</ele>
        <time>2017-05-27T10:31:43.528Z</time>
      </trkpt>
      <trkpt lat="39.94941833" lon="-0.324165">
        <ele>279.0</ele>
        <time>2017-05-27T10:31:44.503Z</time>
      </trkpt>
      <trkpt lat="39.94941" lon="-0.324195">
        <ele>279.0</ele>
        <time>2017-05-27T10:31:45.493Z</time>
      </trkpt>
      <trkpt lat="39.94941" lon="-0.324195">
        <ele>279.0</ele>
        <time>2017-05-27T10:31:46.504Z</time>
      </trkpt>
      <trkpt lat="39.94937333" lon="-0.32426167">
        <ele>279.0</ele>
        <time>2017-05-27T10:31:47.491Z</time>
      </trkpt>
      <trkpt lat="39.949365" lon="-0.324295">
        <ele>279.0</ele>
        <time>2017-05-27T10:31:48.498Z</time>
      </trkpt>
      <trkpt lat="39.949365" lon="-0.324295">
        <ele>279.0</ele>
        <time>2017-05-27T10:31:49.511Z</time>
      </trkpt>
      <trkpt lat="39.94934333" lon="-0.32436167">
        <ele>279.0</ele>
        <time>2017-05-27T10:31:50.530Z</time>
      </trkpt>
      <trkpt lat="39.94933" lon="-0.32439333">
        <ele>279.0</ele>
        <time>2017-05-27T10:31:51.517Z</time>
      </trkpt>
      <trkpt lat="39.94933" lon="-0.32439333">
        <ele>279.0</ele>
        <time>2017-05-27T10:31:52.526Z</time>
      </trkpt>
      <trkpt lat="39.94930667" lon="-0.32445667">
        <ele>279.0</ele>
        <time>2017-05-27T10:31:53.537Z</time>
      </trkpt>
      <trkpt lat="39.94930667" lon="-0.32445667">
        <ele>279.0</ele>
        <time>2017-05-27T10:31:54.523Z</time>
      </trkpt>
      <trkpt lat="39.94927833" lon="-0.32452167">
        <ele>279.0</ele>
        <time>2017-05-27T10:31:55.501Z</time>
      </trkpt>
      <trkpt lat="39.94926" lon="-0.324555">
        <ele>279.0</ele>
        <time>2017-05-27T10:31:56.532Z</time>
      </trkpt>
      <trkpt lat="39.94926" lon="-0.324555">
        <ele>279.0</ele>
        <time>2017-05-27T10:31:57.507Z</time>
      </trkpt>
      <trkpt lat="39.94922" lon="-0.32461833">
        <ele>280.0</ele>
        <time>2017-05-27T10:31:58.523Z</time>
      </trkpt>
      <trkpt lat="39.94922" lon="-0.32461833">
        <ele>280.0</ele>
        <time>2017-05-27T10:31:59.495Z</time>
      </trkpt>
      <trkpt lat="39.94919" lon="-0.32468">
        <ele>280.0</ele>
        <time>2017-05-27T10:32:00.510Z</time>
      </trkpt>
      <trkpt lat="39.94919" lon="-0.32468">
        <ele>280.0</ele>
        <time>2017-05-27T10:32:01.523Z</time>
      </trkpt>
      <trkpt lat="39.94915167" lon="-0.32474333">
        <ele>280.0</ele>
        <time>2017-05-27T10:32:02.523Z</time>
      </trkpt>
      <trkpt lat="39.94913333" lon="-0.32477">
        <ele>280.0</ele>
        <time>2017-05-27T10:32:03.521Z</time>
      </trkpt>
      <trkpt lat="39.94913333" lon="-0.32477">
        <ele>280.0</ele>
        <time>2017-05-27T10:32:04.527Z</time>
      </trkpt>
      <trkpt lat="39.949095" lon="-0.32483">
        <ele>281.0</ele>
        <time>2017-05-27T10:32:05.507Z</time>
      </trkpt>
      <trkpt lat="39.94907833" lon="-0.32486">
        <ele>281.0</ele>
        <time>2017-05-27T10:32:06.492Z</time>
      </trkpt>
      <trkpt lat="39.94907833" lon="-0.32486">
        <ele>281.0</ele>
        <time>2017-05-27T10:32:07.503Z</time>
      </trkpt>
      <trkpt lat="39.94904333" lon="-0.32491833">
        <ele>281.0</ele>
        <time>2017-05-27T10:32:08.534Z</time>
      </trkpt>
      <trkpt lat="39.94904333" lon="-0.32491833">
        <ele>281.0</ele>
        <time>2017-05-27T10:32:09.507Z</time>
      </trkpt>
      <trkpt lat="39.94901833" lon="-0.32498667">
        <ele>281.0</ele>
        <time>2017-05-27T10:32:10.530Z</time>
      </trkpt>
      <trkpt lat="39.94901833" lon="-0.32498667">
        <ele>281.0</ele>
        <time>2017-05-27T10:32:11.514Z</time>
      </trkpt>
      <trkpt lat="39.94900833" lon="-0.32506833">
        <ele>282.0</ele>
        <time>2017-05-27T10:32:12.501Z</time>
      </trkpt>
      <trkpt lat="39.94900833" lon="-0.32506833">
        <ele>282.0</ele>
        <time>2017-05-27T10:32:13.518Z</time>
      </trkpt>
      <trkpt lat="39.94901667" lon="-0.32515667">
        <ele>282.0</ele>
        <time>2017-05-27T10:32:14.499Z</time>
      </trkpt>
      <trkpt lat="39.94902" lon="-0.32519833">
        <ele>282.0</ele>
        <time>2017-05-27T10:32:15.522Z</time>
      </trkpt>
      <trkpt lat="39.94902" lon="-0.32519833">
        <ele>282.0</ele>
        <time>2017-05-27T10:32:16.516Z</time>
      </trkpt>
      <trkpt lat="39.94906333" lon="-0.32525833">
        <ele>283.0</ele>
        <time>2017-05-27T10:32:17.529Z</time>
      </trkpt>
      <trkpt lat="39.94906333" lon="-0.32525833">
        <ele>283.0</ele>
        <time>2017-05-27T10:32:18.505Z</time>
      </trkpt>
      <trkpt lat="39.94912333" lon="-0.32530833">
        <ele>284.0</ele>
        <time>2017-05-27T10:32:19.532Z</time>
      </trkpt>
      <trkpt lat="39.94912333" lon="-0.32530833">
        <ele>284.0</ele>
        <time>2017-05-27T10:32:20.507Z</time>
      </trkpt>
      <trkpt lat="39.949185" lon="-0.32535167">
        <ele>285.0</ele>
        <time>2017-05-27T10:32:21.524Z</time>
      </trkpt>
      <trkpt lat="39.949185" lon="-0.32535167">
        <ele>285.0</ele>
        <time>2017-05-27T10:32:22.495Z</time>
      </trkpt>
      <trkpt lat="39.949245" lon="-0.32538333">
        <ele>286.0</ele>
        <time>2017-05-27T10:32:23.514Z</time>
      </trkpt>
      <trkpt lat="39.94927333" lon="-0.325395">
        <ele>286.0</ele>
        <time>2017-05-27T10:32:24.511Z</time>
      </trkpt>
      <trkpt lat="39.94927333" lon="-0.325395">
        <ele>286.0</ele>
        <time>2017-05-27T10:32:25.517Z</time>
      </trkpt>
      <trkpt lat="39.94932833" lon="-0.32542167">
        <ele>287.0</ele>
        <time>2017-05-27T10:32:26.494Z</time>
      </trkpt>
      <trkpt lat="39.94935667" lon="-0.32543667">
        <ele>287.0</ele>
        <time>2017-05-27T10:32:27.507Z</time>
      </trkpt>
      <trkpt lat="39.94935667" lon="-0.32543667">
        <ele>287.0</ele>
        <time>2017-05-27T10:32:28.502Z</time>
      </trkpt>
      <trkpt lat="39.94941833" lon="-0.325465">
        <ele>287.0</ele>
        <time>2017-05-27T10:32:29.520Z</time>
      </trkpt>
      <trkpt lat="39.94941833" lon="-0.325465">
        <ele>287.0</ele>
        <time>2017-05-27T10:32:30.510Z</time>
      </trkpt>
      <trkpt lat="39.94948167" lon="-0.325495">
        <ele>287.0</ele>
        <time>2017-05-27T10:32:31.491Z</time>
      </trkpt>
      <trkpt lat="39.949515" lon="-0.32550667">
        <ele>287.0</ele>
        <time>2017-05-27T10:32:32.511Z</time>
      </trkpt>
      <trkpt lat="39.94955" lon="-0.32551833">
        <ele>287.0</ele>
        <time>2017-05-27T10:32:33.516Z</time>
      </trkpt>
      <trkpt lat="39.94955" lon="-0.32551833">
        <ele>287.0</ele>
        <time>2017-05-27T10:32:34.526Z</time>
      </trkpt>
      <trkpt lat="39.94962333" lon="-0.32553667">
        <ele>287.0</ele>
        <time>2017-05-27T10:32:35.513Z</time>
      </trkpt>
      <trkpt lat="39.94962333" lon="-0.32553667">
        <ele>287.0</ele>
        <time>2017-05-27T10:32:36.526Z</time>
      </trkpt>
      <trkpt lat="39.94969667" lon="-0.32553667">
        <ele>287.0</ele>
        <time>2017-05-27T10:32:37.527Z</time>
      </trkpt>
      <trkpt lat="39.94969667" lon="-0.32553667">
        <ele>287.0</ele>
        <time>2017-05-27T10:32:38.511Z</time>
      </trkpt>
      <trkpt lat="39.949765" lon="-0.32551">
        <ele>288.0</ele>
        <time>2017-05-27T10:32:39.502Z</time>
      </trkpt>
      <trkpt lat="39.949765" lon="-0.32551">
        <ele>288.0</ele>
        <time>2017-05-27T10:32:40.522Z</time>
      </trkpt>
      <trkpt lat="39.94983167" lon="-0.32547667">
        <ele>288.0</ele>
        <time>2017-05-27T10:32:41.507Z</time>
      </trkpt>
      <trkpt lat="39.94986333" lon="-0.32545833">
        <ele>288.0</ele>
        <time>2017-05-27T10:32:42.496Z</time>
      </trkpt>
      <trkpt lat="39.94986333" lon="-0.32545833">
        <ele>288.0</ele>
        <time>2017-05-27T10:32:43.518Z</time>
      </trkpt>
      <trkpt lat="39.94992167" lon="-0.32542">
        <ele>288.0</ele>
        <time>2017-05-27T10:32:44.496Z</time>
      </trkpt>
      <trkpt lat="39.94992167" lon="-0.32542">
        <ele>288.0</ele>
        <time>2017-05-27T10:32:45.529Z</time>
      </trkpt>
      <trkpt lat="39.949975" lon="-0.325375">
        <ele>288.0</ele>
        <time>2017-05-27T10:32:46.502Z</time>
      </trkpt>
      <trkpt lat="39.949975" lon="-0.325375">
        <ele>288.0</ele>
        <time>2017-05-27T10:32:47.520Z</time>
      </trkpt>
      <trkpt lat="39.95003167" lon="-0.32533333">
        <ele>288.0</ele>
        <time>2017-05-27T10:32:48.498Z</time>
      </trkpt>
      <trkpt lat="39.95003167" lon="-0.32533333">
        <ele>288.0</ele>
        <time>2017-05-27T10:32:49.502Z</time>
      </trkpt>
      <trkpt lat="39.950095" lon="-0.32528333">
        <ele>288.0</ele>
        <time>2017-05-27T10:32:50.519Z</time>
      </trkpt>
      <trkpt lat="39.950125" lon="-0.32525833">
        <ele>288.0</ele>
        <time>2017-05-27T10:32:51.513Z</time>
      </trkpt>
      <trkpt lat="39.950125" lon="-0.32525833">
        <ele>288.0</ele>
        <time>2017-05-27T10:32:52.502Z</time>
      </trkpt>
      <trkpt lat="39.95018833" lon="-0.325215">
        <ele>288.0</ele>
        <time>2017-05-27T10:32:53.517Z</time>
      </trkpt>
      <trkpt lat="39.95021833" lon="-0.32519667">
        <ele>288.0</ele>
        <time>2017-05-27T10:32:54.505Z</time>
      </trkpt>
      <trkpt lat="39.95021833" lon="-0.32519667">
        <ele>288.0</ele>
        <time>2017-05-27T10:32:55.525Z</time>
      </trkpt>
      <trkpt lat="39.950285" lon="-0.32516167">
        <ele>288.0</ele>
        <time>2017-05-27T10:32:56.498Z</time>
      </trkpt>
      <trkpt lat="39.95031667" lon="-0.32514833">
        <ele>288.0</ele>
        <time>2017-05-27T10:32:57.492Z</time>
      </trkpt>
      <trkpt lat="39.95031667" lon="-0.32514833">
        <ele>288.0</ele>
        <time>2017-05-27T10:32:58.520Z</time>
      </trkpt>
      <trkpt lat="39.95038667" lon="-0.32512667">
        <ele>288.0</ele>
        <time>2017-05-27T10:32:59.533Z</time>
      </trkpt>
      <trkpt lat="39.95042" lon="-0.32511333">
        <ele>288.0</ele>
        <time>2017-05-27T10:33:00.527Z</time>
      </trkpt>
      <trkpt lat="39.95042" lon="-0.32511333">
        <ele>288.0</ele>
        <time>2017-05-27T10:33:01.495Z</time>
      </trkpt>
      <trkpt lat="39.950485" lon="-0.32509167">
        <ele>287.0</ele>
        <time>2017-05-27T10:33:02.517Z</time>
      </trkpt>
      <trkpt lat="39.95051833" lon="-0.32508333">
        <ele>287.0</ele>
        <time>2017-05-27T10:33:03.509Z</time>
      </trkpt>
      <trkpt lat="39.95051833" lon="-0.32508333">
        <ele>287.0</ele>
        <time>2017-05-27T10:33:04.530Z</time>
      </trkpt>
      <trkpt lat="39.950585" lon="-0.32507">
        <ele>287.0</ele>
        <time>2017-05-27T10:33:05.519Z</time>
      </trkpt>
      <trkpt lat="39.95061833" lon="-0.32506833">
        <ele>287.0</ele>
        <time>2017-05-27T10:33:06.497Z</time>
      </trkpt>
      <trkpt lat="39.95061833" lon="-0.32506833">
        <ele>287.0</ele>
        <time>2017-05-27T10:33:07.511Z</time>
      </trkpt>
      <trkpt lat="39.95069333" lon="-0.32506167">
        <ele>287.0</ele>
        <time>2017-05-27T10:33:08.494Z</time>
      </trkpt>
      <trkpt lat="39.95073" lon="-0.32506167">
        <ele>287.0</ele>
        <time>2017-05-27T10:33:09.530Z</time>
      </trkpt>
      <trkpt lat="39.95073" lon="-0.32506167">
        <ele>287.0</ele>
        <time>2017-05-27T10:33:10.493Z</time>
      </trkpt>
      <trkpt lat="39.950805" lon="-0.32507167">
        <ele>287.0</ele>
        <time>2017-05-27T10:33:11.511Z</time>
      </trkpt>
      <trkpt lat="39.95084" lon="-0.32508167">
        <ele>287.0</ele>
        <time>2017-05-27T10:33:12.508Z</time>
      </trkpt>
      <trkpt lat="39.95084" lon="-0.32508167">
        <ele>287.0</ele>
        <time>2017-05-27T10:33:13.516Z</time>
      </trkpt>
      <trkpt lat="39.95091333" lon="-0.32511333">
        <ele>287.0</ele>
        <time>2017-05-27T10:33:14.498Z</time>
      </trkpt>
      <trkpt lat="39.95091333" lon="-0.32511333">
        <ele>287.0</ele>
        <time>2017-05-27T10:33:15.513Z</time>
      </trkpt>
      <trkpt lat="39.95098" lon="-0.32516167">
        <ele>288.0</ele>
        <time>2017-05-27T10:33:16.496Z</time>
      </trkpt>
      <trkpt lat="39.95098" lon="-0.32516167">
        <ele>288.0</ele>
        <time>2017-05-27T10:33:17.517Z</time>
      </trkpt>
      <trkpt lat="39.95103333" lon="-0.32523167">
        <ele>288.0</ele>
        <time>2017-05-27T10:33:18.499Z</time>
      </trkpt>
      <trkpt lat="39.95103333" lon="-0.32523167">
        <ele>288.0</ele>
        <time>2017-05-27T10:33:19.517Z</time>
      </trkpt>
      <trkpt lat="39.95108333" lon="-0.3253">
        <ele>288.0</ele>
        <time>2017-05-27T10:33:20.515Z</time>
      </trkpt>
      <trkpt lat="39.95108333" lon="-0.3253">
        <ele>288.0</ele>
        <time>2017-05-27T10:33:21.506Z</time>
      </trkpt>
      <trkpt lat="39.95113667" lon="-0.32537833">
        <ele>288.0</ele>
        <time>2017-05-27T10:33:22.528Z</time>
      </trkpt>
      <trkpt lat="39.95113667" lon="-0.32537833">
        <ele>288.0</ele>
        <time>2017-05-27T10:33:23.496Z</time>
      </trkpt>
      <trkpt lat="39.95119167" lon="-0.32545333">
        <ele>288.0</ele>
        <time>2017-05-27T10:33:24.510Z</time>
      </trkpt>
      <trkpt lat="39.95119167" lon="-0.32545333">
        <ele>288.0</ele>
        <time>2017-05-27T10:33:25.520Z</time>
      </trkpt>
      <trkpt lat="39.951245" lon="-0.32553167">
        <ele>289.0</ele>
        <time>2017-05-27T10:33:26.502Z</time>
      </trkpt>
      <trkpt lat="39.95127167" lon="-0.32556833">
        <ele>289.0</ele>
        <time>2017-05-27T10:33:27.524Z</time>
      </trkpt>
      <trkpt lat="39.95129833" lon="-0.325605">
        <ele>289.0</ele>
        <time>2017-05-27T10:33:28.497Z</time>
      </trkpt>
      <trkpt lat="39.95129833" lon="-0.325605">
        <ele>289.0</ele>
        <time>2017-05-27T10:33:29.515Z</time>
      </trkpt>
      <trkpt lat="39.95135167" lon="-0.32568667">
        <ele>289.0</ele>
        <time>2017-05-27T10:33:30.492Z</time>
      </trkpt>
      <trkpt lat="39.95135167" lon="-0.32568667">
        <ele>289.0</ele>
        <time>2017-05-27T10:33:31.504Z</time>
      </trkpt>
      <trkpt lat="39.95140167" lon="-0.32577">
        <ele>289.0</ele>
        <time>2017-05-27T10:33:32.565Z</time>
      </trkpt>
      <trkpt lat="39.951425" lon="-0.325815">
        <ele>289.0</ele>
        <time>2017-05-27T10:33:33.526Z</time>
      </trkpt>
      <trkpt lat="39.951425" lon="-0.325815">
        <ele>289.0</ele>
        <time>2017-05-27T10:33:34.526Z</time>
      </trkpt>
      <trkpt lat="39.951465" lon="-0.32591167">
        <ele>289.0</ele>
        <time>2017-05-27T10:33:35.510Z</time>
      </trkpt>
      <trkpt lat="39.95148333" lon="-0.32596333">
        <ele>289.0</ele>
        <time>2017-05-27T10:33:36.492Z</time>
      </trkpt>
      <trkpt lat="39.95148333" lon="-0.32596333">
        <ele>289.0</ele>
        <time>2017-05-27T10:33:37.501Z</time>
      </trkpt>
      <trkpt lat="39.95151" lon="-0.32607167">
        <ele>289.0</ele>
        <time>2017-05-27T10:33:38.521Z</time>
      </trkpt>
      <trkpt lat="39.95152" lon="-0.326125">
        <ele>289.0</ele>
        <time>2017-05-27T10:33:39.524Z</time>
      </trkpt>
      <trkpt lat="39.95152" lon="-0.326125">
        <ele>289.0</ele>
        <time>2017-05-27T10:33:40.495Z</time>
      </trkpt>
      <trkpt lat="39.95153333" lon="-0.32624">
        <ele>288.0</ele>
        <time>2017-05-27T10:33:41.496Z</time>
      </trkpt>
      <trkpt lat="39.95154" lon="-0.3263">
        <ele>288.0</ele>
        <time>2017-05-27T10:33:42.523Z</time>
      </trkpt>
      <trkpt lat="39.95154" lon="-0.3263">
        <ele>288.0</ele>
        <time>2017-05-27T10:33:43.492Z</time>
      </trkpt>
      <trkpt lat="39.95154833" lon="-0.32642167">
        <ele>288.0</ele>
        <time>2017-05-27T10:33:44.513Z</time>
      </trkpt>
      <trkpt lat="39.95154833" lon="-0.32642167">
        <ele>288.0</ele>
        <time>2017-05-27T10:33:45.500Z</time>
      </trkpt>
      <trkpt lat="39.95155167" lon="-0.32655333">
        <ele>288.0</ele>
        <time>2017-05-27T10:33:46.520Z</time>
      </trkpt>
      <trkpt lat="39.95155167" lon="-0.32655333">
        <ele>288.0</ele>
        <time>2017-05-27T10:33:47.511Z</time>
      </trkpt>
      <trkpt lat="39.951555" lon="-0.32668833">
        <ele>287.0</ele>
        <time>2017-05-27T10:33:48.521Z</time>
      </trkpt>
      <trkpt lat="39.951555" lon="-0.32668833">
        <ele>287.0</ele>
        <time>2017-05-27T10:33:49.491Z</time>
      </trkpt>
      <trkpt lat="39.95158" lon="-0.326815">
        <ele>287.0</ele>
        <time>2017-05-27T10:33:50.520Z</time>
      </trkpt>
      <trkpt lat="39.95159333" lon="-0.32687">
        <ele>287.0</ele>
        <time>2017-05-27T10:33:51.527Z</time>
      </trkpt>
      <trkpt lat="39.95159333" lon="-0.32687">
        <ele>287.0</ele>
        <time>2017-05-27T10:33:52.508Z</time>
      </trkpt>
      <trkpt lat="39.95162667" lon="-0.32698167">
        <ele>286.0</ele>
        <time>2017-05-27T10:33:53.523Z</time>
      </trkpt>
      <trkpt lat="39.95162667" lon="-0.32698167">
        <ele>286.0</ele>
        <time>2017-05-27T10:33:54.491Z</time>
      </trkpt>
      <trkpt lat="39.95166833" lon="-0.32709167">
        <ele>286.0</ele>
        <time>2017-05-27T10:33:55.526Z</time>
      </trkpt>
      <trkpt lat="39.95166833" lon="-0.32709167">
        <ele>286.0</ele>
        <time>2017-05-27T10:33:56.520Z</time>
      </trkpt>
      <trkpt lat="39.95172167" lon="-0.32719167">
        <ele>285.0</ele>
        <time>2017-05-27T10:33:57.496Z</time>
      </trkpt>
      <trkpt lat="39.95172167" lon="-0.32719167">
        <ele>285.0</ele>
        <time>2017-05-27T10:33:58.508Z</time>
      </trkpt>
      <trkpt lat="39.951795" lon="-0.32727333">
        <ele>286.0</ele>
        <time>2017-05-27T10:33:59.519Z</time>
      </trkpt>
      <trkpt lat="39.951795" lon="-0.32727333">
        <ele>286.0</ele>
        <time>2017-05-27T10:34:00.528Z</time>
      </trkpt>
      <trkpt lat="39.951885" lon="-0.32731833">
        <ele>286.0</ele>
        <time>2017-05-27T10:34:01.507Z</time>
      </trkpt>
      <trkpt lat="39.951885" lon="-0.32731833">
        <ele>286.0</ele>
        <time>2017-05-27T10:34:02.505Z</time>
      </trkpt>
      <trkpt lat="39.95198" lon="-0.327345">
        <ele>287.0</ele>
        <time>2017-05-27T10:34:03.529Z</time>
      </trkpt>
      <trkpt lat="39.95198" lon="-0.327345">
        <ele>287.0</ele>
        <time>2017-05-27T10:34:04.500Z</time>
      </trkpt>
      <trkpt lat="39.952075" lon="-0.32736833">
        <ele>287.0</ele>
        <time>2017-05-27T10:34:05.517Z</time>
      </trkpt>
      <trkpt lat="39.95212" lon="-0.32738833">
        <ele>287.0</ele>
        <time>2017-05-27T10:34:06.513Z</time>
      </trkpt>
      <trkpt lat="39.95212" lon="-0.32738833">
        <ele>287.0</ele>
        <time>2017-05-27T10:34:07.495Z</time>
      </trkpt>
      <trkpt lat="39.95221" lon="-0.32744333">
        <ele>287.0</ele>
        <time>2017-05-27T10:34:08.528Z</time>
      </trkpt>
      <trkpt lat="39.95225333" lon="-0.32748">
        <ele>287.0</ele>
        <time>2017-05-27T10:34:09.518Z</time>
      </trkpt>
      <trkpt lat="39.95225333" lon="-0.32748">
        <ele>287.0</ele>
        <time>2017-05-27T10:34:10.512Z</time>
      </trkpt>
      <trkpt lat="39.95232833" lon="-0.32756667">
        <ele>287.0</ele>
        <time>2017-05-27T10:34:11.527Z</time>
      </trkpt>
      <trkpt lat="39.95232833" lon="-0.32756667">
        <ele>287.0</ele>
        <time>2017-05-27T10:34:12.509Z</time>
      </trkpt>
      <trkpt lat="39.952385" lon="-0.32768167">
        <ele>287.0</ele>
        <time>2017-05-27T10:34:13.529Z</time>
      </trkpt>
      <trkpt lat="39.952385" lon="-0.32768167">
        <ele>287.0</ele>
        <time>2017-05-27T10:34:14.503Z</time>
      </trkpt>
      <trkpt lat="39.95242" lon="-0.32781333">
        <ele>287.0</ele>
        <time>2017-05-27T10:34:15.526Z</time>
      </trkpt>
      <trkpt lat="39.95242" lon="-0.32781333">
        <ele>287.0</ele>
        <time>2017-05-27T10:34:16.497Z</time>
      </trkpt>
      <trkpt lat="39.95243667" lon="-0.32795167">
        <ele>286.0</ele>
        <time>2017-05-27T10:34:17.512Z</time>
      </trkpt>
      <trkpt lat="39.95243667" lon="-0.32795167">
        <ele>286.0</ele>
        <time>2017-05-27T10:34:18.524Z</time>
      </trkpt>
      <trkpt lat="39.95244833" lon="-0.32809167">
        <ele>286.0</ele>
        <time>2017-05-27T10:34:19.504Z</time>
      </trkpt>
      <trkpt lat="39.95244833" lon="-0.32809167">
        <ele>286.0</ele>
        <time>2017-05-27T10:34:20.525Z</time>
      </trkpt>
      <trkpt lat="39.95245" lon="-0.32824">
        <ele>285.0</ele>
        <time>2017-05-27T10:34:21.499Z</time>
      </trkpt>
      <trkpt lat="39.95245" lon="-0.32824">
        <ele>285.0</ele>
        <time>2017-05-27T10:34:22.509Z</time>
      </trkpt>
      <trkpt lat="39.95244667" lon="-0.32839">
        <ele>285.0</ele>
        <time>2017-05-27T10:34:23.494Z</time>
      </trkpt>
      <trkpt lat="39.95244667" lon="-0.32839">
        <ele>285.0</ele>
        <time>2017-05-27T10:34:24.502Z</time>
      </trkpt>
      <trkpt lat="39.95244167" lon="-0.328545">
        <ele>285.0</ele>
        <time>2017-05-27T10:34:25.515Z</time>
      </trkpt>
      <trkpt lat="39.95244167" lon="-0.328545">
        <ele>285.0</ele>
        <time>2017-05-27T10:34:26.526Z</time>
      </trkpt>
      <trkpt lat="39.95243833" lon="-0.32869333">
        <ele>285.0</ele>
        <time>2017-05-27T10:34:27.521Z</time>
      </trkpt>
      <trkpt lat="39.95243833" lon="-0.32869333">
        <ele>285.0</ele>
        <time>2017-05-27T10:34:28.514Z</time>
      </trkpt>
      <trkpt lat="39.95243667" lon="-0.32883833">
        <ele>285.0</ele>
        <time>2017-05-27T10:34:29.495Z</time>
      </trkpt>
      <trkpt lat="39.95243667" lon="-0.32883833">
        <ele>285.0</ele>
        <time>2017-05-27T10:34:30.513Z</time>
      </trkpt>
      <trkpt lat="39.95243167" lon="-0.328985">
        <ele>284.0</ele>
        <time>2017-05-27T10:34:31.495Z</time>
      </trkpt>
      <trkpt lat="39.952425" lon="-0.32905833">
        <ele>284.0</ele>
        <time>2017-05-27T10:34:32.513Z</time>
      </trkpt>
      <trkpt lat="39.952425" lon="-0.32905833">
        <ele>284.0</ele>
        <time>2017-05-27T10:34:33.507Z</time>
      </trkpt>
      <trkpt lat="39.95241" lon="-0.32920333">
        <ele>284.0</ele>
        <time>2017-05-27T10:34:34.491Z</time>
      </trkpt>
      <trkpt lat="39.95241" lon="-0.32920333">
        <ele>284.0</ele>
        <time>2017-05-27T10:34:35.501Z</time>
      </trkpt>
      <trkpt lat="39.95238833" lon="-0.32934833">
        <ele>284.0</ele>
        <time>2017-05-27T10:34:36.520Z</time>
      </trkpt>
      <trkpt lat="39.95238833" lon="-0.32934833">
        <ele>284.0</ele>
        <time>2017-05-27T10:34:37.493Z</time>
      </trkpt>
      <trkpt lat="39.95237167" lon="-0.32949667">
        <ele>283.0</ele>
        <time>2017-05-27T10:34:38.511Z</time>
      </trkpt>
      <trkpt lat="39.95236833" lon="-0.32957167">
        <ele>283.0</ele>
        <time>2017-05-27T10:34:39.526Z</time>
      </trkpt>
      <trkpt lat="39.95236833" lon="-0.32957167">
        <ele>283.0</ele>
        <time>2017-05-27T10:34:40.498Z</time>
      </trkpt>
      <trkpt lat="39.95237333" lon="-0.32972">
        <ele>283.0</ele>
        <time>2017-05-27T10:34:41.497Z</time>
      </trkpt>
      <trkpt lat="39.95237333" lon="-0.32972">
        <ele>283.0</ele>
        <time>2017-05-27T10:34:42.499Z</time>
      </trkpt>
      <trkpt lat="39.95240833" lon="-0.329845">
        <ele>283.0</ele>
        <time>2017-05-27T10:34:43.518Z</time>
      </trkpt>
      <trkpt lat="39.95240833" lon="-0.329845">
        <ele>283.0</ele>
        <time>2017-05-27T10:34:44.529Z</time>
      </trkpt>
      <trkpt lat="39.95249833" lon="-0.32991167">
        <ele>282.0</ele>
        <time>2017-05-27T10:34:45.511Z</time>
      </trkpt>
      <trkpt lat="39.95249833" lon="-0.32991167">
        <ele>282.0</ele>
        <time>2017-05-27T10:34:46.507Z</time>
      </trkpt>
      <trkpt lat="39.95259667" lon="-0.32991">
        <ele>282.0</ele>
        <time>2017-05-27T10:34:47.513Z</time>
      </trkpt>
      <trkpt lat="39.95259667" lon="-0.32991">
        <ele>282.0</ele>
        <time>2017-05-27T10:34:48.508Z</time>
      </trkpt>
      <trkpt lat="39.95266833" lon="-0.329825">
        <ele>282.0</ele>
        <time>2017-05-27T10:34:49.492Z</time>
      </trkpt>
      <trkpt lat="39.95266833" lon="-0.329825">
        <ele>282.0</ele>
        <time>2017-05-27T10:34:50.504Z</time>
      </trkpt>
      <trkpt lat="39.95272" lon="-0.32973">
        <ele>283.0</ele>
        <time>2017-05-27T10:34:51.530Z</time>
      </trkpt>
      <trkpt lat="39.95272" lon="-0.32973">
        <ele>283.0</ele>
        <time>2017-05-27T10:34:52.498Z</time>
      </trkpt>
      <trkpt lat="39.95277667" lon="-0.32962833">
        <ele>284.0</ele>
        <time>2017-05-27T10:34:53.526Z</time>
      </trkpt>
      <trkpt lat="39.952805" lon="-0.329575">
        <ele>285.0</ele>
        <time>2017-05-27T10:34:54.509Z</time>
      </trkpt>
      <trkpt lat="39.952805" lon="-0.329575">
        <ele>285.0</ele>
        <time>2017-05-27T10:34:55.508Z</time>
      </trkpt>
      <trkpt lat="39.95285333" lon="-0.329475">
        <ele>286.0</ele>
        <time>2017-05-27T10:34:56.492Z</time>
      </trkpt>
      <trkpt lat="39.95287333" lon="-0.32943">
        <ele>286.0</ele>
        <time>2017-05-27T10:34:57.494Z</time>
      </trkpt>
      <trkpt lat="39.95287333" lon="-0.32943">
        <ele>286.0</ele>
        <time>2017-05-27T10:34:58.515Z</time>
      </trkpt>
      <trkpt lat="39.95293667" lon="-0.329345">
        <ele>288.0</ele>
        <time>2017-05-27T10:34:59.496Z</time>
      </trkpt>
      <trkpt lat="39.95293667" lon="-0.329345">
        <ele>288.0</ele>
        <time>2017-05-27T10:35:00.512Z</time>
      </trkpt>
      <trkpt lat="39.95301333" lon="-0.32929333">
        <ele>288.0</ele>
        <time>2017-05-27T10:35:01.526Z</time>
      </trkpt>
      <trkpt lat="39.95301333" lon="-0.32929333">
        <ele>288.0</ele>
        <time>2017-05-27T10:35:02.530Z</time>
      </trkpt>
      <trkpt lat="39.95309333" lon="-0.32929">
        <ele>289.0</ele>
        <time>2017-05-27T10:35:03.508Z</time>
      </trkpt>
      <trkpt lat="39.95309333" lon="-0.32929">
        <ele>289.0</ele>
        <time>2017-05-27T10:35:04.524Z</time>
      </trkpt>
      <trkpt lat="39.95317" lon="-0.329335">
        <ele>290.0</ele>
        <time>2017-05-27T10:35:05.520Z</time>
      </trkpt>
      <trkpt lat="39.953205" lon="-0.32936667">
        <ele>290.0</ele>
        <time>2017-05-27T10:35:06.506Z</time>
      </trkpt>
      <trkpt lat="39.953205" lon="-0.32936667">
        <ele>290.0</ele>
        <time>2017-05-27T10:35:07.521Z</time>
      </trkpt>
      <trkpt lat="39.95327333" lon="-0.32944">
        <ele>290.0</ele>
        <time>2017-05-27T10:35:08.504Z</time>
      </trkpt>
      <trkpt lat="39.95330333" lon="-0.32948167">
        <ele>291.0</ele>
        <time>2017-05-27T10:35:09.524Z</time>
      </trkpt>
      <trkpt lat="39.95330333" lon="-0.32948167">
        <ele>291.0</ele>
        <time>2017-05-27T10:35:10.502Z</time>
      </trkpt>
      <trkpt lat="39.95335" lon="-0.32958167">
        <ele>291.0</ele>
        <time>2017-05-27T10:35:11.496Z</time>
      </trkpt>
      <trkpt lat="39.95335" lon="-0.32958167">
        <ele>291.0</ele>
        <time>2017-05-27T10:35:12.524Z</time>
      </trkpt>
      <trkpt lat="39.95336667" lon="-0.32969333">
        <ele>292.0</ele>
        <time>2017-05-27T10:35:13.500Z</time>
      </trkpt>
      <trkpt lat="39.95336667" lon="-0.32969333">
        <ele>292.0</ele>
        <time>2017-05-27T10:35:14.510Z</time>
      </trkpt>
      <trkpt lat="39.95336167" lon="-0.32980333">
        <ele>292.0</ele>
        <time>2017-05-27T10:35:15.491Z</time>
      </trkpt>
      <trkpt lat="39.95336167" lon="-0.32980333">
        <ele>292.0</ele>
        <time>2017-05-27T10:35:16.505Z</time>
      </trkpt>
      <trkpt lat="39.95334667" lon="-0.329915">
        <ele>292.0</ele>
        <time>2017-05-27T10:35:17.522Z</time>
      </trkpt>
      <trkpt lat="39.95333833" lon="-0.32997167">
        <ele>292.0</ele>
        <time>2017-05-27T10:35:18.491Z</time>
      </trkpt>
      <trkpt lat="39.95333833" lon="-0.32997167">
        <ele>292.0</ele>
        <time>2017-05-27T10:35:19.513Z</time>
      </trkpt>
      <trkpt lat="39.95331" lon="-0.330085">
        <ele>292.0</ele>
        <time>2017-05-27T10:35:20.493Z</time>
      </trkpt>
      <trkpt lat="39.95331" lon="-0.330085">
        <ele>292.0</ele>
        <time>2017-05-27T10:35:21.528Z</time>
      </trkpt>
      <trkpt lat="39.95329" lon="-0.33020167">
        <ele>292.0</ele>
        <time>2017-05-27T10:35:22.525Z</time>
      </trkpt>
      <trkpt lat="39.95328" lon="-0.330265">
        <ele>292.0</ele>
        <time>2017-05-27T10:35:23.500Z</time>
      </trkpt>
      <trkpt lat="39.95328" lon="-0.330265">
        <ele>292.0</ele>
        <time>2017-05-27T10:35:24.506Z</time>
      </trkpt>
      <trkpt lat="39.953265" lon="-0.33038833">
        <ele>292.0</ele>
        <time>2017-05-27T10:35:25.528Z</time>
      </trkpt>
      <trkpt lat="39.953265" lon="-0.33038833">
        <ele>292.0</ele>
        <time>2017-05-27T10:35:26.503Z</time>
      </trkpt>
      <trkpt lat="39.953265" lon="-0.33052">
        <ele>292.0</ele>
        <time>2017-05-27T10:35:27.493Z</time>
      </trkpt>
      <trkpt lat="39.953265" lon="-0.33052">
        <ele>292.0</ele>
        <time>2017-05-27T10:35:28.495Z</time>
      </trkpt>
      <trkpt lat="39.95327667" lon="-0.330655">
        <ele>292.0</ele>
        <time>2017-05-27T10:35:29.510Z</time>
      </trkpt>
      <trkpt lat="39.95327667" lon="-0.330655">
        <ele>292.0</ele>
        <time>2017-05-27T10:35:30.491Z</time>
      </trkpt>
      <trkpt lat="39.95329333" lon="-0.33078667">
        <ele>293.0</ele>
        <time>2017-05-27T10:35:31.521Z</time>
      </trkpt>
      <trkpt lat="39.95329333" lon="-0.33078667">
        <ele>293.0</ele>
        <time>2017-05-27T10:35:32.508Z</time>
      </trkpt>
      <trkpt lat="39.95331333" lon="-0.33090833">
        <ele>293.0</ele>
        <time>2017-05-27T10:35:33.522Z</time>
      </trkpt>
      <trkpt lat="39.95331333" lon="-0.33090833">
        <ele>293.0</ele>
        <time>2017-05-27T10:35:34.525Z</time>
      </trkpt>
      <trkpt lat="39.95333667" lon="-0.33103">
        <ele>293.0</ele>
        <time>2017-05-27T10:35:35.497Z</time>
      </trkpt>
      <trkpt lat="39.95334833" lon="-0.33109167">
        <ele>292.0</ele>
        <time>2017-05-27T10:35:36.530Z</time>
      </trkpt>
      <trkpt lat="39.95334833" lon="-0.33109167">
        <ele>292.0</ele>
        <time>2017-05-27T10:35:37.495Z</time>
      </trkpt>
      <trkpt lat="39.95338" lon="-0.33121">
        <ele>293.0</ele>
        <time>2017-05-27T10:35:38.517Z</time>
      </trkpt>
      <trkpt lat="39.95339333" lon="-0.33126833">
        <ele>292.0</ele>
        <time>2017-05-27T10:35:39.530Z</time>
      </trkpt>
      <trkpt lat="39.95339333" lon="-0.33126833">
        <ele>292.0</ele>
        <time>2017-05-27T10:35:40.499Z</time>
      </trkpt>
      <trkpt lat="39.95341667" lon="-0.33139167">
        <ele>292.0</ele>
        <time>2017-05-27T10:35:41.525Z</time>
      </trkpt>
      <trkpt lat="39.95341667" lon="-0.33139167">
        <ele>292.0</ele>
        <time>2017-05-27T10:35:42.507Z</time>
      </trkpt>
      <trkpt lat="39.95345" lon="-0.33151667">
        <ele>291.0</ele>
        <time>2017-05-27T10:35:43.523Z</time>
      </trkpt>
      <trkpt lat="39.953465" lon="-0.33158167">
        <ele>291.0</ele>
        <time>2017-05-27T10:35:44.514Z</time>
      </trkpt>
      <trkpt lat="39.953465" lon="-0.33158167">
        <ele>291.0</ele>
        <time>2017-05-27T10:35:45.526Z</time>
      </trkpt>
      <trkpt lat="39.953495" lon="-0.331705">
        <ele>291.0</ele>
        <time>2017-05-27T10:35:46.510Z</time>
      </trkpt>
      <trkpt lat="39.953495" lon="-0.331705">
        <ele>291.0</ele>
        <time>2017-05-27T10:35:47.521Z</time>
      </trkpt>
      <trkpt lat="39.95352167" lon="-0.33182833">
        <ele>290.0</ele>
        <time>2017-05-27T10:35:48.497Z</time>
      </trkpt>
      <trkpt lat="39.95352167" lon="-0.33182833">
        <ele>290.0</ele>
        <time>2017-05-27T10:35:49.515Z</time>
      </trkpt>
      <trkpt lat="39.95354667" lon="-0.33194667">
        <ele>290.0</ele>
        <time>2017-05-27T10:35:50.495Z</time>
      </trkpt>
      <trkpt lat="39.95356167" lon="-0.33201">
        <ele>290.0</ele>
        <time>2017-05-27T10:35:51.518Z</time>
      </trkpt>
      <trkpt lat="39.95356167" lon="-0.33201">
        <ele>290.0</ele>
        <time>2017-05-27T10:35:52.529Z</time>
      </trkpt>
      <trkpt lat="39.95359333" lon="-0.33213833">
        <ele>290.0</ele>
        <time>2017-05-27T10:35:53.514Z</time>
      </trkpt>
      <trkpt lat="39.95359333" lon="-0.33213833">
        <ele>290.0</ele>
        <time>2017-05-27T10:35:54.526Z</time>
      </trkpt>
      <trkpt lat="39.95362167" lon="-0.33226667">
        <ele>290.0</ele>
        <time>2017-05-27T10:35:55.504Z</time>
      </trkpt>
      <trkpt lat="39.95363" lon="-0.33233167">
        <ele>290.0</ele>
        <time>2017-05-27T10:35:56.491Z</time>
      </trkpt>
      <trkpt lat="39.95363667" lon="-0.332395">
        <ele>290.0</ele>
        <time>2017-05-27T10:35:57.516Z</time>
      </trkpt>
      <trkpt lat="39.95363667" lon="-0.332395">
        <ele>290.0</ele>
        <time>2017-05-27T10:35:58.529Z</time>
      </trkpt>
      <trkpt lat="39.953645" lon="-0.33252333">
        <ele>290.0</ele>
        <time>2017-05-27T10:35:59.510Z</time>
      </trkpt>
      <trkpt lat="39.953645" lon="-0.33252333">
        <ele>290.0</ele>
        <time>2017-05-27T10:36:00.520Z</time>
      </trkpt>
      <trkpt lat="39.95365167" lon="-0.33265667">
        <ele>290.0</ele>
        <time>2017-05-27T10:36:01.508Z</time>
      </trkpt>
      <trkpt lat="39.953655" lon="-0.332725">
        <ele>290.0</ele>
        <time>2017-05-27T10:36:02.535Z</time>
      </trkpt>
      <trkpt lat="39.953655" lon="-0.332725">
        <ele>290.0</ele>
        <time>2017-05-27T10:36:03.529Z</time>
      </trkpt>
      <trkpt lat="39.95365667" lon="-0.33286">
        <ele>290.0</ele>
        <time>2017-05-27T10:36:04.513Z</time>
      </trkpt>
      <trkpt lat="39.95365667" lon="-0.33286">
        <ele>290.0</ele>
        <time>2017-05-27T10:36:05.509Z</time>
      </trkpt>
      <trkpt lat="39.95366333" lon="-0.332995">
        <ele>290.0</ele>
        <time>2017-05-27T10:36:06.491Z</time>
      </trkpt>
      <trkpt lat="39.95366333" lon="-0.332995">
        <ele>290.0</ele>
        <time>2017-05-27T10:36:07.515Z</time>
      </trkpt>
      <trkpt lat="39.95366" lon="-0.33313167">
        <ele>290.0</ele>
        <time>2017-05-27T10:36:08.498Z</time>
      </trkpt>
      <trkpt lat="39.95366" lon="-0.3332">
        <ele>290.0</ele>
        <time>2017-05-27T10:36:09.522Z</time>
      </trkpt>
      <trkpt lat="39.95366" lon="-0.3332">
        <ele>290.0</ele>
        <time>2017-05-27T10:36:10.514Z</time>
      </trkpt>
      <trkpt lat="39.95366" lon="-0.33334333">
        <ele>289.0</ele>
        <time>2017-05-27T10:36:11.504Z</time>
      </trkpt>
      <trkpt lat="39.95366667" lon="-0.333415">
        <ele>289.0</ele>
        <time>2017-05-27T10:36:12.531Z</time>
      </trkpt>
      <trkpt lat="39.95366667" lon="-0.333415">
        <ele>289.0</ele>
        <time>2017-05-27T10:36:13.524Z</time>
      </trkpt>
      <trkpt lat="39.953705" lon="-0.33355833">
        <ele>288.0</ele>
        <time>2017-05-27T10:36:14.497Z</time>
      </trkpt>
      <trkpt lat="39.95373167" lon="-0.33363">
        <ele>288.0</ele>
        <time>2017-05-27T10:36:15.498Z</time>
      </trkpt>
      <trkpt lat="39.95373167" lon="-0.33363">
        <ele>288.0</ele>
        <time>2017-05-27T10:36:16.502Z</time>
      </trkpt>
      <trkpt lat="39.95378667" lon="-0.33376833">
        <ele>288.0</ele>
        <time>2017-05-27T10:36:17.525Z</time>
      </trkpt>
      <trkpt lat="39.95381333" lon="-0.33383667">
        <ele>288.0</ele>
        <time>2017-05-27T10:36:18.514Z</time>
      </trkpt>
      <trkpt lat="39.95384667" lon="-0.3339">
        <ele>288.0</ele>
        <time>2017-05-27T10:36:19.511Z</time>
      </trkpt>
      <trkpt lat="39.95384667" lon="-0.3339">
        <ele>288.0</ele>
        <time>2017-05-27T10:36:20.501Z</time>
      </trkpt>
      <trkpt lat="39.95390833" lon="-0.33402833">
        <ele>289.0</ele>
        <time>2017-05-27T10:36:21.499Z</time>
      </trkpt>
      <trkpt lat="39.95390833" lon="-0.33402833">
        <ele>289.0</ele>
        <time>2017-05-27T10:36:22.516Z</time>
      </trkpt>
      <trkpt lat="39.95395833" lon="-0.33415333">
        <ele>289.0</ele>
        <time>2017-05-27T10:36:23.498Z</time>
      </trkpt>
      <trkpt lat="39.95395833" lon="-0.33415333">
        <ele>289.0</ele>
        <time>2017-05-27T10:36:24.517Z</time>
      </trkpt>
      <trkpt lat="39.95401" lon="-0.33427333">
        <ele>289.0</ele>
        <time>2017-05-27T10:36:25.530Z</time>
      </trkpt>
      <trkpt lat="39.95401" lon="-0.33427333">
        <ele>289.0</ele>
        <time>2017-05-27T10:36:26.526Z</time>
      </trkpt>
      <trkpt lat="39.95406" lon="-0.33439167">
        <ele>289.0</ele>
        <time>2017-05-27T10:36:27.507Z</time>
      </trkpt>
      <trkpt lat="39.95406" lon="-0.33439167">
        <ele>289.0</ele>
        <time>2017-05-27T10:36:28.516Z</time>
      </trkpt>
      <trkpt lat="39.954115" lon="-0.33450667">
        <ele>289.0</ele>
        <time>2017-05-27T10:36:29.499Z</time>
      </trkpt>
      <trkpt lat="39.954115" lon="-0.33450667">
        <ele>289.0</ele>
        <time>2017-05-27T10:36:30.508Z</time>
      </trkpt>
      <trkpt lat="39.95416667" lon="-0.33462333">
        <ele>289.0</ele>
        <time>2017-05-27T10:36:31.530Z</time>
      </trkpt>
      <trkpt lat="39.95416667" lon="-0.33462333">
        <ele>289.0</ele>
        <time>2017-05-27T10:36:32.501Z</time>
      </trkpt>
      <trkpt lat="39.95421167" lon="-0.33472333">
        <ele>291.0</ele>
        <time>2017-05-27T10:36:33.517Z</time>
      </trkpt>
      <trkpt lat="39.95421167" lon="-0.33472333">
        <ele>291.0</ele>
        <time>2017-05-27T10:36:34.508Z</time>
      </trkpt>
      <trkpt lat="39.95425" lon="-0.33480667">
        <ele>291.0</ele>
        <time>2017-05-27T10:36:35.524Z</time>
      </trkpt>
      <trkpt lat="39.95425" lon="-0.33480667">
        <ele>291.0</ele>
        <time>2017-05-27T10:36:36.494Z</time>
      </trkpt>
      <trkpt lat="39.95429333" lon="-0.33489167">
        <ele>291.0</ele>
        <time>2017-05-27T10:36:37.511Z</time>
      </trkpt>
      <trkpt lat="39.95429333" lon="-0.33489167">
        <ele>291.0</ele>
        <time>2017-05-27T10:36:38.492Z</time>
      </trkpt>
      <trkpt lat="39.95433333" lon="-0.33497167">
        <ele>292.0</ele>
        <time>2017-05-27T10:36:39.504Z</time>
      </trkpt>
      <trkpt lat="39.95433333" lon="-0.33497167">
        <ele>292.0</ele>
        <time>2017-05-27T10:36:40.524Z</time>
      </trkpt>
      <trkpt lat="39.95436667" lon="-0.335055">
        <ele>292.0</ele>
        <time>2017-05-27T10:36:41.496Z</time>
      </trkpt>
      <trkpt lat="39.954385" lon="-0.33509333">
        <ele>293.0</ele>
        <time>2017-05-27T10:36:42.531Z</time>
      </trkpt>
      <trkpt lat="39.954385" lon="-0.33509333">
        <ele>293.0</ele>
        <time>2017-05-27T10:36:43.494Z</time>
      </trkpt>
      <trkpt lat="39.954415" lon="-0.335175">
        <ele>293.0</ele>
        <time>2017-05-27T10:36:44.517Z</time>
      </trkpt>
      <trkpt lat="39.95443" lon="-0.33521167">
        <ele>293.0</ele>
        <time>2017-05-27T10:36:45.528Z</time>
      </trkpt>
      <trkpt lat="39.95443" lon="-0.33521167">
        <ele>293.0</ele>
        <time>2017-05-27T10:36:46.496Z</time>
      </trkpt>
      <trkpt lat="39.95446333" lon="-0.33528833">
        <ele>294.0</ele>
        <time>2017-05-27T10:36:47.513Z</time>
      </trkpt>
      <trkpt lat="39.95447667" lon="-0.33533">
        <ele>294.0</ele>
        <time>2017-05-27T10:36:48.518Z</time>
      </trkpt>
      <trkpt lat="39.95447667" lon="-0.33533">
        <ele>294.0</ele>
        <time>2017-05-27T10:36:49.525Z</time>
      </trkpt>
      <trkpt lat="39.954495" lon="-0.335415">
        <ele>294.0</ele>
        <time>2017-05-27T10:36:50.537Z</time>
      </trkpt>
      <trkpt lat="39.95450333" lon="-0.335455">
        <ele>294.0</ele>
        <time>2017-05-27T10:36:51.540Z</time>
      </trkpt>
      <trkpt lat="39.95450333" lon="-0.335455">
        <ele>294.0</ele>
        <time>2017-05-27T10:36:52.509Z</time>
      </trkpt>
      <trkpt lat="39.95451333" lon="-0.33554">
        <ele>295.0</ele>
        <time>2017-05-27T10:36:53.492Z</time>
      </trkpt>
      <trkpt lat="39.95452" lon="-0.33558333">
        <ele>294.0</ele>
        <time>2017-05-27T10:36:54.498Z</time>
      </trkpt>
      <trkpt lat="39.95452" lon="-0.33558333">
        <ele>294.0</ele>
        <time>2017-05-27T10:36:55.528Z</time>
      </trkpt>
      <trkpt lat="39.95453667" lon="-0.33565833">
        <ele>294.0</ele>
        <time>2017-05-27T10:36:56.513Z</time>
      </trkpt>
      <trkpt lat="39.95453667" lon="-0.33565833">
        <ele>294.0</ele>
        <time>2017-05-27T10:36:57.500Z</time>
      </trkpt>
      <trkpt lat="39.95455167" lon="-0.33573333">
        <ele>294.0</ele>
        <time>2017-05-27T10:36:58.523Z</time>
      </trkpt>
      <trkpt lat="39.95455167" lon="-0.33573333">
        <ele>294.0</ele>
        <time>2017-05-27T10:36:59.524Z</time>
      </trkpt>
      <trkpt lat="39.95456667" lon="-0.33581167">
        <ele>294.0</ele>
        <time>2017-05-27T10:37:00.518Z</time>
      </trkpt>
      <trkpt lat="39.95456667" lon="-0.33581167">
        <ele>294.0</ele>
        <time>2017-05-27T10:37:01.522Z</time>
      </trkpt>
      <trkpt lat="39.95457833" lon="-0.33589333">
        <ele>295.0</ele>
        <time>2017-05-27T10:37:02.512Z</time>
      </trkpt>
      <trkpt lat="39.95457833" lon="-0.33589333">
        <ele>295.0</ele>
        <time>2017-05-27T10:37:03.500Z</time>
      </trkpt>
      <trkpt lat="39.95458667" lon="-0.335975">
        <ele>295.0</ele>
        <time>2017-05-27T10:37:04.523Z</time>
      </trkpt>
      <trkpt lat="39.95458667" lon="-0.335975">
        <ele>295.0</ele>
        <time>2017-05-27T10:37:05.494Z</time>
      </trkpt>
      <trkpt lat="39.95459333" lon="-0.33605833">
        <ele>295.0</ele>
        <time>2017-05-27T10:37:06.527Z</time>
      </trkpt>
      <trkpt lat="39.95459333" lon="-0.33605833">
        <ele>295.0</ele>
        <time>2017-05-27T10:37:07.496Z</time>
      </trkpt>
      <trkpt lat="39.95460667" lon="-0.33613667">
        <ele>295.0</ele>
        <time>2017-05-27T10:37:08.517Z</time>
      </trkpt>
      <trkpt lat="39.95461667" lon="-0.33617333">
        <ele>296.0</ele>
        <time>2017-05-27T10:37:09.508Z</time>
      </trkpt>
      <trkpt lat="39.95461667" lon="-0.33617333">
        <ele>296.0</ele>
        <time>2017-05-27T10:37:10.516Z</time>
      </trkpt>
      <trkpt lat="39.95462833" lon="-0.336255">
        <ele>296.0</ele>
        <time>2017-05-27T10:37:11.493Z</time>
      </trkpt>
      <trkpt lat="39.95462833" lon="-0.336255">
        <ele>296.0</ele>
        <time>2017-05-27T10:37:12.527Z</time>
      </trkpt>
      <trkpt lat="39.95464167" lon="-0.336335">
        <ele>296.0</ele>
        <time>2017-05-27T10:37:13.521Z</time>
      </trkpt>
      <trkpt lat="39.95465" lon="-0.336375">
        <ele>296.0</ele>
        <time>2017-05-27T10:37:14.511Z</time>
      </trkpt>
      <trkpt lat="39.95465" lon="-0.336375">
        <ele>296.0</ele>
        <time>2017-05-27T10:37:15.500Z</time>
      </trkpt>
      <trkpt lat="39.95466167" lon="-0.336455">
        <ele>296.0</ele>
        <time>2017-05-27T10:37:16.531Z</time>
      </trkpt>
      <trkpt lat="39.95466167" lon="-0.336455">
        <ele>296.0</ele>
        <time>2017-05-27T10:37:17.510Z</time>
      </trkpt>
      <trkpt lat="39.95467333" lon="-0.336535">
        <ele>296.0</ele>
        <time>2017-05-27T10:37:18.497Z</time>
      </trkpt>
      <trkpt lat="39.95467333" lon="-0.336535">
        <ele>296.0</ele>
        <time>2017-05-27T10:37:19.517Z</time>
      </trkpt>
      <trkpt lat="39.95468333" lon="-0.336615">
        <ele>296.0</ele>
        <time>2017-05-27T10:37:20.496Z</time>
      </trkpt>
      <trkpt lat="39.95468667" lon="-0.33665333">
        <ele>296.0</ele>
        <time>2017-05-27T10:37:21.495Z</time>
      </trkpt>
      <trkpt lat="39.95468667" lon="-0.33665333">
        <ele>296.0</ele>
        <time>2017-05-27T10:37:22.506Z</time>
      </trkpt>
      <trkpt lat="39.95468667" lon="-0.33673333">
        <ele>296.0</ele>
        <time>2017-05-27T10:37:23.523Z</time>
      </trkpt>
      <trkpt lat="39.95468667" lon="-0.33673333">
        <ele>296.0</ele>
        <time>2017-05-27T10:37:24.500Z</time>
      </trkpt>
      <trkpt lat="39.95469" lon="-0.33681">
        <ele>297.0</ele>
        <time>2017-05-27T10:37:25.521Z</time>
      </trkpt>
      <trkpt lat="39.95469" lon="-0.33681">
        <ele>297.0</ele>
        <time>2017-05-27T10:37:26.508Z</time>
      </trkpt>
      <trkpt lat="39.95469333" lon="-0.33688667">
        <ele>297.0</ele>
        <time>2017-05-27T10:37:27.530Z</time>
      </trkpt>
      <trkpt lat="39.95469333" lon="-0.33688667">
        <ele>297.0</ele>
        <time>2017-05-27T10:37:28.509Z</time>
      </trkpt>
      <trkpt lat="39.95469" lon="-0.33697">
        <ele>297.0</ele>
        <time>2017-05-27T10:37:29.527Z</time>
      </trkpt>
      <trkpt lat="39.95469" lon="-0.33697">
        <ele>297.0</ele>
        <time>2017-05-27T10:37:30.512Z</time>
      </trkpt>
      <trkpt lat="39.95468833" lon="-0.33704833">
        <ele>297.0</ele>
        <time>2017-05-27T10:37:31.495Z</time>
      </trkpt>
      <trkpt lat="39.95468833" lon="-0.33704833">
        <ele>297.0</ele>
        <time>2017-05-27T10:37:32.513Z</time>
      </trkpt>
      <trkpt lat="39.95467" lon="-0.337125">
        <ele>297.0</ele>
        <time>2017-05-27T10:37:33.493Z</time>
      </trkpt>
      <trkpt lat="39.95467" lon="-0.337125">
        <ele>297.0</ele>
        <time>2017-05-27T10:37:34.503Z</time>
      </trkpt>
      <trkpt lat="39.95465667" lon="-0.33719333">
        <ele>297.0</ele>
        <time>2017-05-27T10:37:35.524Z</time>
      </trkpt>
      <trkpt lat="39.95465" lon="-0.33722667">
        <ele>298.0</ele>
        <time>2017-05-27T10:37:36.510Z</time>
      </trkpt>
      <trkpt lat="39.95465" lon="-0.33722667">
        <ele>298.0</ele>
        <time>2017-05-27T10:37:37.496Z</time>
      </trkpt>
      <trkpt lat="39.95463667" lon="-0.33729833">
        <ele>298.0</ele>
        <time>2017-05-27T10:37:38.512Z</time>
      </trkpt>
      <trkpt lat="39.95462667" lon="-0.33733167">
        <ele>299.0</ele>
        <time>2017-05-27T10:37:39.516Z</time>
      </trkpt>
      <trkpt lat="39.95462667" lon="-0.33733167">
        <ele>299.0</ele>
        <time>2017-05-27T10:37:40.500Z</time>
      </trkpt>
      <trkpt lat="39.95460833" lon="-0.33740333">
        <ele>299.0</ele>
        <time>2017-05-27T10:37:41.515Z</time>
      </trkpt>
      <trkpt lat="39.95459833" lon="-0.33743667">
        <ele>299.0</ele>
        <time>2017-05-27T10:37:42.495Z</time>
      </trkpt>
      <trkpt lat="39.95459833" lon="-0.33743667">
        <ele>299.0</ele>
        <time>2017-05-27T10:37:43.503Z</time>
      </trkpt>
      <trkpt lat="39.95458" lon="-0.33751167">
        <ele>300.0</ele>
        <time>2017-05-27T10:37:44.522Z</time>
      </trkpt>
      <trkpt lat="39.95458" lon="-0.33751167">
        <ele>300.0</ele>
        <time>2017-05-27T10:37:45.511Z</time>
      </trkpt>
      <trkpt lat="39.95456" lon="-0.33758667">
        <ele>300.0</ele>
        <time>2017-05-27T10:37:46.526Z</time>
      </trkpt>
      <trkpt lat="39.954555" lon="-0.33762">
        <ele>300.0</ele>
        <time>2017-05-27T10:37:47.497Z</time>
      </trkpt>
      <trkpt lat="39.954555" lon="-0.33762">
        <ele>300.0</ele>
        <time>2017-05-27T10:37:48.491Z</time>
      </trkpt>
      <trkpt lat="39.954535" lon="-0.33768667">
        <ele>300.0</ele>
        <time>2017-05-27T10:37:49.527Z</time>
      </trkpt>
      <trkpt lat="39.954535" lon="-0.33768667">
        <ele>300.0</ele>
        <time>2017-05-27T10:37:50.515Z</time>
      </trkpt>
      <trkpt lat="39.954515" lon="-0.33775333">
        <ele>301.0</ele>
        <time>2017-05-27T10:37:51.491Z</time>
      </trkpt>
      <trkpt lat="39.954515" lon="-0.33775333">
        <ele>301.0</ele>
        <time>2017-05-27T10:37:52.500Z</time>
      </trkpt>
      <trkpt lat="39.954495" lon="-0.33781667">
        <ele>301.0</ele>
        <time>2017-05-27T10:37:53.512Z</time>
      </trkpt>
      <trkpt lat="39.954495" lon="-0.33781667">
        <ele>301.0</ele>
        <time>2017-05-27T10:37:54.530Z</time>
      </trkpt>
      <trkpt lat="39.95447333" lon="-0.33789">
        <ele>302.0</ele>
        <time>2017-05-27T10:37:55.525Z</time>
      </trkpt>
      <trkpt lat="39.95447333" lon="-0.33789">
        <ele>302.0</ele>
        <time>2017-05-27T10:37:56.497Z</time>
      </trkpt>
      <trkpt lat="39.95444667" lon="-0.33796333">
        <ele>303.0</ele>
        <time>2017-05-27T10:37:57.508Z</time>
      </trkpt>
      <trkpt lat="39.95444667" lon="-0.33796333">
        <ele>303.0</ele>
        <time>2017-05-27T10:37:58.528Z</time>
      </trkpt>
      <trkpt lat="39.954425" lon="-0.33803833">
        <ele>304.0</ele>
        <time>2017-05-27T10:37:59.507Z</time>
      </trkpt>
      <trkpt lat="39.954415" lon="-0.33807667">
        <ele>304.0</ele>
        <time>2017-05-27T10:38:00.530Z</time>
      </trkpt>
      <trkpt lat="39.954415" lon="-0.33807667">
        <ele>304.0</ele>
        <time>2017-05-27T10:38:01.496Z</time>
      </trkpt>
      <trkpt lat="39.954405" lon="-0.338145">
        <ele>305.0</ele>
        <time>2017-05-27T10:38:02.510Z</time>
      </trkpt>
      <trkpt lat="39.954405" lon="-0.338145">
        <ele>305.0</ele>
        <time>2017-05-27T10:38:03.510Z</time>
      </trkpt>
      <trkpt lat="39.95438833" lon="-0.33821333">
        <ele>305.0</ele>
        <time>2017-05-27T10:38:04.503Z</time>
      </trkpt>
      <trkpt lat="39.95438833" lon="-0.33821333">
        <ele>305.0</ele>
        <time>2017-05-27T10:38:05.513Z</time>
      </trkpt>
      <trkpt lat="39.95437167" lon="-0.33828167">
        <ele>306.0</ele>
        <time>2017-05-27T10:38:06.517Z</time>
      </trkpt>
      <trkpt lat="39.95437167" lon="-0.33828167">
        <ele>306.0</ele>
        <time>2017-05-27T10:38:07.527Z</time>
      </trkpt>
      <trkpt lat="39.95436167" lon="-0.33834333">
        <ele>307.0</ele>
        <time>2017-05-27T10:38:08.496Z</time>
      </trkpt>
      <trkpt lat="39.954355" lon="-0.33837333">
        <ele>307.0</ele>
        <time>2017-05-27T10:38:09.515Z</time>
      </trkpt>
      <trkpt lat="39.954355" lon="-0.33837333">
        <ele>307.0</ele>
        <time>2017-05-27T10:38:10.492Z</time>
      </trkpt>
      <trkpt lat="39.95434833" lon="-0.33843833">
        <ele>308.0</ele>
        <time>2017-05-27T10:38:11.522Z</time>
      </trkpt>
      <trkpt lat="39.954345" lon="-0.33846833">
        <ele>308.0</ele>
        <time>2017-05-27T10:38:12.525Z</time>
      </trkpt>
      <trkpt lat="39.954345" lon="-0.33846833">
        <ele>308.0</ele>
        <time>2017-05-27T10:38:13.493Z</time>
      </trkpt>
      <trkpt lat="39.95434667" lon="-0.338535">
        <ele>309.0</ele>
        <time>2017-05-27T10:38:14.503Z</time>
      </trkpt>
      <trkpt lat="39.95434667" lon="-0.338535">
        <ele>309.0</ele>
        <time>2017-05-27T10:38:15.519Z</time>
      </trkpt>
      <trkpt lat="39.95435333" lon="-0.33860167">
        <ele>308.0</ele>
        <time>2017-05-27T10:38:16.520Z</time>
      </trkpt>
      <trkpt lat="39.95435333" lon="-0.33860167">
        <ele>308.0</ele>
        <time>2017-05-27T10:38:17.514Z</time>
      </trkpt>
      <trkpt lat="39.95435833" lon="-0.338675">
        <ele>308.0</ele>
        <time>2017-05-27T10:38:18.501Z</time>
      </trkpt>
      <trkpt lat="39.95435833" lon="-0.33871">
        <ele>308.0</ele>
        <time>2017-05-27T10:38:19.497Z</time>
      </trkpt>
      <trkpt lat="39.95435833" lon="-0.33871">
        <ele>308.0</ele>
        <time>2017-05-27T10:38:20.523Z</time>
      </trkpt>
      <trkpt lat="39.954365" lon="-0.33878333">
        <ele>308.0</ele>
        <time>2017-05-27T10:38:21.501Z</time>
      </trkpt>
      <trkpt lat="39.954365" lon="-0.33878333">
        <ele>308.0</ele>
        <time>2017-05-27T10:38:22.516Z</time>
      </trkpt>
      <trkpt lat="39.95437167" lon="-0.338855">
        <ele>308.0</ele>
        <time>2017-05-27T10:38:23.493Z</time>
      </trkpt>
      <trkpt lat="39.95437667" lon="-0.33889">
        <ele>309.0</ele>
        <time>2017-05-27T10:38:24.514Z</time>
      </trkpt>
      <trkpt lat="39.95437667" lon="-0.33889">
        <ele>309.0</ele>
        <time>2017-05-27T10:38:25.496Z</time>
      </trkpt>
      <trkpt lat="39.95438833" lon="-0.33896333">
        <ele>309.0</ele>
        <time>2017-05-27T10:38:26.507Z</time>
      </trkpt>
      <trkpt lat="39.95439167" lon="-0.33899833">
        <ele>310.0</ele>
        <time>2017-05-27T10:38:27.516Z</time>
      </trkpt>
      <trkpt lat="39.95439167" lon="-0.33899833">
        <ele>310.0</ele>
        <time>2017-05-27T10:38:28.497Z</time>
      </trkpt>
      <trkpt lat="39.954405" lon="-0.33906833">
        <ele>311.0</ele>
        <time>2017-05-27T10:38:29.518Z</time>
      </trkpt>
      <trkpt lat="39.95441" lon="-0.33910667">
        <ele>311.0</ele>
        <time>2017-05-27T10:38:30.530Z</time>
      </trkpt>
      <trkpt lat="39.95441" lon="-0.33910667">
        <ele>311.0</ele>
        <time>2017-05-27T10:38:31.523Z</time>
      </trkpt>
      <trkpt lat="39.95442167" lon="-0.33918">
        <ele>312.0</ele>
        <time>2017-05-27T10:38:32.495Z</time>
      </trkpt>
      <trkpt lat="39.95442667" lon="-0.33921667">
        <ele>312.0</ele>
        <time>2017-05-27T10:38:33.520Z</time>
      </trkpt>
      <trkpt lat="39.95442667" lon="-0.33921667">
        <ele>312.0</ele>
        <time>2017-05-27T10:38:34.497Z</time>
      </trkpt>
      <trkpt lat="39.95443333" lon="-0.33929">
        <ele>312.0</ele>
        <time>2017-05-27T10:38:35.522Z</time>
      </trkpt>
      <trkpt lat="39.95443667" lon="-0.33932667">
        <ele>312.0</ele>
        <time>2017-05-27T10:38:36.533Z</time>
      </trkpt>
      <trkpt lat="39.95443667" lon="-0.33932667">
        <ele>312.0</ele>
        <time>2017-05-27T10:38:37.521Z</time>
      </trkpt>
      <trkpt lat="39.95444333" lon="-0.33939833">
        <ele>312.0</ele>
        <time>2017-05-27T10:38:38.530Z</time>
      </trkpt>
      <trkpt lat="39.95444667" lon="-0.339435">
        <ele>312.0</ele>
        <time>2017-05-27T10:38:39.510Z</time>
      </trkpt>
      <trkpt lat="39.95444667" lon="-0.339435">
        <ele>312.0</ele>
        <time>2017-05-27T10:38:40.495Z</time>
      </trkpt>
      <trkpt lat="39.95444833" lon="-0.33950833">
        <ele>313.0</ele>
        <time>2017-05-27T10:38:41.522Z</time>
      </trkpt>
      <trkpt lat="39.95445" lon="-0.339545">
        <ele>314.0</ele>
        <time>2017-05-27T10:38:42.529Z</time>
      </trkpt>
      <trkpt lat="39.95445" lon="-0.339545">
        <ele>314.0</ele>
        <time>2017-05-27T10:38:43.517Z</time>
      </trkpt>
      <trkpt lat="39.954455" lon="-0.33961667">
        <ele>314.0</ele>
        <time>2017-05-27T10:38:44.503Z</time>
      </trkpt>
      <trkpt lat="39.95445833" lon="-0.33965333">
        <ele>315.0</ele>
        <time>2017-05-27T10:38:45.493Z</time>
      </trkpt>
      <trkpt lat="39.95445833" lon="-0.33965333">
        <ele>315.0</ele>
        <time>2017-05-27T10:38:46.508Z</time>
      </trkpt>
      <trkpt lat="39.95446333" lon="-0.33972">
        <ele>315.0</ele>
        <time>2017-05-27T10:38:47.530Z</time>
      </trkpt>
      <trkpt lat="39.95446667" lon="-0.33975333">
        <ele>315.0</ele>
        <time>2017-05-27T10:38:48.520Z</time>
      </trkpt>
      <trkpt lat="39.95446667" lon="-0.33975333">
        <ele>315.0</ele>
        <time>2017-05-27T10:38:49.493Z</time>
      </trkpt>
      <trkpt lat="39.954475" lon="-0.33981667">
        <ele>315.0</ele>
        <time>2017-05-27T10:38:50.516Z</time>
      </trkpt>
      <trkpt lat="39.95448" lon="-0.33984833">
        <ele>315.0</ele>
        <time>2017-05-27T10:38:51.507Z</time>
      </trkpt>
      <trkpt lat="39.95448" lon="-0.33984833">
        <ele>315.0</ele>
        <time>2017-05-27T10:38:52.530Z</time>
      </trkpt>
      <trkpt lat="39.954485" lon="-0.33991167">
        <ele>314.0</ele>
        <time>2017-05-27T10:38:53.506Z</time>
      </trkpt>
      <trkpt lat="39.954485" lon="-0.33991167">
        <ele>314.0</ele>
        <time>2017-05-27T10:38:54.509Z</time>
      </trkpt>
      <trkpt lat="39.954495" lon="-0.339975">
        <ele>315.0</ele>
        <time>2017-05-27T10:38:55.524Z</time>
      </trkpt>
      <trkpt lat="39.954495" lon="-0.339975">
        <ele>315.0</ele>
        <time>2017-05-27T10:38:56.531Z</time>
      </trkpt>
      <trkpt lat="39.95449833" lon="-0.34004333">
        <ele>315.0</ele>
        <time>2017-05-27T10:38:57.491Z</time>
      </trkpt>
      <trkpt lat="39.95449833" lon="-0.34004333">
        <ele>315.0</ele>
        <time>2017-05-27T10:38:58.492Z</time>
      </trkpt>
      <trkpt lat="39.95450667" lon="-0.34011167">
        <ele>315.0</ele>
        <time>2017-05-27T10:38:59.505Z</time>
      </trkpt>
      <trkpt lat="39.95450667" lon="-0.34011167">
        <ele>315.0</ele>
        <time>2017-05-27T10:39:00.527Z</time>
      </trkpt>
      <trkpt lat="39.95452" lon="-0.34017167">
        <ele>315.0</ele>
        <time>2017-05-27T10:39:01.505Z</time>
      </trkpt>
      <trkpt lat="39.95452" lon="-0.34017167">
        <ele>315.0</ele>
        <time>2017-05-27T10:39:02.491Z</time>
      </trkpt>
      <trkpt lat="39.95452" lon="-0.34023333">
        <ele>315.0</ele>
        <time>2017-05-27T10:39:03.500Z</time>
      </trkpt>
      <trkpt lat="39.95452" lon="-0.34023333">
        <ele>315.0</ele>
        <time>2017-05-27T10:39:04.492Z</time>
      </trkpt>
      <trkpt lat="39.95452" lon="-0.34029833">
        <ele>316.0</ele>
        <time>2017-05-27T10:39:05.507Z</time>
      </trkpt>
      <trkpt lat="39.95452" lon="-0.34033">
        <ele>316.0</ele>
        <time>2017-05-27T10:39:06.531Z</time>
      </trkpt>
      <trkpt lat="39.95451667" lon="-0.34036333">
        <ele>316.0</ele>
        <time>2017-05-27T10:39:07.517Z</time>
      </trkpt>
      <trkpt lat="39.95451667" lon="-0.34036333">
        <ele>316.0</ele>
        <time>2017-05-27T10:39:08.492Z</time>
      </trkpt>
      <trkpt lat="39.95451667" lon="-0.34042833">
        <ele>317.0</ele>
        <time>2017-05-27T10:39:09.510Z</time>
      </trkpt>
      <trkpt lat="39.95451667" lon="-0.34042833">
        <ele>317.0</ele>
        <time>2017-05-27T10:39:10.526Z</time>
      </trkpt>
      <trkpt lat="39.95451833" lon="-0.34049833">
        <ele>317.0</ele>
        <time>2017-05-27T10:39:11.507Z</time>
      </trkpt>
      <trkpt lat="39.95451833" lon="-0.34049833">
        <ele>317.0</ele>
        <time>2017-05-27T10:39:12.525Z</time>
      </trkpt>
      <trkpt lat="39.95451667" lon="-0.34056667">
        <ele>317.0</ele>
        <time>2017-05-27T10:39:13.505Z</time>
      </trkpt>
      <trkpt lat="39.95451667" lon="-0.34056667">
        <ele>317.0</ele>
        <time>2017-05-27T10:39:14.522Z</time>
      </trkpt>
      <trkpt lat="39.954515" lon="-0.340635">
        <ele>318.0</ele>
        <time>2017-05-27T10:39:15.501Z</time>
      </trkpt>
      <trkpt lat="39.954515" lon="-0.340635">
        <ele>318.0</ele>
        <time>2017-05-27T10:39:16.527Z</time>
      </trkpt>
      <trkpt lat="39.95451" lon="-0.34070667">
        <ele>318.0</ele>
        <time>2017-05-27T10:39:17.507Z</time>
      </trkpt>
      <trkpt lat="39.95451" lon="-0.34070667">
        <ele>318.0</ele>
        <time>2017-05-27T10:39:18.514Z</time>
      </trkpt>
      <trkpt lat="39.954505" lon="-0.340775">
        <ele>319.0</ele>
        <time>2017-05-27T10:39:19.526Z</time>
      </trkpt>
      <trkpt lat="39.95450333" lon="-0.34081167">
        <ele>318.0</ele>
        <time>2017-05-27T10:39:20.507Z</time>
      </trkpt>
      <trkpt lat="39.95450333" lon="-0.34081167">
        <ele>318.0</ele>
        <time>2017-05-27T10:39:21.526Z</time>
      </trkpt>
      <trkpt lat="39.95449833" lon="-0.34088">
        <ele>319.0</ele>
        <time>2017-05-27T10:39:22.505Z</time>
      </trkpt>
      <trkpt lat="39.95449833" lon="-0.34088">
        <ele>319.0</ele>
        <time>2017-05-27T10:39:23.514Z</time>
      </trkpt>
      <trkpt lat="39.954495" lon="-0.340945">
        <ele>320.0</ele>
        <time>2017-05-27T10:39:24.514Z</time>
      </trkpt>
      <trkpt lat="39.954495" lon="-0.340945">
        <ele>320.0</ele>
        <time>2017-05-27T10:39:25.500Z</time>
      </trkpt>
      <trkpt lat="39.95449167" lon="-0.34100667">
        <ele>320.0</ele>
        <time>2017-05-27T10:39:26.503Z</time>
      </trkpt>
      <trkpt lat="39.954485" lon="-0.34104">
        <ele>320.0</ele>
        <time>2017-05-27T10:39:27.535Z</time>
      </trkpt>
      <trkpt lat="39.954485" lon="-0.34104">
        <ele>320.0</ele>
        <time>2017-05-27T10:39:28.507Z</time>
      </trkpt>
      <trkpt lat="39.954475" lon="-0.34110167">
        <ele>321.0</ele>
        <time>2017-05-27T10:39:29.525Z</time>
      </trkpt>
      <trkpt lat="39.954475" lon="-0.34113167">
        <ele>321.0</ele>
        <time>2017-05-27T10:39:30.519Z</time>
      </trkpt>
      <trkpt lat="39.954475" lon="-0.34113167">
        <ele>321.0</ele>
        <time>2017-05-27T10:39:31.528Z</time>
      </trkpt>
      <trkpt lat="39.95447167" lon="-0.3412">
        <ele>322.0</ele>
        <time>2017-05-27T10:39:32.509Z</time>
      </trkpt>
      <trkpt lat="39.95446667" lon="-0.34123333">
        <ele>322.0</ele>
        <time>2017-05-27T10:39:33.528Z</time>
      </trkpt>
      <trkpt lat="39.95446667" lon="-0.34123333">
        <ele>322.0</ele>
        <time>2017-05-27T10:39:34.497Z</time>
      </trkpt>
      <trkpt lat="39.95446" lon="-0.34129833">
        <ele>322.0</ele>
        <time>2017-05-27T10:39:35.517Z</time>
      </trkpt>
      <trkpt lat="39.95446" lon="-0.34133167">
        <ele>322.0</ele>
        <time>2017-05-27T10:39:36.509Z</time>
      </trkpt>
      <trkpt lat="39.95445833" lon="-0.34136333">
        <ele>322.0</ele>
        <time>2017-05-27T10:39:37.501Z</time>
      </trkpt>
      <trkpt lat="39.95445833" lon="-0.34136333">
        <ele>322.0</ele>
        <time>2017-05-27T10:39:38.511Z</time>
      </trkpt>
      <trkpt lat="39.954455" lon="-0.34142333">
        <ele>323.0</ele>
        <time>2017-05-27T10:39:39.503Z</time>
      </trkpt>
      <trkpt lat="39.954455" lon="-0.34142333">
        <ele>323.0</ele>
        <time>2017-05-27T10:39:40.499Z</time>
      </trkpt>
      <trkpt lat="39.95445333" lon="-0.341485">
        <ele>323.0</ele>
        <time>2017-05-27T10:39:41.514Z</time>
      </trkpt>
      <trkpt lat="39.95445167" lon="-0.34151667">
        <ele>323.0</ele>
        <time>2017-05-27T10:39:42.506Z</time>
      </trkpt>
      <trkpt lat="39.95445167" lon="-0.34151667">
        <ele>323.0</ele>
        <time>2017-05-27T10:39:43.520Z</time>
      </trkpt>
      <trkpt lat="39.954445" lon="-0.34158333">
        <ele>324.0</ele>
        <time>2017-05-27T10:39:44.501Z</time>
      </trkpt>
      <trkpt lat="39.954445" lon="-0.34158333">
        <ele>324.0</ele>
        <time>2017-05-27T10:39:45.521Z</time>
      </trkpt>
      <trkpt lat="39.95444" lon="-0.34164833">
        <ele>325.0</ele>
        <time>2017-05-27T10:39:46.499Z</time>
      </trkpt>
      <trkpt lat="39.95444" lon="-0.34164833">
        <ele>325.0</ele>
        <time>2017-05-27T10:39:47.509Z</time>
      </trkpt>
      <trkpt lat="39.95444" lon="-0.34171">
        <ele>326.0</ele>
        <time>2017-05-27T10:39:48.524Z</time>
      </trkpt>
      <trkpt lat="39.95444" lon="-0.34171">
        <ele>326.0</ele>
        <time>2017-05-27T10:39:49.513Z</time>
      </trkpt>
      <trkpt lat="39.95444" lon="-0.34177667">
        <ele>326.0</ele>
        <time>2017-05-27T10:39:50.495Z</time>
      </trkpt>
      <trkpt lat="39.95444" lon="-0.34177667">
        <ele>326.0</ele>
        <time>2017-05-27T10:39:51.507Z</time>
      </trkpt>
      <trkpt lat="39.95444667" lon="-0.34184667">
        <ele>327.0</ele>
        <time>2017-05-27T10:39:52.497Z</time>
      </trkpt>
      <trkpt lat="39.95444667" lon="-0.34184667">
        <ele>327.0</ele>
        <time>2017-05-27T10:39:53.526Z</time>
      </trkpt>
      <trkpt lat="39.954455" lon="-0.341915">
        <ele>328.0</ele>
        <time>2017-05-27T10:39:54.503Z</time>
      </trkpt>
      <trkpt lat="39.954455" lon="-0.341915">
        <ele>328.0</ele>
        <time>2017-05-27T10:39:55.495Z</time>
      </trkpt>
      <trkpt lat="39.95446333" lon="-0.34197667">
        <ele>329.0</ele>
        <time>2017-05-27T10:39:56.531Z</time>
      </trkpt>
      <trkpt lat="39.95446833" lon="-0.34200667">
        <ele>329.0</ele>
        <time>2017-05-27T10:39:57.519Z</time>
      </trkpt>
      <trkpt lat="39.95446833" lon="-0.34200667">
        <ele>329.0</ele>
        <time>2017-05-27T10:39:58.498Z</time>
      </trkpt>
      <trkpt lat="39.95447833" lon="-0.34207">
        <ele>329.0</ele>
        <time>2017-05-27T10:39:59.517Z</time>
      </trkpt>
      <trkpt lat="39.95447833" lon="-0.34207">
        <ele>329.0</ele>
        <time>2017-05-27T10:40:00.529Z</time>
      </trkpt>
      <trkpt lat="39.95449333" lon="-0.34213833">
        <ele>329.0</ele>
        <time>2017-05-27T10:40:01.534Z</time>
      </trkpt>
      <trkpt lat="39.95449333" lon="-0.34213833">
        <ele>329.0</ele>
        <time>2017-05-27T10:40:02.506Z</time>
      </trkpt>
      <trkpt lat="39.95451" lon="-0.34220667">
        <ele>330.0</ele>
        <time>2017-05-27T10:40:03.522Z</time>
      </trkpt>
      <trkpt lat="39.95451" lon="-0.34220667">
        <ele>330.0</ele>
        <time>2017-05-27T10:40:04.500Z</time>
      </trkpt>
      <trkpt lat="39.95452833" lon="-0.34227333">
        <ele>330.0</ele>
        <time>2017-05-27T10:40:05.530Z</time>
      </trkpt>
      <trkpt lat="39.95453833" lon="-0.34230667">
        <ele>330.0</ele>
        <time>2017-05-27T10:40:06.531Z</time>
      </trkpt>
      <trkpt lat="39.95455" lon="-0.34233833">
        <ele>330.0</ele>
        <time>2017-05-27T10:40:07.506Z</time>
      </trkpt>
      <trkpt lat="39.95455" lon="-0.34233833">
        <ele>330.0</ele>
        <time>2017-05-27T10:40:08.527Z</time>
      </trkpt>
      <trkpt lat="39.95457167" lon="-0.34240333">
        <ele>330.0</ele>
        <time>2017-05-27T10:40:09.500Z</time>
      </trkpt>
      <trkpt lat="39.95457167" lon="-0.34240333">
        <ele>330.0</ele>
        <time>2017-05-27T10:40:10.514Z</time>
      </trkpt>
      <trkpt lat="39.9546" lon="-0.342465">
        <ele>330.0</ele>
        <time>2017-05-27T10:40:11.496Z</time>
      </trkpt>
      <trkpt lat="39.9546" lon="-0.342465">
        <ele>330.0</ele>
        <time>2017-05-27T10:40:12.518Z</time>
      </trkpt>
      <trkpt lat="39.95463833" lon="-0.34252">
        <ele>330.0</ele>
        <time>2017-05-27T10:40:13.493Z</time>
      </trkpt>
      <trkpt lat="39.95463833" lon="-0.34252">
        <ele>330.0</ele>
        <time>2017-05-27T10:40:14.503Z</time>
      </trkpt>
      <trkpt lat="39.95467667" lon="-0.34257167">
        <ele>330.0</ele>
        <time>2017-05-27T10:40:15.518Z</time>
      </trkpt>
      <trkpt lat="39.95467667" lon="-0.34257167">
        <ele>330.0</ele>
        <time>2017-05-27T10:40:16.491Z</time>
      </trkpt>
      <trkpt lat="39.95472" lon="-0.34262">
        <ele>330.0</ele>
        <time>2017-05-27T10:40:17.520Z</time>
      </trkpt>
      <trkpt lat="39.95472" lon="-0.34262">
        <ele>330.0</ele>
        <time>2017-05-27T10:40:18.530Z</time>
      </trkpt>
      <trkpt lat="39.95476667" lon="-0.34265667">
        <ele>331.0</ele>
        <time>2017-05-27T10:40:19.506Z</time>
      </trkpt>
      <trkpt lat="39.95476667" lon="-0.34265667">
        <ele>331.0</ele>
        <time>2017-05-27T10:40:20.528Z</time>
      </trkpt>
      <trkpt lat="39.95481667" lon="-0.34268667">
        <ele>330.0</ele>
        <time>2017-05-27T10:40:21.506Z</time>
      </trkpt>
      <trkpt lat="39.95481667" lon="-0.34268667">
        <ele>330.0</ele>
        <time>2017-05-27T10:40:22.494Z</time>
      </trkpt>
      <trkpt lat="39.95487" lon="-0.34270667">
        <ele>331.0</ele>
        <time>2017-05-27T10:40:23.517Z</time>
      </trkpt>
      <trkpt lat="39.95487" lon="-0.34270667">
        <ele>331.0</ele>
        <time>2017-05-27T10:40:24.523Z</time>
      </trkpt>
      <trkpt lat="39.95492667" lon="-0.34272667">
        <ele>331.0</ele>
        <time>2017-05-27T10:40:25.494Z</time>
      </trkpt>
      <trkpt lat="39.95495333" lon="-0.34273333">
        <ele>331.0</ele>
        <time>2017-05-27T10:40:26.520Z</time>
      </trkpt>
      <trkpt lat="39.95498333" lon="-0.34273667">
        <ele>331.0</ele>
        <time>2017-05-27T10:40:27.506Z</time>
      </trkpt>
      <trkpt lat="39.95498333" lon="-0.34273667">
        <ele>331.0</ele>
        <time>2017-05-27T10:40:28.492Z</time>
      </trkpt>
      <trkpt lat="39.95504" lon="-0.34274333">
        <ele>331.0</ele>
        <time>2017-05-27T10:40:29.516Z</time>
      </trkpt>
      <trkpt lat="39.95504" lon="-0.34274333">
        <ele>331.0</ele>
        <time>2017-05-27T10:40:30.507Z</time>
      </trkpt>
      <trkpt lat="39.95509833" lon="-0.34274833">
        <ele>331.0</ele>
        <time>2017-05-27T10:40:31.529Z</time>
      </trkpt>
      <trkpt lat="39.95509833" lon="-0.34274833">
        <ele>331.0</ele>
        <time>2017-05-27T10:40:32.504Z</time>
      </trkpt>
      <trkpt lat="39.95515167" lon="-0.34273333">
        <ele>331.0</ele>
        <time>2017-05-27T10:40:33.526Z</time>
      </trkpt>
      <trkpt lat="39.95515167" lon="-0.34273333">
        <ele>331.0</ele>
        <time>2017-05-27T10:40:34.514Z</time>
      </trkpt>
      <trkpt lat="39.95520333" lon="-0.342735">
        <ele>330.0</ele>
        <time>2017-05-27T10:40:35.492Z</time>
      </trkpt>
      <trkpt lat="39.95520333" lon="-0.342735">
        <ele>330.0</ele>
        <time>2017-05-27T10:40:36.511Z</time>
      </trkpt>
      <trkpt lat="39.95525167" lon="-0.34274333">
        <ele>330.0</ele>
        <time>2017-05-27T10:40:37.504Z</time>
      </trkpt>
      <trkpt lat="39.95525167" lon="-0.34274333">
        <ele>330.0</ele>
        <time>2017-05-27T10:40:38.495Z</time>
      </trkpt>
      <trkpt lat="39.955295" lon="-0.34274667">
        <ele>330.0</ele>
        <time>2017-05-27T10:40:39.527Z</time>
      </trkpt>
      <trkpt lat="39.955295" lon="-0.34274667">
        <ele>330.0</ele>
        <time>2017-05-27T10:40:40.531Z</time>
      </trkpt>
      <trkpt lat="39.955335" lon="-0.342745">
        <ele>331.0</ele>
        <time>2017-05-27T10:40:41.512Z</time>
      </trkpt>
      <trkpt lat="39.955335" lon="-0.342745">
        <ele>331.0</ele>
        <time>2017-05-27T10:40:42.518Z</time>
      </trkpt>
      <trkpt lat="39.955375" lon="-0.34274333">
        <ele>332.0</ele>
        <time>2017-05-27T10:40:43.493Z</time>
      </trkpt>
      <trkpt lat="39.955375" lon="-0.34274333">
        <ele>332.0</ele>
        <time>2017-05-27T10:40:44.514Z</time>
      </trkpt>
      <trkpt lat="39.95541667" lon="-0.34273167">
        <ele>332.0</ele>
        <time>2017-05-27T10:40:45.499Z</time>
      </trkpt>
      <trkpt lat="39.95541667" lon="-0.34273167">
        <ele>332.0</ele>
        <time>2017-05-27T10:40:46.529Z</time>
      </trkpt>
      <trkpt lat="39.955455" lon="-0.34272167">
        <ele>332.0</ele>
        <time>2017-05-27T10:40:47.506Z</time>
      </trkpt>
      <trkpt lat="39.955455" lon="-0.34272167">
        <ele>332.0</ele>
        <time>2017-05-27T10:40:48.526Z</time>
      </trkpt>
      <trkpt lat="39.95549833" lon="-0.342715">
        <ele>333.0</ele>
        <time>2017-05-27T10:40:49.503Z</time>
      </trkpt>
      <trkpt lat="39.95549833" lon="-0.342715">
        <ele>333.0</ele>
        <time>2017-05-27T10:40:50.515Z</time>
      </trkpt>
      <trkpt lat="39.955545" lon="-0.342705">
        <ele>334.0</ele>
        <time>2017-05-27T10:40:51.527Z</time>
      </trkpt>
      <trkpt lat="39.955545" lon="-0.342705">
        <ele>334.0</ele>
        <time>2017-05-27T10:40:52.519Z</time>
      </trkpt>
      <trkpt lat="39.95558833" lon="-0.34268833">
        <ele>334.0</ele>
        <time>2017-05-27T10:40:53.529Z</time>
      </trkpt>
      <trkpt lat="39.95560833" lon="-0.34268">
        <ele>334.0</ele>
        <time>2017-05-27T10:40:54.517Z</time>
      </trkpt>
      <trkpt lat="39.95560833" lon="-0.34268">
        <ele>334.0</ele>
        <time>2017-05-27T10:40:55.495Z</time>
      </trkpt>
      <trkpt lat="39.95565167" lon="-0.34266">
        <ele>335.0</ele>
        <time>2017-05-27T10:40:56.529Z</time>
      </trkpt>
      <trkpt lat="39.95567167" lon="-0.34264833">
        <ele>335.0</ele>
        <time>2017-05-27T10:40:57.499Z</time>
      </trkpt>
      <trkpt lat="39.95567167" lon="-0.34264833">
        <ele>335.0</ele>
        <time>2017-05-27T10:40:58.517Z</time>
      </trkpt>
      <trkpt lat="39.95571833" lon="-0.342635">
        <ele>335.0</ele>
        <time>2017-05-27T10:40:59.510Z</time>
      </trkpt>
      <trkpt lat="39.95574" lon="-0.342625">
        <ele>335.0</ele>
        <time>2017-05-27T10:41:00.509Z</time>
      </trkpt>
      <trkpt lat="39.95574" lon="-0.342625">
        <ele>335.0</ele>
        <time>2017-05-27T10:41:01.496Z</time>
      </trkpt>
      <trkpt lat="39.955785" lon="-0.34260333">
        <ele>336.0</ele>
        <time>2017-05-27T10:41:02.528Z</time>
      </trkpt>
      <trkpt lat="39.955805" lon="-0.34259">
        <ele>336.0</ele>
        <time>2017-05-27T10:41:03.514Z</time>
      </trkpt>
      <trkpt lat="39.955805" lon="-0.34259">
        <ele>336.0</ele>
        <time>2017-05-27T10:41:04.530Z</time>
      </trkpt>
      <trkpt lat="39.95585" lon="-0.34256833">
        <ele>336.0</ele>
        <time>2017-05-27T10:41:05.510Z</time>
      </trkpt>
      <trkpt lat="39.955875" lon="-0.34255833">
        <ele>336.0</ele>
        <time>2017-05-27T10:41:06.509Z</time>
      </trkpt>
      <trkpt lat="39.955875" lon="-0.34255833">
        <ele>336.0</ele>
        <time>2017-05-27T10:41:07.528Z</time>
      </trkpt>
      <trkpt lat="39.95592333" lon="-0.34253667">
        <ele>335.0</ele>
        <time>2017-05-27T10:41:08.506Z</time>
      </trkpt>
      <trkpt lat="39.95592333" lon="-0.34253667">
        <ele>335.0</ele>
        <time>2017-05-27T10:41:09.492Z</time>
      </trkpt>
      <trkpt lat="39.955975" lon="-0.34251833">
        <ele>335.0</ele>
        <time>2017-05-27T10:41:10.517Z</time>
      </trkpt>
      <trkpt lat="39.955975" lon="-0.34251833">
        <ele>335.0</ele>
        <time>2017-05-27T10:41:11.498Z</time>
      </trkpt>
      <trkpt lat="39.95602333" lon="-0.34251">
        <ele>335.0</ele>
        <time>2017-05-27T10:41:12.516Z</time>
      </trkpt>
      <trkpt lat="39.95604833" lon="-0.34250667">
        <ele>335.0</ele>
        <time>2017-05-27T10:41:13.500Z</time>
      </trkpt>
      <trkpt lat="39.95604833" lon="-0.34250667">
        <ele>335.0</ele>
        <time>2017-05-27T10:41:14.495Z</time>
      </trkpt>
      <trkpt lat="39.956105" lon="-0.34250333">
        <ele>335.0</ele>
        <time>2017-05-27T10:41:15.519Z</time>
      </trkpt>
      <trkpt lat="39.95613333" lon="-0.34250167">
        <ele>335.0</ele>
        <time>2017-05-27T10:41:16.517Z</time>
      </trkpt>
      <trkpt lat="39.95613333" lon="-0.34250167">
        <ele>335.0</ele>
        <time>2017-05-27T10:41:17.506Z</time>
      </trkpt>
      <trkpt lat="39.95618667" lon="-0.34250833">
        <ele>335.0</ele>
        <time>2017-05-27T10:41:18.524Z</time>
      </trkpt>
      <trkpt lat="39.95618667" lon="-0.34250833">
        <ele>335.0</ele>
        <time>2017-05-27T10:41:19.513Z</time>
      </trkpt>
      <trkpt lat="39.95624" lon="-0.342525">
        <ele>335.0</ele>
        <time>2017-05-27T10:41:20.532Z</time>
      </trkpt>
      <trkpt lat="39.95626333" lon="-0.34253333">
        <ele>335.0</ele>
        <time>2017-05-27T10:41:21.522Z</time>
      </trkpt>
      <trkpt lat="39.95626333" lon="-0.34253333">
        <ele>335.0</ele>
        <time>2017-05-27T10:41:22.511Z</time>
      </trkpt>
      <trkpt lat="39.95631" lon="-0.34256167">
        <ele>336.0</ele>
        <time>2017-05-27T10:41:23.527Z</time>
      </trkpt>
      <trkpt lat="39.95633333" lon="-0.342575">
        <ele>336.0</ele>
        <time>2017-05-27T10:41:24.530Z</time>
      </trkpt>
      <trkpt lat="39.95633333" lon="-0.342575">
        <ele>336.0</ele>
        <time>2017-05-27T10:41:25.499Z</time>
      </trkpt>
      <trkpt lat="39.95638" lon="-0.342605">
        <ele>336.0</ele>
        <time>2017-05-27T10:41:26.524Z</time>
      </trkpt>
      <trkpt lat="39.95640333" lon="-0.34262">
        <ele>336.0</ele>
        <time>2017-05-27T10:41:27.515Z</time>
      </trkpt>
      <trkpt lat="39.95640333" lon="-0.34262">
        <ele>336.0</ele>
        <time>2017-05-27T10:41:28.526Z</time>
      </trkpt>
      <trkpt lat="39.95645" lon="-0.34265333">
        <ele>337.0</ele>
        <time>2017-05-27T10:41:29.523Z</time>
      </trkpt>
      <trkpt lat="39.95645" lon="-0.34265333">
        <ele>337.0</ele>
        <time>2017-05-27T10:41:30.497Z</time>
      </trkpt>
      <trkpt lat="39.95649667" lon="-0.34268833">
        <ele>337.0</ele>
        <time>2017-05-27T10:41:31.533Z</time>
      </trkpt>
      <trkpt lat="39.95649667" lon="-0.34268833">
        <ele>337.0</ele>
        <time>2017-05-27T10:41:32.512Z</time>
      </trkpt>
      <trkpt lat="39.95654333" lon="-0.34272167">
        <ele>338.0</ele>
        <time>2017-05-27T10:41:33.492Z</time>
      </trkpt>
      <trkpt lat="39.95654333" lon="-0.34272167">
        <ele>338.0</ele>
        <time>2017-05-27T10:41:34.526Z</time>
      </trkpt>
      <trkpt lat="39.95658833" lon="-0.34275833">
        <ele>338.0</ele>
        <time>2017-05-27T10:41:35.505Z</time>
      </trkpt>
      <trkpt lat="39.95661" lon="-0.34277667">
        <ele>338.0</ele>
        <time>2017-05-27T10:41:36.529Z</time>
      </trkpt>
      <trkpt lat="39.95661" lon="-0.34277667">
        <ele>338.0</ele>
        <time>2017-05-27T10:41:37.500Z</time>
      </trkpt>
      <trkpt lat="39.95665" lon="-0.34281667">
        <ele>339.0</ele>
        <time>2017-05-27T10:41:38.513Z</time>
      </trkpt>
      <trkpt lat="39.95665" lon="-0.34281667">
        <ele>339.0</ele>
        <time>2017-05-27T10:41:39.508Z</time>
      </trkpt>
      <trkpt lat="39.956685" lon="-0.34285333">
        <ele>339.0</ele>
        <time>2017-05-27T10:41:40.499Z</time>
      </trkpt>
      <trkpt lat="39.956685" lon="-0.34285333">
        <ele>339.0</ele>
        <time>2017-05-27T10:41:41.520Z</time>
      </trkpt>
      <trkpt lat="39.956725" lon="-0.34288833">
        <ele>339.0</ele>
        <time>2017-05-27T10:41:42.494Z</time>
      </trkpt>
      <trkpt lat="39.956725" lon="-0.34288833">
        <ele>339.0</ele>
        <time>2017-05-27T10:41:43.521Z</time>
      </trkpt>
      <trkpt lat="39.95676667" lon="-0.34292667">
        <ele>340.0</ele>
        <time>2017-05-27T10:41:44.499Z</time>
      </trkpt>
      <trkpt lat="39.95676667" lon="-0.34292667">
        <ele>340.0</ele>
        <time>2017-05-27T10:41:45.500Z</time>
      </trkpt>
      <trkpt lat="39.95680667" lon="-0.34295833">
        <ele>340.0</ele>
        <time>2017-05-27T10:41:46.513Z</time>
      </trkpt>
      <trkpt lat="39.95680667" lon="-0.34295833">
        <ele>340.0</ele>
        <time>2017-05-27T10:41:47.529Z</time>
      </trkpt>
      <trkpt lat="39.95685333" lon="-0.34298833">
        <ele>340.0</ele>
        <time>2017-05-27T10:41:48.508Z</time>
      </trkpt>
      <trkpt lat="39.95687667" lon="-0.34300167">
        <ele>341.0</ele>
        <time>2017-05-27T10:41:49.505Z</time>
      </trkpt>
      <trkpt lat="39.95687667" lon="-0.34300167">
        <ele>341.0</ele>
        <time>2017-05-27T10:41:50.494Z</time>
      </trkpt>
      <trkpt lat="39.956925" lon="-0.34303167">
        <ele>341.0</ele>
        <time>2017-05-27T10:41:51.526Z</time>
      </trkpt>
      <trkpt lat="39.956925" lon="-0.34303167">
        <ele>341.0</ele>
        <time>2017-05-27T10:41:52.503Z</time>
      </trkpt>
      <trkpt lat="39.95697333" lon="-0.34306">
        <ele>342.0</ele>
        <time>2017-05-27T10:41:53.523Z</time>
      </trkpt>
      <trkpt lat="39.95697333" lon="-0.34306">
        <ele>342.0</ele>
        <time>2017-05-27T10:41:54.491Z</time>
      </trkpt>
      <trkpt lat="39.957025" lon="-0.343085">
        <ele>342.0</ele>
        <time>2017-05-27T10:41:55.533Z</time>
      </trkpt>
      <trkpt lat="39.95704833" lon="-0.34309833">
        <ele>342.0</ele>
        <time>2017-05-27T10:41:56.500Z</time>
      </trkpt>
      <trkpt lat="39.957075" lon="-0.34311">
        <ele>342.0</ele>
        <time>2017-05-27T10:41:57.530Z</time>
      </trkpt>
      <trkpt lat="39.957075" lon="-0.34311">
        <ele>342.0</ele>
        <time>2017-05-27T10:41:58.516Z</time>
      </trkpt>
      <trkpt lat="39.95712667" lon="-0.34313167">
        <ele>342.0</ele>
        <time>2017-05-27T10:41:59.495Z</time>
      </trkpt>
      <trkpt lat="39.95712667" lon="-0.34313167">
        <ele>342.0</ele>
        <time>2017-05-27T10:42:00.502Z</time>
      </trkpt>
      <trkpt lat="39.95717667" lon="-0.34315">
        <ele>343.0</ele>
        <time>2017-05-27T10:42:01.532Z</time>
      </trkpt>
      <trkpt lat="39.95717667" lon="-0.34315">
        <ele>343.0</ele>
        <time>2017-05-27T10:42:02.524Z</time>
      </trkpt>
      <trkpt lat="39.95723333" lon="-0.34316">
        <ele>343.0</ele>
        <time>2017-05-27T10:42:03.520Z</time>
      </trkpt>
      <trkpt lat="39.95723333" lon="-0.34316">
        <ele>343.0</ele>
        <time>2017-05-27T10:42:04.530Z</time>
      </trkpt>
      <trkpt lat="39.95728833" lon="-0.343165">
        <ele>343.0</ele>
        <time>2017-05-27T10:42:05.507Z</time>
      </trkpt>
      <trkpt lat="39.95728833" lon="-0.343165">
        <ele>343.0</ele>
        <time>2017-05-27T10:42:06.520Z</time>
      </trkpt>
      <trkpt lat="39.95734167" lon="-0.343185">
        <ele>343.0</ele>
        <time>2017-05-27T10:42:07.495Z</time>
      </trkpt>
      <trkpt lat="39.95734167" lon="-0.343185">
        <ele>343.0</ele>
        <time>2017-05-27T10:42:08.521Z</time>
      </trkpt>
      <trkpt lat="39.95739333" lon="-0.343195">
        <ele>343.0</ele>
        <time>2017-05-27T10:42:09.507Z</time>
      </trkpt>
      <trkpt lat="39.95739333" lon="-0.343195">
        <ele>343.0</ele>
        <time>2017-05-27T10:42:10.494Z</time>
      </trkpt>
      <trkpt lat="39.95744333" lon="-0.343205">
        <ele>344.0</ele>
        <time>2017-05-27T10:42:11.529Z</time>
      </trkpt>
      <trkpt lat="39.95744333" lon="-0.343205">
        <ele>344.0</ele>
        <time>2017-05-27T10:42:12.513Z</time>
      </trkpt>
      <trkpt lat="39.957495" lon="-0.343215">
        <ele>344.0</ele>
        <time>2017-05-27T10:42:13.496Z</time>
      </trkpt>
      <trkpt lat="39.957495" lon="-0.343215">
        <ele>344.0</ele>
        <time>2017-05-27T10:42:14.509Z</time>
      </trkpt>
      <trkpt lat="39.957545" lon="-0.34322167">
        <ele>344.0</ele>
        <time>2017-05-27T10:42:15.526Z</time>
      </trkpt>
      <trkpt lat="39.957545" lon="-0.34322167">
        <ele>344.0</ele>
        <time>2017-05-27T10:42:16.499Z</time>
      </trkpt>
      <trkpt lat="39.95759667" lon="-0.34323833">
        <ele>344.0</ele>
        <time>2017-05-27T10:42:17.527Z</time>
      </trkpt>
      <trkpt lat="39.95762167" lon="-0.34325167">
        <ele>344.0</ele>
        <time>2017-05-27T10:42:18.527Z</time>
      </trkpt>
      <trkpt lat="39.95762167" lon="-0.34325167">
        <ele>344.0</ele>
        <time>2017-05-27T10:42:19.496Z</time>
      </trkpt>
      <trkpt lat="39.95766833" lon="-0.34326667">
        <ele>344.0</ele>
        <time>2017-05-27T10:42:20.514Z</time>
      </trkpt>
      <trkpt lat="39.95769333" lon="-0.34327167">
        <ele>344.0</ele>
        <time>2017-05-27T10:42:21.523Z</time>
      </trkpt>
      <trkpt lat="39.95769333" lon="-0.34327167">
        <ele>344.0</ele>
        <time>2017-05-27T10:42:22.496Z</time>
      </trkpt>
      <trkpt lat="39.95774" lon="-0.34329">
        <ele>345.0</ele>
        <time>2017-05-27T10:42:23.521Z</time>
      </trkpt>
      <trkpt lat="39.95776333" lon="-0.34329833">
        <ele>345.0</ele>
        <time>2017-05-27T10:42:24.508Z</time>
      </trkpt>
      <trkpt lat="39.95776333" lon="-0.34329833">
        <ele>345.0</ele>
        <time>2017-05-27T10:42:25.491Z</time>
      </trkpt>
      <trkpt lat="39.95781167" lon="-0.34331667">
        <ele>345.0</ele>
        <time>2017-05-27T10:42:26.510Z</time>
      </trkpt>
      <trkpt lat="39.95783667" lon="-0.34332333">
        <ele>346.0</ele>
        <time>2017-05-27T10:42:27.511Z</time>
      </trkpt>
      <trkpt lat="39.95783667" lon="-0.34332333">
        <ele>346.0</ele>
        <time>2017-05-27T10:42:28.520Z</time>
      </trkpt>
      <trkpt lat="39.95788833" lon="-0.34334">
        <ele>346.0</ele>
        <time>2017-05-27T10:42:29.514Z</time>
      </trkpt>
      <trkpt lat="39.95788833" lon="-0.34334">
        <ele>346.0</ele>
        <time>2017-05-27T10:42:30.504Z</time>
      </trkpt>
      <trkpt lat="39.95793833" lon="-0.343355">
        <ele>346.0</ele>
        <time>2017-05-27T10:42:31.531Z</time>
      </trkpt>
      <trkpt lat="39.95793833" lon="-0.343355">
        <ele>346.0</ele>
        <time>2017-05-27T10:42:32.523Z</time>
      </trkpt>
      <trkpt lat="39.95799167" lon="-0.343365">
        <ele>346.0</ele>
        <time>2017-05-27T10:42:33.503Z</time>
      </trkpt>
      <trkpt lat="39.95801667" lon="-0.34336833">
        <ele>346.0</ele>
        <time>2017-05-27T10:42:34.508Z</time>
      </trkpt>
      <trkpt lat="39.95801667" lon="-0.34336833">
        <ele>346.0</ele>
        <time>2017-05-27T10:42:35.521Z</time>
      </trkpt>
      <trkpt lat="39.95806833" lon="-0.34337">
        <ele>347.0</ele>
        <time>2017-05-27T10:42:36.502Z</time>
      </trkpt>
      <trkpt lat="39.95806833" lon="-0.34337">
        <ele>347.0</ele>
        <time>2017-05-27T10:42:37.506Z</time>
      </trkpt>
      <trkpt lat="39.95811833" lon="-0.34336333">
        <ele>347.0</ele>
        <time>2017-05-27T10:42:38.525Z</time>
      </trkpt>
      <trkpt lat="39.958145" lon="-0.343365">
        <ele>347.0</ele>
        <time>2017-05-27T10:42:39.524Z</time>
      </trkpt>
      <trkpt lat="39.958145" lon="-0.343365">
        <ele>347.0</ele>
        <time>2017-05-27T10:42:40.507Z</time>
      </trkpt>
      <trkpt lat="39.9582" lon="-0.34336167">
        <ele>347.0</ele>
        <time>2017-05-27T10:42:41.521Z</time>
      </trkpt>
      <trkpt lat="39.9582" lon="-0.34336167">
        <ele>347.0</ele>
        <time>2017-05-27T10:42:42.510Z</time>
      </trkpt>
      <trkpt lat="39.95825167" lon="-0.34335833">
        <ele>347.0</ele>
        <time>2017-05-27T10:42:43.496Z</time>
      </trkpt>
      <trkpt lat="39.95825167" lon="-0.34335833">
        <ele>347.0</ele>
        <time>2017-05-27T10:42:44.526Z</time>
      </trkpt>
      <trkpt lat="39.95830667" lon="-0.34335167">
        <ele>347.0</ele>
        <time>2017-05-27T10:42:45.529Z</time>
      </trkpt>
      <trkpt lat="39.95830667" lon="-0.34335167">
        <ele>347.0</ele>
        <time>2017-05-27T10:42:46.502Z</time>
      </trkpt>
      <trkpt lat="39.95836167" lon="-0.34333667">
        <ele>347.0</ele>
        <time>2017-05-27T10:42:47.518Z</time>
      </trkpt>
      <trkpt lat="39.95838667" lon="-0.34332833">
        <ele>347.0</ele>
        <time>2017-05-27T10:42:48.515Z</time>
      </trkpt>
      <trkpt lat="39.95838667" lon="-0.34332833">
        <ele>347.0</ele>
        <time>2017-05-27T10:42:49.527Z</time>
      </trkpt>
      <trkpt lat="39.95843667" lon="-0.343315">
        <ele>347.0</ele>
        <time>2017-05-27T10:42:50.498Z</time>
      </trkpt>
      <trkpt lat="39.95846167" lon="-0.34331">
        <ele>347.0</ele>
        <time>2017-05-27T10:42:51.530Z</time>
      </trkpt>
      <trkpt lat="39.95846167" lon="-0.34331">
        <ele>347.0</ele>
        <time>2017-05-27T10:42:52.527Z</time>
      </trkpt>
      <trkpt lat="39.95850833" lon="-0.34329667">
        <ele>348.0</ele>
        <time>2017-05-27T10:42:53.510Z</time>
      </trkpt>
      <trkpt lat="39.95850833" lon="-0.34329667">
        <ele>348.0</ele>
        <time>2017-05-27T10:42:54.524Z</time>
      </trkpt>
      <trkpt lat="39.95855667" lon="-0.343285">
        <ele>349.0</ele>
        <time>2017-05-27T10:42:55.521Z</time>
      </trkpt>
      <trkpt lat="39.95855667" lon="-0.343285">
        <ele>349.0</ele>
        <time>2017-05-27T10:42:56.497Z</time>
      </trkpt>
      <trkpt lat="39.95861" lon="-0.34327333">
        <ele>349.0</ele>
        <time>2017-05-27T10:42:57.518Z</time>
      </trkpt>
      <trkpt lat="39.95861" lon="-0.34327333">
        <ele>349.0</ele>
        <time>2017-05-27T10:42:58.501Z</time>
      </trkpt>
      <trkpt lat="39.95866167" lon="-0.34326333">
        <ele>349.0</ele>
        <time>2017-05-27T10:42:59.523Z</time>
      </trkpt>
      <trkpt lat="39.95866167" lon="-0.34326333">
        <ele>349.0</ele>
        <time>2017-05-27T10:43:00.529Z</time>
      </trkpt>
      <trkpt lat="39.95871333" lon="-0.34325167">
        <ele>350.0</ele>
        <time>2017-05-27T10:43:01.527Z</time>
      </trkpt>
      <trkpt lat="39.95871333" lon="-0.34325167">
        <ele>350.0</ele>
        <time>2017-05-27T10:43:02.525Z</time>
      </trkpt>
      <trkpt lat="39.958765" lon="-0.34324167">
        <ele>350.0</ele>
        <time>2017-05-27T10:43:03.508Z</time>
      </trkpt>
      <trkpt lat="39.958765" lon="-0.34324167">
        <ele>350.0</ele>
        <time>2017-05-27T10:43:04.529Z</time>
      </trkpt>
      <trkpt lat="39.958815" lon="-0.34323333">
        <ele>350.0</ele>
        <time>2017-05-27T10:43:05.509Z</time>
      </trkpt>
      <trkpt lat="39.958815" lon="-0.34323333">
        <ele>350.0</ele>
        <time>2017-05-27T10:43:06.523Z</time>
      </trkpt>
      <trkpt lat="39.958865" lon="-0.34322">
        <ele>350.0</ele>
        <time>2017-05-27T10:43:07.518Z</time>
      </trkpt>
      <trkpt lat="39.958865" lon="-0.34322">
        <ele>350.0</ele>
        <time>2017-05-27T10:43:08.513Z</time>
      </trkpt>
      <trkpt lat="39.95891833" lon="-0.34321667">
        <ele>351.0</ele>
        <time>2017-05-27T10:43:09.491Z</time>
      </trkpt>
      <trkpt lat="39.95891833" lon="-0.34321667">
        <ele>351.0</ele>
        <time>2017-05-27T10:43:10.526Z</time>
      </trkpt>
      <trkpt lat="39.95896667" lon="-0.34320667">
        <ele>351.0</ele>
        <time>2017-05-27T10:43:11.502Z</time>
      </trkpt>
      <trkpt lat="39.95899167" lon="-0.3432">
        <ele>351.0</ele>
        <time>2017-05-27T10:43:12.510Z</time>
      </trkpt>
      <trkpt lat="39.95899167" lon="-0.3432">
        <ele>351.0</ele>
        <time>2017-05-27T10:43:13.520Z</time>
      </trkpt>
      <trkpt lat="39.95904167" lon="-0.34319">
        <ele>352.0</ele>
        <time>2017-05-27T10:43:14.516Z</time>
      </trkpt>
      <trkpt lat="39.95906333" lon="-0.343185">
        <ele>353.0</ele>
        <time>2017-05-27T10:43:15.496Z</time>
      </trkpt>
      <trkpt lat="39.95906333" lon="-0.343185">
        <ele>353.0</ele>
        <time>2017-05-27T10:43:16.521Z</time>
      </trkpt>
      <trkpt lat="39.95911" lon="-0.34317167">
        <ele>353.0</ele>
        <time>2017-05-27T10:43:17.502Z</time>
      </trkpt>
      <trkpt lat="39.95913667" lon="-0.34316667">
        <ele>353.0</ele>
        <time>2017-05-27T10:43:18.518Z</time>
      </trkpt>
      <trkpt lat="39.95913667" lon="-0.34316667">
        <ele>353.0</ele>
        <time>2017-05-27T10:43:19.492Z</time>
      </trkpt>
      <trkpt lat="39.95918833" lon="-0.34315333">
        <ele>353.0</ele>
        <time>2017-05-27T10:43:20.515Z</time>
      </trkpt>
      <trkpt lat="39.95918833" lon="-0.34315333">
        <ele>353.0</ele>
        <time>2017-05-27T10:43:21.500Z</time>
      </trkpt>
      <trkpt lat="39.95923667" lon="-0.34313667">
        <ele>354.0</ele>
        <time>2017-05-27T10:43:22.508Z</time>
      </trkpt>
      <trkpt lat="39.95923667" lon="-0.34313667">
        <ele>354.0</ele>
        <time>2017-05-27T10:43:23.513Z</time>
      </trkpt>
      <trkpt lat="39.95928333" lon="-0.343125">
        <ele>354.0</ele>
        <time>2017-05-27T10:43:24.500Z</time>
      </trkpt>
      <trkpt lat="39.95928333" lon="-0.343125">
        <ele>354.0</ele>
        <time>2017-05-27T10:43:25.530Z</time>
      </trkpt>
      <trkpt lat="39.959335" lon="-0.34311">
        <ele>355.0</ele>
        <time>2017-05-27T10:43:26.513Z</time>
      </trkpt>
      <trkpt lat="39.95936" lon="-0.34310333">
        <ele>355.0</ele>
        <time>2017-05-27T10:43:27.524Z</time>
      </trkpt>
      <trkpt lat="39.95936" lon="-0.34310333">
        <ele>355.0</ele>
        <time>2017-05-27T10:43:28.501Z</time>
      </trkpt>
      <trkpt lat="39.95941" lon="-0.34309">
        <ele>355.0</ele>
        <time>2017-05-27T10:43:29.527Z</time>
      </trkpt>
      <trkpt lat="39.95941" lon="-0.34309">
        <ele>355.0</ele>
        <time>2017-05-27T10:43:30.491Z</time>
      </trkpt>
      <trkpt lat="39.95946167" lon="-0.34307333">
        <ele>355.0</ele>
        <time>2017-05-27T10:43:31.511Z</time>
      </trkpt>
      <trkpt lat="39.95946167" lon="-0.34307333">
        <ele>355.0</ele>
        <time>2017-05-27T10:43:32.523Z</time>
      </trkpt>
      <trkpt lat="39.959515" lon="-0.34305667">
        <ele>355.0</ele>
        <time>2017-05-27T10:43:33.504Z</time>
      </trkpt>
      <trkpt lat="39.959515" lon="-0.34305667">
        <ele>355.0</ele>
        <time>2017-05-27T10:43:34.525Z</time>
      </trkpt>
      <trkpt lat="39.95956833" lon="-0.343045">
        <ele>355.0</ele>
        <time>2017-05-27T10:43:35.517Z</time>
      </trkpt>
      <trkpt lat="39.95959333" lon="-0.34304">
        <ele>355.0</ele>
        <time>2017-05-27T10:43:36.512Z</time>
      </trkpt>
      <trkpt lat="39.95959333" lon="-0.34304">
        <ele>355.0</ele>
        <time>2017-05-27T10:43:37.506Z</time>
      </trkpt>
      <trkpt lat="39.95964667" lon="-0.34304">
        <ele>355.0</ele>
        <time>2017-05-27T10:43:38.525Z</time>
      </trkpt>
      <trkpt lat="39.95964667" lon="-0.34304">
        <ele>355.0</ele>
        <time>2017-05-27T10:43:39.529Z</time>
      </trkpt>
      <trkpt lat="39.95969833" lon="-0.343035">
        <ele>355.0</ele>
        <time>2017-05-27T10:43:40.517Z</time>
      </trkpt>
      <trkpt lat="39.95969833" lon="-0.343035">
        <ele>355.0</ele>
        <time>2017-05-27T10:43:41.527Z</time>
      </trkpt>
      <trkpt lat="39.95974667" lon="-0.34303">
        <ele>355.0</ele>
        <time>2017-05-27T10:43:42.513Z</time>
      </trkpt>
      <trkpt lat="39.95974667" lon="-0.34303">
        <ele>355.0</ele>
        <time>2017-05-27T10:43:43.530Z</time>
      </trkpt>
      <trkpt lat="39.959795" lon="-0.34303167">
        <ele>355.0</ele>
        <time>2017-05-27T10:43:44.508Z</time>
      </trkpt>
      <trkpt lat="39.959795" lon="-0.34303167">
        <ele>355.0</ele>
        <time>2017-05-27T10:43:45.518Z</time>
      </trkpt>
      <trkpt lat="39.959845" lon="-0.34303833">
        <ele>355.0</ele>
        <time>2017-05-27T10:43:46.526Z</time>
      </trkpt>
      <trkpt lat="39.959845" lon="-0.34303833">
        <ele>355.0</ele>
        <time>2017-05-27T10:43:47.495Z</time>
      </trkpt>
      <trkpt lat="39.959895" lon="-0.34305333">
        <ele>355.0</ele>
        <time>2017-05-27T10:43:48.517Z</time>
      </trkpt>
      <trkpt lat="39.959895" lon="-0.34305333">
        <ele>355.0</ele>
        <time>2017-05-27T10:43:49.527Z</time>
      </trkpt>
      <trkpt lat="39.95994167" lon="-0.34307667">
        <ele>356.0</ele>
        <time>2017-05-27T10:43:50.507Z</time>
      </trkpt>
      <trkpt lat="39.959965" lon="-0.34308667">
        <ele>356.0</ele>
        <time>2017-05-27T10:43:51.504Z</time>
      </trkpt>
      <trkpt lat="39.959965" lon="-0.34308667">
        <ele>356.0</ele>
        <time>2017-05-27T10:43:52.492Z</time>
      </trkpt>
      <trkpt lat="39.96001333" lon="-0.34310667">
        <ele>356.0</ele>
        <time>2017-05-27T10:43:53.524Z</time>
      </trkpt>
      <trkpt lat="39.96004167" lon="-0.34312">
        <ele>356.0</ele>
        <time>2017-05-27T10:43:54.516Z</time>
      </trkpt>
      <trkpt lat="39.96004167" lon="-0.34312">
        <ele>356.0</ele>
        <time>2017-05-27T10:43:55.500Z</time>
      </trkpt>
      <trkpt lat="39.96009333" lon="-0.34314667">
        <ele>356.0</ele>
        <time>2017-05-27T10:43:56.526Z</time>
      </trkpt>
      <trkpt lat="39.96011667" lon="-0.34315667">
        <ele>357.0</ele>
        <time>2017-05-27T10:43:57.526Z</time>
      </trkpt>
      <trkpt lat="39.96014" lon="-0.34316667">
        <ele>357.0</ele>
        <time>2017-05-27T10:43:58.516Z</time>
      </trkpt>
      <trkpt lat="39.96014" lon="-0.34316667">
        <ele>357.0</ele>
        <time>2017-05-27T10:43:59.516Z</time>
      </trkpt>
      <trkpt lat="39.96018833" lon="-0.34318833">
        <ele>358.0</ele>
        <time>2017-05-27T10:44:00.503Z</time>
      </trkpt>
      <trkpt lat="39.96020833" lon="-0.3432">
        <ele>358.0</ele>
        <time>2017-05-27T10:44:01.497Z</time>
      </trkpt>
      <trkpt lat="39.96020833" lon="-0.3432">
        <ele>358.0</ele>
        <time>2017-05-27T10:44:02.526Z</time>
      </trkpt>
      <trkpt lat="39.96025167" lon="-0.34322333">
        <ele>359.0</ele>
        <time>2017-05-27T10:44:03.505Z</time>
      </trkpt>
      <trkpt lat="39.96025167" lon="-0.34322333">
        <ele>359.0</ele>
        <time>2017-05-27T10:44:04.527Z</time>
      </trkpt>
      <trkpt lat="39.960295" lon="-0.34324667">
        <ele>360.0</ele>
        <time>2017-05-27T10:44:05.505Z</time>
      </trkpt>
      <trkpt lat="39.960295" lon="-0.34324667">
        <ele>360.0</ele>
        <time>2017-05-27T10:44:06.526Z</time>
      </trkpt>
      <trkpt lat="39.96034" lon="-0.34326667">
        <ele>361.0</ele>
        <time>2017-05-27T10:44:07.505Z</time>
      </trkpt>
      <trkpt lat="39.96036333" lon="-0.34327667">
        <ele>361.0</ele>
        <time>2017-05-27T10:44:08.516Z</time>
      </trkpt>
      <trkpt lat="39.96036333" lon="-0.34327667">
        <ele>361.0</ele>
        <time>2017-05-27T10:44:09.530Z</time>
      </trkpt>
      <trkpt lat="39.96040667" lon="-0.34329833">
        <ele>361.0</ele>
        <time>2017-05-27T10:44:10.514Z</time>
      </trkpt>
      <trkpt lat="39.96040667" lon="-0.34329833">
        <ele>361.0</ele>
        <time>2017-05-27T10:44:11.513Z</time>
      </trkpt>
      <trkpt lat="39.96045" lon="-0.34332">
        <ele>362.0</ele>
        <time>2017-05-27T10:44:12.536Z</time>
      </trkpt>
      <trkpt lat="39.96045" lon="-0.34332">
        <ele>362.0</ele>
        <time>2017-05-27T10:44:13.510Z</time>
      </trkpt>
      <trkpt lat="39.96049333" lon="-0.343345">
        <ele>362.0</ele>
        <time>2017-05-27T10:44:14.495Z</time>
      </trkpt>
      <trkpt lat="39.96051333" lon="-0.34335833">
        <ele>362.0</ele>
        <time>2017-05-27T10:44:15.523Z</time>
      </trkpt>
      <trkpt lat="39.96051333" lon="-0.34335833">
        <ele>362.0</ele>
        <time>2017-05-27T10:44:16.514Z</time>
      </trkpt>
      <trkpt lat="39.960555" lon="-0.34338833">
        <ele>363.0</ele>
        <time>2017-05-27T10:44:17.531Z</time>
      </trkpt>
      <trkpt lat="39.96057667" lon="-0.34340667">
        <ele>363.0</ele>
        <time>2017-05-27T10:44:18.518Z</time>
      </trkpt>
      <trkpt lat="39.960595" lon="-0.34342667">
        <ele>363.0</ele>
        <time>2017-05-27T10:44:19.506Z</time>
      </trkpt>
      <trkpt lat="39.960595" lon="-0.34342667">
        <ele>363.0</ele>
        <time>2017-05-27T10:44:20.523Z</time>
      </trkpt>
      <trkpt lat="39.96063167" lon="-0.34346667">
        <ele>364.0</ele>
        <time>2017-05-27T10:44:21.503Z</time>
      </trkpt>
      <trkpt lat="39.96063167" lon="-0.34346667">
        <ele>364.0</ele>
        <time>2017-05-27T10:44:22.525Z</time>
      </trkpt>
      <trkpt lat="39.96066333" lon="-0.34351167">
        <ele>364.0</ele>
        <time>2017-05-27T10:44:23.500Z</time>
      </trkpt>
      <trkpt lat="39.96067833" lon="-0.34353667">
        <ele>364.0</ele>
        <time>2017-05-27T10:44:24.521Z</time>
      </trkpt>
      <trkpt lat="39.96069" lon="-0.34356167">
        <ele>365.0</ele>
        <time>2017-05-27T10:44:25.506Z</time>
      </trkpt>
      <trkpt lat="39.96069" lon="-0.34356167">
        <ele>365.0</ele>
        <time>2017-05-27T10:44:26.514Z</time>
      </trkpt>
      <trkpt lat="39.960715" lon="-0.343615">
        <ele>365.0</ele>
        <time>2017-05-27T10:44:27.496Z</time>
      </trkpt>
      <trkpt lat="39.960725" lon="-0.34364333">
        <ele>365.0</ele>
        <time>2017-05-27T10:44:28.498Z</time>
      </trkpt>
      <trkpt lat="39.960725" lon="-0.34364333">
        <ele>365.0</ele>
        <time>2017-05-27T10:44:29.516Z</time>
      </trkpt>
      <trkpt lat="39.96074333" lon="-0.3437">
        <ele>366.0</ele>
        <time>2017-05-27T10:44:30.498Z</time>
      </trkpt>
      <trkpt lat="39.96075333" lon="-0.34373">
        <ele>366.0</ele>
        <time>2017-05-27T10:44:31.508Z</time>
      </trkpt>
      <trkpt lat="39.96075333" lon="-0.34373">
        <ele>366.0</ele>
        <time>2017-05-27T10:44:32.527Z</time>
      </trkpt>
      <trkpt lat="39.96076833" lon="-0.34378833">
        <ele>366.0</ele>
        <time>2017-05-27T10:44:33.510Z</time>
      </trkpt>
      <trkpt lat="39.96076833" lon="-0.34378833">
        <ele>366.0</ele>
        <time>2017-05-27T10:44:34.495Z</time>
      </trkpt>
      <trkpt lat="39.96078333" lon="-0.34384667">
        <ele>366.0</ele>
        <time>2017-05-27T10:44:35.527Z</time>
      </trkpt>
      <trkpt lat="39.96079" lon="-0.34387667">
        <ele>366.0</ele>
        <time>2017-05-27T10:44:36.507Z</time>
      </trkpt>
      <trkpt lat="39.96079" lon="-0.34387667">
        <ele>366.0</ele>
        <time>2017-05-27T10:44:37.529Z</time>
      </trkpt>
      <trkpt lat="39.96079833" lon="-0.34394">
        <ele>367.0</ele>
        <time>2017-05-27T10:44:38.520Z</time>
      </trkpt>
      <trkpt lat="39.96080333" lon="-0.34397167">
        <ele>367.0</ele>
        <time>2017-05-27T10:44:39.525Z</time>
      </trkpt>
      <trkpt lat="39.96080333" lon="-0.34397167">
        <ele>367.0</ele>
        <time>2017-05-27T10:44:40.517Z</time>
      </trkpt>
      <trkpt lat="39.96081833" lon="-0.34403">
        <ele>367.0</ele>
        <time>2017-05-27T10:44:41.530Z</time>
      </trkpt>
      <trkpt lat="39.96082667" lon="-0.34405833">
        <ele>367.0</ele>
        <time>2017-05-27T10:44:42.526Z</time>
      </trkpt>
      <trkpt lat="39.96082667" lon="-0.34405833">
        <ele>367.0</ele>
        <time>2017-05-27T10:44:43.520Z</time>
      </trkpt>
      <trkpt lat="39.96084167" lon="-0.34411833">
        <ele>368.0</ele>
        <time>2017-05-27T10:44:44.502Z</time>
      </trkpt>
      <trkpt lat="39.96084833" lon="-0.34414833">
        <ele>368.0</ele>
        <time>2017-05-27T10:44:45.527Z</time>
      </trkpt>
      <trkpt lat="39.96084833" lon="-0.34414833">
        <ele>368.0</ele>
        <time>2017-05-27T10:44:46.503Z</time>
      </trkpt>
      <trkpt lat="39.96086833" lon="-0.34420667">
        <ele>369.0</ele>
        <time>2017-05-27T10:44:47.496Z</time>
      </trkpt>
      <trkpt lat="39.96087833" lon="-0.344235">
        <ele>369.0</ele>
        <time>2017-05-27T10:44:48.527Z</time>
      </trkpt>
      <trkpt lat="39.96087833" lon="-0.344235">
        <ele>369.0</ele>
        <time>2017-05-27T10:44:49.524Z</time>
      </trkpt>
      <trkpt lat="39.96089167" lon="-0.34429833">
        <ele>369.0</ele>
        <time>2017-05-27T10:44:50.509Z</time>
      </trkpt>
      <trkpt lat="39.96090167" lon="-0.34432833">
        <ele>369.0</ele>
        <time>2017-05-27T10:44:51.508Z</time>
      </trkpt>
      <trkpt lat="39.96090167" lon="-0.34432833">
        <ele>369.0</ele>
        <time>2017-05-27T10:44:52.520Z</time>
      </trkpt>
      <trkpt lat="39.96092" lon="-0.344385">
        <ele>370.0</ele>
        <time>2017-05-27T10:44:53.516Z</time>
      </trkpt>
      <trkpt lat="39.96092" lon="-0.344385">
        <ele>370.0</ele>
        <time>2017-05-27T10:44:54.491Z</time>
      </trkpt>
      <trkpt lat="39.96093333" lon="-0.34443833">
        <ele>370.0</ele>
        <time>2017-05-27T10:44:55.511Z</time>
      </trkpt>
      <trkpt lat="39.96093333" lon="-0.34443833">
        <ele>370.0</ele>
        <time>2017-05-27T10:44:56.506Z</time>
      </trkpt>
      <trkpt lat="39.96095" lon="-0.34449833">
        <ele>370.0</ele>
        <time>2017-05-27T10:44:57.534Z</time>
      </trkpt>
      <trkpt lat="39.96096" lon="-0.34452833">
        <ele>371.0</ele>
        <time>2017-05-27T10:44:58.507Z</time>
      </trkpt>
      <trkpt lat="39.96096" lon="-0.34452833">
        <ele>371.0</ele>
        <time>2017-05-27T10:44:59.526Z</time>
      </trkpt>
      <trkpt lat="39.96097833" lon="-0.34458667">
        <ele>371.0</ele>
        <time>2017-05-27T10:45:00.522Z</time>
      </trkpt>
      <trkpt lat="39.96097833" lon="-0.34458667">
        <ele>371.0</ele>
        <time>2017-05-27T10:45:01.492Z</time>
      </trkpt>
      <trkpt lat="39.96099333" lon="-0.34464167">
        <ele>371.0</ele>
        <time>2017-05-27T10:45:02.515Z</time>
      </trkpt>
      <trkpt lat="39.961005" lon="-0.34466833">
        <ele>371.0</ele>
        <time>2017-05-27T10:45:03.518Z</time>
      </trkpt>
      <trkpt lat="39.961005" lon="-0.34466833">
        <ele>371.0</ele>
        <time>2017-05-27T10:45:04.491Z</time>
      </trkpt>
      <trkpt lat="39.96103167" lon="-0.34472333">
        <ele>372.0</ele>
        <time>2017-05-27T10:45:05.510Z</time>
      </trkpt>
      <trkpt lat="39.961045" lon="-0.34475">
        <ele>372.0</ele>
        <time>2017-05-27T10:45:06.502Z</time>
      </trkpt>
      <trkpt lat="39.961045" lon="-0.34475">
        <ele>372.0</ele>
        <time>2017-05-27T10:45:07.505Z</time>
      </trkpt>
      <trkpt lat="39.96107167" lon="-0.344805">
        <ele>372.0</ele>
        <time>2017-05-27T10:45:08.494Z</time>
      </trkpt>
      <trkpt lat="39.96107167" lon="-0.344805">
        <ele>372.0</ele>
        <time>2017-05-27T10:45:09.507Z</time>
      </trkpt>
      <trkpt lat="39.96110167" lon="-0.34485333">
        <ele>372.0</ele>
        <time>2017-05-27T10:45:10.532Z</time>
      </trkpt>
      <trkpt lat="39.96110167" lon="-0.34485333">
        <ele>372.0</ele>
        <time>2017-05-27T10:45:11.530Z</time>
      </trkpt>
      <trkpt lat="39.96113833" lon="-0.344895">
        <ele>373.0</ele>
        <time>2017-05-27T10:45:12.522Z</time>
      </trkpt>
      <trkpt lat="39.96113833" lon="-0.344895">
        <ele>373.0</ele>
        <time>2017-05-27T10:45:13.500Z</time>
      </trkpt>
      <trkpt lat="39.96117" lon="-0.34494333">
        <ele>373.0</ele>
        <time>2017-05-27T10:45:14.518Z</time>
      </trkpt>
      <trkpt lat="39.96117" lon="-0.34494333">
        <ele>373.0</ele>
        <time>2017-05-27T10:45:15.528Z</time>
      </trkpt>
      <trkpt lat="39.961205" lon="-0.34498667">
        <ele>373.0</ele>
        <time>2017-05-27T10:45:16.507Z</time>
      </trkpt>
      <trkpt lat="39.961205" lon="-0.34498667">
        <ele>373.0</ele>
        <time>2017-05-27T10:45:17.505Z</time>
      </trkpt>
      <trkpt lat="39.96124333" lon="-0.34502667">
        <ele>374.0</ele>
        <time>2017-05-27T10:45:18.521Z</time>
      </trkpt>
      <trkpt lat="39.96124333" lon="-0.34502667">
        <ele>374.0</ele>
        <time>2017-05-27T10:45:19.499Z</time>
      </trkpt>
      <trkpt lat="39.96128167" lon="-0.345065">
        <ele>374.0</ele>
        <time>2017-05-27T10:45:20.524Z</time>
      </trkpt>
      <trkpt lat="39.96130167" lon="-0.34508667">
        <ele>374.0</ele>
        <time>2017-05-27T10:45:21.506Z</time>
      </trkpt>
      <trkpt lat="39.96130167" lon="-0.34508667">
        <ele>374.0</ele>
        <time>2017-05-27T10:45:22.529Z</time>
      </trkpt>
      <trkpt lat="39.96134" lon="-0.34512333">
        <ele>374.0</ele>
        <time>2017-05-27T10:45:23.519Z</time>
      </trkpt>
      <trkpt lat="39.96136" lon="-0.34514">
        <ele>374.0</ele>
        <time>2017-05-27T10:45:24.510Z</time>
      </trkpt>
      <trkpt lat="39.96136" lon="-0.34514">
        <ele>374.0</ele>
        <time>2017-05-27T10:45:25.504Z</time>
      </trkpt>
      <trkpt lat="39.9614" lon="-0.34517">
        <ele>375.0</ele>
        <time>2017-05-27T10:45:26.519Z</time>
      </trkpt>
      <trkpt lat="39.96142167" lon="-0.345185">
        <ele>375.0</ele>
        <time>2017-05-27T10:45:27.529Z</time>
      </trkpt>
      <trkpt lat="39.96142167" lon="-0.345185">
        <ele>375.0</ele>
        <time>2017-05-27T10:45:28.503Z</time>
      </trkpt>
      <trkpt lat="39.96147" lon="-0.34521">
        <ele>375.0</ele>
        <time>2017-05-27T10:45:29.533Z</time>
      </trkpt>
      <trkpt lat="39.96147" lon="-0.34521">
        <ele>375.0</ele>
        <time>2017-05-27T10:45:30.523Z</time>
      </trkpt>
      <trkpt lat="39.96153833" lon="-0.345225">
        <ele>375.0</ele>
        <time>2017-05-27T10:45:31.506Z</time>
      </trkpt>
      <trkpt lat="39.96153833" lon="-0.345225">
        <ele>375.0</ele>
        <time>2017-05-27T10:45:32.526Z</time>
      </trkpt>
      <trkpt lat="39.96160167" lon="-0.34522333">
        <ele>376.0</ele>
        <time>2017-05-27T10:45:33.518Z</time>
      </trkpt>
      <trkpt lat="39.96160167" lon="-0.34522333">
        <ele>376.0</ele>
        <time>2017-05-27T10:45:34.499Z</time>
      </trkpt>
      <trkpt lat="39.961655" lon="-0.34522167">
        <ele>376.0</ele>
        <time>2017-05-27T10:45:35.527Z</time>
      </trkpt>
      <trkpt lat="39.961655" lon="-0.34522167">
        <ele>376.0</ele>
        <time>2017-05-27T10:45:36.505Z</time>
      </trkpt>
      <trkpt lat="39.961705" lon="-0.34521667">
        <ele>377.0</ele>
        <time>2017-05-27T10:45:37.524Z</time>
      </trkpt>
      <trkpt lat="39.961705" lon="-0.34521667">
        <ele>377.0</ele>
        <time>2017-05-27T10:45:38.493Z</time>
      </trkpt>
      <trkpt lat="39.96175333" lon="-0.34521333">
        <ele>377.0</ele>
        <time>2017-05-27T10:45:39.530Z</time>
      </trkpt>
      <trkpt lat="39.96175333" lon="-0.34521333">
        <ele>377.0</ele>
        <time>2017-05-27T10:45:40.509Z</time>
      </trkpt>
      <trkpt lat="39.9618" lon="-0.34520667">
        <ele>378.0</ele>
        <time>2017-05-27T10:45:41.528Z</time>
      </trkpt>
      <trkpt lat="39.961825" lon="-0.345205">
        <ele>377.0</ele>
        <time>2017-05-27T10:45:42.506Z</time>
      </trkpt>
      <trkpt lat="39.961825" lon="-0.345205">
        <ele>377.0</ele>
        <time>2017-05-27T10:45:43.515Z</time>
      </trkpt>
      <trkpt lat="39.96187333" lon="-0.34520333">
        <ele>377.0</ele>
        <time>2017-05-27T10:45:44.494Z</time>
      </trkpt>
      <trkpt lat="39.96187333" lon="-0.34520333">
        <ele>377.0</ele>
        <time>2017-05-27T10:45:45.508Z</time>
      </trkpt>
      <trkpt lat="39.96192" lon="-0.34520333">
        <ele>377.0</ele>
        <time>2017-05-27T10:45:46.523Z</time>
      </trkpt>
      <trkpt lat="39.96192" lon="-0.34520333">
        <ele>377.0</ele>
        <time>2017-05-27T10:45:47.500Z</time>
      </trkpt>
      <trkpt lat="39.961965" lon="-0.34520667">
        <ele>377.0</ele>
        <time>2017-05-27T10:45:48.513Z</time>
      </trkpt>
      <trkpt lat="39.961965" lon="-0.34520667">
        <ele>377.0</ele>
        <time>2017-05-27T10:45:49.497Z</time>
      </trkpt>
      <trkpt lat="39.96201167" lon="-0.34520667">
        <ele>377.0</ele>
        <time>2017-05-27T10:45:50.515Z</time>
      </trkpt>
      <trkpt lat="39.962035" lon="-0.34520333">
        <ele>377.0</ele>
        <time>2017-05-27T10:45:51.496Z</time>
      </trkpt>
      <trkpt lat="39.962035" lon="-0.34520333">
        <ele>377.0</ele>
        <time>2017-05-27T10:45:52.519Z</time>
      </trkpt>
      <trkpt lat="39.96208333" lon="-0.345195">
        <ele>377.0</ele>
        <time>2017-05-27T10:45:53.499Z</time>
      </trkpt>
      <trkpt lat="39.96210667" lon="-0.34519">
        <ele>378.0</ele>
        <time>2017-05-27T10:45:54.525Z</time>
      </trkpt>
      <trkpt lat="39.96210667" lon="-0.34519">
        <ele>378.0</ele>
        <time>2017-05-27T10:45:55.495Z</time>
      </trkpt>
      <trkpt lat="39.96215167" lon="-0.34517833">
        <ele>378.0</ele>
        <time>2017-05-27T10:45:56.495Z</time>
      </trkpt>
      <trkpt lat="39.962175" lon="-0.34518">
        <ele>378.0</ele>
        <time>2017-05-27T10:45:57.530Z</time>
      </trkpt>
      <trkpt lat="39.962175" lon="-0.34518">
        <ele>378.0</ele>
        <time>2017-05-27T10:45:58.503Z</time>
      </trkpt>
      <trkpt lat="39.96222" lon="-0.34517667">
        <ele>378.0</ele>
        <time>2017-05-27T10:45:59.523Z</time>
      </trkpt>
      <trkpt lat="39.96222" lon="-0.34517667">
        <ele>378.0</ele>
        <time>2017-05-27T10:46:00.497Z</time>
      </trkpt>
      <trkpt lat="39.96226667" lon="-0.34517333">
        <ele>379.0</ele>
        <time>2017-05-27T10:46:01.521Z</time>
      </trkpt>
      <trkpt lat="39.96226667" lon="-0.34517333">
        <ele>379.0</ele>
        <time>2017-05-27T10:46:02.507Z</time>
      </trkpt>
      <trkpt lat="39.96231333" lon="-0.34517">
        <ele>380.0</ele>
        <time>2017-05-27T10:46:03.527Z</time>
      </trkpt>
      <trkpt lat="39.96231333" lon="-0.34517">
        <ele>380.0</ele>
        <time>2017-05-27T10:46:04.495Z</time>
      </trkpt>
      <trkpt lat="39.962365" lon="-0.34516833">
        <ele>379.0</ele>
        <time>2017-05-27T10:46:05.529Z</time>
      </trkpt>
      <trkpt lat="39.962365" lon="-0.34516833">
        <ele>379.0</ele>
        <time>2017-05-27T10:46:06.508Z</time>
      </trkpt>
      <trkpt lat="39.962415" lon="-0.34515833">
        <ele>379.0</ele>
        <time>2017-05-27T10:46:07.494Z</time>
      </trkpt>
      <trkpt lat="39.962415" lon="-0.34515833">
        <ele>379.0</ele>
        <time>2017-05-27T10:46:08.511Z</time>
      </trkpt>
      <trkpt lat="39.96246333" lon="-0.34515333">
        <ele>379.0</ele>
        <time>2017-05-27T10:46:09.530Z</time>
      </trkpt>
      <trkpt lat="39.96246333" lon="-0.34515333">
        <ele>379.0</ele>
        <time>2017-05-27T10:46:10.500Z</time>
      </trkpt>
      <trkpt lat="39.96251333" lon="-0.34514833">
        <ele>379.0</ele>
        <time>2017-05-27T10:46:11.517Z</time>
      </trkpt>
      <trkpt lat="39.96251333" lon="-0.34514833">
        <ele>379.0</ele>
        <time>2017-05-27T10:46:12.510Z</time>
      </trkpt>
      <trkpt lat="39.96256333" lon="-0.34513667">
        <ele>379.0</ele>
        <time>2017-05-27T10:46:13.528Z</time>
      </trkpt>
      <trkpt lat="39.96258667" lon="-0.34512667">
        <ele>379.0</ele>
        <time>2017-05-27T10:46:14.522Z</time>
      </trkpt>
      <trkpt lat="39.96258667" lon="-0.34512667">
        <ele>379.0</ele>
        <time>2017-05-27T10:46:15.504Z</time>
      </trkpt>
      <trkpt lat="39.96263333" lon="-0.34509667">
        <ele>380.0</ele>
        <time>2017-05-27T10:46:16.525Z</time>
      </trkpt>
      <trkpt lat="39.962655" lon="-0.34507833">
        <ele>380.0</ele>
        <time>2017-05-27T10:46:17.507Z</time>
      </trkpt>
      <trkpt lat="39.962655" lon="-0.34507833">
        <ele>380.0</ele>
        <time>2017-05-27T10:46:18.492Z</time>
      </trkpt>
      <trkpt lat="39.962695" lon="-0.34504167">
        <ele>381.0</ele>
        <time>2017-05-27T10:46:19.525Z</time>
      </trkpt>
      <trkpt lat="39.962695" lon="-0.34504167">
        <ele>381.0</ele>
        <time>2017-05-27T10:46:20.527Z</time>
      </trkpt>
      <trkpt lat="39.96272833" lon="-0.345005">
        <ele>383.0</ele>
        <time>2017-05-27T10:46:21.515Z</time>
      </trkpt>
      <trkpt lat="39.96272833" lon="-0.345005">
        <ele>383.0</ele>
        <time>2017-05-27T10:46:22.516Z</time>
      </trkpt>
      <trkpt lat="39.96276167" lon="-0.34496333">
        <ele>383.0</ele>
        <time>2017-05-27T10:46:23.531Z</time>
      </trkpt>
      <trkpt lat="39.962775" lon="-0.34494">
        <ele>384.0</ele>
        <time>2017-05-27T10:46:24.507Z</time>
      </trkpt>
      <trkpt lat="39.962775" lon="-0.34494">
        <ele>384.0</ele>
        <time>2017-05-27T10:46:25.522Z</time>
      </trkpt>
      <trkpt lat="39.96279167" lon="-0.34489">
        <ele>385.0</ele>
        <time>2017-05-27T10:46:26.495Z</time>
      </trkpt>
      <trkpt lat="39.96279667" lon="-0.34486833">
        <ele>386.0</ele>
        <time>2017-05-27T10:46:27.515Z</time>
      </trkpt>
      <trkpt lat="39.96279667" lon="-0.34486833">
        <ele>386.0</ele>
        <time>2017-05-27T10:46:28.509Z</time>
      </trkpt>
      <trkpt lat="39.96281667" lon="-0.344815">
        <ele>386.0</ele>
        <time>2017-05-27T10:46:29.532Z</time>
      </trkpt>
      <trkpt lat="39.96281667" lon="-0.344815">
        <ele>386.0</ele>
        <time>2017-05-27T10:46:30.522Z</time>
      </trkpt>
      <trkpt lat="39.96283167" lon="-0.344765">
        <ele>387.0</ele>
        <time>2017-05-27T10:46:31.497Z</time>
      </trkpt>
      <trkpt lat="39.96283167" lon="-0.344765">
        <ele>387.0</ele>
        <time>2017-05-27T10:46:32.510Z</time>
      </trkpt>
      <trkpt lat="39.96284333" lon="-0.34470667">
        <ele>388.0</ele>
        <time>2017-05-27T10:46:33.529Z</time>
      </trkpt>
      <trkpt lat="39.96284333" lon="-0.34470667">
        <ele>388.0</ele>
        <time>2017-05-27T10:46:34.504Z</time>
      </trkpt>
      <trkpt lat="39.96285667" lon="-0.34464333">
        <ele>388.0</ele>
        <time>2017-05-27T10:46:35.527Z</time>
      </trkpt>
      <trkpt lat="39.96286167" lon="-0.34461333">
        <ele>388.0</ele>
        <time>2017-05-27T10:46:36.505Z</time>
      </trkpt>
      <trkpt lat="39.96286167" lon="-0.34461333">
        <ele>388.0</ele>
        <time>2017-05-27T10:46:37.526Z</time>
      </trkpt>
      <trkpt lat="39.96287333" lon="-0.34455">
        <ele>389.0</ele>
        <time>2017-05-27T10:46:38.506Z</time>
      </trkpt>
      <trkpt lat="39.96288" lon="-0.34451833">
        <ele>389.0</ele>
        <time>2017-05-27T10:46:39.523Z</time>
      </trkpt>
      <trkpt lat="39.96288" lon="-0.34451833">
        <ele>389.0</ele>
        <time>2017-05-27T10:46:40.495Z</time>
      </trkpt>
      <trkpt lat="39.96289167" lon="-0.34445667">
        <ele>390.0</ele>
        <time>2017-05-27T10:46:41.514Z</time>
      </trkpt>
      <trkpt lat="39.96289167" lon="-0.34445667">
        <ele>390.0</ele>
        <time>2017-05-27T10:46:42.491Z</time>
      </trkpt>
      <trkpt lat="39.96290667" lon="-0.34439333">
        <ele>390.0</ele>
        <time>2017-05-27T10:46:43.510Z</time>
      </trkpt>
      <trkpt lat="39.96290667" lon="-0.34439333">
        <ele>390.0</ele>
        <time>2017-05-27T10:46:44.530Z</time>
      </trkpt>
      <trkpt lat="39.96292" lon="-0.34432833">
        <ele>391.0</ele>
        <time>2017-05-27T10:46:45.508Z</time>
      </trkpt>
      <trkpt lat="39.96292" lon="-0.34432833">
        <ele>391.0</ele>
        <time>2017-05-27T10:46:46.526Z</time>
      </trkpt>
      <trkpt lat="39.962935" lon="-0.34426667">
        <ele>392.0</ele>
        <time>2017-05-27T10:46:47.506Z</time>
      </trkpt>
      <trkpt lat="39.962935" lon="-0.34426667">
        <ele>392.0</ele>
        <time>2017-05-27T10:46:48.530Z</time>
      </trkpt>
      <trkpt lat="39.96295" lon="-0.34420333">
        <ele>392.0</ele>
        <time>2017-05-27T10:46:49.503Z</time>
      </trkpt>
      <trkpt lat="39.96295" lon="-0.34420333">
        <ele>392.0</ele>
        <time>2017-05-27T10:46:50.526Z</time>
      </trkpt>
      <trkpt lat="39.962965" lon="-0.34414167">
        <ele>393.0</ele>
        <time>2017-05-27T10:46:51.508Z</time>
      </trkpt>
      <trkpt lat="39.962965" lon="-0.34414167">
        <ele>393.0</ele>
        <time>2017-05-27T10:46:52.526Z</time>
      </trkpt>
      <trkpt lat="39.96297833" lon="-0.34408167">
        <ele>393.0</ele>
        <time>2017-05-27T10:46:53.511Z</time>
      </trkpt>
      <trkpt lat="39.96297833" lon="-0.34408167">
        <ele>393.0</ele>
        <time>2017-05-27T10:46:54.523Z</time>
      </trkpt>
      <trkpt lat="39.96299167" lon="-0.34402167">
        <ele>394.0</ele>
        <time>2017-05-27T10:46:55.500Z</time>
      </trkpt>
      <trkpt lat="39.96299167" lon="-0.34402167">
        <ele>394.0</ele>
        <time>2017-05-27T10:46:56.516Z</time>
      </trkpt>
      <trkpt lat="39.96300167" lon="-0.34396">
        <ele>395.0</ele>
        <time>2017-05-27T10:46:57.500Z</time>
      </trkpt>
      <trkpt lat="39.96300167" lon="-0.34396">
        <ele>395.0</ele>
        <time>2017-05-27T10:46:58.528Z</time>
      </trkpt>
      <trkpt lat="39.96301833" lon="-0.34390167">
        <ele>395.0</ele>
        <time>2017-05-27T10:46:59.527Z</time>
      </trkpt>
      <trkpt lat="39.96301833" lon="-0.34390167">
        <ele>395.0</ele>
        <time>2017-05-27T10:47:00.500Z</time>
      </trkpt>
      <trkpt lat="39.96303833" lon="-0.34384">
        <ele>396.0</ele>
        <time>2017-05-27T10:47:01.496Z</time>
      </trkpt>
      <trkpt lat="39.96303833" lon="-0.34384">
        <ele>396.0</ele>
        <time>2017-05-27T10:47:02.510Z</time>
      </trkpt>
      <trkpt lat="39.96305833" lon="-0.34377833">
        <ele>397.0</ele>
        <time>2017-05-27T10:47:03.528Z</time>
      </trkpt>
      <trkpt lat="39.96305833" lon="-0.34377833">
        <ele>397.0</ele>
        <time>2017-05-27T10:47:04.496Z</time>
      </trkpt>
      <trkpt lat="39.96307167" lon="-0.34371667">
        <ele>397.0</ele>
        <time>2017-05-27T10:47:05.520Z</time>
      </trkpt>
      <trkpt lat="39.96308" lon="-0.343685">
        <ele>398.0</ele>
        <time>2017-05-27T10:47:06.533Z</time>
      </trkpt>
      <trkpt lat="39.96308" lon="-0.343685">
        <ele>398.0</ele>
        <time>2017-05-27T10:47:07.528Z</time>
      </trkpt>
      <trkpt lat="39.96309833" lon="-0.34362167">
        <ele>398.0</ele>
        <time>2017-05-27T10:47:08.507Z</time>
      </trkpt>
      <trkpt lat="39.96310333" lon="-0.34359">
        <ele>399.0</ele>
        <time>2017-05-27T10:47:09.524Z</time>
      </trkpt>
      <trkpt lat="39.96310333" lon="-0.34359">
        <ele>399.0</ele>
        <time>2017-05-27T10:47:10.501Z</time>
      </trkpt>
      <trkpt lat="39.96312" lon="-0.34352833">
        <ele>399.0</ele>
        <time>2017-05-27T10:47:11.522Z</time>
      </trkpt>
      <trkpt lat="39.96313" lon="-0.343495">
        <ele>400.0</ele>
        <time>2017-05-27T10:47:12.517Z</time>
      </trkpt>
      <trkpt lat="39.96313" lon="-0.343495">
        <ele>400.0</ele>
        <time>2017-05-27T10:47:13.527Z</time>
      </trkpt>
      <trkpt lat="39.96314667" lon="-0.343435">
        <ele>400.0</ele>
        <time>2017-05-27T10:47:14.507Z</time>
      </trkpt>
      <trkpt lat="39.96314667" lon="-0.343435">
        <ele>400.0</ele>
        <time>2017-05-27T10:47:15.512Z</time>
      </trkpt>
      <trkpt lat="39.96316" lon="-0.34337333">
        <ele>401.0</ele>
        <time>2017-05-27T10:47:16.491Z</time>
      </trkpt>
      <trkpt lat="39.96316" lon="-0.34337333">
        <ele>401.0</ele>
        <time>2017-05-27T10:47:17.530Z</time>
      </trkpt>
      <trkpt lat="39.96317" lon="-0.34331">
        <ele>401.0</ele>
        <time>2017-05-27T10:47:18.526Z</time>
      </trkpt>
      <trkpt lat="39.96317" lon="-0.34331">
        <ele>401.0</ele>
        <time>2017-05-27T10:47:19.506Z</time>
      </trkpt>
      <trkpt lat="39.96316833" lon="-0.34324333">
        <ele>402.0</ele>
        <time>2017-05-27T10:47:20.529Z</time>
      </trkpt>
      <trkpt lat="39.96316833" lon="-0.34324333">
        <ele>402.0</ele>
        <time>2017-05-27T10:47:21.512Z</time>
      </trkpt>
      <trkpt lat="39.963175" lon="-0.34317833">
        <ele>402.0</ele>
        <time>2017-05-27T10:47:22.493Z</time>
      </trkpt>
      <trkpt lat="39.963175" lon="-0.34317833">
        <ele>402.0</ele>
        <time>2017-05-27T10:47:23.516Z</time>
      </trkpt>
      <trkpt lat="39.96318667" lon="-0.34311833">
        <ele>403.0</ele>
        <time>2017-05-27T10:47:24.499Z</time>
      </trkpt>
      <trkpt lat="39.96318667" lon="-0.34311833">
        <ele>403.0</ele>
        <time>2017-05-27T10:47:25.513Z</time>
      </trkpt>
      <trkpt lat="39.9632" lon="-0.34305833">
        <ele>403.0</ele>
        <time>2017-05-27T10:47:26.530Z</time>
      </trkpt>
      <trkpt lat="39.963205" lon="-0.34302833">
        <ele>403.0</ele>
        <time>2017-05-27T10:47:27.513Z</time>
      </trkpt>
      <trkpt lat="39.963205" lon="-0.34302833">
        <ele>403.0</ele>
        <time>2017-05-27T10:47:28.527Z</time>
      </trkpt>
      <trkpt lat="39.96322167" lon="-0.34297">
        <ele>404.0</ele>
        <time>2017-05-27T10:47:29.495Z</time>
      </trkpt>
      <trkpt lat="39.96322167" lon="-0.34297">
        <ele>404.0</ele>
        <time>2017-05-27T10:47:30.514Z</time>
      </trkpt>
      <trkpt lat="39.96323667" lon="-0.34291333">
        <ele>404.0</ele>
        <time>2017-05-27T10:47:31.496Z</time>
      </trkpt>
      <trkpt lat="39.963245" lon="-0.34288667">
        <ele>404.0</ele>
        <time>2017-05-27T10:47:32.518Z</time>
      </trkpt>
      <trkpt lat="39.963245" lon="-0.34288667">
        <ele>404.0</ele>
        <time>2017-05-27T10:47:33.499Z</time>
      </trkpt>
      <trkpt lat="39.96326167" lon="-0.34283333">
        <ele>405.0</ele>
        <time>2017-05-27T10:47:34.515Z</time>
      </trkpt>
      <trkpt lat="39.96326167" lon="-0.34283333">
        <ele>405.0</ele>
        <time>2017-05-27T10:47:35.495Z</time>
      </trkpt>
      <trkpt lat="39.96328" lon="-0.34277833">
        <ele>405.0</ele>
        <time>2017-05-27T10:47:36.525Z</time>
      </trkpt>
      <trkpt lat="39.96329" lon="-0.34275167">
        <ele>405.0</ele>
        <time>2017-05-27T10:47:37.526Z</time>
      </trkpt>
      <trkpt lat="39.96329" lon="-0.34275167">
        <ele>405.0</ele>
        <time>2017-05-27T10:47:38.493Z</time>
      </trkpt>
      <trkpt lat="39.96331167" lon="-0.34269833">
        <ele>405.0</ele>
        <time>2017-05-27T10:47:39.531Z</time>
      </trkpt>
      <trkpt lat="39.96331167" lon="-0.34269833">
        <ele>405.0</ele>
        <time>2017-05-27T10:47:40.512Z</time>
      </trkpt>
      <trkpt lat="39.96333333" lon="-0.34265">
        <ele>405.0</ele>
        <time>2017-05-27T10:47:41.525Z</time>
      </trkpt>
      <trkpt lat="39.96334667" lon="-0.342625">
        <ele>405.0</ele>
        <time>2017-05-27T10:47:42.530Z</time>
      </trkpt>
      <trkpt lat="39.96334667" lon="-0.342625">
        <ele>405.0</ele>
        <time>2017-05-27T10:47:43.530Z</time>
      </trkpt>
      <trkpt lat="39.96337333" lon="-0.34257667">
        <ele>404.0</ele>
        <time>2017-05-27T10:47:44.505Z</time>
      </trkpt>
      <trkpt lat="39.96337333" lon="-0.34257667">
        <ele>404.0</ele>
        <time>2017-05-27T10:47:45.500Z</time>
      </trkpt>
      <trkpt lat="39.96339333" lon="-0.34253">
        <ele>404.0</ele>
        <time>2017-05-27T10:47:46.516Z</time>
      </trkpt>
      <trkpt lat="39.96339333" lon="-0.34253">
        <ele>404.0</ele>
        <time>2017-05-27T10:47:47.496Z</time>
      </trkpt>
      <trkpt lat="39.96341833" lon="-0.34247833">
        <ele>405.0</ele>
        <time>2017-05-27T10:47:48.512Z</time>
      </trkpt>
      <trkpt lat="39.96343333" lon="-0.34245667">
        <ele>405.0</ele>
        <time>2017-05-27T10:47:49.502Z</time>
      </trkpt>
      <trkpt lat="39.96343333" lon="-0.34245667">
        <ele>405.0</ele>
        <time>2017-05-27T10:47:50.500Z</time>
      </trkpt>
      <trkpt lat="39.96344667" lon="-0.34241333">
        <ele>405.0</ele>
        <time>2017-05-27T10:47:51.516Z</time>
      </trkpt>
      <trkpt lat="39.96344667" lon="-0.34241333">
        <ele>405.0</ele>
        <time>2017-05-27T10:47:52.511Z</time>
      </trkpt>
      <trkpt lat="39.96347" lon="-0.34237">
        <ele>405.0</ele>
        <time>2017-05-27T10:47:53.531Z</time>
      </trkpt>
      <trkpt lat="39.96348667" lon="-0.342345">
        <ele>406.0</ele>
        <time>2017-05-27T10:47:54.498Z</time>
      </trkpt>
      <trkpt lat="39.96348667" lon="-0.342345">
        <ele>406.0</ele>
        <time>2017-05-27T10:47:55.504Z</time>
      </trkpt>
      <trkpt lat="39.963515" lon="-0.34229667">
        <ele>406.0</ele>
        <time>2017-05-27T10:47:56.493Z</time>
      </trkpt>
      <trkpt lat="39.96353" lon="-0.34227">
        <ele>406.0</ele>
        <time>2017-05-27T10:47:57.522Z</time>
      </trkpt>
      <trkpt lat="39.96353" lon="-0.34227">
        <ele>406.0</ele>
        <time>2017-05-27T10:47:58.491Z</time>
      </trkpt>
      <trkpt lat="39.96356" lon="-0.34222">
        <ele>407.0</ele>
        <time>2017-05-27T10:47:59.529Z</time>
      </trkpt>
      <trkpt lat="39.96356" lon="-0.34222">
        <ele>407.0</ele>
        <time>2017-05-27T10:48:00.509Z</time>
      </trkpt>
      <trkpt lat="39.96358667" lon="-0.34217333">
        <ele>407.0</ele>
        <time>2017-05-27T10:48:01.529Z</time>
      </trkpt>
      <trkpt lat="39.9636" lon="-0.34214833">
        <ele>407.0</ele>
        <time>2017-05-27T10:48:02.523Z</time>
      </trkpt>
      <trkpt lat="39.96361333" lon="-0.34212167">
        <ele>407.0</ele>
        <time>2017-05-27T10:48:03.516Z</time>
      </trkpt>
      <trkpt lat="39.96361333" lon="-0.34212167">
        <ele>407.0</ele>
        <time>2017-05-27T10:48:04.499Z</time>
      </trkpt>
      <trkpt lat="39.96363833" lon="-0.34207167">
        <ele>407.0</ele>
        <time>2017-05-27T10:48:05.516Z</time>
      </trkpt>
      <trkpt lat="39.96363833" lon="-0.34207167">
        <ele>407.0</ele>
        <time>2017-05-27T10:48:06.500Z</time>
      </trkpt>
      <trkpt lat="39.963665" lon="-0.34202">
        <ele>407.0</ele>
        <time>2017-05-27T10:48:07.513Z</time>
      </trkpt>
      <trkpt lat="39.963665" lon="-0.34202">
        <ele>407.0</ele>
        <time>2017-05-27T10:48:08.530Z</time>
      </trkpt>
      <trkpt lat="39.96368333" lon="-0.34196167">
        <ele>407.0</ele>
        <time>2017-05-27T10:48:09.510Z</time>
      </trkpt>
      <trkpt lat="39.96368333" lon="-0.34196167">
        <ele>407.0</ele>
        <time>2017-05-27T10:48:10.526Z</time>
      </trkpt>
      <trkpt lat="39.96369833" lon="-0.341905">
        <ele>408.0</ele>
        <time>2017-05-27T10:48:11.513Z</time>
      </trkpt>
      <trkpt lat="39.96369833" lon="-0.341905">
        <ele>408.0</ele>
        <time>2017-05-27T10:48:12.501Z</time>
      </trkpt>
      <trkpt lat="39.96371333" lon="-0.34184833">
        <ele>408.0</ele>
        <time>2017-05-27T10:48:13.491Z</time>
      </trkpt>
      <trkpt lat="39.96371333" lon="-0.34184833">
        <ele>408.0</ele>
        <time>2017-05-27T10:48:14.524Z</time>
      </trkpt>
      <trkpt lat="39.96372167" lon="-0.34179">
        <ele>408.0</ele>
        <time>2017-05-27T10:48:15.503Z</time>
      </trkpt>
      <trkpt lat="39.96372167" lon="-0.34179">
        <ele>408.0</ele>
        <time>2017-05-27T10:48:16.491Z</time>
      </trkpt>
      <trkpt lat="39.96373167" lon="-0.34172667">
        <ele>409.0</ele>
        <time>2017-05-27T10:48:17.530Z</time>
      </trkpt>
      <trkpt lat="39.96373167" lon="-0.34172667">
        <ele>409.0</ele>
        <time>2017-05-27T10:48:18.500Z</time>
      </trkpt>
      <trkpt lat="39.96374167" lon="-0.34166333">
        <ele>409.0</ele>
        <time>2017-05-27T10:48:19.494Z</time>
      </trkpt>
      <trkpt lat="39.963745" lon="-0.34163167">
        <ele>409.0</ele>
        <time>2017-05-27T10:48:20.513Z</time>
      </trkpt>
      <trkpt lat="39.963745" lon="-0.34163167">
        <ele>409.0</ele>
        <time>2017-05-27T10:48:21.499Z</time>
      </trkpt>
      <trkpt lat="39.963755" lon="-0.34156833">
        <ele>410.0</ele>
        <time>2017-05-27T10:48:22.527Z</time>
      </trkpt>
      <trkpt lat="39.963755" lon="-0.34156833">
        <ele>410.0</ele>
        <time>2017-05-27T10:48:23.493Z</time>
      </trkpt>
      <trkpt lat="39.96376333" lon="-0.34150333">
        <ele>410.0</ele>
        <time>2017-05-27T10:48:24.518Z</time>
      </trkpt>
      <trkpt lat="39.96376333" lon="-0.34150333">
        <ele>410.0</ele>
        <time>2017-05-27T10:48:25.515Z</time>
      </trkpt>
      <trkpt lat="39.96377167" lon="-0.34143833">
        <ele>410.0</ele>
        <time>2017-05-27T10:48:26.496Z</time>
      </trkpt>
      <trkpt lat="39.96377167" lon="-0.34143833">
        <ele>410.0</ele>
        <time>2017-05-27T10:48:27.523Z</time>
      </trkpt>
      <trkpt lat="39.96377667" lon="-0.341375">
        <ele>410.0</ele>
        <time>2017-05-27T10:48:28.527Z</time>
      </trkpt>
      <trkpt lat="39.96377667" lon="-0.341375">
        <ele>410.0</ele>
        <time>2017-05-27T10:48:29.493Z</time>
      </trkpt>
      <trkpt lat="39.96378333" lon="-0.34131167">
        <ele>411.0</ele>
        <time>2017-05-27T10:48:30.512Z</time>
      </trkpt>
      <trkpt lat="39.96379" lon="-0.34127833">
        <ele>411.0</ele>
        <time>2017-05-27T10:48:31.520Z</time>
      </trkpt>
      <trkpt lat="39.96379" lon="-0.34127833">
        <ele>411.0</ele>
        <time>2017-05-27T10:48:32.504Z</time>
      </trkpt>
      <trkpt lat="39.963795" lon="-0.34121333">
        <ele>411.0</ele>
        <time>2017-05-27T10:48:33.534Z</time>
      </trkpt>
      <trkpt lat="39.963795" lon="-0.34121333">
        <ele>411.0</ele>
        <time>2017-05-27T10:48:34.514Z</time>
      </trkpt>
      <trkpt lat="39.96380167" lon="-0.34114667">
        <ele>411.0</ele>
        <time>2017-05-27T10:48:35.495Z</time>
      </trkpt>
      <trkpt lat="39.96380167" lon="-0.34114667">
        <ele>411.0</ele>
        <time>2017-05-27T10:48:36.526Z</time>
      </trkpt>
      <trkpt lat="39.96380667" lon="-0.341085">
        <ele>411.0</ele>
        <time>2017-05-27T10:48:37.498Z</time>
      </trkpt>
      <trkpt lat="39.96380833" lon="-0.341055">
        <ele>412.0</ele>
        <time>2017-05-27T10:48:38.496Z</time>
      </trkpt>
      <trkpt lat="39.96380833" lon="-0.341055">
        <ele>412.0</ele>
        <time>2017-05-27T10:48:39.499Z</time>
      </trkpt>
      <trkpt lat="39.963815" lon="-0.34099333">
        <ele>412.0</ele>
        <time>2017-05-27T10:48:40.520Z</time>
      </trkpt>
      <trkpt lat="39.963815" lon="-0.34099333">
        <ele>412.0</ele>
        <time>2017-05-27T10:48:41.498Z</time>
      </trkpt>
      <trkpt lat="39.96382667" lon="-0.34092833">
        <ele>413.0</ele>
        <time>2017-05-27T10:48:42.495Z</time>
      </trkpt>
      <trkpt lat="39.96383167" lon="-0.34089667">
        <ele>413.0</ele>
        <time>2017-05-27T10:48:43.524Z</time>
      </trkpt>
      <trkpt lat="39.96383167" lon="-0.34089667">
        <ele>413.0</ele>
        <time>2017-05-27T10:48:44.531Z</time>
      </trkpt>
      <trkpt lat="39.96383333" lon="-0.340835">
        <ele>413.0</ele>
        <time>2017-05-27T10:48:45.507Z</time>
      </trkpt>
      <trkpt lat="39.96383333" lon="-0.340835">
        <ele>413.0</ele>
        <time>2017-05-27T10:48:46.497Z</time>
      </trkpt>
      <trkpt lat="39.96384333" lon="-0.34077333">
        <ele>414.0</ele>
        <time>2017-05-27T10:48:47.526Z</time>
      </trkpt>
      <trkpt lat="39.96384667" lon="-0.340745">
        <ele>414.0</ele>
        <time>2017-05-27T10:48:48.516Z</time>
      </trkpt>
      <trkpt lat="39.96384667" lon="-0.340745">
        <ele>414.0</ele>
        <time>2017-05-27T10:48:49.507Z</time>
      </trkpt>
      <trkpt lat="39.96385" lon="-0.34068">
        <ele>414.0</ele>
        <time>2017-05-27T10:48:50.527Z</time>
      </trkpt>
      <trkpt lat="39.96384833" lon="-0.34064667">
        <ele>415.0</ele>
        <time>2017-05-27T10:48:51.523Z</time>
      </trkpt>
      <trkpt lat="39.96384833" lon="-0.34064667">
        <ele>415.0</ele>
        <time>2017-05-27T10:48:52.498Z</time>
      </trkpt>
      <trkpt lat="39.96383667" lon="-0.34057333">
        <ele>415.0</ele>
        <time>2017-05-27T10:48:53.521Z</time>
      </trkpt>
      <trkpt lat="39.96384167" lon="-0.34053833">
        <ele>414.0</ele>
        <time>2017-05-27T10:48:54.517Z</time>
      </trkpt>
      <trkpt lat="39.96384167" lon="-0.34053833">
        <ele>414.0</ele>
        <time>2017-05-27T10:48:55.492Z</time>
      </trkpt>
      <trkpt lat="39.96385167" lon="-0.34047167">
        <ele>414.0</ele>
        <time>2017-05-27T10:48:56.524Z</time>
      </trkpt>
      <trkpt lat="39.96385167" lon="-0.34047167">
        <ele>414.0</ele>
        <time>2017-05-27T10:48:57.499Z</time>
      </trkpt>
      <trkpt lat="39.96385833" lon="-0.34040833">
        <ele>414.0</ele>
        <time>2017-05-27T10:48:58.511Z</time>
      </trkpt>
      <trkpt lat="39.96385833" lon="-0.34040833">
        <ele>414.0</ele>
        <time>2017-05-27T10:48:59.530Z</time>
      </trkpt>
      <trkpt lat="39.96386167" lon="-0.34034333">
        <ele>414.0</ele>
        <time>2017-05-27T10:49:00.507Z</time>
      </trkpt>
      <trkpt lat="39.96386167" lon="-0.34034333">
        <ele>414.0</ele>
        <time>2017-05-27T10:49:01.530Z</time>
      </trkpt>
      <trkpt lat="39.963865" lon="-0.340285">
        <ele>414.0</ele>
        <time>2017-05-27T10:49:02.513Z</time>
      </trkpt>
      <trkpt lat="39.96386667" lon="-0.340255">
        <ele>414.0</ele>
        <time>2017-05-27T10:49:03.517Z</time>
      </trkpt>
      <trkpt lat="39.96386667" lon="-0.340255">
        <ele>414.0</ele>
        <time>2017-05-27T10:49:04.494Z</time>
      </trkpt>
      <trkpt lat="39.96387667" lon="-0.34019667">
        <ele>414.0</ele>
        <time>2017-05-27T10:49:05.515Z</time>
      </trkpt>
      <trkpt lat="39.96388333" lon="-0.34016833">
        <ele>414.0</ele>
        <time>2017-05-27T10:49:06.504Z</time>
      </trkpt>
      <trkpt lat="39.96388333" lon="-0.34016833">
        <ele>414.0</ele>
        <time>2017-05-27T10:49:07.505Z</time>
      </trkpt>
      <trkpt lat="39.963895" lon="-0.34011167">
        <ele>414.0</ele>
        <time>2017-05-27T10:49:08.528Z</time>
      </trkpt>
      <trkpt lat="39.963895" lon="-0.34011167">
        <ele>414.0</ele>
        <time>2017-05-27T10:49:09.501Z</time>
      </trkpt>
      <trkpt lat="39.96391" lon="-0.340055">
        <ele>415.0</ele>
        <time>2017-05-27T10:49:10.516Z</time>
      </trkpt>
      <trkpt lat="39.96391" lon="-0.340055">
        <ele>415.0</ele>
        <time>2017-05-27T10:49:11.506Z</time>
      </trkpt>
      <trkpt lat="39.96393" lon="-0.34000167">
        <ele>415.0</ele>
        <time>2017-05-27T10:49:12.492Z</time>
      </trkpt>
      <trkpt lat="39.96394333" lon="-0.33997667">
        <ele>415.0</ele>
        <time>2017-05-27T10:49:13.512Z</time>
      </trkpt>
      <trkpt lat="39.96394333" lon="-0.33997667">
        <ele>415.0</ele>
        <time>2017-05-27T10:49:14.505Z</time>
      </trkpt>
      <trkpt lat="39.96397167" lon="-0.33992833">
        <ele>415.0</ele>
        <time>2017-05-27T10:49:15.530Z</time>
      </trkpt>
      <trkpt lat="39.96397167" lon="-0.33992833">
        <ele>415.0</ele>
        <time>2017-05-27T10:49:16.507Z</time>
      </trkpt>
      <trkpt lat="39.964005" lon="-0.339885">
        <ele>415.0</ele>
        <time>2017-05-27T10:49:17.530Z</time>
      </trkpt>
      <trkpt lat="39.964005" lon="-0.339885">
        <ele>415.0</ele>
        <time>2017-05-27T10:49:18.506Z</time>
      </trkpt>
      <trkpt lat="39.96404" lon="-0.33984167">
        <ele>415.0</ele>
        <time>2017-05-27T10:49:19.526Z</time>
      </trkpt>
      <trkpt lat="39.96406" lon="-0.33982167">
        <ele>415.0</ele>
        <time>2017-05-27T10:49:20.515Z</time>
      </trkpt>
      <trkpt lat="39.96408167" lon="-0.33980333">
        <ele>415.0</ele>
        <time>2017-05-27T10:49:21.519Z</time>
      </trkpt>
      <trkpt lat="39.96408167" lon="-0.33980333">
        <ele>415.0</ele>
        <time>2017-05-27T10:49:22.507Z</time>
      </trkpt>
      <trkpt lat="39.964125" lon="-0.33976333">
        <ele>416.0</ele>
        <time>2017-05-27T10:49:23.518Z</time>
      </trkpt>
      <trkpt lat="39.964145" lon="-0.33974333">
        <ele>416.0</ele>
        <time>2017-05-27T10:49:24.518Z</time>
      </trkpt>
      <trkpt lat="39.964145" lon="-0.33974333">
        <ele>416.0</ele>
        <time>2017-05-27T10:49:25.509Z</time>
      </trkpt>
      <trkpt lat="39.96418167" lon="-0.3397">
        <ele>416.0</ele>
        <time>2017-05-27T10:49:26.520Z</time>
      </trkpt>
      <trkpt lat="39.96420333" lon="-0.33967833">
        <ele>416.0</ele>
        <time>2017-05-27T10:49:27.524Z</time>
      </trkpt>
      <trkpt lat="39.96420333" lon="-0.33967833">
        <ele>416.0</ele>
        <time>2017-05-27T10:49:28.501Z</time>
      </trkpt>
      <trkpt lat="39.96424667" lon="-0.33964">
        <ele>416.0</ele>
        <time>2017-05-27T10:49:29.498Z</time>
      </trkpt>
      <trkpt lat="39.96424667" lon="-0.33964">
        <ele>416.0</ele>
        <time>2017-05-27T10:49:30.520Z</time>
      </trkpt>
      <trkpt lat="39.96429" lon="-0.33960167">
        <ele>416.0</ele>
        <time>2017-05-27T10:49:31.505Z</time>
      </trkpt>
      <trkpt lat="39.96431167" lon="-0.33958333">
        <ele>416.0</ele>
        <time>2017-05-27T10:49:32.507Z</time>
      </trkpt>
      <trkpt lat="39.96431167" lon="-0.33958333">
        <ele>416.0</ele>
        <time>2017-05-27T10:49:33.507Z</time>
      </trkpt>
      <trkpt lat="39.964355" lon="-0.339545">
        <ele>416.0</ele>
        <time>2017-05-27T10:49:34.529Z</time>
      </trkpt>
      <trkpt lat="39.96437667" lon="-0.33952667">
        <ele>416.0</ele>
        <time>2017-05-27T10:49:35.501Z</time>
      </trkpt>
      <trkpt lat="39.96437667" lon="-0.33952667">
        <ele>416.0</ele>
        <time>2017-05-27T10:49:36.507Z</time>
      </trkpt>
      <trkpt lat="39.96442333" lon="-0.33949167">
        <ele>417.0</ele>
        <time>2017-05-27T10:49:37.513Z</time>
      </trkpt>
      <trkpt lat="39.96442333" lon="-0.33949167">
        <ele>417.0</ele>
        <time>2017-05-27T10:49:38.505Z</time>
      </trkpt>
      <trkpt lat="39.964465" lon="-0.33945667">
        <ele>417.0</ele>
        <time>2017-05-27T10:49:39.499Z</time>
      </trkpt>
      <trkpt lat="39.964465" lon="-0.33945667">
        <ele>417.0</ele>
        <time>2017-05-27T10:49:40.513Z</time>
      </trkpt>
      <trkpt lat="39.96450333" lon="-0.33941667">
        <ele>417.0</ele>
        <time>2017-05-27T10:49:41.493Z</time>
      </trkpt>
      <trkpt lat="39.96452333" lon="-0.339395">
        <ele>417.0</ele>
        <time>2017-05-27T10:49:42.505Z</time>
      </trkpt>
      <trkpt lat="39.96452333" lon="-0.339395">
        <ele>417.0</ele>
        <time>2017-05-27T10:49:43.491Z</time>
      </trkpt>
      <trkpt lat="39.964565" lon="-0.33935333">
        <ele>417.0</ele>
        <time>2017-05-27T10:49:44.514Z</time>
      </trkpt>
      <trkpt lat="39.96458333" lon="-0.33933167">
        <ele>417.0</ele>
        <time>2017-05-27T10:49:45.514Z</time>
      </trkpt>
      <trkpt lat="39.96458333" lon="-0.33933167">
        <ele>417.0</ele>
        <time>2017-05-27T10:49:46.498Z</time>
      </trkpt>
      <trkpt lat="39.96462167" lon="-0.33928167">
        <ele>417.0</ele>
        <time>2017-05-27T10:49:47.526Z</time>
      </trkpt>
      <trkpt lat="39.96464" lon="-0.33925667">
        <ele>417.0</ele>
        <time>2017-05-27T10:49:48.524Z</time>
      </trkpt>
      <trkpt lat="39.96464" lon="-0.33925667">
        <ele>417.0</ele>
        <time>2017-05-27T10:49:49.515Z</time>
      </trkpt>
      <trkpt lat="39.96468" lon="-0.33920833">
        <ele>418.0</ele>
        <time>2017-05-27T10:49:50.492Z</time>
      </trkpt>
      <trkpt lat="39.96469667" lon="-0.339185">
        <ele>418.0</ele>
        <time>2017-05-27T10:49:51.530Z</time>
      </trkpt>
      <trkpt lat="39.96469667" lon="-0.339185">
        <ele>418.0</ele>
        <time>2017-05-27T10:49:52.501Z</time>
      </trkpt>
      <trkpt lat="39.96472833" lon="-0.33913667">
        <ele>418.0</ele>
        <time>2017-05-27T10:49:53.525Z</time>
      </trkpt>
      <trkpt lat="39.964745" lon="-0.33911167">
        <ele>418.0</ele>
        <time>2017-05-27T10:49:54.519Z</time>
      </trkpt>
      <trkpt lat="39.964745" lon="-0.33911167">
        <ele>418.0</ele>
        <time>2017-05-27T10:49:55.493Z</time>
      </trkpt>
      <trkpt lat="39.96477667" lon="-0.33906167">
        <ele>418.0</ele>
        <time>2017-05-27T10:49:56.520Z</time>
      </trkpt>
      <trkpt lat="39.96479167" lon="-0.339035">
        <ele>418.0</ele>
        <time>2017-05-27T10:49:57.499Z</time>
      </trkpt>
      <trkpt lat="39.96479167" lon="-0.339035">
        <ele>418.0</ele>
        <time>2017-05-27T10:49:58.527Z</time>
      </trkpt>
      <trkpt lat="39.964825" lon="-0.33898167">
        <ele>418.0</ele>
        <time>2017-05-27T10:49:59.522Z</time>
      </trkpt>
      <trkpt lat="39.964825" lon="-0.33898167">
        <ele>418.0</ele>
        <time>2017-05-27T10:50:00.515Z</time>
      </trkpt>
      <trkpt lat="39.96485833" lon="-0.33892833">
        <ele>418.0</ele>
        <time>2017-05-27T10:50:01.505Z</time>
      </trkpt>
      <trkpt lat="39.96485833" lon="-0.33892833">
        <ele>418.0</ele>
        <time>2017-05-27T10:50:02.507Z</time>
      </trkpt>
      <trkpt lat="39.96488833" lon="-0.33888">
        <ele>419.0</ele>
        <time>2017-05-27T10:50:03.499Z</time>
      </trkpt>
      <trkpt lat="39.96488833" lon="-0.33888">
        <ele>419.0</ele>
        <time>2017-05-27T10:50:04.506Z</time>
      </trkpt>
      <trkpt lat="39.96491833" lon="-0.33883167">
        <ele>419.0</ele>
        <time>2017-05-27T10:50:05.526Z</time>
      </trkpt>
      <trkpt lat="39.96493333" lon="-0.33880667">
        <ele>419.0</ele>
        <time>2017-05-27T10:50:06.521Z</time>
      </trkpt>
      <trkpt lat="39.96494833" lon="-0.33878333">
        <ele>420.0</ele>
        <time>2017-05-27T10:50:07.505Z</time>
      </trkpt>
      <trkpt lat="39.96494833" lon="-0.33878333">
        <ele>420.0</ele>
        <time>2017-05-27T10:50:08.517Z</time>
      </trkpt>
      <trkpt lat="39.964975" lon="-0.338735">
        <ele>420.0</ele>
        <time>2017-05-27T10:50:09.517Z</time>
      </trkpt>
      <trkpt lat="39.964975" lon="-0.338735">
        <ele>420.0</ele>
        <time>2017-05-27T10:50:10.498Z</time>
      </trkpt>
      <trkpt lat="39.96500167" lon="-0.33868667">
        <ele>420.0</ele>
        <time>2017-05-27T10:50:11.497Z</time>
      </trkpt>
      <trkpt lat="39.965015" lon="-0.33866">
        <ele>420.0</ele>
        <time>2017-05-27T10:50:12.511Z</time>
      </trkpt>
      <trkpt lat="39.965015" lon="-0.33866">
        <ele>420.0</ele>
        <time>2017-05-27T10:50:13.499Z</time>
      </trkpt>
      <trkpt lat="39.96504333" lon="-0.33861">
        <ele>421.0</ele>
        <time>2017-05-27T10:50:14.527Z</time>
      </trkpt>
      <trkpt lat="39.96504333" lon="-0.33861">
        <ele>421.0</ele>
        <time>2017-05-27T10:50:15.514Z</time>
      </trkpt>
      <trkpt lat="39.96507333" lon="-0.33855833">
        <ele>421.0</ele>
        <time>2017-05-27T10:50:16.531Z</time>
      </trkpt>
      <trkpt lat="39.96508833" lon="-0.33853333">
        <ele>421.0</ele>
        <time>2017-05-27T10:50:17.509Z</time>
      </trkpt>
      <trkpt lat="39.965105" lon="-0.33850833">
        <ele>421.0</ele>
        <time>2017-05-27T10:50:18.493Z</time>
      </trkpt>
      <trkpt lat="39.965105" lon="-0.33850833">
        <ele>421.0</ele>
        <time>2017-05-27T10:50:19.510Z</time>
      </trkpt>
      <trkpt lat="39.96513667" lon="-0.33846167">
        <ele>422.0</ele>
        <time>2017-05-27T10:50:20.532Z</time>
      </trkpt>
      <trkpt lat="39.965155" lon="-0.33843833">
        <ele>422.0</ele>
        <time>2017-05-27T10:50:21.517Z</time>
      </trkpt>
      <trkpt lat="39.965155" lon="-0.33843833">
        <ele>422.0</ele>
        <time>2017-05-27T10:50:22.526Z</time>
      </trkpt>
      <trkpt lat="39.96518833" lon="-0.33839167">
        <ele>422.0</ele>
        <time>2017-05-27T10:50:23.507Z</time>
      </trkpt>
      <trkpt lat="39.965205" lon="-0.33836833">
        <ele>422.0</ele>
        <time>2017-05-27T10:50:24.494Z</time>
      </trkpt>
      <trkpt lat="39.965205" lon="-0.33836833">
        <ele>422.0</ele>
        <time>2017-05-27T10:50:25.509Z</time>
      </trkpt>
      <trkpt lat="39.96523667" lon="-0.33832333">
        <ele>422.0</ele>
        <time>2017-05-27T10:50:26.531Z</time>
      </trkpt>
      <trkpt lat="39.965255" lon="-0.33830167">
        <ele>423.0</ele>
        <time>2017-05-27T10:50:27.536Z</time>
      </trkpt>
      <trkpt lat="39.965255" lon="-0.33830167">
        <ele>423.0</ele>
        <time>2017-05-27T10:50:28.499Z</time>
      </trkpt>
      <trkpt lat="39.96529667" lon="-0.33826667">
        <ele>423.0</ele>
        <time>2017-05-27T10:50:29.524Z</time>
      </trkpt>
      <trkpt lat="39.96529667" lon="-0.33826667">
        <ele>423.0</ele>
        <time>2017-05-27T10:50:30.515Z</time>
      </trkpt>
      <trkpt lat="39.965345" lon="-0.33823333">
        <ele>423.0</ele>
        <time>2017-05-27T10:50:31.506Z</time>
      </trkpt>
      <trkpt lat="39.965345" lon="-0.33823333">
        <ele>423.0</ele>
        <time>2017-05-27T10:50:32.495Z</time>
      </trkpt>
      <trkpt lat="39.965395" lon="-0.33820833">
        <ele>424.0</ele>
        <time>2017-05-27T10:50:33.515Z</time>
      </trkpt>
      <trkpt lat="39.965395" lon="-0.33820833">
        <ele>424.0</ele>
        <time>2017-05-27T10:50:34.505Z</time>
      </trkpt>
      <trkpt lat="39.96544667" lon="-0.33818333">
        <ele>424.0</ele>
        <time>2017-05-27T10:50:35.491Z</time>
      </trkpt>
      <trkpt lat="39.96544667" lon="-0.33818333">
        <ele>424.0</ele>
        <time>2017-05-27T10:50:36.512Z</time>
      </trkpt>
      <trkpt lat="39.96549833" lon="-0.33815667">
        <ele>424.0</ele>
        <time>2017-05-27T10:50:37.497Z</time>
      </trkpt>
      <trkpt lat="39.96549833" lon="-0.33815667">
        <ele>424.0</ele>
        <time>2017-05-27T10:50:38.517Z</time>
      </trkpt>
      <trkpt lat="39.96555" lon="-0.33813">
        <ele>424.0</ele>
        <time>2017-05-27T10:50:39.514Z</time>
      </trkpt>
      <trkpt lat="39.96555" lon="-0.33813">
        <ele>424.0</ele>
        <time>2017-05-27T10:50:40.524Z</time>
      </trkpt>
      <trkpt lat="39.96560167" lon="-0.33810833">
        <ele>425.0</ele>
        <time>2017-05-27T10:50:41.502Z</time>
      </trkpt>
      <trkpt lat="39.96560167" lon="-0.33810833">
        <ele>425.0</ele>
        <time>2017-05-27T10:50:42.529Z</time>
      </trkpt>
      <trkpt lat="39.96564667" lon="-0.33808667">
        <ele>425.0</ele>
        <time>2017-05-27T10:50:43.512Z</time>
      </trkpt>
      <trkpt lat="39.96566833" lon="-0.33807333">
        <ele>425.0</ele>
        <time>2017-05-27T10:50:44.514Z</time>
      </trkpt>
      <trkpt lat="39.96569" lon="-0.33806">
        <ele>425.0</ele>
        <time>2017-05-27T10:50:45.499Z</time>
      </trkpt>
      <trkpt lat="39.96569" lon="-0.33806">
        <ele>425.0</ele>
        <time>2017-05-27T10:50:46.514Z</time>
      </trkpt>
      <trkpt lat="39.96573333" lon="-0.33803333">
        <ele>425.0</ele>
        <time>2017-05-27T10:50:47.498Z</time>
      </trkpt>
      <trkpt lat="39.96573333" lon="-0.33803333">
        <ele>425.0</ele>
        <time>2017-05-27T10:50:48.499Z</time>
      </trkpt>
      <trkpt lat="39.96577833" lon="-0.33800667">
        <ele>426.0</ele>
        <time>2017-05-27T10:50:49.508Z</time>
      </trkpt>
      <trkpt lat="39.96577833" lon="-0.33800667">
        <ele>426.0</ele>
        <time>2017-05-27T10:50:50.498Z</time>
      </trkpt>
      <trkpt lat="39.96582667" lon="-0.33798167">
        <ele>426.0</ele>
        <time>2017-05-27T10:50:51.518Z</time>
      </trkpt>
      <trkpt lat="39.96585167" lon="-0.33797">
        <ele>426.0</ele>
        <time>2017-05-27T10:50:52.527Z</time>
      </trkpt>
      <trkpt lat="39.96585167" lon="-0.33797">
        <ele>426.0</ele>
        <time>2017-05-27T10:50:53.520Z</time>
      </trkpt>
      <trkpt lat="39.9659" lon="-0.33794667">
        <ele>426.0</ele>
        <time>2017-05-27T10:50:54.506Z</time>
      </trkpt>
      <trkpt lat="39.96592333" lon="-0.337935">
        <ele>426.0</ele>
        <time>2017-05-27T10:50:55.492Z</time>
      </trkpt>
      <trkpt lat="39.96592333" lon="-0.337935">
        <ele>426.0</ele>
        <time>2017-05-27T10:50:56.514Z</time>
      </trkpt>
      <trkpt lat="39.96597333" lon="-0.33791167">
        <ele>427.0</ele>
        <time>2017-05-27T10:50:57.513Z</time>
      </trkpt>
      <trkpt lat="39.96597333" lon="-0.33791167">
        <ele>427.0</ele>
        <time>2017-05-27T10:50:58.500Z</time>
      </trkpt>
      <trkpt lat="39.96602333" lon="-0.33789">
        <ele>427.0</ele>
        <time>2017-05-27T10:50:59.521Z</time>
      </trkpt>
      <trkpt lat="39.96602333" lon="-0.33789">
        <ele>427.0</ele>
        <time>2017-05-27T10:51:00.495Z</time>
      </trkpt>
      <trkpt lat="39.96607167" lon="-0.33787">
        <ele>427.0</ele>
        <time>2017-05-27T10:51:01.517Z</time>
      </trkpt>
      <trkpt lat="39.96607167" lon="-0.33787">
        <ele>427.0</ele>
        <time>2017-05-27T10:51:02.506Z</time>
      </trkpt>
      <trkpt lat="39.96612" lon="-0.33785167">
        <ele>427.0</ele>
        <time>2017-05-27T10:51:03.533Z</time>
      </trkpt>
      <trkpt lat="39.966145" lon="-0.33784167">
        <ele>427.0</ele>
        <time>2017-05-27T10:51:04.491Z</time>
      </trkpt>
      <trkpt lat="39.966145" lon="-0.33784167">
        <ele>427.0</ele>
        <time>2017-05-27T10:51:05.507Z</time>
      </trkpt>
      <trkpt lat="39.96619333" lon="-0.33782667">
        <ele>427.0</ele>
        <time>2017-05-27T10:51:06.529Z</time>
      </trkpt>
      <trkpt lat="39.96619333" lon="-0.33782667">
        <ele>427.0</ele>
        <time>2017-05-27T10:51:07.498Z</time>
      </trkpt>
      <trkpt lat="39.96623833" lon="-0.33781167">
        <ele>427.0</ele>
        <time>2017-05-27T10:51:08.499Z</time>
      </trkpt>
      <trkpt lat="39.96626167" lon="-0.337805">
        <ele>427.0</ele>
        <time>2017-05-27T10:51:09.529Z</time>
      </trkpt>
      <trkpt lat="39.96626167" lon="-0.337805">
        <ele>427.0</ele>
        <time>2017-05-27T10:51:10.517Z</time>
      </trkpt>
      <trkpt lat="39.96629833" lon="-0.33779333">
        <ele>428.0</ele>
        <time>2017-05-27T10:51:11.511Z</time>
      </trkpt>
      <trkpt lat="39.96629833" lon="-0.33779333">
        <ele>428.0</ele>
        <time>2017-05-27T10:51:12.526Z</time>
      </trkpt>
      <trkpt lat="39.96633833" lon="-0.33778333">
        <ele>428.0</ele>
        <time>2017-05-27T10:51:13.501Z</time>
      </trkpt>
      <trkpt lat="39.96633833" lon="-0.33778333">
        <ele>428.0</ele>
        <time>2017-05-27T10:51:14.526Z</time>
      </trkpt>
      <trkpt lat="39.96639333" lon="-0.33778">
        <ele>428.0</ele>
        <time>2017-05-27T10:51:15.507Z</time>
      </trkpt>
      <trkpt lat="39.96639333" lon="-0.33778">
        <ele>428.0</ele>
        <time>2017-05-27T10:51:16.526Z</time>
      </trkpt>
      <trkpt lat="39.96644833" lon="-0.33779">
        <ele>429.0</ele>
        <time>2017-05-27T10:51:17.499Z</time>
      </trkpt>
      <trkpt lat="39.966475" lon="-0.33779333">
        <ele>429.0</ele>
        <time>2017-05-27T10:51:18.491Z</time>
      </trkpt>
      <trkpt lat="39.966475" lon="-0.33779333">
        <ele>429.0</ele>
        <time>2017-05-27T10:51:19.503Z</time>
      </trkpt>
      <trkpt lat="39.96652667" lon="-0.33780167">
        <ele>429.0</ele>
        <time>2017-05-27T10:51:20.517Z</time>
      </trkpt>
      <trkpt lat="39.96655333" lon="-0.33780833">
        <ele>429.0</ele>
        <time>2017-05-27T10:51:21.508Z</time>
      </trkpt>
      <trkpt lat="39.96655333" lon="-0.33780833">
        <ele>429.0</ele>
        <time>2017-05-27T10:51:22.507Z</time>
      </trkpt>
      <trkpt lat="39.96660667" lon="-0.33781833">
        <ele>430.0</ele>
        <time>2017-05-27T10:51:23.528Z</time>
      </trkpt>
      <trkpt lat="39.96660667" lon="-0.33781833">
        <ele>430.0</ele>
        <time>2017-05-27T10:51:24.495Z</time>
      </trkpt>
      <trkpt lat="39.96665333" lon="-0.33783167">
        <ele>430.0</ele>
        <time>2017-05-27T10:51:25.515Z</time>
      </trkpt>
      <trkpt lat="39.96665333" lon="-0.33783167">
        <ele>430.0</ele>
        <time>2017-05-27T10:51:26.525Z</time>
      </trkpt>
      <trkpt lat="39.96669667" lon="-0.33784333">
        <ele>431.0</ele>
        <time>2017-05-27T10:51:27.499Z</time>
      </trkpt>
      <trkpt lat="39.96669667" lon="-0.33784333">
        <ele>431.0</ele>
        <time>2017-05-27T10:51:28.514Z</time>
      </trkpt>
      <trkpt lat="39.96674833" lon="-0.33786667">
        <ele>431.0</ele>
        <time>2017-05-27T10:51:29.517Z</time>
      </trkpt>
      <trkpt lat="39.96674833" lon="-0.33786667">
        <ele>431.0</ele>
        <time>2017-05-27T10:51:30.496Z</time>
      </trkpt>
      <trkpt lat="39.9668" lon="-0.3379">
        <ele>431.0</ele>
        <time>2017-05-27T10:51:31.517Z</time>
      </trkpt>
      <trkpt lat="39.96682833" lon="-0.33791833">
        <ele>431.0</ele>
        <time>2017-05-27T10:51:32.515Z</time>
      </trkpt>
      <trkpt lat="39.96682833" lon="-0.33791833">
        <ele>431.0</ele>
        <time>2017-05-27T10:51:33.529Z</time>
      </trkpt>
      <trkpt lat="39.96688167" lon="-0.33796">
        <ele>431.0</ele>
        <time>2017-05-27T10:51:34.509Z</time>
      </trkpt>
      <trkpt lat="39.966905" lon="-0.33798333">
        <ele>432.0</ele>
        <time>2017-05-27T10:51:35.493Z</time>
      </trkpt>
      <trkpt lat="39.966905" lon="-0.33798333">
        <ele>432.0</ele>
        <time>2017-05-27T10:51:36.499Z</time>
      </trkpt>
      <trkpt lat="39.96694667" lon="-0.338015">
        <ele>432.0</ele>
        <time>2017-05-27T10:51:37.529Z</time>
      </trkpt>
      <trkpt lat="39.96694667" lon="-0.338015">
        <ele>432.0</ele>
        <time>2017-05-27T10:51:38.506Z</time>
      </trkpt>
      <trkpt lat="39.96699333" lon="-0.33803">
        <ele>432.0</ele>
        <time>2017-05-27T10:51:39.501Z</time>
      </trkpt>
      <trkpt lat="39.96699333" lon="-0.33803">
        <ele>432.0</ele>
        <time>2017-05-27T10:51:40.502Z</time>
      </trkpt>
      <trkpt lat="39.96704833" lon="-0.338055">
        <ele>432.0</ele>
        <time>2017-05-27T10:51:41.497Z</time>
      </trkpt>
      <trkpt lat="39.96704833" lon="-0.338055">
        <ele>432.0</ele>
        <time>2017-05-27T10:51:42.529Z</time>
      </trkpt>
      <trkpt lat="39.96709833" lon="-0.33808667">
        <ele>432.0</ele>
        <time>2017-05-27T10:51:43.496Z</time>
      </trkpt>
      <trkpt lat="39.96709833" lon="-0.33808667">
        <ele>432.0</ele>
        <time>2017-05-27T10:51:44.501Z</time>
      </trkpt>
      <trkpt lat="39.96715" lon="-0.33811667">
        <ele>432.0</ele>
        <time>2017-05-27T10:51:45.527Z</time>
      </trkpt>
      <trkpt lat="39.96715" lon="-0.33811667">
        <ele>432.0</ele>
        <time>2017-05-27T10:51:46.498Z</time>
      </trkpt>
      <trkpt lat="39.96719667" lon="-0.33814833">
        <ele>433.0</ele>
        <time>2017-05-27T10:51:47.520Z</time>
      </trkpt>
      <trkpt lat="39.96722" lon="-0.33816333">
        <ele>433.0</ele>
        <time>2017-05-27T10:51:48.510Z</time>
      </trkpt>
      <trkpt lat="39.96722" lon="-0.33816333">
        <ele>433.0</ele>
        <time>2017-05-27T10:51:49.529Z</time>
      </trkpt>
      <trkpt lat="39.96726167" lon="-0.338195">
        <ele>433.0</ele>
        <time>2017-05-27T10:51:50.502Z</time>
      </trkpt>
      <trkpt lat="39.967285" lon="-0.33821">
        <ele>433.0</ele>
        <time>2017-05-27T10:51:51.522Z</time>
      </trkpt>
      <trkpt lat="39.967285" lon="-0.33821">
        <ele>433.0</ele>
        <time>2017-05-27T10:51:52.499Z</time>
      </trkpt>
      <trkpt lat="39.96733" lon="-0.33824">
        <ele>433.0</ele>
        <time>2017-05-27T10:51:53.527Z</time>
      </trkpt>
      <trkpt lat="39.96733" lon="-0.33824">
        <ele>433.0</ele>
        <time>2017-05-27T10:51:54.509Z</time>
      </trkpt>
      <trkpt lat="39.967375" lon="-0.33826833">
        <ele>433.0</ele>
        <time>2017-05-27T10:51:55.497Z</time>
      </trkpt>
      <trkpt lat="39.967375" lon="-0.33826833">
        <ele>433.0</ele>
        <time>2017-05-27T10:51:56.517Z</time>
      </trkpt>
      <trkpt lat="39.96741833" lon="-0.33830167">
        <ele>433.0</ele>
        <time>2017-05-27T10:51:57.495Z</time>
      </trkpt>
      <trkpt lat="39.96741833" lon="-0.33830167">
        <ele>433.0</ele>
        <time>2017-05-27T10:51:58.528Z</time>
      </trkpt>
      <trkpt lat="39.96746167" lon="-0.338335">
        <ele>434.0</ele>
        <time>2017-05-27T10:51:59.511Z</time>
      </trkpt>
      <trkpt lat="39.96746167" lon="-0.338335">
        <ele>434.0</ele>
        <time>2017-05-27T10:52:00.524Z</time>
      </trkpt>
      <trkpt lat="39.96750167" lon="-0.33837167">
        <ele>434.0</ele>
        <time>2017-05-27T10:52:01.508Z</time>
      </trkpt>
      <trkpt lat="39.96752" lon="-0.33839167">
        <ele>434.0</ele>
        <time>2017-05-27T10:52:02.517Z</time>
      </trkpt>
      <trkpt lat="39.96754" lon="-0.33841167">
        <ele>434.0</ele>
        <time>2017-05-27T10:52:03.502Z</time>
      </trkpt>
      <trkpt lat="39.96754" lon="-0.33841167">
        <ele>434.0</ele>
        <time>2017-05-27T10:52:04.513Z</time>
      </trkpt>
      <trkpt lat="39.967575" lon="-0.338455">
        <ele>434.0</ele>
        <time>2017-05-27T10:52:05.500Z</time>
      </trkpt>
      <trkpt lat="39.967575" lon="-0.338455">
        <ele>434.0</ele>
        <time>2017-05-27T10:52:06.524Z</time>
      </trkpt>
      <trkpt lat="39.96761167" lon="-0.33850333">
        <ele>434.0</ele>
        <time>2017-05-27T10:52:07.516Z</time>
      </trkpt>
      <trkpt lat="39.96761167" lon="-0.33850333">
        <ele>434.0</ele>
        <time>2017-05-27T10:52:08.520Z</time>
      </trkpt>
      <trkpt lat="39.967645" lon="-0.33855333">
        <ele>434.0</ele>
        <time>2017-05-27T10:52:09.503Z</time>
      </trkpt>
      <trkpt lat="39.967645" lon="-0.33855333">
        <ele>434.0</ele>
        <time>2017-05-27T10:52:10.512Z</time>
      </trkpt>
      <trkpt lat="39.96767667" lon="-0.33861">
        <ele>434.0</ele>
        <time>2017-05-27T10:52:11.496Z</time>
      </trkpt>
      <trkpt lat="39.96767667" lon="-0.33861">
        <ele>434.0</ele>
        <time>2017-05-27T10:52:12.515Z</time>
      </trkpt>
      <trkpt lat="39.96770667" lon="-0.33866667">
        <ele>434.0</ele>
        <time>2017-05-27T10:52:13.531Z</time>
      </trkpt>
      <trkpt lat="39.96770667" lon="-0.33866667">
        <ele>434.0</ele>
        <time>2017-05-27T10:52:14.525Z</time>
      </trkpt>
      <trkpt lat="39.96772667" lon="-0.338725">
        <ele>435.0</ele>
        <time>2017-05-27T10:52:15.514Z</time>
      </trkpt>
      <trkpt lat="39.96772667" lon="-0.338725">
        <ele>435.0</ele>
        <time>2017-05-27T10:52:16.524Z</time>
      </trkpt>
      <trkpt lat="39.96774833" lon="-0.338785">
        <ele>435.0</ele>
        <time>2017-05-27T10:52:17.519Z</time>
      </trkpt>
      <trkpt lat="39.96776" lon="-0.338815">
        <ele>435.0</ele>
        <time>2017-05-27T10:52:18.500Z</time>
      </trkpt>
      <trkpt lat="39.96776" lon="-0.338815">
        <ele>435.0</ele>
        <time>2017-05-27T10:52:19.516Z</time>
      </trkpt>
      <trkpt lat="39.967775" lon="-0.33888167">
        <ele>435.0</ele>
        <time>2017-05-27T10:52:20.504Z</time>
      </trkpt>
      <trkpt lat="39.96777833" lon="-0.33891833">
        <ele>436.0</ele>
        <time>2017-05-27T10:52:21.492Z</time>
      </trkpt>
      <trkpt lat="39.96777833" lon="-0.33891833">
        <ele>436.0</ele>
        <time>2017-05-27T10:52:22.492Z</time>
      </trkpt>
      <trkpt lat="39.96779" lon="-0.33899">
        <ele>436.0</ele>
        <time>2017-05-27T10:52:23.519Z</time>
      </trkpt>
      <trkpt lat="39.967795" lon="-0.339025">
        <ele>436.0</ele>
        <time>2017-05-27T10:52:24.502Z</time>
      </trkpt>
      <trkpt lat="39.967795" lon="-0.339025">
        <ele>436.0</ele>
        <time>2017-05-27T10:52:25.526Z</time>
      </trkpt>
      <trkpt lat="39.96780333" lon="-0.33909667">
        <ele>436.0</ele>
        <time>2017-05-27T10:52:26.508Z</time>
      </trkpt>
      <trkpt lat="39.96780333" lon="-0.33913333">
        <ele>436.0</ele>
        <time>2017-05-27T10:52:27.503Z</time>
      </trkpt>
      <trkpt lat="39.96780333" lon="-0.33913333">
        <ele>436.0</ele>
        <time>2017-05-27T10:52:28.526Z</time>
      </trkpt>
      <trkpt lat="39.9678" lon="-0.33920833">
        <ele>436.0</ele>
        <time>2017-05-27T10:52:29.508Z</time>
      </trkpt>
      <trkpt lat="39.9678" lon="-0.33920833">
        <ele>436.0</ele>
        <time>2017-05-27T10:52:30.509Z</time>
      </trkpt>
      <trkpt lat="39.9678" lon="-0.33928">
        <ele>436.0</ele>
        <time>2017-05-27T10:52:31.491Z</time>
      </trkpt>
      <trkpt lat="39.9678" lon="-0.33928">
        <ele>436.0</ele>
        <time>2017-05-27T10:52:32.503Z</time>
      </trkpt>
      <trkpt lat="39.96779833" lon="-0.33935167">
        <ele>437.0</ele>
        <time>2017-05-27T10:52:33.537Z</time>
      </trkpt>
      <trkpt lat="39.96779833" lon="-0.33935167">
        <ele>437.0</ele>
        <time>2017-05-27T10:52:34.499Z</time>
      </trkpt>
      <trkpt lat="39.96779667" lon="-0.33942167">
        <ele>437.0</ele>
        <time>2017-05-27T10:52:35.521Z</time>
      </trkpt>
      <trkpt lat="39.96779333" lon="-0.339455">
        <ele>437.0</ele>
        <time>2017-05-27T10:52:36.517Z</time>
      </trkpt>
      <trkpt lat="39.96779333" lon="-0.339455">
        <ele>437.0</ele>
        <time>2017-05-27T10:52:37.498Z</time>
      </trkpt>
      <trkpt lat="39.96779167" lon="-0.33952167">
        <ele>438.0</ele>
        <time>2017-05-27T10:52:38.529Z</time>
      </trkpt>
      <trkpt lat="39.96778833" lon="-0.339555">
        <ele>438.0</ele>
        <time>2017-05-27T10:52:39.517Z</time>
      </trkpt>
      <trkpt lat="39.96778833" lon="-0.339555">
        <ele>438.0</ele>
        <time>2017-05-27T10:52:40.529Z</time>
      </trkpt>
      <trkpt lat="39.967785" lon="-0.33962167">
        <ele>438.0</ele>
        <time>2017-05-27T10:52:41.515Z</time>
      </trkpt>
      <trkpt lat="39.96778333" lon="-0.339655">
        <ele>438.0</ele>
        <time>2017-05-27T10:52:42.527Z</time>
      </trkpt>
      <trkpt lat="39.96778333" lon="-0.339655">
        <ele>438.0</ele>
        <time>2017-05-27T10:52:43.511Z</time>
      </trkpt>
      <trkpt lat="39.96777167" lon="-0.33972333">
        <ele>438.0</ele>
        <time>2017-05-27T10:52:44.494Z</time>
      </trkpt>
      <trkpt lat="39.96777167" lon="-0.33972333">
        <ele>438.0</ele>
        <time>2017-05-27T10:52:45.512Z</time>
      </trkpt>
      <trkpt lat="39.967765" lon="-0.33978667">
        <ele>439.0</ele>
        <time>2017-05-27T10:52:46.505Z</time>
      </trkpt>
      <trkpt lat="39.967765" lon="-0.33978667">
        <ele>439.0</ele>
        <time>2017-05-27T10:52:47.520Z</time>
      </trkpt>
      <trkpt lat="39.96776333" lon="-0.33984667">
        <ele>439.0</ele>
        <time>2017-05-27T10:52:48.507Z</time>
      </trkpt>
      <trkpt lat="39.967765" lon="-0.33987833">
        <ele>439.0</ele>
        <time>2017-05-27T10:52:49.496Z</time>
      </trkpt>
      <trkpt lat="39.967765" lon="-0.33987833">
        <ele>439.0</ele>
        <time>2017-05-27T10:52:50.521Z</time>
      </trkpt>
      <trkpt lat="39.96778" lon="-0.33995">
        <ele>440.0</ele>
        <time>2017-05-27T10:52:51.513Z</time>
      </trkpt>
      <trkpt lat="39.96778333" lon="-0.33998333">
        <ele>440.0</ele>
        <time>2017-05-27T10:52:52.531Z</time>
      </trkpt>
      <trkpt lat="39.96778333" lon="-0.33998333">
        <ele>440.0</ele>
        <time>2017-05-27T10:52:53.491Z</time>
      </trkpt>
      <trkpt lat="39.96779" lon="-0.34005167">
        <ele>440.0</ele>
        <time>2017-05-27T10:52:54.507Z</time>
      </trkpt>
      <trkpt lat="39.96779" lon="-0.34005167">
        <ele>440.0</ele>
        <time>2017-05-27T10:52:55.493Z</time>
      </trkpt>
      <trkpt lat="39.96779833" lon="-0.34012167">
        <ele>440.0</ele>
        <time>2017-05-27T10:52:56.527Z</time>
      </trkpt>
      <trkpt lat="39.96779833" lon="-0.34012167">
        <ele>440.0</ele>
        <time>2017-05-27T10:52:57.499Z</time>
      </trkpt>
      <trkpt lat="39.96780667" lon="-0.34019">
        <ele>441.0</ele>
        <time>2017-05-27T10:52:58.516Z</time>
      </trkpt>
      <trkpt lat="39.96780667" lon="-0.34019">
        <ele>441.0</ele>
        <time>2017-05-27T10:52:59.523Z</time>
      </trkpt>
      <trkpt lat="39.967815" lon="-0.340255">
        <ele>441.0</ele>
        <time>2017-05-27T10:53:00.522Z</time>
      </trkpt>
      <trkpt lat="39.967815" lon="-0.340255">
        <ele>441.0</ele>
        <time>2017-05-27T10:53:01.525Z</time>
      </trkpt>
      <trkpt lat="39.967825" lon="-0.34032167">
        <ele>441.0</ele>
        <time>2017-05-27T10:53:02.509Z</time>
      </trkpt>
      <trkpt lat="39.96783167" lon="-0.340355">
        <ele>442.0</ele>
        <time>2017-05-27T10:53:03.501Z</time>
      </trkpt>
      <trkpt lat="39.96783167" lon="-0.340355">
        <ele>442.0</ele>
        <time>2017-05-27T10:53:04.500Z</time>
      </trkpt>
      <trkpt lat="39.96784667" lon="-0.34042333">
        <ele>442.0</ele>
        <time>2017-05-27T10:53:05.501Z</time>
      </trkpt>
      <trkpt lat="39.96784667" lon="-0.34042333">
        <ele>442.0</ele>
        <time>2017-05-27T10:53:06.514Z</time>
      </trkpt>
      <trkpt lat="39.96785667" lon="-0.34049167">
        <ele>442.0</ele>
        <time>2017-05-27T10:53:07.507Z</time>
      </trkpt>
      <trkpt lat="39.96785667" lon="-0.34049167">
        <ele>442.0</ele>
        <time>2017-05-27T10:53:08.505Z</time>
      </trkpt>
      <trkpt lat="39.96787" lon="-0.34055833">
        <ele>442.0</ele>
        <time>2017-05-27T10:53:09.501Z</time>
      </trkpt>
      <trkpt lat="39.96787" lon="-0.34055833">
        <ele>442.0</ele>
        <time>2017-05-27T10:53:10.510Z</time>
      </trkpt>
      <trkpt lat="39.96788333" lon="-0.340625">
        <ele>442.0</ele>
        <time>2017-05-27T10:53:11.505Z</time>
      </trkpt>
      <trkpt lat="39.96788333" lon="-0.340625">
        <ele>442.0</ele>
        <time>2017-05-27T10:53:12.499Z</time>
      </trkpt>
      <trkpt lat="39.9679" lon="-0.34069">
        <ele>443.0</ele>
        <time>2017-05-27T10:53:13.524Z</time>
      </trkpt>
      <trkpt lat="39.9679" lon="-0.34069">
        <ele>443.0</ele>
        <time>2017-05-27T10:53:14.495Z</time>
      </trkpt>
      <trkpt lat="39.96791167" lon="-0.34075">
        <ele>443.0</ele>
        <time>2017-05-27T10:53:15.526Z</time>
      </trkpt>
      <trkpt lat="39.96791167" lon="-0.34075">
        <ele>443.0</ele>
        <time>2017-05-27T10:53:16.514Z</time>
      </trkpt>
      <trkpt lat="39.96794" lon="-0.34080833">
        <ele>444.0</ele>
        <time>2017-05-27T10:53:17.491Z</time>
      </trkpt>
      <trkpt lat="39.96795" lon="-0.34084">
        <ele>444.0</ele>
        <time>2017-05-27T10:53:18.521Z</time>
      </trkpt>
      <trkpt lat="39.96795" lon="-0.34084">
        <ele>444.0</ele>
        <time>2017-05-27T10:53:19.530Z</time>
      </trkpt>
      <trkpt lat="39.96796333" lon="-0.34091">
        <ele>445.0</ele>
        <time>2017-05-27T10:53:20.526Z</time>
      </trkpt>
      <trkpt lat="39.96797333" lon="-0.34094">
        <ele>445.0</ele>
        <time>2017-05-27T10:53:21.493Z</time>
      </trkpt>
      <trkpt lat="39.96797333" lon="-0.34094">
        <ele>445.0</ele>
        <time>2017-05-27T10:53:22.528Z</time>
      </trkpt>
      <trkpt lat="39.96799167" lon="-0.34100167">
        <ele>446.0</ele>
        <time>2017-05-27T10:53:23.505Z</time>
      </trkpt>
      <trkpt lat="39.96799167" lon="-0.34100167">
        <ele>446.0</ele>
        <time>2017-05-27T10:53:24.514Z</time>
      </trkpt>
      <trkpt lat="39.96800833" lon="-0.341065">
        <ele>446.0</ele>
        <time>2017-05-27T10:53:25.517Z</time>
      </trkpt>
      <trkpt lat="39.96800833" lon="-0.341065">
        <ele>446.0</ele>
        <time>2017-05-27T10:53:26.491Z</time>
      </trkpt>
      <trkpt lat="39.96803333" lon="-0.341125">
        <ele>447.0</ele>
        <time>2017-05-27T10:53:27.511Z</time>
      </trkpt>
      <trkpt lat="39.96803333" lon="-0.341125">
        <ele>447.0</ele>
        <time>2017-05-27T10:53:28.491Z</time>
      </trkpt>
      <trkpt lat="39.96805333" lon="-0.341195">
        <ele>447.0</ele>
        <time>2017-05-27T10:53:29.516Z</time>
      </trkpt>
      <trkpt lat="39.96805333" lon="-0.341195">
        <ele>447.0</ele>
        <time>2017-05-27T10:53:30.499Z</time>
      </trkpt>
      <trkpt lat="39.96807333" lon="-0.341265">
        <ele>447.0</ele>
        <time>2017-05-27T10:53:31.516Z</time>
      </trkpt>
      <trkpt lat="39.968085" lon="-0.3413">
        <ele>448.0</ele>
        <time>2017-05-27T10:53:32.500Z</time>
      </trkpt>
      <trkpt lat="39.968095" lon="-0.34133333">
        <ele>448.0</ele>
        <time>2017-05-27T10:53:33.527Z</time>
      </trkpt>
      <trkpt lat="39.968095" lon="-0.34133333">
        <ele>448.0</ele>
        <time>2017-05-27T10:53:34.500Z</time>
      </trkpt>
      <trkpt lat="39.96811833" lon="-0.34139833">
        <ele>448.0</ele>
        <time>2017-05-27T10:53:35.524Z</time>
      </trkpt>
      <trkpt lat="39.96811833" lon="-0.34139833">
        <ele>448.0</ele>
        <time>2017-05-27T10:53:36.526Z</time>
      </trkpt>
      <trkpt lat="39.96814833" lon="-0.34145333">
        <ele>448.0</ele>
        <time>2017-05-27T10:53:37.522Z</time>
      </trkpt>
      <trkpt lat="39.96814833" lon="-0.34145333">
        <ele>448.0</ele>
        <time>2017-05-27T10:53:38.494Z</time>
      </trkpt>
      <trkpt lat="39.96818333" lon="-0.34150167">
        <ele>448.0</ele>
        <time>2017-05-27T10:53:39.491Z</time>
      </trkpt>
      <trkpt lat="39.96818333" lon="-0.34150167">
        <ele>448.0</ele>
        <time>2017-05-27T10:53:40.500Z</time>
      </trkpt>
      <trkpt lat="39.96821667" lon="-0.34155">
        <ele>448.0</ele>
        <time>2017-05-27T10:53:41.519Z</time>
      </trkpt>
      <trkpt lat="39.96821667" lon="-0.34155">
        <ele>448.0</ele>
        <time>2017-05-27T10:53:42.507Z</time>
      </trkpt>
      <trkpt lat="39.968255" lon="-0.34159167">
        <ele>448.0</ele>
        <time>2017-05-27T10:53:43.633Z</time>
      </trkpt>
      <trkpt lat="39.968255" lon="-0.34159167">
        <ele>448.0</ele>
        <time>2017-05-27T10:53:44.494Z</time>
      </trkpt>
      <trkpt lat="39.9683" lon="-0.34162">
        <ele>449.0</ele>
        <time>2017-05-27T10:53:45.511Z</time>
      </trkpt>
      <trkpt lat="39.9683" lon="-0.34162">
        <ele>449.0</ele>
        <time>2017-05-27T10:53:46.508Z</time>
      </trkpt>
      <trkpt lat="39.968345" lon="-0.34163833">
        <ele>449.0</ele>
        <time>2017-05-27T10:53:47.525Z</time>
      </trkpt>
      <trkpt lat="39.96837" lon="-0.341645">
        <ele>449.0</ele>
        <time>2017-05-27T10:53:48.496Z</time>
      </trkpt>
      <trkpt lat="39.96837" lon="-0.341645">
        <ele>449.0</ele>
        <time>2017-05-27T10:53:49.507Z</time>
      </trkpt>
      <trkpt lat="39.96842167" lon="-0.34165">
        <ele>449.0</ele>
        <time>2017-05-27T10:53:50.523Z</time>
      </trkpt>
      <trkpt lat="39.96844667" lon="-0.34164833">
        <ele>449.0</ele>
        <time>2017-05-27T10:53:51.516Z</time>
      </trkpt>
      <trkpt lat="39.96844667" lon="-0.34164833">
        <ele>449.0</ele>
        <time>2017-05-27T10:53:52.521Z</time>
      </trkpt>
      <trkpt lat="39.968495" lon="-0.34164333">
        <ele>450.0</ele>
        <time>2017-05-27T10:53:53.501Z</time>
      </trkpt>
      <trkpt lat="39.96852" lon="-0.34164">
        <ele>450.0</ele>
        <time>2017-05-27T10:53:54.520Z</time>
      </trkpt>
      <trkpt lat="39.96852" lon="-0.34164">
        <ele>450.0</ele>
        <time>2017-05-27T10:53:55.501Z</time>
      </trkpt>
      <trkpt lat="39.96857" lon="-0.34162833">
        <ele>450.0</ele>
        <time>2017-05-27T10:53:56.520Z</time>
      </trkpt>
      <trkpt lat="39.96857" lon="-0.34162833">
        <ele>450.0</ele>
        <time>2017-05-27T10:53:57.499Z</time>
      </trkpt>
      <trkpt lat="39.968615" lon="-0.341615">
        <ele>451.0</ele>
        <time>2017-05-27T10:53:58.527Z</time>
      </trkpt>
      <trkpt lat="39.96863833" lon="-0.34160833">
        <ele>451.0</ele>
        <time>2017-05-27T10:53:59.493Z</time>
      </trkpt>
      <trkpt lat="39.96863833" lon="-0.34160833">
        <ele>451.0</ele>
        <time>2017-05-27T10:54:00.499Z</time>
      </trkpt>
      <trkpt lat="39.96868333" lon="-0.34159333">
        <ele>452.0</ele>
        <time>2017-05-27T10:54:01.508Z</time>
      </trkpt>
      <trkpt lat="39.96870667" lon="-0.341585">
        <ele>452.0</ele>
        <time>2017-05-27T10:54:02.533Z</time>
      </trkpt>
      <trkpt lat="39.96872833" lon="-0.34157667">
        <ele>452.0</ele>
        <time>2017-05-27T10:54:03.513Z</time>
      </trkpt>
      <trkpt lat="39.96872833" lon="-0.34157667">
        <ele>452.0</ele>
        <time>2017-05-27T10:54:04.502Z</time>
      </trkpt>
      <trkpt lat="39.96877" lon="-0.34156333">
        <ele>452.0</ele>
        <time>2017-05-27T10:54:05.531Z</time>
      </trkpt>
      <trkpt lat="39.96877" lon="-0.34156333">
        <ele>452.0</ele>
        <time>2017-05-27T10:54:06.514Z</time>
      </trkpt>
      <trkpt lat="39.96881667" lon="-0.34154833">
        <ele>453.0</ele>
        <time>2017-05-27T10:54:07.491Z</time>
      </trkpt>
      <trkpt lat="39.96881667" lon="-0.34154833">
        <ele>453.0</ele>
        <time>2017-05-27T10:54:08.520Z</time>
      </trkpt>
      <trkpt lat="39.96886333" lon="-0.34153333">
        <ele>453.0</ele>
        <time>2017-05-27T10:54:09.493Z</time>
      </trkpt>
      <trkpt lat="39.96886333" lon="-0.34153333">
        <ele>453.0</ele>
        <time>2017-05-27T10:54:10.499Z</time>
      </trkpt>
      <trkpt lat="39.96891" lon="-0.34152">
        <ele>453.0</ele>
        <time>2017-05-27T10:54:11.519Z</time>
      </trkpt>
      <trkpt lat="39.96891" lon="-0.34152">
        <ele>453.0</ele>
        <time>2017-05-27T10:54:12.514Z</time>
      </trkpt>
      <trkpt lat="39.968955" lon="-0.341505">
        <ele>453.0</ele>
        <time>2017-05-27T10:54:13.493Z</time>
      </trkpt>
      <trkpt lat="39.96897833" lon="-0.34149833">
        <ele>453.0</ele>
        <time>2017-05-27T10:54:14.522Z</time>
      </trkpt>
      <trkpt lat="39.96897833" lon="-0.34149833">
        <ele>453.0</ele>
        <time>2017-05-27T10:54:15.509Z</time>
      </trkpt>
      <trkpt lat="39.96902167" lon="-0.34148">
        <ele>454.0</ele>
        <time>2017-05-27T10:54:16.525Z</time>
      </trkpt>
      <trkpt lat="39.969045" lon="-0.34147333">
        <ele>454.0</ele>
        <time>2017-05-27T10:54:17.502Z</time>
      </trkpt>
      <trkpt lat="39.96906667" lon="-0.341465">
        <ele>454.0</ele>
        <time>2017-05-27T10:54:18.524Z</time>
      </trkpt>
      <trkpt lat="39.96906667" lon="-0.341465">
        <ele>454.0</ele>
        <time>2017-05-27T10:54:19.502Z</time>
      </trkpt>
      <trkpt lat="39.96910333" lon="-0.34146167">
        <ele>455.0</ele>
        <time>2017-05-27T10:54:20.522Z</time>
      </trkpt>
      <trkpt lat="39.96912167" lon="-0.341455">
        <ele>456.0</ele>
        <time>2017-05-27T10:54:21.517Z</time>
      </trkpt>
      <trkpt lat="39.96912167" lon="-0.341455">
        <ele>456.0</ele>
        <time>2017-05-27T10:54:22.527Z</time>
      </trkpt>
      <trkpt lat="39.96916333" lon="-0.34145667">
        <ele>457.0</ele>
        <time>2017-05-27T10:54:23.516Z</time>
      </trkpt>
      <trkpt lat="39.96916333" lon="-0.34145667">
        <ele>457.0</ele>
        <time>2017-05-27T10:54:24.507Z</time>
      </trkpt>
      <trkpt lat="39.96920333" lon="-0.34145667">
        <ele>457.0</ele>
        <time>2017-05-27T10:54:25.501Z</time>
      </trkpt>
      <trkpt lat="39.96920333" lon="-0.34145667">
        <ele>457.0</ele>
        <time>2017-05-27T10:54:26.491Z</time>
      </trkpt>
      <trkpt lat="39.96924833" lon="-0.34146">
        <ele>458.0</ele>
        <time>2017-05-27T10:54:27.514Z</time>
      </trkpt>
      <trkpt lat="39.96924833" lon="-0.34146">
        <ele>458.0</ele>
        <time>2017-05-27T10:54:28.498Z</time>
      </trkpt>
      <trkpt lat="39.96930333" lon="-0.34146333">
        <ele>459.0</ele>
        <time>2017-05-27T10:54:29.517Z</time>
      </trkpt>
      <trkpt lat="39.96930333" lon="-0.34146333">
        <ele>459.0</ele>
        <time>2017-05-27T10:54:30.529Z</time>
      </trkpt>
      <trkpt lat="39.969355" lon="-0.34147167">
        <ele>459.0</ele>
        <time>2017-05-27T10:54:31.524Z</time>
      </trkpt>
      <trkpt lat="39.969355" lon="-0.34147167">
        <ele>459.0</ele>
        <time>2017-05-27T10:54:32.523Z</time>
      </trkpt>
      <trkpt lat="39.969405" lon="-0.34148833">
        <ele>459.0</ele>
        <time>2017-05-27T10:54:33.492Z</time>
      </trkpt>
      <trkpt lat="39.969405" lon="-0.34148833">
        <ele>459.0</ele>
        <time>2017-05-27T10:54:34.502Z</time>
      </trkpt>
      <trkpt lat="39.96945333" lon="-0.34150667">
        <ele>458.0</ele>
        <time>2017-05-27T10:54:35.526Z</time>
      </trkpt>
      <trkpt lat="39.96945333" lon="-0.34150667">
        <ele>458.0</ele>
        <time>2017-05-27T10:54:36.505Z</time>
      </trkpt>
      <trkpt lat="39.96949833" lon="-0.34152833">
        <ele>459.0</ele>
        <time>2017-05-27T10:54:37.529Z</time>
      </trkpt>
      <trkpt lat="39.96949833" lon="-0.34152833">
        <ele>459.0</ele>
        <time>2017-05-27T10:54:38.509Z</time>
      </trkpt>
      <trkpt lat="39.96954167" lon="-0.34155833">
        <ele>459.0</ele>
        <time>2017-05-27T10:54:39.527Z</time>
      </trkpt>
      <trkpt lat="39.96954167" lon="-0.34155833">
        <ele>459.0</ele>
        <time>2017-05-27T10:54:40.528Z</time>
      </trkpt>
      <trkpt lat="39.96958167" lon="-0.34159167">
        <ele>459.0</ele>
        <time>2017-05-27T10:54:41.512Z</time>
      </trkpt>
      <trkpt lat="39.96958167" lon="-0.34159167">
        <ele>459.0</ele>
        <time>2017-05-27T10:54:42.517Z</time>
      </trkpt>
      <trkpt lat="39.969625" lon="-0.341625">
        <ele>459.0</ele>
        <time>2017-05-27T10:54:43.495Z</time>
      </trkpt>
      <trkpt lat="39.969625" lon="-0.341625">
        <ele>459.0</ele>
        <time>2017-05-27T10:54:44.511Z</time>
      </trkpt>
      <trkpt lat="39.969665" lon="-0.34166333">
        <ele>460.0</ele>
        <time>2017-05-27T10:54:45.530Z</time>
      </trkpt>
      <trkpt lat="39.969665" lon="-0.34166333">
        <ele>460.0</ele>
        <time>2017-05-27T10:54:46.506Z</time>
      </trkpt>
      <trkpt lat="39.96970333" lon="-0.34170167">
        <ele>460.0</ele>
        <time>2017-05-27T10:54:47.513Z</time>
      </trkpt>
      <trkpt lat="39.96970333" lon="-0.34170167">
        <ele>460.0</ele>
        <time>2017-05-27T10:54:48.519Z</time>
      </trkpt>
      <trkpt lat="39.96974167" lon="-0.34174">
        <ele>460.0</ele>
        <time>2017-05-27T10:54:49.502Z</time>
      </trkpt>
      <trkpt lat="39.96974167" lon="-0.34174">
        <ele>460.0</ele>
        <time>2017-05-27T10:54:50.511Z</time>
      </trkpt>
      <trkpt lat="39.969775" lon="-0.341785">
        <ele>460.0</ele>
        <time>2017-05-27T10:54:51.537Z</time>
      </trkpt>
      <trkpt lat="39.969775" lon="-0.341785">
        <ele>460.0</ele>
        <time>2017-05-27T10:54:52.497Z</time>
      </trkpt>
      <trkpt lat="39.96981167" lon="-0.34183167">
        <ele>460.0</ele>
        <time>2017-05-27T10:54:53.525Z</time>
      </trkpt>
      <trkpt lat="39.96981167" lon="-0.34183167">
        <ele>460.0</ele>
        <time>2017-05-27T10:54:54.512Z</time>
      </trkpt>
      <trkpt lat="39.96984667" lon="-0.34187333">
        <ele>461.0</ele>
        <time>2017-05-27T10:54:55.499Z</time>
      </trkpt>
      <trkpt lat="39.96984667" lon="-0.34187333">
        <ele>461.0</ele>
        <time>2017-05-27T10:54:56.496Z</time>
      </trkpt>
      <trkpt lat="39.96988167" lon="-0.34191667">
        <ele>461.0</ele>
        <time>2017-05-27T10:54:57.513Z</time>
      </trkpt>
      <trkpt lat="39.96988167" lon="-0.34191667">
        <ele>461.0</ele>
        <time>2017-05-27T10:54:58.530Z</time>
      </trkpt>
      <trkpt lat="39.96991667" lon="-0.34196">
        <ele>461.0</ele>
        <time>2017-05-27T10:54:59.517Z</time>
      </trkpt>
      <trkpt lat="39.96991667" lon="-0.34196">
        <ele>461.0</ele>
        <time>2017-05-27T10:55:00.500Z</time>
      </trkpt>
      <trkpt lat="39.969945" lon="-0.342005">
        <ele>461.0</ele>
        <time>2017-05-27T10:55:01.528Z</time>
      </trkpt>
      <trkpt lat="39.969945" lon="-0.342005">
        <ele>461.0</ele>
        <time>2017-05-27T10:55:02.525Z</time>
      </trkpt>
      <trkpt lat="39.96997333" lon="-0.34205">
        <ele>462.0</ele>
        <time>2017-05-27T10:55:03.507Z</time>
      </trkpt>
      <trkpt lat="39.96997333" lon="-0.34205">
        <ele>462.0</ele>
        <time>2017-05-27T10:55:04.492Z</time>
      </trkpt>
      <trkpt lat="39.97000167" lon="-0.34209667">
        <ele>462.0</ele>
        <time>2017-05-27T10:55:05.512Z</time>
      </trkpt>
      <trkpt lat="39.97001667" lon="-0.34212">
        <ele>462.0</ele>
        <time>2017-05-27T10:55:06.528Z</time>
      </trkpt>
      <trkpt lat="39.97001667" lon="-0.34212">
        <ele>462.0</ele>
        <time>2017-05-27T10:55:07.502Z</time>
      </trkpt>
      <trkpt lat="39.97004833" lon="-0.34216667">
        <ele>462.0</ele>
        <time>2017-05-27T10:55:08.526Z</time>
      </trkpt>
      <trkpt lat="39.97006167" lon="-0.34219">
        <ele>462.0</ele>
        <time>2017-05-27T10:55:09.505Z</time>
      </trkpt>
      <trkpt lat="39.97006167" lon="-0.34219">
        <ele>462.0</ele>
        <time>2017-05-27T10:55:10.528Z</time>
      </trkpt>
      <trkpt lat="39.970085" lon="-0.34224">
        <ele>462.0</ele>
        <time>2017-05-27T10:55:11.507Z</time>
      </trkpt>
      <trkpt lat="39.9701" lon="-0.342265">
        <ele>462.0</ele>
        <time>2017-05-27T10:55:12.527Z</time>
      </trkpt>
      <trkpt lat="39.9701" lon="-0.342265">
        <ele>462.0</ele>
        <time>2017-05-27T10:55:13.494Z</time>
      </trkpt>
      <trkpt lat="39.97012667" lon="-0.34231833">
        <ele>463.0</ele>
        <time>2017-05-27T10:55:14.512Z</time>
      </trkpt>
      <trkpt lat="39.97014" lon="-0.342345">
        <ele>463.0</ele>
        <time>2017-05-27T10:55:15.501Z</time>
      </trkpt>
      <trkpt lat="39.97014" lon="-0.342345">
        <ele>463.0</ele>
        <time>2017-05-27T10:55:16.515Z</time>
      </trkpt>
      <trkpt lat="39.970165" lon="-0.3424">
        <ele>463.0</ele>
        <time>2017-05-27T10:55:17.491Z</time>
      </trkpt>
      <trkpt lat="39.970165" lon="-0.3424">
        <ele>463.0</ele>
        <time>2017-05-27T10:55:18.506Z</time>
      </trkpt>
      <trkpt lat="39.97019" lon="-0.342455">
        <ele>464.0</ele>
        <time>2017-05-27T10:55:19.524Z</time>
      </trkpt>
      <trkpt lat="39.97019" lon="-0.342455">
        <ele>464.0</ele>
        <time>2017-05-27T10:55:20.499Z</time>
      </trkpt>
      <trkpt lat="39.97021667" lon="-0.34251">
        <ele>464.0</ele>
        <time>2017-05-27T10:55:21.518Z</time>
      </trkpt>
      <trkpt lat="39.97021667" lon="-0.34251">
        <ele>464.0</ele>
        <time>2017-05-27T10:55:22.531Z</time>
      </trkpt>
      <trkpt lat="39.97022167" lon="-0.34257167">
        <ele>464.0</ele>
        <time>2017-05-27T10:55:23.509Z</time>
      </trkpt>
      <trkpt lat="39.97023" lon="-0.34259833">
        <ele>464.0</ele>
        <time>2017-05-27T10:55:24.517Z</time>
      </trkpt>
      <trkpt lat="39.97023" lon="-0.34259833">
        <ele>464.0</ele>
        <time>2017-05-27T10:55:25.505Z</time>
      </trkpt>
      <trkpt lat="39.97025167" lon="-0.34265167">
        <ele>465.0</ele>
        <time>2017-05-27T10:55:26.499Z</time>
      </trkpt>
      <trkpt lat="39.97025833" lon="-0.34268167">
        <ele>465.0</ele>
        <time>2017-05-27T10:55:27.518Z</time>
      </trkpt>
      <trkpt lat="39.97025833" lon="-0.34268167">
        <ele>465.0</ele>
        <time>2017-05-27T10:55:28.500Z</time>
      </trkpt>
      <trkpt lat="39.97028333" lon="-0.34273167">
        <ele>465.0</ele>
        <time>2017-05-27T10:55:29.493Z</time>
      </trkpt>
      <trkpt lat="39.97028333" lon="-0.34273167">
        <ele>465.0</ele>
        <time>2017-05-27T10:55:30.509Z</time>
      </trkpt>
      <trkpt lat="39.970315" lon="-0.34278">
        <ele>465.0</ele>
        <time>2017-05-27T10:55:31.503Z</time>
      </trkpt>
      <trkpt lat="39.97033" lon="-0.342805">
        <ele>465.0</ele>
        <time>2017-05-27T10:55:32.504Z</time>
      </trkpt>
      <trkpt lat="39.97033" lon="-0.342805">
        <ele>465.0</ele>
        <time>2017-05-27T10:55:33.513Z</time>
      </trkpt>
      <trkpt lat="39.97036" lon="-0.34285833">
        <ele>465.0</ele>
        <time>2017-05-27T10:55:34.514Z</time>
      </trkpt>
      <trkpt lat="39.97036" lon="-0.34285833">
        <ele>465.0</ele>
        <time>2017-05-27T10:55:35.527Z</time>
      </trkpt>
      <trkpt lat="39.97038167" lon="-0.34291333">
        <ele>465.0</ele>
        <time>2017-05-27T10:55:36.502Z</time>
      </trkpt>
      <trkpt lat="39.97038167" lon="-0.34291333">
        <ele>465.0</ele>
        <time>2017-05-27T10:55:37.492Z</time>
      </trkpt>
      <trkpt lat="39.970405" lon="-0.34297833">
        <ele>465.0</ele>
        <time>2017-05-27T10:55:38.515Z</time>
      </trkpt>
      <trkpt lat="39.97042" lon="-0.34300833">
        <ele>465.0</ele>
        <time>2017-05-27T10:55:39.514Z</time>
      </trkpt>
      <trkpt lat="39.97043333" lon="-0.34304">
        <ele>465.0</ele>
        <time>2017-05-27T10:55:40.509Z</time>
      </trkpt>
      <trkpt lat="39.97043333" lon="-0.34304">
        <ele>465.0</ele>
        <time>2017-05-27T10:55:41.521Z</time>
      </trkpt>
      <trkpt lat="39.97045667" lon="-0.343095">
        <ele>465.0</ele>
        <time>2017-05-27T10:55:42.515Z</time>
      </trkpt>
      <trkpt lat="39.97045667" lon="-0.343095">
        <ele>465.0</ele>
        <time>2017-05-27T10:55:43.528Z</time>
      </trkpt>
      <trkpt lat="39.97047833" lon="-0.343155">
        <ele>465.0</ele>
        <time>2017-05-27T10:55:44.517Z</time>
      </trkpt>
      <trkpt lat="39.97047833" lon="-0.343155">
        <ele>465.0</ele>
        <time>2017-05-27T10:55:45.499Z</time>
      </trkpt>
      <trkpt lat="39.97050167" lon="-0.34321667">
        <ele>465.0</ele>
        <time>2017-05-27T10:55:46.507Z</time>
      </trkpt>
      <trkpt lat="39.97050167" lon="-0.34321667">
        <ele>465.0</ele>
        <time>2017-05-27T10:55:47.530Z</time>
      </trkpt>
      <trkpt lat="39.97052333" lon="-0.343275">
        <ele>466.0</ele>
        <time>2017-05-27T10:55:48.513Z</time>
      </trkpt>
      <trkpt lat="39.97052333" lon="-0.343275">
        <ele>466.0</ele>
        <time>2017-05-27T10:55:49.505Z</time>
      </trkpt>
      <trkpt lat="39.970545" lon="-0.34333167">
        <ele>466.0</ele>
        <time>2017-05-27T10:55:50.492Z</time>
      </trkpt>
      <trkpt lat="39.97055167" lon="-0.34336667">
        <ele>466.0</ele>
        <time>2017-05-27T10:55:51.496Z</time>
      </trkpt>
      <trkpt lat="39.97055167" lon="-0.34336667">
        <ele>466.0</ele>
        <time>2017-05-27T10:55:52.528Z</time>
      </trkpt>
      <trkpt lat="39.97057167" lon="-0.34343">
        <ele>467.0</ele>
        <time>2017-05-27T10:55:53.511Z</time>
      </trkpt>
      <trkpt lat="39.97059167" lon="-0.34346">
        <ele>467.0</ele>
        <time>2017-05-27T10:55:54.513Z</time>
      </trkpt>
      <trkpt lat="39.97059167" lon="-0.34346">
        <ele>467.0</ele>
        <time>2017-05-27T10:55:55.513Z</time>
      </trkpt>
      <trkpt lat="39.97061833" lon="-0.34352833">
        <ele>467.0</ele>
        <time>2017-05-27T10:55:56.494Z</time>
      </trkpt>
      <trkpt lat="39.97063167" lon="-0.34355667">
        <ele>468.0</ele>
        <time>2017-05-27T10:55:57.492Z</time>
      </trkpt>
      <trkpt lat="39.97063167" lon="-0.34355667">
        <ele>468.0</ele>
        <time>2017-05-27T10:55:58.518Z</time>
      </trkpt>
      <trkpt lat="39.970665" lon="-0.34360667">
        <ele>468.0</ele>
        <time>2017-05-27T10:55:59.497Z</time>
      </trkpt>
      <trkpt lat="39.970665" lon="-0.34360667">
        <ele>468.0</ele>
        <time>2017-05-27T10:56:00.498Z</time>
      </trkpt>
      <trkpt lat="39.97069833" lon="-0.34365833">
        <ele>468.0</ele>
        <time>2017-05-27T10:56:01.514Z</time>
      </trkpt>
      <trkpt lat="39.97071167" lon="-0.34368167">
        <ele>468.0</ele>
        <time>2017-05-27T10:56:02.519Z</time>
      </trkpt>
      <trkpt lat="39.97073333" lon="-0.34370333">
        <ele>468.0</ele>
        <time>2017-05-27T10:56:03.525Z</time>
      </trkpt>
      <trkpt lat="39.97073333" lon="-0.34370333">
        <ele>468.0</ele>
        <time>2017-05-27T10:56:04.496Z</time>
      </trkpt>
      <trkpt lat="39.97078667" lon="-0.343745">
        <ele>468.0</ele>
        <time>2017-05-27T10:56:05.517Z</time>
      </trkpt>
      <trkpt lat="39.97081667" lon="-0.34376167">
        <ele>468.0</ele>
        <time>2017-05-27T10:56:06.537Z</time>
      </trkpt>
      <trkpt lat="39.97081667" lon="-0.34376167">
        <ele>468.0</ele>
        <time>2017-05-27T10:56:07.507Z</time>
      </trkpt>
      <trkpt lat="39.970865" lon="-0.34380167">
        <ele>469.0</ele>
        <time>2017-05-27T10:56:08.528Z</time>
      </trkpt>
      <trkpt lat="39.97089" lon="-0.34382">
        <ele>469.0</ele>
        <time>2017-05-27T10:56:09.501Z</time>
      </trkpt>
      <trkpt lat="39.97089" lon="-0.34382">
        <ele>469.0</ele>
        <time>2017-05-27T10:56:10.524Z</time>
      </trkpt>
      <trkpt lat="39.97093833" lon="-0.34385333">
        <ele>469.0</ele>
        <time>2017-05-27T10:56:11.536Z</time>
      </trkpt>
      <trkpt lat="39.97093833" lon="-0.34385333">
        <ele>469.0</ele>
        <time>2017-05-27T10:56:12.518Z</time>
      </trkpt>
      <trkpt lat="39.97098667" lon="-0.34388333">
        <ele>469.0</ele>
        <time>2017-05-27T10:56:13.510Z</time>
      </trkpt>
      <trkpt lat="39.97101167" lon="-0.34389833">
        <ele>470.0</ele>
        <time>2017-05-27T10:56:14.514Z</time>
      </trkpt>
      <trkpt lat="39.97101167" lon="-0.34389833">
        <ele>470.0</ele>
        <time>2017-05-27T10:56:15.527Z</time>
      </trkpt>
      <trkpt lat="39.97105833" lon="-0.34392667">
        <ele>470.0</ele>
        <time>2017-05-27T10:56:16.503Z</time>
      </trkpt>
      <trkpt lat="39.97105833" lon="-0.34392667">
        <ele>470.0</ele>
        <time>2017-05-27T10:56:17.513Z</time>
      </trkpt>
      <trkpt lat="39.971105" lon="-0.34395333">
        <ele>470.0</ele>
        <time>2017-05-27T10:56:18.497Z</time>
      </trkpt>
      <trkpt lat="39.971105" lon="-0.34395333">
        <ele>470.0</ele>
        <time>2017-05-27T10:56:19.509Z</time>
      </trkpt>
      <trkpt lat="39.97114667" lon="-0.343985">
        <ele>470.0</ele>
        <time>2017-05-27T10:56:20.501Z</time>
      </trkpt>
      <trkpt lat="39.97116833" lon="-0.34400167">
        <ele>470.0</ele>
        <time>2017-05-27T10:56:21.531Z</time>
      </trkpt>
      <trkpt lat="39.97116833" lon="-0.34400167">
        <ele>470.0</ele>
        <time>2017-05-27T10:56:22.527Z</time>
      </trkpt>
      <trkpt lat="39.971215" lon="-0.34403">
        <ele>470.0</ele>
        <time>2017-05-27T10:56:23.504Z</time>
      </trkpt>
      <trkpt lat="39.97123833" lon="-0.34404333">
        <ele>470.0</ele>
        <time>2017-05-27T10:56:24.514Z</time>
      </trkpt>
      <trkpt lat="39.97123833" lon="-0.34404333">
        <ele>470.0</ele>
        <time>2017-05-27T10:56:25.493Z</time>
      </trkpt>
      <trkpt lat="39.97127667" lon="-0.34407667">
        <ele>470.0</ele>
        <time>2017-05-27T10:56:26.529Z</time>
      </trkpt>
      <trkpt lat="39.97129667" lon="-0.34408833">
        <ele>471.0</ele>
        <time>2017-05-27T10:56:27.519Z</time>
      </trkpt>
      <trkpt lat="39.97129667" lon="-0.34408833">
        <ele>471.0</ele>
        <time>2017-05-27T10:56:28.511Z</time>
      </trkpt>
      <trkpt lat="39.97134" lon="-0.34410667">
        <ele>471.0</ele>
        <time>2017-05-27T10:56:29.499Z</time>
      </trkpt>
      <trkpt lat="39.97134" lon="-0.34410667">
        <ele>471.0</ele>
        <time>2017-05-27T10:56:30.498Z</time>
      </trkpt>
      <trkpt lat="39.97137833" lon="-0.34412667">
        <ele>471.0</ele>
        <time>2017-05-27T10:56:31.520Z</time>
      </trkpt>
      <trkpt lat="39.97139833" lon="-0.34414">
        <ele>471.0</ele>
        <time>2017-05-27T10:56:32.517Z</time>
      </trkpt>
      <trkpt lat="39.97139833" lon="-0.34414">
        <ele>471.0</ele>
        <time>2017-05-27T10:56:33.499Z</time>
      </trkpt>
      <trkpt lat="39.97143833" lon="-0.34416667">
        <ele>471.0</ele>
        <time>2017-05-27T10:56:34.519Z</time>
      </trkpt>
      <trkpt lat="39.97145833" lon="-0.34418167">
        <ele>472.0</ele>
        <time>2017-05-27T10:56:35.508Z</time>
      </trkpt>
      <trkpt lat="39.97145833" lon="-0.34418167">
        <ele>472.0</ele>
        <time>2017-05-27T10:56:36.514Z</time>
      </trkpt>
      <trkpt lat="39.9715" lon="-0.34421">
        <ele>472.0</ele>
        <time>2017-05-27T10:56:37.506Z</time>
      </trkpt>
      <trkpt lat="39.9715" lon="-0.34421">
        <ele>472.0</ele>
        <time>2017-05-27T10:56:38.495Z</time>
      </trkpt>
      <trkpt lat="39.97154333" lon="-0.34423333">
        <ele>472.0</ele>
        <time>2017-05-27T10:56:39.530Z</time>
      </trkpt>
      <trkpt lat="39.97154333" lon="-0.34423333">
        <ele>472.0</ele>
        <time>2017-05-27T10:56:40.519Z</time>
      </trkpt>
      <trkpt lat="39.97158833" lon="-0.34425833">
        <ele>473.0</ele>
        <time>2017-05-27T10:56:41.502Z</time>
      </trkpt>
      <trkpt lat="39.97158833" lon="-0.34425833">
        <ele>473.0</ele>
        <time>2017-05-27T10:56:42.528Z</time>
      </trkpt>
      <trkpt lat="39.97163167" lon="-0.344285">
        <ele>473.0</ele>
        <time>2017-05-27T10:56:43.516Z</time>
      </trkpt>
      <trkpt lat="39.97165333" lon="-0.344295">
        <ele>473.0</ele>
        <time>2017-05-27T10:56:44.526Z</time>
      </trkpt>
      <trkpt lat="39.971675" lon="-0.344305">
        <ele>473.0</ele>
        <time>2017-05-27T10:56:45.517Z</time>
      </trkpt>
      <trkpt lat="39.971675" lon="-0.344305">
        <ele>473.0</ele>
        <time>2017-05-27T10:56:46.494Z</time>
      </trkpt>
      <trkpt lat="39.97171833" lon="-0.34432667">
        <ele>474.0</ele>
        <time>2017-05-27T10:56:47.517Z</time>
      </trkpt>
      <trkpt lat="39.97171833" lon="-0.34432667">
        <ele>474.0</ele>
        <time>2017-05-27T10:56:48.529Z</time>
      </trkpt>
      <trkpt lat="39.97176" lon="-0.34434167">
        <ele>474.0</ele>
        <time>2017-05-27T10:56:49.520Z</time>
      </trkpt>
      <trkpt lat="39.97178167" lon="-0.34435">
        <ele>474.0</ele>
        <time>2017-05-27T10:56:50.504Z</time>
      </trkpt>
      <trkpt lat="39.97180167" lon="-0.34435833">
        <ele>474.0</ele>
        <time>2017-05-27T10:56:51.531Z</time>
      </trkpt>
      <trkpt lat="39.97180167" lon="-0.34435833">
        <ele>474.0</ele>
        <time>2017-05-27T10:56:52.494Z</time>
      </trkpt>
      <trkpt lat="39.97184667" lon="-0.34436667">
        <ele>475.0</ele>
        <time>2017-05-27T10:56:53.520Z</time>
      </trkpt>
      <trkpt lat="39.97184667" lon="-0.34436667">
        <ele>475.0</ele>
        <time>2017-05-27T10:56:54.500Z</time>
      </trkpt>
      <trkpt lat="39.97189833" lon="-0.34437167">
        <ele>475.0</ele>
        <time>2017-05-27T10:56:55.493Z</time>
      </trkpt>
      <trkpt lat="39.97189833" lon="-0.34437167">
        <ele>475.0</ele>
        <time>2017-05-27T10:56:56.526Z</time>
      </trkpt>
      <trkpt lat="39.971945" lon="-0.34438">
        <ele>475.0</ele>
        <time>2017-05-27T10:56:57.517Z</time>
      </trkpt>
      <trkpt lat="39.971945" lon="-0.34438">
        <ele>475.0</ele>
        <time>2017-05-27T10:56:58.530Z</time>
      </trkpt>
      <trkpt lat="39.97199333" lon="-0.34438333">
        <ele>476.0</ele>
        <time>2017-05-27T10:56:59.515Z</time>
      </trkpt>
      <trkpt lat="39.972015" lon="-0.344385">
        <ele>477.0</ele>
        <time>2017-05-27T10:57:00.497Z</time>
      </trkpt>
      <trkpt lat="39.972015" lon="-0.344385">
        <ele>477.0</ele>
        <time>2017-05-27T10:57:01.515Z</time>
      </trkpt>
      <trkpt lat="39.97206167" lon="-0.34438">
        <ele>478.0</ele>
        <time>2017-05-27T10:57:02.502Z</time>
      </trkpt>
      <trkpt lat="39.97206167" lon="-0.34438">
        <ele>478.0</ele>
        <time>2017-05-27T10:57:03.518Z</time>
      </trkpt>
      <trkpt lat="39.97210333" lon="-0.34437833">
        <ele>479.0</ele>
        <time>2017-05-27T10:57:04.511Z</time>
      </trkpt>
      <trkpt lat="39.97210333" lon="-0.34437833">
        <ele>479.0</ele>
        <time>2017-05-27T10:57:05.502Z</time>
      </trkpt>
      <trkpt lat="39.97214667" lon="-0.34437167">
        <ele>480.0</ele>
        <time>2017-05-27T10:57:06.531Z</time>
      </trkpt>
      <trkpt lat="39.972165" lon="-0.34437833">
        <ele>481.0</ele>
        <time>2017-05-27T10:57:07.528Z</time>
      </trkpt>
      <trkpt lat="39.972165" lon="-0.34437833">
        <ele>481.0</ele>
        <time>2017-05-27T10:57:08.529Z</time>
      </trkpt>
      <trkpt lat="39.97219833" lon="-0.3444">
        <ele>482.0</ele>
        <time>2017-05-27T10:57:09.517Z</time>
      </trkpt>
      <trkpt lat="39.97219833" lon="-0.3444">
        <ele>482.0</ele>
        <time>2017-05-27T10:57:10.528Z</time>
      </trkpt>
      <trkpt lat="39.97223167" lon="-0.34443">
        <ele>483.0</ele>
        <time>2017-05-27T10:57:11.512Z</time>
      </trkpt>
      <trkpt lat="39.97223167" lon="-0.34443">
        <ele>483.0</ele>
        <time>2017-05-27T10:57:12.501Z</time>
      </trkpt>
      <trkpt lat="39.97226833" lon="-0.34444333">
        <ele>484.0</ele>
        <time>2017-05-27T10:57:13.531Z</time>
      </trkpt>
      <trkpt lat="39.97228833" lon="-0.34444833">
        <ele>484.0</ele>
        <time>2017-05-27T10:57:14.507Z</time>
      </trkpt>
      <trkpt lat="39.97228833" lon="-0.34444833">
        <ele>484.0</ele>
        <time>2017-05-27T10:57:15.508Z</time>
      </trkpt>
      <trkpt lat="39.97232833" lon="-0.34446">
        <ele>485.0</ele>
        <time>2017-05-27T10:57:16.526Z</time>
      </trkpt>
      <trkpt lat="39.97232833" lon="-0.34446">
        <ele>485.0</ele>
        <time>2017-05-27T10:57:17.499Z</time>
      </trkpt>
      <trkpt lat="39.97236833" lon="-0.34446167">
        <ele>486.0</ele>
        <time>2017-05-27T10:57:18.531Z</time>
      </trkpt>
      <trkpt lat="39.97236833" lon="-0.34446167">
        <ele>486.0</ele>
        <time>2017-05-27T10:57:19.498Z</time>
      </trkpt>
      <trkpt lat="39.97240667" lon="-0.34446667">
        <ele>487.0</ele>
        <time>2017-05-27T10:57:20.519Z</time>
      </trkpt>
      <trkpt lat="39.97243" lon="-0.34447333">
        <ele>486.0</ele>
        <time>2017-05-27T10:57:21.527Z</time>
      </trkpt>
      <trkpt lat="39.97243" lon="-0.34447333">
        <ele>486.0</ele>
        <time>2017-05-27T10:57:22.517Z</time>
      </trkpt>
      <trkpt lat="39.97247" lon="-0.34447667">
        <ele>488.0</ele>
        <time>2017-05-27T10:57:23.546Z</time>
      </trkpt>
      <trkpt lat="39.97247" lon="-0.34447667">
        <ele>488.0</ele>
        <time>2017-05-27T10:57:24.528Z</time>
      </trkpt>
      <trkpt lat="39.97250667" lon="-0.34448">
        <ele>489.0</ele>
        <time>2017-05-27T10:57:25.527Z</time>
      </trkpt>
      <trkpt lat="39.97250667" lon="-0.34448">
        <ele>489.0</ele>
        <time>2017-05-27T10:57:26.526Z</time>
      </trkpt>
      <trkpt lat="39.97254833" lon="-0.34448">
        <ele>490.0</ele>
        <time>2017-05-27T10:57:27.500Z</time>
      </trkpt>
      <trkpt lat="39.97254833" lon="-0.34448">
        <ele>490.0</ele>
        <time>2017-05-27T10:57:28.512Z</time>
      </trkpt>
      <trkpt lat="39.97259333" lon="-0.34448333">
        <ele>491.0</ele>
        <time>2017-05-27T10:57:29.497Z</time>
      </trkpt>
      <trkpt lat="39.972615" lon="-0.34448833">
        <ele>491.0</ele>
        <time>2017-05-27T10:57:30.500Z</time>
      </trkpt>
      <trkpt lat="39.972615" lon="-0.34448833">
        <ele>491.0</ele>
        <time>2017-05-27T10:57:31.526Z</time>
      </trkpt>
      <trkpt lat="39.972655" lon="-0.344495">
        <ele>491.0</ele>
        <time>2017-05-27T10:57:32.516Z</time>
      </trkpt>
      <trkpt lat="39.972655" lon="-0.344495">
        <ele>491.0</ele>
        <time>2017-05-27T10:57:33.527Z</time>
      </trkpt>
      <trkpt lat="39.97269" lon="-0.34449833">
        <ele>492.0</ele>
        <time>2017-05-27T10:57:34.532Z</time>
      </trkpt>
      <trkpt lat="39.97269" lon="-0.34449833">
        <ele>492.0</ele>
        <time>2017-05-27T10:57:35.526Z</time>
      </trkpt>
      <trkpt lat="39.97273667" lon="-0.34450333">
        <ele>492.0</ele>
        <time>2017-05-27T10:57:36.513Z</time>
      </trkpt>
      <trkpt lat="39.97276" lon="-0.34450333">
        <ele>492.0</ele>
        <time>2017-05-27T10:57:37.531Z</time>
      </trkpt>
      <trkpt lat="39.97276" lon="-0.34450333">
        <ele>492.0</ele>
        <time>2017-05-27T10:57:38.494Z</time>
      </trkpt>
      <trkpt lat="39.9728" lon="-0.34451">
        <ele>494.0</ele>
        <time>2017-05-27T10:57:39.491Z</time>
      </trkpt>
      <trkpt lat="39.9728" lon="-0.34451">
        <ele>494.0</ele>
        <time>2017-05-27T10:57:40.517Z</time>
      </trkpt>
      <trkpt lat="39.97283667" lon="-0.344515">
        <ele>495.0</ele>
        <time>2017-05-27T10:57:41.503Z</time>
      </trkpt>
      <trkpt lat="39.97283667" lon="-0.344515">
        <ele>495.0</ele>
        <time>2017-05-27T10:57:42.511Z</time>
      </trkpt>
      <trkpt lat="39.97287667" lon="-0.34451">
        <ele>497.0</ele>
        <time>2017-05-27T10:57:43.497Z</time>
      </trkpt>
      <trkpt lat="39.97287667" lon="-0.34451">
        <ele>497.0</ele>
        <time>2017-05-27T10:57:44.525Z</time>
      </trkpt>
      <trkpt lat="39.97292167" lon="-0.344505">
        <ele>498.0</ele>
        <time>2017-05-27T10:57:45.506Z</time>
      </trkpt>
      <trkpt lat="39.97294333" lon="-0.34450333">
        <ele>498.0</ele>
        <time>2017-05-27T10:57:46.506Z</time>
      </trkpt>
      <trkpt lat="39.97294333" lon="-0.34450333">
        <ele>498.0</ele>
        <time>2017-05-27T10:57:47.526Z</time>
      </trkpt>
      <trkpt lat="39.97298" lon="-0.34450167">
        <ele>498.0</ele>
        <time>2017-05-27T10:57:48.507Z</time>
      </trkpt>
      <trkpt lat="39.97298" lon="-0.34450167">
        <ele>498.0</ele>
        <time>2017-05-27T10:57:49.498Z</time>
      </trkpt>
      <trkpt lat="39.97301" lon="-0.34449833">
        <ele>499.0</ele>
        <time>2017-05-27T10:57:50.518Z</time>
      </trkpt>
      <trkpt lat="39.97301" lon="-0.34449833">
        <ele>499.0</ele>
        <time>2017-05-27T10:57:51.501Z</time>
      </trkpt>
      <trkpt lat="39.97304167" lon="-0.344495">
        <ele>500.0</ele>
        <time>2017-05-27T10:57:52.527Z</time>
      </trkpt>
      <trkpt lat="39.97304167" lon="-0.344495">
        <ele>500.0</ele>
        <time>2017-05-27T10:57:53.520Z</time>
      </trkpt>
      <trkpt lat="39.97308167" lon="-0.34448833">
        <ele>501.0</ele>
        <time>2017-05-27T10:57:54.505Z</time>
      </trkpt>
      <trkpt lat="39.97311167" lon="-0.344485">
        <ele>501.0</ele>
        <time>2017-05-27T10:57:55.517Z</time>
      </trkpt>
      <trkpt lat="39.97311167" lon="-0.344485">
        <ele>501.0</ele>
        <time>2017-05-27T10:57:56.526Z</time>
      </trkpt>
      <trkpt lat="39.97318167" lon="-0.34448167">
        <ele>501.0</ele>
        <time>2017-05-27T10:57:57.511Z</time>
      </trkpt>
      <trkpt lat="39.97318167" lon="-0.34448167">
        <ele>501.0</ele>
        <time>2017-05-27T10:57:58.520Z</time>
      </trkpt>
      <trkpt lat="39.97323667" lon="-0.34447333">
        <ele>502.0</ele>
        <time>2017-05-27T10:57:59.516Z</time>
      </trkpt>
      <trkpt lat="39.973255" lon="-0.34447167">
        <ele>503.0</ele>
        <time>2017-05-27T10:58:00.523Z</time>
      </trkpt>
      <trkpt lat="39.973255" lon="-0.34447167">
        <ele>503.0</ele>
        <time>2017-05-27T10:58:01.530Z</time>
      </trkpt>
      <trkpt lat="39.97329833" lon="-0.34446333">
        <ele>504.0</ele>
        <time>2017-05-27T10:58:02.517Z</time>
      </trkpt>
      <trkpt lat="39.97331833" lon="-0.34446667">
        <ele>504.0</ele>
        <time>2017-05-27T10:58:03.518Z</time>
      </trkpt>
      <trkpt lat="39.97331833" lon="-0.34446667">
        <ele>504.0</ele>
        <time>2017-05-27T10:58:04.525Z</time>
      </trkpt>
      <trkpt lat="39.97336333" lon="-0.34446833">
        <ele>503.0</ele>
        <time>2017-05-27T10:58:05.508Z</time>
      </trkpt>
      <trkpt lat="39.97336333" lon="-0.34446833">
        <ele>503.0</ele>
        <time>2017-05-27T10:58:06.527Z</time>
      </trkpt>
      <trkpt lat="39.97341333" lon="-0.34447">
        <ele>503.0</ele>
        <time>2017-05-27T10:58:07.507Z</time>
      </trkpt>
      <trkpt lat="39.97341333" lon="-0.34447">
        <ele>503.0</ele>
        <time>2017-05-27T10:58:08.509Z</time>
      </trkpt>
      <trkpt lat="39.97346" lon="-0.34446833">
        <ele>503.0</ele>
        <time>2017-05-27T10:58:09.530Z</time>
      </trkpt>
      <trkpt lat="39.97346" lon="-0.34446833">
        <ele>503.0</ele>
        <time>2017-05-27T10:58:10.513Z</time>
      </trkpt>
      <trkpt lat="39.97350667" lon="-0.34446667">
        <ele>503.0</ele>
        <time>2017-05-27T10:58:11.530Z</time>
      </trkpt>
      <trkpt lat="39.97350667" lon="-0.34446667">
        <ele>503.0</ele>
        <time>2017-05-27T10:58:12.493Z</time>
      </trkpt>
      <trkpt lat="39.97355167" lon="-0.344465">
        <ele>503.0</ele>
        <time>2017-05-27T10:58:13.513Z</time>
      </trkpt>
      <trkpt lat="39.97355167" lon="-0.344465">
        <ele>503.0</ele>
        <time>2017-05-27T10:58:14.526Z</time>
      </trkpt>
      <trkpt lat="39.97359667" lon="-0.34447167">
        <ele>503.0</ele>
        <time>2017-05-27T10:58:15.503Z</time>
      </trkpt>
      <trkpt lat="39.97359667" lon="-0.34447167">
        <ele>503.0</ele>
        <time>2017-05-27T10:58:16.507Z</time>
      </trkpt>
      <trkpt lat="39.97363833" lon="-0.344475">
        <ele>502.0</ele>
        <time>2017-05-27T10:58:17.532Z</time>
      </trkpt>
      <trkpt lat="39.97366167" lon="-0.34447">
        <ele>501.0</ele>
        <time>2017-05-27T10:58:18.528Z</time>
      </trkpt>
      <trkpt lat="39.97366167" lon="-0.34447">
        <ele>501.0</ele>
        <time>2017-05-27T10:58:19.500Z</time>
      </trkpt>
      <trkpt lat="39.97370333" lon="-0.34445667">
        <ele>501.0</ele>
        <time>2017-05-27T10:58:20.492Z</time>
      </trkpt>
      <trkpt lat="39.973725" lon="-0.34445">
        <ele>501.0</ele>
        <time>2017-05-27T10:58:21.517Z</time>
      </trkpt>
      <trkpt lat="39.973725" lon="-0.34445">
        <ele>501.0</ele>
        <time>2017-05-27T10:58:22.526Z</time>
      </trkpt>
      <trkpt lat="39.97376833" lon="-0.34444333">
        <ele>501.0</ele>
        <time>2017-05-27T10:58:23.514Z</time>
      </trkpt>
      <trkpt lat="39.97376833" lon="-0.34444333">
        <ele>501.0</ele>
        <time>2017-05-27T10:58:24.530Z</time>
      </trkpt>
      <trkpt lat="39.97381667" lon="-0.34444333">
        <ele>500.0</ele>
        <time>2017-05-27T10:58:25.511Z</time>
      </trkpt>
      <trkpt lat="39.97381667" lon="-0.34444333">
        <ele>500.0</ele>
        <time>2017-05-27T10:58:26.516Z</time>
      </trkpt>
      <trkpt lat="39.97386167" lon="-0.34444667">
        <ele>499.0</ele>
        <time>2017-05-27T10:58:27.506Z</time>
      </trkpt>
      <trkpt lat="39.97386167" lon="-0.34444667">
        <ele>499.0</ele>
        <time>2017-05-27T10:58:28.511Z</time>
      </trkpt>
      <trkpt lat="39.97391667" lon="-0.34444167">
        <ele>498.0</ele>
        <time>2017-05-27T10:58:29.531Z</time>
      </trkpt>
      <trkpt lat="39.97394333" lon="-0.34444333">
        <ele>498.0</ele>
        <time>2017-05-27T10:58:30.534Z</time>
      </trkpt>
      <trkpt lat="39.97394333" lon="-0.34444333">
        <ele>498.0</ele>
        <time>2017-05-27T10:58:31.523Z</time>
      </trkpt>
      <trkpt lat="39.97399333" lon="-0.34444667">
        <ele>498.0</ele>
        <time>2017-05-27T10:58:32.509Z</time>
      </trkpt>
      <trkpt lat="39.97401833" lon="-0.34444833">
        <ele>498.0</ele>
        <time>2017-05-27T10:58:33.523Z</time>
      </trkpt>
      <trkpt lat="39.97401833" lon="-0.34444833">
        <ele>498.0</ele>
        <time>2017-05-27T10:58:34.514Z</time>
      </trkpt>
      <trkpt lat="39.97406833" lon="-0.344455">
        <ele>498.0</ele>
        <time>2017-05-27T10:58:35.502Z</time>
      </trkpt>
      <trkpt lat="39.97406833" lon="-0.344455">
        <ele>498.0</ele>
        <time>2017-05-27T10:58:36.526Z</time>
      </trkpt>
      <trkpt lat="39.97411833" lon="-0.344465">
        <ele>499.0</ele>
        <time>2017-05-27T10:58:37.507Z</time>
      </trkpt>
      <trkpt lat="39.97411833" lon="-0.344465">
        <ele>499.0</ele>
        <time>2017-05-27T10:58:38.493Z</time>
      </trkpt>
      <trkpt lat="39.974165" lon="-0.34447333">
        <ele>500.0</ele>
        <time>2017-05-27T10:58:39.532Z</time>
      </trkpt>
      <trkpt lat="39.974165" lon="-0.34447333">
        <ele>500.0</ele>
        <time>2017-05-27T10:58:40.517Z</time>
      </trkpt>
      <trkpt lat="39.97421167" lon="-0.34448167">
        <ele>501.0</ele>
        <time>2017-05-27T10:58:41.497Z</time>
      </trkpt>
      <trkpt lat="39.97423833" lon="-0.34448667">
        <ele>501.0</ele>
        <time>2017-05-27T10:58:42.506Z</time>
      </trkpt>
      <trkpt lat="39.97423833" lon="-0.34448667">
        <ele>501.0</ele>
        <time>2017-05-27T10:58:43.527Z</time>
      </trkpt>
      <trkpt lat="39.97429" lon="-0.344505">
        <ele>501.0</ele>
        <time>2017-05-27T10:58:44.511Z</time>
      </trkpt>
      <trkpt lat="39.97431667" lon="-0.34451333">
        <ele>501.0</ele>
        <time>2017-05-27T10:58:45.508Z</time>
      </trkpt>
      <trkpt lat="39.97431667" lon="-0.34451333">
        <ele>501.0</ele>
        <time>2017-05-27T10:58:46.525Z</time>
      </trkpt>
      <trkpt lat="39.97436833" lon="-0.34453167">
        <ele>500.0</ele>
        <time>2017-05-27T10:58:47.505Z</time>
      </trkpt>
      <trkpt lat="39.97439167" lon="-0.34454333">
        <ele>500.0</ele>
        <time>2017-05-27T10:58:48.507Z</time>
      </trkpt>
      <trkpt lat="39.97439167" lon="-0.34454333">
        <ele>500.0</ele>
        <time>2017-05-27T10:58:49.529Z</time>
      </trkpt>
      <trkpt lat="39.97443833" lon="-0.34457">
        <ele>500.0</ele>
        <time>2017-05-27T10:58:50.523Z</time>
      </trkpt>
      <trkpt lat="39.97446333" lon="-0.34458333">
        <ele>500.0</ele>
        <time>2017-05-27T10:58:51.506Z</time>
      </trkpt>
      <trkpt lat="39.97446333" lon="-0.34458333">
        <ele>500.0</ele>
        <time>2017-05-27T10:58:52.530Z</time>
      </trkpt>
      <trkpt lat="39.97450833" lon="-0.34461167">
        <ele>500.0</ele>
        <time>2017-05-27T10:58:53.520Z</time>
      </trkpt>
      <trkpt lat="39.97453167" lon="-0.34462333">
        <ele>500.0</ele>
        <time>2017-05-27T10:58:54.528Z</time>
      </trkpt>
      <trkpt lat="39.97453167" lon="-0.34462333">
        <ele>500.0</ele>
        <time>2017-05-27T10:58:55.523Z</time>
      </trkpt>
      <trkpt lat="39.97458167" lon="-0.34464167">
        <ele>500.0</ele>
        <time>2017-05-27T10:58:56.511Z</time>
      </trkpt>
      <trkpt lat="39.974605" lon="-0.34465333">
        <ele>500.0</ele>
        <time>2017-05-27T10:58:57.499Z</time>
      </trkpt>
      <trkpt lat="39.974605" lon="-0.34465333">
        <ele>500.0</ele>
        <time>2017-05-27T10:58:58.523Z</time>
      </trkpt>
      <trkpt lat="39.97465833" lon="-0.34467333">
        <ele>500.0</ele>
        <time>2017-05-27T10:58:59.507Z</time>
      </trkpt>
      <trkpt lat="39.97465833" lon="-0.34467333">
        <ele>500.0</ele>
        <time>2017-05-27T10:59:00.503Z</time>
      </trkpt>
      <trkpt lat="39.97470667" lon="-0.3447">
        <ele>500.0</ele>
        <time>2017-05-27T10:59:01.523Z</time>
      </trkpt>
      <trkpt lat="39.97470667" lon="-0.3447">
        <ele>500.0</ele>
        <time>2017-05-27T10:59:02.503Z</time>
      </trkpt>
      <trkpt lat="39.97475167" lon="-0.34472167">
        <ele>500.0</ele>
        <time>2017-05-27T10:59:03.526Z</time>
      </trkpt>
      <trkpt lat="39.97475167" lon="-0.34472167">
        <ele>500.0</ele>
        <time>2017-05-27T10:59:04.500Z</time>
      </trkpt>
      <trkpt lat="39.97480167" lon="-0.34474167">
        <ele>500.0</ele>
        <time>2017-05-27T10:59:05.521Z</time>
      </trkpt>
      <trkpt lat="39.97482667" lon="-0.34474667">
        <ele>500.0</ele>
        <time>2017-05-27T10:59:06.502Z</time>
      </trkpt>
      <trkpt lat="39.97485333" lon="-0.34475">
        <ele>500.0</ele>
        <time>2017-05-27T10:59:07.493Z</time>
      </trkpt>
      <trkpt lat="39.97485333" lon="-0.34475">
        <ele>500.0</ele>
        <time>2017-05-27T10:59:08.529Z</time>
      </trkpt>
      <trkpt lat="39.974905" lon="-0.34475333">
        <ele>500.0</ele>
        <time>2017-05-27T10:59:09.513Z</time>
      </trkpt>
      <trkpt lat="39.974905" lon="-0.34475333">
        <ele>500.0</ele>
        <time>2017-05-27T10:59:10.526Z</time>
      </trkpt>
      <trkpt lat="39.97495667" lon="-0.34475333">
        <ele>500.0</ele>
        <time>2017-05-27T10:59:11.506Z</time>
      </trkpt>
      <trkpt lat="39.97498167" lon="-0.34475167">
        <ele>500.0</ele>
        <time>2017-05-27T10:59:12.507Z</time>
      </trkpt>
      <trkpt lat="39.97498167" lon="-0.34475167">
        <ele>500.0</ele>
        <time>2017-05-27T10:59:13.491Z</time>
      </trkpt>
      <trkpt lat="39.97503333" lon="-0.34474167">
        <ele>501.0</ele>
        <time>2017-05-27T10:59:14.532Z</time>
      </trkpt>
      <trkpt lat="39.97505667" lon="-0.34473333">
        <ele>501.0</ele>
        <time>2017-05-27T10:59:15.509Z</time>
      </trkpt>
      <trkpt lat="39.97505667" lon="-0.34473333">
        <ele>501.0</ele>
        <time>2017-05-27T10:59:16.499Z</time>
      </trkpt>
      <trkpt lat="39.97510333" lon="-0.344705">
        <ele>502.0</ele>
        <time>2017-05-27T10:59:17.528Z</time>
      </trkpt>
      <trkpt lat="39.975125" lon="-0.34469">
        <ele>503.0</ele>
        <time>2017-05-27T10:59:18.515Z</time>
      </trkpt>
      <trkpt lat="39.975125" lon="-0.34469">
        <ele>503.0</ele>
        <time>2017-05-27T10:59:19.513Z</time>
      </trkpt>
      <trkpt lat="39.97517167" lon="-0.34465333">
        <ele>504.0</ele>
        <time>2017-05-27T10:59:20.499Z</time>
      </trkpt>
      <trkpt lat="39.97519333" lon="-0.34463167">
        <ele>504.0</ele>
        <time>2017-05-27T10:59:21.536Z</time>
      </trkpt>
      <trkpt lat="39.97519333" lon="-0.34463167">
        <ele>504.0</ele>
        <time>2017-05-27T10:59:22.511Z</time>
      </trkpt>
      <trkpt lat="39.97523833" lon="-0.344595">
        <ele>504.0</ele>
        <time>2017-05-27T10:59:23.496Z</time>
      </trkpt>
      <trkpt lat="39.97525833" lon="-0.34457667">
        <ele>505.0</ele>
        <time>2017-05-27T10:59:24.543Z</time>
      </trkpt>
      <trkpt lat="39.97525833" lon="-0.34457667">
        <ele>505.0</ele>
        <time>2017-05-27T10:59:25.516Z</time>
      </trkpt>
      <trkpt lat="39.97530333" lon="-0.34454167">
        <ele>505.0</ele>
        <time>2017-05-27T10:59:26.506Z</time>
      </trkpt>
      <trkpt lat="39.97532333" lon="-0.34452833">
        <ele>505.0</ele>
        <time>2017-05-27T10:59:27.509Z</time>
      </trkpt>
      <trkpt lat="39.97532333" lon="-0.34452833">
        <ele>505.0</ele>
        <time>2017-05-27T10:59:28.504Z</time>
      </trkpt>
      <trkpt lat="39.97536833" lon="-0.344505">
        <ele>505.0</ele>
        <time>2017-05-27T10:59:29.493Z</time>
      </trkpt>
      <trkpt lat="39.97536833" lon="-0.344505">
        <ele>505.0</ele>
        <time>2017-05-27T10:59:30.514Z</time>
      </trkpt>
      <trkpt lat="39.975415" lon="-0.34448167">
        <ele>506.0</ele>
        <time>2017-05-27T10:59:31.512Z</time>
      </trkpt>
      <trkpt lat="39.975415" lon="-0.34448167">
        <ele>506.0</ele>
        <time>2017-05-27T10:59:32.531Z</time>
      </trkpt>
      <trkpt lat="39.97546333" lon="-0.34446333">
        <ele>506.0</ele>
        <time>2017-05-27T10:59:33.523Z</time>
      </trkpt>
      <trkpt lat="39.97546333" lon="-0.34446333">
        <ele>506.0</ele>
        <time>2017-05-27T10:59:34.526Z</time>
      </trkpt>
      <trkpt lat="39.97551" lon="-0.34445833">
        <ele>506.0</ele>
        <time>2017-05-27T10:59:35.516Z</time>
      </trkpt>
      <trkpt lat="39.975535" lon="-0.344455">
        <ele>506.0</ele>
        <time>2017-05-27T10:59:36.500Z</time>
      </trkpt>
      <trkpt lat="39.975535" lon="-0.344455">
        <ele>506.0</ele>
        <time>2017-05-27T10:59:37.516Z</time>
      </trkpt>
      <trkpt lat="39.97558333" lon="-0.34444833">
        <ele>506.0</ele>
        <time>2017-05-27T10:59:38.503Z</time>
      </trkpt>
      <trkpt lat="39.97558333" lon="-0.34444833">
        <ele>506.0</ele>
        <time>2017-05-27T10:59:39.529Z</time>
      </trkpt>
      <trkpt lat="39.97563" lon="-0.34444333">
        <ele>506.0</ele>
        <time>2017-05-27T10:59:40.512Z</time>
      </trkpt>
      <trkpt lat="39.97565333" lon="-0.34444">
        <ele>505.0</ele>
        <time>2017-05-27T10:59:41.514Z</time>
      </trkpt>
      <trkpt lat="39.97565333" lon="-0.34444">
        <ele>505.0</ele>
        <time>2017-05-27T10:59:42.520Z</time>
      </trkpt>
      <trkpt lat="39.975695" lon="-0.34443167">
        <ele>506.0</ele>
        <time>2017-05-27T10:59:43.511Z</time>
      </trkpt>
      <trkpt lat="39.975695" lon="-0.34443167">
        <ele>506.0</ele>
        <time>2017-05-27T10:59:44.528Z</time>
      </trkpt>
      <trkpt lat="39.97574" lon="-0.344425">
        <ele>506.0</ele>
        <time>2017-05-27T10:59:45.531Z</time>
      </trkpt>
      <trkpt lat="39.97574" lon="-0.344425">
        <ele>506.0</ele>
        <time>2017-05-27T10:59:46.523Z</time>
      </trkpt>
      <trkpt lat="39.975785" lon="-0.34441833">
        <ele>506.0</ele>
        <time>2017-05-27T10:59:47.504Z</time>
      </trkpt>
      <trkpt lat="39.975785" lon="-0.34441833">
        <ele>506.0</ele>
        <time>2017-05-27T10:59:48.529Z</time>
      </trkpt>
      <trkpt lat="39.97583" lon="-0.34441167">
        <ele>507.0</ele>
        <time>2017-05-27T10:59:49.517Z</time>
      </trkpt>
      <trkpt lat="39.97583" lon="-0.34441167">
        <ele>507.0</ele>
        <time>2017-05-27T10:59:50.497Z</time>
      </trkpt>
      <trkpt lat="39.97587667" lon="-0.34440833">
        <ele>507.0</ele>
        <time>2017-05-27T10:59:51.532Z</time>
      </trkpt>
      <trkpt lat="39.97587667" lon="-0.34440833">
        <ele>507.0</ele>
        <time>2017-05-27T10:59:52.504Z</time>
      </trkpt>
      <trkpt lat="39.97592" lon="-0.34440167">
        <ele>507.0</ele>
        <time>2017-05-27T10:59:53.524Z</time>
      </trkpt>
      <trkpt lat="39.97592" lon="-0.34440167">
        <ele>507.0</ele>
        <time>2017-05-27T10:59:54.516Z</time>
      </trkpt>
      <trkpt lat="39.97596333" lon="-0.34440167">
        <ele>508.0</ele>
        <time>2017-05-27T10:59:55.495Z</time>
      </trkpt>
      <trkpt lat="39.975985" lon="-0.34440833">
        <ele>508.0</ele>
        <time>2017-05-27T10:59:56.502Z</time>
      </trkpt>
      <trkpt lat="39.97600833" lon="-0.34441833">
        <ele>508.0</ele>
        <time>2017-05-27T10:59:57.505Z</time>
      </trkpt>
      <trkpt lat="39.97600833" lon="-0.34441833">
        <ele>508.0</ele>
        <time>2017-05-27T10:59:58.498Z</time>
      </trkpt>
      <trkpt lat="39.97605333" lon="-0.34443833">
        <ele>509.0</ele>
        <time>2017-05-27T10:59:59.532Z</time>
      </trkpt>
      <trkpt lat="39.97605333" lon="-0.34443833">
        <ele>509.0</ele>
        <time>2017-05-27T11:00:00.506Z</time>
      </trkpt>
      <trkpt lat="39.97609833" lon="-0.34446167">
        <ele>509.0</ele>
        <time>2017-05-27T11:00:01.534Z</time>
      </trkpt>
      <trkpt lat="39.97609833" lon="-0.34446167">
        <ele>509.0</ele>
        <time>2017-05-27T11:00:02.504Z</time>
      </trkpt>
      <trkpt lat="39.97614" lon="-0.34449667">
        <ele>510.0</ele>
        <time>2017-05-27T11:00:03.498Z</time>
      </trkpt>
      <trkpt lat="39.97614" lon="-0.34449667">
        <ele>510.0</ele>
        <time>2017-05-27T11:00:04.521Z</time>
      </trkpt>
      <trkpt lat="39.97618" lon="-0.34453667">
        <ele>510.0</ele>
        <time>2017-05-27T11:00:05.502Z</time>
      </trkpt>
      <trkpt lat="39.97618" lon="-0.34453667">
        <ele>510.0</ele>
        <time>2017-05-27T11:00:06.509Z</time>
      </trkpt>
      <trkpt lat="39.97621333" lon="-0.34457333">
        <ele>510.0</ele>
        <time>2017-05-27T11:00:07.498Z</time>
      </trkpt>
      <trkpt lat="39.97621333" lon="-0.34457333">
        <ele>510.0</ele>
        <time>2017-05-27T11:00:08.526Z</time>
      </trkpt>
      <trkpt lat="39.97624" lon="-0.34461167">
        <ele>510.0</ele>
        <time>2017-05-27T11:00:09.507Z</time>
      </trkpt>
      <trkpt lat="39.976255" lon="-0.34463667">
        <ele>511.0</ele>
        <time>2017-05-27T11:00:10.514Z</time>
      </trkpt>
      <trkpt lat="39.97627333" lon="-0.34466167">
        <ele>511.0</ele>
        <time>2017-05-27T11:00:11.492Z</time>
      </trkpt>
      <trkpt lat="39.97627333" lon="-0.34466167">
        <ele>511.0</ele>
        <time>2017-05-27T11:00:12.499Z</time>
      </trkpt>
      <trkpt lat="39.97630833" lon="-0.34471833">
        <ele>511.0</ele>
        <time>2017-05-27T11:00:13.522Z</time>
      </trkpt>
      <trkpt lat="39.97630833" lon="-0.34471833">
        <ele>511.0</ele>
        <time>2017-05-27T11:00:14.493Z</time>
      </trkpt>
      <trkpt lat="39.97634833" lon="-0.34478333">
        <ele>511.0</ele>
        <time>2017-05-27T11:00:15.514Z</time>
      </trkpt>
      <trkpt lat="39.97636833" lon="-0.34481333">
        <ele>511.0</ele>
        <time>2017-05-27T11:00:16.491Z</time>
      </trkpt>
      <trkpt lat="39.97636833" lon="-0.34481333">
        <ele>511.0</ele>
        <time>2017-05-27T11:00:17.521Z</time>
      </trkpt>
      <trkpt lat="39.97640167" lon="-0.344875">
        <ele>511.0</ele>
        <time>2017-05-27T11:00:18.497Z</time>
      </trkpt>
      <trkpt lat="39.97640167" lon="-0.344875">
        <ele>511.0</ele>
        <time>2017-05-27T11:00:19.509Z</time>
      </trkpt>
      <trkpt lat="39.97643833" lon="-0.34494167">
        <ele>511.0</ele>
        <time>2017-05-27T11:00:20.491Z</time>
      </trkpt>
      <trkpt lat="39.97643833" lon="-0.34494167">
        <ele>511.0</ele>
        <time>2017-05-27T11:00:21.526Z</time>
      </trkpt>
      <trkpt lat="39.97647167" lon="-0.345015">
        <ele>511.0</ele>
        <time>2017-05-27T11:00:22.509Z</time>
      </trkpt>
      <trkpt lat="39.97647167" lon="-0.345015">
        <ele>511.0</ele>
        <time>2017-05-27T11:00:23.526Z</time>
      </trkpt>
      <trkpt lat="39.97650833" lon="-0.34509">
        <ele>511.0</ele>
        <time>2017-05-27T11:00:24.509Z</time>
      </trkpt>
      <trkpt lat="39.97650833" lon="-0.34509">
        <ele>511.0</ele>
        <time>2017-05-27T11:00:25.520Z</time>
      </trkpt>
      <trkpt lat="39.97654167" lon="-0.34517">
        <ele>511.0</ele>
        <time>2017-05-27T11:00:26.501Z</time>
      </trkpt>
      <trkpt lat="39.97654167" lon="-0.34517">
        <ele>511.0</ele>
        <time>2017-05-27T11:00:27.492Z</time>
      </trkpt>
      <trkpt lat="39.976575" lon="-0.34525">
        <ele>511.0</ele>
        <time>2017-05-27T11:00:28.507Z</time>
      </trkpt>
      <trkpt lat="39.976575" lon="-0.34525">
        <ele>511.0</ele>
        <time>2017-05-27T11:00:29.508Z</time>
      </trkpt>
      <trkpt lat="39.97660667" lon="-0.34533">
        <ele>512.0</ele>
        <time>2017-05-27T11:00:30.495Z</time>
      </trkpt>
      <trkpt lat="39.97660667" lon="-0.34533">
        <ele>512.0</ele>
        <time>2017-05-27T11:00:31.510Z</time>
      </trkpt>
      <trkpt lat="39.97663833" lon="-0.34540667">
        <ele>512.0</ele>
        <time>2017-05-27T11:00:32.532Z</time>
      </trkpt>
      <trkpt lat="39.97663833" lon="-0.34540667">
        <ele>512.0</ele>
        <time>2017-05-27T11:00:33.521Z</time>
      </trkpt>
      <trkpt lat="39.976665" lon="-0.34547833">
        <ele>512.0</ele>
        <time>2017-05-27T11:00:34.517Z</time>
      </trkpt>
      <trkpt lat="39.976665" lon="-0.34547833">
        <ele>512.0</ele>
        <time>2017-05-27T11:00:35.495Z</time>
      </trkpt>
      <trkpt lat="39.9767" lon="-0.34554333">
        <ele>512.0</ele>
        <time>2017-05-27T11:00:36.497Z</time>
      </trkpt>
      <trkpt lat="39.9767" lon="-0.34554333">
        <ele>512.0</ele>
        <time>2017-05-27T11:00:37.528Z</time>
      </trkpt>
      <trkpt lat="39.97673667" lon="-0.34561167">
        <ele>513.0</ele>
        <time>2017-05-27T11:00:38.513Z</time>
      </trkpt>
      <trkpt lat="39.97673667" lon="-0.34561167">
        <ele>513.0</ele>
        <time>2017-05-27T11:00:39.502Z</time>
      </trkpt>
      <trkpt lat="39.97677167" lon="-0.34569">
        <ele>512.0</ele>
        <time>2017-05-27T11:00:40.524Z</time>
      </trkpt>
      <trkpt lat="39.97679167" lon="-0.34573167">
        <ele>512.0</ele>
        <time>2017-05-27T11:00:41.502Z</time>
      </trkpt>
      <trkpt lat="39.97679167" lon="-0.34573167">
        <ele>512.0</ele>
        <time>2017-05-27T11:00:42.526Z</time>
      </trkpt>
      <trkpt lat="39.976835" lon="-0.34582333">
        <ele>512.0</ele>
        <time>2017-05-27T11:00:43.523Z</time>
      </trkpt>
      <trkpt lat="39.976855" lon="-0.34587333">
        <ele>512.0</ele>
        <time>2017-05-27T11:00:44.506Z</time>
      </trkpt>
      <trkpt lat="39.976855" lon="-0.34587333">
        <ele>512.0</ele>
        <time>2017-05-27T11:00:45.497Z</time>
      </trkpt>
      <trkpt lat="39.9769" lon="-0.345985">
        <ele>512.0</ele>
        <time>2017-05-27T11:00:46.526Z</time>
      </trkpt>
      <trkpt lat="39.9769" lon="-0.345985">
        <ele>512.0</ele>
        <time>2017-05-27T11:00:47.502Z</time>
      </trkpt>
      <trkpt lat="39.97695167" lon="-0.346105">
        <ele>511.0</ele>
        <time>2017-05-27T11:00:48.493Z</time>
      </trkpt>
      <trkpt lat="39.97698167" lon="-0.34616833">
        <ele>511.0</ele>
        <time>2017-05-27T11:00:49.520Z</time>
      </trkpt>
      <trkpt lat="39.97698167" lon="-0.34616833">
        <ele>511.0</ele>
        <time>2017-05-27T11:00:50.502Z</time>
      </trkpt>
      <trkpt lat="39.97703833" lon="-0.34630167">
        <ele>510.0</ele>
        <time>2017-05-27T11:00:51.524Z</time>
      </trkpt>
      <trkpt lat="39.97703833" lon="-0.34630167">
        <ele>510.0</ele>
        <time>2017-05-27T11:00:52.520Z</time>
      </trkpt>
      <trkpt lat="39.97709333" lon="-0.34643667">
        <ele>510.0</ele>
        <time>2017-05-27T11:00:53.516Z</time>
      </trkpt>
      <trkpt lat="39.97709333" lon="-0.34643667">
        <ele>510.0</ele>
        <time>2017-05-27T11:00:54.510Z</time>
      </trkpt>
      <trkpt lat="39.97715667" lon="-0.34657667">
        <ele>509.0</ele>
        <time>2017-05-27T11:00:55.497Z</time>
      </trkpt>
      <trkpt lat="39.97715667" lon="-0.34657667">
        <ele>509.0</ele>
        <time>2017-05-27T11:00:56.514Z</time>
      </trkpt>
      <trkpt lat="39.97723167" lon="-0.34672">
        <ele>508.0</ele>
        <time>2017-05-27T11:00:57.497Z</time>
      </trkpt>
      <trkpt lat="39.97723167" lon="-0.34672">
        <ele>508.0</ele>
        <time>2017-05-27T11:00:58.526Z</time>
      </trkpt>
      <trkpt lat="39.97731833" lon="-0.346865">
        <ele>508.0</ele>
        <time>2017-05-27T11:00:59.512Z</time>
      </trkpt>
      <trkpt lat="39.97736667" lon="-0.34693833">
        <ele>507.0</ele>
        <time>2017-05-27T11:01:00.509Z</time>
      </trkpt>
      <trkpt lat="39.97736667" lon="-0.34693833">
        <ele>507.0</ele>
        <time>2017-05-27T11:01:01.497Z</time>
      </trkpt>
      <trkpt lat="39.97746667" lon="-0.34708833">
        <ele>507.0</ele>
        <time>2017-05-27T11:01:02.519Z</time>
      </trkpt>
      <trkpt lat="39.977525" lon="-0.34715833">
        <ele>506.0</ele>
        <time>2017-05-27T11:01:03.519Z</time>
      </trkpt>
      <trkpt lat="39.977525" lon="-0.34715833">
        <ele>506.0</ele>
        <time>2017-05-27T11:01:04.525Z</time>
      </trkpt>
      <trkpt lat="39.97765667" lon="-0.34728167">
        <ele>505.0</ele>
        <time>2017-05-27T11:01:05.500Z</time>
      </trkpt>
      <trkpt lat="39.97765667" lon="-0.34728167">
        <ele>505.0</ele>
        <time>2017-05-27T11:01:06.528Z</time>
      </trkpt>
      <trkpt lat="39.9778" lon="-0.34739333">
        <ele>504.0</ele>
        <time>2017-05-27T11:01:07.511Z</time>
      </trkpt>
      <trkpt lat="39.97787333" lon="-0.347445">
        <ele>504.0</ele>
        <time>2017-05-27T11:01:08.493Z</time>
      </trkpt>
      <trkpt lat="39.97787333" lon="-0.347445">
        <ele>504.0</ele>
        <time>2017-05-27T11:01:09.491Z</time>
      </trkpt>
      <trkpt lat="39.97803" lon="-0.34755167">
        <ele>502.0</ele>
        <time>2017-05-27T11:01:10.525Z</time>
      </trkpt>
      <trkpt lat="39.97803" lon="-0.34755167">
        <ele>502.0</ele>
        <time>2017-05-27T11:01:11.524Z</time>
      </trkpt>
      <trkpt lat="39.97819167" lon="-0.347665">
        <ele>501.0</ele>
        <time>2017-05-27T11:01:12.505Z</time>
      </trkpt>
      <trkpt lat="39.97819167" lon="-0.347665">
        <ele>501.0</ele>
        <time>2017-05-27T11:01:13.492Z</time>
      </trkpt>
      <trkpt lat="39.97837167" lon="-0.34778833">
        <ele>500.0</ele>
        <time>2017-05-27T11:01:14.529Z</time>
      </trkpt>
      <trkpt lat="39.978465" lon="-0.34785167">
        <ele>500.0</ele>
        <time>2017-05-27T11:01:15.512Z</time>
      </trkpt>
      <trkpt lat="39.978465" lon="-0.34785167">
        <ele>500.0</ele>
        <time>2017-05-27T11:01:16.527Z</time>
      </trkpt>
      <trkpt lat="39.97865" lon="-0.34799167">
        <ele>498.0</ele>
        <time>2017-05-27T11:01:17.502Z</time>
      </trkpt>
      <trkpt lat="39.97874" lon="-0.348065">
        <ele>498.0</ele>
        <time>2017-05-27T11:01:18.502Z</time>
      </trkpt>
      <trkpt lat="39.97874" lon="-0.348065">
        <ele>498.0</ele>
        <time>2017-05-27T11:01:19.526Z</time>
      </trkpt>
      <trkpt lat="39.97891167" lon="-0.34822333">
        <ele>497.0</ele>
        <time>2017-05-27T11:01:20.507Z</time>
      </trkpt>
      <trkpt lat="39.97899333" lon="-0.34831">
        <ele>496.0</ele>
        <time>2017-05-27T11:01:21.514Z</time>
      </trkpt>
      <trkpt lat="39.97899333" lon="-0.34831">
        <ele>496.0</ele>
        <time>2017-05-27T11:01:22.512Z</time>
      </trkpt>
      <trkpt lat="39.97915833" lon="-0.34849">
        <ele>495.0</ele>
        <time>2017-05-27T11:01:23.511Z</time>
      </trkpt>
      <trkpt lat="39.97924333" lon="-0.348575">
        <ele>494.0</ele>
        <time>2017-05-27T11:01:24.528Z</time>
      </trkpt>
      <trkpt lat="39.97924333" lon="-0.348575">
        <ele>494.0</ele>
        <time>2017-05-27T11:01:25.510Z</time>
      </trkpt>
      <trkpt lat="39.97942167" lon="-0.34873333">
        <ele>493.0</ele>
        <time>2017-05-27T11:01:26.532Z</time>
      </trkpt>
      <trkpt lat="39.97950833" lon="-0.34881">
        <ele>492.0</ele>
        <time>2017-05-27T11:01:27.527Z</time>
      </trkpt>
      <trkpt lat="39.97950833" lon="-0.34881">
        <ele>492.0</ele>
        <time>2017-05-27T11:01:28.526Z</time>
      </trkpt>
      <trkpt lat="39.97966667" lon="-0.34897833">
        <ele>491.0</ele>
        <time>2017-05-27T11:01:29.504Z</time>
      </trkpt>
      <trkpt lat="39.97973333" lon="-0.34908167">
        <ele>490.0</ele>
        <time>2017-05-27T11:01:30.505Z</time>
      </trkpt>
      <trkpt lat="39.97973333" lon="-0.34908167">
        <ele>490.0</ele>
        <time>2017-05-27T11:01:31.500Z</time>
      </trkpt>
      <trkpt lat="39.97985833" lon="-0.34930833">
        <ele>489.0</ele>
        <time>2017-05-27T11:01:32.530Z</time>
      </trkpt>
      <trkpt lat="39.97985833" lon="-0.34930833">
        <ele>489.0</ele>
        <time>2017-05-27T11:01:33.518Z</time>
      </trkpt>
      <trkpt lat="39.97997167" lon="-0.34955667">
        <ele>487.0</ele>
        <time>2017-05-27T11:01:34.500Z</time>
      </trkpt>
      <trkpt lat="39.97997167" lon="-0.34955667">
        <ele>487.0</ele>
        <time>2017-05-27T11:01:35.526Z</time>
      </trkpt>
      <trkpt lat="39.980085" lon="-0.34981">
        <ele>486.0</ele>
        <time>2017-05-27T11:01:36.517Z</time>
      </trkpt>
      <trkpt lat="39.980085" lon="-0.34981">
        <ele>486.0</ele>
        <time>2017-05-27T11:01:37.492Z</time>
      </trkpt>
      <trkpt lat="39.98023167" lon="-0.35002667">
        <ele>486.0</ele>
        <time>2017-05-27T11:01:38.519Z</time>
      </trkpt>
      <trkpt lat="39.980325" lon="-0.35009333">
        <ele>485.0</ele>
        <time>2017-05-27T11:01:39.531Z</time>
      </trkpt>
      <trkpt lat="39.980325" lon="-0.35009333">
        <ele>485.0</ele>
        <time>2017-05-27T11:01:40.499Z</time>
      </trkpt>
      <trkpt lat="39.98052167" lon="-0.35015667">
        <ele>485.0</ele>
        <time>2017-05-27T11:01:41.524Z</time>
      </trkpt>
      <trkpt lat="39.98061833" lon="-0.35017667">
        <ele>484.0</ele>
        <time>2017-05-27T11:01:42.504Z</time>
      </trkpt>
      <trkpt lat="39.98061833" lon="-0.35017667">
        <ele>484.0</ele>
        <time>2017-05-27T11:01:43.527Z</time>
      </trkpt>
      <trkpt lat="39.98081333" lon="-0.350215">
        <ele>484.0</ele>
        <time>2017-05-27T11:01:44.512Z</time>
      </trkpt>
      <trkpt lat="39.98090833" lon="-0.35022667">
        <ele>483.0</ele>
        <time>2017-05-27T11:01:45.497Z</time>
      </trkpt>
      <trkpt lat="39.98090833" lon="-0.35022667">
        <ele>483.0</ele>
        <time>2017-05-27T11:01:46.514Z</time>
      </trkpt>
      <trkpt lat="39.981105" lon="-0.350255">
        <ele>483.0</ele>
        <time>2017-05-27T11:01:47.497Z</time>
      </trkpt>
      <trkpt lat="39.98120333" lon="-0.350275">
        <ele>482.0</ele>
        <time>2017-05-27T11:01:48.497Z</time>
      </trkpt>
      <trkpt lat="39.98120333" lon="-0.350275">
        <ele>482.0</ele>
        <time>2017-05-27T11:01:49.530Z</time>
      </trkpt>
      <trkpt lat="39.9814" lon="-0.35033667">
        <ele>481.0</ele>
        <time>2017-05-27T11:01:50.515Z</time>
      </trkpt>
      <trkpt lat="39.9814" lon="-0.35033667">
        <ele>481.0</ele>
        <time>2017-05-27T11:01:51.504Z</time>
      </trkpt>
      <trkpt lat="39.9816" lon="-0.35041333">
        <ele>480.0</ele>
        <time>2017-05-27T11:01:52.524Z</time>
      </trkpt>
      <trkpt lat="39.9816" lon="-0.35041333">
        <ele>480.0</ele>
        <time>2017-05-27T11:01:53.502Z</time>
      </trkpt>
      <trkpt lat="39.98179833" lon="-0.35049167">
        <ele>479.0</ele>
        <time>2017-05-27T11:01:54.529Z</time>
      </trkpt>
      <trkpt lat="39.98179833" lon="-0.35049167">
        <ele>479.0</ele>
        <time>2017-05-27T11:01:55.497Z</time>
      </trkpt>
      <trkpt lat="39.98198833" lon="-0.35060667">
        <ele>477.0</ele>
        <time>2017-05-27T11:01:56.517Z</time>
      </trkpt>
      <trkpt lat="39.98207667" lon="-0.35068333">
        <ele>477.0</ele>
        <time>2017-05-27T11:01:57.527Z</time>
      </trkpt>
      <trkpt lat="39.98207667" lon="-0.35068333">
        <ele>477.0</ele>
        <time>2017-05-27T11:01:58.493Z</time>
      </trkpt>
      <trkpt lat="39.98225833" lon="-0.35079833">
        <ele>476.0</ele>
        <time>2017-05-27T11:01:59.517Z</time>
      </trkpt>
      <trkpt lat="39.98225833" lon="-0.35079833">
        <ele>476.0</ele>
        <time>2017-05-27T11:02:00.515Z</time>
      </trkpt>
      <trkpt lat="39.982425" lon="-0.35081333">
        <ele>475.0</ele>
        <time>2017-05-27T11:02:01.534Z</time>
      </trkpt>
      <trkpt lat="39.982425" lon="-0.35081333">
        <ele>475.0</ele>
        <time>2017-05-27T11:02:02.504Z</time>
      </trkpt>
      <trkpt lat="39.98257333" lon="-0.35075333">
        <ele>474.0</ele>
        <time>2017-05-27T11:02:03.526Z</time>
      </trkpt>
      <trkpt lat="39.98257333" lon="-0.35075333">
        <ele>474.0</ele>
        <time>2017-05-27T11:02:04.514Z</time>
      </trkpt>
      <trkpt lat="39.98270667" lon="-0.35063333">
        <ele>473.0</ele>
        <time>2017-05-27T11:02:05.501Z</time>
      </trkpt>
      <trkpt lat="39.98270667" lon="-0.35063333">
        <ele>473.0</ele>
        <time>2017-05-27T11:02:06.523Z</time>
      </trkpt>
      <trkpt lat="39.98284833" lon="-0.350535">
        <ele>473.0</ele>
        <time>2017-05-27T11:02:07.507Z</time>
      </trkpt>
      <trkpt lat="39.98284833" lon="-0.350535">
        <ele>473.0</ele>
        <time>2017-05-27T11:02:08.529Z</time>
      </trkpt>
      <trkpt lat="39.98301" lon="-0.35055333">
        <ele>472.0</ele>
        <time>2017-05-27T11:02:09.514Z</time>
      </trkpt>
      <trkpt lat="39.98301" lon="-0.35055333">
        <ele>472.0</ele>
        <time>2017-05-27T11:02:10.510Z</time>
      </trkpt>
      <trkpt lat="39.98316" lon="-0.35067667">
        <ele>471.0</ele>
        <time>2017-05-27T11:02:11.496Z</time>
      </trkpt>
      <trkpt lat="39.98316" lon="-0.35067667">
        <ele>471.0</ele>
        <time>2017-05-27T11:02:12.502Z</time>
      </trkpt>
      <trkpt lat="39.98331167" lon="-0.35081333">
        <ele>470.0</ele>
        <time>2017-05-27T11:02:13.530Z</time>
      </trkpt>
      <trkpt lat="39.98331167" lon="-0.35081333">
        <ele>470.0</ele>
        <time>2017-05-27T11:02:14.497Z</time>
      </trkpt>
      <trkpt lat="39.98347" lon="-0.35096167">
        <ele>469.0</ele>
        <time>2017-05-27T11:02:15.514Z</time>
      </trkpt>
      <trkpt lat="39.98347" lon="-0.35096167">
        <ele>469.0</ele>
        <time>2017-05-27T11:02:16.491Z</time>
      </trkpt>
      <trkpt lat="39.98359833" lon="-0.35115833">
        <ele>468.0</ele>
        <time>2017-05-27T11:02:17.512Z</time>
      </trkpt>
      <trkpt lat="39.98364667" lon="-0.35128">
        <ele>467.0</ele>
        <time>2017-05-27T11:02:18.510Z</time>
      </trkpt>
      <trkpt lat="39.98364667" lon="-0.35128">
        <ele>467.0</ele>
        <time>2017-05-27T11:02:19.500Z</time>
      </trkpt>
      <trkpt lat="39.98378333" lon="-0.35151">
        <ele>467.0</ele>
        <time>2017-05-27T11:02:20.528Z</time>
      </trkpt>
      <trkpt lat="39.98386" lon="-0.35161167">
        <ele>466.0</ele>
        <time>2017-05-27T11:02:21.520Z</time>
      </trkpt>
      <trkpt lat="39.98386" lon="-0.35161167">
        <ele>466.0</ele>
        <time>2017-05-27T11:02:22.499Z</time>
      </trkpt>
      <trkpt lat="39.98403167" lon="-0.35178167">
        <ele>465.0</ele>
        <time>2017-05-27T11:02:23.527Z</time>
      </trkpt>
      <trkpt lat="39.98412" lon="-0.35185833">
        <ele>464.0</ele>
        <time>2017-05-27T11:02:24.527Z</time>
      </trkpt>
      <trkpt lat="39.98412" lon="-0.35185833">
        <ele>464.0</ele>
        <time>2017-05-27T11:02:25.524Z</time>
      </trkpt>
      <trkpt lat="39.98428833" lon="-0.35203667">
        <ele>463.0</ele>
        <time>2017-05-27T11:02:26.492Z</time>
      </trkpt>
      <trkpt lat="39.984365" lon="-0.35214">
        <ele>463.0</ele>
        <time>2017-05-27T11:02:27.509Z</time>
      </trkpt>
      <trkpt lat="39.984365" lon="-0.35214">
        <ele>463.0</ele>
        <time>2017-05-27T11:02:28.494Z</time>
      </trkpt>
      <trkpt lat="39.98451833" lon="-0.35233833">
        <ele>461.0</ele>
        <time>2017-05-27T11:02:29.492Z</time>
      </trkpt>
      <trkpt lat="39.98451833" lon="-0.35233833">
        <ele>461.0</ele>
        <time>2017-05-27T11:02:30.509Z</time>
      </trkpt>
      <trkpt lat="39.98466" lon="-0.35254167">
        <ele>460.0</ele>
        <time>2017-05-27T11:02:31.525Z</time>
      </trkpt>
      <trkpt lat="39.98471667" lon="-0.35265833">
        <ele>459.0</ele>
        <time>2017-05-27T11:02:32.531Z</time>
      </trkpt>
      <trkpt lat="39.98476333" lon="-0.35278833">
        <ele>459.0</ele>
        <time>2017-05-27T11:02:33.502Z</time>
      </trkpt>
      <trkpt lat="39.98476333" lon="-0.35278833">
        <ele>459.0</ele>
        <time>2017-05-27T11:02:34.498Z</time>
      </trkpt>
      <trkpt lat="39.98482" lon="-0.35307167">
        <ele>457.0</ele>
        <time>2017-05-27T11:02:35.531Z</time>
      </trkpt>
      <trkpt lat="39.98485" lon="-0.35321333">
        <ele>457.0</ele>
        <time>2017-05-27T11:02:36.519Z</time>
      </trkpt>
      <trkpt lat="39.98485" lon="-0.35321333">
        <ele>457.0</ele>
        <time>2017-05-27T11:02:37.500Z</time>
      </trkpt>
      <trkpt lat="39.98494667" lon="-0.353475">
        <ele>455.0</ele>
        <time>2017-05-27T11:02:38.530Z</time>
      </trkpt>
      <trkpt lat="39.98501333" lon="-0.35359667">
        <ele>455.0</ele>
        <time>2017-05-27T11:02:39.504Z</time>
      </trkpt>
      <trkpt lat="39.98501333" lon="-0.35359667">
        <ele>455.0</ele>
        <time>2017-05-27T11:02:40.500Z</time>
      </trkpt>
      <trkpt lat="39.98517" lon="-0.35379833">
        <ele>453.0</ele>
        <time>2017-05-27T11:02:41.506Z</time>
      </trkpt>
      <trkpt lat="39.98525167" lon="-0.35389333">
        <ele>453.0</ele>
        <time>2017-05-27T11:02:42.517Z</time>
      </trkpt>
      <trkpt lat="39.98525167" lon="-0.35389333">
        <ele>453.0</ele>
        <time>2017-05-27T11:02:43.530Z</time>
      </trkpt>
      <trkpt lat="39.985425" lon="-0.35408">
        <ele>451.0</ele>
        <time>2017-05-27T11:02:44.517Z</time>
      </trkpt>
      <trkpt lat="39.985425" lon="-0.35408">
        <ele>451.0</ele>
        <time>2017-05-27T11:02:45.497Z</time>
      </trkpt>
      <trkpt lat="39.98562333" lon="-0.35423333">
        <ele>450.0</ele>
        <time>2017-05-27T11:02:46.516Z</time>
      </trkpt>
      <trkpt lat="39.98562333" lon="-0.35423333">
        <ele>450.0</ele>
        <time>2017-05-27T11:02:47.504Z</time>
      </trkpt>
      <trkpt lat="39.98580833" lon="-0.35437833">
        <ele>448.0</ele>
        <time>2017-05-27T11:02:48.523Z</time>
      </trkpt>
      <trkpt lat="39.98580833" lon="-0.35437833">
        <ele>448.0</ele>
        <time>2017-05-27T11:02:49.496Z</time>
      </trkpt>
      <trkpt lat="39.98599167" lon="-0.35447833">
        <ele>447.0</ele>
        <time>2017-05-27T11:02:50.494Z</time>
      </trkpt>
      <trkpt lat="39.98608" lon="-0.354505">
        <ele>446.0</ele>
        <time>2017-05-27T11:02:51.509Z</time>
      </trkpt>
      <trkpt lat="39.98608" lon="-0.354505">
        <ele>446.0</ele>
        <time>2017-05-27T11:02:52.508Z</time>
      </trkpt>
      <trkpt lat="39.98626167" lon="-0.35454333">
        <ele>445.0</ele>
        <time>2017-05-27T11:02:53.492Z</time>
      </trkpt>
      <trkpt lat="39.98626167" lon="-0.35454333">
        <ele>445.0</ele>
        <time>2017-05-27T11:02:54.524Z</time>
      </trkpt>
      <trkpt lat="39.98643167" lon="-0.35459333">
        <ele>444.0</ele>
        <time>2017-05-27T11:02:55.507Z</time>
      </trkpt>
      <trkpt lat="39.98652833" lon="-0.35462833">
        <ele>444.0</ele>
        <time>2017-05-27T11:02:56.509Z</time>
      </trkpt>
      <trkpt lat="39.98652833" lon="-0.35462833">
        <ele>444.0</ele>
        <time>2017-05-27T11:02:57.508Z</time>
      </trkpt>
      <trkpt lat="39.986715" lon="-0.35473333">
        <ele>444.0</ele>
        <time>2017-05-27T11:02:58.526Z</time>
      </trkpt>
      <trkpt lat="39.986715" lon="-0.35473333">
        <ele>444.0</ele>
        <time>2017-05-27T11:02:59.493Z</time>
      </trkpt>
      <trkpt lat="39.98687667" lon="-0.35490667">
        <ele>443.0</ele>
        <time>2017-05-27T11:03:00.527Z</time>
      </trkpt>
      <trkpt lat="39.98695" lon="-0.355005">
        <ele>442.0</ele>
        <time>2017-05-27T11:03:01.511Z</time>
      </trkpt>
      <trkpt lat="39.98695" lon="-0.355005">
        <ele>442.0</ele>
        <time>2017-05-27T11:03:02.496Z</time>
      </trkpt>
      <trkpt lat="39.98708" lon="-0.35520667">
        <ele>441.0</ele>
        <time>2017-05-27T11:03:03.491Z</time>
      </trkpt>
      <trkpt lat="39.98708" lon="-0.35520667">
        <ele>441.0</ele>
        <time>2017-05-27T11:03:04.513Z</time>
      </trkpt>
      <trkpt lat="39.98721" lon="-0.35543167">
        <ele>440.0</ele>
        <time>2017-05-27T11:03:05.510Z</time>
      </trkpt>
      <trkpt lat="39.98721" lon="-0.35543167">
        <ele>440.0</ele>
        <time>2017-05-27T11:03:06.498Z</time>
      </trkpt>
      <trkpt lat="39.987325" lon="-0.355675">
        <ele>439.0</ele>
        <time>2017-05-27T11:03:07.524Z</time>
      </trkpt>
      <trkpt lat="39.987325" lon="-0.355675">
        <ele>439.0</ele>
        <time>2017-05-27T11:03:08.512Z</time>
      </trkpt>
      <trkpt lat="39.987425" lon="-0.35594">
        <ele>438.0</ele>
        <time>2017-05-27T11:03:09.492Z</time>
      </trkpt>
      <trkpt lat="39.987425" lon="-0.35594">
        <ele>438.0</ele>
        <time>2017-05-27T11:03:10.526Z</time>
      </trkpt>
      <trkpt lat="39.98755" lon="-0.35617">
        <ele>436.0</ele>
        <time>2017-05-27T11:03:11.512Z</time>
      </trkpt>
      <trkpt lat="39.98755" lon="-0.35617">
        <ele>436.0</ele>
        <time>2017-05-27T11:03:12.529Z</time>
      </trkpt>
      <trkpt lat="39.98768" lon="-0.35634667">
        <ele>435.0</ele>
        <time>2017-05-27T11:03:13.521Z</time>
      </trkpt>
      <trkpt lat="39.98773333" lon="-0.35644">
        <ele>434.0</ele>
        <time>2017-05-27T11:03:14.531Z</time>
      </trkpt>
      <trkpt lat="39.98773333" lon="-0.35644">
        <ele>434.0</ele>
        <time>2017-05-27T11:03:15.528Z</time>
      </trkpt>
      <trkpt lat="39.98782833" lon="-0.35666333">
        <ele>433.0</ele>
        <time>2017-05-27T11:03:16.527Z</time>
      </trkpt>
      <trkpt lat="39.98782833" lon="-0.35666333">
        <ele>433.0</ele>
        <time>2017-05-27T11:03:17.516Z</time>
      </trkpt>
      <trkpt lat="39.9879" lon="-0.35691667">
        <ele>432.0</ele>
        <time>2017-05-27T11:03:18.511Z</time>
      </trkpt>
      <trkpt lat="39.9879" lon="-0.35691667">
        <ele>432.0</ele>
        <time>2017-05-27T11:03:19.497Z</time>
      </trkpt>
      <trkpt lat="39.98796667" lon="-0.35717167">
        <ele>430.0</ele>
        <time>2017-05-27T11:03:20.501Z</time>
      </trkpt>
      <trkpt lat="39.98796667" lon="-0.35717167">
        <ele>430.0</ele>
        <time>2017-05-27T11:03:21.510Z</time>
      </trkpt>
      <trkpt lat="39.988065" lon="-0.35735667">
        <ele>429.0</ele>
        <time>2017-05-27T11:03:22.494Z</time>
      </trkpt>
      <trkpt lat="39.988065" lon="-0.35735667">
        <ele>429.0</ele>
        <time>2017-05-27T11:03:23.491Z</time>
      </trkpt>
      <trkpt lat="39.98820833" lon="-0.35744833">
        <ele>428.0</ele>
        <time>2017-05-27T11:03:24.538Z</time>
      </trkpt>
      <trkpt lat="39.98820833" lon="-0.35744833">
        <ele>428.0</ele>
        <time>2017-05-27T11:03:25.505Z</time>
      </trkpt>
      <trkpt lat="39.98834" lon="-0.35755167">
        <ele>426.0</ele>
        <time>2017-05-27T11:03:26.527Z</time>
      </trkpt>
      <trkpt lat="39.988405" lon="-0.35762">
        <ele>426.0</ele>
        <time>2017-05-27T11:03:27.509Z</time>
      </trkpt>
      <trkpt lat="39.988405" lon="-0.35762">
        <ele>426.0</ele>
        <time>2017-05-27T11:03:28.510Z</time>
      </trkpt>
      <trkpt lat="39.98853" lon="-0.35778">
        <ele>425.0</ele>
        <time>2017-05-27T11:03:29.495Z</time>
      </trkpt>
      <trkpt lat="39.98858667" lon="-0.35787667">
        <ele>424.0</ele>
        <time>2017-05-27T11:03:30.527Z</time>
      </trkpt>
      <trkpt lat="39.98858667" lon="-0.35787667">
        <ele>424.0</ele>
        <time>2017-05-27T11:03:31.512Z</time>
      </trkpt>
      <trkpt lat="39.98864333" lon="-0.35810667">
        <ele>422.0</ele>
        <time>2017-05-27T11:03:32.494Z</time>
      </trkpt>
      <trkpt lat="39.98864333" lon="-0.35810667">
        <ele>422.0</ele>
        <time>2017-05-27T11:03:33.520Z</time>
      </trkpt>
      <trkpt lat="39.98868" lon="-0.358355">
        <ele>421.0</ele>
        <time>2017-05-27T11:03:34.506Z</time>
      </trkpt>
      <trkpt lat="39.98868" lon="-0.358355">
        <ele>421.0</ele>
        <time>2017-05-27T11:03:35.501Z</time>
      </trkpt>
      <trkpt lat="39.98867833" lon="-0.35861333">
        <ele>419.0</ele>
        <time>2017-05-27T11:03:36.533Z</time>
      </trkpt>
      <trkpt lat="39.98867" lon="-0.35873667">
        <ele>419.0</ele>
        <time>2017-05-27T11:03:37.509Z</time>
      </trkpt>
      <trkpt lat="39.98867" lon="-0.35873667">
        <ele>419.0</ele>
        <time>2017-05-27T11:03:38.514Z</time>
      </trkpt>
      <trkpt lat="39.988595" lon="-0.35895333">
        <ele>417.0</ele>
        <time>2017-05-27T11:03:39.514Z</time>
      </trkpt>
      <trkpt lat="39.98853333" lon="-0.359035">
        <ele>417.0</ele>
        <time>2017-05-27T11:03:40.503Z</time>
      </trkpt>
      <trkpt lat="39.98853333" lon="-0.359035">
        <ele>417.0</ele>
        <time>2017-05-27T11:03:41.491Z</time>
      </trkpt>
      <trkpt lat="39.988375" lon="-0.359145">
        <ele>416.0</ele>
        <time>2017-05-27T11:03:42.503Z</time>
      </trkpt>
      <trkpt lat="39.988375" lon="-0.359145">
        <ele>416.0</ele>
        <time>2017-05-27T11:03:43.492Z</time>
      </trkpt>
      <trkpt lat="39.98821667" lon="-0.359225">
        <ele>414.0</ele>
        <time>2017-05-27T11:03:44.513Z</time>
      </trkpt>
      <trkpt lat="39.988145" lon="-0.35927">
        <ele>414.0</ele>
        <time>2017-05-27T11:03:45.494Z</time>
      </trkpt>
      <trkpt lat="39.988145" lon="-0.35927">
        <ele>414.0</ele>
        <time>2017-05-27T11:03:46.508Z</time>
      </trkpt>
      <trkpt lat="39.98799167" lon="-0.35937667">
        <ele>413.0</ele>
        <time>2017-05-27T11:03:47.530Z</time>
      </trkpt>
      <trkpt lat="39.98791667" lon="-0.35943167">
        <ele>412.0</ele>
        <time>2017-05-27T11:03:48.499Z</time>
      </trkpt>
      <trkpt lat="39.98791667" lon="-0.35943167">
        <ele>412.0</ele>
        <time>2017-05-27T11:03:49.496Z</time>
      </trkpt>
      <trkpt lat="39.98776333" lon="-0.35955">
        <ele>411.0</ele>
        <time>2017-05-27T11:03:50.526Z</time>
      </trkpt>
      <trkpt lat="39.98769667" lon="-0.35961333">
        <ele>410.0</ele>
        <time>2017-05-27T11:03:51.503Z</time>
      </trkpt>
      <trkpt lat="39.98769667" lon="-0.35961333">
        <ele>410.0</ele>
        <time>2017-05-27T11:03:52.498Z</time>
      </trkpt>
      <trkpt lat="39.98760667" lon="-0.35977833">
        <ele>409.0</ele>
        <time>2017-05-27T11:03:53.528Z</time>
      </trkpt>
      <trkpt lat="39.98760333" lon="-0.35987667">
        <ele>408.0</ele>
        <time>2017-05-27T11:03:54.508Z</time>
      </trkpt>
      <trkpt lat="39.98760333" lon="-0.35987667">
        <ele>408.0</ele>
        <time>2017-05-27T11:03:55.493Z</time>
      </trkpt>
      <trkpt lat="39.98770833" lon="-0.35999333">
        <ele>407.0</ele>
        <time>2017-05-27T11:03:56.515Z</time>
      </trkpt>
      <trkpt lat="39.98770833" lon="-0.35999333">
        <ele>407.0</ele>
        <time>2017-05-27T11:03:57.530Z</time>
      </trkpt>
      <trkpt lat="39.98783333" lon="-0.35999167">
        <ele>406.0</ele>
        <time>2017-05-27T11:03:58.527Z</time>
      </trkpt>
      <trkpt lat="39.98783333" lon="-0.35999167">
        <ele>406.0</ele>
        <time>2017-05-27T11:03:59.516Z</time>
      </trkpt>
      <trkpt lat="39.98796" lon="-0.35991">
        <ele>404.0</ele>
        <time>2017-05-27T11:04:00.518Z</time>
      </trkpt>
      <trkpt lat="39.98796" lon="-0.35991">
        <ele>404.0</ele>
        <time>2017-05-27T11:04:01.515Z</time>
      </trkpt>
      <trkpt lat="39.98808667" lon="-0.35982833">
        <ele>403.0</ele>
        <time>2017-05-27T11:04:02.516Z</time>
      </trkpt>
      <trkpt lat="39.988155" lon="-0.35979667">
        <ele>402.0</ele>
        <time>2017-05-27T11:04:03.502Z</time>
      </trkpt>
      <trkpt lat="39.988155" lon="-0.35979667">
        <ele>402.0</ele>
        <time>2017-05-27T11:04:04.502Z</time>
      </trkpt>
      <trkpt lat="39.98830667" lon="-0.35976167">
        <ele>401.0</ele>
        <time>2017-05-27T11:04:05.527Z</time>
      </trkpt>
      <trkpt lat="39.98839" lon="-0.35975">
        <ele>400.0</ele>
        <time>2017-05-27T11:04:06.510Z</time>
      </trkpt>
      <trkpt lat="39.98839" lon="-0.35975">
        <ele>400.0</ele>
        <time>2017-05-27T11:04:07.520Z</time>
      </trkpt>
      <trkpt lat="39.98856" lon="-0.35973333">
        <ele>399.0</ele>
        <time>2017-05-27T11:04:08.505Z</time>
      </trkpt>
      <trkpt lat="39.98856" lon="-0.35973333">
        <ele>399.0</ele>
        <time>2017-05-27T11:04:09.527Z</time>
      </trkpt>
      <trkpt lat="39.98874167" lon="-0.35975">
        <ele>398.0</ele>
        <time>2017-05-27T11:04:10.503Z</time>
      </trkpt>
      <trkpt lat="39.98874167" lon="-0.35975">
        <ele>398.0</ele>
        <time>2017-05-27T11:04:11.506Z</time>
      </trkpt>
      <trkpt lat="39.98894" lon="-0.3598">
        <ele>398.0</ele>
        <time>2017-05-27T11:04:12.497Z</time>
      </trkpt>
      <trkpt lat="39.98903667" lon="-0.35982667">
        <ele>398.0</ele>
        <time>2017-05-27T11:04:13.527Z</time>
      </trkpt>
      <trkpt lat="39.98903667" lon="-0.35982667">
        <ele>398.0</ele>
        <time>2017-05-27T11:04:14.520Z</time>
      </trkpt>
      <trkpt lat="39.98922" lon="-0.35991667">
        <ele>400.0</ele>
        <time>2017-05-27T11:04:15.501Z</time>
      </trkpt>
      <trkpt lat="39.98922" lon="-0.35991667">
        <ele>400.0</ele>
        <time>2017-05-27T11:04:16.525Z</time>
      </trkpt>
      <trkpt lat="39.9894" lon="-0.36004167">
        <ele>401.0</ele>
        <time>2017-05-27T11:04:17.531Z</time>
      </trkpt>
      <trkpt lat="39.98948667" lon="-0.36011667">
        <ele>402.0</ele>
        <time>2017-05-27T11:04:18.497Z</time>
      </trkpt>
      <trkpt lat="39.98948667" lon="-0.36011667">
        <ele>402.0</ele>
        <time>2017-05-27T11:04:19.516Z</time>
      </trkpt>
      <trkpt lat="39.98965" lon="-0.36029667">
        <ele>402.0</ele>
        <time>2017-05-27T11:04:20.496Z</time>
      </trkpt>
      <trkpt lat="39.98972333" lon="-0.3604">
        <ele>401.0</ele>
        <time>2017-05-27T11:04:21.496Z</time>
      </trkpt>
      <trkpt lat="39.98972333" lon="-0.3604">
        <ele>401.0</ele>
        <time>2017-05-27T11:04:22.528Z</time>
      </trkpt>
      <trkpt lat="39.98984" lon="-0.36065167">
        <ele>400.0</ele>
        <time>2017-05-27T11:04:23.513Z</time>
      </trkpt>
      <trkpt lat="39.98989" lon="-0.36078833">
        <ele>400.0</ele>
        <time>2017-05-27T11:04:24.513Z</time>
      </trkpt>
      <trkpt lat="39.98989" lon="-0.36078833">
        <ele>400.0</ele>
        <time>2017-05-27T11:04:25.530Z</time>
      </trkpt>
      <trkpt lat="39.98999167" lon="-0.36105667">
        <ele>399.0</ele>
        <time>2017-05-27T11:04:26.517Z</time>
      </trkpt>
      <trkpt lat="39.99004333" lon="-0.36117667">
        <ele>398.0</ele>
        <time>2017-05-27T11:04:27.530Z</time>
      </trkpt>
      <trkpt lat="39.99004333" lon="-0.36117667">
        <ele>398.0</ele>
        <time>2017-05-27T11:04:28.515Z</time>
      </trkpt>
      <trkpt lat="39.99014167" lon="-0.361405">
        <ele>397.0</ele>
        <time>2017-05-27T11:04:29.509Z</time>
      </trkpt>
      <trkpt lat="39.99017833" lon="-0.36152667">
        <ele>397.0</ele>
        <time>2017-05-27T11:04:30.495Z</time>
      </trkpt>
      <trkpt lat="39.99017833" lon="-0.36152667">
        <ele>397.0</ele>
        <time>2017-05-27T11:04:31.530Z</time>
      </trkpt>
      <trkpt lat="39.99021167" lon="-0.36178">
        <ele>396.0</ele>
        <time>2017-05-27T11:04:32.507Z</time>
      </trkpt>
      <trkpt lat="39.99020333" lon="-0.36191">
        <ele>395.0</ele>
        <time>2017-05-27T11:04:33.499Z</time>
      </trkpt>
      <trkpt lat="39.99020333" lon="-0.36191">
        <ele>395.0</ele>
        <time>2017-05-27T11:04:34.497Z</time>
      </trkpt>
      <trkpt lat="39.99018833" lon="-0.36216167">
        <ele>395.0</ele>
        <time>2017-05-27T11:04:35.524Z</time>
      </trkpt>
      <trkpt lat="39.99018833" lon="-0.36216167">
        <ele>395.0</ele>
        <time>2017-05-27T11:04:36.502Z</time>
      </trkpt>
      <trkpt lat="39.99018833" lon="-0.36241167">
        <ele>394.0</ele>
        <time>2017-05-27T11:04:37.523Z</time>
      </trkpt>
      <trkpt lat="39.99018833" lon="-0.36241167">
        <ele>394.0</ele>
        <time>2017-05-27T11:04:38.526Z</time>
      </trkpt>
      <trkpt lat="39.99017833" lon="-0.36267333">
        <ele>393.0</ele>
        <time>2017-05-27T11:04:39.527Z</time>
      </trkpt>
      <trkpt lat="39.99017833" lon="-0.36267333">
        <ele>393.0</ele>
        <time>2017-05-27T11:04:40.495Z</time>
      </trkpt>
      <trkpt lat="39.99015333" lon="-0.36292667">
        <ele>392.0</ele>
        <time>2017-05-27T11:04:41.514Z</time>
      </trkpt>
      <trkpt lat="39.99015333" lon="-0.36292667">
        <ele>392.0</ele>
        <time>2017-05-27T11:04:42.492Z</time>
      </trkpt>
      <trkpt lat="39.99006" lon="-0.36316">
        <ele>391.0</ele>
        <time>2017-05-27T11:04:43.512Z</time>
      </trkpt>
      <trkpt lat="39.99006" lon="-0.36316">
        <ele>391.0</ele>
        <time>2017-05-27T11:04:44.523Z</time>
      </trkpt>
      <trkpt lat="39.98994167" lon="-0.36334833">
        <ele>390.0</ele>
        <time>2017-05-27T11:04:45.506Z</time>
      </trkpt>
      <trkpt lat="39.98994167" lon="-0.36334833">
        <ele>390.0</ele>
        <time>2017-05-27T11:04:46.497Z</time>
      </trkpt>
      <trkpt lat="39.989845" lon="-0.36354167">
        <ele>389.0</ele>
        <time>2017-05-27T11:04:47.527Z</time>
      </trkpt>
      <trkpt lat="39.98981833" lon="-0.36365333">
        <ele>389.0</ele>
        <time>2017-05-27T11:04:48.496Z</time>
      </trkpt>
      <trkpt lat="39.98981833" lon="-0.36365333">
        <ele>389.0</ele>
        <time>2017-05-27T11:04:49.506Z</time>
      </trkpt>
      <trkpt lat="39.98983667" lon="-0.36384">
        <ele>388.0</ele>
        <time>2017-05-27T11:04:50.525Z</time>
      </trkpt>
      <trkpt lat="39.98988167" lon="-0.36388333">
        <ele>387.0</ele>
        <time>2017-05-27T11:04:51.531Z</time>
      </trkpt>
      <trkpt lat="39.98988167" lon="-0.36388333">
        <ele>387.0</ele>
        <time>2017-05-27T11:04:52.509Z</time>
      </trkpt>
      <trkpt lat="39.99002" lon="-0.36389833">
        <ele>386.0</ele>
        <time>2017-05-27T11:04:53.495Z</time>
      </trkpt>
      <trkpt lat="39.99002" lon="-0.36389833">
        <ele>386.0</ele>
        <time>2017-05-27T11:04:54.507Z</time>
      </trkpt>
      <trkpt lat="39.99015333" lon="-0.36380167">
        <ele>386.0</ele>
        <time>2017-05-27T11:04:55.526Z</time>
      </trkpt>
      <trkpt lat="39.99020333" lon="-0.36375333">
        <ele>386.0</ele>
        <time>2017-05-27T11:04:56.513Z</time>
      </trkpt>
      <trkpt lat="39.99020333" lon="-0.36375333">
        <ele>386.0</ele>
        <time>2017-05-27T11:04:57.526Z</time>
      </trkpt>
      <trkpt lat="39.99030333" lon="-0.36366833">
        <ele>387.0</ele>
        <time>2017-05-27T11:04:58.528Z</time>
      </trkpt>
      <trkpt lat="39.99030333" lon="-0.36366833">
        <ele>387.0</ele>
        <time>2017-05-27T11:04:59.530Z</time>
      </trkpt>
      <trkpt lat="39.99038333" lon="-0.36359167">
        <ele>387.0</ele>
        <time>2017-05-27T11:05:00.513Z</time>
      </trkpt>
      <trkpt lat="39.990425" lon="-0.36355167">
        <ele>387.0</ele>
        <time>2017-05-27T11:05:01.500Z</time>
      </trkpt>
      <trkpt lat="39.990425" lon="-0.36355167">
        <ele>387.0</ele>
        <time>2017-05-27T11:05:02.492Z</time>
      </trkpt>
      <trkpt lat="39.99051667" lon="-0.363485">
        <ele>386.0</ele>
        <time>2017-05-27T11:05:03.515Z</time>
      </trkpt>
      <trkpt lat="39.99051667" lon="-0.363485">
        <ele>386.0</ele>
        <time>2017-05-27T11:05:04.493Z</time>
      </trkpt>
      <trkpt lat="39.99061667" lon="-0.36343167">
        <ele>386.0</ele>
        <time>2017-05-27T11:05:05.530Z</time>
      </trkpt>
      <trkpt lat="39.99061667" lon="-0.36343167">
        <ele>386.0</ele>
        <time>2017-05-27T11:05:06.509Z</time>
      </trkpt>
      <trkpt lat="39.990725" lon="-0.36340167">
        <ele>385.0</ele>
        <time>2017-05-27T11:05:07.503Z</time>
      </trkpt>
      <trkpt lat="39.99078" lon="-0.363395">
        <ele>385.0</ele>
        <time>2017-05-27T11:05:08.500Z</time>
      </trkpt>
      <trkpt lat="39.99078" lon="-0.363395">
        <ele>385.0</ele>
        <time>2017-05-27T11:05:09.499Z</time>
      </trkpt>
      <trkpt lat="39.99089" lon="-0.36339">
        <ele>385.0</ele>
        <time>2017-05-27T11:05:10.515Z</time>
      </trkpt>
      <trkpt lat="39.99094667" lon="-0.36339667">
        <ele>384.0</ele>
        <time>2017-05-27T11:05:11.503Z</time>
      </trkpt>
      <trkpt lat="39.99094667" lon="-0.36339667">
        <ele>384.0</ele>
        <time>2017-05-27T11:05:12.509Z</time>
      </trkpt>
      <trkpt lat="39.99105833" lon="-0.36340167">
        <ele>384.0</ele>
        <time>2017-05-27T11:05:13.502Z</time>
      </trkpt>
      <trkpt lat="39.99110667" lon="-0.36340167">
        <ele>384.0</ele>
        <time>2017-05-27T11:05:14.526Z</time>
      </trkpt>
      <trkpt lat="39.991155" lon="-0.3634">
        <ele>384.0</ele>
        <time>2017-05-27T11:05:15.532Z</time>
      </trkpt>
      <trkpt lat="39.991155" lon="-0.3634">
        <ele>384.0</ele>
        <time>2017-05-27T11:05:16.505Z</time>
      </trkpt>
      <trkpt lat="39.99124167" lon="-0.363395">
        <ele>384.0</ele>
        <time>2017-05-27T11:05:17.532Z</time>
      </trkpt>
      <trkpt lat="39.99124167" lon="-0.363395">
        <ele>384.0</ele>
        <time>2017-05-27T11:05:18.509Z</time>
      </trkpt>
      <trkpt lat="39.99131" lon="-0.36340333">
        <ele>386.0</ele>
        <time>2017-05-27T11:05:19.532Z</time>
      </trkpt>
      <trkpt lat="39.99131" lon="-0.36340333">
        <ele>386.0</ele>
        <time>2017-05-27T11:05:20.501Z</time>
      </trkpt>
      <trkpt lat="39.99139167" lon="-0.36342667">
        <ele>389.0</ele>
        <time>2017-05-27T11:05:21.513Z</time>
      </trkpt>
      <trkpt lat="39.99139167" lon="-0.36342667">
        <ele>389.0</ele>
        <time>2017-05-27T11:05:22.505Z</time>
      </trkpt>
      <trkpt lat="39.99146833" lon="-0.36347833">
        <ele>392.0</ele>
        <time>2017-05-27T11:05:23.521Z</time>
      </trkpt>
      <trkpt lat="39.99146833" lon="-0.36347833">
        <ele>392.0</ele>
        <time>2017-05-27T11:05:24.509Z</time>
      </trkpt>
      <trkpt lat="39.991545" lon="-0.363575">
        <ele>395.0</ele>
        <time>2017-05-27T11:05:25.513Z</time>
      </trkpt>
      <trkpt lat="39.991545" lon="-0.363575">
        <ele>395.0</ele>
        <time>2017-05-27T11:05:26.513Z</time>
      </trkpt>
      <trkpt lat="39.99161667" lon="-0.363675">
        <ele>396.0</ele>
        <time>2017-05-27T11:05:27.517Z</time>
      </trkpt>
      <trkpt lat="39.99161667" lon="-0.363675">
        <ele>396.0</ele>
        <time>2017-05-27T11:05:28.512Z</time>
      </trkpt>
      <trkpt lat="39.99168667" lon="-0.36378">
        <ele>396.0</ele>
        <time>2017-05-27T11:05:29.508Z</time>
      </trkpt>
      <trkpt lat="39.991715" lon="-0.36384">
        <ele>396.0</ele>
        <time>2017-05-27T11:05:30.525Z</time>
      </trkpt>
      <trkpt lat="39.991715" lon="-0.36384">
        <ele>396.0</ele>
        <time>2017-05-27T11:05:31.521Z</time>
      </trkpt>
      <trkpt lat="39.99177167" lon="-0.36396167">
        <ele>397.0</ele>
        <time>2017-05-27T11:05:32.501Z</time>
      </trkpt>
      <trkpt lat="39.99177167" lon="-0.36396167">
        <ele>397.0</ele>
        <time>2017-05-27T11:05:33.527Z</time>
      </trkpt>
      <trkpt lat="39.991825" lon="-0.36407333">
        <ele>397.0</ele>
        <time>2017-05-27T11:05:34.531Z</time>
      </trkpt>
      <trkpt lat="39.991825" lon="-0.36407333">
        <ele>397.0</ele>
        <time>2017-05-27T11:05:35.522Z</time>
      </trkpt>
      <trkpt lat="39.99186667" lon="-0.36419">
        <ele>397.0</ele>
        <time>2017-05-27T11:05:36.500Z</time>
      </trkpt>
      <trkpt lat="39.991885" lon="-0.364245">
        <ele>398.0</ele>
        <time>2017-05-27T11:05:37.501Z</time>
      </trkpt>
      <trkpt lat="39.991885" lon="-0.364245">
        <ele>398.0</ele>
        <time>2017-05-27T11:05:38.493Z</time>
      </trkpt>
      <trkpt lat="39.991925" lon="-0.36435333">
        <ele>398.0</ele>
        <time>2017-05-27T11:05:39.522Z</time>
      </trkpt>
      <trkpt lat="39.991925" lon="-0.36435333">
        <ele>398.0</ele>
        <time>2017-05-27T11:05:40.497Z</time>
      </trkpt>
      <trkpt lat="39.99196" lon="-0.36447333">
        <ele>398.0</ele>
        <time>2017-05-27T11:05:41.528Z</time>
      </trkpt>
      <trkpt lat="39.99196" lon="-0.36447333">
        <ele>398.0</ele>
        <time>2017-05-27T11:05:42.499Z</time>
      </trkpt>
      <trkpt lat="39.99201833" lon="-0.36458667">
        <ele>398.0</ele>
        <time>2017-05-27T11:05:43.501Z</time>
      </trkpt>
      <trkpt lat="39.99201833" lon="-0.36458667">
        <ele>398.0</ele>
        <time>2017-05-27T11:05:44.525Z</time>
      </trkpt>
      <trkpt lat="39.99206167" lon="-0.36470667">
        <ele>398.0</ele>
        <time>2017-05-27T11:05:45.510Z</time>
      </trkpt>
      <trkpt lat="39.99207333" lon="-0.36477167">
        <ele>398.0</ele>
        <time>2017-05-27T11:05:46.493Z</time>
      </trkpt>
      <trkpt lat="39.99207333" lon="-0.36477167">
        <ele>398.0</ele>
        <time>2017-05-27T11:05:47.497Z</time>
      </trkpt>
      <trkpt lat="39.99209333" lon="-0.364905">
        <ele>398.0</ele>
        <time>2017-05-27T11:05:48.516Z</time>
      </trkpt>
      <trkpt lat="39.99209333" lon="-0.364905">
        <ele>398.0</ele>
        <time>2017-05-27T11:05:49.505Z</time>
      </trkpt>
      <trkpt lat="39.992085" lon="-0.36505333">
        <ele>398.0</ele>
        <time>2017-05-27T11:05:50.531Z</time>
      </trkpt>
      <trkpt lat="39.99207833" lon="-0.36513167">
        <ele>398.0</ele>
        <time>2017-05-27T11:05:51.521Z</time>
      </trkpt>
      <trkpt lat="39.99207833" lon="-0.36513167">
        <ele>398.0</ele>
        <time>2017-05-27T11:05:52.525Z</time>
      </trkpt>
      <trkpt lat="39.99205333" lon="-0.36529667">
        <ele>398.0</ele>
        <time>2017-05-27T11:05:53.503Z</time>
      </trkpt>
      <trkpt lat="39.99205333" lon="-0.36529667">
        <ele>398.0</ele>
        <time>2017-05-27T11:05:54.508Z</time>
      </trkpt>
      <trkpt lat="39.992035" lon="-0.365465">
        <ele>398.0</ele>
        <time>2017-05-27T11:05:55.495Z</time>
      </trkpt>
      <trkpt lat="39.992035" lon="-0.365465">
        <ele>398.0</ele>
        <time>2017-05-27T11:05:56.524Z</time>
      </trkpt>
      <trkpt lat="39.99201167" lon="-0.36564833">
        <ele>398.0</ele>
        <time>2017-05-27T11:05:57.519Z</time>
      </trkpt>
      <trkpt lat="39.99201167" lon="-0.36564833">
        <ele>398.0</ele>
        <time>2017-05-27T11:05:58.504Z</time>
      </trkpt>
      <trkpt lat="39.99201833" lon="-0.36585833">
        <ele>398.0</ele>
        <time>2017-05-27T11:05:59.532Z</time>
      </trkpt>
      <trkpt lat="39.99204833" lon="-0.36596167">
        <ele>397.0</ele>
        <time>2017-05-27T11:06:00.503Z</time>
      </trkpt>
      <trkpt lat="39.99204833" lon="-0.36596167">
        <ele>397.0</ele>
        <time>2017-05-27T11:06:01.503Z</time>
      </trkpt>
      <trkpt lat="39.99214167" lon="-0.36615667">
        <ele>397.0</ele>
        <time>2017-05-27T11:06:02.523Z</time>
      </trkpt>
      <trkpt lat="39.99218833" lon="-0.36625833">
        <ele>396.0</ele>
        <time>2017-05-27T11:06:03.532Z</time>
      </trkpt>
      <trkpt lat="39.99218833" lon="-0.36625833">
        <ele>396.0</ele>
        <time>2017-05-27T11:06:04.513Z</time>
      </trkpt>
      <trkpt lat="39.99228833" lon="-0.36646833">
        <ele>396.0</ele>
        <time>2017-05-27T11:06:05.493Z</time>
      </trkpt>
      <trkpt lat="39.99228833" lon="-0.36646833">
        <ele>396.0</ele>
        <time>2017-05-27T11:06:06.507Z</time>
      </trkpt>
      <trkpt lat="39.992395" lon="-0.36668167">
        <ele>395.0</ele>
        <time>2017-05-27T11:06:07.498Z</time>
      </trkpt>
      <trkpt lat="39.992395" lon="-0.36668167">
        <ele>395.0</ele>
        <time>2017-05-27T11:06:08.518Z</time>
      </trkpt>
      <trkpt lat="39.99252667" lon="-0.36687333">
        <ele>395.0</ele>
        <time>2017-05-27T11:06:09.504Z</time>
      </trkpt>
      <trkpt lat="39.992615" lon="-0.36695167">
        <ele>394.0</ele>
        <time>2017-05-27T11:06:10.517Z</time>
      </trkpt>
      <trkpt lat="39.992615" lon="-0.36695167">
        <ele>394.0</ele>
        <time>2017-05-27T11:06:11.506Z</time>
      </trkpt>
      <trkpt lat="39.99281667" lon="-0.36707167">
        <ele>393.0</ele>
        <time>2017-05-27T11:06:12.523Z</time>
      </trkpt>
      <trkpt lat="39.99292167" lon="-0.36711667">
        <ele>393.0</ele>
        <time>2017-05-27T11:06:13.533Z</time>
      </trkpt>
      <trkpt lat="39.99302667" lon="-0.367135">
        <ele>392.0</ele>
        <time>2017-05-27T11:06:14.502Z</time>
      </trkpt>
      <trkpt lat="39.99302667" lon="-0.367135">
        <ele>392.0</ele>
        <time>2017-05-27T11:06:15.506Z</time>
      </trkpt>
      <trkpt lat="39.99323333" lon="-0.36712667">
        <ele>391.0</ele>
        <time>2017-05-27T11:06:16.527Z</time>
      </trkpt>
      <trkpt lat="39.99323333" lon="-0.36712667">
        <ele>391.0</ele>
        <time>2017-05-27T11:06:17.509Z</time>
      </trkpt>
      <trkpt lat="39.99345667" lon="-0.36710333">
        <ele>390.0</ele>
        <time>2017-05-27T11:06:18.530Z</time>
      </trkpt>
      <trkpt lat="39.99357667" lon="-0.36709833">
        <ele>390.0</ele>
        <time>2017-05-27T11:06:19.513Z</time>
      </trkpt>
      <trkpt lat="39.99357667" lon="-0.36709833">
        <ele>390.0</ele>
        <time>2017-05-27T11:06:20.499Z</time>
      </trkpt>
      <trkpt lat="39.99382333" lon="-0.367165">
        <ele>388.0</ele>
        <time>2017-05-27T11:06:21.495Z</time>
      </trkpt>
      <trkpt lat="39.99382333" lon="-0.367165">
        <ele>388.0</ele>
        <time>2017-05-27T11:06:22.516Z</time>
      </trkpt>
      <trkpt lat="39.99406667" lon="-0.36731167">
        <ele>386.0</ele>
        <time>2017-05-27T11:06:23.529Z</time>
      </trkpt>
      <trkpt lat="39.99406667" lon="-0.36731167">
        <ele>386.0</ele>
        <time>2017-05-27T11:06:24.505Z</time>
      </trkpt>
      <trkpt lat="39.99428833" lon="-0.367505">
        <ele>384.0</ele>
        <time>2017-05-27T11:06:25.520Z</time>
      </trkpt>
      <trkpt lat="39.99428833" lon="-0.367505">
        <ele>384.0</ele>
        <time>2017-05-27T11:06:26.498Z</time>
      </trkpt>
      <trkpt lat="39.99451333" lon="-0.36770667">
        <ele>382.0</ele>
        <time>2017-05-27T11:06:27.527Z</time>
      </trkpt>
      <trkpt lat="39.99451333" lon="-0.36770667">
        <ele>382.0</ele>
        <time>2017-05-27T11:06:28.512Z</time>
      </trkpt>
      <trkpt lat="39.994745" lon="-0.36791333">
        <ele>380.0</ele>
        <time>2017-05-27T11:06:29.537Z</time>
      </trkpt>
      <trkpt lat="39.994745" lon="-0.36791333">
        <ele>380.0</ele>
        <time>2017-05-27T11:06:30.509Z</time>
      </trkpt>
      <trkpt lat="39.99496667" lon="-0.36814">
        <ele>377.0</ele>
        <time>2017-05-27T11:06:31.528Z</time>
      </trkpt>
      <trkpt lat="39.99496667" lon="-0.36814">
        <ele>377.0</ele>
        <time>2017-05-27T11:06:32.499Z</time>
      </trkpt>
      <trkpt lat="39.995165" lon="-0.36836">
        <ele>375.0</ele>
        <time>2017-05-27T11:06:33.517Z</time>
      </trkpt>
      <trkpt lat="39.995165" lon="-0.36836">
        <ele>375.0</ele>
        <time>2017-05-27T11:06:34.510Z</time>
      </trkpt>
      <trkpt lat="39.99537" lon="-0.36854">
        <ele>374.0</ele>
        <time>2017-05-27T11:06:35.534Z</time>
      </trkpt>
      <trkpt lat="39.99537" lon="-0.36854">
        <ele>374.0</ele>
        <time>2017-05-27T11:06:36.507Z</time>
      </trkpt>
      <trkpt lat="39.99559167" lon="-0.36862667">
        <ele>372.0</ele>
        <time>2017-05-27T11:06:37.531Z</time>
      </trkpt>
      <trkpt lat="39.99559167" lon="-0.36862667">
        <ele>372.0</ele>
        <time>2017-05-27T11:06:38.517Z</time>
      </trkpt>
      <trkpt lat="39.99578667" lon="-0.36857667">
        <ele>369.0</ele>
        <time>2017-05-27T11:06:39.508Z</time>
      </trkpt>
      <trkpt lat="39.99578667" lon="-0.36857667">
        <ele>369.0</ele>
        <time>2017-05-27T11:06:40.529Z</time>
      </trkpt>
      <trkpt lat="39.99593833" lon="-0.36837333">
        <ele>367.0</ele>
        <time>2017-05-27T11:06:41.515Z</time>
      </trkpt>
      <trkpt lat="39.99600333" lon="-0.368255">
        <ele>366.0</ele>
        <time>2017-05-27T11:06:42.491Z</time>
      </trkpt>
      <trkpt lat="39.99600333" lon="-0.368255">
        <ele>366.0</ele>
        <time>2017-05-27T11:06:43.527Z</time>
      </trkpt>
      <trkpt lat="39.99612333" lon="-0.36802167">
        <ele>365.0</ele>
        <time>2017-05-27T11:06:44.512Z</time>
      </trkpt>
      <trkpt lat="39.99618833" lon="-0.36791667">
        <ele>365.0</ele>
        <time>2017-05-27T11:06:45.517Z</time>
      </trkpt>
      <trkpt lat="39.99618833" lon="-0.36791667">
        <ele>365.0</ele>
        <time>2017-05-27T11:06:46.504Z</time>
      </trkpt>
      <trkpt lat="39.99633833" lon="-0.367785">
        <ele>364.0</ele>
        <time>2017-05-27T11:06:47.525Z</time>
      </trkpt>
      <trkpt lat="39.99633833" lon="-0.367785">
        <ele>364.0</ele>
        <time>2017-05-27T11:06:48.514Z</time>
      </trkpt>
      <trkpt lat="39.99650833" lon="-0.36784167">
        <ele>363.0</ele>
        <time>2017-05-27T11:06:49.495Z</time>
      </trkpt>
      <trkpt lat="39.99650833" lon="-0.36784167">
        <ele>363.0</ele>
        <time>2017-05-27T11:06:50.509Z</time>
      </trkpt>
      <trkpt lat="39.996625" lon="-0.36804667">
        <ele>361.0</ele>
        <time>2017-05-27T11:06:51.492Z</time>
      </trkpt>
      <trkpt lat="39.996625" lon="-0.36804667">
        <ele>361.0</ele>
        <time>2017-05-27T11:06:52.501Z</time>
      </trkpt>
      <trkpt lat="39.99670167" lon="-0.368295">
        <ele>360.0</ele>
        <time>2017-05-27T11:06:53.524Z</time>
      </trkpt>
      <trkpt lat="39.99673833" lon="-0.368425">
        <ele>359.0</ele>
        <time>2017-05-27T11:06:54.509Z</time>
      </trkpt>
      <trkpt lat="39.99673833" lon="-0.368425">
        <ele>359.0</ele>
        <time>2017-05-27T11:06:55.499Z</time>
      </trkpt>
      <trkpt lat="39.99681333" lon="-0.368685">
        <ele>358.0</ele>
        <time>2017-05-27T11:06:56.507Z</time>
      </trkpt>
      <trkpt lat="39.99681333" lon="-0.368685">
        <ele>358.0</ele>
        <time>2017-05-27T11:06:57.527Z</time>
      </trkpt>
      <trkpt lat="39.99691167" lon="-0.36893167">
        <ele>357.0</ele>
        <time>2017-05-27T11:06:58.500Z</time>
      </trkpt>
      <trkpt lat="39.99696667" lon="-0.36905">
        <ele>357.0</ele>
        <time>2017-05-27T11:06:59.521Z</time>
      </trkpt>
      <trkpt lat="39.99696667" lon="-0.36905">
        <ele>357.0</ele>
        <time>2017-05-27T11:07:00.528Z</time>
      </trkpt>
      <trkpt lat="39.99708167" lon="-0.36928333">
        <ele>356.0</ele>
        <time>2017-05-27T11:07:01.513Z</time>
      </trkpt>
      <trkpt lat="39.99708167" lon="-0.36928333">
        <ele>356.0</ele>
        <time>2017-05-27T11:07:02.494Z</time>
      </trkpt>
      <trkpt lat="39.99719667" lon="-0.36952">
        <ele>355.0</ele>
        <time>2017-05-27T11:07:03.501Z</time>
      </trkpt>
      <trkpt lat="39.99719667" lon="-0.36952">
        <ele>355.0</ele>
        <time>2017-05-27T11:07:04.491Z</time>
      </trkpt>
      <trkpt lat="39.99733667" lon="-0.36974333">
        <ele>353.0</ele>
        <time>2017-05-27T11:07:05.502Z</time>
      </trkpt>
      <trkpt lat="39.99742" lon="-0.36984333">
        <ele>353.0</ele>
        <time>2017-05-27T11:07:06.522Z</time>
      </trkpt>
      <trkpt lat="39.99742" lon="-0.36984333">
        <ele>353.0</ele>
        <time>2017-05-27T11:07:07.494Z</time>
      </trkpt>
      <trkpt lat="39.997595" lon="-0.37003">
        <ele>352.0</ele>
        <time>2017-05-27T11:07:08.496Z</time>
      </trkpt>
      <trkpt lat="39.99768167" lon="-0.37012">
        <ele>352.0</ele>
        <time>2017-05-27T11:07:09.511Z</time>
      </trkpt>
      <trkpt lat="39.99768167" lon="-0.37012">
        <ele>352.0</ele>
        <time>2017-05-27T11:07:10.527Z</time>
      </trkpt>
      <trkpt lat="39.99785333" lon="-0.37028833">
        <ele>352.0</ele>
        <time>2017-05-27T11:07:11.513Z</time>
      </trkpt>
      <trkpt lat="39.99785333" lon="-0.37028833">
        <ele>352.0</ele>
        <time>2017-05-27T11:07:12.509Z</time>
      </trkpt>
      <trkpt lat="39.99801833" lon="-0.37044833">
        <ele>352.0</ele>
        <time>2017-05-27T11:07:13.492Z</time>
      </trkpt>
      <trkpt lat="39.99801833" lon="-0.37044833">
        <ele>352.0</ele>
        <time>2017-05-27T11:07:14.504Z</time>
      </trkpt>
      <trkpt lat="39.99817667" lon="-0.3706">
        <ele>351.0</ele>
        <time>2017-05-27T11:07:15.517Z</time>
      </trkpt>
      <trkpt lat="39.99817667" lon="-0.3706">
        <ele>351.0</ele>
        <time>2017-05-27T11:07:16.508Z</time>
      </trkpt>
      <trkpt lat="39.998325" lon="-0.37075">
        <ele>351.0</ele>
        <time>2017-05-27T11:07:17.528Z</time>
      </trkpt>
      <trkpt lat="39.99839667" lon="-0.37082">
        <ele>352.0</ele>
        <time>2017-05-27T11:07:18.493Z</time>
      </trkpt>
      <trkpt lat="39.99839667" lon="-0.37082">
        <ele>352.0</ele>
        <time>2017-05-27T11:07:19.501Z</time>
      </trkpt>
      <trkpt lat="39.99853" lon="-0.37095167">
        <ele>352.0</ele>
        <time>2017-05-27T11:07:20.529Z</time>
      </trkpt>
      <trkpt lat="39.99859" lon="-0.37101167">
        <ele>352.0</ele>
        <time>2017-05-27T11:07:21.504Z</time>
      </trkpt>
      <trkpt lat="39.99859" lon="-0.37101167">
        <ele>352.0</ele>
        <time>2017-05-27T11:07:22.524Z</time>
      </trkpt>
      <trkpt lat="39.998695" lon="-0.37112167">
        <ele>353.0</ele>
        <time>2017-05-27T11:07:23.507Z</time>
      </trkpt>
      <trkpt lat="39.99874333" lon="-0.37117">
        <ele>353.0</ele>
        <time>2017-05-27T11:07:24.497Z</time>
      </trkpt>
      <trkpt lat="39.99874333" lon="-0.37117">
        <ele>353.0</ele>
        <time>2017-05-27T11:07:25.511Z</time>
      </trkpt>
      <trkpt lat="39.99882333" lon="-0.37125667">
        <ele>354.0</ele>
        <time>2017-05-27T11:07:26.521Z</time>
      </trkpt>
      <trkpt lat="39.99886" lon="-0.37129667">
        <ele>354.0</ele>
        <time>2017-05-27T11:07:27.525Z</time>
      </trkpt>
      <trkpt lat="39.99886" lon="-0.37129667">
        <ele>354.0</ele>
        <time>2017-05-27T11:07:28.492Z</time>
      </trkpt>
      <trkpt lat="39.99892667" lon="-0.37136167">
        <ele>355.0</ele>
        <time>2017-05-27T11:07:29.518Z</time>
      </trkpt>
      <trkpt lat="39.99892667" lon="-0.37136167">
        <ele>355.0</ele>
        <time>2017-05-27T11:07:30.496Z</time>
      </trkpt>
      <trkpt lat="39.99898333" lon="-0.37142167">
        <ele>355.0</ele>
        <time>2017-05-27T11:07:31.514Z</time>
      </trkpt>
      <trkpt lat="39.99898333" lon="-0.37142167">
        <ele>355.0</ele>
        <time>2017-05-27T11:07:32.507Z</time>
      </trkpt>
      <trkpt lat="39.999035" lon="-0.37147833">
        <ele>356.0</ele>
        <time>2017-05-27T11:07:33.534Z</time>
      </trkpt>
      <trkpt lat="39.999035" lon="-0.37147833">
        <ele>356.0</ele>
        <time>2017-05-27T11:07:34.502Z</time>
      </trkpt>
      <trkpt lat="39.99908833" lon="-0.37153">
        <ele>356.0</ele>
        <time>2017-05-27T11:07:35.528Z</time>
      </trkpt>
      <trkpt lat="39.99908833" lon="-0.37153">
        <ele>356.0</ele>
        <time>2017-05-27T11:07:36.500Z</time>
      </trkpt>
      <trkpt lat="39.99914667" lon="-0.37157167">
        <ele>357.0</ele>
        <time>2017-05-27T11:07:37.529Z</time>
      </trkpt>
      <trkpt lat="39.99914667" lon="-0.37157167">
        <ele>357.0</ele>
        <time>2017-05-27T11:07:38.525Z</time>
      </trkpt>
      <trkpt lat="39.99920167" lon="-0.37161167">
        <ele>357.0</ele>
        <time>2017-05-27T11:07:39.516Z</time>
      </trkpt>
      <trkpt lat="39.99920167" lon="-0.37161167">
        <ele>357.0</ele>
        <time>2017-05-27T11:07:40.496Z</time>
      </trkpt>
      <trkpt lat="39.99924" lon="-0.37167167">
        <ele>357.0</ele>
        <time>2017-05-27T11:07:41.527Z</time>
      </trkpt>
      <trkpt lat="39.999255" lon="-0.37170667">
        <ele>358.0</ele>
        <time>2017-05-27T11:07:42.515Z</time>
      </trkpt>
      <trkpt lat="39.999255" lon="-0.37170667">
        <ele>358.0</ele>
        <time>2017-05-27T11:07:43.496Z</time>
      </trkpt>
      <trkpt lat="39.99929" lon="-0.37177833">
        <ele>358.0</ele>
        <time>2017-05-27T11:07:44.528Z</time>
      </trkpt>
      <trkpt lat="39.99930667" lon="-0.37181333">
        <ele>358.0</ele>
        <time>2017-05-27T11:07:45.498Z</time>
      </trkpt>
      <trkpt lat="39.99930667" lon="-0.37181333">
        <ele>358.0</ele>
        <time>2017-05-27T11:07:46.524Z</time>
      </trkpt>
      <trkpt lat="39.999335" lon="-0.371885">
        <ele>358.0</ele>
        <time>2017-05-27T11:07:47.507Z</time>
      </trkpt>
      <trkpt lat="39.999335" lon="-0.371885">
        <ele>358.0</ele>
        <time>2017-05-27T11:07:48.526Z</time>
      </trkpt>
      <trkpt lat="39.99935833" lon="-0.37196">
        <ele>358.0</ele>
        <time>2017-05-27T11:07:49.505Z</time>
      </trkpt>
      <trkpt lat="39.99935833" lon="-0.37196">
        <ele>358.0</ele>
        <time>2017-05-27T11:07:50.505Z</time>
      </trkpt>
      <trkpt lat="39.99937333" lon="-0.372035">
        <ele>359.0</ele>
        <time>2017-05-27T11:07:51.524Z</time>
      </trkpt>
      <trkpt lat="39.99937333" lon="-0.372035">
        <ele>359.0</ele>
        <time>2017-05-27T11:07:52.499Z</time>
      </trkpt>
      <trkpt lat="39.999385" lon="-0.37211">
        <ele>359.0</ele>
        <time>2017-05-27T11:07:53.523Z</time>
      </trkpt>
      <trkpt lat="39.999385" lon="-0.37211">
        <ele>359.0</ele>
        <time>2017-05-27T11:07:54.495Z</time>
      </trkpt>
      <trkpt lat="39.99939167" lon="-0.372185">
        <ele>359.0</ele>
        <time>2017-05-27T11:07:55.531Z</time>
      </trkpt>
      <trkpt lat="39.99939167" lon="-0.372185">
        <ele>359.0</ele>
        <time>2017-05-27T11:07:56.515Z</time>
      </trkpt>
      <trkpt lat="39.99939167" lon="-0.37225667">
        <ele>359.0</ele>
        <time>2017-05-27T11:07:57.508Z</time>
      </trkpt>
      <trkpt lat="39.99939167" lon="-0.37225667">
        <ele>359.0</ele>
        <time>2017-05-27T11:07:58.520Z</time>
      </trkpt>
      <trkpt lat="39.99939167" lon="-0.37233">
        <ele>359.0</ele>
        <time>2017-05-27T11:07:59.510Z</time>
      </trkpt>
      <trkpt lat="39.99939167" lon="-0.37237">
        <ele>359.0</ele>
        <time>2017-05-27T11:08:00.493Z</time>
      </trkpt>
      <trkpt lat="39.99939167" lon="-0.37240667">
        <ele>359.0</ele>
        <time>2017-05-27T11:08:01.501Z</time>
      </trkpt>
      <trkpt lat="39.99939167" lon="-0.37240667">
        <ele>359.0</ele>
        <time>2017-05-27T11:08:02.504Z</time>
      </trkpt>
      <trkpt lat="39.99938833" lon="-0.37247833">
        <ele>360.0</ele>
        <time>2017-05-27T11:08:03.505Z</time>
      </trkpt>
      <trkpt lat="39.99938833" lon="-0.37247833">
        <ele>360.0</ele>
        <time>2017-05-27T11:08:04.526Z</time>
      </trkpt>
      <trkpt lat="39.99939" lon="-0.372545">
        <ele>360.0</ele>
        <time>2017-05-27T11:08:05.516Z</time>
      </trkpt>
      <trkpt lat="39.99939" lon="-0.372545">
        <ele>360.0</ele>
        <time>2017-05-27T11:08:06.507Z</time>
      </trkpt>
      <trkpt lat="39.99938667" lon="-0.37261667">
        <ele>360.0</ele>
        <time>2017-05-27T11:08:07.526Z</time>
      </trkpt>
      <trkpt lat="39.999385" lon="-0.37265167">
        <ele>360.0</ele>
        <time>2017-05-27T11:08:08.499Z</time>
      </trkpt>
      <trkpt lat="39.999385" lon="-0.37265167">
        <ele>360.0</ele>
        <time>2017-05-27T11:08:09.527Z</time>
      </trkpt>
      <trkpt lat="39.99938167" lon="-0.37272333">
        <ele>361.0</ele>
        <time>2017-05-27T11:08:10.516Z</time>
      </trkpt>
      <trkpt lat="39.99938167" lon="-0.37272333">
        <ele>361.0</ele>
        <time>2017-05-27T11:08:11.521Z</time>
      </trkpt>
      <trkpt lat="39.99937667" lon="-0.37279667">
        <ele>361.0</ele>
        <time>2017-05-27T11:08:12.516Z</time>
      </trkpt>
      <trkpt lat="39.99937667" lon="-0.37279667">
        <ele>361.0</ele>
        <time>2017-05-27T11:08:13.504Z</time>
      </trkpt>
      <trkpt lat="39.99936667" lon="-0.37287">
        <ele>361.0</ele>
        <time>2017-05-27T11:08:14.524Z</time>
      </trkpt>
      <trkpt lat="39.99936667" lon="-0.37287">
        <ele>361.0</ele>
        <time>2017-05-27T11:08:15.529Z</time>
      </trkpt>
      <trkpt lat="39.99936333" lon="-0.372945">
        <ele>362.0</ele>
        <time>2017-05-27T11:08:16.502Z</time>
      </trkpt>
      <trkpt lat="39.99936333" lon="-0.372945">
        <ele>362.0</ele>
        <time>2017-05-27T11:08:17.530Z</time>
      </trkpt>
      <trkpt lat="39.99936" lon="-0.37302167">
        <ele>362.0</ele>
        <time>2017-05-27T11:08:18.515Z</time>
      </trkpt>
      <trkpt lat="39.99936" lon="-0.37302167">
        <ele>362.0</ele>
        <time>2017-05-27T11:08:19.496Z</time>
      </trkpt>
      <trkpt lat="39.99934833" lon="-0.3731">
        <ele>362.0</ele>
        <time>2017-05-27T11:08:20.514Z</time>
      </trkpt>
      <trkpt lat="39.99934" lon="-0.37313833">
        <ele>362.0</ele>
        <time>2017-05-27T11:08:21.510Z</time>
      </trkpt>
      <trkpt lat="39.999335" lon="-0.37317667">
        <ele>363.0</ele>
        <time>2017-05-27T11:08:22.516Z</time>
      </trkpt>
      <trkpt lat="39.999335" lon="-0.37317667">
        <ele>363.0</ele>
        <time>2017-05-27T11:08:23.504Z</time>
      </trkpt>
      <trkpt lat="39.99932167" lon="-0.37325333">
        <ele>363.0</ele>
        <time>2017-05-27T11:08:24.532Z</time>
      </trkpt>
      <trkpt lat="39.99932167" lon="-0.37325333">
        <ele>363.0</ele>
        <time>2017-05-27T11:08:25.529Z</time>
      </trkpt>
      <trkpt lat="39.999305" lon="-0.37333167">
        <ele>363.0</ele>
        <time>2017-05-27T11:08:26.521Z</time>
      </trkpt>
      <trkpt lat="39.999295" lon="-0.37336833">
        <ele>363.0</ele>
        <time>2017-05-27T11:08:27.502Z</time>
      </trkpt>
      <trkpt lat="39.999295" lon="-0.37336833">
        <ele>363.0</ele>
        <time>2017-05-27T11:08:28.493Z</time>
      </trkpt>
      <trkpt lat="39.99928" lon="-0.37344667">
        <ele>364.0</ele>
        <time>2017-05-27T11:08:29.526Z</time>
      </trkpt>
      <trkpt lat="39.99928" lon="-0.37344667">
        <ele>364.0</ele>
        <time>2017-05-27T11:08:30.530Z</time>
      </trkpt>
      <trkpt lat="39.99926167" lon="-0.37352167">
        <ele>364.0</ele>
        <time>2017-05-27T11:08:31.513Z</time>
      </trkpt>
      <trkpt lat="39.99926167" lon="-0.37352167">
        <ele>364.0</ele>
        <time>2017-05-27T11:08:32.528Z</time>
      </trkpt>
      <trkpt lat="39.999245" lon="-0.37359667">
        <ele>364.0</ele>
        <time>2017-05-27T11:08:33.521Z</time>
      </trkpt>
      <trkpt lat="39.999245" lon="-0.37359667">
        <ele>364.0</ele>
        <time>2017-05-27T11:08:34.497Z</time>
      </trkpt>
      <trkpt lat="39.99922833" lon="-0.37366833">
        <ele>365.0</ele>
        <time>2017-05-27T11:08:35.513Z</time>
      </trkpt>
      <trkpt lat="39.99921833" lon="-0.373705">
        <ele>365.0</ele>
        <time>2017-05-27T11:08:36.506Z</time>
      </trkpt>
      <trkpt lat="39.99921833" lon="-0.373705">
        <ele>365.0</ele>
        <time>2017-05-27T11:08:37.498Z</time>
      </trkpt>
      <trkpt lat="39.999205" lon="-0.37378">
        <ele>365.0</ele>
        <time>2017-05-27T11:08:38.500Z</time>
      </trkpt>
      <trkpt lat="39.999205" lon="-0.37378">
        <ele>365.0</ele>
        <time>2017-05-27T11:08:39.510Z</time>
      </trkpt>
      <trkpt lat="39.99919" lon="-0.373855">
        <ele>365.0</ele>
        <time>2017-05-27T11:08:40.493Z</time>
      </trkpt>
      <trkpt lat="39.99919" lon="-0.373855">
        <ele>365.0</ele>
        <time>2017-05-27T11:08:41.506Z</time>
      </trkpt>
      <trkpt lat="39.99917333" lon="-0.37393">
        <ele>365.0</ele>
        <time>2017-05-27T11:08:42.534Z</time>
      </trkpt>
      <trkpt lat="39.99916833" lon="-0.37396667">
        <ele>366.0</ele>
        <time>2017-05-27T11:08:43.522Z</time>
      </trkpt>
      <trkpt lat="39.99916" lon="-0.374005">
        <ele>366.0</ele>
        <time>2017-05-27T11:08:44.518Z</time>
      </trkpt>
      <trkpt lat="39.99916" lon="-0.374005">
        <ele>366.0</ele>
        <time>2017-05-27T11:08:45.509Z</time>
      </trkpt>
      <trkpt lat="39.99915333" lon="-0.37408">
        <ele>366.0</ele>
        <time>2017-05-27T11:08:46.502Z</time>
      </trkpt>
      <trkpt lat="39.99915333" lon="-0.37408">
        <ele>366.0</ele>
        <time>2017-05-27T11:08:47.530Z</time>
      </trkpt>
      <trkpt lat="39.99914333" lon="-0.37416167">
        <ele>366.0</ele>
        <time>2017-05-27T11:08:48.508Z</time>
      </trkpt>
      <trkpt lat="39.99914333" lon="-0.37416167">
        <ele>366.0</ele>
        <time>2017-05-27T11:08:49.501Z</time>
      </trkpt>
      <trkpt lat="39.99913167" lon="-0.37425167">
        <ele>366.0</ele>
        <time>2017-05-27T11:08:50.530Z</time>
      </trkpt>
      <trkpt lat="39.999125" lon="-0.37429667">
        <ele>366.0</ele>
        <time>2017-05-27T11:08:51.534Z</time>
      </trkpt>
      <trkpt lat="39.999125" lon="-0.37429667">
        <ele>366.0</ele>
        <time>2017-05-27T11:08:52.525Z</time>
      </trkpt>
      <trkpt lat="39.99911167" lon="-0.37439">
        <ele>367.0</ele>
        <time>2017-05-27T11:08:53.527Z</time>
      </trkpt>
      <trkpt lat="39.999115" lon="-0.37443667">
        <ele>367.0</ele>
        <time>2017-05-27T11:08:54.521Z</time>
      </trkpt>
      <trkpt lat="39.999115" lon="-0.37443667">
        <ele>367.0</ele>
        <time>2017-05-27T11:08:55.500Z</time>
      </trkpt>
      <trkpt lat="39.99912333" lon="-0.37454333">
        <ele>368.0</ele>
        <time>2017-05-27T11:08:56.523Z</time>
      </trkpt>
      <trkpt lat="39.99912333" lon="-0.37454333">
        <ele>368.0</ele>
        <time>2017-05-27T11:08:57.515Z</time>
      </trkpt>
      <trkpt lat="39.99914" lon="-0.37465167">
        <ele>368.0</ele>
        <time>2017-05-27T11:08:58.503Z</time>
      </trkpt>
      <trkpt lat="39.99914" lon="-0.37465167">
        <ele>368.0</ele>
        <time>2017-05-27T11:08:59.526Z</time>
      </trkpt>
      <trkpt lat="39.99917167" lon="-0.37477">
        <ele>368.0</ele>
        <time>2017-05-27T11:09:00.515Z</time>
      </trkpt>
      <trkpt lat="39.99917167" lon="-0.37477">
        <ele>368.0</ele>
        <time>2017-05-27T11:09:01.491Z</time>
      </trkpt>
      <trkpt lat="39.99921333" lon="-0.37488">
        <ele>368.0</ele>
        <time>2017-05-27T11:09:02.517Z</time>
      </trkpt>
      <trkpt lat="39.99921333" lon="-0.37488">
        <ele>368.0</ele>
        <time>2017-05-27T11:09:03.499Z</time>
      </trkpt>
      <trkpt lat="39.99925167" lon="-0.37498333">
        <ele>368.0</ele>
        <time>2017-05-27T11:09:04.527Z</time>
      </trkpt>
      <trkpt lat="39.99925167" lon="-0.37498333">
        <ele>368.0</ele>
        <time>2017-05-27T11:09:05.524Z</time>
      </trkpt>
      <trkpt lat="39.99929833" lon="-0.37508">
        <ele>368.0</ele>
        <time>2017-05-27T11:09:06.504Z</time>
      </trkpt>
      <trkpt lat="39.99929833" lon="-0.37508">
        <ele>368.0</ele>
        <time>2017-05-27T11:09:07.528Z</time>
      </trkpt>
      <trkpt lat="39.999345" lon="-0.37517667">
        <ele>368.0</ele>
        <time>2017-05-27T11:09:08.517Z</time>
      </trkpt>
      <trkpt lat="39.999345" lon="-0.37517667">
        <ele>368.0</ele>
        <time>2017-05-27T11:09:09.516Z</time>
      </trkpt>
      <trkpt lat="39.99939167" lon="-0.375275">
        <ele>368.0</ele>
        <time>2017-05-27T11:09:10.496Z</time>
      </trkpt>
      <trkpt lat="39.99939167" lon="-0.375275">
        <ele>368.0</ele>
        <time>2017-05-27T11:09:11.495Z</time>
      </trkpt>
      <trkpt lat="39.99943667" lon="-0.375365">
        <ele>368.0</ele>
        <time>2017-05-27T11:09:12.518Z</time>
      </trkpt>
      <trkpt lat="39.99943667" lon="-0.375365">
        <ele>368.0</ele>
        <time>2017-05-27T11:09:13.522Z</time>
      </trkpt>
      <trkpt lat="39.99948167" lon="-0.37544833">
        <ele>368.0</ele>
        <time>2017-05-27T11:09:14.507Z</time>
      </trkpt>
      <trkpt lat="39.99950333" lon="-0.37549167">
        <ele>368.0</ele>
        <time>2017-05-27T11:09:15.530Z</time>
      </trkpt>
      <trkpt lat="39.99952667" lon="-0.37553833">
        <ele>368.0</ele>
        <time>2017-05-27T11:09:16.511Z</time>
      </trkpt>
      <trkpt lat="39.99952667" lon="-0.37553833">
        <ele>368.0</ele>
        <time>2017-05-27T11:09:17.509Z</time>
      </trkpt>
      <trkpt lat="39.99957167" lon="-0.37563667">
        <ele>368.0</ele>
        <time>2017-05-27T11:09:18.503Z</time>
      </trkpt>
      <trkpt lat="39.99957167" lon="-0.37563667">
        <ele>368.0</ele>
        <time>2017-05-27T11:09:19.500Z</time>
      </trkpt>
      <trkpt lat="39.99962333" lon="-0.375725">
        <ele>368.0</ele>
        <time>2017-05-27T11:09:20.525Z</time>
      </trkpt>
      <trkpt lat="39.99965" lon="-0.37576667">
        <ele>368.0</ele>
        <time>2017-05-27T11:09:21.491Z</time>
      </trkpt>
      <trkpt lat="39.99965" lon="-0.37576667">
        <ele>368.0</ele>
        <time>2017-05-27T11:09:22.496Z</time>
      </trkpt>
      <trkpt lat="39.99970333" lon="-0.375845">
        <ele>368.0</ele>
        <time>2017-05-27T11:09:23.531Z</time>
      </trkpt>
      <trkpt lat="39.99972833" lon="-0.37588167">
        <ele>368.0</ele>
        <time>2017-05-27T11:09:24.496Z</time>
      </trkpt>
      <trkpt lat="39.999755" lon="-0.37591833">
        <ele>368.0</ele>
        <time>2017-05-27T11:09:25.500Z</time>
      </trkpt>
      <trkpt lat="39.999755" lon="-0.37591833">
        <ele>368.0</ele>
        <time>2017-05-27T11:09:26.492Z</time>
      </trkpt>
      <trkpt lat="39.99981" lon="-0.37598667">
        <ele>368.0</ele>
        <time>2017-05-27T11:09:27.531Z</time>
      </trkpt>
      <trkpt lat="39.99981" lon="-0.37598667">
        <ele>368.0</ele>
        <time>2017-05-27T11:09:28.504Z</time>
      </trkpt>
      <trkpt lat="39.99985833" lon="-0.37605833">
        <ele>369.0</ele>
        <time>2017-05-27T11:09:29.530Z</time>
      </trkpt>
      <trkpt lat="39.99985833" lon="-0.37605833">
        <ele>369.0</ele>
        <time>2017-05-27T11:09:30.499Z</time>
      </trkpt>
      <trkpt lat="39.99990833" lon="-0.37612667">
        <ele>369.0</ele>
        <time>2017-05-27T11:09:31.524Z</time>
      </trkpt>
      <trkpt lat="39.99990833" lon="-0.37612667">
        <ele>369.0</ele>
        <time>2017-05-27T11:09:32.505Z</time>
      </trkpt>
      <trkpt lat="39.99995667" lon="-0.37619333">
        <ele>370.0</ele>
        <time>2017-05-27T11:09:33.498Z</time>
      </trkpt>
      <trkpt lat="39.99995667" lon="-0.37619333">
        <ele>370.0</ele>
        <time>2017-05-27T11:09:34.491Z</time>
      </trkpt>
      <trkpt lat="40.000005" lon="-0.37626">
        <ele>370.0</ele>
        <time>2017-05-27T11:09:35.507Z</time>
      </trkpt>
      <trkpt lat="40.00002833" lon="-0.37629">
        <ele>370.0</ele>
        <time>2017-05-27T11:09:36.493Z</time>
      </trkpt>
      <trkpt lat="40.00002833" lon="-0.37629">
        <ele>370.0</ele>
        <time>2017-05-27T11:09:37.520Z</time>
      </trkpt>
      <trkpt lat="40.00007167" lon="-0.37635333">
        <ele>370.0</ele>
        <time>2017-05-27T11:09:38.500Z</time>
      </trkpt>
      <trkpt lat="40.00009333" lon="-0.37638667">
        <ele>370.0</ele>
        <time>2017-05-27T11:09:39.513Z</time>
      </trkpt>
      <trkpt lat="40.00009333" lon="-0.37638667">
        <ele>370.0</ele>
        <time>2017-05-27T11:09:40.506Z</time>
      </trkpt>
      <trkpt lat="40.00013667" lon="-0.37644833">
        <ele>371.0</ele>
        <time>2017-05-27T11:09:41.527Z</time>
      </trkpt>
      <trkpt lat="40.00013667" lon="-0.37644833">
        <ele>371.0</ele>
        <time>2017-05-27T11:09:42.511Z</time>
      </trkpt>
      <trkpt lat="40.00018667" lon="-0.37651167">
        <ele>371.0</ele>
        <time>2017-05-27T11:09:43.497Z</time>
      </trkpt>
      <trkpt lat="40.00021167" lon="-0.37654167">
        <ele>371.0</ele>
        <time>2017-05-27T11:09:44.522Z</time>
      </trkpt>
      <trkpt lat="40.00023833" lon="-0.37657">
        <ele>371.0</ele>
        <time>2017-05-27T11:09:45.512Z</time>
      </trkpt>
      <trkpt lat="40.00023833" lon="-0.37657">
        <ele>371.0</ele>
        <time>2017-05-27T11:09:46.494Z</time>
      </trkpt>
      <trkpt lat="40.00028833" lon="-0.37662833">
        <ele>371.0</ele>
        <time>2017-05-27T11:09:47.527Z</time>
      </trkpt>
      <trkpt lat="40.00028833" lon="-0.37662833">
        <ele>371.0</ele>
        <time>2017-05-27T11:09:48.509Z</time>
      </trkpt>
      <trkpt lat="40.00033167" lon="-0.37668667">
        <ele>371.0</ele>
        <time>2017-05-27T11:09:49.528Z</time>
      </trkpt>
      <trkpt lat="40.00033167" lon="-0.37668667">
        <ele>371.0</ele>
        <time>2017-05-27T11:09:50.527Z</time>
      </trkpt>
      <trkpt lat="40.00037333" lon="-0.376745">
        <ele>372.0</ele>
        <time>2017-05-27T11:09:51.513Z</time>
      </trkpt>
      <trkpt lat="40.00037333" lon="-0.376745">
        <ele>372.0</ele>
        <time>2017-05-27T11:09:52.507Z</time>
      </trkpt>
      <trkpt lat="40.00041833" lon="-0.37680167">
        <ele>372.0</ele>
        <time>2017-05-27T11:09:53.492Z</time>
      </trkpt>
      <trkpt lat="40.00041833" lon="-0.37680167">
        <ele>372.0</ele>
        <time>2017-05-27T11:09:54.499Z</time>
      </trkpt>
      <trkpt lat="40.00047" lon="-0.376855">
        <ele>373.0</ele>
        <time>2017-05-27T11:09:55.532Z</time>
      </trkpt>
      <trkpt lat="40.00047" lon="-0.376855">
        <ele>373.0</ele>
        <time>2017-05-27T11:09:56.516Z</time>
      </trkpt>
      <trkpt lat="40.000525" lon="-0.37690833">
        <ele>373.0</ele>
        <time>2017-05-27T11:09:57.499Z</time>
      </trkpt>
      <trkpt lat="40.000525" lon="-0.37690833">
        <ele>373.0</ele>
        <time>2017-05-27T11:09:58.528Z</time>
      </trkpt>
      <trkpt lat="40.000575" lon="-0.37696">
        <ele>373.0</ele>
        <time>2017-05-27T11:09:59.516Z</time>
      </trkpt>
      <trkpt lat="40.000575" lon="-0.37696">
        <ele>373.0</ele>
        <time>2017-05-27T11:10:00.516Z</time>
      </trkpt>
      <trkpt lat="40.00062" lon="-0.37702">
        <ele>374.0</ele>
        <time>2017-05-27T11:10:01.516Z</time>
      </trkpt>
      <trkpt lat="40.00064" lon="-0.37705167">
        <ele>374.0</ele>
        <time>2017-05-27T11:10:02.495Z</time>
      </trkpt>
      <trkpt lat="40.00064" lon="-0.37705167">
        <ele>374.0</ele>
        <time>2017-05-27T11:10:03.529Z</time>
      </trkpt>
      <trkpt lat="40.00068167" lon="-0.37711167">
        <ele>374.0</ele>
        <time>2017-05-27T11:10:04.516Z</time>
      </trkpt>
      <trkpt lat="40.00068167" lon="-0.37711167">
        <ele>374.0</ele>
        <time>2017-05-27T11:10:05.506Z</time>
      </trkpt>
      <trkpt lat="40.00072" lon="-0.377175">
        <ele>375.0</ele>
        <time>2017-05-27T11:10:06.526Z</time>
      </trkpt>
      <trkpt lat="40.00072" lon="-0.377175">
        <ele>375.0</ele>
        <time>2017-05-27T11:10:07.499Z</time>
      </trkpt>
      <trkpt lat="40.000755" lon="-0.37723833">
        <ele>375.0</ele>
        <time>2017-05-27T11:10:08.527Z</time>
      </trkpt>
      <trkpt lat="40.000755" lon="-0.37723833">
        <ele>375.0</ele>
        <time>2017-05-27T11:10:09.500Z</time>
      </trkpt>
      <trkpt lat="40.00078833" lon="-0.37730333">
        <ele>376.0</ele>
        <time>2017-05-27T11:10:10.538Z</time>
      </trkpt>
      <trkpt lat="40.00078833" lon="-0.37730333">
        <ele>376.0</ele>
        <time>2017-05-27T11:10:11.514Z</time>
      </trkpt>
      <trkpt lat="40.00082167" lon="-0.377365">
        <ele>376.0</ele>
        <time>2017-05-27T11:10:12.501Z</time>
      </trkpt>
      <trkpt lat="40.00082167" lon="-0.377365">
        <ele>376.0</ele>
        <time>2017-05-27T11:10:13.530Z</time>
      </trkpt>
      <trkpt lat="40.00085167" lon="-0.37742833">
        <ele>377.0</ele>
        <time>2017-05-27T11:10:14.516Z</time>
      </trkpt>
      <trkpt lat="40.000865" lon="-0.37746167">
        <ele>377.0</ele>
        <time>2017-05-27T11:10:15.510Z</time>
      </trkpt>
      <trkpt lat="40.000865" lon="-0.37746167">
        <ele>377.0</ele>
        <time>2017-05-27T11:10:16.491Z</time>
      </trkpt>
      <trkpt lat="40.00089167" lon="-0.37752833">
        <ele>377.0</ele>
        <time>2017-05-27T11:10:17.517Z</time>
      </trkpt>
      <trkpt lat="40.000905" lon="-0.37756167">
        <ele>377.0</ele>
        <time>2017-05-27T11:10:18.527Z</time>
      </trkpt>
      <trkpt lat="40.000905" lon="-0.37756167">
        <ele>377.0</ele>
        <time>2017-05-27T11:10:19.525Z</time>
      </trkpt>
      <trkpt lat="40.00093167" lon="-0.37762667">
        <ele>378.0</ele>
        <time>2017-05-27T11:10:20.516Z</time>
      </trkpt>
      <trkpt lat="40.00093167" lon="-0.37762667">
        <ele>378.0</ele>
        <time>2017-05-27T11:10:21.514Z</time>
      </trkpt>
      <trkpt lat="40.00096" lon="-0.37769">
        <ele>378.0</ele>
        <time>2017-05-27T11:10:22.507Z</time>
      </trkpt>
      <trkpt lat="40.00096" lon="-0.37769">
        <ele>378.0</ele>
        <time>2017-05-27T11:10:23.502Z</time>
      </trkpt>
      <trkpt lat="40.00098833" lon="-0.37775333">
        <ele>379.0</ele>
        <time>2017-05-27T11:10:24.516Z</time>
      </trkpt>
      <trkpt lat="40.00098833" lon="-0.37775333">
        <ele>379.0</ele>
        <time>2017-05-27T11:10:25.524Z</time>
      </trkpt>
      <trkpt lat="40.001015" lon="-0.37781667">
        <ele>379.0</ele>
        <time>2017-05-27T11:10:26.516Z</time>
      </trkpt>
      <trkpt lat="40.00103" lon="-0.37784833">
        <ele>379.0</ele>
        <time>2017-05-27T11:10:27.525Z</time>
      </trkpt>
      <trkpt lat="40.00103" lon="-0.37784833">
        <ele>379.0</ele>
        <time>2017-05-27T11:10:28.508Z</time>
      </trkpt>
      <trkpt lat="40.00105833" lon="-0.37791167">
        <ele>380.0</ele>
        <time>2017-05-27T11:10:29.498Z</time>
      </trkpt>
      <trkpt lat="40.00107333" lon="-0.37794167">
        <ele>380.0</ele>
        <time>2017-05-27T11:10:30.521Z</time>
      </trkpt>
      <trkpt lat="40.00107333" lon="-0.37794167">
        <ele>380.0</ele>
        <time>2017-05-27T11:10:31.494Z</time>
      </trkpt>
      <trkpt lat="40.00110333" lon="-0.378005">
        <ele>381.0</ele>
        <time>2017-05-27T11:10:32.497Z</time>
      </trkpt>
      <trkpt lat="40.00110333" lon="-0.378005">
        <ele>381.0</ele>
        <time>2017-05-27T11:10:33.499Z</time>
      </trkpt>
      <trkpt lat="40.00113667" lon="-0.37806667">
        <ele>381.0</ele>
        <time>2017-05-27T11:10:34.494Z</time>
      </trkpt>
      <trkpt lat="40.00113667" lon="-0.37806667">
        <ele>381.0</ele>
        <time>2017-05-27T11:10:35.517Z</time>
      </trkpt>
      <trkpt lat="40.00116833" lon="-0.37812667">
        <ele>381.0</ele>
        <time>2017-05-27T11:10:36.506Z</time>
      </trkpt>
      <trkpt lat="40.001185" lon="-0.37815667">
        <ele>382.0</ele>
        <time>2017-05-27T11:10:37.516Z</time>
      </trkpt>
      <trkpt lat="40.001185" lon="-0.37815667">
        <ele>382.0</ele>
        <time>2017-05-27T11:10:38.503Z</time>
      </trkpt>
      <trkpt lat="40.00121833" lon="-0.37821333">
        <ele>382.0</ele>
        <time>2017-05-27T11:10:39.509Z</time>
      </trkpt>
      <trkpt lat="40.00121833" lon="-0.37821333">
        <ele>382.0</ele>
        <time>2017-05-27T11:10:40.526Z</time>
      </trkpt>
      <trkpt lat="40.001255" lon="-0.37826667">
        <ele>382.0</ele>
        <time>2017-05-27T11:10:41.520Z</time>
      </trkpt>
      <trkpt lat="40.001255" lon="-0.37826667">
        <ele>382.0</ele>
        <time>2017-05-27T11:10:42.499Z</time>
      </trkpt>
      <trkpt lat="40.00129333" lon="-0.37831333">
        <ele>382.0</ele>
        <time>2017-05-27T11:10:43.516Z</time>
      </trkpt>
      <trkpt lat="40.00129333" lon="-0.37831333">
        <ele>382.0</ele>
        <time>2017-05-27T11:10:44.503Z</time>
      </trkpt>
      <trkpt lat="40.001335" lon="-0.37836">
        <ele>383.0</ele>
        <time>2017-05-27T11:10:45.530Z</time>
      </trkpt>
      <trkpt lat="40.00135667" lon="-0.37838167">
        <ele>383.0</ele>
        <time>2017-05-27T11:10:46.502Z</time>
      </trkpt>
      <trkpt lat="40.00135667" lon="-0.37838167">
        <ele>383.0</ele>
        <time>2017-05-27T11:10:47.518Z</time>
      </trkpt>
      <trkpt lat="40.001405" lon="-0.37842667">
        <ele>383.0</ele>
        <time>2017-05-27T11:10:48.496Z</time>
      </trkpt>
      <trkpt lat="40.00143167" lon="-0.37844667">
        <ele>383.0</ele>
        <time>2017-05-27T11:10:49.528Z</time>
      </trkpt>
      <trkpt lat="40.00143167" lon="-0.37844667">
        <ele>383.0</ele>
        <time>2017-05-27T11:10:50.509Z</time>
      </trkpt>
      <trkpt lat="40.00149167" lon="-0.37848167">
        <ele>383.0</ele>
        <time>2017-05-27T11:10:51.532Z</time>
      </trkpt>
      <trkpt lat="40.00152333" lon="-0.37849333">
        <ele>382.0</ele>
        <time>2017-05-27T11:10:52.527Z</time>
      </trkpt>
      <trkpt lat="40.00152333" lon="-0.37849333">
        <ele>382.0</ele>
        <time>2017-05-27T11:10:53.520Z</time>
      </trkpt>
      <trkpt lat="40.00158833" lon="-0.37850667">
        <ele>382.0</ele>
        <time>2017-05-27T11:10:54.502Z</time>
      </trkpt>
      <trkpt lat="40.00158833" lon="-0.37850667">
        <ele>382.0</ele>
        <time>2017-05-27T11:10:55.491Z</time>
      </trkpt>
      <trkpt lat="40.00165167" lon="-0.37849833">
        <ele>382.0</ele>
        <time>2017-05-27T11:10:56.513Z</time>
      </trkpt>
      <trkpt lat="40.00165167" lon="-0.37849833">
        <ele>382.0</ele>
        <time>2017-05-27T11:10:57.509Z</time>
      </trkpt>
      <trkpt lat="40.001715" lon="-0.37847333">
        <ele>382.0</ele>
        <time>2017-05-27T11:10:58.528Z</time>
      </trkpt>
      <trkpt lat="40.001715" lon="-0.37847333">
        <ele>382.0</ele>
        <time>2017-05-27T11:10:59.496Z</time>
      </trkpt>
      <trkpt lat="40.00177167" lon="-0.37843667">
        <ele>382.0</ele>
        <time>2017-05-27T11:11:00.527Z</time>
      </trkpt>
      <trkpt lat="40.00179667" lon="-0.378415">
        <ele>383.0</ele>
        <time>2017-05-27T11:11:01.492Z</time>
      </trkpt>
      <trkpt lat="40.00179667" lon="-0.378415">
        <ele>383.0</ele>
        <time>2017-05-27T11:11:02.509Z</time>
      </trkpt>
      <trkpt lat="40.00184167" lon="-0.37836167">
        <ele>383.0</ele>
        <time>2017-05-27T11:11:03.498Z</time>
      </trkpt>
      <trkpt lat="40.00184167" lon="-0.37836167">
        <ele>383.0</ele>
        <time>2017-05-27T11:11:04.529Z</time>
      </trkpt>
      <trkpt lat="40.00188333" lon="-0.37830333">
        <ele>383.0</ele>
        <time>2017-05-27T11:11:05.507Z</time>
      </trkpt>
      <trkpt lat="40.00190333" lon="-0.37827333">
        <ele>383.0</ele>
        <time>2017-05-27T11:11:06.513Z</time>
      </trkpt>
      <trkpt lat="40.00190333" lon="-0.37827333">
        <ele>383.0</ele>
        <time>2017-05-27T11:11:07.527Z</time>
      </trkpt>
      <trkpt lat="40.00193833" lon="-0.378215">
        <ele>384.0</ele>
        <time>2017-05-27T11:11:08.510Z</time>
      </trkpt>
      <trkpt lat="40.00193833" lon="-0.378215">
        <ele>384.0</ele>
        <time>2017-05-27T11:11:09.509Z</time>
      </trkpt>
      <trkpt lat="40.001975" lon="-0.37815667">
        <ele>384.0</ele>
        <time>2017-05-27T11:11:10.527Z</time>
      </trkpt>
      <trkpt lat="40.001975" lon="-0.37815667">
        <ele>384.0</ele>
        <time>2017-05-27T11:11:11.523Z</time>
      </trkpt>
      <trkpt lat="40.00202" lon="-0.37809833">
        <ele>384.0</ele>
        <time>2017-05-27T11:11:12.502Z</time>
      </trkpt>
      <trkpt lat="40.00202" lon="-0.37809833">
        <ele>384.0</ele>
        <time>2017-05-27T11:11:13.507Z</time>
      </trkpt>
      <trkpt lat="40.00207" lon="-0.37805333">
        <ele>384.0</ele>
        <time>2017-05-27T11:11:14.525Z</time>
      </trkpt>
      <trkpt lat="40.00207" lon="-0.37805333">
        <ele>384.0</ele>
        <time>2017-05-27T11:11:15.524Z</time>
      </trkpt>
      <trkpt lat="40.00212333" lon="-0.37802">
        <ele>384.0</ele>
        <time>2017-05-27T11:11:16.504Z</time>
      </trkpt>
      <trkpt lat="40.00212333" lon="-0.37802">
        <ele>384.0</ele>
        <time>2017-05-27T11:11:17.528Z</time>
      </trkpt>
      <trkpt lat="40.00218333" lon="-0.37800333">
        <ele>384.0</ele>
        <time>2017-05-27T11:11:18.516Z</time>
      </trkpt>
      <trkpt lat="40.00218333" lon="-0.37800333">
        <ele>384.0</ele>
        <time>2017-05-27T11:11:19.513Z</time>
      </trkpt>
      <trkpt lat="40.00224667" lon="-0.37801167">
        <ele>384.0</ele>
        <time>2017-05-27T11:11:20.512Z</time>
      </trkpt>
      <trkpt lat="40.00227833" lon="-0.378025">
        <ele>384.0</ele>
        <time>2017-05-27T11:11:21.534Z</time>
      </trkpt>
      <trkpt lat="40.00227833" lon="-0.378025">
        <ele>384.0</ele>
        <time>2017-05-27T11:11:22.503Z</time>
      </trkpt>
      <trkpt lat="40.00233333" lon="-0.37806">
        <ele>385.0</ele>
        <time>2017-05-27T11:11:23.528Z</time>
      </trkpt>
      <trkpt lat="40.00235833" lon="-0.37808167">
        <ele>385.0</ele>
        <time>2017-05-27T11:11:24.508Z</time>
      </trkpt>
      <trkpt lat="40.00235833" lon="-0.37808167">
        <ele>385.0</ele>
        <time>2017-05-27T11:11:25.499Z</time>
      </trkpt>
      <trkpt lat="40.00239833" lon="-0.37814">
        <ele>386.0</ele>
        <time>2017-05-27T11:11:26.533Z</time>
      </trkpt>
      <trkpt lat="40.002415" lon="-0.37817333">
        <ele>386.0</ele>
        <time>2017-05-27T11:11:27.504Z</time>
      </trkpt>
      <trkpt lat="40.002415" lon="-0.37817333">
        <ele>386.0</ele>
        <time>2017-05-27T11:11:28.524Z</time>
      </trkpt>
      <trkpt lat="40.00243833" lon="-0.378245">
        <ele>386.0</ele>
        <time>2017-05-27T11:11:29.496Z</time>
      </trkpt>
      <trkpt lat="40.002445" lon="-0.37828333">
        <ele>387.0</ele>
        <time>2017-05-27T11:11:30.532Z</time>
      </trkpt>
      <trkpt lat="40.002445" lon="-0.37828333">
        <ele>387.0</ele>
        <time>2017-05-27T11:11:31.514Z</time>
      </trkpt>
      <trkpt lat="40.00245167" lon="-0.37836">
        <ele>388.0</ele>
        <time>2017-05-27T11:11:32.502Z</time>
      </trkpt>
      <trkpt lat="40.00245167" lon="-0.37836">
        <ele>388.0</ele>
        <time>2017-05-27T11:11:33.516Z</time>
      </trkpt>
      <trkpt lat="40.002445" lon="-0.37843833">
        <ele>388.0</ele>
        <time>2017-05-27T11:11:34.494Z</time>
      </trkpt>
      <trkpt lat="40.002445" lon="-0.37843833">
        <ele>388.0</ele>
        <time>2017-05-27T11:11:35.513Z</time>
      </trkpt>
      <trkpt lat="40.002425" lon="-0.378515">
        <ele>389.0</ele>
        <time>2017-05-27T11:11:36.497Z</time>
      </trkpt>
      <trkpt lat="40.002425" lon="-0.378515">
        <ele>389.0</ele>
        <time>2017-05-27T11:11:37.511Z</time>
      </trkpt>
      <trkpt lat="40.00240167" lon="-0.37858833">
        <ele>389.0</ele>
        <time>2017-05-27T11:11:38.491Z</time>
      </trkpt>
      <trkpt lat="40.00238667" lon="-0.378625">
        <ele>389.0</ele>
        <time>2017-05-27T11:11:39.507Z</time>
      </trkpt>
      <trkpt lat="40.00238667" lon="-0.378625">
        <ele>389.0</ele>
        <time>2017-05-27T11:11:40.529Z</time>
      </trkpt>
      <trkpt lat="40.00235667" lon="-0.37869333">
        <ele>390.0</ele>
        <time>2017-05-27T11:11:41.527Z</time>
      </trkpt>
      <trkpt lat="40.00235667" lon="-0.37869333">
        <ele>390.0</ele>
        <time>2017-05-27T11:11:42.495Z</time>
      </trkpt>
      <trkpt lat="40.002325" lon="-0.37876">
        <ele>390.0</ele>
        <time>2017-05-27T11:11:43.524Z</time>
      </trkpt>
      <trkpt lat="40.002325" lon="-0.37876">
        <ele>390.0</ele>
        <time>2017-05-27T11:11:44.494Z</time>
      </trkpt>
      <trkpt lat="40.002295" lon="-0.37882667">
        <ele>390.0</ele>
        <time>2017-05-27T11:11:45.529Z</time>
      </trkpt>
      <trkpt lat="40.002295" lon="-0.37882667">
        <ele>390.0</ele>
        <time>2017-05-27T11:11:46.497Z</time>
      </trkpt>
      <trkpt lat="40.00226333" lon="-0.37889">
        <ele>391.0</ele>
        <time>2017-05-27T11:11:47.497Z</time>
      </trkpt>
      <trkpt lat="40.00226333" lon="-0.37889">
        <ele>391.0</ele>
        <time>2017-05-27T11:11:48.528Z</time>
      </trkpt>
      <trkpt lat="40.00222833" lon="-0.37895333">
        <ele>391.0</ele>
        <time>2017-05-27T11:11:49.515Z</time>
      </trkpt>
      <trkpt lat="40.00222833" lon="-0.37895333">
        <ele>391.0</ele>
        <time>2017-05-27T11:11:50.512Z</time>
      </trkpt>
      <trkpt lat="40.002195" lon="-0.37901833">
        <ele>391.0</ele>
        <time>2017-05-27T11:11:51.503Z</time>
      </trkpt>
      <trkpt lat="40.00217667" lon="-0.37905">
        <ele>392.0</ele>
        <time>2017-05-27T11:11:52.511Z</time>
      </trkpt>
      <trkpt lat="40.00217667" lon="-0.37905">
        <ele>392.0</ele>
        <time>2017-05-27T11:11:53.498Z</time>
      </trkpt>
      <trkpt lat="40.00214667" lon="-0.37911333">
        <ele>392.0</ele>
        <time>2017-05-27T11:11:54.521Z</time>
      </trkpt>
      <trkpt lat="40.00214667" lon="-0.37911333">
        <ele>392.0</ele>
        <time>2017-05-27T11:11:55.513Z</time>
      </trkpt>
      <trkpt lat="40.002115" lon="-0.37917333">
        <ele>392.0</ele>
        <time>2017-05-27T11:11:56.492Z</time>
      </trkpt>
      <trkpt lat="40.0021" lon="-0.37920333">
        <ele>392.0</ele>
        <time>2017-05-27T11:11:57.491Z</time>
      </trkpt>
      <trkpt lat="40.0021" lon="-0.37920333">
        <ele>392.0</ele>
        <time>2017-05-27T11:11:58.526Z</time>
      </trkpt>
      <trkpt lat="40.00207167" lon="-0.37926333">
        <ele>393.0</ele>
        <time>2017-05-27T11:11:59.515Z</time>
      </trkpt>
      <trkpt lat="40.00205667" lon="-0.37929333">
        <ele>393.0</ele>
        <time>2017-05-27T11:12:00.525Z</time>
      </trkpt>
      <trkpt lat="40.00205667" lon="-0.37929333">
        <ele>393.0</ele>
        <time>2017-05-27T11:12:01.500Z</time>
      </trkpt>
      <trkpt lat="40.00202833" lon="-0.37934833">
        <ele>393.0</ele>
        <time>2017-05-27T11:12:02.491Z</time>
      </trkpt>
      <trkpt lat="40.00202833" lon="-0.37934833">
        <ele>393.0</ele>
        <time>2017-05-27T11:12:03.530Z</time>
      </trkpt>
      <trkpt lat="40.00200833" lon="-0.37940833">
        <ele>394.0</ele>
        <time>2017-05-27T11:12:04.533Z</time>
      </trkpt>
      <trkpt lat="40.00200833" lon="-0.37940833">
        <ele>394.0</ele>
        <time>2017-05-27T11:12:05.522Z</time>
      </trkpt>
      <trkpt lat="40.001995" lon="-0.379475">
        <ele>394.0</ele>
        <time>2017-05-27T11:12:06.502Z</time>
      </trkpt>
      <trkpt lat="40.001995" lon="-0.379475">
        <ele>394.0</ele>
        <time>2017-05-27T11:12:07.500Z</time>
      </trkpt>
      <trkpt lat="40.00199" lon="-0.37954167">
        <ele>394.0</ele>
        <time>2017-05-27T11:12:08.531Z</time>
      </trkpt>
      <trkpt lat="40.00199167" lon="-0.379575">
        <ele>394.0</ele>
        <time>2017-05-27T11:12:09.495Z</time>
      </trkpt>
      <trkpt lat="40.00199167" lon="-0.379575">
        <ele>394.0</ele>
        <time>2017-05-27T11:12:10.501Z</time>
      </trkpt>
      <trkpt lat="40.00199667" lon="-0.379645">
        <ele>395.0</ele>
        <time>2017-05-27T11:12:11.524Z</time>
      </trkpt>
      <trkpt lat="40.00199667" lon="-0.379645">
        <ele>395.0</ele>
        <time>2017-05-27T11:12:12.495Z</time>
      </trkpt>
      <trkpt lat="40.00201167" lon="-0.37971">
        <ele>395.0</ele>
        <time>2017-05-27T11:12:13.512Z</time>
      </trkpt>
      <trkpt lat="40.00201167" lon="-0.37971">
        <ele>395.0</ele>
        <time>2017-05-27T11:12:14.496Z</time>
      </trkpt>
      <trkpt lat="40.002035" lon="-0.37977167">
        <ele>396.0</ele>
        <time>2017-05-27T11:12:15.518Z</time>
      </trkpt>
      <trkpt lat="40.00205" lon="-0.3798">
        <ele>396.0</ele>
        <time>2017-05-27T11:12:16.505Z</time>
      </trkpt>
      <trkpt lat="40.00205" lon="-0.3798">
        <ele>396.0</ele>
        <time>2017-05-27T11:12:17.520Z</time>
      </trkpt>
      <trkpt lat="40.00208167" lon="-0.379855">
        <ele>396.0</ele>
        <time>2017-05-27T11:12:18.507Z</time>
      </trkpt>
      <trkpt lat="40.00208167" lon="-0.379855">
        <ele>396.0</ele>
        <time>2017-05-27T11:12:19.497Z</time>
      </trkpt>
      <trkpt lat="40.00212" lon="-0.37990333">
        <ele>397.0</ele>
        <time>2017-05-27T11:12:20.530Z</time>
      </trkpt>
      <trkpt lat="40.00214333" lon="-0.379925">
        <ele>397.0</ele>
        <time>2017-05-27T11:12:21.517Z</time>
      </trkpt>
      <trkpt lat="40.00214333" lon="-0.379925">
        <ele>397.0</ele>
        <time>2017-05-27T11:12:22.522Z</time>
      </trkpt>
      <trkpt lat="40.00219833" lon="-0.37995667">
        <ele>397.0</ele>
        <time>2017-05-27T11:12:23.506Z</time>
      </trkpt>
      <trkpt lat="40.00222667" lon="-0.37997">
        <ele>397.0</ele>
        <time>2017-05-27T11:12:24.525Z</time>
      </trkpt>
      <trkpt lat="40.00222667" lon="-0.37997">
        <ele>397.0</ele>
        <time>2017-05-27T11:12:25.525Z</time>
      </trkpt>
      <trkpt lat="40.002285" lon="-0.379995">
        <ele>396.0</ele>
        <time>2017-05-27T11:12:26.503Z</time>
      </trkpt>
      <trkpt lat="40.002285" lon="-0.379995">
        <ele>396.0</ele>
        <time>2017-05-27T11:12:27.499Z</time>
      </trkpt>
      <trkpt lat="40.00234833" lon="-0.38000667">
        <ele>396.0</ele>
        <time>2017-05-27T11:12:28.525Z</time>
      </trkpt>
      <trkpt lat="40.00238167" lon="-0.38001333">
        <ele>396.0</ele>
        <time>2017-05-27T11:12:29.515Z</time>
      </trkpt>
      <trkpt lat="40.002415" lon="-0.38001833">
        <ele>396.0</ele>
        <time>2017-05-27T11:12:30.503Z</time>
      </trkpt>
      <trkpt lat="40.002415" lon="-0.38001833">
        <ele>396.0</ele>
        <time>2017-05-27T11:12:31.502Z</time>
      </trkpt>
      <trkpt lat="40.00248333" lon="-0.380035">
        <ele>396.0</ele>
        <time>2017-05-27T11:12:32.521Z</time>
      </trkpt>
      <trkpt lat="40.00252" lon="-0.38004167">
        <ele>396.0</ele>
        <time>2017-05-27T11:12:33.507Z</time>
      </trkpt>
      <trkpt lat="40.00252" lon="-0.38004167">
        <ele>396.0</ele>
        <time>2017-05-27T11:12:34.497Z</time>
      </trkpt>
      <trkpt lat="40.00259333" lon="-0.38005167">
        <ele>396.0</ele>
        <time>2017-05-27T11:12:35.531Z</time>
      </trkpt>
      <trkpt lat="40.00259333" lon="-0.38005167">
        <ele>396.0</ele>
        <time>2017-05-27T11:12:36.525Z</time>
      </trkpt>
      <trkpt lat="40.00267" lon="-0.380065">
        <ele>396.0</ele>
        <time>2017-05-27T11:12:37.512Z</time>
      </trkpt>
      <trkpt lat="40.00267" lon="-0.380065">
        <ele>396.0</ele>
        <time>2017-05-27T11:12:38.525Z</time>
      </trkpt>
      <trkpt lat="40.00275167" lon="-0.38008167">
        <ele>396.0</ele>
        <time>2017-05-27T11:12:39.534Z</time>
      </trkpt>
      <trkpt lat="40.00275167" lon="-0.38008167">
        <ele>396.0</ele>
        <time>2017-05-27T11:12:40.511Z</time>
      </trkpt>
      <trkpt lat="40.002835" lon="-0.38009667">
        <ele>396.0</ele>
        <time>2017-05-27T11:12:41.493Z</time>
      </trkpt>
      <trkpt lat="40.002835" lon="-0.38009667">
        <ele>396.0</ele>
        <time>2017-05-27T11:12:42.507Z</time>
      </trkpt>
      <trkpt lat="40.00291" lon="-0.38011">
        <ele>396.0</ele>
        <time>2017-05-27T11:12:43.532Z</time>
      </trkpt>
      <trkpt lat="40.00291" lon="-0.38011">
        <ele>396.0</ele>
        <time>2017-05-27T11:12:44.528Z</time>
      </trkpt>
      <trkpt lat="40.002985" lon="-0.38012667">
        <ele>396.0</ele>
        <time>2017-05-27T11:12:45.513Z</time>
      </trkpt>
      <trkpt lat="40.002985" lon="-0.38012667">
        <ele>396.0</ele>
        <time>2017-05-27T11:12:46.523Z</time>
      </trkpt>
      <trkpt lat="40.00305833" lon="-0.38014333">
        <ele>396.0</ele>
        <time>2017-05-27T11:12:47.532Z</time>
      </trkpt>
      <trkpt lat="40.00305833" lon="-0.38014333">
        <ele>396.0</ele>
        <time>2017-05-27T11:12:48.527Z</time>
      </trkpt>
      <trkpt lat="40.00313167" lon="-0.38015667">
        <ele>396.0</ele>
        <time>2017-05-27T11:12:49.508Z</time>
      </trkpt>
      <trkpt lat="40.00316833" lon="-0.38016333">
        <ele>396.0</ele>
        <time>2017-05-27T11:12:50.492Z</time>
      </trkpt>
      <trkpt lat="40.00316833" lon="-0.38016333">
        <ele>396.0</ele>
        <time>2017-05-27T11:12:51.513Z</time>
      </trkpt>
      <trkpt lat="40.003245" lon="-0.38017833">
        <ele>396.0</ele>
        <time>2017-05-27T11:12:52.515Z</time>
      </trkpt>
      <trkpt lat="40.003245" lon="-0.38017833">
        <ele>396.0</ele>
        <time>2017-05-27T11:12:53.528Z</time>
      </trkpt>
      <trkpt lat="40.00332" lon="-0.38019333">
        <ele>396.0</ele>
        <time>2017-05-27T11:12:54.510Z</time>
      </trkpt>
      <trkpt lat="40.00332" lon="-0.38019333">
        <ele>396.0</ele>
        <time>2017-05-27T11:12:55.519Z</time>
      </trkpt>
      <trkpt lat="40.003395" lon="-0.38020667">
        <ele>396.0</ele>
        <time>2017-05-27T11:12:56.512Z</time>
      </trkpt>
      <trkpt lat="40.00343167" lon="-0.380215">
        <ele>396.0</ele>
        <time>2017-05-27T11:12:57.517Z</time>
      </trkpt>
      <trkpt lat="40.00343167" lon="-0.380215">
        <ele>396.0</ele>
        <time>2017-05-27T11:12:58.529Z</time>
      </trkpt>
      <trkpt lat="40.00350167" lon="-0.38025">
        <ele>395.0</ele>
        <time>2017-05-27T11:12:59.527Z</time>
      </trkpt>
      <trkpt lat="40.003535" lon="-0.38027333">
        <ele>395.0</ele>
        <time>2017-05-27T11:13:00.527Z</time>
      </trkpt>
      <trkpt lat="40.003535" lon="-0.38027333">
        <ele>395.0</ele>
        <time>2017-05-27T11:13:01.525Z</time>
      </trkpt>
      <trkpt lat="40.0036" lon="-0.38033333">
        <ele>396.0</ele>
        <time>2017-05-27T11:13:02.503Z</time>
      </trkpt>
      <trkpt lat="40.00362833" lon="-0.38037333">
        <ele>396.0</ele>
        <time>2017-05-27T11:13:03.495Z</time>
      </trkpt>
      <trkpt lat="40.00362833" lon="-0.38037333">
        <ele>396.0</ele>
        <time>2017-05-27T11:13:04.512Z</time>
      </trkpt>
      <trkpt lat="40.00367" lon="-0.38047167">
        <ele>396.0</ele>
        <time>2017-05-27T11:13:05.500Z</time>
      </trkpt>
      <trkpt lat="40.00367" lon="-0.38047167">
        <ele>396.0</ele>
        <time>2017-05-27T11:13:06.492Z</time>
      </trkpt>
      <trkpt lat="40.00368667" lon="-0.38058667">
        <ele>396.0</ele>
        <time>2017-05-27T11:13:07.521Z</time>
      </trkpt>
      <trkpt lat="40.00368667" lon="-0.38058667">
        <ele>396.0</ele>
        <time>2017-05-27T11:13:08.529Z</time>
      </trkpt>
      <trkpt lat="40.00368167" lon="-0.38070333">
        <ele>396.0</ele>
        <time>2017-05-27T11:13:09.517Z</time>
      </trkpt>
      <trkpt lat="40.00367167" lon="-0.38075667">
        <ele>396.0</ele>
        <time>2017-05-27T11:13:10.507Z</time>
      </trkpt>
      <trkpt lat="40.00365333" lon="-0.38080833">
        <ele>396.0</ele>
        <time>2017-05-27T11:13:11.503Z</time>
      </trkpt>
      <trkpt lat="40.00365333" lon="-0.38080833">
        <ele>396.0</ele>
        <time>2017-05-27T11:13:12.510Z</time>
      </trkpt>
      <trkpt lat="40.00361167" lon="-0.3809">
        <ele>396.0</ele>
        <time>2017-05-27T11:13:13.531Z</time>
      </trkpt>
      <trkpt lat="40.00361167" lon="-0.3809">
        <ele>396.0</ele>
        <time>2017-05-27T11:13:14.513Z</time>
      </trkpt>
      <trkpt lat="40.00356" lon="-0.38098167">
        <ele>397.0</ele>
        <time>2017-05-27T11:13:15.491Z</time>
      </trkpt>
      <trkpt lat="40.00356" lon="-0.38098167">
        <ele>397.0</ele>
        <time>2017-05-27T11:13:16.517Z</time>
      </trkpt>
      <trkpt lat="40.003505" lon="-0.38106167">
        <ele>397.0</ele>
        <time>2017-05-27T11:13:17.499Z</time>
      </trkpt>
      <trkpt lat="40.003505" lon="-0.38106167">
        <ele>397.0</ele>
        <time>2017-05-27T11:13:18.525Z</time>
      </trkpt>
      <trkpt lat="40.003455" lon="-0.38115">
        <ele>397.0</ele>
        <time>2017-05-27T11:13:19.517Z</time>
      </trkpt>
      <trkpt lat="40.003455" lon="-0.38115">
        <ele>397.0</ele>
        <time>2017-05-27T11:13:20.495Z</time>
      </trkpt>
      <trkpt lat="40.00341833" lon="-0.38125167">
        <ele>398.0</ele>
        <time>2017-05-27T11:13:21.518Z</time>
      </trkpt>
      <trkpt lat="40.00341833" lon="-0.38125167">
        <ele>398.0</ele>
        <time>2017-05-27T11:13:22.516Z</time>
      </trkpt>
      <trkpt lat="40.00340833" lon="-0.38135667">
        <ele>398.0</ele>
        <time>2017-05-27T11:13:23.496Z</time>
      </trkpt>
      <trkpt lat="40.00341333" lon="-0.38140833">
        <ele>398.0</ele>
        <time>2017-05-27T11:13:24.528Z</time>
      </trkpt>
      <trkpt lat="40.00341333" lon="-0.38140833">
        <ele>398.0</ele>
        <time>2017-05-27T11:13:25.524Z</time>
      </trkpt>
      <trkpt lat="40.00342833" lon="-0.38151">
        <ele>399.0</ele>
        <time>2017-05-27T11:13:26.510Z</time>
      </trkpt>
      <trkpt lat="40.00343667" lon="-0.38155833">
        <ele>399.0</ele>
        <time>2017-05-27T11:13:27.492Z</time>
      </trkpt>
      <trkpt lat="40.00344833" lon="-0.381605">
        <ele>399.0</ele>
        <time>2017-05-27T11:13:28.520Z</time>
      </trkpt>
      <trkpt lat="40.00344833" lon="-0.381605">
        <ele>399.0</ele>
        <time>2017-05-27T11:13:29.525Z</time>
      </trkpt>
      <trkpt lat="40.00347" lon="-0.38170167">
        <ele>400.0</ele>
        <time>2017-05-27T11:13:30.518Z</time>
      </trkpt>
      <trkpt lat="40.00348167" lon="-0.38174833">
        <ele>400.0</ele>
        <time>2017-05-27T11:13:31.520Z</time>
      </trkpt>
      <trkpt lat="40.00348167" lon="-0.38174833">
        <ele>400.0</ele>
        <time>2017-05-27T11:13:32.515Z</time>
      </trkpt>
      <trkpt lat="40.003505" lon="-0.38184167">
        <ele>401.0</ele>
        <time>2017-05-27T11:13:33.502Z</time>
      </trkpt>
      <trkpt lat="40.003505" lon="-0.38184167">
        <ele>401.0</ele>
        <time>2017-05-27T11:13:34.517Z</time>
      </trkpt>
      <trkpt lat="40.00352833" lon="-0.381925">
        <ele>401.0</ele>
        <time>2017-05-27T11:13:35.501Z</time>
      </trkpt>
      <trkpt lat="40.00352833" lon="-0.381925">
        <ele>401.0</ele>
        <time>2017-05-27T11:13:36.520Z</time>
      </trkpt>
      <trkpt lat="40.00354833" lon="-0.38200667">
        <ele>402.0</ele>
        <time>2017-05-27T11:13:37.499Z</time>
      </trkpt>
      <trkpt lat="40.00356333" lon="-0.382045">
        <ele>402.0</ele>
        <time>2017-05-27T11:13:38.532Z</time>
      </trkpt>
      <trkpt lat="40.00358" lon="-0.38208333">
        <ele>402.0</ele>
        <time>2017-05-27T11:13:39.531Z</time>
      </trkpt>
      <trkpt lat="40.00358" lon="-0.38208333">
        <ele>402.0</ele>
        <time>2017-05-27T11:13:40.514Z</time>
      </trkpt>
      <trkpt lat="40.00361333" lon="-0.38215667">
        <ele>403.0</ele>
        <time>2017-05-27T11:13:41.493Z</time>
      </trkpt>
      <trkpt lat="40.00361333" lon="-0.38215667">
        <ele>403.0</ele>
        <time>2017-05-27T11:13:42.523Z</time>
      </trkpt>
      <trkpt lat="40.003655" lon="-0.38222667">
        <ele>404.0</ele>
        <time>2017-05-27T11:13:43.513Z</time>
      </trkpt>
      <trkpt lat="40.00368" lon="-0.38225667">
        <ele>404.0</ele>
        <time>2017-05-27T11:13:44.507Z</time>
      </trkpt>
      <trkpt lat="40.003705" lon="-0.382285">
        <ele>404.0</ele>
        <time>2017-05-27T11:13:45.524Z</time>
      </trkpt>
      <trkpt lat="40.003705" lon="-0.382285">
        <ele>404.0</ele>
        <time>2017-05-27T11:13:46.528Z</time>
      </trkpt>
      <trkpt lat="40.00376333" lon="-0.38233667">
        <ele>404.0</ele>
        <time>2017-05-27T11:13:47.508Z</time>
      </trkpt>
      <trkpt lat="40.00376333" lon="-0.38233667">
        <ele>404.0</ele>
        <time>2017-05-27T11:13:48.494Z</time>
      </trkpt>
      <trkpt lat="40.00382333" lon="-0.38238667">
        <ele>404.0</ele>
        <time>2017-05-27T11:13:49.514Z</time>
      </trkpt>
      <trkpt lat="40.00385667" lon="-0.38241">
        <ele>405.0</ele>
        <time>2017-05-27T11:13:50.525Z</time>
      </trkpt>
      <trkpt lat="40.00389333" lon="-0.38242833">
        <ele>405.0</ele>
        <time>2017-05-27T11:13:51.532Z</time>
      </trkpt>
      <trkpt lat="40.00389333" lon="-0.38242833">
        <ele>405.0</ele>
        <time>2017-05-27T11:13:52.527Z</time>
      </trkpt>
      <trkpt lat="40.003955" lon="-0.382475">
        <ele>405.0</ele>
        <time>2017-05-27T11:13:53.523Z</time>
      </trkpt>
      <trkpt lat="40.003955" lon="-0.382475">
        <ele>405.0</ele>
        <time>2017-05-27T11:13:54.498Z</time>
      </trkpt>
      <trkpt lat="40.00402" lon="-0.38251833">
        <ele>405.0</ele>
        <time>2017-05-27T11:13:55.527Z</time>
      </trkpt>
      <trkpt lat="40.00405" lon="-0.38254167">
        <ele>405.0</ele>
        <time>2017-05-27T11:13:56.515Z</time>
      </trkpt>
      <trkpt lat="40.00408" lon="-0.382565">
        <ele>405.0</ele>
        <time>2017-05-27T11:13:57.513Z</time>
      </trkpt>
      <trkpt lat="40.00408" lon="-0.382565">
        <ele>405.0</ele>
        <time>2017-05-27T11:13:58.526Z</time>
      </trkpt>
      <trkpt lat="40.00414167" lon="-0.38260833">
        <ele>405.0</ele>
        <time>2017-05-27T11:13:59.493Z</time>
      </trkpt>
      <trkpt lat="40.00417333" lon="-0.38263">
        <ele>406.0</ele>
        <time>2017-05-27T11:14:00.514Z</time>
      </trkpt>
      <trkpt lat="40.00417333" lon="-0.38263">
        <ele>406.0</ele>
        <time>2017-05-27T11:14:01.525Z</time>
      </trkpt>
      <trkpt lat="40.004235" lon="-0.382675">
        <ele>405.0</ele>
        <time>2017-05-27T11:14:02.497Z</time>
      </trkpt>
      <trkpt lat="40.004265" lon="-0.3827">
        <ele>406.0</ele>
        <time>2017-05-27T11:14:03.504Z</time>
      </trkpt>
      <trkpt lat="40.004265" lon="-0.3827">
        <ele>406.0</ele>
        <time>2017-05-27T11:14:04.501Z</time>
      </trkpt>
      <trkpt lat="40.004325" lon="-0.38275167">
        <ele>406.0</ele>
        <time>2017-05-27T11:14:05.533Z</time>
      </trkpt>
      <trkpt lat="40.004325" lon="-0.38275167">
        <ele>406.0</ele>
        <time>2017-05-27T11:14:06.529Z</time>
      </trkpt>
      <trkpt lat="40.00439167" lon="-0.38280333">
        <ele>406.0</ele>
        <time>2017-05-27T11:14:07.507Z</time>
      </trkpt>
      <trkpt lat="40.00439167" lon="-0.38280333">
        <ele>406.0</ele>
        <time>2017-05-27T11:14:08.500Z</time>
      </trkpt>
      <trkpt lat="40.00446" lon="-0.38285667">
        <ele>406.0</ele>
        <time>2017-05-27T11:14:09.523Z</time>
      </trkpt>
      <trkpt lat="40.00446" lon="-0.38285667">
        <ele>406.0</ele>
        <time>2017-05-27T11:14:10.528Z</time>
      </trkpt>
      <trkpt lat="40.00453" lon="-0.38291333">
        <ele>406.0</ele>
        <time>2017-05-27T11:14:11.516Z</time>
      </trkpt>
      <trkpt lat="40.004565" lon="-0.38294333">
        <ele>406.0</ele>
        <time>2017-05-27T11:14:12.516Z</time>
      </trkpt>
      <trkpt lat="40.004565" lon="-0.38294333">
        <ele>406.0</ele>
        <time>2017-05-27T11:14:13.530Z</time>
      </trkpt>
      <trkpt lat="40.00463333" lon="-0.383005">
        <ele>406.0</ele>
        <time>2017-05-27T11:14:14.514Z</time>
      </trkpt>
      <trkpt lat="40.00466667" lon="-0.38303833">
        <ele>406.0</ele>
        <time>2017-05-27T11:14:15.519Z</time>
      </trkpt>
      <trkpt lat="40.00466667" lon="-0.38303833">
        <ele>406.0</ele>
        <time>2017-05-27T11:14:16.494Z</time>
      </trkpt>
      <trkpt lat="40.00473" lon="-0.383105">
        <ele>406.0</ele>
        <time>2017-05-27T11:14:17.520Z</time>
      </trkpt>
      <trkpt lat="40.00476333" lon="-0.38314">
        <ele>406.0</ele>
        <time>2017-05-27T11:14:18.497Z</time>
      </trkpt>
      <trkpt lat="40.00476333" lon="-0.38314">
        <ele>406.0</ele>
        <time>2017-05-27T11:14:19.530Z</time>
      </trkpt>
      <trkpt lat="40.00483" lon="-0.38321667">
        <ele>407.0</ele>
        <time>2017-05-27T11:14:20.517Z</time>
      </trkpt>
      <trkpt lat="40.00486333" lon="-0.38326">
        <ele>406.0</ele>
        <time>2017-05-27T11:14:21.512Z</time>
      </trkpt>
      <trkpt lat="40.00486333" lon="-0.38326">
        <ele>406.0</ele>
        <time>2017-05-27T11:14:22.527Z</time>
      </trkpt>
      <trkpt lat="40.00492333" lon="-0.38335333">
        <ele>406.0</ele>
        <time>2017-05-27T11:14:23.529Z</time>
      </trkpt>
      <trkpt lat="40.00492333" lon="-0.38335333">
        <ele>406.0</ele>
        <time>2017-05-27T11:14:24.492Z</time>
      </trkpt>
      <trkpt lat="40.00497333" lon="-0.383455">
        <ele>406.0</ele>
        <time>2017-05-27T11:14:25.516Z</time>
      </trkpt>
      <trkpt lat="40.004995" lon="-0.38351167">
        <ele>406.0</ele>
        <time>2017-05-27T11:14:26.492Z</time>
      </trkpt>
      <trkpt lat="40.004995" lon="-0.38351167">
        <ele>406.0</ele>
        <time>2017-05-27T11:14:27.504Z</time>
      </trkpt>
      <trkpt lat="40.00503167" lon="-0.38362833">
        <ele>406.0</ele>
        <time>2017-05-27T11:14:28.529Z</time>
      </trkpt>
      <trkpt lat="40.005045" lon="-0.38369">
        <ele>406.0</ele>
        <time>2017-05-27T11:14:29.506Z</time>
      </trkpt>
      <trkpt lat="40.005045" lon="-0.38369">
        <ele>406.0</ele>
        <time>2017-05-27T11:14:30.512Z</time>
      </trkpt>
      <trkpt lat="40.00506667" lon="-0.38381333">
        <ele>406.0</ele>
        <time>2017-05-27T11:14:31.524Z</time>
      </trkpt>
      <trkpt lat="40.00506667" lon="-0.38381333">
        <ele>406.0</ele>
        <time>2017-05-27T11:14:32.503Z</time>
      </trkpt>
      <trkpt lat="40.005085" lon="-0.38394">
        <ele>406.0</ele>
        <time>2017-05-27T11:14:33.527Z</time>
      </trkpt>
      <trkpt lat="40.005085" lon="-0.38394">
        <ele>406.0</ele>
        <time>2017-05-27T11:14:34.526Z</time>
      </trkpt>
      <trkpt lat="40.00510333" lon="-0.384075">
        <ele>406.0</ele>
        <time>2017-05-27T11:14:35.527Z</time>
      </trkpt>
      <trkpt lat="40.00510333" lon="-0.384075">
        <ele>406.0</ele>
        <time>2017-05-27T11:14:36.521Z</time>
      </trkpt>
      <trkpt lat="40.00512" lon="-0.38421167">
        <ele>406.0</ele>
        <time>2017-05-27T11:14:37.501Z</time>
      </trkpt>
      <trkpt lat="40.00513" lon="-0.38428167">
        <ele>406.0</ele>
        <time>2017-05-27T11:14:38.494Z</time>
      </trkpt>
      <trkpt lat="40.00513833" lon="-0.384355">
        <ele>406.0</ele>
        <time>2017-05-27T11:14:39.516Z</time>
      </trkpt>
      <trkpt lat="40.00513833" lon="-0.384355">
        <ele>406.0</ele>
        <time>2017-05-27T11:14:40.498Z</time>
      </trkpt>
      <trkpt lat="40.00517333" lon="-0.384495">
        <ele>406.0</ele>
        <time>2017-05-27T11:14:41.513Z</time>
      </trkpt>
      <trkpt lat="40.00517333" lon="-0.384495">
        <ele>406.0</ele>
        <time>2017-05-27T11:14:42.493Z</time>
      </trkpt>
      <trkpt lat="40.00523667" lon="-0.38462">
        <ele>406.0</ele>
        <time>2017-05-27T11:14:43.520Z</time>
      </trkpt>
      <trkpt lat="40.00523667" lon="-0.38462">
        <ele>406.0</ele>
        <time>2017-05-27T11:14:44.498Z</time>
      </trkpt>
      <trkpt lat="40.00531833" lon="-0.38471833">
        <ele>406.0</ele>
        <time>2017-05-27T11:14:45.521Z</time>
      </trkpt>
      <trkpt lat="40.00531833" lon="-0.38471833">
        <ele>406.0</ele>
        <time>2017-05-27T11:14:46.510Z</time>
      </trkpt>
      <trkpt lat="40.00542167" lon="-0.38479167">
        <ele>406.0</ele>
        <time>2017-05-27T11:14:47.496Z</time>
      </trkpt>
      <trkpt lat="40.00542167" lon="-0.38479167">
        <ele>406.0</ele>
        <time>2017-05-27T11:14:48.492Z</time>
      </trkpt>
      <trkpt lat="40.00553167" lon="-0.384855">
        <ele>406.0</ele>
        <time>2017-05-27T11:14:49.534Z</time>
      </trkpt>
      <trkpt lat="40.00553167" lon="-0.384855">
        <ele>406.0</ele>
        <time>2017-05-27T11:14:50.497Z</time>
      </trkpt>
      <trkpt lat="40.00563833" lon="-0.38491333">
        <ele>406.0</ele>
        <time>2017-05-27T11:14:51.507Z</time>
      </trkpt>
      <trkpt lat="40.00563833" lon="-0.38491333">
        <ele>406.0</ele>
        <time>2017-05-27T11:14:52.495Z</time>
      </trkpt>
      <trkpt lat="40.00573667" lon="-0.38499">
        <ele>406.0</ele>
        <time>2017-05-27T11:14:53.509Z</time>
      </trkpt>
      <trkpt lat="40.00578" lon="-0.38504">
        <ele>406.0</ele>
        <time>2017-05-27T11:14:54.498Z</time>
      </trkpt>
      <trkpt lat="40.00578" lon="-0.38504">
        <ele>406.0</ele>
        <time>2017-05-27T11:14:55.499Z</time>
      </trkpt>
      <trkpt lat="40.00585167" lon="-0.38516167">
        <ele>405.0</ele>
        <time>2017-05-27T11:14:56.521Z</time>
      </trkpt>
      <trkpt lat="40.00588167" lon="-0.38522667">
        <ele>405.0</ele>
        <time>2017-05-27T11:14:57.532Z</time>
      </trkpt>
      <trkpt lat="40.00588167" lon="-0.38522667">
        <ele>405.0</ele>
        <time>2017-05-27T11:14:58.513Z</time>
      </trkpt>
      <trkpt lat="40.00592833" lon="-0.385365">
        <ele>405.0</ele>
        <time>2017-05-27T11:14:59.497Z</time>
      </trkpt>
      <trkpt lat="40.00592833" lon="-0.385365">
        <ele>405.0</ele>
        <time>2017-05-27T11:15:00.513Z</time>
      </trkpt>
      <trkpt lat="40.00594333" lon="-0.385515">
        <ele>405.0</ele>
        <time>2017-05-27T11:15:01.495Z</time>
      </trkpt>
      <trkpt lat="40.00594333" lon="-0.385515">
        <ele>405.0</ele>
        <time>2017-05-27T11:15:02.509Z</time>
      </trkpt>
      <trkpt lat="40.00593333" lon="-0.38567">
        <ele>405.0</ele>
        <time>2017-05-27T11:15:03.531Z</time>
      </trkpt>
      <trkpt lat="40.00593333" lon="-0.38567">
        <ele>405.0</ele>
        <time>2017-05-27T11:15:04.526Z</time>
      </trkpt>
      <trkpt lat="40.00589" lon="-0.38581667">
        <ele>405.0</ele>
        <time>2017-05-27T11:15:05.510Z</time>
      </trkpt>
      <trkpt lat="40.00586" lon="-0.38588833">
        <ele>405.0</ele>
        <time>2017-05-27T11:15:06.497Z</time>
      </trkpt>
      <trkpt lat="40.00586" lon="-0.38588833">
        <ele>405.0</ele>
        <time>2017-05-27T11:15:07.530Z</time>
      </trkpt>
      <trkpt lat="40.00579333" lon="-0.38603">
        <ele>404.0</ele>
        <time>2017-05-27T11:15:08.513Z</time>
      </trkpt>
      <trkpt lat="40.00575667" lon="-0.3861">
        <ele>404.0</ele>
        <time>2017-05-27T11:15:09.535Z</time>
      </trkpt>
      <trkpt lat="40.00575667" lon="-0.3861">
        <ele>404.0</ele>
        <time>2017-05-27T11:15:10.529Z</time>
      </trkpt>
      <trkpt lat="40.00568167" lon="-0.38624667">
        <ele>404.0</ele>
        <time>2017-05-27T11:15:11.508Z</time>
      </trkpt>
      <trkpt lat="40.00568167" lon="-0.38624667">
        <ele>404.0</ele>
        <time>2017-05-27T11:15:12.500Z</time>
      </trkpt>
      <trkpt lat="40.00560333" lon="-0.38639333">
        <ele>404.0</ele>
        <time>2017-05-27T11:15:13.527Z</time>
      </trkpt>
      <trkpt lat="40.00556333" lon="-0.386465">
        <ele>404.0</ele>
        <time>2017-05-27T11:15:14.523Z</time>
      </trkpt>
      <trkpt lat="40.00556333" lon="-0.386465">
        <ele>404.0</ele>
        <time>2017-05-27T11:15:15.521Z</time>
      </trkpt>
      <trkpt lat="40.00548333" lon="-0.38660833">
        <ele>403.0</ele>
        <time>2017-05-27T11:15:16.497Z</time>
      </trkpt>
      <trkpt lat="40.00548333" lon="-0.38660833">
        <ele>403.0</ele>
        <time>2017-05-27T11:15:17.492Z</time>
      </trkpt>
      <trkpt lat="40.00541667" lon="-0.386745">
        <ele>403.0</ele>
        <time>2017-05-27T11:15:18.523Z</time>
      </trkpt>
      <trkpt lat="40.00541667" lon="-0.386745">
        <ele>403.0</ele>
        <time>2017-05-27T11:15:19.499Z</time>
      </trkpt>
      <trkpt lat="40.00534833" lon="-0.38687">
        <ele>403.0</ele>
        <time>2017-05-27T11:15:20.513Z</time>
      </trkpt>
      <trkpt lat="40.005315" lon="-0.38693167">
        <ele>403.0</ele>
        <time>2017-05-27T11:15:21.503Z</time>
      </trkpt>
      <trkpt lat="40.005315" lon="-0.38693167">
        <ele>403.0</ele>
        <time>2017-05-27T11:15:22.524Z</time>
      </trkpt>
      <trkpt lat="40.00524833" lon="-0.387055">
        <ele>403.0</ele>
        <time>2017-05-27T11:15:23.503Z</time>
      </trkpt>
      <trkpt lat="40.00524833" lon="-0.387055">
        <ele>403.0</ele>
        <time>2017-05-27T11:15:24.503Z</time>
      </trkpt>
      <trkpt lat="40.00518333" lon="-0.38717667">
        <ele>403.0</ele>
        <time>2017-05-27T11:15:25.526Z</time>
      </trkpt>
      <trkpt lat="40.00514833" lon="-0.38723667">
        <ele>403.0</ele>
        <time>2017-05-27T11:15:26.501Z</time>
      </trkpt>
      <trkpt lat="40.00514833" lon="-0.38723667">
        <ele>403.0</ele>
        <time>2017-05-27T11:15:27.525Z</time>
      </trkpt>
      <trkpt lat="40.00508" lon="-0.38734167">
        <ele>403.0</ele>
        <time>2017-05-27T11:15:28.504Z</time>
      </trkpt>
      <trkpt lat="40.00508" lon="-0.38734167">
        <ele>403.0</ele>
        <time>2017-05-27T11:15:29.530Z</time>
      </trkpt>
      <trkpt lat="40.00500333" lon="-0.38744667">
        <ele>403.0</ele>
        <time>2017-05-27T11:15:30.510Z</time>
      </trkpt>
      <trkpt lat="40.00500333" lon="-0.38744667">
        <ele>403.0</ele>
        <time>2017-05-27T11:15:31.513Z</time>
      </trkpt>
      <trkpt lat="40.00492667" lon="-0.38754833">
        <ele>403.0</ele>
        <time>2017-05-27T11:15:32.505Z</time>
      </trkpt>
      <trkpt lat="40.00488667" lon="-0.387595">
        <ele>403.0</ele>
        <time>2017-05-27T11:15:33.506Z</time>
      </trkpt>
      <trkpt lat="40.00488667" lon="-0.387595">
        <ele>403.0</ele>
        <time>2017-05-27T11:15:34.498Z</time>
      </trkpt>
      <trkpt lat="40.00480833" lon="-0.38769">
        <ele>403.0</ele>
        <time>2017-05-27T11:15:35.515Z</time>
      </trkpt>
      <trkpt lat="40.00480833" lon="-0.38769">
        <ele>403.0</ele>
        <time>2017-05-27T11:15:36.527Z</time>
      </trkpt>
      <trkpt lat="40.00473" lon="-0.38778333">
        <ele>403.0</ele>
        <time>2017-05-27T11:15:37.514Z</time>
      </trkpt>
      <trkpt lat="40.00473" lon="-0.38778333">
        <ele>403.0</ele>
        <time>2017-05-27T11:15:38.529Z</time>
      </trkpt>
      <trkpt lat="40.00465833" lon="-0.38787333">
        <ele>403.0</ele>
        <time>2017-05-27T11:15:39.519Z</time>
      </trkpt>
      <trkpt lat="40.00465833" lon="-0.38787333">
        <ele>403.0</ele>
        <time>2017-05-27T11:15:40.501Z</time>
      </trkpt>
      <trkpt lat="40.00459" lon="-0.38796">
        <ele>403.0</ele>
        <time>2017-05-27T11:15:41.522Z</time>
      </trkpt>
      <trkpt lat="40.00459" lon="-0.38796">
        <ele>403.0</ele>
        <time>2017-05-27T11:15:42.492Z</time>
      </trkpt>
      <trkpt lat="40.00453167" lon="-0.38804333">
        <ele>403.0</ele>
        <time>2017-05-27T11:15:43.506Z</time>
      </trkpt>
      <trkpt lat="40.00450167" lon="-0.38808333">
        <ele>403.0</ele>
        <time>2017-05-27T11:15:44.494Z</time>
      </trkpt>
      <trkpt lat="40.00450167" lon="-0.38808333">
        <ele>403.0</ele>
        <time>2017-05-27T11:15:45.510Z</time>
      </trkpt>
      <trkpt lat="40.00445167" lon="-0.38815">
        <ele>403.0</ele>
        <time>2017-05-27T11:15:46.502Z</time>
      </trkpt>
      <trkpt lat="40.004425" lon="-0.38817167">
        <ele>403.0</ele>
        <time>2017-05-27T11:15:47.494Z</time>
      </trkpt>
      <trkpt lat="40.0044" lon="-0.38818">
        <ele>403.0</ele>
        <time>2017-05-27T11:15:48.497Z</time>
      </trkpt>
      <trkpt lat="40.0044" lon="-0.38818">
        <ele>403.0</ele>
        <time>2017-05-27T11:15:49.499Z</time>
      </trkpt>
      <trkpt lat="40.00436" lon="-0.38818667">
        <ele>403.0</ele>
        <time>2017-05-27T11:15:50.531Z</time>
      </trkpt>
      <trkpt lat="40.00434" lon="-0.38819333">
        <ele>403.0</ele>
        <time>2017-05-27T11:15:51.511Z</time>
      </trkpt>
      <trkpt lat="40.00434" lon="-0.38819333">
        <ele>403.0</ele>
        <time>2017-05-27T11:15:52.526Z</time>
      </trkpt>
      <trkpt lat="40.00431333" lon="-0.388205">
        <ele>403.0</ele>
        <time>2017-05-27T11:15:53.500Z</time>
      </trkpt>
      <trkpt lat="40.00431" lon="-0.38820667">
        <ele>403.0</ele>
        <time>2017-05-27T11:15:54.497Z</time>
      </trkpt>
      <trkpt lat="40.00431" lon="-0.38820667">
        <ele>403.0</ele>
        <time>2017-05-27T11:15:55.510Z</time>
      </trkpt>
      <trkpt lat="40.00429833" lon="-0.388205">
        <ele>403.0</ele>
        <time>2017-05-27T11:15:56.501Z</time>
      </trkpt>
      <trkpt lat="40.00429833" lon="-0.388205">
        <ele>403.0</ele>
        <time>2017-05-27T11:15:57.515Z</time>
      </trkpt>
      <trkpt lat="40.00429167" lon="-0.388205">
        <ele>403.0</ele>
        <time>2017-05-27T11:15:58.521Z</time>
      </trkpt>
      <trkpt lat="40.00429167" lon="-0.388205">
        <ele>403.0</ele>
        <time>2017-05-27T11:15:59.527Z</time>
      </trkpt>
      <trkpt lat="40.00429333" lon="-0.38820333">
        <ele>403.0</ele>
        <time>2017-05-27T11:16:00.507Z</time>
      </trkpt>
      <trkpt lat="40.004255" lon="-0.388175">
        <ele>395.0</ele>
        <time>2017-05-27T11:16:01.515Z</time>
      </trkpt>
      <trkpt lat="40.00421167" lon="-0.38818667">
        <ele>395.0</ele>
        <time>2017-05-27T11:16:02.540Z</time>
      </trkpt>
      <trkpt lat="40.00421167" lon="-0.38818667">
        <ele>395.0</ele>
        <time>2017-05-27T11:16:03.522Z</time>
      </trkpt>
      <trkpt lat="40.00411833" lon="-0.38824">
        <ele>394.0</ele>
        <time>2017-05-27T11:16:04.496Z</time>
      </trkpt>
      <trkpt lat="40.00411833" lon="-0.38824">
        <ele>394.0</ele>
        <time>2017-05-27T11:16:05.502Z</time>
      </trkpt>
      <trkpt lat="40.00403167" lon="-0.38834">
        <ele>394.0</ele>
        <time>2017-05-27T11:16:06.529Z</time>
      </trkpt>
      <trkpt lat="40.003995" lon="-0.38840833">
        <ele>394.0</ele>
        <time>2017-05-27T11:16:07.523Z</time>
      </trkpt>
      <trkpt lat="40.003995" lon="-0.38840833">
        <ele>394.0</ele>
        <time>2017-05-27T11:16:08.496Z</time>
      </trkpt>
      <trkpt lat="40.00394" lon="-0.38856167">
        <ele>393.0</ele>
        <time>2017-05-27T11:16:09.496Z</time>
      </trkpt>
      <trkpt lat="40.00394" lon="-0.38856167">
        <ele>393.0</ele>
        <time>2017-05-27T11:16:10.502Z</time>
      </trkpt>
      <trkpt lat="40.00390667" lon="-0.388735">
        <ele>392.0</ele>
        <time>2017-05-27T11:16:11.495Z</time>
      </trkpt>
      <trkpt lat="40.00390667" lon="-0.388735">
        <ele>392.0</ele>
        <time>2017-05-27T11:16:12.506Z</time>
      </trkpt>
      <trkpt lat="40.00388167" lon="-0.38892667">
        <ele>390.0</ele>
        <time>2017-05-27T11:16:13.496Z</time>
      </trkpt>
      <trkpt lat="40.00388167" lon="-0.38892667">
        <ele>390.0</ele>
        <time>2017-05-27T11:16:14.505Z</time>
      </trkpt>
      <trkpt lat="40.00387333" lon="-0.38911667">
        <ele>389.0</ele>
        <time>2017-05-27T11:16:15.509Z</time>
      </trkpt>
      <trkpt lat="40.00387333" lon="-0.38911667">
        <ele>389.0</ele>
        <time>2017-05-27T11:16:16.515Z</time>
      </trkpt>
      <trkpt lat="40.0039" lon="-0.38929333">
        <ele>388.0</ele>
        <time>2017-05-27T11:16:17.510Z</time>
      </trkpt>
      <trkpt lat="40.0039" lon="-0.38929333">
        <ele>388.0</ele>
        <time>2017-05-27T11:16:18.517Z</time>
      </trkpt>
      <trkpt lat="40.00394167" lon="-0.38944667">
        <ele>386.0</ele>
        <time>2017-05-27T11:16:19.514Z</time>
      </trkpt>
      <trkpt lat="40.00394167" lon="-0.38944667">
        <ele>386.0</ele>
        <time>2017-05-27T11:16:20.520Z</time>
      </trkpt>
      <trkpt lat="40.004" lon="-0.38959167">
        <ele>385.0</ele>
        <time>2017-05-27T11:16:21.521Z</time>
      </trkpt>
      <trkpt lat="40.004" lon="-0.38959167">
        <ele>385.0</ele>
        <time>2017-05-27T11:16:22.496Z</time>
      </trkpt>
      <trkpt lat="40.00409167" lon="-0.38972833">
        <ele>384.0</ele>
        <time>2017-05-27T11:16:23.491Z</time>
      </trkpt>
      <trkpt lat="40.00409167" lon="-0.38972833">
        <ele>384.0</ele>
        <time>2017-05-27T11:16:24.497Z</time>
      </trkpt>
      <trkpt lat="40.004215" lon="-0.38986667">
        <ele>382.0</ele>
        <time>2017-05-27T11:16:25.493Z</time>
      </trkpt>
      <trkpt lat="40.004215" lon="-0.38986667">
        <ele>382.0</ele>
        <time>2017-05-27T11:16:26.499Z</time>
      </trkpt>
      <trkpt lat="40.004355" lon="-0.390025">
        <ele>381.0</ele>
        <time>2017-05-27T11:16:27.518Z</time>
      </trkpt>
      <trkpt lat="40.00442167" lon="-0.39011167">
        <ele>380.0</ele>
        <time>2017-05-27T11:16:28.501Z</time>
      </trkpt>
      <trkpt lat="40.00442167" lon="-0.39011167">
        <ele>380.0</ele>
        <time>2017-05-27T11:16:29.507Z</time>
      </trkpt>
      <trkpt lat="40.00454667" lon="-0.39029667">
        <ele>379.0</ele>
        <time>2017-05-27T11:16:30.496Z</time>
      </trkpt>
      <trkpt lat="40.004605" lon="-0.39039667">
        <ele>378.0</ele>
        <time>2017-05-27T11:16:31.492Z</time>
      </trkpt>
      <trkpt lat="40.004605" lon="-0.39039667">
        <ele>378.0</ele>
        <time>2017-05-27T11:16:32.499Z</time>
      </trkpt>
      <trkpt lat="40.00468333" lon="-0.39062">
        <ele>377.0</ele>
        <time>2017-05-27T11:16:33.496Z</time>
      </trkpt>
      <trkpt lat="40.00468333" lon="-0.39062">
        <ele>377.0</ele>
        <time>2017-05-27T11:16:34.502Z</time>
      </trkpt>
      <trkpt lat="40.00468667" lon="-0.39085">
        <ele>376.0</ele>
        <time>2017-05-27T11:16:35.492Z</time>
      </trkpt>
      <trkpt lat="40.00468667" lon="-0.39085">
        <ele>376.0</ele>
        <time>2017-05-27T11:16:36.499Z</time>
      </trkpt>
      <trkpt lat="40.004615" lon="-0.391035">
        <ele>374.0</ele>
        <time>2017-05-27T11:16:37.497Z</time>
      </trkpt>
      <trkpt lat="40.004615" lon="-0.391035">
        <ele>374.0</ele>
        <time>2017-05-27T11:16:38.505Z</time>
      </trkpt>
      <trkpt lat="40.00448167" lon="-0.39114333">
        <ele>372.0</ele>
        <time>2017-05-27T11:16:39.523Z</time>
      </trkpt>
      <trkpt lat="40.00448167" lon="-0.39114333">
        <ele>372.0</ele>
        <time>2017-05-27T11:16:40.498Z</time>
      </trkpt>
      <trkpt lat="40.00432167" lon="-0.39117167">
        <ele>371.0</ele>
        <time>2017-05-27T11:16:41.516Z</time>
      </trkpt>
      <trkpt lat="40.00432167" lon="-0.39117167">
        <ele>371.0</ele>
        <time>2017-05-27T11:16:42.531Z</time>
      </trkpt>
      <trkpt lat="40.00419667" lon="-0.39115333">
        <ele>369.0</ele>
        <time>2017-05-27T11:16:43.520Z</time>
      </trkpt>
      <trkpt lat="40.00414333" lon="-0.39113333">
        <ele>369.0</ele>
        <time>2017-05-27T11:16:44.506Z</time>
      </trkpt>
      <trkpt lat="40.00414333" lon="-0.39113333">
        <ele>369.0</ele>
        <time>2017-05-27T11:16:45.509Z</time>
      </trkpt>
      <trkpt lat="40.00404833" lon="-0.39108333">
        <ele>367.0</ele>
        <time>2017-05-27T11:16:46.528Z</time>
      </trkpt>
      <trkpt lat="40.00404833" lon="-0.39108333">
        <ele>367.0</ele>
        <time>2017-05-27T11:16:47.501Z</time>
      </trkpt>
      <trkpt lat="40.00397167" lon="-0.391035">
        <ele>366.0</ele>
        <time>2017-05-27T11:16:48.514Z</time>
      </trkpt>
      <trkpt lat="40.00397167" lon="-0.391035">
        <ele>366.0</ele>
        <time>2017-05-27T11:16:49.520Z</time>
      </trkpt>
      <trkpt lat="40.00390667" lon="-0.39098167">
        <ele>365.0</ele>
        <time>2017-05-27T11:16:50.507Z</time>
      </trkpt>
      <trkpt lat="40.00390667" lon="-0.39098167">
        <ele>365.0</ele>
        <time>2017-05-27T11:16:51.509Z</time>
      </trkpt>
      <trkpt lat="40.00385" lon="-0.39092833">
        <ele>364.0</ele>
        <time>2017-05-27T11:16:52.506Z</time>
      </trkpt>
      <trkpt lat="40.00385" lon="-0.39092833">
        <ele>364.0</ele>
        <time>2017-05-27T11:16:53.512Z</time>
      </trkpt>
      <trkpt lat="40.0038" lon="-0.39088333">
        <ele>363.0</ele>
        <time>2017-05-27T11:16:54.501Z</time>
      </trkpt>
      <trkpt lat="40.0038" lon="-0.39088333">
        <ele>363.0</ele>
        <time>2017-05-27T11:16:55.507Z</time>
      </trkpt>
      <trkpt lat="40.00376833" lon="-0.39084333">
        <ele>362.0</ele>
        <time>2017-05-27T11:16:56.534Z</time>
      </trkpt>
      <trkpt lat="40.00375667" lon="-0.39082333">
        <ele>362.0</ele>
        <time>2017-05-27T11:16:57.504Z</time>
      </trkpt>
      <trkpt lat="40.00375667" lon="-0.39082333">
        <ele>362.0</ele>
        <time>2017-05-27T11:16:58.510Z</time>
      </trkpt>
      <trkpt lat="40.00373667" lon="-0.39077833">
        <ele>361.0</ele>
        <time>2017-05-27T11:16:59.514Z</time>
      </trkpt>
      <trkpt lat="40.00373667" lon="-0.39077833">
        <ele>361.0</ele>
        <time>2017-05-27T11:17:00.520Z</time>
      </trkpt>
      <trkpt lat="40.003715" lon="-0.39073">
        <ele>361.0</ele>
        <time>2017-05-27T11:17:01.506Z</time>
      </trkpt>
      <trkpt lat="40.003715" lon="-0.39073">
        <ele>361.0</ele>
        <time>2017-05-27T11:17:02.512Z</time>
      </trkpt>
      <trkpt lat="40.00369" lon="-0.39069">
        <ele>360.0</ele>
        <time>2017-05-27T11:17:03.509Z</time>
      </trkpt>
      <trkpt lat="40.00369" lon="-0.39069">
        <ele>360.0</ele>
        <time>2017-05-27T11:17:04.515Z</time>
      </trkpt>
      <trkpt lat="40.00366667" lon="-0.39065167">
        <ele>360.0</ele>
        <time>2017-05-27T11:17:05.522Z</time>
      </trkpt>
      <trkpt lat="40.00366667" lon="-0.39065167">
        <ele>360.0</ele>
        <time>2017-05-27T11:17:06.497Z</time>
      </trkpt>
      <trkpt lat="40.00364333" lon="-0.39061">
        <ele>360.0</ele>
        <time>2017-05-27T11:17:07.494Z</time>
      </trkpt>
      <trkpt lat="40.00363333" lon="-0.39059833">
        <ele>360.0</ele>
        <time>2017-05-27T11:17:08.532Z</time>
      </trkpt>
      <trkpt lat="40.00363333" lon="-0.39059833">
        <ele>360.0</ele>
        <time>2017-05-27T11:17:09.498Z</time>
      </trkpt>
      <trkpt lat="40.00361333" lon="-0.39055">
        <ele>359.0</ele>
        <time>2017-05-27T11:17:10.527Z</time>
      </trkpt>
      <trkpt lat="40.00361333" lon="-0.39055">
        <ele>359.0</ele>
        <time>2017-05-27T11:17:11.498Z</time>
      </trkpt>
      <trkpt lat="40.003585" lon="-0.390515">
        <ele>359.0</ele>
        <time>2017-05-27T11:17:12.530Z</time>
      </trkpt>
      <trkpt lat="40.003585" lon="-0.390515">
        <ele>359.0</ele>
        <time>2017-05-27T11:17:13.496Z</time>
      </trkpt>
      <trkpt lat="40.00355667" lon="-0.39048667">
        <ele>359.0</ele>
        <time>2017-05-27T11:17:14.496Z</time>
      </trkpt>
      <trkpt lat="40.00355667" lon="-0.39048667">
        <ele>359.0</ele>
        <time>2017-05-27T11:17:15.504Z</time>
      </trkpt>
      <trkpt lat="40.003535" lon="-0.39046333">
        <ele>359.0</ele>
        <time>2017-05-27T11:17:16.507Z</time>
      </trkpt>
      <trkpt lat="40.00352167" lon="-0.39045167">
        <ele>358.0</ele>
        <time>2017-05-27T11:17:17.500Z</time>
      </trkpt>
      <trkpt lat="40.00352167" lon="-0.39045167">
        <ele>358.0</ele>
        <time>2017-05-27T11:17:18.506Z</time>
      </trkpt>
      <trkpt lat="40.00350167" lon="-0.39042">
        <ele>358.0</ele>
        <time>2017-05-27T11:17:19.500Z</time>
      </trkpt>
      <trkpt lat="40.00350167" lon="-0.39042">
        <ele>358.0</ele>
        <time>2017-05-27T11:17:20.507Z</time>
      </trkpt>
      <trkpt lat="40.00348" lon="-0.39038">
        <ele>358.0</ele>
        <time>2017-05-27T11:17:21.501Z</time>
      </trkpt>
      <trkpt lat="40.003465" lon="-0.39036">
        <ele>359.0</ele>
        <time>2017-05-27T11:17:22.509Z</time>
      </trkpt>
      <trkpt lat="40.00345" lon="-0.39034167">
        <ele>358.0</ele>
        <time>2017-05-27T11:17:23.512Z</time>
      </trkpt>
      <trkpt lat="40.00345" lon="-0.39034167">
        <ele>358.0</ele>
        <time>2017-05-27T11:17:24.518Z</time>
      </trkpt>
      <trkpt lat="40.003425" lon="-0.39031">
        <ele>358.0</ele>
        <time>2017-05-27T11:17:25.511Z</time>
      </trkpt>
      <trkpt lat="40.003425" lon="-0.39031">
        <ele>358.0</ele>
        <time>2017-05-27T11:17:26.516Z</time>
      </trkpt>
      <trkpt lat="40.00339333" lon="-0.39028">
        <ele>358.0</ele>
        <time>2017-05-27T11:17:27.523Z</time>
      </trkpt>
      <trkpt lat="40.00339333" lon="-0.39028">
        <ele>358.0</ele>
        <time>2017-05-27T11:17:28.498Z</time>
      </trkpt>
      <trkpt lat="40.00335833" lon="-0.39024833">
        <ele>357.0</ele>
        <time>2017-05-27T11:17:29.498Z</time>
      </trkpt>
      <trkpt lat="40.00335833" lon="-0.39024833">
        <ele>357.0</ele>
        <time>2017-05-27T11:17:30.504Z</time>
      </trkpt>
      <trkpt lat="40.003325" lon="-0.39021333">
        <ele>358.0</ele>
        <time>2017-05-27T11:17:31.496Z</time>
      </trkpt>
      <trkpt lat="40.00331167" lon="-0.39020333">
        <ele>358.0</ele>
        <time>2017-05-27T11:17:32.532Z</time>
      </trkpt>
      <trkpt lat="40.00331167" lon="-0.39020333">
        <ele>358.0</ele>
        <time>2017-05-27T11:17:33.498Z</time>
      </trkpt>
      <trkpt lat="40.00327833" lon="-0.39017">
        <ele>358.0</ele>
        <time>2017-05-27T11:17:34.523Z</time>
      </trkpt>
      <trkpt lat="40.00327833" lon="-0.39017">
        <ele>358.0</ele>
        <time>2017-05-27T11:17:35.494Z</time>
      </trkpt>
      <trkpt lat="40.00324167" lon="-0.39013667">
        <ele>360.0</ele>
        <time>2017-05-27T11:17:36.529Z</time>
      </trkpt>
      <trkpt lat="40.00324167" lon="-0.39013667">
        <ele>360.0</ele>
        <time>2017-05-27T11:17:37.500Z</time>
      </trkpt>
      <trkpt lat="40.00321" lon="-0.39009667">
        <ele>361.0</ele>
        <time>2017-05-27T11:17:38.529Z</time>
      </trkpt>
      <trkpt lat="40.00319" lon="-0.390075">
        <ele>361.0</ele>
        <time>2017-05-27T11:17:39.530Z</time>
      </trkpt>
      <trkpt lat="40.00319" lon="-0.390075">
        <ele>361.0</ele>
        <time>2017-05-27T11:17:40.513Z</time>
      </trkpt>
      <trkpt lat="40.00316" lon="-0.39004">
        <ele>362.0</ele>
        <time>2017-05-27T11:17:41.498Z</time>
      </trkpt>
      <trkpt lat="40.00316" lon="-0.39004">
        <ele>362.0</ele>
        <time>2017-05-27T11:17:42.505Z</time>
      </trkpt>
      <trkpt lat="40.00313" lon="-0.39000667">
        <ele>362.0</ele>
        <time>2017-05-27T11:17:43.511Z</time>
      </trkpt>
      <trkpt lat="40.003115" lon="-0.38999333">
        <ele>363.0</ele>
        <time>2017-05-27T11:17:44.512Z</time>
      </trkpt>
      <trkpt lat="40.003115" lon="-0.38999333">
        <ele>363.0</ele>
        <time>2017-05-27T11:17:45.518Z</time>
      </trkpt>
      <trkpt lat="40.00309167" lon="-0.389975">
        <ele>364.0</ele>
        <time>2017-05-27T11:17:46.533Z</time>
      </trkpt>
      <trkpt lat="40.00307833" lon="-0.38997333">
        <ele>364.0</ele>
        <time>2017-05-27T11:17:47.526Z</time>
      </trkpt>
      <trkpt lat="40.00306167" lon="-0.38997">
        <ele>364.0</ele>
        <time>2017-05-27T11:17:48.516Z</time>
      </trkpt>
      <trkpt lat="40.00306167" lon="-0.38997">
        <ele>364.0</ele>
        <time>2017-05-27T11:17:49.522Z</time>
      </trkpt>
      <trkpt lat="40.00302833" lon="-0.38995167">
        <ele>365.0</ele>
        <time>2017-05-27T11:17:50.510Z</time>
      </trkpt>
      <trkpt lat="40.00302833" lon="-0.38995167">
        <ele>365.0</ele>
        <time>2017-05-27T11:17:51.516Z</time>
      </trkpt>
      <trkpt lat="40.00300333" lon="-0.38993">
        <ele>365.0</ele>
        <time>2017-05-27T11:17:52.506Z</time>
      </trkpt>
      <trkpt lat="40.00299167" lon="-0.38992">
        <ele>365.0</ele>
        <time>2017-05-27T11:17:53.514Z</time>
      </trkpt>
      <trkpt lat="40.00299167" lon="-0.38992">
        <ele>365.0</ele>
        <time>2017-05-27T11:17:54.520Z</time>
      </trkpt>
      <trkpt lat="40.00297333" lon="-0.38990167">
        <ele>366.0</ele>
        <time>2017-05-27T11:17:55.496Z</time>
      </trkpt>
      <trkpt lat="40.00297333" lon="-0.38990167">
        <ele>366.0</ele>
        <time>2017-05-27T11:17:56.507Z</time>
      </trkpt>
      <trkpt lat="40.00294167" lon="-0.38988">
        <ele>367.0</ele>
        <time>2017-05-27T11:17:57.493Z</time>
      </trkpt>
      <trkpt lat="40.00294167" lon="-0.38988">
        <ele>367.0</ele>
        <time>2017-05-27T11:17:58.499Z</time>
      </trkpt>
      <trkpt lat="40.00290833" lon="-0.38986">
        <ele>367.0</ele>
        <time>2017-05-27T11:17:59.504Z</time>
      </trkpt>
      <trkpt lat="40.00290833" lon="-0.38986">
        <ele>367.0</ele>
        <time>2017-05-27T11:18:00.510Z</time>
      </trkpt>
      <trkpt lat="40.00288333" lon="-0.38983">
        <ele>368.0</ele>
        <time>2017-05-27T11:18:01.507Z</time>
      </trkpt>
      <trkpt lat="40.00287" lon="-0.389815">
        <ele>369.0</ele>
        <time>2017-05-27T11:18:02.498Z</time>
      </trkpt>
      <trkpt lat="40.00285667" lon="-0.3898">
        <ele>370.0</ele>
        <time>2017-05-27T11:18:03.530Z</time>
      </trkpt>
      <trkpt lat="40.00285667" lon="-0.3898">
        <ele>370.0</ele>
        <time>2017-05-27T11:18:04.496Z</time>
      </trkpt>
      <trkpt lat="40.00283333" lon="-0.38976667">
        <ele>370.0</ele>
        <time>2017-05-27T11:18:05.497Z</time>
      </trkpt>
      <trkpt lat="40.00283333" lon="-0.38976667">
        <ele>370.0</ele>
        <time>2017-05-27T11:18:06.504Z</time>
      </trkpt>
      <trkpt lat="40.00281" lon="-0.38972333">
        <ele>371.0</ele>
        <time>2017-05-27T11:18:07.533Z</time>
      </trkpt>
      <trkpt lat="40.00281" lon="-0.38972333">
        <ele>371.0</ele>
        <time>2017-05-27T11:18:08.499Z</time>
      </trkpt>
      <trkpt lat="40.00279167" lon="-0.38968833">
        <ele>372.0</ele>
        <time>2017-05-27T11:18:09.496Z</time>
      </trkpt>
      <trkpt lat="40.00279167" lon="-0.38968833">
        <ele>372.0</ele>
        <time>2017-05-27T11:18:10.502Z</time>
      </trkpt>
      <trkpt lat="40.00277" lon="-0.38963667">
        <ele>373.0</ele>
        <time>2017-05-27T11:18:11.493Z</time>
      </trkpt>
      <trkpt lat="40.00277" lon="-0.38963667">
        <ele>373.0</ele>
        <time>2017-05-27T11:18:12.502Z</time>
      </trkpt>
      <trkpt lat="40.002745" lon="-0.389595">
        <ele>375.0</ele>
        <time>2017-05-27T11:18:13.502Z</time>
      </trkpt>
      <trkpt lat="40.002745" lon="-0.389595">
        <ele>375.0</ele>
        <time>2017-05-27T11:18:14.508Z</time>
      </trkpt>
      <trkpt lat="40.00271833" lon="-0.38954833">
        <ele>376.0</ele>
        <time>2017-05-27T11:18:15.502Z</time>
      </trkpt>
      <trkpt lat="40.00271167" lon="-0.38952667">
        <ele>377.0</ele>
        <time>2017-05-27T11:18:16.508Z</time>
      </trkpt>
      <trkpt lat="40.00271167" lon="-0.38952667">
        <ele>377.0</ele>
        <time>2017-05-27T11:18:17.514Z</time>
      </trkpt>
      <trkpt lat="40.00269667" lon="-0.389485">
        <ele>378.0</ele>
        <time>2017-05-27T11:18:18.507Z</time>
      </trkpt>
      <trkpt lat="40.00269667" lon="-0.389485">
        <ele>378.0</ele>
        <time>2017-05-27T11:18:19.513Z</time>
      </trkpt>
      <trkpt lat="40.00268" lon="-0.38944667">
        <ele>379.0</ele>
        <time>2017-05-27T11:18:20.507Z</time>
      </trkpt>
      <trkpt lat="40.00268" lon="-0.38944667">
        <ele>379.0</ele>
        <time>2017-05-27T11:18:21.511Z</time>
      </trkpt>
      <trkpt lat="40.00266333" lon="-0.38940667">
        <ele>380.0</ele>
        <time>2017-05-27T11:18:22.503Z</time>
      </trkpt>
      <trkpt lat="40.00266333" lon="-0.38940667">
        <ele>380.0</ele>
        <time>2017-05-27T11:18:23.510Z</time>
      </trkpt>
      <trkpt lat="40.00264667" lon="-0.38936333">
        <ele>382.0</ele>
        <time>2017-05-27T11:18:24.510Z</time>
      </trkpt>
      <trkpt lat="40.00264667" lon="-0.38936333">
        <ele>382.0</ele>
        <time>2017-05-27T11:18:25.516Z</time>
      </trkpt>
      <trkpt lat="40.00262667" lon="-0.38932167">
        <ele>383.0</ele>
        <time>2017-05-27T11:18:26.507Z</time>
      </trkpt>
      <trkpt lat="40.00262667" lon="-0.38932167">
        <ele>383.0</ele>
        <time>2017-05-27T11:18:27.512Z</time>
      </trkpt>
      <trkpt lat="40.00260667" lon="-0.38929">
        <ele>384.0</ele>
        <time>2017-05-27T11:18:28.503Z</time>
      </trkpt>
      <trkpt lat="40.002595" lon="-0.38927833">
        <ele>385.0</ele>
        <time>2017-05-27T11:18:29.509Z</time>
      </trkpt>
      <trkpt lat="40.002595" lon="-0.38927833">
        <ele>385.0</ele>
        <time>2017-05-27T11:18:30.515Z</time>
      </trkpt>
      <trkpt lat="40.002575" lon="-0.38925333">
        <ele>386.0</ele>
        <time>2017-05-27T11:18:31.513Z</time>
      </trkpt>
      <trkpt lat="40.002575" lon="-0.38925333">
        <ele>386.0</ele>
        <time>2017-05-27T11:18:32.508Z</time>
      </trkpt>
      <trkpt lat="40.00254167" lon="-0.38922667">
        <ele>387.0</ele>
        <time>2017-05-27T11:18:33.505Z</time>
      </trkpt>
      <trkpt lat="40.00252333" lon="-0.38921667">
        <ele>387.0</ele>
        <time>2017-05-27T11:18:34.511Z</time>
      </trkpt>
      <trkpt lat="40.00252333" lon="-0.38921667">
        <ele>387.0</ele>
        <time>2017-05-27T11:18:35.516Z</time>
      </trkpt>
      <trkpt lat="40.002485" lon="-0.38920667">
        <ele>388.0</ele>
        <time>2017-05-27T11:18:36.508Z</time>
      </trkpt>
      <trkpt lat="40.002485" lon="-0.38920667">
        <ele>388.0</ele>
        <time>2017-05-27T11:18:37.514Z</time>
      </trkpt>
      <trkpt lat="40.00245333" lon="-0.389225">
        <ele>389.0</ele>
        <time>2017-05-27T11:18:38.508Z</time>
      </trkpt>
      <trkpt lat="40.00245333" lon="-0.389225">
        <ele>389.0</ele>
        <time>2017-05-27T11:18:39.535Z</time>
      </trkpt>
      <trkpt lat="40.00242333" lon="-0.38926">
        <ele>390.0</ele>
        <time>2017-05-27T11:18:40.524Z</time>
      </trkpt>
      <trkpt lat="40.00240167" lon="-0.38928167">
        <ele>390.0</ele>
        <time>2017-05-27T11:18:41.503Z</time>
      </trkpt>
      <trkpt lat="40.00240167" lon="-0.38928167">
        <ele>390.0</ele>
        <time>2017-05-27T11:18:42.509Z</time>
      </trkpt>
      <trkpt lat="40.00238167" lon="-0.38933167">
        <ele>391.0</ele>
        <time>2017-05-27T11:18:43.506Z</time>
      </trkpt>
      <trkpt lat="40.00238" lon="-0.38935333">
        <ele>392.0</ele>
        <time>2017-05-27T11:18:44.496Z</time>
      </trkpt>
      <trkpt lat="40.00238" lon="-0.38935333">
        <ele>392.0</ele>
        <time>2017-05-27T11:18:45.504Z</time>
      </trkpt>
      <trkpt lat="40.00239333" lon="-0.3894">
        <ele>393.0</ele>
        <time>2017-05-27T11:18:46.493Z</time>
      </trkpt>
      <trkpt lat="40.00239667" lon="-0.389425">
        <ele>394.0</ele>
        <time>2017-05-27T11:18:47.499Z</time>
      </trkpt>
      <trkpt lat="40.00239667" lon="-0.389425">
        <ele>394.0</ele>
        <time>2017-05-27T11:18:48.505Z</time>
      </trkpt>
      <trkpt lat="40.00241167" lon="-0.38946333">
        <ele>395.0</ele>
        <time>2017-05-27T11:18:49.496Z</time>
      </trkpt>
      <trkpt lat="40.00242167" lon="-0.38948667">
        <ele>395.0</ele>
        <time>2017-05-27T11:18:50.528Z</time>
      </trkpt>
      <trkpt lat="40.00242167" lon="-0.38948667">
        <ele>395.0</ele>
        <time>2017-05-27T11:18:51.500Z</time>
      </trkpt>
      <trkpt lat="40.002435" lon="-0.38953">
        <ele>396.0</ele>
        <time>2017-05-27T11:18:52.536Z</time>
      </trkpt>
      <trkpt lat="40.002445" lon="-0.38955167">
        <ele>397.0</ele>
        <time>2017-05-27T11:18:53.501Z</time>
      </trkpt>
      <trkpt lat="40.002445" lon="-0.38955167">
        <ele>397.0</ele>
        <time>2017-05-27T11:18:54.508Z</time>
      </trkpt>
      <trkpt lat="40.00246667" lon="-0.389595">
        <ele>398.0</ele>
        <time>2017-05-27T11:18:55.495Z</time>
      </trkpt>
      <trkpt lat="40.00246667" lon="-0.389595">
        <ele>398.0</ele>
        <time>2017-05-27T11:18:56.500Z</time>
      </trkpt>
      <trkpt lat="40.00248833" lon="-0.38964167">
        <ele>399.0</ele>
        <time>2017-05-27T11:18:57.500Z</time>
      </trkpt>
      <trkpt lat="40.00249833" lon="-0.38966333">
        <ele>399.0</ele>
        <time>2017-05-27T11:18:58.506Z</time>
      </trkpt>
      <trkpt lat="40.00249833" lon="-0.38966333">
        <ele>399.0</ele>
        <time>2017-05-27T11:18:59.512Z</time>
      </trkpt>
      <trkpt lat="40.00251833" lon="-0.38971167">
        <ele>400.0</ele>
        <time>2017-05-27T11:19:00.506Z</time>
      </trkpt>
      <trkpt lat="40.002525" lon="-0.38973667">
        <ele>401.0</ele>
        <time>2017-05-27T11:19:01.508Z</time>
      </trkpt>
      <trkpt lat="40.002525" lon="-0.38973667">
        <ele>401.0</ele>
        <time>2017-05-27T11:19:02.514Z</time>
      </trkpt>
      <trkpt lat="40.00254833" lon="-0.38978">
        <ele>402.0</ele>
        <time>2017-05-27T11:19:03.506Z</time>
      </trkpt>
      <trkpt lat="40.00254833" lon="-0.38978">
        <ele>402.0</ele>
        <time>2017-05-27T11:19:04.512Z</time>
      </trkpt>
      <trkpt lat="40.00257167" lon="-0.38981833">
        <ele>403.0</ele>
        <time>2017-05-27T11:19:05.513Z</time>
      </trkpt>
      <trkpt lat="40.00257167" lon="-0.38981833">
        <ele>403.0</ele>
        <time>2017-05-27T11:19:06.520Z</time>
      </trkpt>
      <trkpt lat="40.00259" lon="-0.38986">
        <ele>404.0</ele>
        <time>2017-05-27T11:19:07.495Z</time>
      </trkpt>
      <trkpt lat="40.00259" lon="-0.38986">
        <ele>404.0</ele>
        <time>2017-05-27T11:19:08.506Z</time>
      </trkpt>
      <trkpt lat="40.00260833" lon="-0.38991">
        <ele>405.0</ele>
        <time>2017-05-27T11:19:09.496Z</time>
      </trkpt>
      <trkpt lat="40.00261833" lon="-0.38993">
        <ele>405.0</ele>
        <time>2017-05-27T11:19:10.502Z</time>
      </trkpt>
      <trkpt lat="40.00261833" lon="-0.38993">
        <ele>405.0</ele>
        <time>2017-05-27T11:19:11.508Z</time>
      </trkpt>
      <trkpt lat="40.002635" lon="-0.389965">
        <ele>406.0</ele>
        <time>2017-05-27T11:19:12.507Z</time>
      </trkpt>
      <trkpt lat="40.002635" lon="-0.389965">
        <ele>406.0</ele>
        <time>2017-05-27T11:19:13.513Z</time>
      </trkpt>
      <trkpt lat="40.00265167" lon="-0.39001167">
        <ele>407.0</ele>
        <time>2017-05-27T11:19:14.497Z</time>
      </trkpt>
      <trkpt lat="40.00265167" lon="-0.39001167">
        <ele>407.0</ele>
        <time>2017-05-27T11:19:15.506Z</time>
      </trkpt>
      <trkpt lat="40.00267333" lon="-0.39005833">
        <ele>408.0</ele>
        <time>2017-05-27T11:19:16.507Z</time>
      </trkpt>
      <trkpt lat="40.00268667" lon="-0.39008">
        <ele>408.0</ele>
        <time>2017-05-27T11:19:17.496Z</time>
      </trkpt>
      <trkpt lat="40.00268667" lon="-0.39008">
        <ele>408.0</ele>
        <time>2017-05-27T11:19:18.502Z</time>
      </trkpt>
      <trkpt lat="40.00271" lon="-0.39012167">
        <ele>409.0</ele>
        <time>2017-05-27T11:19:19.494Z</time>
      </trkpt>
      <trkpt lat="40.00271" lon="-0.39012167">
        <ele>409.0</ele>
        <time>2017-05-27T11:19:20.500Z</time>
      </trkpt>
      <trkpt lat="40.00273" lon="-0.39016167">
        <ele>409.0</ele>
        <time>2017-05-27T11:19:21.498Z</time>
      </trkpt>
      <trkpt lat="40.00274" lon="-0.39017833">
        <ele>409.0</ele>
        <time>2017-05-27T11:19:22.505Z</time>
      </trkpt>
      <trkpt lat="40.00274" lon="-0.39017833">
        <ele>409.0</ele>
        <time>2017-05-27T11:19:23.511Z</time>
      </trkpt>
      <trkpt lat="40.00275833" lon="-0.39021833">
        <ele>410.0</ele>
        <time>2017-05-27T11:19:24.523Z</time>
      </trkpt>
      <trkpt lat="40.00275833" lon="-0.39021833">
        <ele>410.0</ele>
        <time>2017-05-27T11:19:25.498Z</time>
      </trkpt>
      <trkpt lat="40.00277667" lon="-0.39026">
        <ele>410.0</ele>
        <time>2017-05-27T11:19:26.527Z</time>
      </trkpt>
      <trkpt lat="40.00277667" lon="-0.39026">
        <ele>410.0</ele>
        <time>2017-05-27T11:19:27.495Z</time>
      </trkpt>
      <trkpt lat="40.00279667" lon="-0.39030167">
        <ele>411.0</ele>
        <time>2017-05-27T11:19:28.534Z</time>
      </trkpt>
      <trkpt lat="40.00279667" lon="-0.39030167">
        <ele>411.0</ele>
        <time>2017-05-27T11:19:29.500Z</time>
      </trkpt>
      <trkpt lat="40.00281667" lon="-0.39033833">
        <ele>411.0</ele>
        <time>2017-05-27T11:19:30.527Z</time>
      </trkpt>
      <trkpt lat="40.002825" lon="-0.39035833">
        <ele>411.0</ele>
        <time>2017-05-27T11:19:31.506Z</time>
      </trkpt>
      <trkpt lat="40.002825" lon="-0.39035833">
        <ele>411.0</ele>
        <time>2017-05-27T11:19:32.497Z</time>
      </trkpt>
      <trkpt lat="40.00284333" lon="-0.390395">
        <ele>412.0</ele>
        <time>2017-05-27T11:19:33.520Z</time>
      </trkpt>
      <trkpt lat="40.00286167" lon="-0.390435">
        <ele>412.0</ele>
        <time>2017-05-27T11:19:34.525Z</time>
      </trkpt>
      <trkpt lat="40.00286167" lon="-0.390435">
        <ele>412.0</ele>
        <time>2017-05-27T11:19:35.506Z</time>
      </trkpt>
      <trkpt lat="40.00286167" lon="-0.390435">
        <ele>412.0</ele>
        <time>2017-05-27T11:19:36.512Z</time>
      </trkpt>
      <trkpt lat="40.00288333" lon="-0.39046667">
        <ele>413.0</ele>
        <time>2017-05-27T11:19:37.506Z</time>
      </trkpt>
      <trkpt lat="40.002895" lon="-0.390485">
        <ele>413.0</ele>
        <time>2017-05-27T11:19:38.505Z</time>
      </trkpt>
      <trkpt lat="40.002895" lon="-0.390485">
        <ele>413.0</ele>
        <time>2017-05-27T11:19:39.523Z</time>
      </trkpt>
      <trkpt lat="40.00291333" lon="-0.39052167">
        <ele>413.0</ele>
        <time>2017-05-27T11:19:40.513Z</time>
      </trkpt>
      <trkpt lat="40.00292167" lon="-0.39054167">
        <ele>414.0</ele>
        <time>2017-05-27T11:19:41.503Z</time>
      </trkpt>
      <trkpt lat="40.00292167" lon="-0.39054167">
        <ele>414.0</ele>
        <time>2017-05-27T11:19:42.509Z</time>
      </trkpt>
      <trkpt lat="40.002945" lon="-0.39058333">
        <ele>414.0</ele>
        <time>2017-05-27T11:19:43.498Z</time>
      </trkpt>
      <trkpt lat="40.002945" lon="-0.39058333">
        <ele>414.0</ele>
        <time>2017-05-27T11:19:44.507Z</time>
      </trkpt>
      <trkpt lat="40.00296667" lon="-0.39062667">
        <ele>415.0</ele>
        <time>2017-05-27T11:19:45.533Z</time>
      </trkpt>
      <trkpt lat="40.00296667" lon="-0.39062667">
        <ele>415.0</ele>
        <time>2017-05-27T11:19:46.498Z</time>
      </trkpt>
      <trkpt lat="40.00298667" lon="-0.390675">
        <ele>415.0</ele>
        <time>2017-05-27T11:19:47.492Z</time>
      </trkpt>
      <trkpt lat="40.00298667" lon="-0.390675">
        <ele>415.0</ele>
        <time>2017-05-27T11:19:48.498Z</time>
      </trkpt>
      <trkpt lat="40.003" lon="-0.39073">
        <ele>416.0</ele>
        <time>2017-05-27T11:19:49.493Z</time>
      </trkpt>
      <trkpt lat="40.003" lon="-0.39073">
        <ele>416.0</ele>
        <time>2017-05-27T11:19:50.499Z</time>
      </trkpt>
      <trkpt lat="40.003015" lon="-0.39078167">
        <ele>416.0</ele>
        <time>2017-05-27T11:19:51.502Z</time>
      </trkpt>
      <trkpt lat="40.003015" lon="-0.39078167">
        <ele>416.0</ele>
        <time>2017-05-27T11:19:52.508Z</time>
      </trkpt>
      <trkpt lat="40.00302833" lon="-0.390835">
        <ele>417.0</ele>
        <time>2017-05-27T11:19:53.502Z</time>
      </trkpt>
      <trkpt lat="40.00302833" lon="-0.390835">
        <ele>417.0</ele>
        <time>2017-05-27T11:19:54.510Z</time>
      </trkpt>
      <trkpt lat="40.00303833" lon="-0.39088833">
        <ele>417.0</ele>
        <time>2017-05-27T11:19:55.494Z</time>
      </trkpt>
      <trkpt lat="40.00303833" lon="-0.39088833">
        <ele>417.0</ele>
        <time>2017-05-27T11:19:56.500Z</time>
      </trkpt>
      <trkpt lat="40.00304667" lon="-0.39093833">
        <ele>417.0</ele>
        <time>2017-05-27T11:19:57.533Z</time>
      </trkpt>
      <trkpt lat="40.003055" lon="-0.39096167">
        <ele>417.0</ele>
        <time>2017-05-27T11:19:58.521Z</time>
      </trkpt>
      <trkpt lat="40.003055" lon="-0.39096167">
        <ele>417.0</ele>
        <time>2017-05-27T11:19:59.500Z</time>
      </trkpt>
      <trkpt lat="40.00306667" lon="-0.39100333">
        <ele>418.0</ele>
        <time>2017-05-27T11:20:00.511Z</time>
      </trkpt>
      <trkpt lat="40.00306667" lon="-0.39100333">
        <ele>418.0</ele>
        <time>2017-05-27T11:20:01.517Z</time>
      </trkpt>
      <trkpt lat="40.00307667" lon="-0.39104833">
        <ele>418.0</ele>
        <time>2017-05-27T11:20:02.510Z</time>
      </trkpt>
      <trkpt lat="40.00308167" lon="-0.39107">
        <ele>418.0</ele>
        <time>2017-05-27T11:20:03.518Z</time>
      </trkpt>
      <trkpt lat="40.00308833" lon="-0.39109167">
        <ele>418.0</ele>
        <time>2017-05-27T11:20:04.527Z</time>
      </trkpt>
      <trkpt lat="40.00308833" lon="-0.39109167">
        <ele>418.0</ele>
        <time>2017-05-27T11:20:05.499Z</time>
      </trkpt>
      <trkpt lat="40.00310167" lon="-0.39113667">
        <ele>419.0</ele>
        <time>2017-05-27T11:20:06.511Z</time>
      </trkpt>
      <trkpt lat="40.00310167" lon="-0.39113667">
        <ele>419.0</ele>
        <time>2017-05-27T11:20:07.517Z</time>
      </trkpt>
      <trkpt lat="40.003115" lon="-0.39118">
        <ele>419.0</ele>
        <time>2017-05-27T11:20:08.509Z</time>
      </trkpt>
      <trkpt lat="40.00312333" lon="-0.39120167">
        <ele>419.0</ele>
        <time>2017-05-27T11:20:09.502Z</time>
      </trkpt>
      <trkpt lat="40.00312333" lon="-0.39120167">
        <ele>419.0</ele>
        <time>2017-05-27T11:20:10.508Z</time>
      </trkpt>
      <trkpt lat="40.00314167" lon="-0.39123833">
        <ele>420.0</ele>
        <time>2017-05-27T11:20:11.506Z</time>
      </trkpt>
      <trkpt lat="40.00314167" lon="-0.39123833">
        <ele>420.0</ele>
        <time>2017-05-27T11:20:12.512Z</time>
      </trkpt>
      <trkpt lat="40.00316167" lon="-0.391275">
        <ele>420.0</ele>
        <time>2017-05-27T11:20:13.503Z</time>
      </trkpt>
      <trkpt lat="40.00316167" lon="-0.391275">
        <ele>420.0</ele>
        <time>2017-05-27T11:20:14.509Z</time>
      </trkpt>
      <trkpt lat="40.00318333" lon="-0.39132167">
        <ele>420.0</ele>
        <time>2017-05-27T11:20:15.509Z</time>
      </trkpt>
      <trkpt lat="40.00318333" lon="-0.39132167">
        <ele>420.0</ele>
        <time>2017-05-27T11:20:16.514Z</time>
      </trkpt>
      <trkpt lat="40.00319667" lon="-0.39136833">
        <ele>421.0</ele>
        <time>2017-05-27T11:20:17.506Z</time>
      </trkpt>
      <trkpt lat="40.00319667" lon="-0.39136833">
        <ele>421.0</ele>
        <time>2017-05-27T11:20:18.512Z</time>
      </trkpt>
      <trkpt lat="40.00321167" lon="-0.39140333">
        <ele>421.0</ele>
        <time>2017-05-27T11:20:19.523Z</time>
      </trkpt>
      <trkpt lat="40.00321833" lon="-0.39142167">
        <ele>421.0</ele>
        <time>2017-05-27T11:20:20.527Z</time>
      </trkpt>
      <trkpt lat="40.003225" lon="-0.39144">
        <ele>421.0</ele>
        <time>2017-05-27T11:20:21.501Z</time>
      </trkpt>
      <trkpt lat="40.003225" lon="-0.39144">
        <ele>421.0</ele>
        <time>2017-05-27T11:20:22.508Z</time>
      </trkpt>
      <trkpt lat="40.00324" lon="-0.39147167">
        <ele>421.0</ele>
        <time>2017-05-27T11:20:23.492Z</time>
      </trkpt>
      <trkpt lat="40.00324" lon="-0.39147167">
        <ele>421.0</ele>
        <time>2017-05-27T11:20:24.498Z</time>
      </trkpt>
      <trkpt lat="40.00325833" lon="-0.3915">
        <ele>421.0</ele>
        <time>2017-05-27T11:20:25.530Z</time>
      </trkpt>
      <trkpt lat="40.00325833" lon="-0.3915">
        <ele>421.0</ele>
        <time>2017-05-27T11:20:26.500Z</time>
      </trkpt>
      <trkpt lat="40.003275" lon="-0.39153167">
        <ele>422.0</ele>
        <time>2017-05-27T11:20:27.492Z</time>
      </trkpt>
      <trkpt lat="40.003275" lon="-0.39153167">
        <ele>422.0</ele>
        <time>2017-05-27T11:20:28.498Z</time>
      </trkpt>
      <trkpt lat="40.00329167" lon="-0.39156833">
        <ele>422.0</ele>
        <time>2017-05-27T11:20:29.491Z</time>
      </trkpt>
      <trkpt lat="40.00329167" lon="-0.39156833">
        <ele>422.0</ele>
        <time>2017-05-27T11:20:30.497Z</time>
      </trkpt>
      <trkpt lat="40.00331167" lon="-0.391605">
        <ele>422.0</ele>
        <time>2017-05-27T11:20:31.506Z</time>
      </trkpt>
      <trkpt lat="40.00332" lon="-0.39162667">
        <ele>422.0</ele>
        <time>2017-05-27T11:20:32.500Z</time>
      </trkpt>
      <trkpt lat="40.00332" lon="-0.39162667">
        <ele>422.0</ele>
        <time>2017-05-27T11:20:33.507Z</time>
      </trkpt>
      <trkpt lat="40.00333" lon="-0.39167">
        <ele>422.0</ele>
        <time>2017-05-27T11:20:34.510Z</time>
      </trkpt>
      <trkpt lat="40.00334" lon="-0.39169">
        <ele>422.0</ele>
        <time>2017-05-27T11:20:35.514Z</time>
      </trkpt>
      <trkpt lat="40.00334" lon="-0.39169">
        <ele>422.0</ele>
        <time>2017-05-27T11:20:36.520Z</time>
      </trkpt>
      <trkpt lat="40.003365" lon="-0.39173">
        <ele>423.0</ele>
        <time>2017-05-27T11:20:37.527Z</time>
      </trkpt>
      <trkpt lat="40.003375" lon="-0.39175">
        <ele>423.0</ele>
        <time>2017-05-27T11:20:38.531Z</time>
      </trkpt>
      <trkpt lat="40.003375" lon="-0.39175">
        <ele>423.0</ele>
        <time>2017-05-27T11:20:39.510Z</time>
      </trkpt>
      <trkpt lat="40.00340167" lon="-0.391785">
        <ele>423.0</ele>
        <time>2017-05-27T11:20:40.510Z</time>
      </trkpt>
      <trkpt lat="40.003415" lon="-0.39180167">
        <ele>423.0</ele>
        <time>2017-05-27T11:20:41.516Z</time>
      </trkpt>
      <trkpt lat="40.003415" lon="-0.39180167">
        <ele>423.0</ele>
        <time>2017-05-27T11:20:42.523Z</time>
      </trkpt>
      <trkpt lat="40.00343667" lon="-0.391835">
        <ele>423.0</ele>
        <time>2017-05-27T11:20:43.521Z</time>
      </trkpt>
      <trkpt lat="40.00344667" lon="-0.39185333">
        <ele>424.0</ele>
        <time>2017-05-27T11:20:44.508Z</time>
      </trkpt>
      <trkpt lat="40.00344667" lon="-0.39185333">
        <ele>424.0</ele>
        <time>2017-05-27T11:20:45.514Z</time>
      </trkpt>
      <trkpt lat="40.00345833" lon="-0.39189333">
        <ele>424.0</ele>
        <time>2017-05-27T11:20:46.503Z</time>
      </trkpt>
      <trkpt lat="40.00345833" lon="-0.39189333">
        <ele>424.0</ele>
        <time>2017-05-27T11:20:47.510Z</time>
      </trkpt>
      <trkpt lat="40.00347" lon="-0.39192667">
        <ele>425.0</ele>
        <time>2017-05-27T11:20:48.499Z</time>
      </trkpt>
      <trkpt lat="40.00347" lon="-0.39192667">
        <ele>425.0</ele>
        <time>2017-05-27T11:20:49.504Z</time>
      </trkpt>
      <trkpt lat="40.00349" lon="-0.39195">
        <ele>425.0</ele>
        <time>2017-05-27T11:20:50.494Z</time>
      </trkpt>
      <trkpt lat="40.00349" lon="-0.39195">
        <ele>425.0</ele>
        <time>2017-05-27T11:20:51.500Z</time>
      </trkpt>
      <trkpt lat="40.00351167" lon="-0.39197667">
        <ele>425.0</ele>
        <time>2017-05-27T11:20:52.500Z</time>
      </trkpt>
      <trkpt lat="40.00351833" lon="-0.391995">
        <ele>426.0</ele>
        <time>2017-05-27T11:20:53.533Z</time>
      </trkpt>
      <trkpt lat="40.00351833" lon="-0.391995">
        <ele>426.0</ele>
        <time>2017-05-27T11:20:54.500Z</time>
      </trkpt>
      <trkpt lat="40.00353167" lon="-0.39202667">
        <ele>426.0</ele>
        <time>2017-05-27T11:20:55.495Z</time>
      </trkpt>
      <trkpt lat="40.00353167" lon="-0.39202667">
        <ele>426.0</ele>
        <time>2017-05-27T11:20:56.505Z</time>
      </trkpt>
      <trkpt lat="40.00354833" lon="-0.39205333">
        <ele>426.0</ele>
        <time>2017-05-27T11:20:57.533Z</time>
      </trkpt>
      <trkpt lat="40.00354833" lon="-0.39205333">
        <ele>426.0</ele>
        <time>2017-05-27T11:20:58.499Z</time>
      </trkpt>
      <trkpt lat="40.00356667" lon="-0.39208667">
        <ele>426.0</ele>
        <time>2017-05-27T11:20:59.526Z</time>
      </trkpt>
      <trkpt lat="40.003575" lon="-0.39210667">
        <ele>426.0</ele>
        <time>2017-05-27T11:21:00.501Z</time>
      </trkpt>
      <trkpt lat="40.003575" lon="-0.39210667">
        <ele>426.0</ele>
        <time>2017-05-27T11:21:01.507Z</time>
      </trkpt>
      <trkpt lat="40.00359" lon="-0.39214667">
        <ele>426.0</ele>
        <time>2017-05-27T11:21:02.529Z</time>
      </trkpt>
      <trkpt lat="40.0036" lon="-0.39216667">
        <ele>426.0</ele>
        <time>2017-05-27T11:21:03.518Z</time>
      </trkpt>
      <trkpt lat="40.00360833" lon="-0.392185">
        <ele>426.0</ele>
        <time>2017-05-27T11:21:04.513Z</time>
      </trkpt>
      <trkpt lat="40.00360833" lon="-0.392185">
        <ele>426.0</ele>
        <time>2017-05-27T11:21:05.519Z</time>
      </trkpt>
      <trkpt lat="40.003625" lon="-0.392225">
        <ele>427.0</ele>
        <time>2017-05-27T11:21:06.521Z</time>
      </trkpt>
      <trkpt lat="40.00363167" lon="-0.392245">
        <ele>427.0</ele>
        <time>2017-05-27T11:21:07.530Z</time>
      </trkpt>
      <trkpt lat="40.00363167" lon="-0.392245">
        <ele>427.0</ele>
        <time>2017-05-27T11:21:08.505Z</time>
      </trkpt>
      <trkpt lat="40.003645" lon="-0.39228667">
        <ele>427.0</ele>
        <time>2017-05-27T11:21:09.505Z</time>
      </trkpt>
      <trkpt lat="40.003645" lon="-0.39228667">
        <ele>427.0</ele>
        <time>2017-05-27T11:21:10.511Z</time>
      </trkpt>
      <trkpt lat="40.00365667" lon="-0.39233333">
        <ele>427.0</ele>
        <time>2017-05-27T11:21:11.504Z</time>
      </trkpt>
      <trkpt lat="40.00365667" lon="-0.39233333">
        <ele>427.0</ele>
        <time>2017-05-27T11:21:12.510Z</time>
      </trkpt>
      <trkpt lat="40.00366667" lon="-0.392375">
        <ele>427.0</ele>
        <time>2017-05-27T11:21:13.502Z</time>
      </trkpt>
      <trkpt lat="40.00366667" lon="-0.392375">
        <ele>427.0</ele>
        <time>2017-05-27T11:21:14.508Z</time>
      </trkpt>
      <trkpt lat="40.00367667" lon="-0.39241167">
        <ele>427.0</ele>
        <time>2017-05-27T11:21:15.494Z</time>
      </trkpt>
      <trkpt lat="40.00367667" lon="-0.39241167">
        <ele>427.0</ele>
        <time>2017-05-27T11:21:16.500Z</time>
      </trkpt>
      <trkpt lat="40.00368333" lon="-0.39245">
        <ele>428.0</ele>
        <time>2017-05-27T11:21:17.496Z</time>
      </trkpt>
      <trkpt lat="40.00368333" lon="-0.39245">
        <ele>428.0</ele>
        <time>2017-05-27T11:21:18.504Z</time>
      </trkpt>
      <trkpt lat="40.00369333" lon="-0.39248167">
        <ele>428.0</ele>
        <time>2017-05-27T11:21:19.503Z</time>
      </trkpt>
      <trkpt lat="40.00369333" lon="-0.39248167">
        <ele>428.0</ele>
        <time>2017-05-27T11:21:20.509Z</time>
      </trkpt>
      <trkpt lat="40.0037" lon="-0.39251167">
        <ele>428.0</ele>
        <time>2017-05-27T11:21:21.503Z</time>
      </trkpt>
      <trkpt lat="40.0037" lon="-0.39251167">
        <ele>428.0</ele>
        <time>2017-05-27T11:21:22.509Z</time>
      </trkpt>
      <trkpt lat="40.00371167" lon="-0.39255167">
        <ele>428.0</ele>
        <time>2017-05-27T11:21:23.496Z</time>
      </trkpt>
      <trkpt lat="40.00371833" lon="-0.39257333">
        <ele>429.0</ele>
        <time>2017-05-27T11:21:24.499Z</time>
      </trkpt>
      <trkpt lat="40.00371833" lon="-0.39257333">
        <ele>429.0</ele>
        <time>2017-05-27T11:21:25.505Z</time>
      </trkpt>
      <trkpt lat="40.00373" lon="-0.39262">
        <ele>429.0</ele>
        <time>2017-05-27T11:21:26.507Z</time>
      </trkpt>
      <trkpt lat="40.00373833" lon="-0.39264167">
        <ele>429.0</ele>
        <time>2017-05-27T11:21:27.516Z</time>
      </trkpt>
      <trkpt lat="40.00373833" lon="-0.39264167">
        <ele>429.0</ele>
        <time>2017-05-27T11:21:28.522Z</time>
      </trkpt>
      <trkpt lat="40.00375667" lon="-0.39268833">
        <ele>429.0</ele>
        <time>2017-05-27T11:21:29.528Z</time>
      </trkpt>
      <trkpt lat="40.00375667" lon="-0.39268833">
        <ele>429.0</ele>
        <time>2017-05-27T11:21:30.495Z</time>
      </trkpt>
      <trkpt lat="40.00376667" lon="-0.39273333">
        <ele>429.0</ele>
        <time>2017-05-27T11:21:31.500Z</time>
      </trkpt>
      <trkpt lat="40.00376667" lon="-0.39273333">
        <ele>429.0</ele>
        <time>2017-05-27T11:21:32.506Z</time>
      </trkpt>
      <trkpt lat="40.003775" lon="-0.39278333">
        <ele>429.0</ele>
        <time>2017-05-27T11:21:33.495Z</time>
      </trkpt>
      <trkpt lat="40.003775" lon="-0.39278333">
        <ele>429.0</ele>
        <time>2017-05-27T11:21:34.501Z</time>
      </trkpt>
      <trkpt lat="40.00378333" lon="-0.392835">
        <ele>429.0</ele>
        <time>2017-05-27T11:21:35.507Z</time>
      </trkpt>
      <trkpt lat="40.00378333" lon="-0.392835">
        <ele>429.0</ele>
        <time>2017-05-27T11:21:36.513Z</time>
      </trkpt>
      <trkpt lat="40.00379" lon="-0.39288833">
        <ele>429.0</ele>
        <time>2017-05-27T11:21:37.513Z</time>
      </trkpt>
      <trkpt lat="40.00379" lon="-0.39288833">
        <ele>429.0</ele>
        <time>2017-05-27T11:21:38.519Z</time>
      </trkpt>
      <trkpt lat="40.0038" lon="-0.39294">
        <ele>429.0</ele>
        <time>2017-05-27T11:21:39.530Z</time>
      </trkpt>
      <trkpt lat="40.0038" lon="-0.39294">
        <ele>429.0</ele>
        <time>2017-05-27T11:21:40.514Z</time>
      </trkpt>
      <trkpt lat="40.00380833" lon="-0.39298833">
        <ele>430.0</ele>
        <time>2017-05-27T11:21:41.510Z</time>
      </trkpt>
      <trkpt lat="40.00380833" lon="-0.39298833">
        <ele>430.0</ele>
        <time>2017-05-27T11:21:42.517Z</time>
      </trkpt>
      <trkpt lat="40.00381667" lon="-0.39304">
        <ele>430.0</ele>
        <time>2017-05-27T11:21:43.526Z</time>
      </trkpt>
      <trkpt lat="40.00382333" lon="-0.393065">
        <ele>430.0</ele>
        <time>2017-05-27T11:21:44.521Z</time>
      </trkpt>
      <trkpt lat="40.00382333" lon="-0.393065">
        <ele>430.0</ele>
        <time>2017-05-27T11:21:45.532Z</time>
      </trkpt>
      <trkpt lat="40.00383833" lon="-0.39310833">
        <ele>430.0</ele>
        <time>2017-05-27T11:21:46.517Z</time>
      </trkpt>
      <trkpt lat="40.00384333" lon="-0.39313">
        <ele>430.0</ele>
        <time>2017-05-27T11:21:47.510Z</time>
      </trkpt>
      <trkpt lat="40.00384333" lon="-0.39313">
        <ele>430.0</ele>
        <time>2017-05-27T11:21:48.516Z</time>
      </trkpt>
      <trkpt lat="40.00385833" lon="-0.39318">
        <ele>431.0</ele>
        <time>2017-05-27T11:21:49.507Z</time>
      </trkpt>
      <trkpt lat="40.00385833" lon="-0.39318">
        <ele>431.0</ele>
        <time>2017-05-27T11:21:50.513Z</time>
      </trkpt>
      <trkpt lat="40.003875" lon="-0.39322833">
        <ele>431.0</ele>
        <time>2017-05-27T11:21:51.491Z</time>
      </trkpt>
      <trkpt lat="40.00388667" lon="-0.39325167">
        <ele>431.0</ele>
        <time>2017-05-27T11:21:52.497Z</time>
      </trkpt>
      <trkpt lat="40.00389667" lon="-0.39327">
        <ele>432.0</ele>
        <time>2017-05-27T11:21:53.532Z</time>
      </trkpt>
      <trkpt lat="40.00389667" lon="-0.39327">
        <ele>432.0</ele>
        <time>2017-05-27T11:21:54.498Z</time>
      </trkpt>
      <trkpt lat="40.00391833" lon="-0.39331167">
        <ele>432.0</ele>
        <time>2017-05-27T11:21:55.495Z</time>
      </trkpt>
      <trkpt lat="40.00392333" lon="-0.39333333">
        <ele>432.0</ele>
        <time>2017-05-27T11:21:56.527Z</time>
      </trkpt>
      <trkpt lat="40.00392333" lon="-0.39333333">
        <ele>432.0</ele>
        <time>2017-05-27T11:21:57.497Z</time>
      </trkpt>
      <trkpt lat="40.00393833" lon="-0.39337833">
        <ele>433.0</ele>
        <time>2017-05-27T11:21:58.531Z</time>
      </trkpt>
      <trkpt lat="40.00393833" lon="-0.39337833">
        <ele>433.0</ele>
        <time>2017-05-27T11:21:59.500Z</time>
      </trkpt>
      <trkpt lat="40.00395667" lon="-0.39342333">
        <ele>433.0</ele>
        <time>2017-05-27T11:22:00.494Z</time>
      </trkpt>
      <trkpt lat="40.00396833" lon="-0.39344333">
        <ele>433.0</ele>
        <time>2017-05-27T11:22:01.524Z</time>
      </trkpt>
      <trkpt lat="40.00396833" lon="-0.39344333">
        <ele>433.0</ele>
        <time>2017-05-27T11:22:02.499Z</time>
      </trkpt>
      <trkpt lat="40.003985" lon="-0.39348667">
        <ele>433.0</ele>
        <time>2017-05-27T11:22:03.508Z</time>
      </trkpt>
      <trkpt lat="40.003985" lon="-0.39348667">
        <ele>433.0</ele>
        <time>2017-05-27T11:22:04.514Z</time>
      </trkpt>
      <trkpt lat="40.004005" lon="-0.393535">
        <ele>433.0</ele>
        <time>2017-05-27T11:22:05.505Z</time>
      </trkpt>
      <trkpt lat="40.004005" lon="-0.393535">
        <ele>433.0</ele>
        <time>2017-05-27T11:22:06.511Z</time>
      </trkpt>
      <trkpt lat="40.00402333" lon="-0.39357667">
        <ele>434.0</ele>
        <time>2017-05-27T11:22:07.507Z</time>
      </trkpt>
      <trkpt lat="40.00403333" lon="-0.39359667">
        <ele>434.0</ele>
        <time>2017-05-27T11:22:08.495Z</time>
      </trkpt>
      <trkpt lat="40.00403333" lon="-0.39359667">
        <ele>434.0</ele>
        <time>2017-05-27T11:22:09.502Z</time>
      </trkpt>
      <trkpt lat="40.00405" lon="-0.39364333">
        <ele>435.0</ele>
        <time>2017-05-27T11:22:10.496Z</time>
      </trkpt>
      <trkpt lat="40.00405833" lon="-0.39366833">
        <ele>435.0</ele>
        <time>2017-05-27T11:22:11.534Z</time>
      </trkpt>
      <trkpt lat="40.00405833" lon="-0.39366833">
        <ele>435.0</ele>
        <time>2017-05-27T11:22:12.510Z</time>
      </trkpt>
      <trkpt lat="40.00407833" lon="-0.39371167">
        <ele>436.0</ele>
        <time>2017-05-27T11:22:13.496Z</time>
      </trkpt>
      <trkpt lat="40.00408833" lon="-0.39373167">
        <ele>436.0</ele>
        <time>2017-05-27T11:22:14.493Z</time>
      </trkpt>
      <trkpt lat="40.00408833" lon="-0.39373167">
        <ele>436.0</ele>
        <time>2017-05-27T11:22:15.499Z</time>
      </trkpt>
      <trkpt lat="40.00410667" lon="-0.39377167">
        <ele>436.0</ele>
        <time>2017-05-27T11:22:16.534Z</time>
      </trkpt>
      <trkpt lat="40.00412" lon="-0.39379167">
        <ele>437.0</ele>
        <time>2017-05-27T11:22:17.505Z</time>
      </trkpt>
      <trkpt lat="40.00412" lon="-0.39379167">
        <ele>437.0</ele>
        <time>2017-05-27T11:22:18.512Z</time>
      </trkpt>
      <trkpt lat="40.00414167" lon="-0.39384">
        <ele>437.0</ele>
        <time>2017-05-27T11:22:19.508Z</time>
      </trkpt>
      <trkpt lat="40.00414167" lon="-0.39384">
        <ele>437.0</ele>
        <time>2017-05-27T11:22:20.508Z</time>
      </trkpt>
      <trkpt lat="40.00416" lon="-0.39388">
        <ele>438.0</ele>
        <time>2017-05-27T11:22:21.527Z</time>
      </trkpt>
      <trkpt lat="40.00416" lon="-0.39388">
        <ele>438.0</ele>
        <time>2017-05-27T11:22:22.495Z</time>
      </trkpt>
      <trkpt lat="40.00417333" lon="-0.393925">
        <ele>439.0</ele>
        <time>2017-05-27T11:22:23.496Z</time>
      </trkpt>
      <trkpt lat="40.00417667" lon="-0.39395">
        <ele>439.0</ele>
        <time>2017-05-27T11:22:24.527Z</time>
      </trkpt>
      <trkpt lat="40.00417667" lon="-0.39395">
        <ele>439.0</ele>
        <time>2017-05-27T11:22:25.493Z</time>
      </trkpt>
      <trkpt lat="40.00418667" lon="-0.393995">
        <ele>440.0</ele>
        <time>2017-05-27T11:22:26.526Z</time>
      </trkpt>
      <trkpt lat="40.00418833" lon="-0.39402167">
        <ele>440.0</ele>
        <time>2017-05-27T11:22:27.531Z</time>
      </trkpt>
      <trkpt lat="40.00418833" lon="-0.39402167">
        <ele>440.0</ele>
        <time>2017-05-27T11:22:28.496Z</time>
      </trkpt>
      <trkpt lat="40.00419167" lon="-0.39407">
        <ele>440.0</ele>
        <time>2017-05-27T11:22:29.510Z</time>
      </trkpt>
      <trkpt lat="40.00419167" lon="-0.39407">
        <ele>440.0</ele>
        <time>2017-05-27T11:22:30.516Z</time>
      </trkpt>
      <trkpt lat="40.00419667" lon="-0.39411667">
        <ele>441.0</ele>
        <time>2017-05-27T11:22:31.502Z</time>
      </trkpt>
      <trkpt lat="40.00419833" lon="-0.39414">
        <ele>441.0</ele>
        <time>2017-05-27T11:22:32.526Z</time>
      </trkpt>
      <trkpt lat="40.00419833" lon="-0.39414">
        <ele>441.0</ele>
        <time>2017-05-27T11:22:33.499Z</time>
      </trkpt>
      <trkpt lat="40.00419833" lon="-0.39418833">
        <ele>441.0</ele>
        <time>2017-05-27T11:22:34.502Z</time>
      </trkpt>
      <trkpt lat="40.00419833" lon="-0.39418833">
        <ele>441.0</ele>
        <time>2017-05-27T11:22:35.508Z</time>
      </trkpt>
      <trkpt lat="40.00419833" lon="-0.39423667">
        <ele>442.0</ele>
        <time>2017-05-27T11:22:36.499Z</time>
      </trkpt>
      <trkpt lat="40.00419833" lon="-0.39423667">
        <ele>442.0</ele>
        <time>2017-05-27T11:22:37.505Z</time>
      </trkpt>
      <trkpt lat="40.00419333" lon="-0.39429">
        <ele>442.0</ele>
        <time>2017-05-27T11:22:38.508Z</time>
      </trkpt>
      <trkpt lat="40.00419" lon="-0.394315">
        <ele>443.0</ele>
        <time>2017-05-27T11:22:39.524Z</time>
      </trkpt>
      <trkpt lat="40.00419" lon="-0.394315">
        <ele>443.0</ele>
        <time>2017-05-27T11:22:40.519Z</time>
      </trkpt>
      <trkpt lat="40.004175" lon="-0.39436667">
        <ele>443.0</ele>
        <time>2017-05-27T11:22:41.497Z</time>
      </trkpt>
      <trkpt lat="40.004175" lon="-0.39436667">
        <ele>443.0</ele>
        <time>2017-05-27T11:22:42.506Z</time>
      </trkpt>
      <trkpt lat="40.00416167" lon="-0.39441833">
        <ele>444.0</ele>
        <time>2017-05-27T11:22:43.512Z</time>
      </trkpt>
      <trkpt lat="40.00416167" lon="-0.39441833">
        <ele>444.0</ele>
        <time>2017-05-27T11:22:44.518Z</time>
      </trkpt>
      <trkpt lat="40.00415167" lon="-0.39446833">
        <ele>445.0</ele>
        <time>2017-05-27T11:22:45.516Z</time>
      </trkpt>
      <trkpt lat="40.00415167" lon="-0.39446833">
        <ele>445.0</ele>
        <time>2017-05-27T11:22:46.523Z</time>
      </trkpt>
      <trkpt lat="40.00414333" lon="-0.39452">
        <ele>445.0</ele>
        <time>2017-05-27T11:22:47.505Z</time>
      </trkpt>
      <trkpt lat="40.00414333" lon="-0.39452">
        <ele>445.0</ele>
        <time>2017-05-27T11:22:48.511Z</time>
      </trkpt>
      <trkpt lat="40.00412667" lon="-0.39456667">
        <ele>446.0</ele>
        <time>2017-05-27T11:22:49.510Z</time>
      </trkpt>
      <trkpt lat="40.00411833" lon="-0.39459167">
        <ele>446.0</ele>
        <time>2017-05-27T11:22:50.528Z</time>
      </trkpt>
      <trkpt lat="40.00411167" lon="-0.39462167">
        <ele>446.0</ele>
        <time>2017-05-27T11:22:51.516Z</time>
      </trkpt>
      <trkpt lat="40.00411167" lon="-0.39462167">
        <ele>446.0</ele>
        <time>2017-05-27T11:22:52.524Z</time>
      </trkpt>
      <trkpt lat="40.00408833" lon="-0.394675">
        <ele>447.0</ele>
        <time>2017-05-27T11:22:53.494Z</time>
      </trkpt>
      <trkpt lat="40.00407833" lon="-0.3947">
        <ele>447.0</ele>
        <time>2017-05-27T11:22:54.530Z</time>
      </trkpt>
      <trkpt lat="40.00407833" lon="-0.3947">
        <ele>447.0</ele>
        <time>2017-05-27T11:22:55.501Z</time>
      </trkpt>
      <trkpt lat="40.00405833" lon="-0.39475167">
        <ele>448.0</ele>
        <time>2017-05-27T11:22:56.496Z</time>
      </trkpt>
      <trkpt lat="40.00404833" lon="-0.39477667">
        <ele>448.0</ele>
        <time>2017-05-27T11:22:57.502Z</time>
      </trkpt>
      <trkpt lat="40.00404833" lon="-0.39477667">
        <ele>448.0</ele>
        <time>2017-05-27T11:22:58.508Z</time>
      </trkpt>
      <trkpt lat="40.00403" lon="-0.39482667">
        <ele>449.0</ele>
        <time>2017-05-27T11:22:59.500Z</time>
      </trkpt>
      <trkpt lat="40.00403" lon="-0.39482667">
        <ele>449.0</ele>
        <time>2017-05-27T11:23:00.506Z</time>
      </trkpt>
      <trkpt lat="40.00401" lon="-0.39488">
        <ele>449.0</ele>
        <time>2017-05-27T11:23:01.494Z</time>
      </trkpt>
      <trkpt lat="40.00401" lon="-0.39488">
        <ele>449.0</ele>
        <time>2017-05-27T11:23:02.499Z</time>
      </trkpt>
      <trkpt lat="40.00399" lon="-0.394925">
        <ele>450.0</ele>
        <time>2017-05-27T11:23:03.498Z</time>
      </trkpt>
      <trkpt lat="40.00399" lon="-0.394925">
        <ele>450.0</ele>
        <time>2017-05-27T11:23:04.504Z</time>
      </trkpt>
      <trkpt lat="40.00397167" lon="-0.394975">
        <ele>451.0</ele>
        <time>2017-05-27T11:23:05.492Z</time>
      </trkpt>
      <trkpt lat="40.00397167" lon="-0.394975">
        <ele>451.0</ele>
        <time>2017-05-27T11:23:06.499Z</time>
      </trkpt>
      <trkpt lat="40.00395333" lon="-0.395025">
        <ele>451.0</ele>
        <time>2017-05-27T11:23:07.503Z</time>
      </trkpt>
      <trkpt lat="40.00395333" lon="-0.395025">
        <ele>451.0</ele>
        <time>2017-05-27T11:23:08.509Z</time>
      </trkpt>
      <trkpt lat="40.00392833" lon="-0.39507">
        <ele>452.0</ele>
        <time>2017-05-27T11:23:09.501Z</time>
      </trkpt>
      <trkpt lat="40.00392833" lon="-0.39507">
        <ele>452.0</ele>
        <time>2017-05-27T11:23:10.507Z</time>
      </trkpt>
      <trkpt lat="40.003905" lon="-0.395115">
        <ele>453.0</ele>
        <time>2017-05-27T11:23:11.495Z</time>
      </trkpt>
      <trkpt lat="40.003905" lon="-0.395115">
        <ele>453.0</ele>
        <time>2017-05-27T11:23:12.501Z</time>
      </trkpt>
      <trkpt lat="40.00388167" lon="-0.39515333">
        <ele>453.0</ele>
        <time>2017-05-27T11:23:13.497Z</time>
      </trkpt>
      <trkpt lat="40.00387" lon="-0.395175">
        <ele>453.0</ele>
        <time>2017-05-27T11:23:14.528Z</time>
      </trkpt>
      <trkpt lat="40.00387" lon="-0.395175">
        <ele>453.0</ele>
        <time>2017-05-27T11:23:15.498Z</time>
      </trkpt>
      <trkpt lat="40.00384167" lon="-0.39522167">
        <ele>454.0</ele>
        <time>2017-05-27T11:23:16.535Z</time>
      </trkpt>
      <trkpt lat="40.00382833" lon="-0.39524333">
        <ele>454.0</ele>
        <time>2017-05-27T11:23:17.506Z</time>
      </trkpt>
      <trkpt lat="40.00382833" lon="-0.39524333">
        <ele>454.0</ele>
        <time>2017-05-27T11:23:18.512Z</time>
      </trkpt>
      <trkpt lat="40.00380333" lon="-0.39529167">
        <ele>455.0</ele>
        <time>2017-05-27T11:23:19.528Z</time>
      </trkpt>
      <trkpt lat="40.00380333" lon="-0.39529167">
        <ele>455.0</ele>
        <time>2017-05-27T11:23:20.498Z</time>
      </trkpt>
      <trkpt lat="40.00379333" lon="-0.39536">
        <ele>455.0</ele>
        <time>2017-05-27T11:23:21.517Z</time>
      </trkpt>
      <trkpt lat="40.00379333" lon="-0.39536">
        <ele>455.0</ele>
        <time>2017-05-27T11:23:22.497Z</time>
      </trkpt>
      <trkpt lat="40.003795" lon="-0.39543">
        <ele>456.0</ele>
        <time>2017-05-27T11:23:23.524Z</time>
      </trkpt>
      <trkpt lat="40.003795" lon="-0.39546333">
        <ele>456.0</ele>
        <time>2017-05-27T11:23:24.520Z</time>
      </trkpt>
      <trkpt lat="40.003795" lon="-0.39546333">
        <ele>456.0</ele>
        <time>2017-05-27T11:23:25.526Z</time>
      </trkpt>
      <trkpt lat="40.0038" lon="-0.39553">
        <ele>456.0</ele>
        <time>2017-05-27T11:23:26.508Z</time>
      </trkpt>
      <trkpt lat="40.0038" lon="-0.39553">
        <ele>456.0</ele>
        <time>2017-05-27T11:23:27.514Z</time>
      </trkpt>
      <trkpt lat="40.00381" lon="-0.395595">
        <ele>457.0</ele>
        <time>2017-05-27T11:23:28.495Z</time>
      </trkpt>
      <trkpt lat="40.003815" lon="-0.395625">
        <ele>457.0</ele>
        <time>2017-05-27T11:23:29.532Z</time>
      </trkpt>
      <trkpt lat="40.003815" lon="-0.395625">
        <ele>457.0</ele>
        <time>2017-05-27T11:23:30.498Z</time>
      </trkpt>
      <trkpt lat="40.00382333" lon="-0.395685">
        <ele>457.0</ele>
        <time>2017-05-27T11:23:31.524Z</time>
      </trkpt>
      <trkpt lat="40.00382333" lon="-0.395685">
        <ele>457.0</ele>
        <time>2017-05-27T11:23:32.499Z</time>
      </trkpt>
      <trkpt lat="40.00383333" lon="-0.39574833">
        <ele>458.0</ele>
        <time>2017-05-27T11:23:33.496Z</time>
      </trkpt>
      <trkpt lat="40.00384" lon="-0.39578">
        <ele>458.0</ele>
        <time>2017-05-27T11:23:34.499Z</time>
      </trkpt>
      <trkpt lat="40.00384" lon="-0.39578">
        <ele>458.0</ele>
        <time>2017-05-27T11:23:35.505Z</time>
      </trkpt>
      <trkpt lat="40.00385333" lon="-0.39584333">
        <ele>458.0</ele>
        <time>2017-05-27T11:23:36.527Z</time>
      </trkpt>
      <trkpt lat="40.00385833" lon="-0.395875">
        <ele>458.0</ele>
        <time>2017-05-27T11:23:37.506Z</time>
      </trkpt>
      <trkpt lat="40.00385833" lon="-0.395875">
        <ele>458.0</ele>
        <time>2017-05-27T11:23:38.514Z</time>
      </trkpt>
      <trkpt lat="40.00386833" lon="-0.39593833">
        <ele>459.0</ele>
        <time>2017-05-27T11:23:39.519Z</time>
      </trkpt>
      <trkpt lat="40.00386833" lon="-0.39593833">
        <ele>459.0</ele>
        <time>2017-05-27T11:23:40.503Z</time>
      </trkpt>
      <trkpt lat="40.00387333" lon="-0.396">
        <ele>459.0</ele>
        <time>2017-05-27T11:23:41.506Z</time>
      </trkpt>
      <trkpt lat="40.00387333" lon="-0.396">
        <ele>459.0</ele>
        <time>2017-05-27T11:23:42.512Z</time>
      </trkpt>
      <trkpt lat="40.003875" lon="-0.39606333">
        <ele>460.0</ele>
        <time>2017-05-27T11:23:43.516Z</time>
      </trkpt>
      <trkpt lat="40.003875" lon="-0.39606333">
        <ele>460.0</ele>
        <time>2017-05-27T11:23:44.522Z</time>
      </trkpt>
      <trkpt lat="40.00387833" lon="-0.39612333">
        <ele>460.0</ele>
        <time>2017-05-27T11:23:45.521Z</time>
      </trkpt>
      <trkpt lat="40.00387833" lon="-0.39612333">
        <ele>460.0</ele>
        <time>2017-05-27T11:23:46.499Z</time>
      </trkpt>
      <trkpt lat="40.00386833" lon="-0.39618">
        <ele>461.0</ele>
        <time>2017-05-27T11:23:47.527Z</time>
      </trkpt>
      <trkpt lat="40.00386333" lon="-0.39620833">
        <ele>461.0</ele>
        <time>2017-05-27T11:23:48.519Z</time>
      </trkpt>
      <trkpt lat="40.00386333" lon="-0.39620833">
        <ele>461.0</ele>
        <time>2017-05-27T11:23:49.527Z</time>
      </trkpt>
      <trkpt lat="40.00384" lon="-0.39625333">
        <ele>461.0</ele>
        <time>2017-05-27T11:23:50.522Z</time>
      </trkpt>
      <trkpt lat="40.00384" lon="-0.39625333">
        <ele>461.0</ele>
        <time>2017-05-27T11:23:51.498Z</time>
      </trkpt>
      <trkpt lat="40.00380333" lon="-0.39626167">
        <ele>462.0</ele>
        <time>2017-05-27T11:23:52.520Z</time>
      </trkpt>
      <trkpt lat="40.00380333" lon="-0.39626167">
        <ele>462.0</ele>
        <time>2017-05-27T11:23:53.531Z</time>
      </trkpt>
      <trkpt lat="40.00377" lon="-0.39623">
        <ele>462.0</ele>
        <time>2017-05-27T11:23:54.512Z</time>
      </trkpt>
      <trkpt lat="40.00375833" lon="-0.39620667">
        <ele>463.0</ele>
        <time>2017-05-27T11:23:55.513Z</time>
      </trkpt>
      <trkpt lat="40.00374833" lon="-0.39618167">
        <ele>463.0</ele>
        <time>2017-05-27T11:23:56.507Z</time>
      </trkpt>
      <trkpt lat="40.00374833" lon="-0.39618167">
        <ele>463.0</ele>
        <time>2017-05-27T11:23:57.509Z</time>
      </trkpt>
      <trkpt lat="40.00372833" lon="-0.39613">
        <ele>463.0</ele>
        <time>2017-05-27T11:23:58.502Z</time>
      </trkpt>
      <trkpt lat="40.00372167" lon="-0.3961">
        <ele>463.0</ele>
        <time>2017-05-27T11:23:59.498Z</time>
      </trkpt>
      <trkpt lat="40.00372167" lon="-0.3961">
        <ele>463.0</ele>
        <time>2017-05-27T11:24:00.504Z</time>
      </trkpt>
      <trkpt lat="40.00370833" lon="-0.39604167">
        <ele>464.0</ele>
        <time>2017-05-27T11:24:01.493Z</time>
      </trkpt>
      <trkpt lat="40.0037" lon="-0.39601167">
        <ele>464.0</ele>
        <time>2017-05-27T11:24:02.530Z</time>
      </trkpt>
      <trkpt lat="40.0037" lon="-0.39601167">
        <ele>464.0</ele>
        <time>2017-05-27T11:24:03.495Z</time>
      </trkpt>
      <trkpt lat="40.00368333" lon="-0.39595167">
        <ele>465.0</ele>
        <time>2017-05-27T11:24:04.496Z</time>
      </trkpt>
      <trkpt lat="40.00367667" lon="-0.39592167">
        <ele>465.0</ele>
        <time>2017-05-27T11:24:05.493Z</time>
      </trkpt>
      <trkpt lat="40.00367667" lon="-0.39592167">
        <ele>465.0</ele>
        <time>2017-05-27T11:24:06.499Z</time>
      </trkpt>
      <trkpt lat="40.00366333" lon="-0.39586">
        <ele>465.0</ele>
        <time>2017-05-27T11:24:07.499Z</time>
      </trkpt>
      <trkpt lat="40.00366333" lon="-0.39586">
        <ele>465.0</ele>
        <time>2017-05-27T11:24:08.507Z</time>
      </trkpt>
      <trkpt lat="40.00365" lon="-0.39579833">
        <ele>466.0</ele>
        <time>2017-05-27T11:24:09.500Z</time>
      </trkpt>
      <trkpt lat="40.00365" lon="-0.39579833">
        <ele>466.0</ele>
        <time>2017-05-27T11:24:10.506Z</time>
      </trkpt>
      <trkpt lat="40.00363167" lon="-0.39573667">
        <ele>467.0</ele>
        <time>2017-05-27T11:24:11.496Z</time>
      </trkpt>
      <trkpt lat="40.00363167" lon="-0.39573667">
        <ele>467.0</ele>
        <time>2017-05-27T11:24:12.503Z</time>
      </trkpt>
      <trkpt lat="40.00360833" lon="-0.39568">
        <ele>467.0</ele>
        <time>2017-05-27T11:24:13.516Z</time>
      </trkpt>
      <trkpt lat="40.003595" lon="-0.39565167">
        <ele>467.0</ele>
        <time>2017-05-27T11:24:14.530Z</time>
      </trkpt>
      <trkpt lat="40.00358167" lon="-0.395625">
        <ele>468.0</ele>
        <time>2017-05-27T11:24:15.522Z</time>
      </trkpt>
      <trkpt lat="40.00358167" lon="-0.395625">
        <ele>468.0</ele>
        <time>2017-05-27T11:24:16.497Z</time>
      </trkpt>
      <trkpt lat="40.00355333" lon="-0.395575">
        <ele>468.0</ele>
        <time>2017-05-27T11:24:17.524Z</time>
      </trkpt>
      <trkpt lat="40.00355333" lon="-0.395575">
        <ele>468.0</ele>
        <time>2017-05-27T11:24:18.498Z</time>
      </trkpt>
      <trkpt lat="40.00352333" lon="-0.39552333">
        <ele>468.0</ele>
        <time>2017-05-27T11:24:19.508Z</time>
      </trkpt>
      <trkpt lat="40.00352333" lon="-0.39552333">
        <ele>468.0</ele>
        <time>2017-05-27T11:24:20.514Z</time>
      </trkpt>
      <trkpt lat="40.00349" lon="-0.39547667">
        <ele>469.0</ele>
        <time>2017-05-27T11:24:21.509Z</time>
      </trkpt>
      <trkpt lat="40.00349" lon="-0.39547667">
        <ele>469.0</ele>
        <time>2017-05-27T11:24:22.515Z</time>
      </trkpt>
      <trkpt lat="40.00345833" lon="-0.39542667">
        <ele>469.0</ele>
        <time>2017-05-27T11:24:23.506Z</time>
      </trkpt>
      <trkpt lat="40.00345833" lon="-0.39542667">
        <ele>469.0</ele>
        <time>2017-05-27T11:24:24.512Z</time>
      </trkpt>
      <trkpt lat="40.00343833" lon="-0.39536833">
        <ele>470.0</ele>
        <time>2017-05-27T11:24:25.526Z</time>
      </trkpt>
      <trkpt lat="40.00343333" lon="-0.39533667">
        <ele>470.0</ele>
        <time>2017-05-27T11:24:26.517Z</time>
      </trkpt>
      <trkpt lat="40.00343333" lon="-0.39533667">
        <ele>470.0</ele>
        <time>2017-05-27T11:24:27.523Z</time>
      </trkpt>
      <trkpt lat="40.00343167" lon="-0.39528">
        <ele>471.0</ele>
        <time>2017-05-27T11:24:28.516Z</time>
      </trkpt>
      <trkpt lat="40.00343333" lon="-0.39525333">
        <ele>471.0</ele>
        <time>2017-05-27T11:24:29.507Z</time>
      </trkpt>
      <trkpt lat="40.00343333" lon="-0.39525333">
        <ele>471.0</ele>
        <time>2017-05-27T11:24:30.513Z</time>
      </trkpt>
      <trkpt lat="40.003445" lon="-0.39519333">
        <ele>471.0</ele>
        <time>2017-05-27T11:24:31.516Z</time>
      </trkpt>
      <trkpt lat="40.00345333" lon="-0.39516333">
        <ele>471.0</ele>
        <time>2017-05-27T11:24:32.510Z</time>
      </trkpt>
      <trkpt lat="40.00345333" lon="-0.39516333">
        <ele>471.0</ele>
        <time>2017-05-27T11:24:33.518Z</time>
      </trkpt>
      <trkpt lat="40.00346667" lon="-0.39510333">
        <ele>472.0</ele>
        <time>2017-05-27T11:24:34.512Z</time>
      </trkpt>
      <trkpt lat="40.00346667" lon="-0.39510333">
        <ele>472.0</ele>
        <time>2017-05-27T11:24:35.518Z</time>
      </trkpt>
      <trkpt lat="40.00347833" lon="-0.39504333">
        <ele>473.0</ele>
        <time>2017-05-27T11:24:36.514Z</time>
      </trkpt>
      <trkpt lat="40.00347833" lon="-0.39504333">
        <ele>473.0</ele>
        <time>2017-05-27T11:24:37.520Z</time>
      </trkpt>
      <trkpt lat="40.00349667" lon="-0.39498167">
        <ele>473.0</ele>
        <time>2017-05-27T11:24:38.516Z</time>
      </trkpt>
      <trkpt lat="40.00350167" lon="-0.39495167">
        <ele>473.0</ele>
        <time>2017-05-27T11:24:39.516Z</time>
      </trkpt>
      <trkpt lat="40.00350167" lon="-0.39495167">
        <ele>473.0</ele>
        <time>2017-05-27T11:24:40.534Z</time>
      </trkpt>
      <trkpt lat="40.00350833" lon="-0.39489167">
        <ele>474.0</ele>
        <time>2017-05-27T11:24:41.498Z</time>
      </trkpt>
      <trkpt lat="40.00350833" lon="-0.39489167">
        <ele>474.0</ele>
        <time>2017-05-27T11:24:42.505Z</time>
      </trkpt>
      <trkpt lat="40.00351333" lon="-0.39483167">
        <ele>474.0</ele>
        <time>2017-05-27T11:24:43.494Z</time>
      </trkpt>
      <trkpt lat="40.00351833" lon="-0.3948">
        <ele>474.0</ele>
        <time>2017-05-27T11:24:44.526Z</time>
      </trkpt>
      <trkpt lat="40.00351833" lon="-0.3948">
        <ele>474.0</ele>
        <time>2017-05-27T11:24:45.494Z</time>
      </trkpt>
      <trkpt lat="40.00352167" lon="-0.39474">
        <ele>475.0</ele>
        <time>2017-05-27T11:24:46.520Z</time>
      </trkpt>
      <trkpt lat="40.00352333" lon="-0.39471">
        <ele>475.0</ele>
        <time>2017-05-27T11:24:47.504Z</time>
      </trkpt>
      <trkpt lat="40.00352333" lon="-0.39471">
        <ele>475.0</ele>
        <time>2017-05-27T11:24:48.511Z</time>
      </trkpt>
      <trkpt lat="40.00352833" lon="-0.39465">
        <ele>476.0</ele>
        <time>2017-05-27T11:24:49.516Z</time>
      </trkpt>
      <trkpt lat="40.00352833" lon="-0.39465">
        <ele>476.0</ele>
        <time>2017-05-27T11:24:50.527Z</time>
      </trkpt>
      <trkpt lat="40.00353" lon="-0.39459333">
        <ele>476.0</ele>
        <time>2017-05-27T11:24:51.506Z</time>
      </trkpt>
      <trkpt lat="40.00353" lon="-0.39459333">
        <ele>476.0</ele>
        <time>2017-05-27T11:24:52.512Z</time>
      </trkpt>
      <trkpt lat="40.00353167" lon="-0.39454333">
        <ele>477.0</ele>
        <time>2017-05-27T11:24:53.509Z</time>
      </trkpt>
      <trkpt lat="40.00353167" lon="-0.39454333">
        <ele>477.0</ele>
        <time>2017-05-27T11:24:54.515Z</time>
      </trkpt>
      <trkpt lat="40.00354" lon="-0.39448667">
        <ele>477.0</ele>
        <time>2017-05-27T11:24:55.510Z</time>
      </trkpt>
      <trkpt lat="40.00354" lon="-0.39448667">
        <ele>477.0</ele>
        <time>2017-05-27T11:24:56.516Z</time>
      </trkpt>
      <trkpt lat="40.00355333" lon="-0.394425">
        <ele>477.0</ele>
        <time>2017-05-27T11:24:57.510Z</time>
      </trkpt>
      <trkpt lat="40.00355333" lon="-0.394425">
        <ele>477.0</ele>
        <time>2017-05-27T11:24:58.515Z</time>
      </trkpt>
      <trkpt lat="40.003545" lon="-0.39437">
        <ele>478.0</ele>
        <time>2017-05-27T11:24:59.516Z</time>
      </trkpt>
      <trkpt lat="40.003545" lon="-0.39437">
        <ele>478.0</ele>
        <time>2017-05-27T11:25:00.522Z</time>
      </trkpt>
      <trkpt lat="40.003505" lon="-0.39433167">
        <ele>479.0</ele>
        <time>2017-05-27T11:25:01.496Z</time>
      </trkpt>
      <trkpt lat="40.003505" lon="-0.39433167">
        <ele>479.0</ele>
        <time>2017-05-27T11:25:02.507Z</time>
      </trkpt>
      <trkpt lat="40.00346167" lon="-0.39434">
        <ele>479.0</ele>
        <time>2017-05-27T11:25:03.500Z</time>
      </trkpt>
      <trkpt lat="40.00346167" lon="-0.39434">
        <ele>479.0</ele>
        <time>2017-05-27T11:25:04.509Z</time>
      </trkpt>
      <trkpt lat="40.00344167" lon="-0.39438333">
        <ele>480.0</ele>
        <time>2017-05-27T11:25:05.509Z</time>
      </trkpt>
      <trkpt lat="40.00344167" lon="-0.39438333">
        <ele>480.0</ele>
        <time>2017-05-27T11:25:06.515Z</time>
      </trkpt>
      <trkpt lat="40.00341833" lon="-0.39445667">
        <ele>481.0</ele>
        <time>2017-05-27T11:25:07.516Z</time>
      </trkpt>
      <trkpt lat="40.00340667" lon="-0.39449">
        <ele>482.0</ele>
        <time>2017-05-27T11:25:08.516Z</time>
      </trkpt>
      <trkpt lat="40.00340667" lon="-0.39449">
        <ele>482.0</ele>
        <time>2017-05-27T11:25:09.523Z</time>
      </trkpt>
      <trkpt lat="40.00339667" lon="-0.39455">
        <ele>482.0</ele>
        <time>2017-05-27T11:25:10.498Z</time>
      </trkpt>
      <trkpt lat="40.00338833" lon="-0.39458">
        <ele>482.0</ele>
        <time>2017-05-27T11:25:11.506Z</time>
      </trkpt>
      <trkpt lat="40.00338833" lon="-0.39458">
        <ele>482.0</ele>
        <time>2017-05-27T11:25:12.512Z</time>
      </trkpt>
      <trkpt lat="40.00336" lon="-0.39464667">
        <ele>483.0</ele>
        <time>2017-05-27T11:25:13.506Z</time>
      </trkpt>
      <trkpt lat="40.00336" lon="-0.39464667">
        <ele>483.0</ele>
        <time>2017-05-27T11:25:14.513Z</time>
      </trkpt>
      <trkpt lat="40.00333167" lon="-0.39469833">
        <ele>484.0</ele>
        <time>2017-05-27T11:25:15.531Z</time>
      </trkpt>
      <trkpt lat="40.00333167" lon="-0.39469833">
        <ele>484.0</ele>
        <time>2017-05-27T11:25:16.497Z</time>
      </trkpt>
      <trkpt lat="40.00331167" lon="-0.39475">
        <ele>484.0</ele>
        <time>2017-05-27T11:25:17.496Z</time>
      </trkpt>
      <trkpt lat="40.00331167" lon="-0.39475">
        <ele>484.0</ele>
        <time>2017-05-27T11:25:18.502Z</time>
      </trkpt>
      <trkpt lat="40.00329" lon="-0.39480667">
        <ele>484.0</ele>
        <time>2017-05-27T11:25:19.496Z</time>
      </trkpt>
      <trkpt lat="40.00329" lon="-0.39480667">
        <ele>484.0</ele>
        <time>2017-05-27T11:25:20.507Z</time>
      </trkpt>
      <trkpt lat="40.00327" lon="-0.394865">
        <ele>485.0</ele>
        <time>2017-05-27T11:25:21.497Z</time>
      </trkpt>
      <trkpt lat="40.00327" lon="-0.394865">
        <ele>485.0</ele>
        <time>2017-05-27T11:25:22.504Z</time>
      </trkpt>
      <trkpt lat="40.00324167" lon="-0.39491833">
        <ele>485.0</ele>
        <time>2017-05-27T11:25:23.511Z</time>
      </trkpt>
      <trkpt lat="40.00324167" lon="-0.39491833">
        <ele>485.0</ele>
        <time>2017-05-27T11:25:24.517Z</time>
      </trkpt>
      <trkpt lat="40.00321167" lon="-0.39496667">
        <ele>485.0</ele>
        <time>2017-05-27T11:25:25.505Z</time>
      </trkpt>
      <trkpt lat="40.00319833" lon="-0.39499333">
        <ele>486.0</ele>
        <time>2017-05-27T11:25:26.491Z</time>
      </trkpt>
      <trkpt lat="40.00319833" lon="-0.39499333">
        <ele>486.0</ele>
        <time>2017-05-27T11:25:27.496Z</time>
      </trkpt>
      <trkpt lat="40.00317667" lon="-0.39504167">
        <ele>486.0</ele>
        <time>2017-05-27T11:25:28.521Z</time>
      </trkpt>
      <trkpt lat="40.00316" lon="-0.39506">
        <ele>486.0</ele>
        <time>2017-05-27T11:25:29.516Z</time>
      </trkpt>
      <trkpt lat="40.00316" lon="-0.39506">
        <ele>486.0</ele>
        <time>2017-05-27T11:25:30.522Z</time>
      </trkpt>
      <trkpt lat="40.00313333" lon="-0.3951">
        <ele>487.0</ele>
        <time>2017-05-27T11:25:31.504Z</time>
      </trkpt>
      <trkpt lat="40.00313333" lon="-0.3951">
        <ele>487.0</ele>
        <time>2017-05-27T11:25:32.510Z</time>
      </trkpt>
      <trkpt lat="40.003105" lon="-0.395145">
        <ele>487.0</ele>
        <time>2017-05-27T11:25:33.491Z</time>
      </trkpt>
      <trkpt lat="40.003105" lon="-0.395145">
        <ele>487.0</ele>
        <time>2017-05-27T11:25:34.497Z</time>
      </trkpt>
      <trkpt lat="40.00307167" lon="-0.395175">
        <ele>488.0</ele>
        <time>2017-05-27T11:25:35.499Z</time>
      </trkpt>
      <trkpt lat="40.00307167" lon="-0.395175">
        <ele>488.0</ele>
        <time>2017-05-27T11:25:36.505Z</time>
      </trkpt>
      <trkpt lat="40.00304167" lon="-0.39521833">
        <ele>488.0</ele>
        <time>2017-05-27T11:25:37.502Z</time>
      </trkpt>
      <trkpt lat="40.00304167" lon="-0.39521833">
        <ele>488.0</ele>
        <time>2017-05-27T11:25:38.508Z</time>
      </trkpt>
      <trkpt lat="40.00300833" lon="-0.39526">
        <ele>488.0</ele>
        <time>2017-05-27T11:25:39.516Z</time>
      </trkpt>
      <trkpt lat="40.00300833" lon="-0.39526">
        <ele>488.0</ele>
        <time>2017-05-27T11:25:40.498Z</time>
      </trkpt>
      <trkpt lat="40.00297667" lon="-0.39530333">
        <ele>489.0</ele>
        <time>2017-05-27T11:25:41.500Z</time>
      </trkpt>
      <trkpt lat="40.00297667" lon="-0.39530333">
        <ele>489.0</ele>
        <time>2017-05-27T11:25:42.506Z</time>
      </trkpt>
      <trkpt lat="40.00295667" lon="-0.39535667">
        <ele>489.0</ele>
        <time>2017-05-27T11:25:43.498Z</time>
      </trkpt>
      <trkpt lat="40.00293667" lon="-0.3954">
        <ele>489.0</ele>
        <time>2017-05-27T11:25:44.512Z</time>
      </trkpt>
      <trkpt lat="40.00293667" lon="-0.3954">
        <ele>489.0</ele>
        <time>2017-05-27T11:25:45.510Z</time>
      </trkpt>
      <trkpt lat="40.00295833" lon="-0.39548833">
        <ele>490.0</ele>
        <time>2017-05-27T11:25:46.515Z</time>
      </trkpt>
      <trkpt lat="40.00296333" lon="-0.39552333">
        <ele>490.0</ele>
        <time>2017-05-27T11:25:47.513Z</time>
      </trkpt>
      <trkpt lat="40.00296333" lon="-0.39552333">
        <ele>490.0</ele>
        <time>2017-05-27T11:25:48.519Z</time>
      </trkpt>
      <trkpt lat="40.00298333" lon="-0.395595">
        <ele>490.0</ele>
        <time>2017-05-27T11:25:49.507Z</time>
      </trkpt>
      <trkpt lat="40.00298333" lon="-0.395595">
        <ele>490.0</ele>
        <time>2017-05-27T11:25:50.513Z</time>
      </trkpt>
      <trkpt lat="40.00300667" lon="-0.395655">
        <ele>490.0</ele>
        <time>2017-05-27T11:25:51.513Z</time>
      </trkpt>
      <trkpt lat="40.00301833" lon="-0.39568333">
        <ele>490.0</ele>
        <time>2017-05-27T11:25:52.519Z</time>
      </trkpt>
      <trkpt lat="40.00303" lon="-0.39570833">
        <ele>490.0</ele>
        <time>2017-05-27T11:25:53.519Z</time>
      </trkpt>
      <trkpt lat="40.00303" lon="-0.39570833">
        <ele>490.0</ele>
        <time>2017-05-27T11:25:54.492Z</time>
      </trkpt>
      <trkpt lat="40.00305167" lon="-0.39576833">
        <ele>491.0</ele>
        <time>2017-05-27T11:25:55.530Z</time>
      </trkpt>
      <trkpt lat="40.00305167" lon="-0.39576833">
        <ele>491.0</ele>
        <time>2017-05-27T11:25:56.498Z</time>
      </trkpt>
      <trkpt lat="40.003075" lon="-0.39582333">
        <ele>491.0</ele>
        <time>2017-05-27T11:25:57.492Z</time>
      </trkpt>
      <trkpt lat="40.00308667" lon="-0.39584833">
        <ele>491.0</ele>
        <time>2017-05-27T11:25:58.509Z</time>
      </trkpt>
      <trkpt lat="40.00308667" lon="-0.39584833">
        <ele>491.0</ele>
        <time>2017-05-27T11:25:59.515Z</time>
      </trkpt>
      <trkpt lat="40.00310833" lon="-0.39590333">
        <ele>492.0</ele>
        <time>2017-05-27T11:26:00.507Z</time>
      </trkpt>
      <trkpt lat="40.00310833" lon="-0.39590333">
        <ele>492.0</ele>
        <time>2017-05-27T11:26:01.513Z</time>
      </trkpt>
      <trkpt lat="40.00312667" lon="-0.39596333">
        <ele>492.0</ele>
        <time>2017-05-27T11:26:02.496Z</time>
      </trkpt>
      <trkpt lat="40.00312667" lon="-0.39596333">
        <ele>492.0</ele>
        <time>2017-05-27T11:26:03.505Z</time>
      </trkpt>
      <trkpt lat="40.00313667" lon="-0.39602667">
        <ele>493.0</ele>
        <time>2017-05-27T11:26:04.492Z</time>
      </trkpt>
      <trkpt lat="40.00313833" lon="-0.39606">
        <ele>493.0</ele>
        <time>2017-05-27T11:26:05.520Z</time>
      </trkpt>
      <trkpt lat="40.00313833" lon="-0.39606">
        <ele>493.0</ele>
        <time>2017-05-27T11:26:06.496Z</time>
      </trkpt>
      <trkpt lat="40.00314167" lon="-0.39612833">
        <ele>495.0</ele>
        <time>2017-05-27T11:26:07.507Z</time>
      </trkpt>
      <trkpt lat="40.00314167" lon="-0.39612833">
        <ele>495.0</ele>
        <time>2017-05-27T11:26:08.513Z</time>
      </trkpt>
      <trkpt lat="40.00314167" lon="-0.3962">
        <ele>496.0</ele>
        <time>2017-05-27T11:26:09.498Z</time>
      </trkpt>
      <trkpt lat="40.00314" lon="-0.39623333">
        <ele>497.0</ele>
        <time>2017-05-27T11:26:10.504Z</time>
      </trkpt>
      <trkpt lat="40.00314" lon="-0.39623333">
        <ele>497.0</ele>
        <time>2017-05-27T11:26:11.510Z</time>
      </trkpt>
      <trkpt lat="40.003135" lon="-0.39629833">
        <ele>498.0</ele>
        <time>2017-05-27T11:26:12.493Z</time>
      </trkpt>
      <trkpt lat="40.003135" lon="-0.39629833">
        <ele>498.0</ele>
        <time>2017-05-27T11:26:13.514Z</time>
      </trkpt>
      <trkpt lat="40.00312667" lon="-0.39636">
        <ele>498.0</ele>
        <time>2017-05-27T11:26:14.514Z</time>
      </trkpt>
      <trkpt lat="40.00312667" lon="-0.39636">
        <ele>498.0</ele>
        <time>2017-05-27T11:26:15.520Z</time>
      </trkpt>
      <trkpt lat="40.00311" lon="-0.39642">
        <ele>499.0</ele>
        <time>2017-05-27T11:26:16.506Z</time>
      </trkpt>
      <trkpt lat="40.00310167" lon="-0.39644833">
        <ele>499.0</ele>
        <time>2017-05-27T11:26:17.494Z</time>
      </trkpt>
      <trkpt lat="40.00309167" lon="-0.39647667">
        <ele>500.0</ele>
        <time>2017-05-27T11:26:18.523Z</time>
      </trkpt>
      <trkpt lat="40.00309167" lon="-0.39647667">
        <ele>500.0</ele>
        <time>2017-05-27T11:26:19.500Z</time>
      </trkpt>
      <trkpt lat="40.00306833" lon="-0.39652667">
        <ele>500.0</ele>
        <time>2017-05-27T11:26:20.495Z</time>
      </trkpt>
      <trkpt lat="40.00306" lon="-0.39655167">
        <ele>500.0</ele>
        <time>2017-05-27T11:26:21.502Z</time>
      </trkpt>
      <trkpt lat="40.00306" lon="-0.39655167">
        <ele>500.0</ele>
        <time>2017-05-27T11:26:22.508Z</time>
      </trkpt>
      <trkpt lat="40.00304167" lon="-0.3966">
        <ele>500.0</ele>
        <time>2017-05-27T11:26:23.519Z</time>
      </trkpt>
      <trkpt lat="40.00304167" lon="-0.3966">
        <ele>500.0</ele>
        <time>2017-05-27T11:26:24.533Z</time>
      </trkpt>
      <trkpt lat="40.00301667" lon="-0.39665333">
        <ele>500.0</ele>
        <time>2017-05-27T11:26:25.508Z</time>
      </trkpt>
      <trkpt lat="40.00301667" lon="-0.39665333">
        <ele>500.0</ele>
        <time>2017-05-27T11:26:26.513Z</time>
      </trkpt>
      <trkpt lat="40.002985" lon="-0.39670667">
        <ele>500.0</ele>
        <time>2017-05-27T11:26:27.509Z</time>
      </trkpt>
      <trkpt lat="40.002985" lon="-0.39670667">
        <ele>500.0</ele>
        <time>2017-05-27T11:26:28.514Z</time>
      </trkpt>
      <trkpt lat="40.00295667" lon="-0.396755">
        <ele>501.0</ele>
        <time>2017-05-27T11:26:29.514Z</time>
      </trkpt>
      <trkpt lat="40.00295667" lon="-0.396755">
        <ele>501.0</ele>
        <time>2017-05-27T11:26:30.520Z</time>
      </trkpt>
      <trkpt lat="40.00292167" lon="-0.39680167">
        <ele>501.0</ele>
        <time>2017-05-27T11:26:31.506Z</time>
      </trkpt>
      <trkpt lat="40.00290333" lon="-0.39681833">
        <ele>501.0</ele>
        <time>2017-05-27T11:26:32.497Z</time>
      </trkpt>
      <trkpt lat="40.00290333" lon="-0.39681833">
        <ele>501.0</ele>
        <time>2017-05-27T11:26:33.506Z</time>
      </trkpt>
      <trkpt lat="40.00285833" lon="-0.396855">
        <ele>501.0</ele>
        <time>2017-05-27T11:26:34.506Z</time>
      </trkpt>
      <trkpt lat="40.002835" lon="-0.39687333">
        <ele>501.0</ele>
        <time>2017-05-27T11:26:35.500Z</time>
      </trkpt>
      <trkpt lat="40.002835" lon="-0.39687333">
        <ele>501.0</ele>
        <time>2017-05-27T11:26:36.506Z</time>
      </trkpt>
      <trkpt lat="40.00279" lon="-0.396905">
        <ele>501.0</ele>
        <time>2017-05-27T11:26:37.517Z</time>
      </trkpt>
      <trkpt lat="40.00276667" lon="-0.39691833">
        <ele>501.0</ele>
        <time>2017-05-27T11:26:38.516Z</time>
      </trkpt>
      <trkpt lat="40.00276667" lon="-0.39691833">
        <ele>501.0</ele>
        <time>2017-05-27T11:26:39.530Z</time>
      </trkpt>
      <trkpt lat="40.00272167" lon="-0.39695333">
        <ele>501.0</ele>
        <time>2017-05-27T11:26:40.535Z</time>
      </trkpt>
      <trkpt lat="40.00270167" lon="-0.39697167">
        <ele>501.0</ele>
        <time>2017-05-27T11:26:41.508Z</time>
      </trkpt>
      <trkpt lat="40.00270167" lon="-0.39697167">
        <ele>501.0</ele>
        <time>2017-05-27T11:26:42.514Z</time>
      </trkpt>
      <trkpt lat="40.00266" lon="-0.39700167">
        <ele>501.0</ele>
        <time>2017-05-27T11:26:43.517Z</time>
      </trkpt>
      <trkpt lat="40.002635" lon="-0.39701333">
        <ele>501.0</ele>
        <time>2017-05-27T11:26:44.507Z</time>
      </trkpt>
      <trkpt lat="40.002635" lon="-0.39701333">
        <ele>501.0</ele>
        <time>2017-05-27T11:26:45.511Z</time>
      </trkpt>
      <trkpt lat="40.00258833" lon="-0.39704833">
        <ele>502.0</ele>
        <time>2017-05-27T11:26:46.503Z</time>
      </trkpt>
      <trkpt lat="40.002565" lon="-0.39706667">
        <ele>502.0</ele>
        <time>2017-05-27T11:26:47.520Z</time>
      </trkpt>
      <trkpt lat="40.002565" lon="-0.39706667">
        <ele>502.0</ele>
        <time>2017-05-27T11:26:48.496Z</time>
      </trkpt>
      <trkpt lat="40.002515" lon="-0.39709667">
        <ele>503.0</ele>
        <time>2017-05-27T11:26:49.530Z</time>
      </trkpt>
      <trkpt lat="40.00249167" lon="-0.397115">
        <ele>503.0</ele>
        <time>2017-05-27T11:26:50.507Z</time>
      </trkpt>
      <trkpt lat="40.00249167" lon="-0.397115">
        <ele>503.0</ele>
        <time>2017-05-27T11:26:51.512Z</time>
      </trkpt>
      <trkpt lat="40.00244833" lon="-0.39715833">
        <ele>503.0</ele>
        <time>2017-05-27T11:26:52.533Z</time>
      </trkpt>
      <trkpt lat="40.00242833" lon="-0.39718">
        <ele>503.0</ele>
        <time>2017-05-27T11:26:53.506Z</time>
      </trkpt>
      <trkpt lat="40.00242833" lon="-0.39718">
        <ele>503.0</ele>
        <time>2017-05-27T11:26:54.512Z</time>
      </trkpt>
      <trkpt lat="40.00238667" lon="-0.397225">
        <ele>504.0</ele>
        <time>2017-05-27T11:26:55.510Z</time>
      </trkpt>
      <trkpt lat="40.00238667" lon="-0.397225">
        <ele>504.0</ele>
        <time>2017-05-27T11:26:56.516Z</time>
      </trkpt>
      <trkpt lat="40.00234333" lon="-0.39725667">
        <ele>504.0</ele>
        <time>2017-05-27T11:26:57.511Z</time>
      </trkpt>
      <trkpt lat="40.00234333" lon="-0.39725667">
        <ele>504.0</ele>
        <time>2017-05-27T11:26:58.517Z</time>
      </trkpt>
      <trkpt lat="40.002305" lon="-0.39729167">
        <ele>505.0</ele>
        <time>2017-05-27T11:26:59.519Z</time>
      </trkpt>
      <trkpt lat="40.002305" lon="-0.39729167">
        <ele>505.0</ele>
        <time>2017-05-27T11:27:00.497Z</time>
      </trkpt>
      <trkpt lat="40.002265" lon="-0.39732167">
        <ele>505.0</ele>
        <time>2017-05-27T11:27:01.494Z</time>
      </trkpt>
      <trkpt lat="40.002265" lon="-0.39732167">
        <ele>505.0</ele>
        <time>2017-05-27T11:27:02.500Z</time>
      </trkpt>
      <trkpt lat="40.00222833" lon="-0.39735833">
        <ele>506.0</ele>
        <time>2017-05-27T11:27:03.531Z</time>
      </trkpt>
      <trkpt lat="40.00222833" lon="-0.39735833">
        <ele>506.0</ele>
        <time>2017-05-27T11:27:04.497Z</time>
      </trkpt>
      <trkpt lat="40.00219167" lon="-0.39738333">
        <ele>506.0</ele>
        <time>2017-05-27T11:27:05.496Z</time>
      </trkpt>
      <trkpt lat="40.00219167" lon="-0.39738333">
        <ele>506.0</ele>
        <time>2017-05-27T11:27:06.504Z</time>
      </trkpt>
      <trkpt lat="40.00215333" lon="-0.39740667">
        <ele>507.0</ele>
        <time>2017-05-27T11:27:07.494Z</time>
      </trkpt>
      <trkpt lat="40.00215333" lon="-0.39740667">
        <ele>507.0</ele>
        <time>2017-05-27T11:27:08.500Z</time>
      </trkpt>
      <trkpt lat="40.002115" lon="-0.39743667">
        <ele>507.0</ele>
        <time>2017-05-27T11:27:09.494Z</time>
      </trkpt>
      <trkpt lat="40.002115" lon="-0.39743667">
        <ele>507.0</ele>
        <time>2017-05-27T11:27:10.500Z</time>
      </trkpt>
      <trkpt lat="40.00208333" lon="-0.397475">
        <ele>507.0</ele>
        <time>2017-05-27T11:27:11.529Z</time>
      </trkpt>
      <trkpt lat="40.00208333" lon="-0.397475">
        <ele>507.0</ele>
        <time>2017-05-27T11:27:12.496Z</time>
      </trkpt>
      <trkpt lat="40.002045" lon="-0.39750667">
        <ele>508.0</ele>
        <time>2017-05-27T11:27:13.526Z</time>
      </trkpt>
      <trkpt lat="40.002045" lon="-0.39750667">
        <ele>508.0</ele>
        <time>2017-05-27T11:27:14.494Z</time>
      </trkpt>
      <trkpt lat="40.00201833" lon="-0.397545">
        <ele>508.0</ele>
        <time>2017-05-27T11:27:15.503Z</time>
      </trkpt>
      <trkpt lat="40.00199667" lon="-0.397555">
        <ele>508.0</ele>
        <time>2017-05-27T11:27:16.499Z</time>
      </trkpt>
      <trkpt lat="40.00198333" lon="-0.39757333">
        <ele>508.0</ele>
        <time>2017-05-27T11:27:17.526Z</time>
      </trkpt>
      <trkpt lat="40.00198333" lon="-0.39757333">
        <ele>508.0</ele>
        <time>2017-05-27T11:27:18.496Z</time>
      </trkpt>
      <trkpt lat="40.001945" lon="-0.39761">
        <ele>508.0</ele>
        <time>2017-05-27T11:27:19.525Z</time>
      </trkpt>
      <trkpt lat="40.001945" lon="-0.39761">
        <ele>508.0</ele>
        <time>2017-05-27T11:27:20.491Z</time>
      </trkpt>
      <trkpt lat="40.0019" lon="-0.39765">
        <ele>509.0</ele>
        <time>2017-05-27T11:27:21.523Z</time>
      </trkpt>
      <trkpt lat="40.0019" lon="-0.39765">
        <ele>509.0</ele>
        <time>2017-05-27T11:27:22.497Z</time>
      </trkpt>
      <trkpt lat="40.00186" lon="-0.39769167">
        <ele>509.0</ele>
        <time>2017-05-27T11:27:23.529Z</time>
      </trkpt>
      <trkpt lat="40.00186" lon="-0.39769167">
        <ele>509.0</ele>
        <time>2017-05-27T11:27:24.495Z</time>
      </trkpt>
      <trkpt lat="40.00182" lon="-0.39773167">
        <ele>510.0</ele>
        <time>2017-05-27T11:27:25.493Z</time>
      </trkpt>
      <trkpt lat="40.00182" lon="-0.39773167">
        <ele>510.0</ele>
        <time>2017-05-27T11:27:26.499Z</time>
      </trkpt>
      <trkpt lat="40.00178333" lon="-0.39778167">
        <ele>511.0</ele>
        <time>2017-05-27T11:27:27.491Z</time>
      </trkpt>
      <trkpt lat="40.00178333" lon="-0.39778167">
        <ele>511.0</ele>
        <time>2017-05-27T11:27:28.496Z</time>
      </trkpt>
      <trkpt lat="40.00174833" lon="-0.39783">
        <ele>511.0</ele>
        <time>2017-05-27T11:27:29.532Z</time>
      </trkpt>
      <trkpt lat="40.00174833" lon="-0.39783">
        <ele>511.0</ele>
        <time>2017-05-27T11:27:30.498Z</time>
      </trkpt>
      <trkpt lat="40.00171833" lon="-0.39788">
        <ele>512.0</ele>
        <time>2017-05-27T11:27:31.526Z</time>
      </trkpt>
      <trkpt lat="40.00171833" lon="-0.39788">
        <ele>512.0</ele>
        <time>2017-05-27T11:27:32.494Z</time>
      </trkpt>
      <trkpt lat="40.00168" lon="-0.39792167">
        <ele>512.0</ele>
        <time>2017-05-27T11:27:33.532Z</time>
      </trkpt>
      <trkpt lat="40.00168" lon="-0.39792167">
        <ele>512.0</ele>
        <time>2017-05-27T11:27:34.497Z</time>
      </trkpt>
      <trkpt lat="40.00164167" lon="-0.39795">
        <ele>512.0</ele>
        <time>2017-05-27T11:27:35.497Z</time>
      </trkpt>
      <trkpt lat="40.00161833" lon="-0.39796167">
        <ele>512.0</ele>
        <time>2017-05-27T11:27:36.505Z</time>
      </trkpt>
      <trkpt lat="40.00161833" lon="-0.39796167">
        <ele>512.0</ele>
        <time>2017-05-27T11:27:37.511Z</time>
      </trkpt>
      <trkpt lat="40.00157167" lon="-0.39798">
        <ele>512.0</ele>
        <time>2017-05-27T11:27:38.518Z</time>
      </trkpt>
      <trkpt lat="40.00157167" lon="-0.39798">
        <ele>512.0</ele>
        <time>2017-05-27T11:27:39.507Z</time>
      </trkpt>
      <trkpt lat="40.00152667" lon="-0.398005">
        <ele>512.0</ele>
        <time>2017-05-27T11:27:40.511Z</time>
      </trkpt>
      <trkpt lat="40.0015" lon="-0.39801167">
        <ele>512.0</ele>
        <time>2017-05-27T11:27:41.510Z</time>
      </trkpt>
      <trkpt lat="40.0015" lon="-0.39801167">
        <ele>512.0</ele>
        <time>2017-05-27T11:27:42.516Z</time>
      </trkpt>
      <trkpt lat="40.00144167" lon="-0.39802667">
        <ele>513.0</ele>
        <time>2017-05-27T11:27:43.523Z</time>
      </trkpt>
      <trkpt lat="40.00144167" lon="-0.39802667">
        <ele>513.0</ele>
        <time>2017-05-27T11:27:44.499Z</time>
      </trkpt>
      <trkpt lat="40.00136833" lon="-0.39804667">
        <ele>513.0</ele>
        <time>2017-05-27T11:27:45.496Z</time>
      </trkpt>
      <trkpt lat="40.00132667" lon="-0.398055">
        <ele>513.0</ele>
        <time>2017-05-27T11:27:46.502Z</time>
      </trkpt>
      <trkpt lat="40.00132667" lon="-0.398055">
        <ele>513.0</ele>
        <time>2017-05-27T11:27:47.508Z</time>
      </trkpt>
      <trkpt lat="40.00124" lon="-0.39808">
        <ele>512.0</ele>
        <time>2017-05-27T11:27:48.514Z</time>
      </trkpt>
      <trkpt lat="40.00124" lon="-0.39808">
        <ele>512.0</ele>
        <time>2017-05-27T11:27:49.520Z</time>
      </trkpt>
      <trkpt lat="40.00114667" lon="-0.398115">
        <ele>512.0</ele>
        <time>2017-05-27T11:27:50.529Z</time>
      </trkpt>
      <trkpt lat="40.00114667" lon="-0.398115">
        <ele>512.0</ele>
        <time>2017-05-27T11:27:51.499Z</time>
      </trkpt>
      <trkpt lat="40.00105" lon="-0.39816167">
        <ele>512.0</ele>
        <time>2017-05-27T11:27:52.500Z</time>
      </trkpt>
      <trkpt lat="40.00100333" lon="-0.39819">
        <ele>512.0</ele>
        <time>2017-05-27T11:27:53.492Z</time>
      </trkpt>
      <trkpt lat="40.00100333" lon="-0.39819">
        <ele>512.0</ele>
        <time>2017-05-27T11:27:54.498Z</time>
      </trkpt>
      <trkpt lat="40.00091833" lon="-0.398255">
        <ele>512.0</ele>
        <time>2017-05-27T11:27:55.498Z</time>
      </trkpt>
      <trkpt lat="40.00091833" lon="-0.398255">
        <ele>512.0</ele>
        <time>2017-05-27T11:27:56.505Z</time>
      </trkpt>
      <trkpt lat="40.00084333" lon="-0.39831667">
        <ele>512.0</ele>
        <time>2017-05-27T11:27:57.501Z</time>
      </trkpt>
      <trkpt lat="40.00080667" lon="-0.39834333">
        <ele>511.0</ele>
        <time>2017-05-27T11:27:58.507Z</time>
      </trkpt>
      <trkpt lat="40.00080667" lon="-0.39834333">
        <ele>511.0</ele>
        <time>2017-05-27T11:27:59.513Z</time>
      </trkpt>
      <trkpt lat="40.00074667" lon="-0.39839167">
        <ele>511.0</ele>
        <time>2017-05-27T11:28:00.491Z</time>
      </trkpt>
      <trkpt lat="40.00071333" lon="-0.39841">
        <ele>511.0</ele>
        <time>2017-05-27T11:28:01.525Z</time>
      </trkpt>
      <trkpt lat="40.00068667" lon="-0.39843167">
        <ele>511.0</ele>
        <time>2017-05-27T11:28:02.507Z</time>
      </trkpt>
      <trkpt lat="40.00068667" lon="-0.39843167">
        <ele>511.0</ele>
        <time>2017-05-27T11:28:03.510Z</time>
      </trkpt>
      <trkpt lat="40.000635" lon="-0.39847833">
        <ele>511.0</ele>
        <time>2017-05-27T11:28:04.497Z</time>
      </trkpt>
      <trkpt lat="40.00060667" lon="-0.39849833">
        <ele>511.0</ele>
        <time>2017-05-27T11:28:05.508Z</time>
      </trkpt>
      <trkpt lat="40.00060667" lon="-0.39849833">
        <ele>511.0</ele>
        <time>2017-05-27T11:28:06.514Z</time>
      </trkpt>
      <trkpt lat="40.00055" lon="-0.39853667">
        <ele>511.0</ele>
        <time>2017-05-27T11:28:07.504Z</time>
      </trkpt>
      <trkpt lat="40.00055" lon="-0.39853667">
        <ele>511.0</ele>
        <time>2017-05-27T11:28:08.510Z</time>
      </trkpt>
      <trkpt lat="40.00049333" lon="-0.39857">
        <ele>511.0</ele>
        <time>2017-05-27T11:28:09.505Z</time>
      </trkpt>
      <trkpt lat="40.00049333" lon="-0.39857">
        <ele>511.0</ele>
        <time>2017-05-27T11:28:10.511Z</time>
      </trkpt>
      <trkpt lat="40.00043167" lon="-0.39858167">
        <ele>511.0</ele>
        <time>2017-05-27T11:28:11.496Z</time>
      </trkpt>
      <trkpt lat="40.00043167" lon="-0.39858167">
        <ele>511.0</ele>
        <time>2017-05-27T11:28:12.502Z</time>
      </trkpt>
      <trkpt lat="40.000365" lon="-0.39858833">
        <ele>511.0</ele>
        <time>2017-05-27T11:28:13.496Z</time>
      </trkpt>
      <trkpt lat="40.00033333" lon="-0.39859333">
        <ele>511.0</ele>
        <time>2017-05-27T11:28:14.521Z</time>
      </trkpt>
      <trkpt lat="40.00033333" lon="-0.39859333">
        <ele>511.0</ele>
        <time>2017-05-27T11:28:15.497Z</time>
      </trkpt>
      <trkpt lat="40.00026167" lon="-0.39859167">
        <ele>510.0</ele>
        <time>2017-05-27T11:28:16.517Z</time>
      </trkpt>
      <trkpt lat="40.00023167" lon="-0.398585">
        <ele>510.0</ele>
        <time>2017-05-27T11:28:17.517Z</time>
      </trkpt>
      <trkpt lat="40.00023167" lon="-0.398585">
        <ele>510.0</ele>
        <time>2017-05-27T11:28:18.496Z</time>
      </trkpt>
      <trkpt lat="40.00017" lon="-0.398585">
        <ele>509.0</ele>
        <time>2017-05-27T11:28:19.496Z</time>
      </trkpt>
      <trkpt lat="40.00017" lon="-0.398585">
        <ele>509.0</ele>
        <time>2017-05-27T11:28:20.507Z</time>
      </trkpt>
      <trkpt lat="40.00010833" lon="-0.39859833">
        <ele>509.0</ele>
        <time>2017-05-27T11:28:21.528Z</time>
      </trkpt>
      <trkpt lat="40.00010833" lon="-0.39859833">
        <ele>509.0</ele>
        <time>2017-05-27T11:28:22.499Z</time>
      </trkpt>
      <trkpt lat="40.00004833" lon="-0.398615">
        <ele>509.0</ele>
        <time>2017-05-27T11:28:23.531Z</time>
      </trkpt>
      <trkpt lat="40.00004833" lon="-0.398615">
        <ele>509.0</ele>
        <time>2017-05-27T11:28:24.504Z</time>
      </trkpt>
      <trkpt lat="39.99998667" lon="-0.39862833">
        <ele>509.0</ele>
        <time>2017-05-27T11:28:25.525Z</time>
      </trkpt>
      <trkpt lat="39.99995833" lon="-0.39864333">
        <ele>509.0</ele>
        <time>2017-05-27T11:28:26.498Z</time>
      </trkpt>
      <trkpt lat="39.99995833" lon="-0.39864333">
        <ele>509.0</ele>
        <time>2017-05-27T11:28:27.506Z</time>
      </trkpt>
      <trkpt lat="39.99989667" lon="-0.39868167">
        <ele>509.0</ele>
        <time>2017-05-27T11:28:28.495Z</time>
      </trkpt>
      <trkpt lat="39.999865" lon="-0.39870667">
        <ele>509.0</ele>
        <time>2017-05-27T11:28:29.529Z</time>
      </trkpt>
      <trkpt lat="39.999865" lon="-0.39870667">
        <ele>509.0</ele>
        <time>2017-05-27T11:28:30.499Z</time>
      </trkpt>
      <trkpt lat="39.99981" lon="-0.398775">
        <ele>509.0</ele>
        <time>2017-05-27T11:28:31.496Z</time>
      </trkpt>
      <trkpt lat="39.999785" lon="-0.39882">
        <ele>509.0</ele>
        <time>2017-05-27T11:28:32.528Z</time>
      </trkpt>
      <trkpt lat="39.999785" lon="-0.39882">
        <ele>509.0</ele>
        <time>2017-05-27T11:28:33.497Z</time>
      </trkpt>
      <trkpt lat="39.99974167" lon="-0.39891333">
        <ele>509.0</ele>
        <time>2017-05-27T11:28:34.494Z</time>
      </trkpt>
      <trkpt lat="39.99972" lon="-0.39895833">
        <ele>509.0</ele>
        <time>2017-05-27T11:28:35.517Z</time>
      </trkpt>
      <trkpt lat="39.99972" lon="-0.39895833">
        <ele>509.0</ele>
        <time>2017-05-27T11:28:36.496Z</time>
      </trkpt>
      <trkpt lat="39.99967667" lon="-0.39903667">
        <ele>509.0</ele>
        <time>2017-05-27T11:28:37.523Z</time>
      </trkpt>
      <trkpt lat="39.99967667" lon="-0.39903667">
        <ele>509.0</ele>
        <time>2017-05-27T11:28:38.499Z</time>
      </trkpt>
      <trkpt lat="39.99962667" lon="-0.39910167">
        <ele>509.0</ele>
        <time>2017-05-27T11:28:39.522Z</time>
      </trkpt>
      <trkpt lat="39.99962667" lon="-0.39910167">
        <ele>509.0</ele>
        <time>2017-05-27T11:28:40.528Z</time>
      </trkpt>
      <trkpt lat="39.99957333" lon="-0.39915667">
        <ele>509.0</ele>
        <time>2017-05-27T11:28:41.533Z</time>
      </trkpt>
      <trkpt lat="39.99957333" lon="-0.39915667">
        <ele>509.0</ele>
        <time>2017-05-27T11:28:42.499Z</time>
      </trkpt>
      <trkpt lat="39.99952" lon="-0.39920833">
        <ele>509.0</ele>
        <time>2017-05-27T11:28:43.529Z</time>
      </trkpt>
      <trkpt lat="39.99952" lon="-0.39920833">
        <ele>509.0</ele>
        <time>2017-05-27T11:28:44.500Z</time>
      </trkpt>
      <trkpt lat="39.999455" lon="-0.39925">
        <ele>510.0</ele>
        <time>2017-05-27T11:28:45.500Z</time>
      </trkpt>
      <trkpt lat="39.999455" lon="-0.39925">
        <ele>510.0</ele>
        <time>2017-05-27T11:28:46.508Z</time>
      </trkpt>
      <trkpt lat="39.999385" lon="-0.39930167">
        <ele>510.0</ele>
        <time>2017-05-27T11:28:47.515Z</time>
      </trkpt>
      <trkpt lat="39.999385" lon="-0.39930167">
        <ele>510.0</ele>
        <time>2017-05-27T11:28:48.522Z</time>
      </trkpt>
      <trkpt lat="39.99931833" lon="-0.399345">
        <ele>510.0</ele>
        <time>2017-05-27T11:28:49.491Z</time>
      </trkpt>
      <trkpt lat="39.99931833" lon="-0.399345">
        <ele>510.0</ele>
        <time>2017-05-27T11:28:50.497Z</time>
      </trkpt>
      <trkpt lat="39.99925833" lon="-0.39940333">
        <ele>510.0</ele>
        <time>2017-05-27T11:28:51.496Z</time>
      </trkpt>
      <trkpt lat="39.99925833" lon="-0.39940333">
        <ele>510.0</ele>
        <time>2017-05-27T11:28:52.503Z</time>
      </trkpt>
      <trkpt lat="39.99919667" lon="-0.39947167">
        <ele>510.0</ele>
        <time>2017-05-27T11:28:53.496Z</time>
      </trkpt>
      <trkpt lat="39.99919667" lon="-0.39947167">
        <ele>510.0</ele>
        <time>2017-05-27T11:28:54.504Z</time>
      </trkpt>
      <trkpt lat="39.999155" lon="-0.399575">
        <ele>510.0</ele>
        <time>2017-05-27T11:28:55.509Z</time>
      </trkpt>
      <trkpt lat="39.999155" lon="-0.399575">
        <ele>510.0</ele>
        <time>2017-05-27T11:28:56.514Z</time>
      </trkpt>
      <trkpt lat="39.99912" lon="-0.39966833">
        <ele>510.0</ele>
        <time>2017-05-27T11:28:57.506Z</time>
      </trkpt>
      <trkpt lat="39.99912" lon="-0.39966833">
        <ele>510.0</ele>
        <time>2017-05-27T11:28:58.512Z</time>
      </trkpt>
      <trkpt lat="39.99909333" lon="-0.39976667">
        <ele>511.0</ele>
        <time>2017-05-27T11:28:59.512Z</time>
      </trkpt>
      <trkpt lat="39.99909333" lon="-0.39976667">
        <ele>511.0</ele>
        <time>2017-05-27T11:29:00.518Z</time>
      </trkpt>
      <trkpt lat="39.99905667" lon="-0.399855">
        <ele>511.0</ele>
        <time>2017-05-27T11:29:01.533Z</time>
      </trkpt>
      <trkpt lat="39.99905667" lon="-0.399855">
        <ele>511.0</ele>
        <time>2017-05-27T11:29:02.499Z</time>
      </trkpt>
      <trkpt lat="39.99900833" lon="-0.39992667">
        <ele>511.0</ele>
        <time>2017-05-27T11:29:03.505Z</time>
      </trkpt>
      <trkpt lat="39.99900833" lon="-0.39992667">
        <ele>511.0</ele>
        <time>2017-05-27T11:29:04.512Z</time>
      </trkpt>
      <trkpt lat="39.99895" lon="-0.39998">
        <ele>512.0</ele>
        <time>2017-05-27T11:29:05.516Z</time>
      </trkpt>
      <trkpt lat="39.99895" lon="-0.39998">
        <ele>512.0</ele>
        <time>2017-05-27T11:29:06.532Z</time>
      </trkpt>
      <trkpt lat="39.99888333" lon="-0.40002667">
        <ele>512.0</ele>
        <time>2017-05-27T11:29:07.507Z</time>
      </trkpt>
      <trkpt lat="39.99888333" lon="-0.40002667">
        <ele>512.0</ele>
        <time>2017-05-27T11:29:08.513Z</time>
      </trkpt>
      <trkpt lat="39.99880667" lon="-0.40007667">
        <ele>512.0</ele>
        <time>2017-05-27T11:29:09.501Z</time>
      </trkpt>
      <trkpt lat="39.99880667" lon="-0.40007667">
        <ele>512.0</ele>
        <time>2017-05-27T11:29:10.507Z</time>
      </trkpt>
      <trkpt lat="39.998725" lon="-0.40012333">
        <ele>513.0</ele>
        <time>2017-05-27T11:29:11.495Z</time>
      </trkpt>
      <trkpt lat="39.998725" lon="-0.40012333">
        <ele>513.0</ele>
        <time>2017-05-27T11:29:12.501Z</time>
      </trkpt>
      <trkpt lat="39.99865" lon="-0.40017167">
        <ele>513.0</ele>
        <time>2017-05-27T11:29:13.496Z</time>
      </trkpt>
      <trkpt lat="39.99865" lon="-0.40017167">
        <ele>513.0</ele>
        <time>2017-05-27T11:29:14.506Z</time>
      </trkpt>
      <trkpt lat="39.99858167" lon="-0.4002">
        <ele>513.0</ele>
        <time>2017-05-27T11:29:15.506Z</time>
      </trkpt>
      <trkpt lat="39.99858167" lon="-0.4002">
        <ele>513.0</ele>
        <time>2017-05-27T11:29:16.512Z</time>
      </trkpt>
      <trkpt lat="39.99851667" lon="-0.40023667">
        <ele>513.0</ele>
        <time>2017-05-27T11:29:17.503Z</time>
      </trkpt>
      <trkpt lat="39.99851667" lon="-0.40023667">
        <ele>513.0</ele>
        <time>2017-05-27T11:29:18.509Z</time>
      </trkpt>
      <trkpt lat="39.99845667" lon="-0.40027333">
        <ele>513.0</ele>
        <time>2017-05-27T11:29:19.510Z</time>
      </trkpt>
      <trkpt lat="39.99845667" lon="-0.40027333">
        <ele>513.0</ele>
        <time>2017-05-27T11:29:20.516Z</time>
      </trkpt>
      <trkpt lat="39.99839833" lon="-0.40030833">
        <ele>513.0</ele>
        <time>2017-05-27T11:29:21.515Z</time>
      </trkpt>
      <trkpt lat="39.99836833" lon="-0.40032167">
        <ele>513.0</ele>
        <time>2017-05-27T11:29:22.521Z</time>
      </trkpt>
      <trkpt lat="39.99833833" lon="-0.400335">
        <ele>513.0</ele>
        <time>2017-05-27T11:29:23.506Z</time>
      </trkpt>
      <trkpt lat="39.99833833" lon="-0.400335">
        <ele>513.0</ele>
        <time>2017-05-27T11:29:24.511Z</time>
      </trkpt>
      <trkpt lat="39.99827333" lon="-0.40034833">
        <ele>513.0</ele>
        <time>2017-05-27T11:29:25.526Z</time>
      </trkpt>
      <trkpt lat="39.99824167" lon="-0.40035167">
        <ele>513.0</ele>
        <time>2017-05-27T11:29:26.508Z</time>
      </trkpt>
      <trkpt lat="39.99824167" lon="-0.40035167">
        <ele>513.0</ele>
        <time>2017-05-27T11:29:27.513Z</time>
      </trkpt>
      <trkpt lat="39.99818167" lon="-0.40036">
        <ele>513.0</ele>
        <time>2017-05-27T11:29:28.514Z</time>
      </trkpt>
      <trkpt lat="39.99815167" lon="-0.400355">
        <ele>513.0</ele>
        <time>2017-05-27T11:29:29.506Z</time>
      </trkpt>
      <trkpt lat="39.99815167" lon="-0.400355">
        <ele>513.0</ele>
        <time>2017-05-27T11:29:30.512Z</time>
      </trkpt>
      <trkpt lat="39.998085" lon="-0.40035667">
        <ele>513.0</ele>
        <time>2017-05-27T11:29:31.516Z</time>
      </trkpt>
      <trkpt lat="39.998085" lon="-0.40035667">
        <ele>513.0</ele>
        <time>2017-05-27T11:29:32.524Z</time>
      </trkpt>
      <trkpt lat="39.99802333" lon="-0.40036333">
        <ele>512.0</ele>
        <time>2017-05-27T11:29:33.515Z</time>
      </trkpt>
      <trkpt lat="39.99802333" lon="-0.40036333">
        <ele>512.0</ele>
        <time>2017-05-27T11:29:34.522Z</time>
      </trkpt>
      <trkpt lat="39.99795833" lon="-0.40036">
        <ele>512.0</ele>
        <time>2017-05-27T11:29:35.507Z</time>
      </trkpt>
      <trkpt lat="39.99795833" lon="-0.40036">
        <ele>512.0</ele>
        <time>2017-05-27T11:29:36.513Z</time>
      </trkpt>
      <trkpt lat="39.99789833" lon="-0.40037333">
        <ele>512.0</ele>
        <time>2017-05-27T11:29:37.540Z</time>
      </trkpt>
      <trkpt lat="39.99789833" lon="-0.40037333">
        <ele>512.0</ele>
        <time>2017-05-27T11:29:38.582Z</time>
      </trkpt>
      <trkpt lat="39.99783833" lon="-0.40040333">
        <ele>512.0</ele>
        <time>2017-05-27T11:29:39.521Z</time>
      </trkpt>
      <trkpt lat="39.99783833" lon="-0.40040333">
        <ele>512.0</ele>
        <time>2017-05-27T11:29:40.507Z</time>
      </trkpt>
      <trkpt lat="39.99778333" lon="-0.40043333">
        <ele>512.0</ele>
        <time>2017-05-27T11:29:41.519Z</time>
      </trkpt>
      <trkpt lat="39.99778333" lon="-0.40043333">
        <ele>512.0</ele>
        <time>2017-05-27T11:29:42.526Z</time>
      </trkpt>
      <trkpt lat="39.99772833" lon="-0.40046333">
        <ele>512.0</ele>
        <time>2017-05-27T11:29:43.530Z</time>
      </trkpt>
      <trkpt lat="39.997705" lon="-0.40048">
        <ele>512.0</ele>
        <time>2017-05-27T11:29:44.527Z</time>
      </trkpt>
      <trkpt lat="39.997705" lon="-0.40048">
        <ele>512.0</ele>
        <time>2017-05-27T11:29:45.498Z</time>
      </trkpt>
      <trkpt lat="39.99765667" lon="-0.40051833">
        <ele>511.0</ele>
        <time>2017-05-27T11:29:46.534Z</time>
      </trkpt>
      <trkpt lat="39.99762833" lon="-0.400535">
        <ele>511.0</ele>
        <time>2017-05-27T11:29:47.507Z</time>
      </trkpt>
      <trkpt lat="39.99762833" lon="-0.400535">
        <ele>511.0</ele>
        <time>2017-05-27T11:29:48.513Z</time>
      </trkpt>
      <trkpt lat="39.99756833" lon="-0.40057333">
        <ele>510.0</ele>
        <time>2017-05-27T11:29:49.528Z</time>
      </trkpt>
      <trkpt lat="39.99756833" lon="-0.40057333">
        <ele>510.0</ele>
        <time>2017-05-27T11:29:50.495Z</time>
      </trkpt>
      <trkpt lat="39.99751667" lon="-0.400615">
        <ele>510.0</ele>
        <time>2017-05-27T11:29:51.512Z</time>
      </trkpt>
      <trkpt lat="39.99751667" lon="-0.400615">
        <ele>510.0</ele>
        <time>2017-05-27T11:29:52.518Z</time>
      </trkpt>
      <trkpt lat="39.997465" lon="-0.40066333">
        <ele>510.0</ele>
        <time>2017-05-27T11:29:53.525Z</time>
      </trkpt>
      <trkpt lat="39.997465" lon="-0.40066333">
        <ele>510.0</ele>
        <time>2017-05-27T11:29:54.533Z</time>
      </trkpt>
      <trkpt lat="39.99741667" lon="-0.40071333">
        <ele>510.0</ele>
        <time>2017-05-27T11:29:55.521Z</time>
      </trkpt>
      <trkpt lat="39.99741667" lon="-0.40071333">
        <ele>510.0</ele>
        <time>2017-05-27T11:29:56.498Z</time>
      </trkpt>
      <trkpt lat="39.99736333" lon="-0.400765">
        <ele>510.0</ele>
        <time>2017-05-27T11:29:57.501Z</time>
      </trkpt>
      <trkpt lat="39.99734" lon="-0.40078833">
        <ele>511.0</ele>
        <time>2017-05-27T11:29:58.507Z</time>
      </trkpt>
      <trkpt lat="39.99731333" lon="-0.40080167">
        <ele>511.0</ele>
        <time>2017-05-27T11:29:59.506Z</time>
      </trkpt>
      <trkpt lat="39.99731333" lon="-0.40080167">
        <ele>511.0</ele>
        <time>2017-05-27T11:30:00.512Z</time>
      </trkpt>
      <trkpt lat="39.99726333" lon="-0.40082833">
        <ele>512.0</ele>
        <time>2017-05-27T11:30:01.506Z</time>
      </trkpt>
      <trkpt lat="39.99726333" lon="-0.40082833">
        <ele>512.0</ele>
        <time>2017-05-27T11:30:02.511Z</time>
      </trkpt>
      <trkpt lat="39.99721" lon="-0.40085">
        <ele>512.0</ele>
        <time>2017-05-27T11:30:03.502Z</time>
      </trkpt>
      <trkpt lat="39.99721" lon="-0.40085">
        <ele>512.0</ele>
        <time>2017-05-27T11:30:04.508Z</time>
      </trkpt>
      <trkpt lat="39.99716" lon="-0.40085833">
        <ele>513.0</ele>
        <time>2017-05-27T11:30:05.526Z</time>
      </trkpt>
      <trkpt lat="39.997135" lon="-0.400865">
        <ele>513.0</ele>
        <time>2017-05-27T11:30:06.504Z</time>
      </trkpt>
      <trkpt lat="39.997135" lon="-0.400865">
        <ele>513.0</ele>
        <time>2017-05-27T11:30:07.509Z</time>
      </trkpt>
      <trkpt lat="39.99708" lon="-0.40087167">
        <ele>514.0</ele>
        <time>2017-05-27T11:30:08.496Z</time>
      </trkpt>
      <trkpt lat="39.99708" lon="-0.40087167">
        <ele>514.0</ele>
        <time>2017-05-27T11:30:09.506Z</time>
      </trkpt>
      <trkpt lat="39.99702333" lon="-0.40086167">
        <ele>514.0</ele>
        <time>2017-05-27T11:30:10.533Z</time>
      </trkpt>
      <trkpt lat="39.996995" lon="-0.40084667">
        <ele>514.0</ele>
        <time>2017-05-27T11:30:11.503Z</time>
      </trkpt>
      <trkpt lat="39.996995" lon="-0.40084667">
        <ele>514.0</ele>
        <time>2017-05-27T11:30:12.509Z</time>
      </trkpt>
      <trkpt lat="39.996945" lon="-0.40081833">
        <ele>513.0</ele>
        <time>2017-05-27T11:30:13.496Z</time>
      </trkpt>
      <trkpt lat="39.996945" lon="-0.40081833">
        <ele>513.0</ele>
        <time>2017-05-27T11:30:14.507Z</time>
      </trkpt>
      <trkpt lat="39.99689833" lon="-0.40078667">
        <ele>514.0</ele>
        <time>2017-05-27T11:30:15.491Z</time>
      </trkpt>
      <trkpt lat="39.99687833" lon="-0.40076667">
        <ele>514.0</ele>
        <time>2017-05-27T11:30:16.498Z</time>
      </trkpt>
      <trkpt lat="39.99686" lon="-0.40074667">
        <ele>515.0</ele>
        <time>2017-05-27T11:30:17.527Z</time>
      </trkpt>
      <trkpt lat="39.99686" lon="-0.40074667">
        <ele>515.0</ele>
        <time>2017-05-27T11:30:18.497Z</time>
      </trkpt>
      <trkpt lat="39.99683167" lon="-0.40071">
        <ele>516.0</ele>
        <time>2017-05-27T11:30:19.496Z</time>
      </trkpt>
      <trkpt lat="39.99683167" lon="-0.40071">
        <ele>516.0</ele>
        <time>2017-05-27T11:30:20.506Z</time>
      </trkpt>
      <trkpt lat="39.99680833" lon="-0.40066833">
        <ele>517.0</ele>
        <time>2017-05-27T11:30:21.515Z</time>
      </trkpt>
      <trkpt lat="39.99679167" lon="-0.40064667">
        <ele>518.0</ele>
        <time>2017-05-27T11:30:22.521Z</time>
      </trkpt>
      <trkpt lat="39.99679167" lon="-0.40064667">
        <ele>518.0</ele>
        <time>2017-05-27T11:30:23.533Z</time>
      </trkpt>
      <trkpt lat="39.99675333" lon="-0.4006">
        <ele>518.0</ele>
        <time>2017-05-27T11:30:24.534Z</time>
      </trkpt>
      <trkpt lat="39.99673667" lon="-0.40057333">
        <ele>519.0</ele>
        <time>2017-05-27T11:30:25.505Z</time>
      </trkpt>
      <trkpt lat="39.99673667" lon="-0.40057333">
        <ele>519.0</ele>
        <time>2017-05-27T11:30:26.511Z</time>
      </trkpt>
      <trkpt lat="39.9967" lon="-0.40052">
        <ele>520.0</ele>
        <time>2017-05-27T11:30:27.513Z</time>
      </trkpt>
      <trkpt lat="39.9967" lon="-0.40052">
        <ele>520.0</ele>
        <time>2017-05-27T11:30:28.519Z</time>
      </trkpt>
      <trkpt lat="39.99665667" lon="-0.40047">
        <ele>520.0</ele>
        <time>2017-05-27T11:30:29.516Z</time>
      </trkpt>
      <trkpt lat="39.99665667" lon="-0.40047">
        <ele>520.0</ele>
        <time>2017-05-27T11:30:30.523Z</time>
      </trkpt>
      <trkpt lat="39.99661333" lon="-0.40041833">
        <ele>520.0</ele>
        <time>2017-05-27T11:30:31.527Z</time>
      </trkpt>
      <trkpt lat="39.99661333" lon="-0.40041833">
        <ele>520.0</ele>
        <time>2017-05-27T11:30:32.498Z</time>
      </trkpt>
      <trkpt lat="39.99657167" lon="-0.40037">
        <ele>520.0</ele>
        <time>2017-05-27T11:30:33.495Z</time>
      </trkpt>
      <trkpt lat="39.99657167" lon="-0.40037">
        <ele>520.0</ele>
        <time>2017-05-27T11:30:34.501Z</time>
      </trkpt>
      <trkpt lat="39.99652167" lon="-0.40034333">
        <ele>521.0</ele>
        <time>2017-05-27T11:30:35.492Z</time>
      </trkpt>
      <trkpt lat="39.99652167" lon="-0.40034333">
        <ele>521.0</ele>
        <time>2017-05-27T11:30:36.498Z</time>
      </trkpt>
      <trkpt lat="39.99646667" lon="-0.40035833">
        <ele>522.0</ele>
        <time>2017-05-27T11:30:37.508Z</time>
      </trkpt>
      <trkpt lat="39.99644167" lon="-0.400375">
        <ele>523.0</ele>
        <time>2017-05-27T11:30:38.506Z</time>
      </trkpt>
      <trkpt lat="39.99644167" lon="-0.400375">
        <ele>523.0</ele>
        <time>2017-05-27T11:30:39.520Z</time>
      </trkpt>
      <trkpt lat="39.99640333" lon="-0.40041">
        <ele>523.0</ele>
        <time>2017-05-27T11:30:40.515Z</time>
      </trkpt>
      <trkpt lat="39.99640333" lon="-0.40041">
        <ele>523.0</ele>
        <time>2017-05-27T11:30:41.501Z</time>
      </trkpt>
      <trkpt lat="39.99637" lon="-0.40044833">
        <ele>523.0</ele>
        <time>2017-05-27T11:30:42.508Z</time>
      </trkpt>
      <trkpt lat="39.99637" lon="-0.40044833">
        <ele>523.0</ele>
        <time>2017-05-27T11:30:43.514Z</time>
      </trkpt>
      <trkpt lat="39.99633833" lon="-0.40048833">
        <ele>524.0</ele>
        <time>2017-05-27T11:30:44.515Z</time>
      </trkpt>
      <trkpt lat="39.99633833" lon="-0.40048833">
        <ele>524.0</ele>
        <time>2017-05-27T11:30:45.523Z</time>
      </trkpt>
      <trkpt lat="39.99629833" lon="-0.40053167">
        <ele>525.0</ele>
        <time>2017-05-27T11:30:46.521Z</time>
      </trkpt>
      <trkpt lat="39.99628" lon="-0.40055">
        <ele>525.0</ele>
        <time>2017-05-27T11:30:47.516Z</time>
      </trkpt>
      <trkpt lat="39.99628" lon="-0.40055">
        <ele>525.0</ele>
        <time>2017-05-27T11:30:48.533Z</time>
      </trkpt>
      <trkpt lat="39.99624" lon="-0.40058333">
        <ele>525.0</ele>
        <time>2017-05-27T11:30:49.513Z</time>
      </trkpt>
      <trkpt lat="39.99622167" lon="-0.40059667">
        <ele>525.0</ele>
        <time>2017-05-27T11:30:50.532Z</time>
      </trkpt>
      <trkpt lat="39.99622167" lon="-0.40059667">
        <ele>525.0</ele>
        <time>2017-05-27T11:30:51.498Z</time>
      </trkpt>
      <trkpt lat="39.99618667" lon="-0.400625">
        <ele>526.0</ele>
        <time>2017-05-27T11:30:52.506Z</time>
      </trkpt>
      <trkpt lat="39.99617" lon="-0.40064667">
        <ele>526.0</ele>
        <time>2017-05-27T11:30:53.506Z</time>
      </trkpt>
      <trkpt lat="39.99617" lon="-0.40064667">
        <ele>526.0</ele>
        <time>2017-05-27T11:30:54.512Z</time>
      </trkpt>
      <trkpt lat="39.99614167" lon="-0.40069167">
        <ele>526.0</ele>
        <time>2017-05-27T11:30:55.513Z</time>
      </trkpt>
      <trkpt lat="39.99614167" lon="-0.40069167">
        <ele>526.0</ele>
        <time>2017-05-27T11:30:56.519Z</time>
      </trkpt>
      <trkpt lat="39.99611667" lon="-0.40075">
        <ele>526.0</ele>
        <time>2017-05-27T11:30:57.522Z</time>
      </trkpt>
      <trkpt lat="39.99610833" lon="-0.400785">
        <ele>526.0</ele>
        <time>2017-05-27T11:30:58.530Z</time>
      </trkpt>
      <trkpt lat="39.99610833" lon="-0.400785">
        <ele>526.0</ele>
        <time>2017-05-27T11:30:59.496Z</time>
      </trkpt>
      <trkpt lat="39.996095" lon="-0.400845">
        <ele>526.0</ele>
        <time>2017-05-27T11:31:00.496Z</time>
      </trkpt>
      <trkpt lat="39.99609167" lon="-0.40088">
        <ele>526.0</ele>
        <time>2017-05-27T11:31:01.505Z</time>
      </trkpt>
      <trkpt lat="39.99609167" lon="-0.40088">
        <ele>526.0</ele>
        <time>2017-05-27T11:31:02.511Z</time>
      </trkpt>
      <trkpt lat="39.99608667" lon="-0.40095667">
        <ele>527.0</ele>
        <time>2017-05-27T11:31:03.506Z</time>
      </trkpt>
      <trkpt lat="39.99608667" lon="-0.40095667">
        <ele>527.0</ele>
        <time>2017-05-27T11:31:04.512Z</time>
      </trkpt>
      <trkpt lat="39.99608667" lon="-0.40103">
        <ele>528.0</ele>
        <time>2017-05-27T11:31:05.496Z</time>
      </trkpt>
      <trkpt lat="39.99608667" lon="-0.40103">
        <ele>528.0</ele>
        <time>2017-05-27T11:31:06.508Z</time>
      </trkpt>
      <trkpt lat="39.99608667" lon="-0.40109333">
        <ele>529.0</ele>
        <time>2017-05-27T11:31:07.506Z</time>
      </trkpt>
      <trkpt lat="39.99608667" lon="-0.40109333">
        <ele>529.0</ele>
        <time>2017-05-27T11:31:08.512Z</time>
      </trkpt>
      <trkpt lat="39.99609" lon="-0.40116333">
        <ele>530.0</ele>
        <time>2017-05-27T11:31:09.512Z</time>
      </trkpt>
      <trkpt lat="39.99609" lon="-0.40116333">
        <ele>530.0</ele>
        <time>2017-05-27T11:31:10.518Z</time>
      </trkpt>
      <trkpt lat="39.996085" lon="-0.40123333">
        <ele>530.0</ele>
        <time>2017-05-27T11:31:11.502Z</time>
      </trkpt>
      <trkpt lat="39.996085" lon="-0.40123333">
        <ele>530.0</ele>
        <time>2017-05-27T11:31:12.508Z</time>
      </trkpt>
      <trkpt lat="39.996075" lon="-0.4013">
        <ele>530.0</ele>
        <time>2017-05-27T11:31:13.529Z</time>
      </trkpt>
      <trkpt lat="39.996075" lon="-0.4013">
        <ele>530.0</ele>
        <time>2017-05-27T11:31:14.496Z</time>
      </trkpt>
      <trkpt lat="39.99606167" lon="-0.40136">
        <ele>530.0</ele>
        <time>2017-05-27T11:31:15.508Z</time>
      </trkpt>
      <trkpt lat="39.99605167" lon="-0.40138833">
        <ele>530.0</ele>
        <time>2017-05-27T11:31:16.514Z</time>
      </trkpt>
      <trkpt lat="39.99604167" lon="-0.40141333">
        <ele>530.0</ele>
        <time>2017-05-27T11:31:17.506Z</time>
      </trkpt>
      <trkpt lat="39.99604167" lon="-0.40141333">
        <ele>530.0</ele>
        <time>2017-05-27T11:31:18.512Z</time>
      </trkpt>
      <trkpt lat="39.99601" lon="-0.401465">
        <ele>531.0</ele>
        <time>2017-05-27T11:31:19.500Z</time>
      </trkpt>
      <trkpt lat="39.99601" lon="-0.401465">
        <ele>531.0</ele>
        <time>2017-05-27T11:31:20.506Z</time>
      </trkpt>
      <trkpt lat="39.99596833" lon="-0.40151">
        <ele>532.0</ele>
        <time>2017-05-27T11:31:21.520Z</time>
      </trkpt>
      <trkpt lat="39.99594333" lon="-0.40153">
        <ele>532.0</ele>
        <time>2017-05-27T11:31:22.530Z</time>
      </trkpt>
      <trkpt lat="39.99591667" lon="-0.40154667">
        <ele>533.0</ele>
        <time>2017-05-27T11:31:23.509Z</time>
      </trkpt>
      <trkpt lat="39.99591667" lon="-0.40154667">
        <ele>533.0</ele>
        <time>2017-05-27T11:31:24.515Z</time>
      </trkpt>
      <trkpt lat="39.99586667" lon="-0.40157667">
        <ele>533.0</ele>
        <time>2017-05-27T11:31:25.517Z</time>
      </trkpt>
      <trkpt lat="39.99586667" lon="-0.40157667">
        <ele>533.0</ele>
        <time>2017-05-27T11:31:26.533Z</time>
      </trkpt>
      <trkpt lat="39.99582" lon="-0.40159833">
        <ele>534.0</ele>
        <time>2017-05-27T11:31:27.491Z</time>
      </trkpt>
      <trkpt lat="39.99579833" lon="-0.40160833">
        <ele>535.0</ele>
        <time>2017-05-27T11:31:28.519Z</time>
      </trkpt>
      <trkpt lat="39.99577667" lon="-0.40161667">
        <ele>535.0</ele>
        <time>2017-05-27T11:31:29.529Z</time>
      </trkpt>
      <trkpt lat="39.99577667" lon="-0.40161667">
        <ele>535.0</ele>
        <time>2017-05-27T11:31:30.522Z</time>
      </trkpt>
      <trkpt lat="39.995735" lon="-0.401635">
        <ele>537.0</ele>
        <time>2017-05-27T11:31:31.510Z</time>
      </trkpt>
      <trkpt lat="39.995735" lon="-0.401635">
        <ele>537.0</ele>
        <time>2017-05-27T11:31:32.516Z</time>
      </trkpt>
      <trkpt lat="39.99568667" lon="-0.40163167">
        <ele>537.0</ele>
        <time>2017-05-27T11:31:33.514Z</time>
      </trkpt>
      <trkpt lat="39.99568667" lon="-0.40163167">
        <ele>537.0</ele>
        <time>2017-05-27T11:31:34.520Z</time>
      </trkpt>
      <trkpt lat="39.99563667" lon="-0.40162333">
        <ele>537.0</ele>
        <time>2017-05-27T11:31:35.517Z</time>
      </trkpt>
      <trkpt lat="39.99563667" lon="-0.40162333">
        <ele>537.0</ele>
        <time>2017-05-27T11:31:36.524Z</time>
      </trkpt>
      <trkpt lat="39.99559333" lon="-0.40160333">
        <ele>538.0</ele>
        <time>2017-05-27T11:31:37.530Z</time>
      </trkpt>
      <trkpt lat="39.995575" lon="-0.40159167">
        <ele>538.0</ele>
        <time>2017-05-27T11:31:38.521Z</time>
      </trkpt>
      <trkpt lat="39.995575" lon="-0.40159167">
        <ele>538.0</ele>
        <time>2017-05-27T11:31:39.505Z</time>
      </trkpt>
      <trkpt lat="39.99553667" lon="-0.40156">
        <ele>539.0</ele>
        <time>2017-05-27T11:31:40.514Z</time>
      </trkpt>
      <trkpt lat="39.995515" lon="-0.40154333">
        <ele>539.0</ele>
        <time>2017-05-27T11:31:41.506Z</time>
      </trkpt>
      <trkpt lat="39.995515" lon="-0.40154333">
        <ele>539.0</ele>
        <time>2017-05-27T11:31:42.512Z</time>
      </trkpt>
      <trkpt lat="39.99547167" lon="-0.40150833">
        <ele>540.0</ele>
        <time>2017-05-27T11:31:43.501Z</time>
      </trkpt>
      <trkpt lat="39.99545167" lon="-0.40149167">
        <ele>540.0</ele>
        <time>2017-05-27T11:31:44.506Z</time>
      </trkpt>
      <trkpt lat="39.99545167" lon="-0.40149167">
        <ele>540.0</ele>
        <time>2017-05-27T11:31:45.508Z</time>
      </trkpt>
      <trkpt lat="39.995405" lon="-0.40146333">
        <ele>541.0</ele>
        <time>2017-05-27T11:31:46.496Z</time>
      </trkpt>
      <trkpt lat="39.995385" lon="-0.40144667">
        <ele>541.0</ele>
        <time>2017-05-27T11:31:47.525Z</time>
      </trkpt>
      <trkpt lat="39.99536167" lon="-0.401435">
        <ele>541.0</ele>
        <time>2017-05-27T11:31:48.496Z</time>
      </trkpt>
      <trkpt lat="39.99536167" lon="-0.401435">
        <ele>541.0</ele>
        <time>2017-05-27T11:31:49.502Z</time>
      </trkpt>
      <trkpt lat="39.99530833" lon="-0.40142167">
        <ele>541.0</ele>
        <time>2017-05-27T11:31:50.493Z</time>
      </trkpt>
      <trkpt lat="39.99530833" lon="-0.40142167">
        <ele>541.0</ele>
        <time>2017-05-27T11:31:51.499Z</time>
      </trkpt>
      <trkpt lat="39.99525" lon="-0.40141667">
        <ele>542.0</ele>
        <time>2017-05-27T11:31:52.493Z</time>
      </trkpt>
      <trkpt lat="39.995225" lon="-0.40141833">
        <ele>542.0</ele>
        <time>2017-05-27T11:31:53.521Z</time>
      </trkpt>
      <trkpt lat="39.995225" lon="-0.40141833">
        <ele>542.0</ele>
        <time>2017-05-27T11:31:54.497Z</time>
      </trkpt>
      <trkpt lat="39.995175" lon="-0.40142667">
        <ele>543.0</ele>
        <time>2017-05-27T11:31:55.494Z</time>
      </trkpt>
      <trkpt lat="39.99515333" lon="-0.40143">
        <ele>543.0</ele>
        <time>2017-05-27T11:31:56.528Z</time>
      </trkpt>
      <trkpt lat="39.99515333" lon="-0.40143">
        <ele>543.0</ele>
        <time>2017-05-27T11:31:57.494Z</time>
      </trkpt>
      <trkpt lat="39.99510333" lon="-0.40143667">
        <ele>544.0</ele>
        <time>2017-05-27T11:31:58.518Z</time>
      </trkpt>
      <trkpt lat="39.99507833" lon="-0.40144">
        <ele>544.0</ele>
        <time>2017-05-27T11:31:59.512Z</time>
      </trkpt>
      <trkpt lat="39.99507833" lon="-0.40144">
        <ele>544.0</ele>
        <time>2017-05-27T11:32:00.518Z</time>
      </trkpt>
      <trkpt lat="39.99503333" lon="-0.40145">
        <ele>545.0</ele>
        <time>2017-05-27T11:32:01.531Z</time>
      </trkpt>
      <trkpt lat="39.99503333" lon="-0.40145">
        <ele>545.0</ele>
        <time>2017-05-27T11:32:02.497Z</time>
      </trkpt>
      <trkpt lat="39.994985" lon="-0.40144667">
        <ele>545.0</ele>
        <time>2017-05-27T11:32:03.504Z</time>
      </trkpt>
      <trkpt lat="39.994985" lon="-0.40144667">
        <ele>545.0</ele>
        <time>2017-05-27T11:32:04.510Z</time>
      </trkpt>
      <trkpt lat="39.99493167" lon="-0.40144">
        <ele>546.0</ele>
        <time>2017-05-27T11:32:05.505Z</time>
      </trkpt>
      <trkpt lat="39.99493167" lon="-0.40144">
        <ele>546.0</ele>
        <time>2017-05-27T11:32:06.511Z</time>
      </trkpt>
      <trkpt lat="39.99488" lon="-0.40143833">
        <ele>546.0</ele>
        <time>2017-05-27T11:32:07.514Z</time>
      </trkpt>
      <trkpt lat="39.99488" lon="-0.40143833">
        <ele>546.0</ele>
        <time>2017-05-27T11:32:08.520Z</time>
      </trkpt>
      <trkpt lat="39.99483" lon="-0.40144">
        <ele>547.0</ele>
        <time>2017-05-27T11:32:09.523Z</time>
      </trkpt>
      <trkpt lat="39.994805" lon="-0.401445">
        <ele>547.0</ele>
        <time>2017-05-27T11:32:10.500Z</time>
      </trkpt>
      <trkpt lat="39.99478" lon="-0.40145167">
        <ele>548.0</ele>
        <time>2017-05-27T11:32:11.529Z</time>
      </trkpt>
      <trkpt lat="39.99478" lon="-0.40145167">
        <ele>548.0</ele>
        <time>2017-05-27T11:32:12.494Z</time>
      </trkpt>
      <trkpt lat="39.99473" lon="-0.40146667">
        <ele>548.0</ele>
        <time>2017-05-27T11:32:13.505Z</time>
      </trkpt>
      <trkpt lat="39.99473" lon="-0.40146667">
        <ele>548.0</ele>
        <time>2017-05-27T11:32:14.511Z</time>
      </trkpt>
      <trkpt lat="39.99468667" lon="-0.40149333">
        <ele>549.0</ele>
        <time>2017-05-27T11:32:15.516Z</time>
      </trkpt>
      <trkpt lat="39.99468667" lon="-0.40149333">
        <ele>549.0</ele>
        <time>2017-05-27T11:32:16.493Z</time>
      </trkpt>
      <trkpt lat="39.99464333" lon="-0.40151667">
        <ele>550.0</ele>
        <time>2017-05-27T11:32:17.496Z</time>
      </trkpt>
      <trkpt lat="39.99464333" lon="-0.40151667">
        <ele>550.0</ele>
        <time>2017-05-27T11:32:18.503Z</time>
      </trkpt>
      <trkpt lat="39.9946" lon="-0.40154">
        <ele>551.0</ele>
        <time>2017-05-27T11:32:19.510Z</time>
      </trkpt>
      <trkpt lat="39.9946" lon="-0.40154">
        <ele>551.0</ele>
        <time>2017-05-27T11:32:20.516Z</time>
      </trkpt>
      <trkpt lat="39.99455667" lon="-0.40156667">
        <ele>551.0</ele>
        <time>2017-05-27T11:32:21.525Z</time>
      </trkpt>
      <trkpt lat="39.994535" lon="-0.40157833">
        <ele>552.0</ele>
        <time>2017-05-27T11:32:22.496Z</time>
      </trkpt>
      <trkpt lat="39.994535" lon="-0.40157833">
        <ele>552.0</ele>
        <time>2017-05-27T11:32:23.502Z</time>
      </trkpt>
      <trkpt lat="39.99449333" lon="-0.401605">
        <ele>553.0</ele>
        <time>2017-05-27T11:32:24.495Z</time>
      </trkpt>
      <trkpt lat="39.99449333" lon="-0.401605">
        <ele>553.0</ele>
        <time>2017-05-27T11:32:25.501Z</time>
      </trkpt>
      <trkpt lat="39.99445" lon="-0.40163333">
        <ele>552.0</ele>
        <time>2017-05-27T11:32:26.523Z</time>
      </trkpt>
      <trkpt lat="39.99442667" lon="-0.40164833">
        <ele>552.0</ele>
        <time>2017-05-27T11:32:27.509Z</time>
      </trkpt>
      <trkpt lat="39.99442667" lon="-0.40164833">
        <ele>552.0</ele>
        <time>2017-05-27T11:32:28.515Z</time>
      </trkpt>
      <trkpt lat="39.994385" lon="-0.40167667">
        <ele>552.0</ele>
        <time>2017-05-27T11:32:29.496Z</time>
      </trkpt>
      <trkpt lat="39.994385" lon="-0.40167667">
        <ele>552.0</ele>
        <time>2017-05-27T11:32:30.502Z</time>
      </trkpt>
      <trkpt lat="39.994345" lon="-0.40170667">
        <ele>552.0</ele>
        <time>2017-05-27T11:32:31.532Z</time>
      </trkpt>
      <trkpt lat="39.99432667" lon="-0.40172167">
        <ele>552.0</ele>
        <time>2017-05-27T11:32:32.491Z</time>
      </trkpt>
      <trkpt lat="39.99432667" lon="-0.40172167">
        <ele>552.0</ele>
        <time>2017-05-27T11:32:33.497Z</time>
      </trkpt>
      <trkpt lat="39.99428667" lon="-0.40175167">
        <ele>553.0</ele>
        <time>2017-05-27T11:32:34.531Z</time>
      </trkpt>
      <trkpt lat="39.99426667" lon="-0.40176333">
        <ele>553.0</ele>
        <time>2017-05-27T11:32:35.496Z</time>
      </trkpt>
      <trkpt lat="39.99426667" lon="-0.40176333">
        <ele>553.0</ele>
        <time>2017-05-27T11:32:36.502Z</time>
      </trkpt>
      <trkpt lat="39.99422333" lon="-0.40178667">
        <ele>554.0</ele>
        <time>2017-05-27T11:32:37.531Z</time>
      </trkpt>
      <trkpt lat="39.99422333" lon="-0.40178667">
        <ele>554.0</ele>
        <time>2017-05-27T11:32:38.502Z</time>
      </trkpt>
      <trkpt lat="39.99418333" lon="-0.40180833">
        <ele>554.0</ele>
        <time>2017-05-27T11:32:39.532Z</time>
      </trkpt>
      <trkpt lat="39.99418333" lon="-0.40180833">
        <ele>554.0</ele>
        <time>2017-05-27T11:32:40.521Z</time>
      </trkpt>
      <trkpt lat="39.99414667" lon="-0.40183">
        <ele>554.0</ele>
        <time>2017-05-27T11:32:41.499Z</time>
      </trkpt>
      <trkpt lat="39.99414667" lon="-0.40183">
        <ele>554.0</ele>
        <time>2017-05-27T11:32:42.505Z</time>
      </trkpt>
      <trkpt lat="39.99411167" lon="-0.40186">
        <ele>555.0</ele>
        <time>2017-05-27T11:32:43.506Z</time>
      </trkpt>
      <trkpt lat="39.99409333" lon="-0.40187667">
        <ele>555.0</ele>
        <time>2017-05-27T11:32:44.506Z</time>
      </trkpt>
      <trkpt lat="39.99409333" lon="-0.40187667">
        <ele>555.0</ele>
        <time>2017-05-27T11:32:45.509Z</time>
      </trkpt>
      <trkpt lat="39.994055" lon="-0.40190667">
        <ele>555.0</ele>
        <time>2017-05-27T11:32:46.503Z</time>
      </trkpt>
      <trkpt lat="39.99403667" lon="-0.40192167">
        <ele>556.0</ele>
        <time>2017-05-27T11:32:47.496Z</time>
      </trkpt>
      <trkpt lat="39.99403667" lon="-0.40192167">
        <ele>556.0</ele>
        <time>2017-05-27T11:32:48.502Z</time>
      </trkpt>
      <trkpt lat="39.99399833" lon="-0.40195">
        <ele>556.0</ele>
        <time>2017-05-27T11:32:49.496Z</time>
      </trkpt>
      <trkpt lat="39.99399833" lon="-0.40195">
        <ele>556.0</ele>
        <time>2017-05-27T11:32:50.505Z</time>
      </trkpt>
      <trkpt lat="39.99396167" lon="-0.40198833">
        <ele>556.0</ele>
        <time>2017-05-27T11:32:51.499Z</time>
      </trkpt>
      <trkpt lat="39.99396167" lon="-0.40198833">
        <ele>556.0</ele>
        <time>2017-05-27T11:32:52.505Z</time>
      </trkpt>
      <trkpt lat="39.99392667" lon="-0.40202167">
        <ele>556.0</ele>
        <time>2017-05-27T11:32:53.496Z</time>
      </trkpt>
      <trkpt lat="39.99392667" lon="-0.40202167">
        <ele>556.0</ele>
        <time>2017-05-27T11:32:54.502Z</time>
      </trkpt>
      <trkpt lat="39.99389667" lon="-0.40207167">
        <ele>557.0</ele>
        <time>2017-05-27T11:32:55.523Z</time>
      </trkpt>
      <trkpt lat="39.99389667" lon="-0.40207167">
        <ele>557.0</ele>
        <time>2017-05-27T11:32:56.496Z</time>
      </trkpt>
      <trkpt lat="39.99386833" lon="-0.40210667">
        <ele>558.0</ele>
        <time>2017-05-27T11:32:57.493Z</time>
      </trkpt>
      <trkpt lat="39.99386833" lon="-0.40210667">
        <ele>558.0</ele>
        <time>2017-05-27T11:32:58.501Z</time>
      </trkpt>
      <trkpt lat="39.99384667" lon="-0.40215167">
        <ele>559.0</ele>
        <time>2017-05-27T11:32:59.506Z</time>
      </trkpt>
      <trkpt lat="39.99384667" lon="-0.40215167">
        <ele>559.0</ele>
        <time>2017-05-27T11:33:00.512Z</time>
      </trkpt>
      <trkpt lat="39.99382167" lon="-0.40219667">
        <ele>560.0</ele>
        <time>2017-05-27T11:33:01.504Z</time>
      </trkpt>
      <trkpt lat="39.99382167" lon="-0.40219667">
        <ele>560.0</ele>
        <time>2017-05-27T11:33:02.510Z</time>
      </trkpt>
      <trkpt lat="39.9938" lon="-0.40224167">
        <ele>560.0</ele>
        <time>2017-05-27T11:33:03.513Z</time>
      </trkpt>
      <trkpt lat="39.9938" lon="-0.40224167">
        <ele>560.0</ele>
        <time>2017-05-27T11:33:04.519Z</time>
      </trkpt>
      <trkpt lat="39.99377833" lon="-0.402285">
        <ele>560.0</ele>
        <time>2017-05-27T11:33:05.518Z</time>
      </trkpt>
      <trkpt lat="39.99377833" lon="-0.402285">
        <ele>560.0</ele>
        <time>2017-05-27T11:33:06.496Z</time>
      </trkpt>
      <trkpt lat="39.99374667" lon="-0.40232">
        <ele>561.0</ele>
        <time>2017-05-27T11:33:07.501Z</time>
      </trkpt>
      <trkpt lat="39.99374667" lon="-0.40232">
        <ele>561.0</ele>
        <time>2017-05-27T11:33:08.507Z</time>
      </trkpt>
      <trkpt lat="39.99370667" lon="-0.40235">
        <ele>561.0</ele>
        <time>2017-05-27T11:33:09.504Z</time>
      </trkpt>
      <trkpt lat="39.99370667" lon="-0.40235">
        <ele>561.0</ele>
        <time>2017-05-27T11:33:10.510Z</time>
      </trkpt>
      <trkpt lat="39.99367333" lon="-0.40236667">
        <ele>562.0</ele>
        <time>2017-05-27T11:33:11.514Z</time>
      </trkpt>
      <trkpt lat="39.99367333" lon="-0.40236667">
        <ele>562.0</ele>
        <time>2017-05-27T11:33:12.519Z</time>
      </trkpt>
      <trkpt lat="39.99364333" lon="-0.40239167">
        <ele>563.0</ele>
        <time>2017-05-27T11:33:13.532Z</time>
      </trkpt>
      <trkpt lat="39.99364333" lon="-0.40239167">
        <ele>563.0</ele>
        <time>2017-05-27T11:33:14.499Z</time>
      </trkpt>
      <trkpt lat="39.99360667" lon="-0.40241667">
        <ele>563.0</ele>
        <time>2017-05-27T11:33:15.492Z</time>
      </trkpt>
      <trkpt lat="39.99360667" lon="-0.40241667">
        <ele>563.0</ele>
        <time>2017-05-27T11:33:16.498Z</time>
      </trkpt>
      <trkpt lat="39.99356333" lon="-0.40241">
        <ele>564.0</ele>
        <time>2017-05-27T11:33:17.517Z</time>
      </trkpt>
      <trkpt lat="39.99356333" lon="-0.40241">
        <ele>564.0</ele>
        <time>2017-05-27T11:33:18.535Z</time>
      </trkpt>
      <trkpt lat="39.99351333" lon="-0.402395">
        <ele>564.0</ele>
        <time>2017-05-27T11:33:19.504Z</time>
      </trkpt>
      <trkpt lat="39.99349" lon="-0.402385">
        <ele>564.0</ele>
        <time>2017-05-27T11:33:20.496Z</time>
      </trkpt>
      <trkpt lat="39.99349" lon="-0.402385">
        <ele>564.0</ele>
        <time>2017-05-27T11:33:21.501Z</time>
      </trkpt>
      <trkpt lat="39.99344167" lon="-0.40236">
        <ele>564.0</ele>
        <time>2017-05-27T11:33:22.521Z</time>
      </trkpt>
      <trkpt lat="39.99344167" lon="-0.40236">
        <ele>564.0</ele>
        <time>2017-05-27T11:33:23.502Z</time>
      </trkpt>
      <trkpt lat="39.99339167" lon="-0.40233">
        <ele>564.0</ele>
        <time>2017-05-27T11:33:24.499Z</time>
      </trkpt>
      <trkpt lat="39.99339167" lon="-0.40233">
        <ele>564.0</ele>
        <time>2017-05-27T11:33:25.505Z</time>
      </trkpt>
      <trkpt lat="39.99334333" lon="-0.402295">
        <ele>564.0</ele>
        <time>2017-05-27T11:33:26.506Z</time>
      </trkpt>
      <trkpt lat="39.99334333" lon="-0.402295">
        <ele>564.0</ele>
        <time>2017-05-27T11:33:27.510Z</time>
      </trkpt>
      <trkpt lat="39.99329667" lon="-0.40225667">
        <ele>564.0</ele>
        <time>2017-05-27T11:33:28.515Z</time>
      </trkpt>
      <trkpt lat="39.99327" lon="-0.40222833">
        <ele>565.0</ele>
        <time>2017-05-27T11:33:29.513Z</time>
      </trkpt>
      <trkpt lat="39.99327" lon="-0.40222833">
        <ele>565.0</ele>
        <time>2017-05-27T11:33:30.519Z</time>
      </trkpt>
      <trkpt lat="39.993225" lon="-0.40218833">
        <ele>565.0</ele>
        <time>2017-05-27T11:33:31.526Z</time>
      </trkpt>
      <trkpt lat="39.993225" lon="-0.40218833">
        <ele>565.0</ele>
        <time>2017-05-27T11:33:32.495Z</time>
      </trkpt>
      <trkpt lat="39.99317167" lon="-0.40215667">
        <ele>565.0</ele>
        <time>2017-05-27T11:33:33.530Z</time>
      </trkpt>
      <trkpt lat="39.99317167" lon="-0.40215667">
        <ele>565.0</ele>
        <time>2017-05-27T11:33:34.497Z</time>
      </trkpt>
      <trkpt lat="39.99311167" lon="-0.40213167">
        <ele>565.0</ele>
        <time>2017-05-27T11:33:35.506Z</time>
      </trkpt>
      <trkpt lat="39.99311167" lon="-0.40213167">
        <ele>565.0</ele>
        <time>2017-05-27T11:33:36.512Z</time>
      </trkpt>
      <trkpt lat="39.99305333" lon="-0.4021">
        <ele>565.0</ele>
        <time>2017-05-27T11:33:37.498Z</time>
      </trkpt>
      <trkpt lat="39.99305333" lon="-0.4021">
        <ele>565.0</ele>
        <time>2017-05-27T11:33:38.506Z</time>
      </trkpt>
      <trkpt lat="39.99299667" lon="-0.40207167">
        <ele>566.0</ele>
        <time>2017-05-27T11:33:39.514Z</time>
      </trkpt>
      <trkpt lat="39.99299667" lon="-0.40207167">
        <ele>566.0</ele>
        <time>2017-05-27T11:33:40.505Z</time>
      </trkpt>
      <trkpt lat="39.99294333" lon="-0.40204167">
        <ele>567.0</ele>
        <time>2017-05-27T11:33:41.510Z</time>
      </trkpt>
      <trkpt lat="39.99294333" lon="-0.40204167">
        <ele>567.0</ele>
        <time>2017-05-27T11:33:42.516Z</time>
      </trkpt>
      <trkpt lat="39.99288667" lon="-0.40201167">
        <ele>567.0</ele>
        <time>2017-05-27T11:33:43.532Z</time>
      </trkpt>
      <trkpt lat="39.99288667" lon="-0.40201167">
        <ele>567.0</ele>
        <time>2017-05-27T11:33:44.499Z</time>
      </trkpt>
      <trkpt lat="39.99283333" lon="-0.401985">
        <ele>568.0</ele>
        <time>2017-05-27T11:33:45.503Z</time>
      </trkpt>
      <trkpt lat="39.99283333" lon="-0.401985">
        <ele>568.0</ele>
        <time>2017-05-27T11:33:46.509Z</time>
      </trkpt>
      <trkpt lat="39.99278" lon="-0.40195833">
        <ele>568.0</ele>
        <time>2017-05-27T11:33:47.506Z</time>
      </trkpt>
      <trkpt lat="39.99278" lon="-0.40195833">
        <ele>568.0</ele>
        <time>2017-05-27T11:33:48.513Z</time>
      </trkpt>
      <trkpt lat="39.99272667" lon="-0.401935">
        <ele>568.0</ele>
        <time>2017-05-27T11:33:49.496Z</time>
      </trkpt>
      <trkpt lat="39.99269833" lon="-0.40192833">
        <ele>568.0</ele>
        <time>2017-05-27T11:33:50.522Z</time>
      </trkpt>
      <trkpt lat="39.99269833" lon="-0.40192833">
        <ele>568.0</ele>
        <time>2017-05-27T11:33:51.491Z</time>
      </trkpt>
      <trkpt lat="39.99263833" lon="-0.40191">
        <ele>568.0</ele>
        <time>2017-05-27T11:33:52.522Z</time>
      </trkpt>
      <trkpt lat="39.99263833" lon="-0.40191">
        <ele>568.0</ele>
        <time>2017-05-27T11:33:53.495Z</time>
      </trkpt>
      <trkpt lat="39.99258167" lon="-0.40188333">
        <ele>569.0</ele>
        <time>2017-05-27T11:33:54.492Z</time>
      </trkpt>
      <trkpt lat="39.99258167" lon="-0.40188333">
        <ele>569.0</ele>
        <time>2017-05-27T11:33:55.498Z</time>
      </trkpt>
      <trkpt lat="39.99252333" lon="-0.40186333">
        <ele>570.0</ele>
        <time>2017-05-27T11:33:56.495Z</time>
      </trkpt>
      <trkpt lat="39.99252333" lon="-0.40186333">
        <ele>570.0</ele>
        <time>2017-05-27T11:33:57.504Z</time>
      </trkpt>
      <trkpt lat="39.99247167" lon="-0.401835">
        <ele>571.0</ele>
        <time>2017-05-27T11:33:58.496Z</time>
      </trkpt>
      <trkpt lat="39.99244667" lon="-0.40182167">
        <ele>571.0</ele>
        <time>2017-05-27T11:33:59.508Z</time>
      </trkpt>
      <trkpt lat="39.99244667" lon="-0.40182167">
        <ele>571.0</ele>
        <time>2017-05-27T11:34:00.515Z</time>
      </trkpt>
      <trkpt lat="39.99239333" lon="-0.40179667">
        <ele>570.0</ele>
        <time>2017-05-27T11:34:01.530Z</time>
      </trkpt>
      <trkpt lat="39.99239333" lon="-0.40179667">
        <ele>570.0</ele>
        <time>2017-05-27T11:34:02.496Z</time>
      </trkpt>
      <trkpt lat="39.99234167" lon="-0.40176833">
        <ele>570.0</ele>
        <time>2017-05-27T11:34:03.506Z</time>
      </trkpt>
      <trkpt lat="39.99234167" lon="-0.40176833">
        <ele>570.0</ele>
        <time>2017-05-27T11:34:04.512Z</time>
      </trkpt>
      <trkpt lat="39.99228833" lon="-0.40174167">
        <ele>571.0</ele>
        <time>2017-05-27T11:34:05.506Z</time>
      </trkpt>
      <trkpt lat="39.99228833" lon="-0.40174167">
        <ele>571.0</ele>
        <time>2017-05-27T11:34:06.515Z</time>
      </trkpt>
      <trkpt lat="39.99224167" lon="-0.401715">
        <ele>571.0</ele>
        <time>2017-05-27T11:34:07.506Z</time>
      </trkpt>
      <trkpt lat="39.99224167" lon="-0.401715">
        <ele>571.0</ele>
        <time>2017-05-27T11:34:08.512Z</time>
      </trkpt>
      <trkpt lat="39.99219667" lon="-0.401685">
        <ele>572.0</ele>
        <time>2017-05-27T11:34:09.516Z</time>
      </trkpt>
      <trkpt lat="39.99217333" lon="-0.40167167">
        <ele>572.0</ele>
        <time>2017-05-27T11:34:10.500Z</time>
      </trkpt>
      <trkpt lat="39.99214833" lon="-0.40165833">
        <ele>572.0</ele>
        <time>2017-05-27T11:34:11.494Z</time>
      </trkpt>
      <trkpt lat="39.99214833" lon="-0.40165833">
        <ele>572.0</ele>
        <time>2017-05-27T11:34:12.500Z</time>
      </trkpt>
      <trkpt lat="39.99209833" lon="-0.40162667">
        <ele>573.0</ele>
        <time>2017-05-27T11:34:13.497Z</time>
      </trkpt>
      <trkpt lat="39.99209833" lon="-0.40162667">
        <ele>573.0</ele>
        <time>2017-05-27T11:34:14.506Z</time>
      </trkpt>
      <trkpt lat="39.99205" lon="-0.40160167">
        <ele>573.0</ele>
        <time>2017-05-27T11:34:15.521Z</time>
      </trkpt>
      <trkpt lat="39.99205" lon="-0.40160167">
        <ele>573.0</ele>
        <time>2017-05-27T11:34:16.499Z</time>
      </trkpt>
      <trkpt lat="39.992" lon="-0.40158667">
        <ele>572.0</ele>
        <time>2017-05-27T11:34:17.504Z</time>
      </trkpt>
      <trkpt lat="39.992" lon="-0.40158667">
        <ele>572.0</ele>
        <time>2017-05-27T11:34:18.512Z</time>
      </trkpt>
      <trkpt lat="39.99194667" lon="-0.401595">
        <ele>572.0</ele>
        <time>2017-05-27T11:34:19.516Z</time>
      </trkpt>
      <trkpt lat="39.99194667" lon="-0.401595">
        <ele>572.0</ele>
        <time>2017-05-27T11:34:20.532Z</time>
      </trkpt>
      <trkpt lat="39.99189667" lon="-0.401625">
        <ele>574.0</ele>
        <time>2017-05-27T11:34:21.496Z</time>
      </trkpt>
      <trkpt lat="39.99187833" lon="-0.40165167">
        <ele>574.0</ele>
        <time>2017-05-27T11:34:22.501Z</time>
      </trkpt>
      <trkpt lat="39.99187833" lon="-0.40165167">
        <ele>574.0</ele>
        <time>2017-05-27T11:34:23.507Z</time>
      </trkpt>
      <trkpt lat="39.99185667" lon="-0.40171167">
        <ele>575.0</ele>
        <time>2017-05-27T11:34:24.529Z</time>
      </trkpt>
      <trkpt lat="39.99185667" lon="-0.40171167">
        <ele>575.0</ele>
        <time>2017-05-27T11:34:25.497Z</time>
      </trkpt>
      <trkpt lat="39.99184667" lon="-0.40177833">
        <ele>575.0</ele>
        <time>2017-05-27T11:34:26.497Z</time>
      </trkpt>
      <trkpt lat="39.99184667" lon="-0.40177833">
        <ele>575.0</ele>
        <time>2017-05-27T11:34:27.505Z</time>
      </trkpt>
      <trkpt lat="39.99184333" lon="-0.40184333">
        <ele>576.0</ele>
        <time>2017-05-27T11:34:28.492Z</time>
      </trkpt>
      <trkpt lat="39.99184167" lon="-0.401875">
        <ele>576.0</ele>
        <time>2017-05-27T11:34:29.493Z</time>
      </trkpt>
      <trkpt lat="39.99184167" lon="-0.401875">
        <ele>576.0</ele>
        <time>2017-05-27T11:34:30.499Z</time>
      </trkpt>
      <trkpt lat="39.991845" lon="-0.40194333">
        <ele>576.0</ele>
        <time>2017-05-27T11:34:31.529Z</time>
      </trkpt>
      <trkpt lat="39.991845" lon="-0.40194333">
        <ele>576.0</ele>
        <time>2017-05-27T11:34:32.497Z</time>
      </trkpt>
      <trkpt lat="39.99184667" lon="-0.40201333">
        <ele>576.0</ele>
        <time>2017-05-27T11:34:33.529Z</time>
      </trkpt>
      <trkpt lat="39.99184667" lon="-0.40204833">
        <ele>576.0</ele>
        <time>2017-05-27T11:34:34.508Z</time>
      </trkpt>
      <trkpt lat="39.99184833" lon="-0.40208167">
        <ele>577.0</ele>
        <time>2017-05-27T11:34:35.500Z</time>
      </trkpt>
      <trkpt lat="39.99184833" lon="-0.40208167">
        <ele>577.0</ele>
        <time>2017-05-27T11:34:36.506Z</time>
      </trkpt>
      <trkpt lat="39.99184667" lon="-0.40214833">
        <ele>577.0</ele>
        <time>2017-05-27T11:34:37.504Z</time>
      </trkpt>
      <trkpt lat="39.99184667" lon="-0.40214833">
        <ele>577.0</ele>
        <time>2017-05-27T11:34:38.512Z</time>
      </trkpt>
      <trkpt lat="39.99184333" lon="-0.402215">
        <ele>577.0</ele>
        <time>2017-05-27T11:34:39.519Z</time>
      </trkpt>
      <trkpt lat="39.99184333" lon="-0.402215">
        <ele>577.0</ele>
        <time>2017-05-27T11:34:40.509Z</time>
      </trkpt>
      <trkpt lat="39.99183833" lon="-0.40228167">
        <ele>577.0</ele>
        <time>2017-05-27T11:34:41.506Z</time>
      </trkpt>
      <trkpt lat="39.99183833" lon="-0.40228167">
        <ele>577.0</ele>
        <time>2017-05-27T11:34:42.512Z</time>
      </trkpt>
      <trkpt lat="39.99183333" lon="-0.40234667">
        <ele>577.0</ele>
        <time>2017-05-27T11:34:43.506Z</time>
      </trkpt>
      <trkpt lat="39.99183333" lon="-0.40234667">
        <ele>577.0</ele>
        <time>2017-05-27T11:34:44.512Z</time>
      </trkpt>
      <trkpt lat="39.99183" lon="-0.40241">
        <ele>578.0</ele>
        <time>2017-05-27T11:34:45.512Z</time>
      </trkpt>
      <trkpt lat="39.99183" lon="-0.40241">
        <ele>578.0</ele>
        <time>2017-05-27T11:34:46.518Z</time>
      </trkpt>
      <trkpt lat="39.99183333" lon="-0.402475">
        <ele>578.0</ele>
        <time>2017-05-27T11:34:47.494Z</time>
      </trkpt>
      <trkpt lat="39.99183833" lon="-0.40250833">
        <ele>578.0</ele>
        <time>2017-05-27T11:34:48.496Z</time>
      </trkpt>
      <trkpt lat="39.99183833" lon="-0.40250833">
        <ele>578.0</ele>
        <time>2017-05-27T11:34:49.502Z</time>
      </trkpt>
      <trkpt lat="39.99185167" lon="-0.40257167">
        <ele>578.0</ele>
        <time>2017-05-27T11:34:50.495Z</time>
      </trkpt>
      <trkpt lat="39.99186" lon="-0.40260167">
        <ele>578.0</ele>
        <time>2017-05-27T11:34:51.504Z</time>
      </trkpt>
      <trkpt lat="39.99186" lon="-0.40260167">
        <ele>578.0</ele>
        <time>2017-05-27T11:34:52.510Z</time>
      </trkpt>
      <trkpt lat="39.99188333" lon="-0.40265833">
        <ele>578.0</ele>
        <time>2017-05-27T11:34:53.517Z</time>
      </trkpt>
      <trkpt lat="39.99188333" lon="-0.40265833">
        <ele>578.0</ele>
        <time>2017-05-27T11:34:54.495Z</time>
      </trkpt>
      <trkpt lat="39.99191" lon="-0.40271">
        <ele>579.0</ele>
        <time>2017-05-27T11:34:55.530Z</time>
      </trkpt>
      <trkpt lat="39.99191" lon="-0.40271">
        <ele>579.0</ele>
        <time>2017-05-27T11:34:56.496Z</time>
      </trkpt>
      <trkpt lat="39.99194333" lon="-0.40276">
        <ele>579.0</ele>
        <time>2017-05-27T11:34:57.500Z</time>
      </trkpt>
      <trkpt lat="39.99194333" lon="-0.40276">
        <ele>579.0</ele>
        <time>2017-05-27T11:34:58.506Z</time>
      </trkpt>
      <trkpt lat="39.99198167" lon="-0.40280333">
        <ele>579.0</ele>
        <time>2017-05-27T11:34:59.505Z</time>
      </trkpt>
      <trkpt lat="39.99198167" lon="-0.40280333">
        <ele>579.0</ele>
        <time>2017-05-27T11:35:00.511Z</time>
      </trkpt>
      <trkpt lat="39.99202667" lon="-0.40283333">
        <ele>579.0</ele>
        <time>2017-05-27T11:35:01.519Z</time>
      </trkpt>
      <trkpt lat="39.99205333" lon="-0.40284167">
        <ele>580.0</ele>
        <time>2017-05-27T11:35:02.506Z</time>
      </trkpt>
      <trkpt lat="39.99205333" lon="-0.40284167">
        <ele>580.0</ele>
        <time>2017-05-27T11:35:03.507Z</time>
      </trkpt>
      <trkpt lat="39.99210667" lon="-0.40285">
        <ele>580.0</ele>
        <time>2017-05-27T11:35:04.500Z</time>
      </trkpt>
      <trkpt lat="39.99210667" lon="-0.40285">
        <ele>580.0</ele>
        <time>2017-05-27T11:35:05.535Z</time>
      </trkpt>
      <trkpt lat="39.99216167" lon="-0.40284333">
        <ele>580.0</ele>
        <time>2017-05-27T11:35:06.494Z</time>
      </trkpt>
      <trkpt lat="39.99219" lon="-0.40283667">
        <ele>580.0</ele>
        <time>2017-05-27T11:35:07.496Z</time>
      </trkpt>
      <trkpt lat="39.99219" lon="-0.40283667">
        <ele>580.0</ele>
        <time>2017-05-27T11:35:08.506Z</time>
      </trkpt>
      <trkpt lat="39.99225333" lon="-0.40282667">
        <ele>578.0</ele>
        <time>2017-05-27T11:35:09.526Z</time>
      </trkpt>
      <trkpt lat="39.99225333" lon="-0.40282667">
        <ele>578.0</ele>
        <time>2017-05-27T11:35:10.494Z</time>
      </trkpt>
      <trkpt lat="39.99231333" lon="-0.40281833">
        <ele>578.0</ele>
        <time>2017-05-27T11:35:11.495Z</time>
      </trkpt>
      <trkpt lat="39.99231333" lon="-0.40281833">
        <ele>578.0</ele>
        <time>2017-05-27T11:35:12.500Z</time>
      </trkpt>
      <trkpt lat="39.992375" lon="-0.402815">
        <ele>578.0</ele>
        <time>2017-05-27T11:35:13.501Z</time>
      </trkpt>
      <trkpt lat="39.992375" lon="-0.402815">
        <ele>578.0</ele>
        <time>2017-05-27T11:35:14.507Z</time>
      </trkpt>
      <trkpt lat="39.99243667" lon="-0.402815">
        <ele>577.0</ele>
        <time>2017-05-27T11:35:15.505Z</time>
      </trkpt>
      <trkpt lat="39.99243667" lon="-0.402815">
        <ele>577.0</ele>
        <time>2017-05-27T11:35:16.511Z</time>
      </trkpt>
      <trkpt lat="39.992495" lon="-0.40282">
        <ele>576.0</ele>
        <time>2017-05-27T11:35:17.497Z</time>
      </trkpt>
      <trkpt lat="39.992495" lon="-0.40282">
        <ele>576.0</ele>
        <time>2017-05-27T11:35:18.505Z</time>
      </trkpt>
      <trkpt lat="39.99255" lon="-0.40282833">
        <ele>577.0</ele>
        <time>2017-05-27T11:35:19.506Z</time>
      </trkpt>
      <trkpt lat="39.99255" lon="-0.40282833">
        <ele>577.0</ele>
        <time>2017-05-27T11:35:20.512Z</time>
      </trkpt>
      <trkpt lat="39.99260333" lon="-0.40283">
        <ele>576.0</ele>
        <time>2017-05-27T11:35:21.506Z</time>
      </trkpt>
      <trkpt lat="39.99262667" lon="-0.40283333">
        <ele>576.0</ele>
        <time>2017-05-27T11:35:22.512Z</time>
      </trkpt>
      <trkpt lat="39.99265167" lon="-0.40283667">
        <ele>577.0</ele>
        <time>2017-05-27T11:35:23.503Z</time>
      </trkpt>
      <trkpt lat="39.99265167" lon="-0.40283667">
        <ele>577.0</ele>
        <time>2017-05-27T11:35:24.509Z</time>
      </trkpt>
      <trkpt lat="39.9927" lon="-0.40285333">
        <ele>577.0</ele>
        <time>2017-05-27T11:35:25.511Z</time>
      </trkpt>
      <trkpt lat="39.992725" lon="-0.40285833">
        <ele>577.0</ele>
        <time>2017-05-27T11:35:26.530Z</time>
      </trkpt>
      <trkpt lat="39.992725" lon="-0.40285833">
        <ele>577.0</ele>
        <time>2017-05-27T11:35:27.499Z</time>
      </trkpt>
      <trkpt lat="39.99277667" lon="-0.40287">
        <ele>577.0</ele>
        <time>2017-05-27T11:35:28.505Z</time>
      </trkpt>
      <trkpt lat="39.99280167" lon="-0.40287667">
        <ele>578.0</ele>
        <time>2017-05-27T11:35:29.524Z</time>
      </trkpt>
      <trkpt lat="39.99280167" lon="-0.40287667">
        <ele>578.0</ele>
        <time>2017-05-27T11:35:30.495Z</time>
      </trkpt>
      <trkpt lat="39.99285" lon="-0.40288833">
        <ele>579.0</ele>
        <time>2017-05-27T11:35:31.532Z</time>
      </trkpt>
      <trkpt lat="39.99285" lon="-0.40288833">
        <ele>579.0</ele>
        <time>2017-05-27T11:35:32.497Z</time>
      </trkpt>
      <trkpt lat="39.99289667" lon="-0.40290167">
        <ele>580.0</ele>
        <time>2017-05-27T11:35:33.528Z</time>
      </trkpt>
      <trkpt lat="39.99289667" lon="-0.40290167">
        <ele>580.0</ele>
        <time>2017-05-27T11:35:34.495Z</time>
      </trkpt>
      <trkpt lat="39.99294333" lon="-0.40291167">
        <ele>581.0</ele>
        <time>2017-05-27T11:35:35.531Z</time>
      </trkpt>
      <trkpt lat="39.99294333" lon="-0.40291167">
        <ele>581.0</ele>
        <time>2017-05-27T11:35:36.497Z</time>
      </trkpt>
      <trkpt lat="39.99298833" lon="-0.40291667">
        <ele>582.0</ele>
        <time>2017-05-27T11:35:37.530Z</time>
      </trkpt>
      <trkpt lat="39.99298833" lon="-0.40291667">
        <ele>582.0</ele>
        <time>2017-05-27T11:35:38.497Z</time>
      </trkpt>
      <trkpt lat="39.99303667" lon="-0.40292833">
        <ele>582.0</ele>
        <time>2017-05-27T11:35:39.507Z</time>
      </trkpt>
      <trkpt lat="39.99303667" lon="-0.40292833">
        <ele>582.0</ele>
        <time>2017-05-27T11:35:40.512Z</time>
      </trkpt>
      <trkpt lat="39.99308167" lon="-0.40294833">
        <ele>583.0</ele>
        <time>2017-05-27T11:35:41.501Z</time>
      </trkpt>
      <trkpt lat="39.99308167" lon="-0.40294833">
        <ele>583.0</ele>
        <time>2017-05-27T11:35:42.506Z</time>
      </trkpt>
      <trkpt lat="39.99312833" lon="-0.40296667">
        <ele>584.0</ele>
        <time>2017-05-27T11:35:43.532Z</time>
      </trkpt>
      <trkpt lat="39.99312833" lon="-0.40296667">
        <ele>584.0</ele>
        <time>2017-05-27T11:35:44.500Z</time>
      </trkpt>
      <trkpt lat="39.99317167" lon="-0.40299">
        <ele>584.0</ele>
        <time>2017-05-27T11:35:45.493Z</time>
      </trkpt>
      <trkpt lat="39.99319167" lon="-0.40300333">
        <ele>585.0</ele>
        <time>2017-05-27T11:35:46.501Z</time>
      </trkpt>
      <trkpt lat="39.99319167" lon="-0.40300333">
        <ele>585.0</ele>
        <time>2017-05-27T11:35:47.507Z</time>
      </trkpt>
      <trkpt lat="39.99322833" lon="-0.403025">
        <ele>585.0</ele>
        <time>2017-05-27T11:35:48.509Z</time>
      </trkpt>
      <trkpt lat="39.99322833" lon="-0.403025">
        <ele>585.0</ele>
        <time>2017-05-27T11:35:49.515Z</time>
      </trkpt>
      <trkpt lat="39.993265" lon="-0.40305667">
        <ele>585.0</ele>
        <time>2017-05-27T11:35:50.506Z</time>
      </trkpt>
      <trkpt lat="39.993265" lon="-0.40305667">
        <ele>585.0</ele>
        <time>2017-05-27T11:35:51.511Z</time>
      </trkpt>
      <trkpt lat="39.993295" lon="-0.40309333">
        <ele>586.0</ele>
        <time>2017-05-27T11:35:52.501Z</time>
      </trkpt>
      <trkpt lat="39.993295" lon="-0.40309333">
        <ele>586.0</ele>
        <time>2017-05-27T11:35:53.507Z</time>
      </trkpt>
      <trkpt lat="39.99332167" lon="-0.40314167">
        <ele>587.0</ele>
        <time>2017-05-27T11:35:54.517Z</time>
      </trkpt>
      <trkpt lat="39.99333333" lon="-0.403165">
        <ele>587.0</ele>
        <time>2017-05-27T11:35:55.517Z</time>
      </trkpt>
      <trkpt lat="39.99333333" lon="-0.403165">
        <ele>587.0</ele>
        <time>2017-05-27T11:35:56.494Z</time>
      </trkpt>
      <trkpt lat="39.99334667" lon="-0.40321833">
        <ele>587.0</ele>
        <time>2017-05-27T11:35:57.530Z</time>
      </trkpt>
      <trkpt lat="39.99334667" lon="-0.40321833">
        <ele>587.0</ele>
        <time>2017-05-27T11:35:58.496Z</time>
      </trkpt>
      <trkpt lat="39.99334667" lon="-0.40327667">
        <ele>588.0</ele>
        <time>2017-05-27T11:35:59.517Z</time>
      </trkpt>
      <trkpt lat="39.99334667" lon="-0.40327667">
        <ele>588.0</ele>
        <time>2017-05-27T11:36:00.498Z</time>
      </trkpt>
      <trkpt lat="39.99334" lon="-0.40333167">
        <ele>589.0</ele>
        <time>2017-05-27T11:36:01.502Z</time>
      </trkpt>
      <trkpt lat="39.99334" lon="-0.40333167">
        <ele>589.0</ele>
        <time>2017-05-27T11:36:02.508Z</time>
      </trkpt>
      <trkpt lat="39.99333333" lon="-0.40339">
        <ele>590.0</ele>
        <time>2017-05-27T11:36:03.498Z</time>
      </trkpt>
      <trkpt lat="39.99332833" lon="-0.40341667">
        <ele>590.0</ele>
        <time>2017-05-27T11:36:04.504Z</time>
      </trkpt>
      <trkpt lat="39.99332833" lon="-0.40341667">
        <ele>590.0</ele>
        <time>2017-05-27T11:36:05.510Z</time>
      </trkpt>
      <trkpt lat="39.99331667" lon="-0.40347">
        <ele>590.0</ele>
        <time>2017-05-27T11:36:06.505Z</time>
      </trkpt>
      <trkpt lat="39.99331667" lon="-0.40347">
        <ele>590.0</ele>
        <time>2017-05-27T11:36:07.510Z</time>
      </trkpt>
      <trkpt lat="39.99330167" lon="-0.40352667">
        <ele>590.0</ele>
        <time>2017-05-27T11:36:08.528Z</time>
      </trkpt>
      <trkpt lat="39.99330167" lon="-0.40352667">
        <ele>590.0</ele>
        <time>2017-05-27T11:36:09.496Z</time>
      </trkpt>
      <trkpt lat="39.99329333" lon="-0.40359">
        <ele>591.0</ele>
        <time>2017-05-27T11:36:10.533Z</time>
      </trkpt>
      <trkpt lat="39.993285" lon="-0.40362">
        <ele>591.0</ele>
        <time>2017-05-27T11:36:11.520Z</time>
      </trkpt>
      <trkpt lat="39.993285" lon="-0.40362">
        <ele>591.0</ele>
        <time>2017-05-27T11:36:12.498Z</time>
      </trkpt>
      <trkpt lat="39.99328" lon="-0.40368333">
        <ele>592.0</ele>
        <time>2017-05-27T11:36:13.517Z</time>
      </trkpt>
      <trkpt lat="39.99328" lon="-0.40368333">
        <ele>592.0</ele>
        <time>2017-05-27T11:36:14.496Z</time>
      </trkpt>
      <trkpt lat="39.99327" lon="-0.40374">
        <ele>592.0</ele>
        <time>2017-05-27T11:36:15.518Z</time>
      </trkpt>
      <trkpt lat="39.99327" lon="-0.40374">
        <ele>592.0</ele>
        <time>2017-05-27T11:36:16.497Z</time>
      </trkpt>
      <trkpt lat="39.99326167" lon="-0.40379667">
        <ele>593.0</ele>
        <time>2017-05-27T11:36:17.531Z</time>
      </trkpt>
      <trkpt lat="39.99326167" lon="-0.40379667">
        <ele>593.0</ele>
        <time>2017-05-27T11:36:18.497Z</time>
      </trkpt>
      <trkpt lat="39.993255" lon="-0.40385333">
        <ele>594.0</ele>
        <time>2017-05-27T11:36:19.519Z</time>
      </trkpt>
      <trkpt lat="39.99325167" lon="-0.40388">
        <ele>594.0</ele>
        <time>2017-05-27T11:36:20.522Z</time>
      </trkpt>
      <trkpt lat="39.99325167" lon="-0.40388">
        <ele>594.0</ele>
        <time>2017-05-27T11:36:21.498Z</time>
      </trkpt>
      <trkpt lat="39.99325667" lon="-0.403935">
        <ele>594.0</ele>
        <time>2017-05-27T11:36:22.494Z</time>
      </trkpt>
      <trkpt lat="39.99326167" lon="-0.40396167">
        <ele>594.0</ele>
        <time>2017-05-27T11:36:23.524Z</time>
      </trkpt>
      <trkpt lat="39.99326167" lon="-0.40396167">
        <ele>594.0</ele>
        <time>2017-05-27T11:36:24.497Z</time>
      </trkpt>
      <trkpt lat="39.99327667" lon="-0.40401">
        <ele>594.0</ele>
        <time>2017-05-27T11:36:25.523Z</time>
      </trkpt>
      <trkpt lat="39.99327667" lon="-0.40401">
        <ele>594.0</ele>
        <time>2017-05-27T11:36:26.496Z</time>
      </trkpt>
      <trkpt lat="39.993295" lon="-0.40405833">
        <ele>595.0</ele>
        <time>2017-05-27T11:36:27.516Z</time>
      </trkpt>
      <trkpt lat="39.993295" lon="-0.40405833">
        <ele>595.0</ele>
        <time>2017-05-27T11:36:28.495Z</time>
      </trkpt>
      <trkpt lat="39.99331167" lon="-0.404105">
        <ele>595.0</ele>
        <time>2017-05-27T11:36:29.517Z</time>
      </trkpt>
      <trkpt lat="39.99331167" lon="-0.404105">
        <ele>595.0</ele>
        <time>2017-05-27T11:36:30.528Z</time>
      </trkpt>
      <trkpt lat="39.99333167" lon="-0.40414833">
        <ele>595.0</ele>
        <time>2017-05-27T11:36:31.532Z</time>
      </trkpt>
      <trkpt lat="39.99334333" lon="-0.40417">
        <ele>595.0</ele>
        <time>2017-05-27T11:36:32.514Z</time>
      </trkpt>
      <trkpt lat="39.99334333" lon="-0.40417">
        <ele>595.0</ele>
        <time>2017-05-27T11:36:33.520Z</time>
      </trkpt>
      <trkpt lat="39.99337" lon="-0.40421">
        <ele>596.0</ele>
        <time>2017-05-27T11:36:34.496Z</time>
      </trkpt>
      <trkpt lat="39.993385" lon="-0.40423">
        <ele>596.0</ele>
        <time>2017-05-27T11:36:35.491Z</time>
      </trkpt>
      <trkpt lat="39.993385" lon="-0.40423">
        <ele>596.0</ele>
        <time>2017-05-27T11:36:36.496Z</time>
      </trkpt>
      <trkpt lat="39.99341833" lon="-0.40426167">
        <ele>597.0</ele>
        <time>2017-05-27T11:36:37.539Z</time>
      </trkpt>
      <trkpt lat="39.99343333" lon="-0.40428">
        <ele>597.0</ele>
        <time>2017-05-27T11:36:38.507Z</time>
      </trkpt>
      <trkpt lat="39.99346833" lon="-0.40431333">
        <ele>598.0</ele>
        <time>2017-05-27T11:36:39.498Z</time>
      </trkpt>
      <trkpt lat="39.99346833" lon="-0.40431333">
        <ele>598.0</ele>
        <time>2017-05-27T11:36:40.512Z</time>
      </trkpt>
      <trkpt lat="39.99346833" lon="-0.40431333">
        <ele>598.0</ele>
        <time>2017-05-27T11:36:41.505Z</time>
      </trkpt>
      <trkpt lat="39.99350333" lon="-0.40433833">
        <ele>599.0</ele>
        <time>2017-05-27T11:36:42.493Z</time>
      </trkpt>
      <trkpt lat="39.99351833" lon="-0.404355">
        <ele>599.0</ele>
        <time>2017-05-27T11:36:43.525Z</time>
      </trkpt>
      <trkpt lat="39.99353333" lon="-0.40437167">
        <ele>599.0</ele>
        <time>2017-05-27T11:36:44.506Z</time>
      </trkpt>
      <trkpt lat="39.99353333" lon="-0.40437167">
        <ele>599.0</ele>
        <time>2017-05-27T11:36:45.510Z</time>
      </trkpt>
      <trkpt lat="39.99356667" lon="-0.40440333">
        <ele>600.0</ele>
        <time>2017-05-27T11:36:46.505Z</time>
      </trkpt>
      <trkpt lat="39.99358333" lon="-0.40442167">
        <ele>600.0</ele>
        <time>2017-05-27T11:36:47.516Z</time>
      </trkpt>
      <trkpt lat="39.99358333" lon="-0.40442167">
        <ele>600.0</ele>
        <time>2017-05-27T11:36:48.530Z</time>
      </trkpt>
      <trkpt lat="39.99361667" lon="-0.40445833">
        <ele>600.0</ele>
        <time>2017-05-27T11:36:49.496Z</time>
      </trkpt>
      <trkpt lat="39.99363167" lon="-0.40448167">
        <ele>601.0</ele>
        <time>2017-05-27T11:36:50.507Z</time>
      </trkpt>
      <trkpt lat="39.99363167" lon="-0.40448167">
        <ele>601.0</ele>
        <time>2017-05-27T11:36:51.513Z</time>
      </trkpt>
      <trkpt lat="39.99366167" lon="-0.40452333">
        <ele>601.0</ele>
        <time>2017-05-27T11:36:52.509Z</time>
      </trkpt>
      <trkpt lat="39.993675" lon="-0.404545">
        <ele>602.0</ele>
        <time>2017-05-27T11:36:53.498Z</time>
      </trkpt>
      <trkpt lat="39.993675" lon="-0.404545">
        <ele>602.0</ele>
        <time>2017-05-27T11:36:54.504Z</time>
      </trkpt>
      <trkpt lat="39.9937" lon="-0.40458833">
        <ele>602.0</ele>
        <time>2017-05-27T11:36:55.529Z</time>
      </trkpt>
      <trkpt lat="39.9937" lon="-0.40458833">
        <ele>602.0</ele>
        <time>2017-05-27T11:36:56.495Z</time>
      </trkpt>
      <trkpt lat="39.99372167" lon="-0.404635">
        <ele>603.0</ele>
        <time>2017-05-27T11:36:57.492Z</time>
      </trkpt>
      <trkpt lat="39.99373" lon="-0.40466167">
        <ele>603.0</ele>
        <time>2017-05-27T11:36:58.491Z</time>
      </trkpt>
      <trkpt lat="39.99373" lon="-0.40466167">
        <ele>603.0</ele>
        <time>2017-05-27T11:36:59.497Z</time>
      </trkpt>
      <trkpt lat="39.99375333" lon="-0.40471333">
        <ele>604.0</ele>
        <time>2017-05-27T11:37:00.496Z</time>
      </trkpt>
      <trkpt lat="39.99375333" lon="-0.40471333">
        <ele>604.0</ele>
        <time>2017-05-27T11:37:01.504Z</time>
      </trkpt>
      <trkpt lat="39.99377333" lon="-0.40476333">
        <ele>604.0</ele>
        <time>2017-05-27T11:37:02.505Z</time>
      </trkpt>
      <trkpt lat="39.99377333" lon="-0.40476333">
        <ele>604.0</ele>
        <time>2017-05-27T11:37:03.510Z</time>
      </trkpt>
      <trkpt lat="39.99378667" lon="-0.40481667">
        <ele>605.0</ele>
        <time>2017-05-27T11:37:04.515Z</time>
      </trkpt>
      <trkpt lat="39.99379667" lon="-0.40484">
        <ele>605.0</ele>
        <time>2017-05-27T11:37:05.517Z</time>
      </trkpt>
      <trkpt lat="39.99379667" lon="-0.40484">
        <ele>605.0</ele>
        <time>2017-05-27T11:37:06.503Z</time>
      </trkpt>
      <trkpt lat="39.99382" lon="-0.404875">
        <ele>604.0</ele>
        <time>2017-05-27T11:37:07.503Z</time>
      </trkpt>
      <trkpt lat="39.99382" lon="-0.404875">
        <ele>604.0</ele>
        <time>2017-05-27T11:37:08.512Z</time>
      </trkpt>
      <trkpt lat="39.99384833" lon="-0.40492333">
        <ele>604.0</ele>
        <time>2017-05-27T11:37:09.520Z</time>
      </trkpt>
      <trkpt lat="39.99386333" lon="-0.40494667">
        <ele>604.0</ele>
        <time>2017-05-27T11:37:10.510Z</time>
      </trkpt>
      <trkpt lat="39.993875" lon="-0.40497333">
        <ele>604.0</ele>
        <time>2017-05-27T11:37:11.524Z</time>
      </trkpt>
      <trkpt lat="39.993875" lon="-0.40497333">
        <ele>604.0</ele>
        <time>2017-05-27T11:37:12.499Z</time>
      </trkpt>
      <trkpt lat="39.99389667" lon="-0.40503">
        <ele>604.0</ele>
        <time>2017-05-27T11:37:13.496Z</time>
      </trkpt>
      <trkpt lat="39.993905" lon="-0.40506">
        <ele>605.0</ele>
        <time>2017-05-27T11:37:14.492Z</time>
      </trkpt>
      <trkpt lat="39.993905" lon="-0.40506">
        <ele>605.0</ele>
        <time>2017-05-27T11:37:15.507Z</time>
      </trkpt>
      <trkpt lat="39.99392167" lon="-0.40511667">
        <ele>605.0</ele>
        <time>2017-05-27T11:37:16.504Z</time>
      </trkpt>
      <trkpt lat="39.99392167" lon="-0.40511667">
        <ele>605.0</ele>
        <time>2017-05-27T11:37:17.512Z</time>
      </trkpt>
      <trkpt lat="39.99393333" lon="-0.40517333">
        <ele>605.0</ele>
        <time>2017-05-27T11:37:18.513Z</time>
      </trkpt>
      <trkpt lat="39.99393333" lon="-0.40517333">
        <ele>605.0</ele>
        <time>2017-05-27T11:37:19.522Z</time>
      </trkpt>
      <trkpt lat="39.993945" lon="-0.40522667">
        <ele>605.0</ele>
        <time>2017-05-27T11:37:20.555Z</time>
      </trkpt>
      <trkpt lat="39.993945" lon="-0.40522667">
        <ele>605.0</ele>
        <time>2017-05-27T11:37:21.499Z</time>
      </trkpt>
      <trkpt lat="39.99395833" lon="-0.40528333">
        <ele>605.0</ele>
        <time>2017-05-27T11:37:22.497Z</time>
      </trkpt>
      <trkpt lat="39.99395833" lon="-0.40528333">
        <ele>605.0</ele>
        <time>2017-05-27T11:37:23.504Z</time>
      </trkpt>
      <trkpt lat="39.99396667" lon="-0.40534167">
        <ele>606.0</ele>
        <time>2017-05-27T11:37:24.500Z</time>
      </trkpt>
      <trkpt lat="39.99396667" lon="-0.40534167">
        <ele>606.0</ele>
        <time>2017-05-27T11:37:25.508Z</time>
      </trkpt>
      <trkpt lat="39.99397833" lon="-0.40540167">
        <ele>606.0</ele>
        <time>2017-05-27T11:37:26.506Z</time>
      </trkpt>
      <trkpt lat="39.99397833" lon="-0.40540167">
        <ele>606.0</ele>
        <time>2017-05-27T11:37:27.512Z</time>
      </trkpt>
      <trkpt lat="39.99398833" lon="-0.40546">
        <ele>606.0</ele>
        <time>2017-05-27T11:37:28.508Z</time>
      </trkpt>
      <trkpt lat="39.993995" lon="-0.405485">
        <ele>606.0</ele>
        <time>2017-05-27T11:37:29.506Z</time>
      </trkpt>
      <trkpt lat="39.993995" lon="-0.405485">
        <ele>606.0</ele>
        <time>2017-05-27T11:37:30.515Z</time>
      </trkpt>
      <trkpt lat="39.99401" lon="-0.40554167">
        <ele>607.0</ele>
        <time>2017-05-27T11:37:31.531Z</time>
      </trkpt>
      <trkpt lat="39.99401" lon="-0.40554167">
        <ele>607.0</ele>
        <time>2017-05-27T11:37:32.504Z</time>
      </trkpt>
      <trkpt lat="39.99402833" lon="-0.405595">
        <ele>607.0</ele>
        <time>2017-05-27T11:37:33.498Z</time>
      </trkpt>
      <trkpt lat="39.99402833" lon="-0.405595">
        <ele>607.0</ele>
        <time>2017-05-27T11:37:34.506Z</time>
      </trkpt>
      <trkpt lat="39.99405" lon="-0.40565">
        <ele>608.0</ele>
        <time>2017-05-27T11:37:35.506Z</time>
      </trkpt>
      <trkpt lat="39.99405" lon="-0.40565">
        <ele>608.0</ele>
        <time>2017-05-27T11:37:36.515Z</time>
      </trkpt>
      <trkpt lat="39.99407333" lon="-0.40570167">
        <ele>608.0</ele>
        <time>2017-05-27T11:37:37.506Z</time>
      </trkpt>
      <trkpt lat="39.994085" lon="-0.405725">
        <ele>609.0</ele>
        <time>2017-05-27T11:37:38.497Z</time>
      </trkpt>
      <trkpt lat="39.994095" lon="-0.40575">
        <ele>609.0</ele>
        <time>2017-05-27T11:37:39.502Z</time>
      </trkpt>
      <trkpt lat="39.994095" lon="-0.40575">
        <ele>609.0</ele>
        <time>2017-05-27T11:37:40.498Z</time>
      </trkpt>
      <trkpt lat="39.99411333" lon="-0.40580667">
        <ele>609.0</ele>
        <time>2017-05-27T11:37:41.529Z</time>
      </trkpt>
      <trkpt lat="39.99411333" lon="-0.40580667">
        <ele>609.0</ele>
        <time>2017-05-27T11:37:42.500Z</time>
      </trkpt>
      <trkpt lat="39.994135" lon="-0.405865">
        <ele>610.0</ele>
        <time>2017-05-27T11:37:43.502Z</time>
      </trkpt>
      <trkpt lat="39.994135" lon="-0.405865">
        <ele>610.0</ele>
        <time>2017-05-27T11:37:44.509Z</time>
      </trkpt>
      <trkpt lat="39.99416" lon="-0.40592">
        <ele>610.0</ele>
        <time>2017-05-27T11:37:45.512Z</time>
      </trkpt>
      <trkpt lat="39.99416" lon="-0.40592">
        <ele>610.0</ele>
        <time>2017-05-27T11:37:46.520Z</time>
      </trkpt>
      <trkpt lat="39.99418833" lon="-0.40597">
        <ele>610.0</ele>
        <time>2017-05-27T11:37:47.519Z</time>
      </trkpt>
      <trkpt lat="39.99418833" lon="-0.40597">
        <ele>610.0</ele>
        <time>2017-05-27T11:37:48.499Z</time>
      </trkpt>
      <trkpt lat="39.99422" lon="-0.40601833">
        <ele>611.0</ele>
        <time>2017-05-27T11:37:49.531Z</time>
      </trkpt>
      <trkpt lat="39.99422" lon="-0.40601833">
        <ele>611.0</ele>
        <time>2017-05-27T11:37:50.506Z</time>
      </trkpt>
      <trkpt lat="39.99425667" lon="-0.40605833">
        <ele>611.0</ele>
        <time>2017-05-27T11:37:51.516Z</time>
      </trkpt>
      <trkpt lat="39.994275" lon="-0.406075">
        <ele>611.0</ele>
        <time>2017-05-27T11:37:52.532Z</time>
      </trkpt>
      <trkpt lat="39.994275" lon="-0.406075">
        <ele>611.0</ele>
        <time>2017-05-27T11:37:53.502Z</time>
      </trkpt>
      <trkpt lat="39.99431667" lon="-0.40610167">
        <ele>612.0</ele>
        <time>2017-05-27T11:37:54.506Z</time>
      </trkpt>
      <trkpt lat="39.99433833" lon="-0.40611667">
        <ele>612.0</ele>
        <time>2017-05-27T11:37:55.496Z</time>
      </trkpt>
      <trkpt lat="39.99433833" lon="-0.40611667">
        <ele>612.0</ele>
        <time>2017-05-27T11:37:56.506Z</time>
      </trkpt>
      <trkpt lat="39.99438" lon="-0.406145">
        <ele>612.0</ele>
        <time>2017-05-27T11:37:57.496Z</time>
      </trkpt>
      <trkpt lat="39.99439833" lon="-0.40615667">
        <ele>613.0</ele>
        <time>2017-05-27T11:37:58.503Z</time>
      </trkpt>
      <trkpt lat="39.99439833" lon="-0.40615667">
        <ele>613.0</ele>
        <time>2017-05-27T11:37:59.511Z</time>
      </trkpt>
      <trkpt lat="39.99444" lon="-0.40617667">
        <ele>613.0</ele>
        <time>2017-05-27T11:38:00.516Z</time>
      </trkpt>
      <trkpt lat="39.99446" lon="-0.40619">
        <ele>614.0</ele>
        <time>2017-05-27T11:38:01.533Z</time>
      </trkpt>
      <trkpt lat="39.99447833" lon="-0.40620833">
        <ele>614.0</ele>
        <time>2017-05-27T11:38:02.506Z</time>
      </trkpt>
      <trkpt lat="39.99447833" lon="-0.40620833">
        <ele>614.0</ele>
        <time>2017-05-27T11:38:03.512Z</time>
      </trkpt>
      <trkpt lat="39.99451" lon="-0.40625167">
        <ele>614.0</ele>
        <time>2017-05-27T11:38:04.526Z</time>
      </trkpt>
      <trkpt lat="39.99451" lon="-0.40625167">
        <ele>614.0</ele>
        <time>2017-05-27T11:38:05.497Z</time>
      </trkpt>
      <trkpt lat="39.99454333" lon="-0.40629833">
        <ele>615.0</ele>
        <time>2017-05-27T11:38:06.501Z</time>
      </trkpt>
      <trkpt lat="39.99455667" lon="-0.40632333">
        <ele>615.0</ele>
        <time>2017-05-27T11:38:07.506Z</time>
      </trkpt>
      <trkpt lat="39.99455667" lon="-0.40632333">
        <ele>615.0</ele>
        <time>2017-05-27T11:38:08.513Z</time>
      </trkpt>
      <trkpt lat="39.994585" lon="-0.40637">
        <ele>615.0</ele>
        <time>2017-05-27T11:38:09.524Z</time>
      </trkpt>
      <trkpt lat="39.994585" lon="-0.40637">
        <ele>615.0</ele>
        <time>2017-05-27T11:38:10.497Z</time>
      </trkpt>
      <trkpt lat="39.99460833" lon="-0.40642">
        <ele>615.0</ele>
        <time>2017-05-27T11:38:11.526Z</time>
      </trkpt>
      <trkpt lat="39.99460833" lon="-0.40642">
        <ele>615.0</ele>
        <time>2017-05-27T11:38:12.499Z</time>
      </trkpt>
      <trkpt lat="39.99463" lon="-0.40647167">
        <ele>616.0</ele>
        <time>2017-05-27T11:38:13.495Z</time>
      </trkpt>
      <trkpt lat="39.99463" lon="-0.40647167">
        <ele>616.0</ele>
        <time>2017-05-27T11:38:14.506Z</time>
      </trkpt>
      <trkpt lat="39.994655" lon="-0.40652333">
        <ele>616.0</ele>
        <time>2017-05-27T11:38:15.506Z</time>
      </trkpt>
      <trkpt lat="39.994655" lon="-0.40652333">
        <ele>616.0</ele>
        <time>2017-05-27T11:38:16.512Z</time>
      </trkpt>
      <trkpt lat="39.99468333" lon="-0.40657">
        <ele>616.0</ele>
        <time>2017-05-27T11:38:17.526Z</time>
      </trkpt>
      <trkpt lat="39.99469833" lon="-0.40659333">
        <ele>616.0</ele>
        <time>2017-05-27T11:38:18.521Z</time>
      </trkpt>
      <trkpt lat="39.99469833" lon="-0.40659333">
        <ele>616.0</ele>
        <time>2017-05-27T11:38:19.498Z</time>
      </trkpt>
      <trkpt lat="39.994725" lon="-0.406645">
        <ele>617.0</ele>
        <time>2017-05-27T11:38:20.528Z</time>
      </trkpt>
      <trkpt lat="39.994725" lon="-0.406645">
        <ele>617.0</ele>
        <time>2017-05-27T11:38:21.499Z</time>
      </trkpt>
      <trkpt lat="39.994755" lon="-0.40669333">
        <ele>617.0</ele>
        <time>2017-05-27T11:38:22.512Z</time>
      </trkpt>
      <trkpt lat="39.99477167" lon="-0.40671333">
        <ele>617.0</ele>
        <time>2017-05-27T11:38:23.516Z</time>
      </trkpt>
      <trkpt lat="39.99477167" lon="-0.40671333">
        <ele>617.0</ele>
        <time>2017-05-27T11:38:24.525Z</time>
      </trkpt>
      <trkpt lat="39.99480667" lon="-0.40675167">
        <ele>618.0</ele>
        <time>2017-05-27T11:38:25.495Z</time>
      </trkpt>
      <trkpt lat="39.99480667" lon="-0.40675167">
        <ele>618.0</ele>
        <time>2017-05-27T11:38:26.506Z</time>
      </trkpt>
      <trkpt lat="39.994835" lon="-0.40679833">
        <ele>618.0</ele>
        <time>2017-05-27T11:38:27.527Z</time>
      </trkpt>
      <trkpt lat="39.99484833" lon="-0.40682333">
        <ele>618.0</ele>
        <time>2017-05-27T11:38:28.500Z</time>
      </trkpt>
      <trkpt lat="39.99485833" lon="-0.40684833">
        <ele>619.0</ele>
        <time>2017-05-27T11:38:29.515Z</time>
      </trkpt>
      <trkpt lat="39.99485833" lon="-0.40684833">
        <ele>619.0</ele>
        <time>2017-05-27T11:38:30.522Z</time>
      </trkpt>
      <trkpt lat="39.994875" lon="-0.40690167">
        <ele>619.0</ele>
        <time>2017-05-27T11:38:31.529Z</time>
      </trkpt>
      <trkpt lat="39.99488" lon="-0.40692833">
        <ele>619.0</ele>
        <time>2017-05-27T11:38:32.496Z</time>
      </trkpt>
      <trkpt lat="39.99488" lon="-0.40692833">
        <ele>619.0</ele>
        <time>2017-05-27T11:38:33.504Z</time>
      </trkpt>
      <trkpt lat="39.99488167" lon="-0.40698333">
        <ele>620.0</ele>
        <time>2017-05-27T11:38:34.501Z</time>
      </trkpt>
      <trkpt lat="39.99488167" lon="-0.40698333">
        <ele>620.0</ele>
        <time>2017-05-27T11:38:35.508Z</time>
      </trkpt>
      <trkpt lat="39.99487667" lon="-0.40704">
        <ele>621.0</ele>
        <time>2017-05-27T11:38:36.515Z</time>
      </trkpt>
      <trkpt lat="39.99487333" lon="-0.40706833">
        <ele>621.0</ele>
        <time>2017-05-27T11:38:37.509Z</time>
      </trkpt>
      <trkpt lat="39.99487333" lon="-0.40706833">
        <ele>621.0</ele>
        <time>2017-05-27T11:38:38.516Z</time>
      </trkpt>
      <trkpt lat="39.99486833" lon="-0.40712167">
        <ele>622.0</ele>
        <time>2017-05-27T11:38:39.529Z</time>
      </trkpt>
      <trkpt lat="39.99486833" lon="-0.40712167">
        <ele>622.0</ele>
        <time>2017-05-27T11:38:40.504Z</time>
      </trkpt>
      <trkpt lat="39.99485833" lon="-0.40717">
        <ele>622.0</ele>
        <time>2017-05-27T11:38:41.506Z</time>
      </trkpt>
      <trkpt lat="39.99485833" lon="-0.40717">
        <ele>622.0</ele>
        <time>2017-05-27T11:38:42.512Z</time>
      </trkpt>
      <trkpt lat="39.99484667" lon="-0.40722">
        <ele>623.0</ele>
        <time>2017-05-27T11:38:43.504Z</time>
      </trkpt>
      <trkpt lat="39.99483833" lon="-0.407245">
        <ele>623.0</ele>
        <time>2017-05-27T11:38:44.491Z</time>
      </trkpt>
      <trkpt lat="39.99483833" lon="-0.407245">
        <ele>623.0</ele>
        <time>2017-05-27T11:38:45.497Z</time>
      </trkpt>
      <trkpt lat="39.99482333" lon="-0.40729167">
        <ele>623.0</ele>
        <time>2017-05-27T11:38:46.491Z</time>
      </trkpt>
      <trkpt lat="39.994815" lon="-0.40731667">
        <ele>624.0</ele>
        <time>2017-05-27T11:38:47.530Z</time>
      </trkpt>
      <trkpt lat="39.994815" lon="-0.40731667">
        <ele>624.0</ele>
        <time>2017-05-27T11:38:48.499Z</time>
      </trkpt>
      <trkpt lat="39.994795" lon="-0.40736333">
        <ele>625.0</ele>
        <time>2017-05-27T11:38:49.496Z</time>
      </trkpt>
      <trkpt lat="39.994795" lon="-0.40736333">
        <ele>625.0</ele>
        <time>2017-05-27T11:38:50.506Z</time>
      </trkpt>
      <trkpt lat="39.99477167" lon="-0.40741333">
        <ele>625.0</ele>
        <time>2017-05-27T11:38:51.506Z</time>
      </trkpt>
      <trkpt lat="39.99477167" lon="-0.40741333">
        <ele>625.0</ele>
        <time>2017-05-27T11:38:52.512Z</time>
      </trkpt>
      <trkpt lat="39.99475" lon="-0.40745833">
        <ele>625.0</ele>
        <time>2017-05-27T11:38:53.505Z</time>
      </trkpt>
      <trkpt lat="39.99475" lon="-0.40745833">
        <ele>625.0</ele>
        <time>2017-05-27T11:38:54.511Z</time>
      </trkpt>
      <trkpt lat="39.99472667" lon="-0.4075">
        <ele>626.0</ele>
        <time>2017-05-27T11:38:55.506Z</time>
      </trkpt>
      <trkpt lat="39.99472667" lon="-0.4075">
        <ele>626.0</ele>
        <time>2017-05-27T11:38:56.512Z</time>
      </trkpt>
      <trkpt lat="39.99470167" lon="-0.40753833">
        <ele>626.0</ele>
        <time>2017-05-27T11:38:57.513Z</time>
      </trkpt>
      <trkpt lat="39.99470167" lon="-0.40753833">
        <ele>626.0</ele>
        <time>2017-05-27T11:38:58.520Z</time>
      </trkpt>
      <trkpt lat="39.99467667" lon="-0.40757833">
        <ele>627.0</ele>
        <time>2017-05-27T11:38:59.516Z</time>
      </trkpt>
      <trkpt lat="39.99467667" lon="-0.40757833">
        <ele>627.0</ele>
        <time>2017-05-27T11:39:00.534Z</time>
      </trkpt>
      <trkpt lat="39.99465333" lon="-0.40762">
        <ele>627.0</ele>
        <time>2017-05-27T11:39:01.496Z</time>
      </trkpt>
      <trkpt lat="39.99464" lon="-0.407635">
        <ele>628.0</ele>
        <time>2017-05-27T11:39:02.521Z</time>
      </trkpt>
      <trkpt lat="39.99462667" lon="-0.40765">
        <ele>628.0</ele>
        <time>2017-05-27T11:39:03.502Z</time>
      </trkpt>
      <trkpt lat="39.99462667" lon="-0.40765">
        <ele>628.0</ele>
        <time>2017-05-27T11:39:04.513Z</time>
      </trkpt>
      <trkpt lat="39.99460667" lon="-0.407685">
        <ele>628.0</ele>
        <time>2017-05-27T11:39:05.508Z</time>
      </trkpt>
      <trkpt lat="39.99460667" lon="-0.407685">
        <ele>628.0</ele>
        <time>2017-05-27T11:39:06.514Z</time>
      </trkpt>
      <trkpt lat="39.99458833" lon="-0.407725">
        <ele>629.0</ele>
        <time>2017-05-27T11:39:07.516Z</time>
      </trkpt>
      <trkpt lat="39.99458833" lon="-0.407725">
        <ele>629.0</ele>
        <time>2017-05-27T11:39:08.531Z</time>
      </trkpt>
      <trkpt lat="39.99455667" lon="-0.40776">
        <ele>630.0</ele>
        <time>2017-05-27T11:39:09.519Z</time>
      </trkpt>
      <trkpt lat="39.99454167" lon="-0.40777833">
        <ele>630.0</ele>
        <time>2017-05-27T11:39:10.509Z</time>
      </trkpt>
      <trkpt lat="39.99454167" lon="-0.40777833">
        <ele>630.0</ele>
        <time>2017-05-27T11:39:11.515Z</time>
      </trkpt>
      <trkpt lat="39.994515" lon="-0.40781667">
        <ele>630.0</ele>
        <time>2017-05-27T11:39:12.491Z</time>
      </trkpt>
      <trkpt lat="39.994515" lon="-0.40781667">
        <ele>630.0</ele>
        <time>2017-05-27T11:39:13.498Z</time>
      </trkpt>
      <trkpt lat="39.99449167" lon="-0.40786167">
        <ele>631.0</ele>
        <time>2017-05-27T11:39:14.506Z</time>
      </trkpt>
      <trkpt lat="39.99447833" lon="-0.40788667">
        <ele>631.0</ele>
        <time>2017-05-27T11:39:15.499Z</time>
      </trkpt>
      <trkpt lat="39.99447833" lon="-0.40788667">
        <ele>631.0</ele>
        <time>2017-05-27T11:39:16.506Z</time>
      </trkpt>
      <trkpt lat="39.99445667" lon="-0.40793333">
        <ele>631.0</ele>
        <time>2017-05-27T11:39:17.504Z</time>
      </trkpt>
      <trkpt lat="39.99445667" lon="-0.40793333">
        <ele>631.0</ele>
        <time>2017-05-27T11:39:18.511Z</time>
      </trkpt>
      <trkpt lat="39.99443833" lon="-0.40798167">
        <ele>631.0</ele>
        <time>2017-05-27T11:39:19.511Z</time>
      </trkpt>
      <trkpt lat="39.99443833" lon="-0.40798167">
        <ele>631.0</ele>
        <time>2017-05-27T11:39:20.517Z</time>
      </trkpt>
      <trkpt lat="39.99441833" lon="-0.40802833">
        <ele>632.0</ele>
        <time>2017-05-27T11:39:21.506Z</time>
      </trkpt>
      <trkpt lat="39.99440667" lon="-0.40805167">
        <ele>632.0</ele>
        <time>2017-05-27T11:39:22.492Z</time>
      </trkpt>
      <trkpt lat="39.994395" lon="-0.40807167">
        <ele>632.0</ele>
        <time>2017-05-27T11:39:23.525Z</time>
      </trkpt>
      <trkpt lat="39.99438" lon="-0.40809167">
        <ele>632.0</ele>
        <time>2017-05-27T11:39:24.497Z</time>
      </trkpt>
      <trkpt lat="39.99438" lon="-0.40809167">
        <ele>632.0</ele>
        <time>2017-05-27T11:39:25.504Z</time>
      </trkpt>
      <trkpt lat="39.99435" lon="-0.408125">
        <ele>632.0</ele>
        <time>2017-05-27T11:39:26.512Z</time>
      </trkpt>
      <trkpt lat="39.99433" lon="-0.40813667">
        <ele>632.0</ele>
        <time>2017-05-27T11:39:27.520Z</time>
      </trkpt>
      <trkpt lat="39.99433" lon="-0.40813667">
        <ele>632.0</ele>
        <time>2017-05-27T11:39:28.495Z</time>
      </trkpt>
      <trkpt lat="39.994295" lon="-0.40816">
        <ele>633.0</ele>
        <time>2017-05-27T11:39:29.496Z</time>
      </trkpt>
      <trkpt lat="39.994295" lon="-0.40816">
        <ele>633.0</ele>
        <time>2017-05-27T11:39:30.502Z</time>
      </trkpt>
      <trkpt lat="39.994255" lon="-0.40818167">
        <ele>633.0</ele>
        <time>2017-05-27T11:39:31.516Z</time>
      </trkpt>
      <trkpt lat="39.99423833" lon="-0.408195">
        <ele>633.0</ele>
        <time>2017-05-27T11:39:32.532Z</time>
      </trkpt>
      <trkpt lat="39.99423833" lon="-0.408195">
        <ele>633.0</ele>
        <time>2017-05-27T11:39:33.498Z</time>
      </trkpt>
      <trkpt lat="39.99420667" lon="-0.40823167">
        <ele>633.0</ele>
        <time>2017-05-27T11:39:34.495Z</time>
      </trkpt>
      <trkpt lat="39.99419167" lon="-0.40825">
        <ele>634.0</ele>
        <time>2017-05-27T11:39:35.517Z</time>
      </trkpt>
      <trkpt lat="39.99419167" lon="-0.40825">
        <ele>634.0</ele>
        <time>2017-05-27T11:39:36.532Z</time>
      </trkpt>
      <trkpt lat="39.99416333" lon="-0.40829333">
        <ele>634.0</ele>
        <time>2017-05-27T11:39:37.516Z</time>
      </trkpt>
      <trkpt lat="39.99414667" lon="-0.40831167">
        <ele>634.0</ele>
        <time>2017-05-27T11:39:38.495Z</time>
      </trkpt>
      <trkpt lat="39.99414667" lon="-0.40831167">
        <ele>634.0</ele>
        <time>2017-05-27T11:39:39.520Z</time>
      </trkpt>
      <trkpt lat="39.99411333" lon="-0.40834333">
        <ele>634.0</ele>
        <time>2017-05-27T11:39:40.515Z</time>
      </trkpt>
      <trkpt lat="39.99409833" lon="-0.40836167">
        <ele>634.0</ele>
        <time>2017-05-27T11:39:41.514Z</time>
      </trkpt>
      <trkpt lat="39.99409833" lon="-0.40836167">
        <ele>634.0</ele>
        <time>2017-05-27T11:39:42.531Z</time>
      </trkpt>
      <trkpt lat="39.99407833" lon="-0.408405">
        <ele>634.0</ele>
        <time>2017-05-27T11:39:43.496Z</time>
      </trkpt>
      <trkpt lat="39.99407" lon="-0.40842833">
        <ele>635.0</ele>
        <time>2017-05-27T11:39:44.496Z</time>
      </trkpt>
      <trkpt lat="39.99407" lon="-0.40842833">
        <ele>635.0</ele>
        <time>2017-05-27T11:39:45.505Z</time>
      </trkpt>
      <trkpt lat="39.994065" lon="-0.40848167">
        <ele>635.0</ele>
        <time>2017-05-27T11:39:46.497Z</time>
      </trkpt>
      <trkpt lat="39.99406667" lon="-0.40851">
        <ele>635.0</ele>
        <time>2017-05-27T11:39:47.496Z</time>
      </trkpt>
      <trkpt lat="39.99406667" lon="-0.40851">
        <ele>635.0</ele>
        <time>2017-05-27T11:39:48.502Z</time>
      </trkpt>
      <trkpt lat="39.99407667" lon="-0.40856833">
        <ele>636.0</ele>
        <time>2017-05-27T11:39:49.510Z</time>
      </trkpt>
      <trkpt lat="39.99407667" lon="-0.40856833">
        <ele>636.0</ele>
        <time>2017-05-27T11:39:50.516Z</time>
      </trkpt>
      <trkpt lat="39.99409167" lon="-0.40862">
        <ele>636.0</ele>
        <time>2017-05-27T11:39:51.523Z</time>
      </trkpt>
      <trkpt lat="39.99409167" lon="-0.40862">
        <ele>636.0</ele>
        <time>2017-05-27T11:39:52.498Z</time>
      </trkpt>
      <trkpt lat="39.99411" lon="-0.40867">
        <ele>636.0</ele>
        <time>2017-05-27T11:39:53.493Z</time>
      </trkpt>
      <trkpt lat="39.99411" lon="-0.40867">
        <ele>636.0</ele>
        <time>2017-05-27T11:39:54.500Z</time>
      </trkpt>
      <trkpt lat="39.99413" lon="-0.40872167">
        <ele>637.0</ele>
        <time>2017-05-27T11:39:55.512Z</time>
      </trkpt>
      <trkpt lat="39.99413" lon="-0.40872167">
        <ele>637.0</ele>
        <time>2017-05-27T11:39:56.518Z</time>
      </trkpt>
      <trkpt lat="39.99414833" lon="-0.40877667">
        <ele>637.0</ele>
        <time>2017-05-27T11:39:57.515Z</time>
      </trkpt>
      <trkpt lat="39.99414833" lon="-0.40877667">
        <ele>637.0</ele>
        <time>2017-05-27T11:39:58.496Z</time>
      </trkpt>
      <trkpt lat="39.994165" lon="-0.40883333">
        <ele>637.0</ele>
        <time>2017-05-27T11:39:59.519Z</time>
      </trkpt>
      <trkpt lat="39.994165" lon="-0.40883333">
        <ele>637.0</ele>
        <time>2017-05-27T11:40:00.533Z</time>
      </trkpt>
      <trkpt lat="39.99417833" lon="-0.40889167">
        <ele>637.0</ele>
        <time>2017-05-27T11:40:01.512Z</time>
      </trkpt>
      <trkpt lat="39.99417833" lon="-0.40889167">
        <ele>637.0</ele>
        <time>2017-05-27T11:40:02.519Z</time>
      </trkpt>
      <trkpt lat="39.99419" lon="-0.408945">
        <ele>637.0</ele>
        <time>2017-05-27T11:40:03.532Z</time>
      </trkpt>
      <trkpt lat="39.99419333" lon="-0.40897167">
        <ele>637.0</ele>
        <time>2017-05-27T11:40:04.502Z</time>
      </trkpt>
      <trkpt lat="39.99419333" lon="-0.40897167">
        <ele>637.0</ele>
        <time>2017-05-27T11:40:05.509Z</time>
      </trkpt>
      <trkpt lat="39.99420167" lon="-0.40902333">
        <ele>638.0</ele>
        <time>2017-05-27T11:40:06.529Z</time>
      </trkpt>
      <trkpt lat="39.99420167" lon="-0.40902333">
        <ele>638.0</ele>
        <time>2017-05-27T11:40:07.500Z</time>
      </trkpt>
      <trkpt lat="39.99420333" lon="-0.40907667">
        <ele>638.0</ele>
        <time>2017-05-27T11:40:08.510Z</time>
      </trkpt>
      <trkpt lat="39.99420333" lon="-0.40910333">
        <ele>638.0</ele>
        <time>2017-05-27T11:40:09.511Z</time>
      </trkpt>
      <trkpt lat="39.99420333" lon="-0.40910333">
        <ele>638.0</ele>
        <time>2017-05-27T11:40:10.518Z</time>
      </trkpt>
      <trkpt lat="39.99420667" lon="-0.40915833">
        <ele>638.0</ele>
        <time>2017-05-27T11:40:11.529Z</time>
      </trkpt>
      <trkpt lat="39.99420667" lon="-0.409185">
        <ele>638.0</ele>
        <time>2017-05-27T11:40:12.504Z</time>
      </trkpt>
      <trkpt lat="39.99420667" lon="-0.409185">
        <ele>638.0</ele>
        <time>2017-05-27T11:40:13.510Z</time>
      </trkpt>
      <trkpt lat="39.99420833" lon="-0.40924">
        <ele>639.0</ele>
        <time>2017-05-27T11:40:14.521Z</time>
      </trkpt>
      <trkpt lat="39.99420833" lon="-0.40924">
        <ele>639.0</ele>
        <time>2017-05-27T11:40:15.499Z</time>
      </trkpt>
      <trkpt lat="39.99421333" lon="-0.40929667">
        <ele>639.0</ele>
        <time>2017-05-27T11:40:16.495Z</time>
      </trkpt>
      <trkpt lat="39.994215" lon="-0.409325">
        <ele>639.0</ele>
        <time>2017-05-27T11:40:17.495Z</time>
      </trkpt>
      <trkpt lat="39.994215" lon="-0.409325">
        <ele>639.0</ele>
        <time>2017-05-27T11:40:18.502Z</time>
      </trkpt>
      <trkpt lat="39.99421833" lon="-0.40938">
        <ele>640.0</ele>
        <time>2017-05-27T11:40:19.505Z</time>
      </trkpt>
      <trkpt lat="39.99422" lon="-0.40940667">
        <ele>640.0</ele>
        <time>2017-05-27T11:40:20.493Z</time>
      </trkpt>
      <trkpt lat="39.99422" lon="-0.40940667">
        <ele>640.0</ele>
        <time>2017-05-27T11:40:21.499Z</time>
      </trkpt>
      <trkpt lat="39.99422" lon="-0.40945833">
        <ele>640.0</ele>
        <time>2017-05-27T11:40:22.525Z</time>
      </trkpt>
      <trkpt lat="39.99422333" lon="-0.40948333">
        <ele>640.0</ele>
        <time>2017-05-27T11:40:23.505Z</time>
      </trkpt>
      <trkpt lat="39.99422333" lon="-0.40948333">
        <ele>640.0</ele>
        <time>2017-05-27T11:40:24.511Z</time>
      </trkpt>
      <trkpt lat="39.994225" lon="-0.409535">
        <ele>641.0</ele>
        <time>2017-05-27T11:40:25.516Z</time>
      </trkpt>
      <trkpt lat="39.994225" lon="-0.409535">
        <ele>641.0</ele>
        <time>2017-05-27T11:40:26.523Z</time>
      </trkpt>
      <trkpt lat="39.99422167" lon="-0.409585">
        <ele>641.0</ele>
        <time>2017-05-27T11:40:27.527Z</time>
      </trkpt>
      <trkpt lat="39.99421667" lon="-0.40960833">
        <ele>641.0</ele>
        <time>2017-05-27T11:40:28.516Z</time>
      </trkpt>
      <trkpt lat="39.99421667" lon="-0.40960833">
        <ele>641.0</ele>
        <time>2017-05-27T11:40:29.533Z</time>
      </trkpt>
      <trkpt lat="39.99421333" lon="-0.40965833">
        <ele>642.0</ele>
        <time>2017-05-27T11:40:30.499Z</time>
      </trkpt>
      <trkpt lat="39.99421333" lon="-0.40965833">
        <ele>642.0</ele>
        <time>2017-05-27T11:40:31.506Z</time>
      </trkpt>
      <trkpt lat="39.994215" lon="-0.40971">
        <ele>642.0</ele>
        <time>2017-05-27T11:40:32.514Z</time>
      </trkpt>
      <trkpt lat="39.994215" lon="-0.40971">
        <ele>642.0</ele>
        <time>2017-05-27T11:40:33.521Z</time>
      </trkpt>
      <trkpt lat="39.99421667" lon="-0.40976">
        <ele>643.0</ele>
        <time>2017-05-27T11:40:34.505Z</time>
      </trkpt>
      <trkpt lat="39.99421667" lon="-0.40976">
        <ele>643.0</ele>
        <time>2017-05-27T11:40:35.513Z</time>
      </trkpt>
      <trkpt lat="39.99421833" lon="-0.40981">
        <ele>643.0</ele>
        <time>2017-05-27T11:40:36.505Z</time>
      </trkpt>
      <trkpt lat="39.99421833" lon="-0.40981">
        <ele>643.0</ele>
        <time>2017-05-27T11:40:37.511Z</time>
      </trkpt>
      <trkpt lat="39.99422167" lon="-0.40986">
        <ele>643.0</ele>
        <time>2017-05-27T11:40:38.516Z</time>
      </trkpt>
      <trkpt lat="39.994225" lon="-0.409885">
        <ele>644.0</ele>
        <time>2017-05-27T11:40:39.526Z</time>
      </trkpt>
      <trkpt lat="39.994225" lon="-0.409885">
        <ele>644.0</ele>
        <time>2017-05-27T11:40:40.500Z</time>
      </trkpt>
      <trkpt lat="39.994225" lon="-0.40993667">
        <ele>644.0</ele>
        <time>2017-05-27T11:40:41.495Z</time>
      </trkpt>
      <trkpt lat="39.994225" lon="-0.40993667">
        <ele>644.0</ele>
        <time>2017-05-27T11:40:42.503Z</time>
      </trkpt>
      <trkpt lat="39.99422333" lon="-0.40998667">
        <ele>645.0</ele>
        <time>2017-05-27T11:40:43.506Z</time>
      </trkpt>
      <trkpt lat="39.99422333" lon="-0.40998667">
        <ele>645.0</ele>
        <time>2017-05-27T11:40:44.513Z</time>
      </trkpt>
      <trkpt lat="39.99422333" lon="-0.41003833">
        <ele>646.0</ele>
        <time>2017-05-27T11:40:45.502Z</time>
      </trkpt>
      <trkpt lat="39.99422333" lon="-0.41006333">
        <ele>646.0</ele>
        <time>2017-05-27T11:40:46.509Z</time>
      </trkpt>
      <trkpt lat="39.99422333" lon="-0.41006333">
        <ele>646.0</ele>
        <time>2017-05-27T11:40:47.515Z</time>
      </trkpt>
      <trkpt lat="39.994215" lon="-0.41010833">
        <ele>647.0</ele>
        <time>2017-05-27T11:40:48.503Z</time>
      </trkpt>
      <trkpt lat="39.994215" lon="-0.41010833">
        <ele>647.0</ele>
        <time>2017-05-27T11:40:49.509Z</time>
      </trkpt>
      <trkpt lat="39.99420167" lon="-0.41015667">
        <ele>648.0</ele>
        <time>2017-05-27T11:40:50.506Z</time>
      </trkpt>
      <trkpt lat="39.99420167" lon="-0.41015667">
        <ele>648.0</ele>
        <time>2017-05-27T11:40:51.512Z</time>
      </trkpt>
      <trkpt lat="39.99420167" lon="-0.410205">
        <ele>649.0</ele>
        <time>2017-05-27T11:40:52.503Z</time>
      </trkpt>
      <trkpt lat="39.99420167" lon="-0.41022833">
        <ele>649.0</ele>
        <time>2017-05-27T11:40:53.501Z</time>
      </trkpt>
      <trkpt lat="39.99420167" lon="-0.41022833">
        <ele>649.0</ele>
        <time>2017-05-27T11:40:54.507Z</time>
      </trkpt>
      <trkpt lat="39.9942" lon="-0.410275">
        <ele>649.0</ele>
        <time>2017-05-27T11:40:55.505Z</time>
      </trkpt>
      <trkpt lat="39.99419833" lon="-0.41029833">
        <ele>649.0</ele>
        <time>2017-05-27T11:40:56.506Z</time>
      </trkpt>
      <trkpt lat="39.99419833" lon="-0.41032167">
        <ele>650.0</ele>
        <time>2017-05-27T11:40:57.504Z</time>
      </trkpt>
      <trkpt lat="39.99419833" lon="-0.41032167">
        <ele>650.0</ele>
        <time>2017-05-27T11:40:58.510Z</time>
      </trkpt>
      <trkpt lat="39.99419667" lon="-0.41037">
        <ele>650.0</ele>
        <time>2017-05-27T11:40:59.513Z</time>
      </trkpt>
      <trkpt lat="39.99419667" lon="-0.41037">
        <ele>650.0</ele>
        <time>2017-05-27T11:41:00.519Z</time>
      </trkpt>
      <trkpt lat="39.994195" lon="-0.41041833">
        <ele>650.0</ele>
        <time>2017-05-27T11:41:01.518Z</time>
      </trkpt>
      <trkpt lat="39.994195" lon="-0.41041833">
        <ele>650.0</ele>
        <time>2017-05-27T11:41:02.531Z</time>
      </trkpt>
      <trkpt lat="39.99419667" lon="-0.41046833">
        <ele>651.0</ele>
        <time>2017-05-27T11:41:03.529Z</time>
      </trkpt>
      <trkpt lat="39.99419667" lon="-0.41046833">
        <ele>651.0</ele>
        <time>2017-05-27T11:41:04.497Z</time>
      </trkpt>
      <trkpt lat="39.99419833" lon="-0.41051833">
        <ele>651.0</ele>
        <time>2017-05-27T11:41:05.499Z</time>
      </trkpt>
      <trkpt lat="39.99420167" lon="-0.41054167">
        <ele>651.0</ele>
        <time>2017-05-27T11:41:06.498Z</time>
      </trkpt>
      <trkpt lat="39.99420333" lon="-0.41056667">
        <ele>651.0</ele>
        <time>2017-05-27T11:41:07.496Z</time>
      </trkpt>
      <trkpt lat="39.99420333" lon="-0.41056667">
        <ele>651.0</ele>
        <time>2017-05-27T11:41:08.505Z</time>
      </trkpt>
      <trkpt lat="39.99420167" lon="-0.41061667">
        <ele>652.0</ele>
        <time>2017-05-27T11:41:09.499Z</time>
      </trkpt>
      <trkpt lat="39.99420167" lon="-0.41061667">
        <ele>652.0</ele>
        <time>2017-05-27T11:41:10.505Z</time>
      </trkpt>
      <trkpt lat="39.99420333" lon="-0.41066667">
        <ele>652.0</ele>
        <time>2017-05-27T11:41:11.496Z</time>
      </trkpt>
      <trkpt lat="39.99420333" lon="-0.41066667">
        <ele>652.0</ele>
        <time>2017-05-27T11:41:12.503Z</time>
      </trkpt>
      <trkpt lat="39.99421" lon="-0.41071833">
        <ele>652.0</ele>
        <time>2017-05-27T11:41:13.510Z</time>
      </trkpt>
      <trkpt lat="39.99421333" lon="-0.41074667">
        <ele>652.0</ele>
        <time>2017-05-27T11:41:14.508Z</time>
      </trkpt>
      <trkpt lat="39.99421333" lon="-0.41074667">
        <ele>652.0</ele>
        <time>2017-05-27T11:41:15.514Z</time>
      </trkpt>
      <trkpt lat="39.99422" lon="-0.41080167">
        <ele>653.0</ele>
        <time>2017-05-27T11:41:16.503Z</time>
      </trkpt>
      <trkpt lat="39.99422" lon="-0.41080167">
        <ele>653.0</ele>
        <time>2017-05-27T11:41:17.509Z</time>
      </trkpt>
      <trkpt lat="39.994225" lon="-0.410855">
        <ele>653.0</ele>
        <time>2017-05-27T11:41:18.504Z</time>
      </trkpt>
      <trkpt lat="39.994225" lon="-0.410855">
        <ele>653.0</ele>
        <time>2017-05-27T11:41:19.510Z</time>
      </trkpt>
      <trkpt lat="39.99422833" lon="-0.41091">
        <ele>653.0</ele>
        <time>2017-05-27T11:41:20.509Z</time>
      </trkpt>
      <trkpt lat="39.99422833" lon="-0.41091">
        <ele>653.0</ele>
        <time>2017-05-27T11:41:21.516Z</time>
      </trkpt>
      <trkpt lat="39.99423167" lon="-0.410965">
        <ele>654.0</ele>
        <time>2017-05-27T11:41:22.533Z</time>
      </trkpt>
      <trkpt lat="39.99423167" lon="-0.41099167">
        <ele>654.0</ele>
        <time>2017-05-27T11:41:23.506Z</time>
      </trkpt>
      <trkpt lat="39.99423333" lon="-0.41101667">
        <ele>654.0</ele>
        <time>2017-05-27T11:41:24.503Z</time>
      </trkpt>
      <trkpt lat="39.99423333" lon="-0.41101667">
        <ele>654.0</ele>
        <time>2017-05-27T11:41:25.510Z</time>
      </trkpt>
      <trkpt lat="39.99423833" lon="-0.41106667">
        <ele>654.0</ele>
        <time>2017-05-27T11:41:26.525Z</time>
      </trkpt>
      <trkpt lat="39.99423833" lon="-0.41106667">
        <ele>654.0</ele>
        <time>2017-05-27T11:41:27.491Z</time>
      </trkpt>
      <trkpt lat="39.99423833" lon="-0.411115">
        <ele>655.0</ele>
        <time>2017-05-27T11:41:28.496Z</time>
      </trkpt>
      <trkpt lat="39.99423833" lon="-0.411115">
        <ele>655.0</ele>
        <time>2017-05-27T11:41:29.503Z</time>
      </trkpt>
      <trkpt lat="39.99424" lon="-0.41116333">
        <ele>655.0</ele>
        <time>2017-05-27T11:41:30.498Z</time>
      </trkpt>
      <trkpt lat="39.99423833" lon="-0.41118667">
        <ele>655.0</ele>
        <time>2017-05-27T11:41:31.506Z</time>
      </trkpt>
      <trkpt lat="39.994235" lon="-0.41120833">
        <ele>655.0</ele>
        <time>2017-05-27T11:41:32.511Z</time>
      </trkpt>
      <trkpt lat="39.994235" lon="-0.41120833">
        <ele>655.0</ele>
        <time>2017-05-27T11:41:33.517Z</time>
      </trkpt>
      <trkpt lat="39.99422833" lon="-0.41126">
        <ele>656.0</ele>
        <time>2017-05-27T11:41:34.492Z</time>
      </trkpt>
      <trkpt lat="39.99422833" lon="-0.41126">
        <ele>656.0</ele>
        <time>2017-05-27T11:41:35.498Z</time>
      </trkpt>
      <trkpt lat="39.99422667" lon="-0.411305">
        <ele>656.0</ele>
        <time>2017-05-27T11:41:36.501Z</time>
      </trkpt>
      <trkpt lat="39.99422667" lon="-0.411305">
        <ele>656.0</ele>
        <time>2017-05-27T11:41:37.508Z</time>
      </trkpt>
      <trkpt lat="39.994225" lon="-0.41135333">
        <ele>656.0</ele>
        <time>2017-05-27T11:41:38.498Z</time>
      </trkpt>
      <trkpt lat="39.99422167" lon="-0.41137667">
        <ele>656.0</ele>
        <time>2017-05-27T11:41:39.498Z</time>
      </trkpt>
      <trkpt lat="39.99422167" lon="-0.41137667">
        <ele>656.0</ele>
        <time>2017-05-27T11:41:40.504Z</time>
      </trkpt>
      <trkpt lat="39.99422167" lon="-0.41142667">
        <ele>656.0</ele>
        <time>2017-05-27T11:41:41.496Z</time>
      </trkpt>
      <trkpt lat="39.99422167" lon="-0.41142667">
        <ele>656.0</ele>
        <time>2017-05-27T11:41:42.502Z</time>
      </trkpt>
      <trkpt lat="39.99422167" lon="-0.411475">
        <ele>656.0</ele>
        <time>2017-05-27T11:41:43.506Z</time>
      </trkpt>
      <trkpt lat="39.99422167" lon="-0.411475">
        <ele>656.0</ele>
        <time>2017-05-27T11:41:44.512Z</time>
      </trkpt>
      <trkpt lat="39.99423" lon="-0.41152333">
        <ele>657.0</ele>
        <time>2017-05-27T11:41:45.506Z</time>
      </trkpt>
      <trkpt lat="39.99423" lon="-0.41152333">
        <ele>657.0</ele>
        <time>2017-05-27T11:41:46.512Z</time>
      </trkpt>
      <trkpt lat="39.99424333" lon="-0.41157333">
        <ele>657.0</ele>
        <time>2017-05-27T11:41:47.527Z</time>
      </trkpt>
      <trkpt lat="39.99424333" lon="-0.41157333">
        <ele>657.0</ele>
        <time>2017-05-27T11:41:48.498Z</time>
      </trkpt>
      <trkpt lat="39.994255" lon="-0.411625">
        <ele>657.0</ele>
        <time>2017-05-27T11:41:49.496Z</time>
      </trkpt>
      <trkpt lat="39.994255" lon="-0.411625">
        <ele>657.0</ele>
        <time>2017-05-27T11:41:50.506Z</time>
      </trkpt>
      <trkpt lat="39.99426667" lon="-0.41167667">
        <ele>658.0</ele>
        <time>2017-05-27T11:41:51.530Z</time>
      </trkpt>
      <trkpt lat="39.99427167" lon="-0.41170167">
        <ele>658.0</ele>
        <time>2017-05-27T11:41:52.496Z</time>
      </trkpt>
      <trkpt lat="39.994275" lon="-0.41172833">
        <ele>658.0</ele>
        <time>2017-05-27T11:41:53.516Z</time>
      </trkpt>
      <trkpt lat="39.994275" lon="-0.41172833">
        <ele>658.0</ele>
        <time>2017-05-27T11:41:54.531Z</time>
      </trkpt>
      <trkpt lat="39.99428167" lon="-0.41177833">
        <ele>658.0</ele>
        <time>2017-05-27T11:41:55.493Z</time>
      </trkpt>
      <trkpt lat="39.99428167" lon="-0.41177833">
        <ele>658.0</ele>
        <time>2017-05-27T11:41:56.502Z</time>
      </trkpt>
      <trkpt lat="39.99428333" lon="-0.41183">
        <ele>659.0</ele>
        <time>2017-05-27T11:41:57.506Z</time>
      </trkpt>
      <trkpt lat="39.99428333" lon="-0.41183">
        <ele>659.0</ele>
        <time>2017-05-27T11:41:58.512Z</time>
      </trkpt>
      <trkpt lat="39.99428333" lon="-0.41188167">
        <ele>659.0</ele>
        <time>2017-05-27T11:41:59.518Z</time>
      </trkpt>
      <trkpt lat="39.99428333" lon="-0.41188167">
        <ele>659.0</ele>
        <time>2017-05-27T11:42:00.496Z</time>
      </trkpt>
      <trkpt lat="39.99427667" lon="-0.41193167">
        <ele>660.0</ele>
        <time>2017-05-27T11:42:01.522Z</time>
      </trkpt>
      <trkpt lat="39.99427167" lon="-0.41195667">
        <ele>660.0</ele>
        <time>2017-05-27T11:42:02.515Z</time>
      </trkpt>
      <trkpt lat="39.99427167" lon="-0.41195667">
        <ele>660.0</ele>
        <time>2017-05-27T11:42:03.522Z</time>
      </trkpt>
      <trkpt lat="39.994255" lon="-0.41200833">
        <ele>660.0</ele>
        <time>2017-05-27T11:42:04.492Z</time>
      </trkpt>
      <trkpt lat="39.994255" lon="-0.41200833">
        <ele>660.0</ele>
        <time>2017-05-27T11:42:05.499Z</time>
      </trkpt>
      <trkpt lat="39.99423667" lon="-0.412055">
        <ele>661.0</ele>
        <time>2017-05-27T11:42:06.493Z</time>
      </trkpt>
      <trkpt lat="39.99423667" lon="-0.412055">
        <ele>661.0</ele>
        <time>2017-05-27T11:42:07.499Z</time>
      </trkpt>
      <trkpt lat="39.99422" lon="-0.41209833">
        <ele>661.0</ele>
        <time>2017-05-27T11:42:08.521Z</time>
      </trkpt>
      <trkpt lat="39.99422" lon="-0.41209833">
        <ele>661.0</ele>
        <time>2017-05-27T11:42:09.510Z</time>
      </trkpt>
      <trkpt lat="39.99420833" lon="-0.41214333">
        <ele>661.0</ele>
        <time>2017-05-27T11:42:10.501Z</time>
      </trkpt>
      <trkpt lat="39.99420833" lon="-0.41214333">
        <ele>661.0</ele>
        <time>2017-05-27T11:42:11.507Z</time>
      </trkpt>
      <trkpt lat="39.99419167" lon="-0.41218667">
        <ele>662.0</ele>
        <time>2017-05-27T11:42:12.525Z</time>
      </trkpt>
      <trkpt lat="39.99418" lon="-0.41220833">
        <ele>662.0</ele>
        <time>2017-05-27T11:42:13.495Z</time>
      </trkpt>
      <trkpt lat="39.99418" lon="-0.41220833">
        <ele>662.0</ele>
        <time>2017-05-27T11:42:14.505Z</time>
      </trkpt>
      <trkpt lat="39.99415" lon="-0.412245">
        <ele>662.0</ele>
        <time>2017-05-27T11:42:15.493Z</time>
      </trkpt>
      <trkpt lat="39.99415" lon="-0.412245">
        <ele>662.0</ele>
        <time>2017-05-27T11:42:16.499Z</time>
      </trkpt>
      <trkpt lat="39.99412167" lon="-0.41228333">
        <ele>662.0</ele>
        <time>2017-05-27T11:42:17.516Z</time>
      </trkpt>
      <trkpt lat="39.99410667" lon="-0.41230333">
        <ele>662.0</ele>
        <time>2017-05-27T11:42:18.492Z</time>
      </trkpt>
      <trkpt lat="39.994095" lon="-0.412325">
        <ele>663.0</ele>
        <time>2017-05-27T11:42:19.502Z</time>
      </trkpt>
      <trkpt lat="39.994095" lon="-0.412325">
        <ele>663.0</ele>
        <time>2017-05-27T11:42:20.508Z</time>
      </trkpt>
      <trkpt lat="39.99406667" lon="-0.412365">
        <ele>663.0</ele>
        <time>2017-05-27T11:42:21.493Z</time>
      </trkpt>
      <trkpt lat="39.99406667" lon="-0.412365">
        <ele>663.0</ele>
        <time>2017-05-27T11:42:22.510Z</time>
      </trkpt>
      <trkpt lat="39.99404" lon="-0.412405">
        <ele>663.0</ele>
        <time>2017-05-27T11:42:23.512Z</time>
      </trkpt>
      <trkpt lat="39.99404" lon="-0.412405">
        <ele>663.0</ele>
        <time>2017-05-27T11:42:24.518Z</time>
      </trkpt>
      <trkpt lat="39.99401167" lon="-0.41243833">
        <ele>663.0</ele>
        <time>2017-05-27T11:42:25.520Z</time>
      </trkpt>
      <trkpt lat="39.99401167" lon="-0.41243833">
        <ele>663.0</ele>
        <time>2017-05-27T11:42:26.495Z</time>
      </trkpt>
      <trkpt lat="39.99398" lon="-0.41247167">
        <ele>663.0</ele>
        <time>2017-05-27T11:42:27.516Z</time>
      </trkpt>
      <trkpt lat="39.99398" lon="-0.41247167">
        <ele>663.0</ele>
        <time>2017-05-27T11:42:28.535Z</time>
      </trkpt>
      <trkpt lat="39.99394667" lon="-0.412515">
        <ele>664.0</ele>
        <time>2017-05-27T11:42:29.503Z</time>
      </trkpt>
      <trkpt lat="39.99394667" lon="-0.412515">
        <ele>664.0</ele>
        <time>2017-05-27T11:42:30.510Z</time>
      </trkpt>
      <trkpt lat="39.99391167" lon="-0.41254833">
        <ele>664.0</ele>
        <time>2017-05-27T11:42:31.506Z</time>
      </trkpt>
      <trkpt lat="39.993895" lon="-0.412565">
        <ele>664.0</ele>
        <time>2017-05-27T11:42:32.505Z</time>
      </trkpt>
      <trkpt lat="39.993895" lon="-0.412565">
        <ele>664.0</ele>
        <time>2017-05-27T11:42:33.511Z</time>
      </trkpt>
      <trkpt lat="39.993865" lon="-0.41260333">
        <ele>665.0</ele>
        <time>2017-05-27T11:42:34.521Z</time>
      </trkpt>
      <trkpt lat="39.99384833" lon="-0.41262167">
        <ele>665.0</ele>
        <time>2017-05-27T11:42:35.519Z</time>
      </trkpt>
      <trkpt lat="39.99384833" lon="-0.41262167">
        <ele>665.0</ele>
        <time>2017-05-27T11:42:36.531Z</time>
      </trkpt>
      <trkpt lat="39.99382167" lon="-0.412655">
        <ele>666.0</ele>
        <time>2017-05-27T11:42:37.531Z</time>
      </trkpt>
      <trkpt lat="39.99382167" lon="-0.412655">
        <ele>666.0</ele>
        <time>2017-05-27T11:42:38.497Z</time>
      </trkpt>
      <trkpt lat="39.99379167" lon="-0.412685">
        <ele>666.0</ele>
        <time>2017-05-27T11:42:39.532Z</time>
      </trkpt>
      <trkpt lat="39.99379167" lon="-0.412685">
        <ele>666.0</ele>
        <time>2017-05-27T11:42:40.536Z</time>
      </trkpt>
      <trkpt lat="39.99375833" lon="-0.412715">
        <ele>667.0</ele>
        <time>2017-05-27T11:42:41.507Z</time>
      </trkpt>
      <trkpt lat="39.99375833" lon="-0.412715">
        <ele>667.0</ele>
        <time>2017-05-27T11:42:42.513Z</time>
      </trkpt>
      <trkpt lat="39.993725" lon="-0.41274833">
        <ele>668.0</ele>
        <time>2017-05-27T11:42:43.522Z</time>
      </trkpt>
      <trkpt lat="39.99371333" lon="-0.412765">
        <ele>668.0</ele>
        <time>2017-05-27T11:42:44.503Z</time>
      </trkpt>
      <trkpt lat="39.99371333" lon="-0.412765">
        <ele>668.0</ele>
        <time>2017-05-27T11:42:45.506Z</time>
      </trkpt>
      <trkpt lat="39.99368833" lon="-0.41280333">
        <ele>669.0</ele>
        <time>2017-05-27T11:42:46.496Z</time>
      </trkpt>
      <trkpt lat="39.993675" lon="-0.41282167">
        <ele>669.0</ele>
        <time>2017-05-27T11:42:47.494Z</time>
      </trkpt>
      <trkpt lat="39.993675" lon="-0.41282167">
        <ele>669.0</ele>
        <time>2017-05-27T11:42:48.501Z</time>
      </trkpt>
      <trkpt lat="39.99364667" lon="-0.41286">
        <ele>670.0</ele>
        <time>2017-05-27T11:42:49.506Z</time>
      </trkpt>
      <trkpt lat="39.99362833" lon="-0.41287667">
        <ele>670.0</ele>
        <time>2017-05-27T11:42:50.505Z</time>
      </trkpt>
      <trkpt lat="39.99362833" lon="-0.41287667">
        <ele>670.0</ele>
        <time>2017-05-27T11:42:51.508Z</time>
      </trkpt>
      <trkpt lat="39.99359667" lon="-0.41291">
        <ele>671.0</ele>
        <time>2017-05-27T11:42:52.506Z</time>
      </trkpt>
      <trkpt lat="39.99358" lon="-0.41292833">
        <ele>671.0</ele>
        <time>2017-05-27T11:42:53.511Z</time>
      </trkpt>
      <trkpt lat="39.99358" lon="-0.41292833">
        <ele>671.0</ele>
        <time>2017-05-27T11:42:54.516Z</time>
      </trkpt>
      <trkpt lat="39.993555" lon="-0.412965">
        <ele>672.0</ele>
        <time>2017-05-27T11:42:55.512Z</time>
      </trkpt>
      <trkpt lat="39.993555" lon="-0.412965">
        <ele>672.0</ele>
        <time>2017-05-27T11:42:56.517Z</time>
      </trkpt>
      <trkpt lat="39.99353167" lon="-0.41300333">
        <ele>673.0</ele>
        <time>2017-05-27T11:42:57.505Z</time>
      </trkpt>
      <trkpt lat="39.99352" lon="-0.41302333">
        <ele>673.0</ele>
        <time>2017-05-27T11:42:58.511Z</time>
      </trkpt>
      <trkpt lat="39.99350833" lon="-0.413045">
        <ele>673.0</ele>
        <time>2017-05-27T11:42:59.509Z</time>
      </trkpt>
      <trkpt lat="39.99350833" lon="-0.413045">
        <ele>673.0</ele>
        <time>2017-05-27T11:43:00.516Z</time>
      </trkpt>
      <trkpt lat="39.99349833" lon="-0.41308833">
        <ele>673.0</ele>
        <time>2017-05-27T11:43:01.516Z</time>
      </trkpt>
      <trkpt lat="39.99349833" lon="-0.41308833">
        <ele>673.0</ele>
        <time>2017-05-27T11:43:02.495Z</time>
      </trkpt>
      <trkpt lat="39.99348167" lon="-0.41313">
        <ele>674.0</ele>
        <time>2017-05-27T11:43:03.506Z</time>
      </trkpt>
      <trkpt lat="39.993475" lon="-0.41315333">
        <ele>674.0</ele>
        <time>2017-05-27T11:43:04.512Z</time>
      </trkpt>
      <trkpt lat="39.993465" lon="-0.41317167">
        <ele>675.0</ele>
        <time>2017-05-27T11:43:05.510Z</time>
      </trkpt>
      <trkpt lat="39.99345333" lon="-0.41318833">
        <ele>675.0</ele>
        <time>2017-05-27T11:43:06.531Z</time>
      </trkpt>
      <trkpt lat="39.99345333" lon="-0.41318833">
        <ele>675.0</ele>
        <time>2017-05-27T11:43:07.496Z</time>
      </trkpt>
      <trkpt lat="39.99343167" lon="-0.41323">
        <ele>675.0</ele>
        <time>2017-05-27T11:43:08.505Z</time>
      </trkpt>
      <trkpt lat="39.99343167" lon="-0.41323">
        <ele>675.0</ele>
        <time>2017-05-27T11:43:09.511Z</time>
      </trkpt>
      <trkpt lat="39.99340667" lon="-0.41326833">
        <ele>676.0</ele>
        <time>2017-05-27T11:43:10.506Z</time>
      </trkpt>
      <trkpt lat="39.99339333" lon="-0.41328333">
        <ele>676.0</ele>
        <time>2017-05-27T11:43:11.506Z</time>
      </trkpt>
      <trkpt lat="39.99339333" lon="-0.41328333">
        <ele>676.0</ele>
        <time>2017-05-27T11:43:12.512Z</time>
      </trkpt>
      <trkpt lat="39.99336833" lon="-0.41331833">
        <ele>677.0</ele>
        <time>2017-05-27T11:43:13.518Z</time>
      </trkpt>
      <trkpt lat="39.993355" lon="-0.413335">
        <ele>677.0</ele>
        <time>2017-05-27T11:43:14.504Z</time>
      </trkpt>
      <trkpt lat="39.993355" lon="-0.413335">
        <ele>677.0</ele>
        <time>2017-05-27T11:43:15.505Z</time>
      </trkpt>
      <trkpt lat="39.99333" lon="-0.41336833">
        <ele>677.0</ele>
        <time>2017-05-27T11:43:16.496Z</time>
      </trkpt>
      <trkpt lat="39.99331833" lon="-0.41338667">
        <ele>678.0</ele>
        <time>2017-05-27T11:43:17.492Z</time>
      </trkpt>
      <trkpt lat="39.99331833" lon="-0.41338667">
        <ele>678.0</ele>
        <time>2017-05-27T11:43:18.498Z</time>
      </trkpt>
      <trkpt lat="39.99328833" lon="-0.41341833">
        <ele>678.0</ele>
        <time>2017-05-27T11:43:19.506Z</time>
      </trkpt>
      <trkpt lat="39.99327333" lon="-0.41343667">
        <ele>678.0</ele>
        <time>2017-05-27T11:43:20.506Z</time>
      </trkpt>
      <trkpt lat="39.99327333" lon="-0.41343667">
        <ele>678.0</ele>
        <time>2017-05-27T11:43:21.512Z</time>
      </trkpt>
      <trkpt lat="39.99324333" lon="-0.41346833">
        <ele>679.0</ele>
        <time>2017-05-27T11:43:22.509Z</time>
      </trkpt>
      <trkpt lat="39.99323" lon="-0.41348667">
        <ele>680.0</ele>
        <time>2017-05-27T11:43:23.494Z</time>
      </trkpt>
      <trkpt lat="39.99321667" lon="-0.413505">
        <ele>680.0</ele>
        <time>2017-05-27T11:43:24.516Z</time>
      </trkpt>
      <trkpt lat="39.99321667" lon="-0.413505">
        <ele>680.0</ele>
        <time>2017-05-27T11:43:25.532Z</time>
      </trkpt>
      <trkpt lat="39.99319167" lon="-0.41354167">
        <ele>681.0</ele>
        <time>2017-05-27T11:43:26.492Z</time>
      </trkpt>
      <trkpt lat="39.99319167" lon="-0.41354167">
        <ele>681.0</ele>
        <time>2017-05-27T11:43:27.497Z</time>
      </trkpt>
      <trkpt lat="39.993165" lon="-0.41357833">
        <ele>682.0</ele>
        <time>2017-05-27T11:43:28.509Z</time>
      </trkpt>
      <trkpt lat="39.99315333" lon="-0.41359667">
        <ele>682.0</ele>
        <time>2017-05-27T11:43:29.531Z</time>
      </trkpt>
      <trkpt lat="39.99315333" lon="-0.41359667">
        <ele>682.0</ele>
        <time>2017-05-27T11:43:30.497Z</time>
      </trkpt>
      <trkpt lat="39.993125" lon="-0.41363667">
        <ele>683.0</ele>
        <time>2017-05-27T11:43:31.506Z</time>
      </trkpt>
      <trkpt lat="39.99311333" lon="-0.413655">
        <ele>683.0</ele>
        <time>2017-05-27T11:43:32.513Z</time>
      </trkpt>
      <trkpt lat="39.99311333" lon="-0.413655">
        <ele>683.0</ele>
        <time>2017-05-27T11:43:33.519Z</time>
      </trkpt>
      <trkpt lat="39.993095" lon="-0.41369667">
        <ele>684.0</ele>
        <time>2017-05-27T11:43:34.533Z</time>
      </trkpt>
      <trkpt lat="39.993085" lon="-0.41371833">
        <ele>684.0</ele>
        <time>2017-05-27T11:43:35.503Z</time>
      </trkpt>
      <trkpt lat="39.993085" lon="-0.41371833">
        <ele>684.0</ele>
        <time>2017-05-27T11:43:36.509Z</time>
      </trkpt>
      <trkpt lat="39.99307" lon="-0.41376">
        <ele>684.0</ele>
        <time>2017-05-27T11:43:37.518Z</time>
      </trkpt>
      <trkpt lat="39.99307" lon="-0.41376">
        <ele>684.0</ele>
        <time>2017-05-27T11:43:38.532Z</time>
      </trkpt>
      <trkpt lat="39.99304833" lon="-0.413795">
        <ele>685.0</ele>
        <time>2017-05-27T11:43:39.497Z</time>
      </trkpt>
      <trkpt lat="39.99303667" lon="-0.413815">
        <ele>685.0</ele>
        <time>2017-05-27T11:43:40.515Z</time>
      </trkpt>
      <trkpt lat="39.99303667" lon="-0.413815">
        <ele>685.0</ele>
        <time>2017-05-27T11:43:41.529Z</time>
      </trkpt>
      <trkpt lat="39.99301833" lon="-0.413855">
        <ele>685.0</ele>
        <time>2017-05-27T11:43:42.532Z</time>
      </trkpt>
      <trkpt lat="39.99301833" lon="-0.413855">
        <ele>685.0</ele>
        <time>2017-05-27T11:43:43.497Z</time>
      </trkpt>
      <trkpt lat="39.99299833" lon="-0.4139">
        <ele>685.0</ele>
        <time>2017-05-27T11:43:44.520Z</time>
      </trkpt>
      <trkpt lat="39.99298833" lon="-0.41392167">
        <ele>686.0</ele>
        <time>2017-05-27T11:43:45.494Z</time>
      </trkpt>
      <trkpt lat="39.99298833" lon="-0.41392167">
        <ele>686.0</ele>
        <time>2017-05-27T11:43:46.501Z</time>
      </trkpt>
      <trkpt lat="39.99296667" lon="-0.413965">
        <ele>686.0</ele>
        <time>2017-05-27T11:43:47.506Z</time>
      </trkpt>
      <trkpt lat="39.99295833" lon="-0.41398667">
        <ele>686.0</ele>
        <time>2017-05-27T11:43:48.505Z</time>
      </trkpt>
      <trkpt lat="39.99295" lon="-0.41400667">
        <ele>686.0</ele>
        <time>2017-05-27T11:43:49.504Z</time>
      </trkpt>
      <trkpt lat="39.99295" lon="-0.41400667">
        <ele>686.0</ele>
        <time>2017-05-27T11:43:50.510Z</time>
      </trkpt>
      <trkpt lat="39.99293167" lon="-0.414045">
        <ele>687.0</ele>
        <time>2017-05-27T11:43:51.509Z</time>
      </trkpt>
      <trkpt lat="39.99293167" lon="-0.414045">
        <ele>687.0</ele>
        <time>2017-05-27T11:43:52.515Z</time>
      </trkpt>
      <trkpt lat="39.992915" lon="-0.41409">
        <ele>687.0</ele>
        <time>2017-05-27T11:43:53.515Z</time>
      </trkpt>
      <trkpt lat="39.992915" lon="-0.41409">
        <ele>687.0</ele>
        <time>2017-05-27T11:43:54.495Z</time>
      </trkpt>
      <trkpt lat="39.99289167" lon="-0.41413">
        <ele>688.0</ele>
        <time>2017-05-27T11:43:55.507Z</time>
      </trkpt>
      <trkpt lat="39.99289167" lon="-0.41413">
        <ele>688.0</ele>
        <time>2017-05-27T11:43:56.513Z</time>
      </trkpt>
      <trkpt lat="39.99287" lon="-0.414175">
        <ele>688.0</ele>
        <time>2017-05-27T11:43:57.526Z</time>
      </trkpt>
      <trkpt lat="39.99287" lon="-0.414175">
        <ele>688.0</ele>
        <time>2017-05-27T11:43:58.492Z</time>
      </trkpt>
      <trkpt lat="39.99285" lon="-0.41421833">
        <ele>688.0</ele>
        <time>2017-05-27T11:43:59.499Z</time>
      </trkpt>
      <trkpt lat="39.99284167" lon="-0.41424167">
        <ele>688.0</ele>
        <time>2017-05-27T11:44:00.496Z</time>
      </trkpt>
      <trkpt lat="39.99284167" lon="-0.41424167">
        <ele>688.0</ele>
        <time>2017-05-27T11:44:01.502Z</time>
      </trkpt>
      <trkpt lat="39.99282833" lon="-0.41428833">
        <ele>689.0</ele>
        <time>2017-05-27T11:44:02.510Z</time>
      </trkpt>
      <trkpt lat="39.99282" lon="-0.41431">
        <ele>688.0</ele>
        <time>2017-05-27T11:44:03.506Z</time>
      </trkpt>
      <trkpt lat="39.99282" lon="-0.41431">
        <ele>688.0</ele>
        <time>2017-05-27T11:44:04.512Z</time>
      </trkpt>
      <trkpt lat="39.99280833" lon="-0.41435667">
        <ele>688.0</ele>
        <time>2017-05-27T11:44:05.514Z</time>
      </trkpt>
      <trkpt lat="39.99280833" lon="-0.41435667">
        <ele>688.0</ele>
        <time>2017-05-27T11:44:06.520Z</time>
      </trkpt>
      <trkpt lat="39.99280667" lon="-0.414415">
        <ele>689.0</ele>
        <time>2017-05-27T11:44:07.511Z</time>
      </trkpt>
      <trkpt lat="39.99280667" lon="-0.414415">
        <ele>689.0</ele>
        <time>2017-05-27T11:44:08.517Z</time>
      </trkpt>
      <trkpt lat="39.992805" lon="-0.41446667">
        <ele>690.0</ele>
        <time>2017-05-27T11:44:09.527Z</time>
      </trkpt>
      <trkpt lat="39.992805" lon="-0.41446667">
        <ele>690.0</ele>
        <time>2017-05-27T11:44:10.496Z</time>
      </trkpt>
      <trkpt lat="39.99280167" lon="-0.41452">
        <ele>690.0</ele>
        <time>2017-05-27T11:44:11.503Z</time>
      </trkpt>
      <trkpt lat="39.99280167" lon="-0.41452">
        <ele>690.0</ele>
        <time>2017-05-27T11:44:12.510Z</time>
      </trkpt>
      <trkpt lat="39.99279" lon="-0.41457333">
        <ele>691.0</ele>
        <time>2017-05-27T11:44:13.495Z</time>
      </trkpt>
      <trkpt lat="39.99279" lon="-0.41457333">
        <ele>691.0</ele>
        <time>2017-05-27T11:44:14.505Z</time>
      </trkpt>
      <trkpt lat="39.992775" lon="-0.41462167">
        <ele>692.0</ele>
        <time>2017-05-27T11:44:15.506Z</time>
      </trkpt>
      <trkpt lat="39.992775" lon="-0.41462167">
        <ele>692.0</ele>
        <time>2017-05-27T11:44:16.512Z</time>
      </trkpt>
      <trkpt lat="39.992765" lon="-0.41467">
        <ele>693.0</ele>
        <time>2017-05-27T11:44:17.500Z</time>
      </trkpt>
      <trkpt lat="39.992765" lon="-0.41467">
        <ele>693.0</ele>
        <time>2017-05-27T11:44:18.506Z</time>
      </trkpt>
      <trkpt lat="39.99275667" lon="-0.41472">
        <ele>693.0</ele>
        <time>2017-05-27T11:44:19.506Z</time>
      </trkpt>
      <trkpt lat="39.99275667" lon="-0.41472">
        <ele>693.0</ele>
        <time>2017-05-27T11:44:20.513Z</time>
      </trkpt>
      <trkpt lat="39.992745" lon="-0.41477">
        <ele>694.0</ele>
        <time>2017-05-27T11:44:21.509Z</time>
      </trkpt>
      <trkpt lat="39.992745" lon="-0.41477">
        <ele>694.0</ele>
        <time>2017-05-27T11:44:22.515Z</time>
      </trkpt>
      <trkpt lat="39.99273167" lon="-0.41482">
        <ele>694.0</ele>
        <time>2017-05-27T11:44:23.503Z</time>
      </trkpt>
      <trkpt lat="39.99273167" lon="-0.41482">
        <ele>694.0</ele>
        <time>2017-05-27T11:44:24.509Z</time>
      </trkpt>
      <trkpt lat="39.99271833" lon="-0.41487167">
        <ele>695.0</ele>
        <time>2017-05-27T11:44:25.496Z</time>
      </trkpt>
      <trkpt lat="39.99271833" lon="-0.41487167">
        <ele>695.0</ele>
        <time>2017-05-27T11:44:26.505Z</time>
      </trkpt>
      <trkpt lat="39.99270167" lon="-0.41492167">
        <ele>695.0</ele>
        <time>2017-05-27T11:44:27.505Z</time>
      </trkpt>
      <trkpt lat="39.99270167" lon="-0.41492167">
        <ele>695.0</ele>
        <time>2017-05-27T11:44:28.511Z</time>
      </trkpt>
      <trkpt lat="39.992685" lon="-0.41497333">
        <ele>695.0</ele>
        <time>2017-05-27T11:44:29.506Z</time>
      </trkpt>
      <trkpt lat="39.992685" lon="-0.41497333">
        <ele>695.0</ele>
        <time>2017-05-27T11:44:30.512Z</time>
      </trkpt>
      <trkpt lat="39.99267667" lon="-0.41502333">
        <ele>695.0</ele>
        <time>2017-05-27T11:44:31.527Z</time>
      </trkpt>
      <trkpt lat="39.99267667" lon="-0.41502333">
        <ele>695.0</ele>
        <time>2017-05-27T11:44:32.496Z</time>
      </trkpt>
      <trkpt lat="39.99267167" lon="-0.415075">
        <ele>695.0</ele>
        <time>2017-05-27T11:44:33.513Z</time>
      </trkpt>
      <trkpt lat="39.99267167" lon="-0.415075">
        <ele>695.0</ele>
        <time>2017-05-27T11:44:34.519Z</time>
      </trkpt>
      <trkpt lat="39.99266833" lon="-0.41513">
        <ele>696.0</ele>
        <time>2017-05-27T11:44:35.501Z</time>
      </trkpt>
      <trkpt lat="39.99266833" lon="-0.41513">
        <ele>696.0</ele>
        <time>2017-05-27T11:44:36.515Z</time>
      </trkpt>
      <trkpt lat="39.99267" lon="-0.415185">
        <ele>696.0</ele>
        <time>2017-05-27T11:44:37.518Z</time>
      </trkpt>
      <trkpt lat="39.99267" lon="-0.415185">
        <ele>696.0</ele>
        <time>2017-05-27T11:44:38.528Z</time>
      </trkpt>
      <trkpt lat="39.992675" lon="-0.415265">
        <ele>697.0</ele>
        <time>2017-05-27T11:44:39.532Z</time>
      </trkpt>
      <trkpt lat="39.992675" lon="-0.415265">
        <ele>697.0</ele>
        <time>2017-05-27T11:44:40.503Z</time>
      </trkpt>
      <trkpt lat="39.99267333" lon="-0.41529167">
        <ele>697.0</ele>
        <time>2017-05-27T11:44:41.504Z</time>
      </trkpt>
      <trkpt lat="39.99267333" lon="-0.41529167">
        <ele>697.0</ele>
        <time>2017-05-27T11:44:42.510Z</time>
      </trkpt>
      <trkpt lat="39.99267167" lon="-0.41534333">
        <ele>697.0</ele>
        <time>2017-05-27T11:44:43.531Z</time>
      </trkpt>
      <trkpt lat="39.99266667" lon="-0.41537">
        <ele>697.0</ele>
        <time>2017-05-27T11:44:44.505Z</time>
      </trkpt>
      <trkpt lat="39.99266333" lon="-0.41539667">
        <ele>698.0</ele>
        <time>2017-05-27T11:44:45.494Z</time>
      </trkpt>
      <trkpt lat="39.99266333" lon="-0.41539667">
        <ele>698.0</ele>
        <time>2017-05-27T11:44:46.500Z</time>
      </trkpt>
      <trkpt lat="39.99265333" lon="-0.41544833">
        <ele>698.0</ele>
        <time>2017-05-27T11:44:47.494Z</time>
      </trkpt>
      <trkpt lat="39.99265333" lon="-0.41544833">
        <ele>698.0</ele>
        <time>2017-05-27T11:44:48.502Z</time>
      </trkpt>
      <trkpt lat="39.99263833" lon="-0.4155">
        <ele>698.0</ele>
        <time>2017-05-27T11:44:49.496Z</time>
      </trkpt>
      <trkpt lat="39.99263833" lon="-0.4155">
        <ele>698.0</ele>
        <time>2017-05-27T11:44:50.505Z</time>
      </trkpt>
      <trkpt lat="39.99262" lon="-0.41555">
        <ele>698.0</ele>
        <time>2017-05-27T11:44:51.532Z</time>
      </trkpt>
      <trkpt lat="39.99261" lon="-0.41557333">
        <ele>698.0</ele>
        <time>2017-05-27T11:44:52.505Z</time>
      </trkpt>
      <trkpt lat="39.99261" lon="-0.41557333">
        <ele>698.0</ele>
        <time>2017-05-27T11:44:53.510Z</time>
      </trkpt>
      <trkpt lat="39.99258833" lon="-0.41562">
        <ele>698.0</ele>
        <time>2017-05-27T11:44:54.499Z</time>
      </trkpt>
      <trkpt lat="39.99258833" lon="-0.41562">
        <ele>698.0</ele>
        <time>2017-05-27T11:44:55.506Z</time>
      </trkpt>
      <trkpt lat="39.99257667" lon="-0.41567333">
        <ele>699.0</ele>
        <time>2017-05-27T11:44:56.494Z</time>
      </trkpt>
      <trkpt lat="39.99257167" lon="-0.41570167">
        <ele>699.0</ele>
        <time>2017-05-27T11:44:57.500Z</time>
      </trkpt>
      <trkpt lat="39.99257167" lon="-0.41570167">
        <ele>699.0</ele>
        <time>2017-05-27T11:44:58.506Z</time>
      </trkpt>
      <trkpt lat="39.992565" lon="-0.41575667">
        <ele>699.0</ele>
        <time>2017-05-27T11:44:59.514Z</time>
      </trkpt>
      <trkpt lat="39.992565" lon="-0.41575667">
        <ele>699.0</ele>
        <time>2017-05-27T11:45:00.522Z</time>
      </trkpt>
      <trkpt lat="39.99256333" lon="-0.41581333">
        <ele>700.0</ele>
        <time>2017-05-27T11:45:01.495Z</time>
      </trkpt>
      <trkpt lat="39.99256333" lon="-0.41581333">
        <ele>700.0</ele>
        <time>2017-05-27T11:45:02.501Z</time>
      </trkpt>
      <trkpt lat="39.99257" lon="-0.41586833">
        <ele>700.0</ele>
        <time>2017-05-27T11:45:03.502Z</time>
      </trkpt>
      <trkpt lat="39.99257" lon="-0.41586833">
        <ele>700.0</ele>
        <time>2017-05-27T11:45:04.508Z</time>
      </trkpt>
      <trkpt lat="39.99258" lon="-0.41592">
        <ele>700.0</ele>
        <time>2017-05-27T11:45:05.500Z</time>
      </trkpt>
      <trkpt lat="39.99258" lon="-0.41592">
        <ele>700.0</ele>
        <time>2017-05-27T11:45:06.505Z</time>
      </trkpt>
      <trkpt lat="39.992585" lon="-0.41597333">
        <ele>700.0</ele>
        <time>2017-05-27T11:45:07.508Z</time>
      </trkpt>
      <trkpt lat="39.99258333" lon="-0.416">
        <ele>701.0</ele>
        <time>2017-05-27T11:45:08.505Z</time>
      </trkpt>
      <trkpt lat="39.99258" lon="-0.41602833">
        <ele>701.0</ele>
        <time>2017-05-27T11:45:09.496Z</time>
      </trkpt>
      <trkpt lat="39.99258" lon="-0.41602833">
        <ele>701.0</ele>
        <time>2017-05-27T11:45:10.503Z</time>
      </trkpt>
      <trkpt lat="39.99256167" lon="-0.41607667">
        <ele>701.0</ele>
        <time>2017-05-27T11:45:11.491Z</time>
      </trkpt>
      <trkpt lat="39.99256167" lon="-0.41607667">
        <ele>701.0</ele>
        <time>2017-05-27T11:45:12.499Z</time>
      </trkpt>
      <trkpt lat="39.99253333" lon="-0.41612">
        <ele>701.0</ele>
        <time>2017-05-27T11:45:13.491Z</time>
      </trkpt>
      <trkpt lat="39.99253333" lon="-0.41612">
        <ele>701.0</ele>
        <time>2017-05-27T11:45:14.498Z</time>
      </trkpt>
      <trkpt lat="39.99250833" lon="-0.41615667">
        <ele>701.0</ele>
        <time>2017-05-27T11:45:15.491Z</time>
      </trkpt>
      <trkpt lat="39.99250833" lon="-0.41615667">
        <ele>701.0</ele>
        <time>2017-05-27T11:45:16.497Z</time>
      </trkpt>
      <trkpt lat="39.99247333" lon="-0.416185">
        <ele>702.0</ele>
        <time>2017-05-27T11:45:17.496Z</time>
      </trkpt>
      <trkpt lat="39.99247333" lon="-0.416185">
        <ele>702.0</ele>
        <time>2017-05-27T11:45:18.502Z</time>
      </trkpt>
      <trkpt lat="39.99243833" lon="-0.41621">
        <ele>702.0</ele>
        <time>2017-05-27T11:45:19.491Z</time>
      </trkpt>
      <trkpt lat="39.99242167" lon="-0.41622333">
        <ele>702.0</ele>
        <time>2017-05-27T11:45:20.516Z</time>
      </trkpt>
      <trkpt lat="39.99242167" lon="-0.41622333">
        <ele>702.0</ele>
        <time>2017-05-27T11:45:21.525Z</time>
      </trkpt>
      <trkpt lat="39.99239333" lon="-0.416255">
        <ele>702.0</ele>
        <time>2017-05-27T11:45:22.531Z</time>
      </trkpt>
      <trkpt lat="39.99239333" lon="-0.416255">
        <ele>702.0</ele>
        <time>2017-05-27T11:45:23.497Z</time>
      </trkpt>
      <trkpt lat="39.99236" lon="-0.41628167">
        <ele>703.0</ele>
        <time>2017-05-27T11:45:24.530Z</time>
      </trkpt>
      <trkpt lat="39.99234333" lon="-0.416295">
        <ele>703.0</ele>
        <time>2017-05-27T11:45:25.496Z</time>
      </trkpt>
      <trkpt lat="39.99234333" lon="-0.416295">
        <ele>703.0</ele>
        <time>2017-05-27T11:45:26.505Z</time>
      </trkpt>
      <trkpt lat="39.99231333" lon="-0.41633167">
        <ele>703.0</ele>
        <time>2017-05-27T11:45:27.508Z</time>
      </trkpt>
      <trkpt lat="39.99231333" lon="-0.41633167">
        <ele>703.0</ele>
        <time>2017-05-27T11:45:28.514Z</time>
      </trkpt>
      <trkpt lat="39.99228667" lon="-0.41637">
        <ele>704.0</ele>
        <time>2017-05-27T11:45:29.510Z</time>
      </trkpt>
      <trkpt lat="39.99228667" lon="-0.41637">
        <ele>704.0</ele>
        <time>2017-05-27T11:45:30.516Z</time>
      </trkpt>
      <trkpt lat="39.99226" lon="-0.41641167">
        <ele>704.0</ele>
        <time>2017-05-27T11:45:31.529Z</time>
      </trkpt>
      <trkpt lat="39.99226" lon="-0.41641167">
        <ele>704.0</ele>
        <time>2017-05-27T11:45:32.494Z</time>
      </trkpt>
      <trkpt lat="39.992235" lon="-0.41645333">
        <ele>704.0</ele>
        <time>2017-05-27T11:45:33.496Z</time>
      </trkpt>
      <trkpt lat="39.992235" lon="-0.41645333">
        <ele>704.0</ele>
        <time>2017-05-27T11:45:34.502Z</time>
      </trkpt>
      <trkpt lat="39.99222" lon="-0.4165">
        <ele>705.0</ele>
        <time>2017-05-27T11:45:35.514Z</time>
      </trkpt>
      <trkpt lat="39.99222" lon="-0.4165">
        <ele>705.0</ele>
        <time>2017-05-27T11:45:36.520Z</time>
      </trkpt>
      <trkpt lat="39.99220833" lon="-0.41655">
        <ele>705.0</ele>
        <time>2017-05-27T11:45:37.528Z</time>
      </trkpt>
      <trkpt lat="39.99220833" lon="-0.41655">
        <ele>705.0</ele>
        <time>2017-05-27T11:45:38.517Z</time>
      </trkpt>
      <trkpt lat="39.99220333" lon="-0.41660333">
        <ele>705.0</ele>
        <time>2017-05-27T11:45:39.532Z</time>
      </trkpt>
      <trkpt lat="39.9922" lon="-0.41662833">
        <ele>706.0</ele>
        <time>2017-05-27T11:45:40.500Z</time>
      </trkpt>
      <trkpt lat="39.99219667" lon="-0.416655">
        <ele>706.0</ele>
        <time>2017-05-27T11:45:41.505Z</time>
      </trkpt>
      <trkpt lat="39.99219667" lon="-0.416655">
        <ele>706.0</ele>
        <time>2017-05-27T11:45:42.496Z</time>
      </trkpt>
      <trkpt lat="39.99219333" lon="-0.416705">
        <ele>706.0</ele>
        <time>2017-05-27T11:45:43.518Z</time>
      </trkpt>
      <trkpt lat="39.99219167" lon="-0.41673167">
        <ele>706.0</ele>
        <time>2017-05-27T11:45:44.516Z</time>
      </trkpt>
      <trkpt lat="39.99219167" lon="-0.41673167">
        <ele>706.0</ele>
        <time>2017-05-27T11:45:45.507Z</time>
      </trkpt>
      <trkpt lat="39.99219333" lon="-0.416785">
        <ele>706.0</ele>
        <time>2017-05-27T11:45:46.506Z</time>
      </trkpt>
      <trkpt lat="39.99219333" lon="-0.41681333">
        <ele>706.0</ele>
        <time>2017-05-27T11:45:47.497Z</time>
      </trkpt>
      <trkpt lat="39.99219333" lon="-0.41681333">
        <ele>706.0</ele>
        <time>2017-05-27T11:45:48.504Z</time>
      </trkpt>
      <trkpt lat="39.99219333" lon="-0.41687167">
        <ele>706.0</ele>
        <time>2017-05-27T11:45:49.530Z</time>
      </trkpt>
      <trkpt lat="39.99219333" lon="-0.41687167">
        <ele>706.0</ele>
        <time>2017-05-27T11:45:50.501Z</time>
      </trkpt>
      <trkpt lat="39.99218833" lon="-0.41692833">
        <ele>706.0</ele>
        <time>2017-05-27T11:45:51.497Z</time>
      </trkpt>
      <trkpt lat="39.99218833" lon="-0.41692833">
        <ele>706.0</ele>
        <time>2017-05-27T11:45:52.503Z</time>
      </trkpt>
      <trkpt lat="39.99218167" lon="-0.41698167">
        <ele>707.0</ele>
        <time>2017-05-27T11:45:53.498Z</time>
      </trkpt>
      <trkpt lat="39.99218167" lon="-0.41698167">
        <ele>707.0</ele>
        <time>2017-05-27T11:45:54.505Z</time>
      </trkpt>
      <trkpt lat="39.99215833" lon="-0.41702667">
        <ele>707.0</ele>
        <time>2017-05-27T11:45:55.491Z</time>
      </trkpt>
      <trkpt lat="39.99215833" lon="-0.41702667">
        <ele>707.0</ele>
        <time>2017-05-27T11:45:56.498Z</time>
      </trkpt>
      <trkpt lat="39.99213667" lon="-0.41707667">
        <ele>708.0</ele>
        <time>2017-05-27T11:45:57.492Z</time>
      </trkpt>
      <trkpt lat="39.99212667" lon="-0.41710167">
        <ele>708.0</ele>
        <time>2017-05-27T11:45:58.501Z</time>
      </trkpt>
      <trkpt lat="39.99211667" lon="-0.417125">
        <ele>708.0</ele>
        <time>2017-05-27T11:45:59.501Z</time>
      </trkpt>
      <trkpt lat="39.99211667" lon="-0.417125">
        <ele>708.0</ele>
        <time>2017-05-27T11:46:00.507Z</time>
      </trkpt>
      <trkpt lat="39.99210167" lon="-0.41718167">
        <ele>709.0</ele>
        <time>2017-05-27T11:46:01.527Z</time>
      </trkpt>
      <trkpt lat="39.99210167" lon="-0.41718167">
        <ele>709.0</ele>
        <time>2017-05-27T11:46:02.498Z</time>
      </trkpt>
      <trkpt lat="39.99208667" lon="-0.41723667">
        <ele>709.0</ele>
        <time>2017-05-27T11:46:03.496Z</time>
      </trkpt>
      <trkpt lat="39.99208667" lon="-0.41723667">
        <ele>709.0</ele>
        <time>2017-05-27T11:46:04.502Z</time>
      </trkpt>
      <trkpt lat="39.99206667" lon="-0.41729167">
        <ele>710.0</ele>
        <time>2017-05-27T11:46:05.520Z</time>
      </trkpt>
      <trkpt lat="39.99206167" lon="-0.41732333">
        <ele>710.0</ele>
        <time>2017-05-27T11:46:06.531Z</time>
      </trkpt>
      <trkpt lat="39.99206167" lon="-0.41732333">
        <ele>710.0</ele>
        <time>2017-05-27T11:46:07.496Z</time>
      </trkpt>
      <trkpt lat="39.99205833" lon="-0.41738">
        <ele>710.0</ele>
        <time>2017-05-27T11:46:08.496Z</time>
      </trkpt>
      <trkpt lat="39.99205833" lon="-0.41738">
        <ele>710.0</ele>
        <time>2017-05-27T11:46:09.519Z</time>
      </trkpt>
      <trkpt lat="39.99205167" lon="-0.41743167">
        <ele>710.0</ele>
        <time>2017-05-27T11:46:10.517Z</time>
      </trkpt>
      <trkpt lat="39.99204667" lon="-0.41745833">
        <ele>710.0</ele>
        <time>2017-05-27T11:46:11.500Z</time>
      </trkpt>
      <trkpt lat="39.99204667" lon="-0.41745833">
        <ele>710.0</ele>
        <time>2017-05-27T11:46:12.508Z</time>
      </trkpt>
      <trkpt lat="39.99204333" lon="-0.41751167">
        <ele>710.0</ele>
        <time>2017-05-27T11:46:13.506Z</time>
      </trkpt>
      <trkpt lat="39.99204333" lon="-0.41751167">
        <ele>710.0</ele>
        <time>2017-05-27T11:46:14.518Z</time>
      </trkpt>
      <trkpt lat="39.99203833" lon="-0.41756333">
        <ele>711.0</ele>
        <time>2017-05-27T11:46:15.509Z</time>
      </trkpt>
      <trkpt lat="39.99203833" lon="-0.41756333">
        <ele>711.0</ele>
        <time>2017-05-27T11:46:16.515Z</time>
      </trkpt>
      <trkpt lat="39.99203833" lon="-0.41761667">
        <ele>711.0</ele>
        <time>2017-05-27T11:46:17.526Z</time>
      </trkpt>
      <trkpt lat="39.99203833" lon="-0.41761667">
        <ele>711.0</ele>
        <time>2017-05-27T11:46:18.498Z</time>
      </trkpt>
      <trkpt lat="39.992045" lon="-0.41767167">
        <ele>711.0</ele>
        <time>2017-05-27T11:46:19.530Z</time>
      </trkpt>
      <trkpt lat="39.992045" lon="-0.41767167">
        <ele>711.0</ele>
        <time>2017-05-27T11:46:20.496Z</time>
      </trkpt>
      <trkpt lat="39.992045" lon="-0.417715">
        <ele>712.0</ele>
        <time>2017-05-27T11:46:21.493Z</time>
      </trkpt>
      <trkpt lat="39.99204333" lon="-0.41773833">
        <ele>712.0</ele>
        <time>2017-05-27T11:46:22.499Z</time>
      </trkpt>
      <trkpt lat="39.99204333" lon="-0.41773833">
        <ele>712.0</ele>
        <time>2017-05-27T11:46:23.506Z</time>
      </trkpt>
      <trkpt lat="39.992045" lon="-0.41779">
        <ele>712.0</ele>
        <time>2017-05-27T11:46:24.499Z</time>
      </trkpt>
      <trkpt lat="39.99204833" lon="-0.41781833">
        <ele>712.0</ele>
        <time>2017-05-27T11:46:25.496Z</time>
      </trkpt>
      <trkpt lat="39.99204833" lon="-0.41781833">
        <ele>712.0</ele>
        <time>2017-05-27T11:46:26.506Z</time>
      </trkpt>
      <trkpt lat="39.99205167" lon="-0.417875">
        <ele>712.0</ele>
        <time>2017-05-27T11:46:27.499Z</time>
      </trkpt>
      <trkpt lat="39.99205167" lon="-0.417875">
        <ele>712.0</ele>
        <time>2017-05-27T11:46:28.507Z</time>
      </trkpt>
      <trkpt lat="39.99205" lon="-0.417925">
        <ele>713.0</ele>
        <time>2017-05-27T11:46:29.500Z</time>
      </trkpt>
      <trkpt lat="39.99205" lon="-0.417925">
        <ele>713.0</ele>
        <time>2017-05-27T11:46:30.507Z</time>
      </trkpt>
      <trkpt lat="39.99205167" lon="-0.41797667">
        <ele>713.0</ele>
        <time>2017-05-27T11:46:31.495Z</time>
      </trkpt>
      <trkpt lat="39.99205167" lon="-0.41797667">
        <ele>713.0</ele>
        <time>2017-05-27T11:46:32.506Z</time>
      </trkpt>
      <trkpt lat="39.992055" lon="-0.41803">
        <ele>714.0</ele>
        <time>2017-05-27T11:46:33.491Z</time>
      </trkpt>
      <trkpt lat="39.992055" lon="-0.41803">
        <ele>714.0</ele>
        <time>2017-05-27T11:46:34.498Z</time>
      </trkpt>
      <trkpt lat="39.99205667" lon="-0.41808333">
        <ele>714.0</ele>
        <time>2017-05-27T11:46:35.516Z</time>
      </trkpt>
      <trkpt lat="39.99205667" lon="-0.41808333">
        <ele>714.0</ele>
        <time>2017-05-27T11:46:36.497Z</time>
      </trkpt>
      <trkpt lat="39.99205167" lon="-0.41813333">
        <ele>714.0</ele>
        <time>2017-05-27T11:46:37.515Z</time>
      </trkpt>
      <trkpt lat="39.99205167" lon="-0.41813333">
        <ele>714.0</ele>
        <time>2017-05-27T11:46:38.494Z</time>
      </trkpt>
      <trkpt lat="39.99203667" lon="-0.418185">
        <ele>715.0</ele>
        <time>2017-05-27T11:46:39.525Z</time>
      </trkpt>
      <trkpt lat="39.99203667" lon="-0.418185">
        <ele>715.0</ele>
        <time>2017-05-27T11:46:40.506Z</time>
      </trkpt>
      <trkpt lat="39.99200167" lon="-0.41823167">
        <ele>715.0</ele>
        <time>2017-05-27T11:46:41.506Z</time>
      </trkpt>
      <trkpt lat="39.99200167" lon="-0.41823167">
        <ele>715.0</ele>
        <time>2017-05-27T11:46:42.512Z</time>
      </trkpt>
      <trkpt lat="39.991955" lon="-0.418245">
        <ele>715.0</ele>
        <time>2017-05-27T11:46:43.520Z</time>
      </trkpt>
      <trkpt lat="39.991955" lon="-0.418245">
        <ele>715.0</ele>
        <time>2017-05-27T11:46:44.530Z</time>
      </trkpt>
      <trkpt lat="39.99191167" lon="-0.418225">
        <ele>715.0</ele>
        <time>2017-05-27T11:46:45.493Z</time>
      </trkpt>
      <trkpt lat="39.99191167" lon="-0.418225">
        <ele>715.0</ele>
        <time>2017-05-27T11:46:46.499Z</time>
      </trkpt>
      <trkpt lat="39.99186833" lon="-0.41819">
        <ele>716.0</ele>
        <time>2017-05-27T11:46:47.495Z</time>
      </trkpt>
      <trkpt lat="39.99186833" lon="-0.41819">
        <ele>716.0</ele>
        <time>2017-05-27T11:46:48.502Z</time>
      </trkpt>
      <trkpt lat="39.99183" lon="-0.41814667">
        <ele>716.0</ele>
        <time>2017-05-27T11:46:49.506Z</time>
      </trkpt>
      <trkpt lat="39.99183" lon="-0.41814667">
        <ele>716.0</ele>
        <time>2017-05-27T11:46:50.514Z</time>
      </trkpt>
      <trkpt lat="39.99179833" lon="-0.41811667">
        <ele>716.0</ele>
        <time>2017-05-27T11:46:51.516Z</time>
      </trkpt>
      <trkpt lat="39.99178333" lon="-0.41809333">
        <ele>716.0</ele>
        <time>2017-05-27T11:46:52.522Z</time>
      </trkpt>
      <trkpt lat="39.99178333" lon="-0.41809333">
        <ele>716.0</ele>
        <time>2017-05-27T11:46:53.497Z</time>
      </trkpt>
      <trkpt lat="39.99176" lon="-0.41805">
        <ele>716.0</ele>
        <time>2017-05-27T11:46:54.506Z</time>
      </trkpt>
      <trkpt lat="39.99176" lon="-0.41805">
        <ele>716.0</ele>
        <time>2017-05-27T11:46:55.512Z</time>
      </trkpt>
      <trkpt lat="39.99173" lon="-0.418015">
        <ele>716.0</ele>
        <time>2017-05-27T11:46:56.529Z</time>
      </trkpt>
      <trkpt lat="39.99171" lon="-0.41799667">
        <ele>716.0</ele>
        <time>2017-05-27T11:46:57.496Z</time>
      </trkpt>
      <trkpt lat="39.99171" lon="-0.41799667">
        <ele>716.0</ele>
        <time>2017-05-27T11:46:58.502Z</time>
      </trkpt>
      <trkpt lat="39.99167167" lon="-0.41795667">
        <ele>716.0</ele>
        <time>2017-05-27T11:46:59.506Z</time>
      </trkpt>
      <trkpt lat="39.99167167" lon="-0.41795667">
        <ele>716.0</ele>
        <time>2017-05-27T11:47:00.512Z</time>
      </trkpt>
      <trkpt lat="39.99163" lon="-0.41791">
        <ele>716.0</ele>
        <time>2017-05-27T11:47:01.525Z</time>
      </trkpt>
      <trkpt lat="39.99163" lon="-0.41791">
        <ele>716.0</ele>
        <time>2017-05-27T11:47:02.495Z</time>
      </trkpt>
      <trkpt lat="39.99158667" lon="-0.41786333">
        <ele>716.0</ele>
        <time>2017-05-27T11:47:03.496Z</time>
      </trkpt>
      <trkpt lat="39.99158667" lon="-0.41786333">
        <ele>716.0</ele>
        <time>2017-05-27T11:47:04.502Z</time>
      </trkpt>
      <trkpt lat="39.99154" lon="-0.41782333">
        <ele>716.0</ele>
        <time>2017-05-27T11:47:05.499Z</time>
      </trkpt>
      <trkpt lat="39.99154" lon="-0.41782333">
        <ele>716.0</ele>
        <time>2017-05-27T11:47:06.505Z</time>
      </trkpt>
      <trkpt lat="39.99149833" lon="-0.41777667">
        <ele>716.0</ele>
        <time>2017-05-27T11:47:07.496Z</time>
      </trkpt>
      <trkpt lat="39.99149833" lon="-0.41777667">
        <ele>716.0</ele>
        <time>2017-05-27T11:47:08.503Z</time>
      </trkpt>
      <trkpt lat="39.99145333" lon="-0.41771833">
        <ele>716.0</ele>
        <time>2017-05-27T11:47:09.491Z</time>
      </trkpt>
      <trkpt lat="39.99142833" lon="-0.41768667">
        <ele>716.0</ele>
        <time>2017-05-27T11:47:10.527Z</time>
      </trkpt>
      <trkpt lat="39.99142833" lon="-0.41768667">
        <ele>716.0</ele>
        <time>2017-05-27T11:47:11.498Z</time>
      </trkpt>
      <trkpt lat="39.99138" lon="-0.41762333">
        <ele>715.0</ele>
        <time>2017-05-27T11:47:12.497Z</time>
      </trkpt>
      <trkpt lat="39.99135667" lon="-0.41759">
        <ele>715.0</ele>
        <time>2017-05-27T11:47:13.515Z</time>
      </trkpt>
      <trkpt lat="39.99135667" lon="-0.41759">
        <ele>715.0</ele>
        <time>2017-05-27T11:47:14.521Z</time>
      </trkpt>
      <trkpt lat="39.99130667" lon="-0.41752333">
        <ele>715.0</ele>
        <time>2017-05-27T11:47:15.523Z</time>
      </trkpt>
      <trkpt lat="39.99130667" lon="-0.41752333">
        <ele>715.0</ele>
        <time>2017-05-27T11:47:16.533Z</time>
      </trkpt>
      <trkpt lat="39.99125833" lon="-0.41746167">
        <ele>715.0</ele>
        <time>2017-05-27T11:47:17.496Z</time>
      </trkpt>
      <trkpt lat="39.99125833" lon="-0.41746167">
        <ele>715.0</ele>
        <time>2017-05-27T11:47:18.502Z</time>
      </trkpt>
      <trkpt lat="39.99121667" lon="-0.417395">
        <ele>715.0</ele>
        <time>2017-05-27T11:47:19.511Z</time>
      </trkpt>
      <trkpt lat="39.99121667" lon="-0.417395">
        <ele>715.0</ele>
        <time>2017-05-27T11:47:20.517Z</time>
      </trkpt>
      <trkpt lat="39.99118" lon="-0.41733667">
        <ele>715.0</ele>
        <time>2017-05-27T11:47:21.495Z</time>
      </trkpt>
      <trkpt lat="39.99118" lon="-0.41733667">
        <ele>715.0</ele>
        <time>2017-05-27T11:47:22.501Z</time>
      </trkpt>
      <trkpt lat="39.991155" lon="-0.41727">
        <ele>714.0</ele>
        <time>2017-05-27T11:47:23.500Z</time>
      </trkpt>
      <trkpt lat="39.99114333" lon="-0.41723167">
        <ele>714.0</ele>
        <time>2017-05-27T11:47:24.493Z</time>
      </trkpt>
      <trkpt lat="39.99114333" lon="-0.41723167">
        <ele>714.0</ele>
        <time>2017-05-27T11:47:25.527Z</time>
      </trkpt>
      <trkpt lat="39.99112167" lon="-0.41715333">
        <ele>714.0</ele>
        <time>2017-05-27T11:47:26.525Z</time>
      </trkpt>
      <trkpt lat="39.99112167" lon="-0.41715333">
        <ele>714.0</ele>
        <time>2017-05-27T11:47:27.493Z</time>
      </trkpt>
      <trkpt lat="39.99110667" lon="-0.41708">
        <ele>714.0</ele>
        <time>2017-05-27T11:47:28.515Z</time>
      </trkpt>
      <trkpt lat="39.99109833" lon="-0.41704833">
        <ele>714.0</ele>
        <time>2017-05-27T11:47:29.505Z</time>
      </trkpt>
      <trkpt lat="39.99109833" lon="-0.41704833">
        <ele>714.0</ele>
        <time>2017-05-27T11:47:30.511Z</time>
      </trkpt>
      <trkpt lat="39.99108167" lon="-0.41698333">
        <ele>714.0</ele>
        <time>2017-05-27T11:47:31.491Z</time>
      </trkpt>
      <trkpt lat="39.99107333" lon="-0.416945">
        <ele>713.0</ele>
        <time>2017-05-27T11:47:32.518Z</time>
      </trkpt>
      <trkpt lat="39.99107333" lon="-0.416945">
        <ele>713.0</ele>
        <time>2017-05-27T11:47:33.494Z</time>
      </trkpt>
      <trkpt lat="39.99105" lon="-0.41686667">
        <ele>713.0</ele>
        <time>2017-05-27T11:47:34.524Z</time>
      </trkpt>
      <trkpt lat="39.991035" lon="-0.41682667">
        <ele>714.0</ele>
        <time>2017-05-27T11:47:35.517Z</time>
      </trkpt>
      <trkpt lat="39.991035" lon="-0.41682667">
        <ele>714.0</ele>
        <time>2017-05-27T11:47:36.498Z</time>
      </trkpt>
      <trkpt lat="39.99100667" lon="-0.41675">
        <ele>713.0</ele>
        <time>2017-05-27T11:47:37.491Z</time>
      </trkpt>
      <trkpt lat="39.99099167" lon="-0.41671667">
        <ele>714.0</ele>
        <time>2017-05-27T11:47:38.525Z</time>
      </trkpt>
      <trkpt lat="39.99099167" lon="-0.41671667">
        <ele>714.0</ele>
        <time>2017-05-27T11:47:39.527Z</time>
      </trkpt>
      <trkpt lat="39.99096167" lon="-0.416655">
        <ele>714.0</ele>
        <time>2017-05-27T11:47:40.491Z</time>
      </trkpt>
      <trkpt lat="39.99096167" lon="-0.416655">
        <ele>714.0</ele>
        <time>2017-05-27T11:47:41.493Z</time>
      </trkpt>
      <trkpt lat="39.99092667" lon="-0.416585">
        <ele>714.0</ele>
        <time>2017-05-27T11:47:42.526Z</time>
      </trkpt>
      <trkpt lat="39.99090667" lon="-0.41655333">
        <ele>715.0</ele>
        <time>2017-05-27T11:47:43.515Z</time>
      </trkpt>
      <trkpt lat="39.99090667" lon="-0.41655333">
        <ele>715.0</ele>
        <time>2017-05-27T11:47:44.523Z</time>
      </trkpt>
      <trkpt lat="39.990865" lon="-0.41649667">
        <ele>715.0</ele>
        <time>2017-05-27T11:47:45.501Z</time>
      </trkpt>
      <trkpt lat="39.99084333" lon="-0.41646833">
        <ele>715.0</ele>
        <time>2017-05-27T11:47:46.511Z</time>
      </trkpt>
      <trkpt lat="39.99082167" lon="-0.41644">
        <ele>715.0</ele>
        <time>2017-05-27T11:47:47.504Z</time>
      </trkpt>
      <trkpt lat="39.99082167" lon="-0.41644">
        <ele>715.0</ele>
        <time>2017-05-27T11:47:48.512Z</time>
      </trkpt>
      <trkpt lat="39.990775" lon="-0.41638">
        <ele>716.0</ele>
        <time>2017-05-27T11:47:49.494Z</time>
      </trkpt>
      <trkpt lat="39.99075333" lon="-0.41635167">
        <ele>716.0</ele>
        <time>2017-05-27T11:47:50.519Z</time>
      </trkpt>
      <trkpt lat="39.99075333" lon="-0.41635167">
        <ele>716.0</ele>
        <time>2017-05-27T11:47:51.497Z</time>
      </trkpt>
      <trkpt lat="39.99070833" lon="-0.41628667">
        <ele>716.0</ele>
        <time>2017-05-27T11:47:52.499Z</time>
      </trkpt>
      <trkpt lat="39.99068833" lon="-0.41625667">
        <ele>716.0</ele>
        <time>2017-05-27T11:47:53.494Z</time>
      </trkpt>
      <trkpt lat="39.99068833" lon="-0.41625667">
        <ele>716.0</ele>
        <time>2017-05-27T11:47:54.500Z</time>
      </trkpt>
      <trkpt lat="39.99065667" lon="-0.41620333">
        <ele>716.0</ele>
        <time>2017-05-27T11:47:55.496Z</time>
      </trkpt>
      <trkpt lat="39.99065667" lon="-0.41620333">
        <ele>716.0</ele>
        <time>2017-05-27T11:47:56.505Z</time>
      </trkpt>
      <trkpt lat="39.99062833" lon="-0.41614333">
        <ele>716.0</ele>
        <time>2017-05-27T11:47:57.496Z</time>
      </trkpt>
      <trkpt lat="39.99062833" lon="-0.41614333">
        <ele>716.0</ele>
        <time>2017-05-27T11:47:58.502Z</time>
      </trkpt>
      <trkpt lat="39.99059667" lon="-0.41609">
        <ele>717.0</ele>
        <time>2017-05-27T11:47:59.506Z</time>
      </trkpt>
      <trkpt lat="39.99058333" lon="-0.41606167">
        <ele>717.0</ele>
        <time>2017-05-27T11:48:00.497Z</time>
      </trkpt>
      <trkpt lat="39.99058333" lon="-0.41606167">
        <ele>717.0</ele>
        <time>2017-05-27T11:48:01.503Z</time>
      </trkpt>
      <trkpt lat="39.99055167" lon="-0.41600833">
        <ele>718.0</ele>
        <time>2017-05-27T11:48:02.496Z</time>
      </trkpt>
      <trkpt lat="39.990535" lon="-0.41598167">
        <ele>718.0</ele>
        <time>2017-05-27T11:48:03.496Z</time>
      </trkpt>
      <trkpt lat="39.990535" lon="-0.41598167">
        <ele>718.0</ele>
        <time>2017-05-27T11:48:04.503Z</time>
      </trkpt>
      <trkpt lat="39.99050833" lon="-0.41592">
        <ele>718.0</ele>
        <time>2017-05-27T11:48:05.535Z</time>
      </trkpt>
      <trkpt lat="39.99050833" lon="-0.41592">
        <ele>718.0</ele>
        <time>2017-05-27T11:48:06.514Z</time>
      </trkpt>
      <trkpt lat="39.99048" lon="-0.41586667">
        <ele>718.0</ele>
        <time>2017-05-27T11:48:07.509Z</time>
      </trkpt>
      <trkpt lat="39.99046333" lon="-0.41584167">
        <ele>718.0</ele>
        <time>2017-05-27T11:48:08.515Z</time>
      </trkpt>
      <trkpt lat="39.99046333" lon="-0.41584167">
        <ele>718.0</ele>
        <time>2017-05-27T11:48:09.493Z</time>
      </trkpt>
      <trkpt lat="39.99043" lon="-0.41579">
        <ele>719.0</ele>
        <time>2017-05-27T11:48:10.529Z</time>
      </trkpt>
      <trkpt lat="39.99041167" lon="-0.41576833">
        <ele>719.0</ele>
        <time>2017-05-27T11:48:11.506Z</time>
      </trkpt>
      <trkpt lat="39.99041167" lon="-0.41576833">
        <ele>719.0</ele>
        <time>2017-05-27T11:48:12.512Z</time>
      </trkpt>
      <trkpt lat="39.99037167" lon="-0.41572833">
        <ele>719.0</ele>
        <time>2017-05-27T11:48:13.501Z</time>
      </trkpt>
      <trkpt lat="39.99037167" lon="-0.41572833">
        <ele>719.0</ele>
        <time>2017-05-27T11:48:14.507Z</time>
      </trkpt>
      <trkpt lat="39.99031833" lon="-0.41571">
        <ele>720.0</ele>
        <time>2017-05-27T11:48:15.509Z</time>
      </trkpt>
      <trkpt lat="39.99031833" lon="-0.41571">
        <ele>720.0</ele>
        <time>2017-05-27T11:48:16.517Z</time>
      </trkpt>
      <trkpt lat="39.99026667" lon="-0.41569833">
        <ele>720.0</ele>
        <time>2017-05-27T11:48:17.500Z</time>
      </trkpt>
      <trkpt lat="39.99026667" lon="-0.41569833">
        <ele>720.0</ele>
        <time>2017-05-27T11:48:18.501Z</time>
      </trkpt>
      <trkpt lat="39.99021333" lon="-0.415705">
        <ele>720.0</ele>
        <time>2017-05-27T11:48:19.509Z</time>
      </trkpt>
      <trkpt lat="39.99021333" lon="-0.415705">
        <ele>720.0</ele>
        <time>2017-05-27T11:48:20.515Z</time>
      </trkpt>
      <trkpt lat="39.99015167" lon="-0.41570667">
        <ele>720.0</ele>
        <time>2017-05-27T11:48:21.510Z</time>
      </trkpt>
      <trkpt lat="39.99012" lon="-0.41570667">
        <ele>720.0</ele>
        <time>2017-05-27T11:48:22.516Z</time>
      </trkpt>
      <trkpt lat="39.99009" lon="-0.41570833">
        <ele>720.0</ele>
        <time>2017-05-27T11:48:23.504Z</time>
      </trkpt>
      <trkpt lat="39.99009" lon="-0.41570833">
        <ele>720.0</ele>
        <time>2017-05-27T11:48:24.510Z</time>
      </trkpt>
      <trkpt lat="39.99002833" lon="-0.41571667">
        <ele>720.0</ele>
        <time>2017-05-27T11:48:25.514Z</time>
      </trkpt>
      <trkpt lat="39.99002833" lon="-0.41571667">
        <ele>720.0</ele>
        <time>2017-05-27T11:48:26.495Z</time>
      </trkpt>
      <trkpt lat="39.98996833" lon="-0.415705">
        <ele>720.0</ele>
        <time>2017-05-27T11:48:27.505Z</time>
      </trkpt>
      <trkpt lat="39.98996833" lon="-0.415705">
        <ele>720.0</ele>
        <time>2017-05-27T11:48:28.513Z</time>
      </trkpt>
      <trkpt lat="39.98990167" lon="-0.41568833">
        <ele>720.0</ele>
        <time>2017-05-27T11:48:29.502Z</time>
      </trkpt>
      <trkpt lat="39.98990167" lon="-0.41568833">
        <ele>720.0</ele>
        <time>2017-05-27T11:48:30.508Z</time>
      </trkpt>
      <trkpt lat="39.98983167" lon="-0.41568">
        <ele>720.0</ele>
        <time>2017-05-27T11:48:31.506Z</time>
      </trkpt>
      <trkpt lat="39.98983167" lon="-0.41568">
        <ele>720.0</ele>
        <time>2017-05-27T11:48:32.512Z</time>
      </trkpt>
      <trkpt lat="39.98976167" lon="-0.41567667">
        <ele>721.0</ele>
        <time>2017-05-27T11:48:33.510Z</time>
      </trkpt>
      <trkpt lat="39.98972333" lon="-0.415675">
        <ele>721.0</ele>
        <time>2017-05-27T11:48:34.517Z</time>
      </trkpt>
      <trkpt lat="39.98972333" lon="-0.415675">
        <ele>721.0</ele>
        <time>2017-05-27T11:48:35.530Z</time>
      </trkpt>
      <trkpt lat="39.98963833" lon="-0.41566333">
        <ele>721.0</ele>
        <time>2017-05-27T11:48:36.492Z</time>
      </trkpt>
      <trkpt lat="39.98958833" lon="-0.415655">
        <ele>721.0</ele>
        <time>2017-05-27T11:48:37.506Z</time>
      </trkpt>
      <trkpt lat="39.98958833" lon="-0.415655">
        <ele>721.0</ele>
        <time>2017-05-27T11:48:38.512Z</time>
      </trkpt>
      <trkpt lat="39.98947333" lon="-0.415645">
        <ele>720.0</ele>
        <time>2017-05-27T11:48:39.497Z</time>
      </trkpt>
      <trkpt lat="39.98941" lon="-0.41563833">
        <ele>720.0</ele>
        <time>2017-05-27T11:48:40.505Z</time>
      </trkpt>
      <trkpt lat="39.98941" lon="-0.41563833">
        <ele>720.0</ele>
        <time>2017-05-27T11:48:41.510Z</time>
      </trkpt>
      <trkpt lat="39.98927167" lon="-0.41563667">
        <ele>720.0</ele>
        <time>2017-05-27T11:48:42.513Z</time>
      </trkpt>
      <trkpt lat="39.98927167" lon="-0.41563667">
        <ele>720.0</ele>
        <time>2017-05-27T11:48:43.519Z</time>
      </trkpt>
      <trkpt lat="39.98913167" lon="-0.41563667">
        <ele>720.0</ele>
        <time>2017-05-27T11:48:44.524Z</time>
      </trkpt>
      <trkpt lat="39.98913167" lon="-0.41563667">
        <ele>720.0</ele>
        <time>2017-05-27T11:48:45.492Z</time>
      </trkpt>
      <trkpt lat="39.98899667" lon="-0.415625">
        <ele>720.0</ele>
        <time>2017-05-27T11:48:46.496Z</time>
      </trkpt>
      <trkpt lat="39.988935" lon="-0.41561667">
        <ele>720.0</ele>
        <time>2017-05-27T11:48:47.506Z</time>
      </trkpt>
      <trkpt lat="39.988935" lon="-0.41561667">
        <ele>720.0</ele>
        <time>2017-05-27T11:48:48.512Z</time>
      </trkpt>
      <trkpt lat="39.98881833" lon="-0.4156">
        <ele>720.0</ele>
        <time>2017-05-27T11:48:49.516Z</time>
      </trkpt>
      <trkpt lat="39.98881833" lon="-0.4156">
        <ele>720.0</ele>
        <time>2017-05-27T11:48:50.497Z</time>
      </trkpt>
      <trkpt lat="39.98870333" lon="-0.41558">
        <ele>721.0</ele>
        <time>2017-05-27T11:48:51.492Z</time>
      </trkpt>
      <trkpt lat="39.98864667" lon="-0.41557167">
        <ele>721.0</ele>
        <time>2017-05-27T11:48:52.500Z</time>
      </trkpt>
      <trkpt lat="39.98859" lon="-0.41556333">
        <ele>721.0</ele>
        <time>2017-05-27T11:48:53.529Z</time>
      </trkpt>
      <trkpt lat="39.98859" lon="-0.41556333">
        <ele>721.0</ele>
        <time>2017-05-27T11:48:54.494Z</time>
      </trkpt>
      <trkpt lat="39.98846667" lon="-0.41555667">
        <ele>721.0</ele>
        <time>2017-05-27T11:48:55.528Z</time>
      </trkpt>
      <trkpt lat="39.98840333" lon="-0.415535">
        <ele>720.0</ele>
        <time>2017-05-27T11:48:56.530Z</time>
      </trkpt>
      <trkpt lat="39.98840333" lon="-0.415535">
        <ele>720.0</ele>
        <time>2017-05-27T11:48:57.497Z</time>
      </trkpt>
      <trkpt lat="39.98828833" lon="-0.41548833">
        <ele>720.0</ele>
        <time>2017-05-27T11:48:58.526Z</time>
      </trkpt>
      <trkpt lat="39.98823667" lon="-0.415465">
        <ele>719.0</ele>
        <time>2017-05-27T11:48:59.507Z</time>
      </trkpt>
      <trkpt lat="39.98823667" lon="-0.415465">
        <ele>719.0</ele>
        <time>2017-05-27T11:49:00.514Z</time>
      </trkpt>
      <trkpt lat="39.98814167" lon="-0.41541833">
        <ele>719.0</ele>
        <time>2017-05-27T11:49:01.504Z</time>
      </trkpt>
      <trkpt lat="39.98809667" lon="-0.41539333">
        <ele>719.0</ele>
        <time>2017-05-27T11:49:02.494Z</time>
      </trkpt>
      <trkpt lat="39.98809667" lon="-0.41539333">
        <ele>719.0</ele>
        <time>2017-05-27T11:49:03.505Z</time>
      </trkpt>
      <trkpt lat="39.98800667" lon="-0.41533333">
        <ele>719.0</ele>
        <time>2017-05-27T11:49:04.530Z</time>
      </trkpt>
      <trkpt lat="39.98796333" lon="-0.4153">
        <ele>719.0</ele>
        <time>2017-05-27T11:49:05.506Z</time>
      </trkpt>
      <trkpt lat="39.98796333" lon="-0.4153">
        <ele>719.0</ele>
        <time>2017-05-27T11:49:06.512Z</time>
      </trkpt>
      <trkpt lat="39.98788833" lon="-0.41522833">
        <ele>719.0</ele>
        <time>2017-05-27T11:49:07.506Z</time>
      </trkpt>
      <trkpt lat="39.98788833" lon="-0.41522833">
        <ele>719.0</ele>
        <time>2017-05-27T11:49:08.517Z</time>
      </trkpt>
      <trkpt lat="39.98781667" lon="-0.41515667">
        <ele>718.0</ele>
        <time>2017-05-27T11:49:09.501Z</time>
      </trkpt>
      <trkpt lat="39.98781667" lon="-0.41515667">
        <ele>718.0</ele>
        <time>2017-05-27T11:49:10.506Z</time>
      </trkpt>
      <trkpt lat="39.98773833" lon="-0.41508833">
        <ele>718.0</ele>
        <time>2017-05-27T11:49:11.516Z</time>
      </trkpt>
      <trkpt lat="39.98773833" lon="-0.41508833">
        <ele>718.0</ele>
        <time>2017-05-27T11:49:12.532Z</time>
      </trkpt>
      <trkpt lat="39.987645" lon="-0.41502833">
        <ele>718.0</ele>
        <time>2017-05-27T11:49:13.529Z</time>
      </trkpt>
      <trkpt lat="39.987645" lon="-0.41502833">
        <ele>718.0</ele>
        <time>2017-05-27T11:49:14.495Z</time>
      </trkpt>
      <trkpt lat="39.98752833" lon="-0.41502167">
        <ele>718.0</ele>
        <time>2017-05-27T11:49:15.502Z</time>
      </trkpt>
      <trkpt lat="39.98752833" lon="-0.41502167">
        <ele>718.0</ele>
        <time>2017-05-27T11:49:16.508Z</time>
      </trkpt>
      <trkpt lat="39.987415" lon="-0.41506667">
        <ele>717.0</ele>
        <time>2017-05-27T11:49:17.527Z</time>
      </trkpt>
      <trkpt lat="39.987365" lon="-0.41509833">
        <ele>717.0</ele>
        <time>2017-05-27T11:49:18.520Z</time>
      </trkpt>
      <trkpt lat="39.987365" lon="-0.41509833">
        <ele>717.0</ele>
        <time>2017-05-27T11:49:19.497Z</time>
      </trkpt>
      <trkpt lat="39.98727" lon="-0.41516833">
        <ele>717.0</ele>
        <time>2017-05-27T11:49:20.503Z</time>
      </trkpt>
      <trkpt lat="39.98722333" lon="-0.41520667">
        <ele>717.0</ele>
        <time>2017-05-27T11:49:21.512Z</time>
      </trkpt>
      <trkpt lat="39.98722333" lon="-0.41520667">
        <ele>717.0</ele>
        <time>2017-05-27T11:49:22.528Z</time>
      </trkpt>
      <trkpt lat="39.98713333" lon="-0.41528">
        <ele>717.0</ele>
        <time>2017-05-27T11:49:23.520Z</time>
      </trkpt>
      <trkpt lat="39.98713333" lon="-0.41528">
        <ele>717.0</ele>
        <time>2017-05-27T11:49:24.499Z</time>
      </trkpt>
      <trkpt lat="39.987045" lon="-0.41536667">
        <ele>717.0</ele>
        <time>2017-05-27T11:49:25.528Z</time>
      </trkpt>
      <trkpt lat="39.987045" lon="-0.41536667">
        <ele>717.0</ele>
        <time>2017-05-27T11:49:26.494Z</time>
      </trkpt>
      <trkpt lat="39.986965" lon="-0.415455">
        <ele>717.0</ele>
        <time>2017-05-27T11:49:27.524Z</time>
      </trkpt>
      <trkpt lat="39.986965" lon="-0.415455">
        <ele>717.0</ele>
        <time>2017-05-27T11:49:28.494Z</time>
      </trkpt>
      <trkpt lat="39.98692167" lon="-0.41556333">
        <ele>717.0</ele>
        <time>2017-05-27T11:49:29.523Z</time>
      </trkpt>
      <trkpt lat="39.98692167" lon="-0.41556333">
        <ele>717.0</ele>
        <time>2017-05-27T11:49:30.498Z</time>
      </trkpt>
      <trkpt lat="39.98688667" lon="-0.41566667">
        <ele>717.0</ele>
        <time>2017-05-27T11:49:31.525Z</time>
      </trkpt>
      <trkpt lat="39.98688667" lon="-0.41566667">
        <ele>717.0</ele>
        <time>2017-05-27T11:49:32.495Z</time>
      </trkpt>
      <trkpt lat="39.98686167" lon="-0.41577167">
        <ele>717.0</ele>
        <time>2017-05-27T11:49:33.521Z</time>
      </trkpt>
      <trkpt lat="39.98685167" lon="-0.41583167">
        <ele>717.0</ele>
        <time>2017-05-27T11:49:34.503Z</time>
      </trkpt>
      <trkpt lat="39.98684333" lon="-0.41589">
        <ele>717.0</ele>
        <time>2017-05-27T11:49:35.493Z</time>
      </trkpt>
      <trkpt lat="39.98684333" lon="-0.41589">
        <ele>717.0</ele>
        <time>2017-05-27T11:49:36.499Z</time>
      </trkpt>
      <trkpt lat="39.98682667" lon="-0.41600333">
        <ele>716.0</ele>
        <time>2017-05-27T11:49:37.516Z</time>
      </trkpt>
      <trkpt lat="39.986825" lon="-0.41605667">
        <ele>716.0</ele>
        <time>2017-05-27T11:49:38.507Z</time>
      </trkpt>
      <trkpt lat="39.986825" lon="-0.41605667">
        <ele>716.0</ele>
        <time>2017-05-27T11:49:39.500Z</time>
      </trkpt>
      <trkpt lat="39.98682" lon="-0.41616333">
        <ele>716.0</ele>
        <time>2017-05-27T11:49:40.498Z</time>
      </trkpt>
      <trkpt lat="39.98682" lon="-0.41616333">
        <ele>716.0</ele>
        <time>2017-05-27T11:49:41.504Z</time>
      </trkpt>
      <trkpt lat="39.986815" lon="-0.41626667">
        <ele>716.0</ele>
        <time>2017-05-27T11:49:42.529Z</time>
      </trkpt>
      <trkpt lat="39.986815" lon="-0.41626667">
        <ele>716.0</ele>
        <time>2017-05-27T11:49:43.496Z</time>
      </trkpt>
      <trkpt lat="39.98681667" lon="-0.41636833">
        <ele>716.0</ele>
        <time>2017-05-27T11:49:44.522Z</time>
      </trkpt>
      <trkpt lat="39.98681667" lon="-0.41636833">
        <ele>716.0</ele>
        <time>2017-05-27T11:49:45.498Z</time>
      </trkpt>
      <trkpt lat="39.98682" lon="-0.41646833">
        <ele>716.0</ele>
        <time>2017-05-27T11:49:46.534Z</time>
      </trkpt>
      <trkpt lat="39.98682167" lon="-0.41651833">
        <ele>716.0</ele>
        <time>2017-05-27T11:49:47.501Z</time>
      </trkpt>
      <trkpt lat="39.98682167" lon="-0.41651833">
        <ele>716.0</ele>
        <time>2017-05-27T11:49:48.507Z</time>
      </trkpt>
      <trkpt lat="39.98682" lon="-0.41661833">
        <ele>716.0</ele>
        <time>2017-05-27T11:49:49.517Z</time>
      </trkpt>
      <trkpt lat="39.98682" lon="-0.41661833">
        <ele>716.0</ele>
        <time>2017-05-27T11:49:50.496Z</time>
      </trkpt>
      <trkpt lat="39.98681833" lon="-0.41671667">
        <ele>716.0</ele>
        <time>2017-05-27T11:49:51.505Z</time>
      </trkpt>
      <trkpt lat="39.98681833" lon="-0.41671667">
        <ele>716.0</ele>
        <time>2017-05-27T11:49:52.511Z</time>
      </trkpt>
      <trkpt lat="39.98681833" lon="-0.41681167">
        <ele>717.0</ele>
        <time>2017-05-27T11:49:53.507Z</time>
      </trkpt>
      <trkpt lat="39.98681833" lon="-0.41681167">
        <ele>717.0</ele>
        <time>2017-05-27T11:49:54.513Z</time>
      </trkpt>
      <trkpt lat="39.98682167" lon="-0.41690167">
        <ele>717.0</ele>
        <time>2017-05-27T11:49:55.506Z</time>
      </trkpt>
      <trkpt lat="39.98682833" lon="-0.41694833">
        <ele>717.0</ele>
        <time>2017-05-27T11:49:56.506Z</time>
      </trkpt>
      <trkpt lat="39.98682833" lon="-0.41694833">
        <ele>717.0</ele>
        <time>2017-05-27T11:49:57.512Z</time>
      </trkpt>
      <trkpt lat="39.98683333" lon="-0.41703167">
        <ele>717.0</ele>
        <time>2017-05-27T11:49:58.516Z</time>
      </trkpt>
      <trkpt lat="39.98683333" lon="-0.41703167">
        <ele>717.0</ele>
        <time>2017-05-27T11:49:59.523Z</time>
      </trkpt>
      <trkpt lat="39.98683833" lon="-0.41711833">
        <ele>718.0</ele>
        <time>2017-05-27T11:50:00.503Z</time>
      </trkpt>
      <trkpt lat="39.98683833" lon="-0.41711833">
        <ele>718.0</ele>
        <time>2017-05-27T11:50:01.510Z</time>
      </trkpt>
      <trkpt lat="39.98684167" lon="-0.41720333">
        <ele>719.0</ele>
        <time>2017-05-27T11:50:02.493Z</time>
      </trkpt>
      <trkpt lat="39.98684167" lon="-0.41720333">
        <ele>719.0</ele>
        <time>2017-05-27T11:50:03.499Z</time>
      </trkpt>
      <trkpt lat="39.98683833" lon="-0.41728833">
        <ele>719.0</ele>
        <time>2017-05-27T11:50:04.502Z</time>
      </trkpt>
      <trkpt lat="39.98683833" lon="-0.41728833">
        <ele>719.0</ele>
        <time>2017-05-27T11:50:05.508Z</time>
      </trkpt>
      <trkpt lat="39.98683333" lon="-0.41737167">
        <ele>719.0</ele>
        <time>2017-05-27T11:50:06.516Z</time>
      </trkpt>
      <trkpt lat="39.98683333" lon="-0.41737167">
        <ele>719.0</ele>
        <time>2017-05-27T11:50:07.493Z</time>
      </trkpt>
      <trkpt lat="39.98682833" lon="-0.417455">
        <ele>720.0</ele>
        <time>2017-05-27T11:50:08.495Z</time>
      </trkpt>
      <trkpt lat="39.98682833" lon="-0.417455">
        <ele>720.0</ele>
        <time>2017-05-27T11:50:09.506Z</time>
      </trkpt>
      <trkpt lat="39.98681667" lon="-0.41753833">
        <ele>720.0</ele>
        <time>2017-05-27T11:50:10.506Z</time>
      </trkpt>
      <trkpt lat="39.98680667" lon="-0.41757833">
        <ele>720.0</ele>
        <time>2017-05-27T11:50:11.499Z</time>
      </trkpt>
      <trkpt lat="39.98680667" lon="-0.41757833">
        <ele>720.0</ele>
        <time>2017-05-27T11:50:12.505Z</time>
      </trkpt>
      <trkpt lat="39.98678167" lon="-0.41765833">
        <ele>721.0</ele>
        <time>2017-05-27T11:50:13.504Z</time>
      </trkpt>
      <trkpt lat="39.98678167" lon="-0.41765833">
        <ele>721.0</ele>
        <time>2017-05-27T11:50:14.510Z</time>
      </trkpt>
      <trkpt lat="39.98675667" lon="-0.41774">
        <ele>721.0</ele>
        <time>2017-05-27T11:50:15.505Z</time>
      </trkpt>
      <trkpt lat="39.98675667" lon="-0.41774">
        <ele>721.0</ele>
        <time>2017-05-27T11:50:16.514Z</time>
      </trkpt>
      <trkpt lat="39.98672667" lon="-0.41781833">
        <ele>721.0</ele>
        <time>2017-05-27T11:50:17.507Z</time>
      </trkpt>
      <trkpt lat="39.98672667" lon="-0.41781833">
        <ele>721.0</ele>
        <time>2017-05-27T11:50:18.512Z</time>
      </trkpt>
      <trkpt lat="39.9867" lon="-0.41789833">
        <ele>722.0</ele>
        <time>2017-05-27T11:50:19.529Z</time>
      </trkpt>
      <trkpt lat="39.9867" lon="-0.41789833">
        <ele>722.0</ele>
        <time>2017-05-27T11:50:20.494Z</time>
      </trkpt>
      <trkpt lat="39.98667167" lon="-0.41797667">
        <ele>722.0</ele>
        <time>2017-05-27T11:50:21.516Z</time>
      </trkpt>
      <trkpt lat="39.98667167" lon="-0.41797667">
        <ele>722.0</ele>
        <time>2017-05-27T11:50:22.522Z</time>
      </trkpt>
      <trkpt lat="39.98664667" lon="-0.41805167">
        <ele>723.0</ele>
        <time>2017-05-27T11:50:23.502Z</time>
      </trkpt>
      <trkpt lat="39.98664667" lon="-0.41805167">
        <ele>723.0</ele>
        <time>2017-05-27T11:50:24.508Z</time>
      </trkpt>
      <trkpt lat="39.98662167" lon="-0.41812667">
        <ele>723.0</ele>
        <time>2017-05-27T11:50:25.517Z</time>
      </trkpt>
      <trkpt lat="39.98661" lon="-0.41816333">
        <ele>724.0</ele>
        <time>2017-05-27T11:50:26.505Z</time>
      </trkpt>
      <trkpt lat="39.98661" lon="-0.41816333">
        <ele>724.0</ele>
        <time>2017-05-27T11:50:27.497Z</time>
      </trkpt>
      <trkpt lat="39.98658667" lon="-0.41823833">
        <ele>724.0</ele>
        <time>2017-05-27T11:50:28.496Z</time>
      </trkpt>
      <trkpt lat="39.98657333" lon="-0.418275">
        <ele>724.0</ele>
        <time>2017-05-27T11:50:29.506Z</time>
      </trkpt>
      <trkpt lat="39.98657333" lon="-0.418275">
        <ele>724.0</ele>
        <time>2017-05-27T11:50:30.495Z</time>
      </trkpt>
      <trkpt lat="39.98654833" lon="-0.41834833">
        <ele>724.0</ele>
        <time>2017-05-27T11:50:31.493Z</time>
      </trkpt>
      <trkpt lat="39.98654833" lon="-0.41834833">
        <ele>724.0</ele>
        <time>2017-05-27T11:50:32.504Z</time>
      </trkpt>
      <trkpt lat="39.98652333" lon="-0.41842333">
        <ele>725.0</ele>
        <time>2017-05-27T11:50:33.498Z</time>
      </trkpt>
      <trkpt lat="39.98652333" lon="-0.41842333">
        <ele>725.0</ele>
        <time>2017-05-27T11:50:34.504Z</time>
      </trkpt>
      <trkpt lat="39.98649667" lon="-0.41850333">
        <ele>725.0</ele>
        <time>2017-05-27T11:50:35.501Z</time>
      </trkpt>
      <trkpt lat="39.98649667" lon="-0.41850333">
        <ele>725.0</ele>
        <time>2017-05-27T11:50:36.507Z</time>
      </trkpt>
      <trkpt lat="39.98647167" lon="-0.41858">
        <ele>726.0</ele>
        <time>2017-05-27T11:50:37.502Z</time>
      </trkpt>
      <trkpt lat="39.98647167" lon="-0.41858">
        <ele>726.0</ele>
        <time>2017-05-27T11:50:38.508Z</time>
      </trkpt>
      <trkpt lat="39.98644833" lon="-0.41865667">
        <ele>726.0</ele>
        <time>2017-05-27T11:50:39.508Z</time>
      </trkpt>
      <trkpt lat="39.98644833" lon="-0.41865667">
        <ele>726.0</ele>
        <time>2017-05-27T11:50:40.520Z</time>
      </trkpt>
      <trkpt lat="39.986425" lon="-0.41873333">
        <ele>726.0</ele>
        <time>2017-05-27T11:50:41.503Z</time>
      </trkpt>
      <trkpt lat="39.986425" lon="-0.41873333">
        <ele>726.0</ele>
        <time>2017-05-27T11:50:42.510Z</time>
      </trkpt>
      <trkpt lat="39.98640667" lon="-0.41881667">
        <ele>726.0</ele>
        <time>2017-05-27T11:50:43.502Z</time>
      </trkpt>
      <trkpt lat="39.98640667" lon="-0.41881667">
        <ele>726.0</ele>
        <time>2017-05-27T11:50:44.510Z</time>
      </trkpt>
      <trkpt lat="39.98639" lon="-0.4189">
        <ele>726.0</ele>
        <time>2017-05-27T11:50:45.504Z</time>
      </trkpt>
      <trkpt lat="39.98639" lon="-0.4189">
        <ele>726.0</ele>
        <time>2017-05-27T11:50:46.511Z</time>
      </trkpt>
      <trkpt lat="39.98637167" lon="-0.41899">
        <ele>726.0</ele>
        <time>2017-05-27T11:50:47.498Z</time>
      </trkpt>
      <trkpt lat="39.98637167" lon="-0.41899">
        <ele>726.0</ele>
        <time>2017-05-27T11:50:48.505Z</time>
      </trkpt>
      <trkpt lat="39.98635333" lon="-0.419085">
        <ele>726.0</ele>
        <time>2017-05-27T11:50:49.523Z</time>
      </trkpt>
      <trkpt lat="39.98635" lon="-0.41913">
        <ele>726.0</ele>
        <time>2017-05-27T11:50:50.518Z</time>
      </trkpt>
      <trkpt lat="39.98635" lon="-0.41913">
        <ele>726.0</ele>
        <time>2017-05-27T11:50:51.530Z</time>
      </trkpt>
      <trkpt lat="39.98635" lon="-0.41922667">
        <ele>726.0</ele>
        <time>2017-05-27T11:50:52.532Z</time>
      </trkpt>
      <trkpt lat="39.986355" lon="-0.41927833">
        <ele>726.0</ele>
        <time>2017-05-27T11:50:53.498Z</time>
      </trkpt>
      <trkpt lat="39.986355" lon="-0.41927833">
        <ele>726.0</ele>
        <time>2017-05-27T11:50:54.503Z</time>
      </trkpt>
      <trkpt lat="39.986375" lon="-0.41938333">
        <ele>726.0</ele>
        <time>2017-05-27T11:50:55.516Z</time>
      </trkpt>
      <trkpt lat="39.986375" lon="-0.41938333">
        <ele>726.0</ele>
        <time>2017-05-27T11:50:56.526Z</time>
      </trkpt>
      <trkpt lat="39.98640667" lon="-0.419485">
        <ele>726.0</ele>
        <time>2017-05-27T11:50:57.529Z</time>
      </trkpt>
      <trkpt lat="39.98640667" lon="-0.419485">
        <ele>726.0</ele>
        <time>2017-05-27T11:50:58.495Z</time>
      </trkpt>
      <trkpt lat="39.98645667" lon="-0.41957667">
        <ele>725.0</ele>
        <time>2017-05-27T11:50:59.496Z</time>
      </trkpt>
      <trkpt lat="39.98645667" lon="-0.41957667">
        <ele>725.0</ele>
        <time>2017-05-27T11:51:00.502Z</time>
      </trkpt>
      <trkpt lat="39.98653" lon="-0.419645">
        <ele>725.0</ele>
        <time>2017-05-27T11:51:01.504Z</time>
      </trkpt>
      <trkpt lat="39.98653" lon="-0.419645">
        <ele>725.0</ele>
        <time>2017-05-27T11:51:02.509Z</time>
      </trkpt>
      <trkpt lat="39.98662" lon="-0.41968333">
        <ele>725.0</ele>
        <time>2017-05-27T11:51:03.506Z</time>
      </trkpt>
      <trkpt lat="39.98662" lon="-0.41968333">
        <ele>725.0</ele>
        <time>2017-05-27T11:51:04.512Z</time>
      </trkpt>
      <trkpt lat="39.98672" lon="-0.41968667">
        <ele>724.0</ele>
        <time>2017-05-27T11:51:05.527Z</time>
      </trkpt>
      <trkpt lat="39.98672" lon="-0.41968667">
        <ele>724.0</ele>
        <time>2017-05-27T11:51:06.495Z</time>
      </trkpt>
      <trkpt lat="39.98682333" lon="-0.419645">
        <ele>724.0</ele>
        <time>2017-05-27T11:51:07.526Z</time>
      </trkpt>
      <trkpt lat="39.98682333" lon="-0.419645">
        <ele>724.0</ele>
        <time>2017-05-27T11:51:08.495Z</time>
      </trkpt>
      <trkpt lat="39.98692667" lon="-0.41956">
        <ele>723.0</ele>
        <time>2017-05-27T11:51:09.499Z</time>
      </trkpt>
      <trkpt lat="39.98697667" lon="-0.41950667">
        <ele>723.0</ele>
        <time>2017-05-27T11:51:10.506Z</time>
      </trkpt>
      <trkpt lat="39.98697667" lon="-0.41950667">
        <ele>723.0</ele>
        <time>2017-05-27T11:51:11.512Z</time>
      </trkpt>
      <trkpt lat="39.98707667" lon="-0.419375">
        <ele>722.0</ele>
        <time>2017-05-27T11:51:12.530Z</time>
      </trkpt>
      <trkpt lat="39.98707667" lon="-0.419375">
        <ele>722.0</ele>
        <time>2017-05-27T11:51:13.496Z</time>
      </trkpt>
      <trkpt lat="39.98718833" lon="-0.41922667">
        <ele>720.0</ele>
        <time>2017-05-27T11:51:14.506Z</time>
      </trkpt>
      <trkpt lat="39.98724167" lon="-0.41914833">
        <ele>720.0</ele>
        <time>2017-05-27T11:51:15.496Z</time>
      </trkpt>
      <trkpt lat="39.98729833" lon="-0.419065">
        <ele>719.0</ele>
        <time>2017-05-27T11:51:16.502Z</time>
      </trkpt>
      <trkpt lat="39.98729833" lon="-0.419065">
        <ele>719.0</ele>
        <time>2017-05-27T11:51:17.509Z</time>
      </trkpt>
      <trkpt lat="39.98742833" lon="-0.41889833">
        <ele>717.0</ele>
        <time>2017-05-27T11:51:18.506Z</time>
      </trkpt>
      <trkpt lat="39.98750667" lon="-0.41882167">
        <ele>716.0</ele>
        <time>2017-05-27T11:51:19.528Z</time>
      </trkpt>
      <trkpt lat="39.98750667" lon="-0.41882167">
        <ele>716.0</ele>
        <time>2017-05-27T11:51:20.493Z</time>
      </trkpt>
      <trkpt lat="39.987675" lon="-0.41871">
        <ele>714.0</ele>
        <time>2017-05-27T11:51:21.513Z</time>
      </trkpt>
      <trkpt lat="39.987765" lon="-0.41867167">
        <ele>713.0</ele>
        <time>2017-05-27T11:51:22.497Z</time>
      </trkpt>
      <trkpt lat="39.987765" lon="-0.41867167">
        <ele>713.0</ele>
        <time>2017-05-27T11:51:23.505Z</time>
      </trkpt>
      <trkpt lat="39.987935" lon="-0.41865333">
        <ele>711.0</ele>
        <time>2017-05-27T11:51:24.492Z</time>
      </trkpt>
      <trkpt lat="39.98802667" lon="-0.4187">
        <ele>710.0</ele>
        <time>2017-05-27T11:51:25.522Z</time>
      </trkpt>
      <trkpt lat="39.98802667" lon="-0.4187">
        <ele>710.0</ele>
        <time>2017-05-27T11:51:26.496Z</time>
      </trkpt>
      <trkpt lat="39.98818833" lon="-0.41887667">
        <ele>710.0</ele>
        <time>2017-05-27T11:51:27.528Z</time>
      </trkpt>
      <trkpt lat="39.98818833" lon="-0.41887667">
        <ele>710.0</ele>
        <time>2017-05-27T11:51:28.497Z</time>
      </trkpt>
      <trkpt lat="39.98826167" lon="-0.41912">
        <ele>710.0</ele>
        <time>2017-05-27T11:51:29.530Z</time>
      </trkpt>
      <trkpt lat="39.98826167" lon="-0.41912">
        <ele>710.0</ele>
        <time>2017-05-27T11:51:30.500Z</time>
      </trkpt>
      <trkpt lat="39.98826667" lon="-0.41937167">
        <ele>709.0</ele>
        <time>2017-05-27T11:51:31.524Z</time>
      </trkpt>
      <trkpt lat="39.98826667" lon="-0.41937167">
        <ele>709.0</ele>
        <time>2017-05-27T11:51:32.496Z</time>
      </trkpt>
      <trkpt lat="39.98824" lon="-0.41961667">
        <ele>709.0</ele>
        <time>2017-05-27T11:51:33.494Z</time>
      </trkpt>
      <trkpt lat="39.98824" lon="-0.41961667">
        <ele>709.0</ele>
        <time>2017-05-27T11:51:34.501Z</time>
      </trkpt>
      <trkpt lat="39.98822" lon="-0.419865">
        <ele>709.0</ele>
        <time>2017-05-27T11:51:35.494Z</time>
      </trkpt>
      <trkpt lat="39.98822" lon="-0.419865">
        <ele>709.0</ele>
        <time>2017-05-27T11:51:36.500Z</time>
      </trkpt>
      <trkpt lat="39.9882" lon="-0.420115">
        <ele>708.0</ele>
        <time>2017-05-27T11:51:37.527Z</time>
      </trkpt>
      <trkpt lat="39.9882" lon="-0.420115">
        <ele>708.0</ele>
        <time>2017-05-27T11:51:38.494Z</time>
      </trkpt>
      <trkpt lat="39.98817833" lon="-0.42036833">
        <ele>708.0</ele>
        <time>2017-05-27T11:51:39.513Z</time>
      </trkpt>
      <trkpt lat="39.98817833" lon="-0.42036833">
        <ele>708.0</ele>
        <time>2017-05-27T11:51:40.492Z</time>
      </trkpt>
      <trkpt lat="39.98815667" lon="-0.42062167">
        <ele>707.0</ele>
        <time>2017-05-27T11:51:41.526Z</time>
      </trkpt>
      <trkpt lat="39.98815667" lon="-0.42062167">
        <ele>707.0</ele>
        <time>2017-05-27T11:51:42.496Z</time>
      </trkpt>
      <trkpt lat="39.98812833" lon="-0.420875">
        <ele>707.0</ele>
        <time>2017-05-27T11:51:43.529Z</time>
      </trkpt>
      <trkpt lat="39.98812833" lon="-0.42100167">
        <ele>706.0</ele>
        <time>2017-05-27T11:51:44.504Z</time>
      </trkpt>
      <trkpt lat="39.98812833" lon="-0.42100167">
        <ele>706.0</ele>
        <time>2017-05-27T11:51:45.513Z</time>
      </trkpt>
      <trkpt lat="39.98820167" lon="-0.42122">
        <ele>706.0</ele>
        <time>2017-05-27T11:51:46.503Z</time>
      </trkpt>
      <trkpt lat="39.98826667" lon="-0.42129">
        <ele>706.0</ele>
        <time>2017-05-27T11:51:47.494Z</time>
      </trkpt>
      <trkpt lat="39.988345" lon="-0.42132167">
        <ele>706.0</ele>
        <time>2017-05-27T11:51:48.522Z</time>
      </trkpt>
      <trkpt lat="39.988345" lon="-0.42132167">
        <ele>706.0</ele>
        <time>2017-05-27T11:51:49.495Z</time>
      </trkpt>
      <trkpt lat="39.98852" lon="-0.421325">
        <ele>705.0</ele>
        <time>2017-05-27T11:51:50.518Z</time>
      </trkpt>
      <trkpt lat="39.98852" lon="-0.421325">
        <ele>705.0</ele>
        <time>2017-05-27T11:51:51.494Z</time>
      </trkpt>
      <trkpt lat="39.988695" lon="-0.42127833">
        <ele>704.0</ele>
        <time>2017-05-27T11:51:52.517Z</time>
      </trkpt>
      <trkpt lat="39.98878167" lon="-0.42125167">
        <ele>704.0</ele>
        <time>2017-05-27T11:51:53.516Z</time>
      </trkpt>
      <trkpt lat="39.98878167" lon="-0.42125167">
        <ele>704.0</ele>
        <time>2017-05-27T11:51:54.494Z</time>
      </trkpt>
      <trkpt lat="39.988955" lon="-0.42120167">
        <ele>704.0</ele>
        <time>2017-05-27T11:51:55.506Z</time>
      </trkpt>
      <trkpt lat="39.988955" lon="-0.42120167">
        <ele>704.0</ele>
        <time>2017-05-27T11:51:56.512Z</time>
      </trkpt>
      <trkpt lat="39.98911833" lon="-0.42113833">
        <ele>703.0</ele>
        <time>2017-05-27T11:51:57.495Z</time>
      </trkpt>
      <trkpt lat="39.98920167" lon="-0.42110667">
        <ele>702.0</ele>
        <time>2017-05-27T11:51:58.501Z</time>
      </trkpt>
      <trkpt lat="39.98920167" lon="-0.42110667">
        <ele>702.0</ele>
        <time>2017-05-27T11:51:59.507Z</time>
      </trkpt>
      <trkpt lat="39.98936833" lon="-0.42105333">
        <ele>702.0</ele>
        <time>2017-05-27T11:52:00.525Z</time>
      </trkpt>
      <trkpt lat="39.98945167" lon="-0.42103333">
        <ele>702.0</ele>
        <time>2017-05-27T11:52:01.501Z</time>
      </trkpt>
      <trkpt lat="39.98945167" lon="-0.42103333">
        <ele>702.0</ele>
        <time>2017-05-27T11:52:02.507Z</time>
      </trkpt>
      <trkpt lat="39.98962333" lon="-0.42100667">
        <ele>701.0</ele>
        <time>2017-05-27T11:52:03.494Z</time>
      </trkpt>
      <trkpt lat="39.98962333" lon="-0.42100667">
        <ele>701.0</ele>
        <time>2017-05-27T11:52:04.500Z</time>
      </trkpt>
      <trkpt lat="39.98979167" lon="-0.420995">
        <ele>701.0</ele>
        <time>2017-05-27T11:52:05.512Z</time>
      </trkpt>
      <trkpt lat="39.98979167" lon="-0.420995">
        <ele>701.0</ele>
        <time>2017-05-27T11:52:06.518Z</time>
      </trkpt>
      <trkpt lat="39.98996167" lon="-0.42100167">
        <ele>701.0</ele>
        <time>2017-05-27T11:52:07.507Z</time>
      </trkpt>
      <trkpt lat="39.98996167" lon="-0.42100167">
        <ele>701.0</ele>
        <time>2017-05-27T11:52:08.513Z</time>
      </trkpt>
      <trkpt lat="39.99012833" lon="-0.42102833">
        <ele>701.0</ele>
        <time>2017-05-27T11:52:09.516Z</time>
      </trkpt>
      <trkpt lat="39.99012833" lon="-0.42102833">
        <ele>701.0</ele>
        <time>2017-05-27T11:52:10.522Z</time>
      </trkpt>
      <trkpt lat="39.99028833" lon="-0.42106833">
        <ele>701.0</ele>
        <time>2017-05-27T11:52:11.514Z</time>
      </trkpt>
      <trkpt lat="39.99028833" lon="-0.42106833">
        <ele>701.0</ele>
        <time>2017-05-27T11:52:12.512Z</time>
      </trkpt>
      <trkpt lat="39.990445" lon="-0.421115">
        <ele>701.0</ele>
        <time>2017-05-27T11:52:13.526Z</time>
      </trkpt>
      <trkpt lat="39.990445" lon="-0.421115">
        <ele>701.0</ele>
        <time>2017-05-27T11:52:14.496Z</time>
      </trkpt>
      <trkpt lat="39.99059167" lon="-0.42116833">
        <ele>700.0</ele>
        <time>2017-05-27T11:52:15.519Z</time>
      </trkpt>
      <trkpt lat="39.99059167" lon="-0.42116833">
        <ele>700.0</ele>
        <time>2017-05-27T11:52:16.497Z</time>
      </trkpt>
      <trkpt lat="39.99073" lon="-0.42122833">
        <ele>701.0</ele>
        <time>2017-05-27T11:52:17.494Z</time>
      </trkpt>
      <trkpt lat="39.99073" lon="-0.42122833">
        <ele>701.0</ele>
        <time>2017-05-27T11:52:18.500Z</time>
      </trkpt>
      <trkpt lat="39.99086167" lon="-0.42128667">
        <ele>702.0</ele>
        <time>2017-05-27T11:52:19.526Z</time>
      </trkpt>
      <trkpt lat="39.99086167" lon="-0.42128667">
        <ele>702.0</ele>
        <time>2017-05-27T11:52:20.497Z</time>
      </trkpt>
      <trkpt lat="39.99097667" lon="-0.42134667">
        <ele>702.0</ele>
        <time>2017-05-27T11:52:21.495Z</time>
      </trkpt>
      <trkpt lat="39.99102667" lon="-0.42138333">
        <ele>702.0</ele>
        <time>2017-05-27T11:52:22.531Z</time>
      </trkpt>
      <trkpt lat="39.99106833" lon="-0.421425">
        <ele>703.0</ele>
        <time>2017-05-27T11:52:23.504Z</time>
      </trkpt>
      <trkpt lat="39.99106833" lon="-0.421425">
        <ele>703.0</ele>
        <time>2017-05-27T11:52:24.509Z</time>
      </trkpt>
      <trkpt lat="39.99113333" lon="-0.42151833">
        <ele>703.0</ele>
        <time>2017-05-27T11:52:25.528Z</time>
      </trkpt>
      <trkpt lat="39.99113333" lon="-0.42151833">
        <ele>703.0</ele>
        <time>2017-05-27T11:52:26.495Z</time>
      </trkpt>
      <trkpt lat="39.99117667" lon="-0.42162">
        <ele>704.0</ele>
        <time>2017-05-27T11:52:27.528Z</time>
      </trkpt>
      <trkpt lat="39.99117667" lon="-0.42162">
        <ele>704.0</ele>
        <time>2017-05-27T11:52:28.493Z</time>
      </trkpt>
      <trkpt lat="39.99120667" lon="-0.42172167">
        <ele>705.0</ele>
        <time>2017-05-27T11:52:29.530Z</time>
      </trkpt>
      <trkpt lat="39.99120667" lon="-0.42172167">
        <ele>705.0</ele>
        <time>2017-05-27T11:52:30.495Z</time>
      </trkpt>
      <trkpt lat="39.99122667" lon="-0.421815">
        <ele>705.0</ele>
        <time>2017-05-27T11:52:31.495Z</time>
      </trkpt>
      <trkpt lat="39.99122667" lon="-0.421815">
        <ele>705.0</ele>
        <time>2017-05-27T11:52:32.504Z</time>
      </trkpt>
      <trkpt lat="39.991235" lon="-0.42190667">
        <ele>705.0</ele>
        <time>2017-05-27T11:52:33.529Z</time>
      </trkpt>
      <trkpt lat="39.991235" lon="-0.42190667">
        <ele>705.0</ele>
        <time>2017-05-27T11:52:34.497Z</time>
      </trkpt>
      <trkpt lat="39.99124833" lon="-0.42199333">
        <ele>705.0</ele>
        <time>2017-05-27T11:52:35.506Z</time>
      </trkpt>
      <trkpt lat="39.99124833" lon="-0.42199333">
        <ele>705.0</ele>
        <time>2017-05-27T11:52:36.512Z</time>
      </trkpt>
      <trkpt lat="39.99126333" lon="-0.42207833">
        <ele>705.0</ele>
        <time>2017-05-27T11:52:37.532Z</time>
      </trkpt>
      <trkpt lat="39.99127" lon="-0.42212167">
        <ele>706.0</ele>
        <time>2017-05-27T11:52:38.493Z</time>
      </trkpt>
      <trkpt lat="39.99127" lon="-0.42212167">
        <ele>706.0</ele>
        <time>2017-05-27T11:52:39.512Z</time>
      </trkpt>
      <trkpt lat="39.991285" lon="-0.42220833">
        <ele>706.0</ele>
        <time>2017-05-27T11:52:40.516Z</time>
      </trkpt>
      <trkpt lat="39.99129167" lon="-0.42225333">
        <ele>706.0</ele>
        <time>2017-05-27T11:52:41.510Z</time>
      </trkpt>
      <trkpt lat="39.99129167" lon="-0.42225333">
        <ele>706.0</ele>
        <time>2017-05-27T11:52:42.515Z</time>
      </trkpt>
      <trkpt lat="39.99130167" lon="-0.42234167">
        <ele>706.0</ele>
        <time>2017-05-27T11:52:43.496Z</time>
      </trkpt>
      <trkpt lat="39.99130333" lon="-0.42238667">
        <ele>707.0</ele>
        <time>2017-05-27T11:52:44.533Z</time>
      </trkpt>
      <trkpt lat="39.99130333" lon="-0.42238667">
        <ele>707.0</ele>
        <time>2017-05-27T11:52:45.506Z</time>
      </trkpt>
      <trkpt lat="39.99131" lon="-0.42247">
        <ele>707.0</ele>
        <time>2017-05-27T11:52:46.496Z</time>
      </trkpt>
      <trkpt lat="39.99131" lon="-0.42251333">
        <ele>707.0</ele>
        <time>2017-05-27T11:52:47.500Z</time>
      </trkpt>
      <trkpt lat="39.99131" lon="-0.42251333">
        <ele>707.0</ele>
        <time>2017-05-27T11:52:48.506Z</time>
      </trkpt>
      <trkpt lat="39.99130333" lon="-0.42259667">
        <ele>707.0</ele>
        <time>2017-05-27T11:52:49.496Z</time>
      </trkpt>
      <trkpt lat="39.99130333" lon="-0.42259667">
        <ele>707.0</ele>
        <time>2017-05-27T11:52:50.504Z</time>
      </trkpt>
      <trkpt lat="39.99129667" lon="-0.42268167">
        <ele>708.0</ele>
        <time>2017-05-27T11:52:51.506Z</time>
      </trkpt>
      <trkpt lat="39.99129667" lon="-0.42268167">
        <ele>708.0</ele>
        <time>2017-05-27T11:52:52.512Z</time>
      </trkpt>
      <trkpt lat="39.99128667" lon="-0.42276667">
        <ele>708.0</ele>
        <time>2017-05-27T11:52:53.516Z</time>
      </trkpt>
      <trkpt lat="39.99128" lon="-0.42280833">
        <ele>708.0</ele>
        <time>2017-05-27T11:52:54.524Z</time>
      </trkpt>
      <trkpt lat="39.99128" lon="-0.42280833">
        <ele>708.0</ele>
        <time>2017-05-27T11:52:55.496Z</time>
      </trkpt>
      <trkpt lat="39.991265" lon="-0.42288667">
        <ele>709.0</ele>
        <time>2017-05-27T11:52:56.493Z</time>
      </trkpt>
      <trkpt lat="39.991265" lon="-0.42288667">
        <ele>709.0</ele>
        <time>2017-05-27T11:52:57.502Z</time>
      </trkpt>
      <trkpt lat="39.99124167" lon="-0.422965">
        <ele>709.0</ele>
        <time>2017-05-27T11:52:58.502Z</time>
      </trkpt>
      <trkpt lat="39.99124167" lon="-0.422965">
        <ele>709.0</ele>
        <time>2017-05-27T11:52:59.508Z</time>
      </trkpt>
      <trkpt lat="39.99122333" lon="-0.42303833">
        <ele>710.0</ele>
        <time>2017-05-27T11:53:00.509Z</time>
      </trkpt>
      <trkpt lat="39.99122333" lon="-0.42303833">
        <ele>710.0</ele>
        <time>2017-05-27T11:53:01.516Z</time>
      </trkpt>
      <trkpt lat="39.99119" lon="-0.42311167">
        <ele>710.0</ele>
        <time>2017-05-27T11:53:02.504Z</time>
      </trkpt>
      <trkpt lat="39.99119" lon="-0.42311167">
        <ele>710.0</ele>
        <time>2017-05-27T11:53:03.506Z</time>
      </trkpt>
      <trkpt lat="39.99116" lon="-0.42318667">
        <ele>710.0</ele>
        <time>2017-05-27T11:53:04.504Z</time>
      </trkpt>
      <trkpt lat="39.991145" lon="-0.423225">
        <ele>711.0</ele>
        <time>2017-05-27T11:53:05.514Z</time>
      </trkpt>
      <trkpt lat="39.991145" lon="-0.423225">
        <ele>711.0</ele>
        <time>2017-05-27T11:53:06.521Z</time>
      </trkpt>
      <trkpt lat="39.99111667" lon="-0.42330167">
        <ele>711.0</ele>
        <time>2017-05-27T11:53:07.516Z</time>
      </trkpt>
      <trkpt lat="39.991105" lon="-0.42333833">
        <ele>711.0</ele>
        <time>2017-05-27T11:53:08.497Z</time>
      </trkpt>
      <trkpt lat="39.991105" lon="-0.42333833">
        <ele>711.0</ele>
        <time>2017-05-27T11:53:09.503Z</time>
      </trkpt>
      <trkpt lat="39.99108167" lon="-0.42341167">
        <ele>711.0</ele>
        <time>2017-05-27T11:53:10.500Z</time>
      </trkpt>
      <trkpt lat="39.99108167" lon="-0.42341167">
        <ele>711.0</ele>
        <time>2017-05-27T11:53:11.506Z</time>
      </trkpt>
      <trkpt lat="39.99106667" lon="-0.42349">
        <ele>712.0</ele>
        <time>2017-05-27T11:53:12.496Z</time>
      </trkpt>
      <trkpt lat="39.99106167" lon="-0.42353167">
        <ele>712.0</ele>
        <time>2017-05-27T11:53:13.495Z</time>
      </trkpt>
      <trkpt lat="39.99106167" lon="-0.42353167">
        <ele>712.0</ele>
        <time>2017-05-27T11:53:14.504Z</time>
      </trkpt>
      <trkpt lat="39.991055" lon="-0.42361">
        <ele>712.0</ele>
        <time>2017-05-27T11:53:15.500Z</time>
      </trkpt>
      <trkpt lat="39.991055" lon="-0.42361">
        <ele>712.0</ele>
        <time>2017-05-27T11:53:16.506Z</time>
      </trkpt>
      <trkpt lat="39.99105167" lon="-0.42369167">
        <ele>713.0</ele>
        <time>2017-05-27T11:53:17.516Z</time>
      </trkpt>
      <trkpt lat="39.99105167" lon="-0.42369167">
        <ele>713.0</ele>
        <time>2017-05-27T11:53:18.492Z</time>
      </trkpt>
      <trkpt lat="39.991055" lon="-0.42377333">
        <ele>713.0</ele>
        <time>2017-05-27T11:53:19.504Z</time>
      </trkpt>
      <trkpt lat="39.991055" lon="-0.42377333">
        <ele>713.0</ele>
        <time>2017-05-27T11:53:20.510Z</time>
      </trkpt>
      <trkpt lat="39.99106167" lon="-0.42385667">
        <ele>713.0</ele>
        <time>2017-05-27T11:53:21.496Z</time>
      </trkpt>
      <trkpt lat="39.99106167" lon="-0.42385667">
        <ele>713.0</ele>
        <time>2017-05-27T11:53:22.502Z</time>
      </trkpt>
      <trkpt lat="39.99106667" lon="-0.42394167">
        <ele>713.0</ele>
        <time>2017-05-27T11:53:23.501Z</time>
      </trkpt>
      <trkpt lat="39.99106667" lon="-0.42394167">
        <ele>713.0</ele>
        <time>2017-05-27T11:53:24.507Z</time>
      </trkpt>
      <trkpt lat="39.99107167" lon="-0.42402667">
        <ele>713.0</ele>
        <time>2017-05-27T11:53:25.527Z</time>
      </trkpt>
      <trkpt lat="39.99107167" lon="-0.42402667">
        <ele>713.0</ele>
        <time>2017-05-27T11:53:26.496Z</time>
      </trkpt>
      <trkpt lat="39.99108" lon="-0.42411167">
        <ele>714.0</ele>
        <time>2017-05-27T11:53:27.507Z</time>
      </trkpt>
      <trkpt lat="39.99108167" lon="-0.424155">
        <ele>714.0</ele>
        <time>2017-05-27T11:53:28.499Z</time>
      </trkpt>
      <trkpt lat="39.99108167" lon="-0.424155">
        <ele>714.0</ele>
        <time>2017-05-27T11:53:29.505Z</time>
      </trkpt>
      <trkpt lat="39.99108167" lon="-0.42424">
        <ele>714.0</ele>
        <time>2017-05-27T11:53:30.496Z</time>
      </trkpt>
      <trkpt lat="39.991085" lon="-0.42428333">
        <ele>714.0</ele>
        <time>2017-05-27T11:53:31.504Z</time>
      </trkpt>
      <trkpt lat="39.991085" lon="-0.42428333">
        <ele>714.0</ele>
        <time>2017-05-27T11:53:32.510Z</time>
      </trkpt>
      <trkpt lat="39.99109333" lon="-0.42436833">
        <ele>715.0</ele>
        <time>2017-05-27T11:53:33.510Z</time>
      </trkpt>
      <trkpt lat="39.99109333" lon="-0.42436833">
        <ele>715.0</ele>
        <time>2017-05-27T11:53:34.516Z</time>
      </trkpt>
      <trkpt lat="39.99110167" lon="-0.42445333">
        <ele>715.0</ele>
        <time>2017-05-27T11:53:35.496Z</time>
      </trkpt>
      <trkpt lat="39.99110167" lon="-0.42445333">
        <ele>715.0</ele>
        <time>2017-05-27T11:53:36.504Z</time>
      </trkpt>
      <trkpt lat="39.99111" lon="-0.42453667">
        <ele>715.0</ele>
        <time>2017-05-27T11:53:37.491Z</time>
      </trkpt>
      <trkpt lat="39.99111833" lon="-0.42457833">
        <ele>715.0</ele>
        <time>2017-05-27T11:53:38.527Z</time>
      </trkpt>
      <trkpt lat="39.99111833" lon="-0.42457833">
        <ele>715.0</ele>
        <time>2017-05-27T11:53:39.504Z</time>
      </trkpt>
      <trkpt lat="39.991145" lon="-0.42465667">
        <ele>715.0</ele>
        <time>2017-05-27T11:53:40.499Z</time>
      </trkpt>
      <trkpt lat="39.99116167" lon="-0.42469667">
        <ele>715.0</ele>
        <time>2017-05-27T11:53:41.499Z</time>
      </trkpt>
      <trkpt lat="39.99117833" lon="-0.42473333">
        <ele>715.0</ele>
        <time>2017-05-27T11:53:42.501Z</time>
      </trkpt>
      <trkpt lat="39.99117833" lon="-0.42473333">
        <ele>715.0</ele>
        <time>2017-05-27T11:53:43.508Z</time>
      </trkpt>
      <trkpt lat="39.99122" lon="-0.42480167">
        <ele>715.0</ele>
        <time>2017-05-27T11:53:44.527Z</time>
      </trkpt>
      <trkpt lat="39.99122" lon="-0.42480167">
        <ele>715.0</ele>
        <time>2017-05-27T11:53:45.497Z</time>
      </trkpt>
      <trkpt lat="39.99126833" lon="-0.42486167">
        <ele>715.0</ele>
        <time>2017-05-27T11:53:46.516Z</time>
      </trkpt>
      <trkpt lat="39.99129333" lon="-0.42489167">
        <ele>715.0</ele>
        <time>2017-05-27T11:53:47.528Z</time>
      </trkpt>
      <trkpt lat="39.99129333" lon="-0.42489167">
        <ele>715.0</ele>
        <time>2017-05-27T11:53:48.495Z</time>
      </trkpt>
      <trkpt lat="39.99134" lon="-0.42495167">
        <ele>715.0</ele>
        <time>2017-05-27T11:53:49.516Z</time>
      </trkpt>
      <trkpt lat="39.99134" lon="-0.42495167">
        <ele>715.0</ele>
        <time>2017-05-27T11:53:50.495Z</time>
      </trkpt>
      <trkpt lat="39.99138667" lon="-0.42501167">
        <ele>715.0</ele>
        <time>2017-05-27T11:53:51.529Z</time>
      </trkpt>
      <trkpt lat="39.99138667" lon="-0.42501167">
        <ele>715.0</ele>
        <time>2017-05-27T11:53:52.495Z</time>
      </trkpt>
      <trkpt lat="39.99143667" lon="-0.42507167">
        <ele>716.0</ele>
        <time>2017-05-27T11:53:53.501Z</time>
      </trkpt>
      <trkpt lat="39.99143667" lon="-0.42507167">
        <ele>716.0</ele>
        <time>2017-05-27T11:53:54.508Z</time>
      </trkpt>
      <trkpt lat="39.991485" lon="-0.42513667">
        <ele>716.0</ele>
        <time>2017-05-27T11:53:55.524Z</time>
      </trkpt>
      <trkpt lat="39.99151" lon="-0.42516833">
        <ele>716.0</ele>
        <time>2017-05-27T11:53:56.504Z</time>
      </trkpt>
      <trkpt lat="39.99151" lon="-0.42516833">
        <ele>716.0</ele>
        <time>2017-05-27T11:53:57.508Z</time>
      </trkpt>
      <trkpt lat="39.99156333" lon="-0.42522833">
        <ele>716.0</ele>
        <time>2017-05-27T11:53:58.502Z</time>
      </trkpt>
      <trkpt lat="39.99156333" lon="-0.42522833">
        <ele>716.0</ele>
        <time>2017-05-27T11:53:59.509Z</time>
      </trkpt>
      <trkpt lat="39.99161667" lon="-0.42529167">
        <ele>716.0</ele>
        <time>2017-05-27T11:54:00.509Z</time>
      </trkpt>
      <trkpt lat="39.99161667" lon="-0.42529167">
        <ele>716.0</ele>
        <time>2017-05-27T11:54:01.517Z</time>
      </trkpt>
      <trkpt lat="39.99167" lon="-0.42535667">
        <ele>716.0</ele>
        <time>2017-05-27T11:54:02.528Z</time>
      </trkpt>
      <trkpt lat="39.99167" lon="-0.42535667">
        <ele>716.0</ele>
        <time>2017-05-27T11:54:03.495Z</time>
      </trkpt>
      <trkpt lat="39.99172167" lon="-0.42542333">
        <ele>716.0</ele>
        <time>2017-05-27T11:54:04.496Z</time>
      </trkpt>
      <trkpt lat="39.99172167" lon="-0.42542333">
        <ele>716.0</ele>
        <time>2017-05-27T11:54:05.502Z</time>
      </trkpt>
      <trkpt lat="39.99177" lon="-0.425495">
        <ele>715.0</ele>
        <time>2017-05-27T11:54:06.497Z</time>
      </trkpt>
      <trkpt lat="39.99177" lon="-0.425495">
        <ele>715.0</ele>
        <time>2017-05-27T11:54:07.503Z</time>
      </trkpt>
      <trkpt lat="39.991815" lon="-0.42557167">
        <ele>715.0</ele>
        <time>2017-05-27T11:54:08.502Z</time>
      </trkpt>
      <trkpt lat="39.99183833" lon="-0.42561167">
        <ele>715.0</ele>
        <time>2017-05-27T11:54:09.525Z</time>
      </trkpt>
      <trkpt lat="39.99183833" lon="-0.42561167">
        <ele>715.0</ele>
        <time>2017-05-27T11:54:10.496Z</time>
      </trkpt>
      <trkpt lat="39.991885" lon="-0.425695">
        <ele>715.0</ele>
        <time>2017-05-27T11:54:11.495Z</time>
      </trkpt>
      <trkpt lat="39.991885" lon="-0.425695">
        <ele>715.0</ele>
        <time>2017-05-27T11:54:12.513Z</time>
      </trkpt>
      <trkpt lat="39.99193" lon="-0.42578833">
        <ele>715.0</ele>
        <time>2017-05-27T11:54:13.505Z</time>
      </trkpt>
      <trkpt lat="39.99195167" lon="-0.42583833">
        <ele>714.0</ele>
        <time>2017-05-27T11:54:14.529Z</time>
      </trkpt>
      <trkpt lat="39.99197333" lon="-0.42589167">
        <ele>714.0</ele>
        <time>2017-05-27T11:54:15.500Z</time>
      </trkpt>
      <trkpt lat="39.99197333" lon="-0.42589167">
        <ele>714.0</ele>
        <time>2017-05-27T11:54:16.506Z</time>
      </trkpt>
      <trkpt lat="39.99201167" lon="-0.426005">
        <ele>714.0</ele>
        <time>2017-05-27T11:54:17.503Z</time>
      </trkpt>
      <trkpt lat="39.99201167" lon="-0.426005">
        <ele>714.0</ele>
        <time>2017-05-27T11:54:18.509Z</time>
      </trkpt>
      <trkpt lat="39.99204667" lon="-0.42612833">
        <ele>714.0</ele>
        <time>2017-05-27T11:54:19.513Z</time>
      </trkpt>
      <trkpt lat="39.99204667" lon="-0.42612833">
        <ele>714.0</ele>
        <time>2017-05-27T11:54:20.521Z</time>
      </trkpt>
      <trkpt lat="39.99207667" lon="-0.42625833">
        <ele>714.0</ele>
        <time>2017-05-27T11:54:21.501Z</time>
      </trkpt>
      <trkpt lat="39.99209333" lon="-0.42632667">
        <ele>714.0</ele>
        <time>2017-05-27T11:54:22.526Z</time>
      </trkpt>
      <trkpt lat="39.99209333" lon="-0.42632667">
        <ele>714.0</ele>
        <time>2017-05-27T11:54:23.491Z</time>
      </trkpt>
      <trkpt lat="39.99212333" lon="-0.426465">
        <ele>714.0</ele>
        <time>2017-05-27T11:54:24.529Z</time>
      </trkpt>
      <trkpt lat="39.99212333" lon="-0.426465">
        <ele>714.0</ele>
        <time>2017-05-27T11:54:25.496Z</time>
      </trkpt>
      <trkpt lat="39.99215667" lon="-0.42661">
        <ele>713.0</ele>
        <time>2017-05-27T11:54:26.506Z</time>
      </trkpt>
      <trkpt lat="39.99215667" lon="-0.42661">
        <ele>713.0</ele>
        <time>2017-05-27T11:54:27.512Z</time>
      </trkpt>
      <trkpt lat="39.99218833" lon="-0.42676333">
        <ele>713.0</ele>
        <time>2017-05-27T11:54:28.505Z</time>
      </trkpt>
      <trkpt lat="39.99218833" lon="-0.42676333">
        <ele>713.0</ele>
        <time>2017-05-27T11:54:29.512Z</time>
      </trkpt>
      <trkpt lat="39.992225" lon="-0.42692167">
        <ele>713.0</ele>
        <time>2017-05-27T11:54:30.506Z</time>
      </trkpt>
      <trkpt lat="39.992225" lon="-0.42692167">
        <ele>713.0</ele>
        <time>2017-05-27T11:54:31.512Z</time>
      </trkpt>
      <trkpt lat="39.99226333" lon="-0.427085">
        <ele>712.0</ele>
        <time>2017-05-27T11:54:32.513Z</time>
      </trkpt>
      <trkpt lat="39.99226333" lon="-0.427085">
        <ele>712.0</ele>
        <time>2017-05-27T11:54:33.519Z</time>
      </trkpt>
      <trkpt lat="39.99230167" lon="-0.427255">
        <ele>712.0</ele>
        <time>2017-05-27T11:54:34.510Z</time>
      </trkpt>
      <trkpt lat="39.99230167" lon="-0.427255">
        <ele>712.0</ele>
        <time>2017-05-27T11:54:35.516Z</time>
      </trkpt>
      <trkpt lat="39.99234667" lon="-0.42743">
        <ele>711.0</ele>
        <time>2017-05-27T11:54:36.509Z</time>
      </trkpt>
      <trkpt lat="39.99234667" lon="-0.42743">
        <ele>711.0</ele>
        <time>2017-05-27T11:54:37.515Z</time>
      </trkpt>
      <trkpt lat="39.99239667" lon="-0.42760667">
        <ele>711.0</ele>
        <time>2017-05-27T11:54:38.495Z</time>
      </trkpt>
      <trkpt lat="39.99239667" lon="-0.42760667">
        <ele>711.0</ele>
        <time>2017-05-27T11:54:39.518Z</time>
      </trkpt>
      <trkpt lat="39.99244833" lon="-0.42778333">
        <ele>710.0</ele>
        <time>2017-05-27T11:54:40.504Z</time>
      </trkpt>
      <trkpt lat="39.99244833" lon="-0.42778333">
        <ele>710.0</ele>
        <time>2017-05-27T11:54:41.507Z</time>
      </trkpt>
      <trkpt lat="39.992505" lon="-0.42795667">
        <ele>710.0</ele>
        <time>2017-05-27T11:54:42.530Z</time>
      </trkpt>
      <trkpt lat="39.992505" lon="-0.42795667">
        <ele>710.0</ele>
        <time>2017-05-27T11:54:43.497Z</time>
      </trkpt>
      <trkpt lat="39.99256167" lon="-0.428125">
        <ele>710.0</ele>
        <time>2017-05-27T11:54:44.496Z</time>
      </trkpt>
      <trkpt lat="39.99256167" lon="-0.428125">
        <ele>710.0</ele>
        <time>2017-05-27T11:54:45.503Z</time>
      </trkpt>
      <trkpt lat="39.99261167" lon="-0.42828333">
        <ele>710.0</ele>
        <time>2017-05-27T11:54:46.528Z</time>
      </trkpt>
      <trkpt lat="39.99263667" lon="-0.42835667">
        <ele>710.0</ele>
        <time>2017-05-27T11:54:47.516Z</time>
      </trkpt>
      <trkpt lat="39.99263667" lon="-0.42835667">
        <ele>710.0</ele>
        <time>2017-05-27T11:54:48.495Z</time>
      </trkpt>
      <trkpt lat="39.99268667" lon="-0.42849333">
        <ele>711.0</ele>
        <time>2017-05-27T11:54:49.495Z</time>
      </trkpt>
      <trkpt lat="39.99270667" lon="-0.42855833">
        <ele>711.0</ele>
        <time>2017-05-27T11:54:50.520Z</time>
      </trkpt>
      <trkpt lat="39.99270667" lon="-0.42855833">
        <ele>711.0</ele>
        <time>2017-05-27T11:54:51.497Z</time>
      </trkpt>
      <trkpt lat="39.99274167" lon="-0.428675">
        <ele>711.0</ele>
        <time>2017-05-27T11:54:52.528Z</time>
      </trkpt>
      <trkpt lat="39.99274167" lon="-0.428675">
        <ele>711.0</ele>
        <time>2017-05-27T11:54:53.493Z</time>
      </trkpt>
      <trkpt lat="39.99277" lon="-0.42878167">
        <ele>711.0</ele>
        <time>2017-05-27T11:54:54.527Z</time>
      </trkpt>
      <trkpt lat="39.99277" lon="-0.42878167">
        <ele>711.0</ele>
        <time>2017-05-27T11:54:55.498Z</time>
      </trkpt>
      <trkpt lat="39.99279167" lon="-0.42888667">
        <ele>712.0</ele>
        <time>2017-05-27T11:54:56.513Z</time>
      </trkpt>
      <trkpt lat="39.99279167" lon="-0.42888667">
        <ele>712.0</ele>
        <time>2017-05-27T11:54:57.519Z</time>
      </trkpt>
      <trkpt lat="39.99281667" lon="-0.42898833">
        <ele>712.0</ele>
        <time>2017-05-27T11:54:58.528Z</time>
      </trkpt>
      <trkpt lat="39.99281667" lon="-0.42898833">
        <ele>712.0</ele>
        <time>2017-05-27T11:54:59.493Z</time>
      </trkpt>
      <trkpt lat="39.99283833" lon="-0.42908833">
        <ele>713.0</ele>
        <time>2017-05-27T11:55:00.520Z</time>
      </trkpt>
      <trkpt lat="39.99283833" lon="-0.42908833">
        <ele>713.0</ele>
        <time>2017-05-27T11:55:01.495Z</time>
      </trkpt>
      <trkpt lat="39.99285167" lon="-0.42918833">
        <ele>713.0</ele>
        <time>2017-05-27T11:55:02.513Z</time>
      </trkpt>
      <trkpt lat="39.99285167" lon="-0.42918833">
        <ele>713.0</ele>
        <time>2017-05-27T11:55:03.519Z</time>
      </trkpt>
      <trkpt lat="39.99286167" lon="-0.42928833">
        <ele>714.0</ele>
        <time>2017-05-27T11:55:04.511Z</time>
      </trkpt>
      <trkpt lat="39.99286167" lon="-0.42928833">
        <ele>714.0</ele>
        <time>2017-05-27T11:55:05.519Z</time>
      </trkpt>
      <trkpt lat="39.99287333" lon="-0.42938833">
        <ele>714.0</ele>
        <time>2017-05-27T11:55:06.514Z</time>
      </trkpt>
      <trkpt lat="39.99287833" lon="-0.42943667">
        <ele>715.0</ele>
        <time>2017-05-27T11:55:07.518Z</time>
      </trkpt>
      <trkpt lat="39.99287833" lon="-0.42943667">
        <ele>715.0</ele>
        <time>2017-05-27T11:55:08.508Z</time>
      </trkpt>
      <trkpt lat="39.99288667" lon="-0.42953">
        <ele>715.0</ele>
        <time>2017-05-27T11:55:09.528Z</time>
      </trkpt>
      <trkpt lat="39.99288833" lon="-0.42957667">
        <ele>715.0</ele>
        <time>2017-05-27T11:55:10.494Z</time>
      </trkpt>
      <trkpt lat="39.99289333" lon="-0.429625">
        <ele>716.0</ele>
        <time>2017-05-27T11:55:11.523Z</time>
      </trkpt>
      <trkpt lat="39.99289333" lon="-0.429625">
        <ele>716.0</ele>
        <time>2017-05-27T11:55:12.496Z</time>
      </trkpt>
      <trkpt lat="39.9929" lon="-0.42971833">
        <ele>716.0</ele>
        <time>2017-05-27T11:55:13.529Z</time>
      </trkpt>
      <trkpt lat="39.9929" lon="-0.42971833">
        <ele>716.0</ele>
        <time>2017-05-27T11:55:14.496Z</time>
      </trkpt>
      <trkpt lat="39.99290167" lon="-0.42981">
        <ele>717.0</ele>
        <time>2017-05-27T11:55:15.530Z</time>
      </trkpt>
      <trkpt lat="39.99290167" lon="-0.42981">
        <ele>717.0</ele>
        <time>2017-05-27T11:55:16.498Z</time>
      </trkpt>
      <trkpt lat="39.99289833" lon="-0.429905">
        <ele>718.0</ele>
        <time>2017-05-27T11:55:17.528Z</time>
      </trkpt>
      <trkpt lat="39.99289833" lon="-0.429905">
        <ele>718.0</ele>
        <time>2017-05-27T11:55:18.494Z</time>
      </trkpt>
      <trkpt lat="39.99289667" lon="-0.42999667">
        <ele>719.0</ele>
        <time>2017-05-27T11:55:19.531Z</time>
      </trkpt>
      <trkpt lat="39.99289667" lon="-0.42999667">
        <ele>719.0</ele>
        <time>2017-05-27T11:55:20.497Z</time>
      </trkpt>
      <trkpt lat="39.992895" lon="-0.43008667">
        <ele>719.0</ele>
        <time>2017-05-27T11:55:21.520Z</time>
      </trkpt>
      <trkpt lat="39.99289333" lon="-0.43013333">
        <ele>720.0</ele>
        <time>2017-05-27T11:55:22.496Z</time>
      </trkpt>
      <trkpt lat="39.99289" lon="-0.43018">
        <ele>720.0</ele>
        <time>2017-05-27T11:55:23.527Z</time>
      </trkpt>
      <trkpt lat="39.99289" lon="-0.43018">
        <ele>720.0</ele>
        <time>2017-05-27T11:55:24.493Z</time>
      </trkpt>
      <trkpt lat="39.99288167" lon="-0.43027">
        <ele>721.0</ele>
        <time>2017-05-27T11:55:25.501Z</time>
      </trkpt>
      <trkpt lat="39.99288167" lon="-0.43027">
        <ele>721.0</ele>
        <time>2017-05-27T11:55:26.507Z</time>
      </trkpt>
      <trkpt lat="39.99287" lon="-0.43036333">
        <ele>721.0</ele>
        <time>2017-05-27T11:55:27.491Z</time>
      </trkpt>
      <trkpt lat="39.99286333" lon="-0.43040833">
        <ele>721.0</ele>
        <time>2017-05-27T11:55:28.498Z</time>
      </trkpt>
      <trkpt lat="39.99286333" lon="-0.43040833">
        <ele>721.0</ele>
        <time>2017-05-27T11:55:29.504Z</time>
      </trkpt>
      <trkpt lat="39.99285333" lon="-0.43049833">
        <ele>722.0</ele>
        <time>2017-05-27T11:55:30.529Z</time>
      </trkpt>
      <trkpt lat="39.99285333" lon="-0.43049833">
        <ele>722.0</ele>
        <time>2017-05-27T11:55:31.497Z</time>
      </trkpt>
      <trkpt lat="39.99284" lon="-0.43058667">
        <ele>722.0</ele>
        <time>2017-05-27T11:55:32.526Z</time>
      </trkpt>
      <trkpt lat="39.99284" lon="-0.43058667">
        <ele>722.0</ele>
        <time>2017-05-27T11:55:33.497Z</time>
      </trkpt>
      <trkpt lat="39.99282333" lon="-0.430675">
        <ele>723.0</ele>
        <time>2017-05-27T11:55:34.499Z</time>
      </trkpt>
      <trkpt lat="39.992815" lon="-0.43072">
        <ele>723.0</ele>
        <time>2017-05-27T11:55:35.506Z</time>
      </trkpt>
      <trkpt lat="39.992815" lon="-0.43072">
        <ele>723.0</ele>
        <time>2017-05-27T11:55:36.512Z</time>
      </trkpt>
      <trkpt lat="39.99279833" lon="-0.43081">
        <ele>724.0</ele>
        <time>2017-05-27T11:55:37.504Z</time>
      </trkpt>
      <trkpt lat="39.99279833" lon="-0.43081">
        <ele>724.0</ele>
        <time>2017-05-27T11:55:38.510Z</time>
      </trkpt>
      <trkpt lat="39.99278167" lon="-0.43089833">
        <ele>724.0</ele>
        <time>2017-05-27T11:55:39.506Z</time>
      </trkpt>
      <trkpt lat="39.99278167" lon="-0.43089833">
        <ele>724.0</ele>
        <time>2017-05-27T11:55:40.523Z</time>
      </trkpt>
      <trkpt lat="39.99276" lon="-0.43098167">
        <ele>725.0</ele>
        <time>2017-05-27T11:55:41.518Z</time>
      </trkpt>
      <trkpt lat="39.99276" lon="-0.43098167">
        <ele>725.0</ele>
        <time>2017-05-27T11:55:42.511Z</time>
      </trkpt>
      <trkpt lat="39.99274833" lon="-0.43106833">
        <ele>725.0</ele>
        <time>2017-05-27T11:55:43.510Z</time>
      </trkpt>
      <trkpt lat="39.99274833" lon="-0.43106833">
        <ele>725.0</ele>
        <time>2017-05-27T11:55:44.523Z</time>
      </trkpt>
      <trkpt lat="39.99273" lon="-0.431155">
        <ele>725.0</ele>
        <time>2017-05-27T11:55:45.525Z</time>
      </trkpt>
      <trkpt lat="39.99273" lon="-0.431155">
        <ele>725.0</ele>
        <time>2017-05-27T11:55:46.502Z</time>
      </trkpt>
      <trkpt lat="39.99271" lon="-0.43124167">
        <ele>725.0</ele>
        <time>2017-05-27T11:55:47.494Z</time>
      </trkpt>
      <trkpt lat="39.99270167" lon="-0.43128167">
        <ele>725.0</ele>
        <time>2017-05-27T11:55:48.528Z</time>
      </trkpt>
      <trkpt lat="39.99270167" lon="-0.43128167">
        <ele>725.0</ele>
        <time>2017-05-27T11:55:49.497Z</time>
      </trkpt>
      <trkpt lat="39.99269" lon="-0.43137">
        <ele>725.0</ele>
        <time>2017-05-27T11:55:50.504Z</time>
      </trkpt>
      <trkpt lat="39.99269" lon="-0.43137">
        <ele>725.0</ele>
        <time>2017-05-27T11:55:51.505Z</time>
      </trkpt>
      <trkpt lat="39.99267667" lon="-0.43146">
        <ele>726.0</ele>
        <time>2017-05-27T11:55:52.496Z</time>
      </trkpt>
      <trkpt lat="39.99267667" lon="-0.43146">
        <ele>726.0</ele>
        <time>2017-05-27T11:55:53.502Z</time>
      </trkpt>
      <trkpt lat="39.992665" lon="-0.43155">
        <ele>726.0</ele>
        <time>2017-05-27T11:55:54.528Z</time>
      </trkpt>
      <trkpt lat="39.992665" lon="-0.43155">
        <ele>726.0</ele>
        <time>2017-05-27T11:55:55.494Z</time>
      </trkpt>
      <trkpt lat="39.99264667" lon="-0.43164">
        <ele>726.0</ele>
        <time>2017-05-27T11:55:56.492Z</time>
      </trkpt>
      <trkpt lat="39.992635" lon="-0.431685">
        <ele>726.0</ele>
        <time>2017-05-27T11:55:57.500Z</time>
      </trkpt>
      <trkpt lat="39.992635" lon="-0.431685">
        <ele>726.0</ele>
        <time>2017-05-27T11:55:58.506Z</time>
      </trkpt>
      <trkpt lat="39.99261333" lon="-0.43178">
        <ele>726.0</ele>
        <time>2017-05-27T11:55:59.507Z</time>
      </trkpt>
      <trkpt lat="39.99261333" lon="-0.43178">
        <ele>726.0</ele>
        <time>2017-05-27T11:56:00.513Z</time>
      </trkpt>
      <trkpt lat="39.99259833" lon="-0.43187667">
        <ele>727.0</ele>
        <time>2017-05-27T11:56:01.505Z</time>
      </trkpt>
      <trkpt lat="39.99259833" lon="-0.43187667">
        <ele>727.0</ele>
        <time>2017-05-27T11:56:02.511Z</time>
      </trkpt>
      <trkpt lat="39.99258167" lon="-0.43197333">
        <ele>726.0</ele>
        <time>2017-05-27T11:56:03.501Z</time>
      </trkpt>
      <trkpt lat="39.992575" lon="-0.43202">
        <ele>727.0</ele>
        <time>2017-05-27T11:56:04.507Z</time>
      </trkpt>
      <trkpt lat="39.99256667" lon="-0.43206667">
        <ele>726.0</ele>
        <time>2017-05-27T11:56:05.494Z</time>
      </trkpt>
      <trkpt lat="39.99256667" lon="-0.43206667">
        <ele>726.0</ele>
        <time>2017-05-27T11:56:06.500Z</time>
      </trkpt>
      <trkpt lat="39.99254667" lon="-0.43216333">
        <ele>726.0</ele>
        <time>2017-05-27T11:56:07.529Z</time>
      </trkpt>
      <trkpt lat="39.99254667" lon="-0.43216333">
        <ele>726.0</ele>
        <time>2017-05-27T11:56:08.495Z</time>
      </trkpt>
      <trkpt lat="39.99252833" lon="-0.43226333">
        <ele>726.0</ele>
        <time>2017-05-27T11:56:09.503Z</time>
      </trkpt>
      <trkpt lat="39.99252833" lon="-0.43226333">
        <ele>726.0</ele>
        <time>2017-05-27T11:56:10.509Z</time>
      </trkpt>
      <trkpt lat="39.99250333" lon="-0.43236167">
        <ele>726.0</ele>
        <time>2017-05-27T11:56:11.492Z</time>
      </trkpt>
      <trkpt lat="39.99250333" lon="-0.43236167">
        <ele>726.0</ele>
        <time>2017-05-27T11:56:12.533Z</time>
      </trkpt>
      <trkpt lat="39.992485" lon="-0.43246167">
        <ele>726.0</ele>
        <time>2017-05-27T11:56:13.530Z</time>
      </trkpt>
      <trkpt lat="39.992485" lon="-0.43246167">
        <ele>726.0</ele>
        <time>2017-05-27T11:56:14.496Z</time>
      </trkpt>
      <trkpt lat="39.99247167" lon="-0.43256">
        <ele>726.0</ele>
        <time>2017-05-27T11:56:15.495Z</time>
      </trkpt>
      <trkpt lat="39.99247167" lon="-0.43256">
        <ele>726.0</ele>
        <time>2017-05-27T11:56:16.501Z</time>
      </trkpt>
      <trkpt lat="39.99244667" lon="-0.43266167">
        <ele>726.0</ele>
        <time>2017-05-27T11:56:17.528Z</time>
      </trkpt>
      <trkpt lat="39.99244667" lon="-0.43266167">
        <ele>726.0</ele>
        <time>2017-05-27T11:56:18.498Z</time>
      </trkpt>
      <trkpt lat="39.99243" lon="-0.432755">
        <ele>726.0</ele>
        <time>2017-05-27T11:56:19.493Z</time>
      </trkpt>
      <trkpt lat="39.99242" lon="-0.4328">
        <ele>726.0</ele>
        <time>2017-05-27T11:56:20.498Z</time>
      </trkpt>
      <trkpt lat="39.99241" lon="-0.432845">
        <ele>726.0</ele>
        <time>2017-05-27T11:56:21.517Z</time>
      </trkpt>
      <trkpt lat="39.99241" lon="-0.432845">
        <ele>726.0</ele>
        <time>2017-05-27T11:56:22.524Z</time>
      </trkpt>
      <trkpt lat="39.99238667" lon="-0.43293833">
        <ele>727.0</ele>
        <time>2017-05-27T11:56:23.498Z</time>
      </trkpt>
      <trkpt lat="39.99238667" lon="-0.43293833">
        <ele>727.0</ele>
        <time>2017-05-27T11:56:24.505Z</time>
      </trkpt>
      <trkpt lat="39.99237" lon="-0.43303">
        <ele>727.0</ele>
        <time>2017-05-27T11:56:25.499Z</time>
      </trkpt>
      <trkpt lat="39.99236333" lon="-0.43308">
        <ele>727.0</ele>
        <time>2017-05-27T11:56:26.530Z</time>
      </trkpt>
      <trkpt lat="39.99236333" lon="-0.43308">
        <ele>727.0</ele>
        <time>2017-05-27T11:56:27.497Z</time>
      </trkpt>
      <trkpt lat="39.99235167" lon="-0.43317833">
        <ele>727.0</ele>
        <time>2017-05-27T11:56:28.493Z</time>
      </trkpt>
      <trkpt lat="39.99234333" lon="-0.43322667">
        <ele>727.0</ele>
        <time>2017-05-27T11:56:29.527Z</time>
      </trkpt>
      <trkpt lat="39.99234333" lon="-0.43322667">
        <ele>727.0</ele>
        <time>2017-05-27T11:56:30.495Z</time>
      </trkpt>
      <trkpt lat="39.99232667" lon="-0.433325">
        <ele>728.0</ele>
        <time>2017-05-27T11:56:31.527Z</time>
      </trkpt>
      <trkpt lat="39.99232667" lon="-0.433325">
        <ele>728.0</ele>
        <time>2017-05-27T11:56:32.496Z</time>
      </trkpt>
      <trkpt lat="39.99230833" lon="-0.433425">
        <ele>728.0</ele>
        <time>2017-05-27T11:56:33.521Z</time>
      </trkpt>
      <trkpt lat="39.99230833" lon="-0.433425">
        <ele>728.0</ele>
        <time>2017-05-27T11:56:34.498Z</time>
      </trkpt>
      <trkpt lat="39.99228833" lon="-0.43352667">
        <ele>728.0</ele>
        <time>2017-05-27T11:56:35.491Z</time>
      </trkpt>
      <trkpt lat="39.99228833" lon="-0.43352667">
        <ele>728.0</ele>
        <time>2017-05-27T11:56:36.497Z</time>
      </trkpt>
      <trkpt lat="39.99226667" lon="-0.43362667">
        <ele>728.0</ele>
        <time>2017-05-27T11:56:37.530Z</time>
      </trkpt>
      <trkpt lat="39.99226667" lon="-0.43362667">
        <ele>728.0</ele>
        <time>2017-05-27T11:56:38.497Z</time>
      </trkpt>
      <trkpt lat="39.99225333" lon="-0.43372667">
        <ele>728.0</ele>
        <time>2017-05-27T11:56:39.528Z</time>
      </trkpt>
      <trkpt lat="39.99225333" lon="-0.43372667">
        <ele>728.0</ele>
        <time>2017-05-27T11:56:40.521Z</time>
      </trkpt>
      <trkpt lat="39.99223667" lon="-0.43382833">
        <ele>729.0</ele>
        <time>2017-05-27T11:56:41.500Z</time>
      </trkpt>
      <trkpt lat="39.99223667" lon="-0.43382833">
        <ele>729.0</ele>
        <time>2017-05-27T11:56:42.507Z</time>
      </trkpt>
      <trkpt lat="39.99222167" lon="-0.43392833">
        <ele>729.0</ele>
        <time>2017-05-27T11:56:43.530Z</time>
      </trkpt>
      <trkpt lat="39.99222167" lon="-0.43392833">
        <ele>729.0</ele>
        <time>2017-05-27T11:56:44.498Z</time>
      </trkpt>
      <trkpt lat="39.99220667" lon="-0.434025">
        <ele>729.0</ele>
        <time>2017-05-27T11:56:45.503Z</time>
      </trkpt>
      <trkpt lat="39.9922" lon="-0.43407833">
        <ele>729.0</ele>
        <time>2017-05-27T11:56:46.510Z</time>
      </trkpt>
      <trkpt lat="39.99219167" lon="-0.43413167">
        <ele>729.0</ele>
        <time>2017-05-27T11:56:47.495Z</time>
      </trkpt>
      <trkpt lat="39.99219167" lon="-0.43413167">
        <ele>729.0</ele>
        <time>2017-05-27T11:56:48.502Z</time>
      </trkpt>
      <trkpt lat="39.99217667" lon="-0.43423">
        <ele>729.0</ele>
        <time>2017-05-27T11:56:49.530Z</time>
      </trkpt>
      <trkpt lat="39.99217667" lon="-0.43423">
        <ele>729.0</ele>
        <time>2017-05-27T11:56:50.496Z</time>
      </trkpt>
      <trkpt lat="39.99215833" lon="-0.434335">
        <ele>729.0</ele>
        <time>2017-05-27T11:56:51.505Z</time>
      </trkpt>
      <trkpt lat="39.99215833" lon="-0.434335">
        <ele>729.0</ele>
        <time>2017-05-27T11:56:52.511Z</time>
      </trkpt>
      <trkpt lat="39.99214667" lon="-0.43443833">
        <ele>729.0</ele>
        <time>2017-05-27T11:56:53.507Z</time>
      </trkpt>
      <trkpt lat="39.99214667" lon="-0.43443833">
        <ele>729.0</ele>
        <time>2017-05-27T11:56:54.513Z</time>
      </trkpt>
      <trkpt lat="39.992135" lon="-0.43454667">
        <ele>729.0</ele>
        <time>2017-05-27T11:56:55.505Z</time>
      </trkpt>
      <trkpt lat="39.992135" lon="-0.43454667">
        <ele>729.0</ele>
        <time>2017-05-27T11:56:56.512Z</time>
      </trkpt>
      <trkpt lat="39.992125" lon="-0.434655">
        <ele>729.0</ele>
        <time>2017-05-27T11:56:57.512Z</time>
      </trkpt>
      <trkpt lat="39.992125" lon="-0.434655">
        <ele>729.0</ele>
        <time>2017-05-27T11:56:58.522Z</time>
      </trkpt>
      <trkpt lat="39.99211833" lon="-0.43476">
        <ele>729.0</ele>
        <time>2017-05-27T11:56:59.527Z</time>
      </trkpt>
      <trkpt lat="39.99211833" lon="-0.43476">
        <ele>729.0</ele>
        <time>2017-05-27T11:57:00.496Z</time>
      </trkpt>
      <trkpt lat="39.99211167" lon="-0.43486667">
        <ele>730.0</ele>
        <time>2017-05-27T11:57:01.516Z</time>
      </trkpt>
      <trkpt lat="39.99211167" lon="-0.43486667">
        <ele>730.0</ele>
        <time>2017-05-27T11:57:02.523Z</time>
      </trkpt>
      <trkpt lat="39.992105" lon="-0.43497167">
        <ele>730.0</ele>
        <time>2017-05-27T11:57:03.522Z</time>
      </trkpt>
      <trkpt lat="39.992105" lon="-0.43497167">
        <ele>730.0</ele>
        <time>2017-05-27T11:57:04.531Z</time>
      </trkpt>
      <trkpt lat="39.9921" lon="-0.43508167">
        <ele>730.0</ele>
        <time>2017-05-27T11:57:05.522Z</time>
      </trkpt>
      <trkpt lat="39.9921" lon="-0.43508167">
        <ele>730.0</ele>
        <time>2017-05-27T11:57:06.493Z</time>
      </trkpt>
      <trkpt lat="39.99209333" lon="-0.43519167">
        <ele>730.0</ele>
        <time>2017-05-27T11:57:07.516Z</time>
      </trkpt>
      <trkpt lat="39.99209333" lon="-0.43519167">
        <ele>730.0</ele>
        <time>2017-05-27T11:57:08.497Z</time>
      </trkpt>
      <trkpt lat="39.99208833" lon="-0.43530333">
        <ele>730.0</ele>
        <time>2017-05-27T11:57:09.529Z</time>
      </trkpt>
      <trkpt lat="39.99208833" lon="-0.43530333">
        <ele>730.0</ele>
        <time>2017-05-27T11:57:10.496Z</time>
      </trkpt>
      <trkpt lat="39.99208" lon="-0.43541833">
        <ele>730.0</ele>
        <time>2017-05-27T11:57:11.491Z</time>
      </trkpt>
      <trkpt lat="39.99208" lon="-0.43541833">
        <ele>730.0</ele>
        <time>2017-05-27T11:57:12.497Z</time>
      </trkpt>
      <trkpt lat="39.99207333" lon="-0.43553833">
        <ele>731.0</ele>
        <time>2017-05-27T11:57:13.518Z</time>
      </trkpt>
      <trkpt lat="39.99207333" lon="-0.43553833">
        <ele>731.0</ele>
        <time>2017-05-27T11:57:14.493Z</time>
      </trkpt>
      <trkpt lat="39.99206167" lon="-0.43565333">
        <ele>731.0</ele>
        <time>2017-05-27T11:57:15.524Z</time>
      </trkpt>
      <trkpt lat="39.99206167" lon="-0.43565333">
        <ele>731.0</ele>
        <time>2017-05-27T11:57:16.494Z</time>
      </trkpt>
      <trkpt lat="39.99204667" lon="-0.43576833">
        <ele>731.0</ele>
        <time>2017-05-27T11:57:17.496Z</time>
      </trkpt>
      <trkpt lat="39.99203833" lon="-0.43582833">
        <ele>731.0</ele>
        <time>2017-05-27T11:57:18.520Z</time>
      </trkpt>
      <trkpt lat="39.99202667" lon="-0.43588667">
        <ele>731.0</ele>
        <time>2017-05-27T11:57:19.506Z</time>
      </trkpt>
      <trkpt lat="39.99202667" lon="-0.43588667">
        <ele>731.0</ele>
        <time>2017-05-27T11:57:20.513Z</time>
      </trkpt>
      <trkpt lat="39.992" lon="-0.436005">
        <ele>730.0</ele>
        <time>2017-05-27T11:57:21.495Z</time>
      </trkpt>
      <trkpt lat="39.99198" lon="-0.43606667">
        <ele>730.0</ele>
        <time>2017-05-27T11:57:22.507Z</time>
      </trkpt>
      <trkpt lat="39.99198" lon="-0.43606667">
        <ele>730.0</ele>
        <time>2017-05-27T11:57:23.514Z</time>
      </trkpt>
      <trkpt lat="39.99193" lon="-0.43618333">
        <ele>730.0</ele>
        <time>2017-05-27T11:57:24.520Z</time>
      </trkpt>
      <trkpt lat="39.99193" lon="-0.43618333">
        <ele>730.0</ele>
        <time>2017-05-27T11:57:25.494Z</time>
      </trkpt>
      <trkpt lat="39.99186333" lon="-0.436285">
        <ele>730.0</ele>
        <time>2017-05-27T11:57:26.529Z</time>
      </trkpt>
      <trkpt lat="39.99186333" lon="-0.436285">
        <ele>730.0</ele>
        <time>2017-05-27T11:57:27.497Z</time>
      </trkpt>
      <trkpt lat="39.99177167" lon="-0.436355">
        <ele>730.0</ele>
        <time>2017-05-27T11:57:28.494Z</time>
      </trkpt>
      <trkpt lat="39.99171667" lon="-0.43637667">
        <ele>730.0</ele>
        <time>2017-05-27T11:57:29.523Z</time>
      </trkpt>
      <trkpt lat="39.99171667" lon="-0.43637667">
        <ele>730.0</ele>
        <time>2017-05-27T11:57:30.493Z</time>
      </trkpt>
      <trkpt lat="39.99160167" lon="-0.43638833">
        <ele>730.0</ele>
        <time>2017-05-27T11:57:31.525Z</time>
      </trkpt>
      <trkpt lat="39.99160167" lon="-0.43638833">
        <ele>730.0</ele>
        <time>2017-05-27T11:57:32.497Z</time>
      </trkpt>
      <trkpt lat="39.99149" lon="-0.436365">
        <ele>730.0</ele>
        <time>2017-05-27T11:57:33.527Z</time>
      </trkpt>
      <trkpt lat="39.99149" lon="-0.436365">
        <ele>730.0</ele>
        <time>2017-05-27T11:57:34.495Z</time>
      </trkpt>
      <trkpt lat="39.99138333" lon="-0.43629333">
        <ele>730.0</ele>
        <time>2017-05-27T11:57:35.530Z</time>
      </trkpt>
      <trkpt lat="39.99138333" lon="-0.43629333">
        <ele>730.0</ele>
        <time>2017-05-27T11:57:36.496Z</time>
      </trkpt>
      <trkpt lat="39.99127667" lon="-0.43620667">
        <ele>730.0</ele>
        <time>2017-05-27T11:57:37.491Z</time>
      </trkpt>
      <trkpt lat="39.99127667" lon="-0.43620667">
        <ele>730.0</ele>
        <time>2017-05-27T11:57:38.501Z</time>
      </trkpt>
      <trkpt lat="39.991165" lon="-0.436115">
        <ele>729.0</ele>
        <time>2017-05-27T11:57:39.527Z</time>
      </trkpt>
      <trkpt lat="39.991165" lon="-0.436115">
        <ele>729.0</ele>
        <time>2017-05-27T11:57:40.494Z</time>
      </trkpt>
      <trkpt lat="39.99104167" lon="-0.43604">
        <ele>729.0</ele>
        <time>2017-05-27T11:57:41.529Z</time>
      </trkpt>
      <trkpt lat="39.99104167" lon="-0.43604">
        <ele>729.0</ele>
        <time>2017-05-27T11:57:42.497Z</time>
      </trkpt>
      <trkpt lat="39.99090167" lon="-0.43602">
        <ele>729.0</ele>
        <time>2017-05-27T11:57:43.493Z</time>
      </trkpt>
      <trkpt lat="39.99090167" lon="-0.43602">
        <ele>729.0</ele>
        <time>2017-05-27T11:57:44.501Z</time>
      </trkpt>
      <trkpt lat="39.99075667" lon="-0.43607333">
        <ele>729.0</ele>
        <time>2017-05-27T11:57:45.527Z</time>
      </trkpt>
      <trkpt lat="39.99075667" lon="-0.43607333">
        <ele>729.0</ele>
        <time>2017-05-27T11:57:46.493Z</time>
      </trkpt>
      <trkpt lat="39.990615" lon="-0.43616833">
        <ele>728.0</ele>
        <time>2017-05-27T11:57:47.520Z</time>
      </trkpt>
      <trkpt lat="39.990615" lon="-0.43616833">
        <ele>728.0</ele>
        <time>2017-05-27T11:57:48.493Z</time>
      </trkpt>
      <trkpt lat="39.990465" lon="-0.43626833">
        <ele>728.0</ele>
        <time>2017-05-27T11:57:49.527Z</time>
      </trkpt>
      <trkpt lat="39.990465" lon="-0.43626833">
        <ele>728.0</ele>
        <time>2017-05-27T11:57:50.495Z</time>
      </trkpt>
      <trkpt lat="39.99030833" lon="-0.43637167">
        <ele>727.0</ele>
        <time>2017-05-27T11:57:51.496Z</time>
      </trkpt>
      <trkpt lat="39.99022667" lon="-0.43642167">
        <ele>727.0</ele>
        <time>2017-05-27T11:57:52.508Z</time>
      </trkpt>
      <trkpt lat="39.99022667" lon="-0.43642167">
        <ele>727.0</ele>
        <time>2017-05-27T11:57:53.514Z</time>
      </trkpt>
      <trkpt lat="39.99007" lon="-0.43652333">
        <ele>726.0</ele>
        <time>2017-05-27T11:57:54.517Z</time>
      </trkpt>
      <trkpt lat="39.99007" lon="-0.43652333">
        <ele>726.0</ele>
        <time>2017-05-27T11:57:55.531Z</time>
      </trkpt>
      <trkpt lat="39.98992" lon="-0.43659833">
        <ele>726.0</ele>
        <time>2017-05-27T11:57:56.503Z</time>
      </trkpt>
      <trkpt lat="39.98992" lon="-0.43659833">
        <ele>726.0</ele>
        <time>2017-05-27T11:57:57.509Z</time>
      </trkpt>
      <trkpt lat="39.98977" lon="-0.43663667">
        <ele>726.0</ele>
        <time>2017-05-27T11:57:58.509Z</time>
      </trkpt>
      <trkpt lat="39.98977" lon="-0.43663667">
        <ele>726.0</ele>
        <time>2017-05-27T11:57:59.516Z</time>
      </trkpt>
      <trkpt lat="39.98964" lon="-0.43665">
        <ele>725.0</ele>
        <time>2017-05-27T11:58:00.502Z</time>
      </trkpt>
      <trkpt lat="39.98964" lon="-0.43665">
        <ele>725.0</ele>
        <time>2017-05-27T11:58:01.508Z</time>
      </trkpt>
      <trkpt lat="39.989525" lon="-0.43663667">
        <ele>725.0</ele>
        <time>2017-05-27T11:58:02.515Z</time>
      </trkpt>
      <trkpt lat="39.98946833" lon="-0.43662167">
        <ele>725.0</ele>
        <time>2017-05-27T11:58:03.516Z</time>
      </trkpt>
      <trkpt lat="39.98946833" lon="-0.43662167">
        <ele>725.0</ele>
        <time>2017-05-27T11:58:04.496Z</time>
      </trkpt>
      <trkpt lat="39.989355" lon="-0.43658333">
        <ele>725.0</ele>
        <time>2017-05-27T11:58:05.527Z</time>
      </trkpt>
      <trkpt lat="39.989355" lon="-0.43658333">
        <ele>725.0</ele>
        <time>2017-05-27T11:58:06.492Z</time>
      </trkpt>
      <trkpt lat="39.98924333" lon="-0.43652833">
        <ele>724.0</ele>
        <time>2017-05-27T11:58:07.512Z</time>
      </trkpt>
      <trkpt lat="39.98924333" lon="-0.43652833">
        <ele>724.0</ele>
        <time>2017-05-27T11:58:08.518Z</time>
      </trkpt>
      <trkpt lat="39.989125" lon="-0.43647">
        <ele>724.0</ele>
        <time>2017-05-27T11:58:09.500Z</time>
      </trkpt>
      <trkpt lat="39.989065" lon="-0.43644">
        <ele>724.0</ele>
        <time>2017-05-27T11:58:10.506Z</time>
      </trkpt>
      <trkpt lat="39.989065" lon="-0.43644">
        <ele>724.0</ele>
        <time>2017-05-27T11:58:11.514Z</time>
      </trkpt>
      <trkpt lat="39.988945" lon="-0.43636333">
        <ele>723.0</ele>
        <time>2017-05-27T11:58:12.506Z</time>
      </trkpt>
      <trkpt lat="39.98888" lon="-0.43632333">
        <ele>723.0</ele>
        <time>2017-05-27T11:58:13.492Z</time>
      </trkpt>
      <trkpt lat="39.98888" lon="-0.43632333">
        <ele>723.0</ele>
        <time>2017-05-27T11:58:14.502Z</time>
      </trkpt>
      <trkpt lat="39.98875" lon="-0.43625833">
        <ele>722.0</ele>
        <time>2017-05-27T11:58:15.526Z</time>
      </trkpt>
      <trkpt lat="39.98875" lon="-0.43625833">
        <ele>722.0</ele>
        <time>2017-05-27T11:58:16.499Z</time>
      </trkpt>
      <trkpt lat="39.988615" lon="-0.43623333">
        <ele>721.0</ele>
        <time>2017-05-27T11:58:17.521Z</time>
      </trkpt>
      <trkpt lat="39.988615" lon="-0.43623333">
        <ele>721.0</ele>
        <time>2017-05-27T11:58:18.531Z</time>
      </trkpt>
      <trkpt lat="39.98847833" lon="-0.43626333">
        <ele>720.0</ele>
        <time>2017-05-27T11:58:19.504Z</time>
      </trkpt>
      <trkpt lat="39.98847833" lon="-0.43626333">
        <ele>720.0</ele>
        <time>2017-05-27T11:58:20.511Z</time>
      </trkpt>
      <trkpt lat="39.98835" lon="-0.43635">
        <ele>720.0</ele>
        <time>2017-05-27T11:58:21.492Z</time>
      </trkpt>
      <trkpt lat="39.98829333" lon="-0.43641333">
        <ele>719.0</ele>
        <time>2017-05-27T11:58:22.500Z</time>
      </trkpt>
      <trkpt lat="39.98829333" lon="-0.43641333">
        <ele>719.0</ele>
        <time>2017-05-27T11:58:23.508Z</time>
      </trkpt>
      <trkpt lat="39.98821667" lon="-0.43657667">
        <ele>719.0</ele>
        <time>2017-05-27T11:58:24.497Z</time>
      </trkpt>
      <trkpt lat="39.98821667" lon="-0.43657667">
        <ele>719.0</ele>
        <time>2017-05-27T11:58:25.505Z</time>
      </trkpt>
      <trkpt lat="39.988175" lon="-0.43675667">
        <ele>719.0</ele>
        <time>2017-05-27T11:58:26.529Z</time>
      </trkpt>
      <trkpt lat="39.98816167" lon="-0.43684667">
        <ele>719.0</ele>
        <time>2017-05-27T11:58:27.528Z</time>
      </trkpt>
      <trkpt lat="39.98816167" lon="-0.43684667">
        <ele>719.0</ele>
        <time>2017-05-27T11:58:28.494Z</time>
      </trkpt>
      <trkpt lat="39.98812" lon="-0.43701667">
        <ele>718.0</ele>
        <time>2017-05-27T11:58:29.524Z</time>
      </trkpt>
      <trkpt lat="39.98812" lon="-0.43701667">
        <ele>718.0</ele>
        <time>2017-05-27T11:58:30.497Z</time>
      </trkpt>
      <trkpt lat="39.98806" lon="-0.43716833">
        <ele>718.0</ele>
        <time>2017-05-27T11:58:31.524Z</time>
      </trkpt>
      <trkpt lat="39.98806" lon="-0.43716833">
        <ele>718.0</ele>
        <time>2017-05-27T11:58:32.504Z</time>
      </trkpt>
      <trkpt lat="39.98805667" lon="-0.43732333">
        <ele>718.0</ele>
        <time>2017-05-27T11:58:33.521Z</time>
      </trkpt>
      <trkpt lat="39.98805667" lon="-0.43732333">
        <ele>718.0</ele>
        <time>2017-05-27T11:58:34.493Z</time>
      </trkpt>
      <trkpt lat="39.98811667" lon="-0.437435">
        <ele>719.0</ele>
        <time>2017-05-27T11:58:35.520Z</time>
      </trkpt>
      <trkpt lat="39.98811667" lon="-0.437435">
        <ele>719.0</ele>
        <time>2017-05-27T11:58:36.496Z</time>
      </trkpt>
      <trkpt lat="39.98818167" lon="-0.43750333">
        <ele>719.0</ele>
        <time>2017-05-27T11:58:37.526Z</time>
      </trkpt>
      <trkpt lat="39.98818167" lon="-0.43750333">
        <ele>719.0</ele>
        <time>2017-05-27T11:58:38.496Z</time>
      </trkpt>
      <trkpt lat="39.98823167" lon="-0.43757167">
        <ele>719.0</ele>
        <time>2017-05-27T11:58:39.529Z</time>
      </trkpt>
      <trkpt lat="39.98823167" lon="-0.43757167">
        <ele>719.0</ele>
        <time>2017-05-27T11:58:40.495Z</time>
      </trkpt>
      <trkpt lat="39.98826167" lon="-0.43763167">
        <ele>719.0</ele>
        <time>2017-05-27T11:58:41.516Z</time>
      </trkpt>
      <trkpt lat="39.98826167" lon="-0.43763167">
        <ele>719.0</ele>
        <time>2017-05-27T11:58:42.497Z</time>
      </trkpt>
      <trkpt lat="39.98828" lon="-0.43767833">
        <ele>719.0</ele>
        <time>2017-05-27T11:58:43.532Z</time>
      </trkpt>
      <trkpt lat="39.988285" lon="-0.43768833">
        <ele>720.0</ele>
        <time>2017-05-27T11:58:44.515Z</time>
      </trkpt>
      <trkpt lat="39.988285" lon="-0.43768833">
        <ele>720.0</ele>
        <time>2017-05-27T11:58:45.530Z</time>
      </trkpt>
      <trkpt lat="39.988285" lon="-0.43769167">
        <ele>720.0</ele>
        <time>2017-05-27T11:58:46.530Z</time>
      </trkpt>
      <trkpt lat="39.988285" lon="-0.43769167">
        <ele>720.0</ele>
        <time>2017-05-27T11:58:47.526Z</time>
      </trkpt>
      <trkpt lat="39.988285" lon="-0.43769167">
        <ele>720.0</ele>
        <time>2017-05-27T11:58:48.497Z</time>
      </trkpt>
      <trkpt lat="39.988285" lon="-0.43769167">
        <ele>720.0</ele>
        <time>2017-05-27T11:58:49.509Z</time>
      </trkpt>
    </trkseg>
  </trk>
</gpx>
